<?xml version="1.0" encoding="UTF-8"?>
<gpx version="1.1" creator="https://www.www-youtrack-es.amenigma.com" xsi:schemaLocation="http://www.topografix.com/GPX/1/1 http://www.topografix.com/GPX/1/1/gpx.xsd http://www.garmin.com/xmlschemas/GpxExtensions/v3 http://www.garmin.com/xmlschemas/GpxExtensionsv3.xsd http://www.garmin.com/xmlschemas/TrackPointExtension/v1 http://www.garmin.com/xmlschemas/TrackPointExtensionv1.xsd" xmlns:gpxtpx="http://www.garmin.com/xmlschemas/TrackPointExtension/v1" xmlns:gpxx="http://www.garmin.com/xmlschemas/GpxExtensions/v3" xmlns:xsi="http://www.w3.org/2001/XMLSchema-instance">
  <metadata>
    <link href="https://www.www-youtrack-es.amenigma.com">
      <text>YouTrack.es</text>
    </link>
    <time>2026-09-01T03:49:38Z</time>
  </metadata>
  <trk>
    <src>https://www.www-youtrack-es.amenigma.com</src>
    <link href="https://www.www-youtrack-es.amenigma.com/ruta/19996-aeroporto">
      <text>YouTrack.es</text>
    </link>
    <trkseg>
      <trkpt lat="42.9154230" lon="-8.4135750">
        <ele>368.4</ele>
        <time>2021-03-03T10:40:17Z</time>
      </trkpt>
      <trkpt lat="42.9154220" lon="-8.4136070">
        <ele>368.4</ele>
        <time>2021-03-03T10:40:18Z</time>
      </trkpt>
      <trkpt lat="42.9154250" lon="-8.4136470">
        <ele>368.4</ele>
        <time>2021-03-03T10:40:19Z</time>
      </trkpt>
      <trkpt lat="42.9154260" lon="-8.4136670">
        <ele>368.4</ele>
        <time>2021-03-03T10:40:20Z</time>
      </trkpt>
      <trkpt lat="42.9154280" lon="-8.4137080">
        <ele>368.4</ele>
        <time>2021-03-03T10:40:21Z</time>
      </trkpt>
      <trkpt lat="42.9154330" lon="-8.4137420">
        <ele>368.2</ele>
        <time>2021-03-03T10:40:22Z</time>
      </trkpt>
      <trkpt lat="42.9154410" lon="-8.4137710">
        <ele>368.2</ele>
        <time>2021-03-03T10:40:23Z</time>
      </trkpt>
      <trkpt lat="42.9154490" lon="-8.4138020">
        <ele>368.2</ele>
        <time>2021-03-03T10:40:24Z</time>
      </trkpt>
      <trkpt lat="42.9154590" lon="-8.4138340">
        <ele>368.0</ele>
        <time>2021-03-03T10:40:25Z</time>
      </trkpt>
      <trkpt lat="42.9154720" lon="-8.4138680">
        <ele>368.0</ele>
        <time>2021-03-03T10:40:26Z</time>
      </trkpt>
      <trkpt lat="42.9154850" lon="-8.4139010">
        <ele>368.0</ele>
        <time>2021-03-03T10:40:27Z</time>
      </trkpt>
      <trkpt lat="42.9154950" lon="-8.4139320">
        <ele>367.8</ele>
        <time>2021-03-03T10:40:28Z</time>
      </trkpt>
      <trkpt lat="42.9155060" lon="-8.4139640">
        <ele>367.8</ele>
        <time>2021-03-03T10:40:29Z</time>
      </trkpt>
      <trkpt lat="42.9155180" lon="-8.4139980">
        <ele>367.8</ele>
        <time>2021-03-03T10:40:30Z</time>
      </trkpt>
      <trkpt lat="42.9155280" lon="-8.4140350">
        <ele>367.6</ele>
        <time>2021-03-03T10:40:31Z</time>
      </trkpt>
      <trkpt lat="42.9155360" lon="-8.4140670">
        <ele>367.6</ele>
        <time>2021-03-03T10:40:32Z</time>
      </trkpt>
      <trkpt lat="42.9155450" lon="-8.4140990">
        <ele>367.6</ele>
        <time>2021-03-03T10:40:33Z</time>
      </trkpt>
      <trkpt lat="42.9155550" lon="-8.4141310">
        <ele>367.6</ele>
        <time>2021-03-03T10:40:34Z</time>
      </trkpt>
      <trkpt lat="42.9155670" lon="-8.4141660">
        <ele>367.6</ele>
        <time>2021-03-03T10:40:35Z</time>
      </trkpt>
      <trkpt lat="42.9155780" lon="-8.4142020">
        <ele>367.8</ele>
        <time>2021-03-03T10:40:36Z</time>
      </trkpt>
      <trkpt lat="42.9155890" lon="-8.4142370">
        <ele>367.8</ele>
        <time>2021-03-03T10:40:37Z</time>
      </trkpt>
      <trkpt lat="42.9155990" lon="-8.4142730">
        <ele>367.8</ele>
        <time>2021-03-03T10:40:38Z</time>
      </trkpt>
      <trkpt lat="42.9156090" lon="-8.4143100">
        <ele>367.8</ele>
        <time>2021-03-03T10:40:39Z</time>
      </trkpt>
      <trkpt lat="42.9156200" lon="-8.4143490">
        <ele>367.8</ele>
        <time>2021-03-03T10:40:40Z</time>
      </trkpt>
      <trkpt lat="42.9156310" lon="-8.4143880">
        <ele>367.8</ele>
        <time>2021-03-03T10:40:41Z</time>
      </trkpt>
      <trkpt lat="42.9156430" lon="-8.4144270">
        <ele>367.8</ele>
        <time>2021-03-03T10:40:42Z</time>
      </trkpt>
      <trkpt lat="42.9156560" lon="-8.4144640">
        <ele>367.6</ele>
        <time>2021-03-03T10:40:43Z</time>
      </trkpt>
      <trkpt lat="42.9156700" lon="-8.4145020">
        <ele>367.4</ele>
        <time>2021-03-03T10:40:44Z</time>
      </trkpt>
      <trkpt lat="42.9156830" lon="-8.4145390">
        <ele>367.4</ele>
        <time>2021-03-03T10:40:45Z</time>
      </trkpt>
      <trkpt lat="42.9156940" lon="-8.4145750">
        <ele>367.4</ele>
        <time>2021-03-03T10:40:46Z</time>
      </trkpt>
      <trkpt lat="42.9157070" lon="-8.4146160">
        <ele>367.4</ele>
        <time>2021-03-03T10:40:47Z</time>
      </trkpt>
      <trkpt lat="42.9157180" lon="-8.4146550">
        <ele>367.2</ele>
        <time>2021-03-03T10:40:48Z</time>
      </trkpt>
      <trkpt lat="42.9157290" lon="-8.4146930">
        <ele>367.2</ele>
        <time>2021-03-03T10:40:49Z</time>
      </trkpt>
      <trkpt lat="42.9157410" lon="-8.4147300">
        <ele>367.2</ele>
        <time>2021-03-03T10:40:50Z</time>
      </trkpt>
      <trkpt lat="42.9157540" lon="-8.4147670">
        <ele>367.2</ele>
        <time>2021-03-03T10:40:51Z</time>
      </trkpt>
      <trkpt lat="42.9157660" lon="-8.4148030">
        <ele>367.2</ele>
        <time>2021-03-03T10:40:52Z</time>
      </trkpt>
      <trkpt lat="42.9157780" lon="-8.4148400">
        <ele>367.2</ele>
        <time>2021-03-03T10:40:53Z</time>
      </trkpt>
      <trkpt lat="42.9157910" lon="-8.4148770">
        <ele>367.2</ele>
        <time>2021-03-03T10:40:54Z</time>
      </trkpt>
      <trkpt lat="42.9158080" lon="-8.4149120">
        <ele>367.2</ele>
        <time>2021-03-03T10:40:55Z</time>
      </trkpt>
      <trkpt lat="42.9158270" lon="-8.4149430">
        <ele>367.2</ele>
        <time>2021-03-03T10:40:56Z</time>
      </trkpt>
      <trkpt lat="42.9158460" lon="-8.4149720">
        <ele>367.0</ele>
        <time>2021-03-03T10:40:57Z</time>
      </trkpt>
      <trkpt lat="42.9158630" lon="-8.4150010">
        <ele>367.0</ele>
        <time>2021-03-03T10:40:58Z</time>
      </trkpt>
      <trkpt lat="42.9158830" lon="-8.4150320">
        <ele>367.0</ele>
        <time>2021-03-03T10:40:59Z</time>
      </trkpt>
      <trkpt lat="42.9159020" lon="-8.4150640">
        <ele>366.8</ele>
        <time>2021-03-03T10:41:00Z</time>
      </trkpt>
      <trkpt lat="42.9159250" lon="-8.4150950">
        <ele>366.8</ele>
        <time>2021-03-03T10:41:01Z</time>
      </trkpt>
      <trkpt lat="42.9159470" lon="-8.4151230">
        <ele>366.8</ele>
        <time>2021-03-03T10:41:02Z</time>
      </trkpt>
      <trkpt lat="42.9159730" lon="-8.4151490">
        <ele>366.6</ele>
        <time>2021-03-03T10:41:03Z</time>
      </trkpt>
      <trkpt lat="42.9159950" lon="-8.4151770">
        <ele>366.4</ele>
        <time>2021-03-03T10:41:04Z</time>
      </trkpt>
      <trkpt lat="42.9160140" lon="-8.4152080">
        <ele>366.4</ele>
        <time>2021-03-03T10:41:05Z</time>
      </trkpt>
      <trkpt lat="42.9160340" lon="-8.4152380">
        <ele>366.4</ele>
        <time>2021-03-03T10:41:06Z</time>
      </trkpt>
      <trkpt lat="42.9160580" lon="-8.4152630">
        <ele>366.4</ele>
        <time>2021-03-03T10:41:07Z</time>
      </trkpt>
      <trkpt lat="42.9160870" lon="-8.4152870">
        <ele>366.4</ele>
        <time>2021-03-03T10:41:08Z</time>
      </trkpt>
      <trkpt lat="42.9161160" lon="-8.4153080">
        <ele>366.2</ele>
        <time>2021-03-03T10:41:09Z</time>
      </trkpt>
      <trkpt lat="42.9161420" lon="-8.4153280">
        <ele>366.2</ele>
        <time>2021-03-03T10:41:10Z</time>
      </trkpt>
      <trkpt lat="42.9161670" lon="-8.4153430">
        <ele>366.2</ele>
        <time>2021-03-03T10:41:11Z</time>
      </trkpt>
      <trkpt lat="42.9161940" lon="-8.4153560">
        <ele>366.2</ele>
        <time>2021-03-03T10:41:12Z</time>
      </trkpt>
      <trkpt lat="42.9162190" lon="-8.4153710">
        <ele>366.0</ele>
        <time>2021-03-03T10:41:13Z</time>
      </trkpt>
      <trkpt lat="42.9162490" lon="-8.4153870">
        <ele>366.0</ele>
        <time>2021-03-03T10:41:14Z</time>
      </trkpt>
      <trkpt lat="42.9162830" lon="-8.4154000">
        <ele>366.0</ele>
        <time>2021-03-03T10:41:15Z</time>
      </trkpt>
      <trkpt lat="42.9163150" lon="-8.4154130">
        <ele>365.8</ele>
        <time>2021-03-03T10:41:16Z</time>
      </trkpt>
      <trkpt lat="42.9163430" lon="-8.4154260">
        <ele>365.8</ele>
        <time>2021-03-03T10:41:17Z</time>
      </trkpt>
      <trkpt lat="42.9163690" lon="-8.4154300">
        <ele>365.6</ele>
        <time>2021-03-03T10:41:18Z</time>
      </trkpt>
      <trkpt lat="42.9163960" lon="-8.4154300">
        <ele>365.6</ele>
        <time>2021-03-03T10:41:19Z</time>
      </trkpt>
      <trkpt lat="42.9164320" lon="-8.4154310">
        <ele>365.4</ele>
        <time>2021-03-03T10:41:20Z</time>
      </trkpt>
      <trkpt lat="42.9164620" lon="-8.4154380">
        <ele>365.4</ele>
        <time>2021-03-03T10:41:21Z</time>
      </trkpt>
      <trkpt lat="42.9164860" lon="-8.4154450">
        <ele>365.2</ele>
        <time>2021-03-03T10:41:22Z</time>
      </trkpt>
      <trkpt lat="42.9165100" lon="-8.4154480">
        <ele>365.2</ele>
        <time>2021-03-03T10:41:23Z</time>
      </trkpt>
      <trkpt lat="42.9165340" lon="-8.4154530">
        <ele>365.2</ele>
        <time>2021-03-03T10:41:24Z</time>
      </trkpt>
      <trkpt lat="42.9165560" lon="-8.4154620">
        <ele>365.2</ele>
        <time>2021-03-03T10:41:25Z</time>
      </trkpt>
      <trkpt lat="42.9165740" lon="-8.4154680">
        <ele>365.2</ele>
        <time>2021-03-03T10:41:26Z</time>
      </trkpt>
      <trkpt lat="42.9165920" lon="-8.4154690">
        <ele>365.2</ele>
        <time>2021-03-03T10:41:27Z</time>
      </trkpt>
      <trkpt lat="42.9166120" lon="-8.4154700">
        <ele>365.0</ele>
        <time>2021-03-03T10:41:28Z</time>
      </trkpt>
      <trkpt lat="42.9166360" lon="-8.4154750">
        <ele>365.2</ele>
        <time>2021-03-03T10:41:29Z</time>
      </trkpt>
      <trkpt lat="42.9166580" lon="-8.4154820">
        <ele>365.2</ele>
        <time>2021-03-03T10:41:30Z</time>
      </trkpt>
      <trkpt lat="42.9166770" lon="-8.4154900">
        <ele>365.2</ele>
        <time>2021-03-03T10:41:31Z</time>
      </trkpt>
      <trkpt lat="42.9167060" lon="-8.4155050">
        <ele>365.2</ele>
        <time>2021-03-03T10:41:32Z</time>
      </trkpt>
      <trkpt lat="42.9167330" lon="-8.4155090">
        <ele>365.2</ele>
        <time>2021-03-03T10:41:33Z</time>
      </trkpt>
      <trkpt lat="42.9167690" lon="-8.4155230">
        <ele>365.2</ele>
        <time>2021-03-03T10:41:34Z</time>
      </trkpt>
      <trkpt lat="42.9167970" lon="-8.4155360">
        <ele>365.2</ele>
        <time>2021-03-03T10:41:35Z</time>
      </trkpt>
      <trkpt lat="42.9168290" lon="-8.4155510">
        <ele>365.4</ele>
        <time>2021-03-03T10:41:36Z</time>
      </trkpt>
      <trkpt lat="42.9168620" lon="-8.4155630">
        <ele>365.4</ele>
        <time>2021-03-03T10:41:37Z</time>
      </trkpt>
      <trkpt lat="42.9168880" lon="-8.4155780">
        <ele>365.6</ele>
        <time>2021-03-03T10:41:38Z</time>
      </trkpt>
      <trkpt lat="42.9169210" lon="-8.4155960">
        <ele>365.8</ele>
        <time>2021-03-03T10:41:39Z</time>
      </trkpt>
      <trkpt lat="42.9169440" lon="-8.4156090">
        <ele>365.8</ele>
        <time>2021-03-03T10:41:40Z</time>
      </trkpt>
      <trkpt lat="42.9169730" lon="-8.4156250">
        <ele>365.8</ele>
        <time>2021-03-03T10:41:41Z</time>
      </trkpt>
      <trkpt lat="42.9170140" lon="-8.4156440">
        <ele>366.0</ele>
        <time>2021-03-03T10:41:42Z</time>
      </trkpt>
      <trkpt lat="42.9170420" lon="-8.4156610">
        <ele>366.0</ele>
        <time>2021-03-03T10:41:43Z</time>
      </trkpt>
      <trkpt lat="42.9170840" lon="-8.4156750">
        <ele>366.0</ele>
        <time>2021-03-03T10:41:44Z</time>
      </trkpt>
      <trkpt lat="42.9171120" lon="-8.4156930">
        <ele>366.2</ele>
        <time>2021-03-03T10:41:45Z</time>
      </trkpt>
      <trkpt lat="42.9171380" lon="-8.4157070">
        <ele>366.4</ele>
        <time>2021-03-03T10:41:46Z</time>
      </trkpt>
      <trkpt lat="42.9171650" lon="-8.4157190">
        <ele>366.4</ele>
        <time>2021-03-03T10:41:47Z</time>
      </trkpt>
      <trkpt lat="42.9171950" lon="-8.4157300">
        <ele>366.8</ele>
        <time>2021-03-03T10:41:48Z</time>
      </trkpt>
      <trkpt lat="42.9172250" lon="-8.4157420">
        <ele>366.8</ele>
        <time>2021-03-03T10:41:49Z</time>
      </trkpt>
      <trkpt lat="42.9172530" lon="-8.4157540">
        <ele>367.0</ele>
        <time>2021-03-03T10:41:50Z</time>
      </trkpt>
      <trkpt lat="42.9172830" lon="-8.4157660">
        <ele>367.0</ele>
        <time>2021-03-03T10:41:51Z</time>
      </trkpt>
      <trkpt lat="42.9173090" lon="-8.4157810">
        <ele>367.0</ele>
        <time>2021-03-03T10:41:52Z</time>
      </trkpt>
      <trkpt lat="42.9173360" lon="-8.4157940">
        <ele>367.0</ele>
        <time>2021-03-03T10:41:53Z</time>
      </trkpt>
      <trkpt lat="42.9173630" lon="-8.4158100">
        <ele>367.0</ele>
        <time>2021-03-03T10:41:54Z</time>
      </trkpt>
      <trkpt lat="42.9173910" lon="-8.4158210">
        <ele>367.2</ele>
        <time>2021-03-03T10:41:55Z</time>
      </trkpt>
      <trkpt lat="42.9174180" lon="-8.4158360">
        <ele>367.4</ele>
        <time>2021-03-03T10:41:56Z</time>
      </trkpt>
      <trkpt lat="42.9174470" lon="-8.4158500">
        <ele>367.4</ele>
        <time>2021-03-03T10:41:57Z</time>
      </trkpt>
      <trkpt lat="42.9174690" lon="-8.4158630">
        <ele>367.6</ele>
        <time>2021-03-03T10:41:58Z</time>
      </trkpt>
      <trkpt lat="42.9174950" lon="-8.4158760">
        <ele>367.8</ele>
        <time>2021-03-03T10:41:59Z</time>
      </trkpt>
      <trkpt lat="42.9175190" lon="-8.4158870">
        <ele>367.8</ele>
        <time>2021-03-03T10:42:00Z</time>
      </trkpt>
      <trkpt lat="42.9175510" lon="-8.4158980">
        <ele>368.0</ele>
        <time>2021-03-03T10:42:01Z</time>
      </trkpt>
      <trkpt lat="42.9175720" lon="-8.4159060">
        <ele>368.2</ele>
        <time>2021-03-03T10:42:02Z</time>
      </trkpt>
      <trkpt lat="42.9175970" lon="-8.4159170">
        <ele>368.4</ele>
        <time>2021-03-03T10:42:03Z</time>
      </trkpt>
      <trkpt lat="42.9176230" lon="-8.4159300">
        <ele>368.6</ele>
        <time>2021-03-03T10:42:04Z</time>
      </trkpt>
      <trkpt lat="42.9176580" lon="-8.4159500">
        <ele>368.6</ele>
        <time>2021-03-03T10:42:05Z</time>
      </trkpt>
      <trkpt lat="42.9176860" lon="-8.4159630">
        <ele>368.8</ele>
        <time>2021-03-03T10:42:06Z</time>
      </trkpt>
      <trkpt lat="42.9177070" lon="-8.4159720">
        <ele>368.8</ele>
        <time>2021-03-03T10:42:07Z</time>
      </trkpt>
      <trkpt lat="42.9177360" lon="-8.4159840">
        <ele>369.0</ele>
        <time>2021-03-03T10:42:08Z</time>
      </trkpt>
      <trkpt lat="42.9177600" lon="-8.4160000">
        <ele>369.2</ele>
        <time>2021-03-03T10:42:09Z</time>
      </trkpt>
      <trkpt lat="42.9177830" lon="-8.4160170">
        <ele>369.4</ele>
        <time>2021-03-03T10:42:10Z</time>
      </trkpt>
      <trkpt lat="42.9178110" lon="-8.4160290">
        <ele>369.6</ele>
        <time>2021-03-03T10:42:11Z</time>
      </trkpt>
      <trkpt lat="42.9178400" lon="-8.4160320">
        <ele>369.6</ele>
        <time>2021-03-03T10:42:12Z</time>
      </trkpt>
      <trkpt lat="42.9178670" lon="-8.4160310">
        <ele>369.8</ele>
        <time>2021-03-03T10:42:13Z</time>
      </trkpt>
      <trkpt lat="42.9178930" lon="-8.4160280">
        <ele>370.0</ele>
        <time>2021-03-03T10:42:14Z</time>
      </trkpt>
      <trkpt lat="42.9179210" lon="-8.4160250">
        <ele>370.0</ele>
        <time>2021-03-03T10:42:15Z</time>
      </trkpt>
      <trkpt lat="42.9179520" lon="-8.4160230">
        <ele>370.0</ele>
        <time>2021-03-03T10:42:16Z</time>
      </trkpt>
      <trkpt lat="42.9179800" lon="-8.4160280">
        <ele>370.2</ele>
        <time>2021-03-03T10:42:17Z</time>
      </trkpt>
      <trkpt lat="42.9180080" lon="-8.4160350">
        <ele>370.2</ele>
        <time>2021-03-03T10:42:18Z</time>
      </trkpt>
      <trkpt lat="42.9180350" lon="-8.4160470">
        <ele>370.2</ele>
        <time>2021-03-03T10:42:19Z</time>
      </trkpt>
      <trkpt lat="42.9180630" lon="-8.4160620">
        <ele>370.2</ele>
        <time>2021-03-03T10:42:20Z</time>
      </trkpt>
      <trkpt lat="42.9180890" lon="-8.4160730">
        <ele>370.4</ele>
        <time>2021-03-03T10:42:21Z</time>
      </trkpt>
      <trkpt lat="42.9181180" lon="-8.4160830">
        <ele>370.6</ele>
        <time>2021-03-03T10:42:22Z</time>
      </trkpt>
      <trkpt lat="42.9181450" lon="-8.4160940">
        <ele>370.6</ele>
        <time>2021-03-03T10:42:23Z</time>
      </trkpt>
      <trkpt lat="42.9181710" lon="-8.4161030">
        <ele>370.8</ele>
        <time>2021-03-03T10:42:24Z</time>
      </trkpt>
      <trkpt lat="42.9181970" lon="-8.4161090">
        <ele>370.8</ele>
        <time>2021-03-03T10:42:25Z</time>
      </trkpt>
      <trkpt lat="42.9182200" lon="-8.4161120">
        <ele>370.8</ele>
        <time>2021-03-03T10:42:26Z</time>
      </trkpt>
      <trkpt lat="42.9182460" lon="-8.4161150">
        <ele>371.0</ele>
        <time>2021-03-03T10:42:27Z</time>
      </trkpt>
      <trkpt lat="42.9182690" lon="-8.4161180">
        <ele>371.0</ele>
        <time>2021-03-03T10:42:28Z</time>
      </trkpt>
      <trkpt lat="42.9182950" lon="-8.4161220">
        <ele>371.2</ele>
        <time>2021-03-03T10:42:29Z</time>
      </trkpt>
      <trkpt lat="42.9183190" lon="-8.4161300">
        <ele>371.4</ele>
        <time>2021-03-03T10:42:30Z</time>
      </trkpt>
      <trkpt lat="42.9183430" lon="-8.4161370">
        <ele>371.6</ele>
        <time>2021-03-03T10:42:31Z</time>
      </trkpt>
      <trkpt lat="42.9183680" lon="-8.4161440">
        <ele>371.6</ele>
        <time>2021-03-03T10:42:32Z</time>
      </trkpt>
      <trkpt lat="42.9183940" lon="-8.4161560">
        <ele>371.6</ele>
        <time>2021-03-03T10:42:33Z</time>
      </trkpt>
      <trkpt lat="42.9184220" lon="-8.4161640">
        <ele>371.8</ele>
        <time>2021-03-03T10:42:34Z</time>
      </trkpt>
      <trkpt lat="42.9184460" lon="-8.4161760">
        <ele>371.8</ele>
        <time>2021-03-03T10:42:35Z</time>
      </trkpt>
      <trkpt lat="42.9184720" lon="-8.4161890">
        <ele>371.8</ele>
        <time>2021-03-03T10:42:36Z</time>
      </trkpt>
      <trkpt lat="42.9184970" lon="-8.4162050">
        <ele>371.8</ele>
        <time>2021-03-03T10:42:37Z</time>
      </trkpt>
      <trkpt lat="42.9185190" lon="-8.4162260">
        <ele>372.0</ele>
        <time>2021-03-03T10:42:38Z</time>
      </trkpt>
      <trkpt lat="42.9185420" lon="-8.4162410">
        <ele>371.8</ele>
        <time>2021-03-03T10:42:39Z</time>
      </trkpt>
      <trkpt lat="42.9185670" lon="-8.4162540">
        <ele>372.0</ele>
        <time>2021-03-03T10:42:40Z</time>
      </trkpt>
      <trkpt lat="42.9185940" lon="-8.4162690">
        <ele>372.0</ele>
        <time>2021-03-03T10:42:41Z</time>
      </trkpt>
      <trkpt lat="42.9186210" lon="-8.4162820">
        <ele>372.0</ele>
        <time>2021-03-03T10:42:42Z</time>
      </trkpt>
      <trkpt lat="42.9186440" lon="-8.4162910">
        <ele>372.0</ele>
        <time>2021-03-03T10:42:43Z</time>
      </trkpt>
      <trkpt lat="42.9186680" lon="-8.4162980">
        <ele>372.0</ele>
        <time>2021-03-03T10:42:44Z</time>
      </trkpt>
      <trkpt lat="42.9186910" lon="-8.4163080">
        <ele>372.0</ele>
        <time>2021-03-03T10:42:45Z</time>
      </trkpt>
      <trkpt lat="42.9187180" lon="-8.4163200">
        <ele>372.0</ele>
        <time>2021-03-03T10:42:46Z</time>
      </trkpt>
      <trkpt lat="42.9187420" lon="-8.4163330">
        <ele>372.0</ele>
        <time>2021-03-03T10:42:47Z</time>
      </trkpt>
      <trkpt lat="42.9187680" lon="-8.4163410">
        <ele>372.0</ele>
        <time>2021-03-03T10:42:48Z</time>
      </trkpt>
      <trkpt lat="42.9187970" lon="-8.4163470">
        <ele>372.0</ele>
        <time>2021-03-03T10:42:49Z</time>
      </trkpt>
      <trkpt lat="42.9188240" lon="-8.4163510">
        <ele>372.0</ele>
        <time>2021-03-03T10:42:50Z</time>
      </trkpt>
      <trkpt lat="42.9188460" lon="-8.4163570">
        <ele>372.0</ele>
        <time>2021-03-03T10:42:51Z</time>
      </trkpt>
      <trkpt lat="42.9188650" lon="-8.4163630">
        <ele>372.0</ele>
        <time>2021-03-03T10:42:52Z</time>
      </trkpt>
      <trkpt lat="42.9188870" lon="-8.4163650">
        <ele>371.8</ele>
        <time>2021-03-03T10:42:53Z</time>
      </trkpt>
      <trkpt lat="42.9189020" lon="-8.4163590">
        <ele>371.8</ele>
        <time>2021-03-03T10:42:54Z</time>
      </trkpt>
      <trkpt lat="42.9189140" lon="-8.4163550">
        <ele>371.8</ele>
        <time>2021-03-03T10:42:55Z</time>
      </trkpt>
      <trkpt lat="42.9189310" lon="-8.4163510">
        <ele>371.6</ele>
        <time>2021-03-03T10:42:56Z</time>
      </trkpt>
      <trkpt lat="42.9189570" lon="-8.4163550">
        <ele>371.6</ele>
        <time>2021-03-03T10:42:57Z</time>
      </trkpt>
      <trkpt lat="42.9190080" lon="-8.4163720">
        <ele>371.4</ele>
        <time>2021-03-03T10:42:58Z</time>
      </trkpt>
      <trkpt lat="42.9190520" lon="-8.4163880">
        <ele>371.4</ele>
        <time>2021-03-03T10:42:59Z</time>
      </trkpt>
      <trkpt lat="42.9190920" lon="-8.4164030">
        <ele>371.4</ele>
        <time>2021-03-03T10:43:00Z</time>
      </trkpt>
      <trkpt lat="42.9191280" lon="-8.4164180">
        <ele>371.4</ele>
        <time>2021-03-03T10:43:01Z</time>
      </trkpt>
      <trkpt lat="42.9191670" lon="-8.4164370">
        <ele>371.4</ele>
        <time>2021-03-03T10:43:02Z</time>
      </trkpt>
      <trkpt lat="42.9192020" lon="-8.4164540">
        <ele>371.4</ele>
        <time>2021-03-03T10:43:03Z</time>
      </trkpt>
      <trkpt lat="42.9192380" lon="-8.4164680">
        <ele>371.4</ele>
        <time>2021-03-03T10:43:04Z</time>
      </trkpt>
      <trkpt lat="42.9192670" lon="-8.4164780">
        <ele>371.2</ele>
        <time>2021-03-03T10:43:05Z</time>
      </trkpt>
      <trkpt lat="42.9193020" lon="-8.4164910">
        <ele>371.2</ele>
        <time>2021-03-03T10:43:06Z</time>
      </trkpt>
      <trkpt lat="42.9193260" lon="-8.4165000">
        <ele>371.2</ele>
        <time>2021-03-03T10:43:07Z</time>
      </trkpt>
      <trkpt lat="42.9193530" lon="-8.4165090">
        <ele>371.2</ele>
        <time>2021-03-03T10:43:08Z</time>
      </trkpt>
      <trkpt lat="42.9193820" lon="-8.4165170">
        <ele>371.0</ele>
        <time>2021-03-03T10:43:09Z</time>
      </trkpt>
      <trkpt lat="42.9194050" lon="-8.4165280">
        <ele>371.2</ele>
        <time>2021-03-03T10:43:10Z</time>
      </trkpt>
      <trkpt lat="42.9194330" lon="-8.4165440">
        <ele>371.2</ele>
        <time>2021-03-03T10:43:11Z</time>
      </trkpt>
      <trkpt lat="42.9194620" lon="-8.4165590">
        <ele>371.2</ele>
        <time>2021-03-03T10:43:12Z</time>
      </trkpt>
      <trkpt lat="42.9194880" lon="-8.4165730">
        <ele>371.2</ele>
        <time>2021-03-03T10:43:13Z</time>
      </trkpt>
      <trkpt lat="42.9195190" lon="-8.4165850">
        <ele>371.0</ele>
        <time>2021-03-03T10:43:14Z</time>
      </trkpt>
      <trkpt lat="42.9195510" lon="-8.4165910">
        <ele>371.0</ele>
        <time>2021-03-03T10:43:15Z</time>
      </trkpt>
      <trkpt lat="42.9195830" lon="-8.4165970">
        <ele>371.0</ele>
        <time>2021-03-03T10:43:16Z</time>
      </trkpt>
      <trkpt lat="42.9196120" lon="-8.4166060">
        <ele>371.0</ele>
        <time>2021-03-03T10:43:17Z</time>
      </trkpt>
      <trkpt lat="42.9196380" lon="-8.4166210">
        <ele>370.8</ele>
        <time>2021-03-03T10:43:18Z</time>
      </trkpt>
      <trkpt lat="42.9196660" lon="-8.4166390">
        <ele>370.8</ele>
        <time>2021-03-03T10:43:19Z</time>
      </trkpt>
      <trkpt lat="42.9196990" lon="-8.4166540">
        <ele>370.6</ele>
        <time>2021-03-03T10:43:20Z</time>
      </trkpt>
      <trkpt lat="42.9197230" lon="-8.4166670">
        <ele>370.6</ele>
        <time>2021-03-03T10:43:21Z</time>
      </trkpt>
      <trkpt lat="42.9197420" lon="-8.4166790">
        <ele>370.4</ele>
        <time>2021-03-03T10:43:22Z</time>
      </trkpt>
      <trkpt lat="42.9197620" lon="-8.4166980">
        <ele>370.2</ele>
        <time>2021-03-03T10:43:23Z</time>
      </trkpt>
      <trkpt lat="42.9197860" lon="-8.4167160">
        <ele>370.2</ele>
        <time>2021-03-03T10:43:24Z</time>
      </trkpt>
      <trkpt lat="42.9198140" lon="-8.4167320">
        <ele>370.2</ele>
        <time>2021-03-03T10:43:25Z</time>
      </trkpt>
      <trkpt lat="42.9198400" lon="-8.4167440">
        <ele>370.2</ele>
        <time>2021-03-03T10:43:26Z</time>
      </trkpt>
      <trkpt lat="42.9198660" lon="-8.4167540">
        <ele>370.2</ele>
        <time>2021-03-03T10:43:27Z</time>
      </trkpt>
      <trkpt lat="42.9199050" lon="-8.4167650">
        <ele>370.2</ele>
        <time>2021-03-03T10:43:28Z</time>
      </trkpt>
      <trkpt lat="42.9199350" lon="-8.4167840">
        <ele>370.2</ele>
        <time>2021-03-03T10:43:29Z</time>
      </trkpt>
      <trkpt lat="42.9199660" lon="-8.4167980">
        <ele>370.2</ele>
        <time>2021-03-03T10:43:30Z</time>
      </trkpt>
      <trkpt lat="42.9200100" lon="-8.4168180">
        <ele>370.2</ele>
        <time>2021-03-03T10:43:31Z</time>
      </trkpt>
      <trkpt lat="42.9200390" lon="-8.4168290">
        <ele>370.0</ele>
        <time>2021-03-03T10:43:32Z</time>
      </trkpt>
      <trkpt lat="42.9200710" lon="-8.4168370">
        <ele>370.0</ele>
        <time>2021-03-03T10:43:33Z</time>
      </trkpt>
      <trkpt lat="42.9201000" lon="-8.4168470">
        <ele>369.8</ele>
        <time>2021-03-03T10:43:34Z</time>
      </trkpt>
      <trkpt lat="42.9201240" lon="-8.4168510">
        <ele>369.8</ele>
        <time>2021-03-03T10:43:35Z</time>
      </trkpt>
      <trkpt lat="42.9201510" lon="-8.4168570">
        <ele>369.8</ele>
        <time>2021-03-03T10:43:36Z</time>
      </trkpt>
      <trkpt lat="42.9201780" lon="-8.4168620">
        <ele>369.8</ele>
        <time>2021-03-03T10:43:37Z</time>
      </trkpt>
      <trkpt lat="42.9202050" lon="-8.4168650">
        <ele>370.0</ele>
        <time>2021-03-03T10:43:38Z</time>
      </trkpt>
      <trkpt lat="42.9202320" lon="-8.4168710">
        <ele>370.0</ele>
        <time>2021-03-03T10:43:39Z</time>
      </trkpt>
      <trkpt lat="42.9202620" lon="-8.4168810">
        <ele>370.0</ele>
        <time>2021-03-03T10:43:40Z</time>
      </trkpt>
      <trkpt lat="42.9202900" lon="-8.4168920">
        <ele>370.0</ele>
        <time>2021-03-03T10:43:41Z</time>
      </trkpt>
      <trkpt lat="42.9203190" lon="-8.4169070">
        <ele>370.0</ele>
        <time>2021-03-03T10:43:42Z</time>
      </trkpt>
      <trkpt lat="42.9203470" lon="-8.4169200">
        <ele>370.0</ele>
        <time>2021-03-03T10:43:43Z</time>
      </trkpt>
      <trkpt lat="42.9203780" lon="-8.4169290">
        <ele>370.0</ele>
        <time>2021-03-03T10:43:44Z</time>
      </trkpt>
      <trkpt lat="42.9204060" lon="-8.4169360">
        <ele>370.0</ele>
        <time>2021-03-03T10:43:45Z</time>
      </trkpt>
      <trkpt lat="42.9204350" lon="-8.4169390">
        <ele>369.8</ele>
        <time>2021-03-03T10:43:46Z</time>
      </trkpt>
      <trkpt lat="42.9204640" lon="-8.4169400">
        <ele>369.8</ele>
        <time>2021-03-03T10:43:47Z</time>
      </trkpt>
      <trkpt lat="42.9204950" lon="-8.4169480">
        <ele>369.6</ele>
        <time>2021-03-03T10:43:48Z</time>
      </trkpt>
      <trkpt lat="42.9205290" lon="-8.4169580">
        <ele>369.6</ele>
        <time>2021-03-03T10:43:49Z</time>
      </trkpt>
      <trkpt lat="42.9205620" lon="-8.4169660">
        <ele>369.6</ele>
        <time>2021-03-03T10:43:50Z</time>
      </trkpt>
      <trkpt lat="42.9205920" lon="-8.4169730">
        <ele>369.6</ele>
        <time>2021-03-03T10:43:51Z</time>
      </trkpt>
      <trkpt lat="42.9206300" lon="-8.4169780">
        <ele>369.4</ele>
        <time>2021-03-03T10:43:52Z</time>
      </trkpt>
      <trkpt lat="42.9206560" lon="-8.4169820">
        <ele>369.4</ele>
        <time>2021-03-03T10:43:53Z</time>
      </trkpt>
      <trkpt lat="42.9206860" lon="-8.4169870">
        <ele>369.4</ele>
        <time>2021-03-03T10:43:54Z</time>
      </trkpt>
      <trkpt lat="42.9207190" lon="-8.4169910">
        <ele>369.4</ele>
        <time>2021-03-03T10:43:55Z</time>
      </trkpt>
      <trkpt lat="42.9207500" lon="-8.4169960">
        <ele>369.4</ele>
        <time>2021-03-03T10:43:56Z</time>
      </trkpt>
      <trkpt lat="42.9207830" lon="-8.4170010">
        <ele>369.4</ele>
        <time>2021-03-03T10:43:57Z</time>
      </trkpt>
      <trkpt lat="42.9208140" lon="-8.4170090">
        <ele>369.0</ele>
        <time>2021-03-03T10:43:58Z</time>
      </trkpt>
      <trkpt lat="42.9208420" lon="-8.4170180">
        <ele>369.2</ele>
        <time>2021-03-03T10:43:59Z</time>
      </trkpt>
      <trkpt lat="42.9208730" lon="-8.4170310">
        <ele>369.0</ele>
        <time>2021-03-03T10:44:00Z</time>
      </trkpt>
      <trkpt lat="42.9208730" lon="-8.4170310">
        <ele>369.0</ele>
        <time>2021-03-03T10:44:01Z</time>
      </trkpt>
      <trkpt lat="42.9209350" lon="-8.4170490">
        <ele>369.0</ele>
        <time>2021-03-03T10:44:02Z</time>
      </trkpt>
      <trkpt lat="42.9209650" lon="-8.4170570">
        <ele>368.8</ele>
        <time>2021-03-03T10:44:03Z</time>
      </trkpt>
      <trkpt lat="42.9209960" lon="-8.4170670">
        <ele>368.8</ele>
        <time>2021-03-03T10:44:04Z</time>
      </trkpt>
      <trkpt lat="42.9210280" lon="-8.4170770">
        <ele>368.8</ele>
        <time>2021-03-03T10:44:05Z</time>
      </trkpt>
      <trkpt lat="42.9210560" lon="-8.4170890">
        <ele>368.8</ele>
        <time>2021-03-03T10:44:06Z</time>
      </trkpt>
      <trkpt lat="42.9210830" lon="-8.4171010">
        <ele>368.8</ele>
        <time>2021-03-03T10:44:07Z</time>
      </trkpt>
      <trkpt lat="42.9211150" lon="-8.4171120">
        <ele>368.8</ele>
        <time>2021-03-03T10:44:08Z</time>
      </trkpt>
      <trkpt lat="42.9211480" lon="-8.4171240">
        <ele>369.0</ele>
        <time>2021-03-03T10:44:09Z</time>
      </trkpt>
      <trkpt lat="42.9211790" lon="-8.4171350">
        <ele>369.0</ele>
        <time>2021-03-03T10:44:10Z</time>
      </trkpt>
      <trkpt lat="42.9212090" lon="-8.4171440">
        <ele>369.0</ele>
        <time>2021-03-03T10:44:11Z</time>
      </trkpt>
      <trkpt lat="42.9212380" lon="-8.4171530">
        <ele>369.0</ele>
        <time>2021-03-03T10:44:12Z</time>
      </trkpt>
      <trkpt lat="42.9212710" lon="-8.4171630">
        <ele>369.0</ele>
        <time>2021-03-03T10:44:13Z</time>
      </trkpt>
      <trkpt lat="42.9212920" lon="-8.4171710">
        <ele>369.2</ele>
        <time>2021-03-03T10:44:14Z</time>
      </trkpt>
      <trkpt lat="42.9213200" lon="-8.4171770">
        <ele>369.2</ele>
        <time>2021-03-03T10:44:15Z</time>
      </trkpt>
      <trkpt lat="42.9213480" lon="-8.4171860">
        <ele>369.2</ele>
        <time>2021-03-03T10:44:16Z</time>
      </trkpt>
      <trkpt lat="42.9213750" lon="-8.4171960">
        <ele>369.4</ele>
        <time>2021-03-03T10:44:17Z</time>
      </trkpt>
      <trkpt lat="42.9214020" lon="-8.4172020">
        <ele>369.4</ele>
        <time>2021-03-03T10:44:18Z</time>
      </trkpt>
      <trkpt lat="42.9214280" lon="-8.4172080">
        <ele>369.4</ele>
        <time>2021-03-03T10:44:19Z</time>
      </trkpt>
      <trkpt lat="42.9214570" lon="-8.4172150">
        <ele>369.4</ele>
        <time>2021-03-03T10:44:20Z</time>
      </trkpt>
      <trkpt lat="42.9214820" lon="-8.4172200">
        <ele>369.6</ele>
        <time>2021-03-03T10:44:21Z</time>
      </trkpt>
      <trkpt lat="42.9215070" lon="-8.4172260">
        <ele>369.6</ele>
        <time>2021-03-03T10:44:22Z</time>
      </trkpt>
      <trkpt lat="42.9215320" lon="-8.4172320">
        <ele>369.8</ele>
        <time>2021-03-03T10:44:23Z</time>
      </trkpt>
      <trkpt lat="42.9215570" lon="-8.4172390">
        <ele>370.0</ele>
        <time>2021-03-03T10:44:24Z</time>
      </trkpt>
      <trkpt lat="42.9215830" lon="-8.4172450">
        <ele>370.2</ele>
        <time>2021-03-03T10:44:25Z</time>
      </trkpt>
      <trkpt lat="42.9216070" lon="-8.4172520">
        <ele>370.2</ele>
        <time>2021-03-03T10:44:26Z</time>
      </trkpt>
      <trkpt lat="42.9216300" lon="-8.4172610">
        <ele>370.4</ele>
        <time>2021-03-03T10:44:27Z</time>
      </trkpt>
      <trkpt lat="42.9216550" lon="-8.4172730">
        <ele>370.4</ele>
        <time>2021-03-03T10:44:28Z</time>
      </trkpt>
      <trkpt lat="42.9216770" lon="-8.4172860">
        <ele>370.4</ele>
        <time>2021-03-03T10:44:29Z</time>
      </trkpt>
      <trkpt lat="42.9217010" lon="-8.4172980">
        <ele>370.6</ele>
        <time>2021-03-03T10:44:30Z</time>
      </trkpt>
      <trkpt lat="42.9217250" lon="-8.4173120">
        <ele>370.8</ele>
        <time>2021-03-03T10:44:31Z</time>
      </trkpt>
      <trkpt lat="42.9217500" lon="-8.4173240">
        <ele>370.8</ele>
        <time>2021-03-03T10:44:32Z</time>
      </trkpt>
      <trkpt lat="42.9217760" lon="-8.4173360">
        <ele>371.0</ele>
        <time>2021-03-03T10:44:33Z</time>
      </trkpt>
      <trkpt lat="42.9218070" lon="-8.4173490">
        <ele>371.0</ele>
        <time>2021-03-03T10:44:34Z</time>
      </trkpt>
      <trkpt lat="42.9218270" lon="-8.4173570">
        <ele>371.0</ele>
        <time>2021-03-03T10:44:35Z</time>
      </trkpt>
      <trkpt lat="42.9218500" lon="-8.4173670">
        <ele>371.4</ele>
        <time>2021-03-03T10:44:36Z</time>
      </trkpt>
      <trkpt lat="42.9218730" lon="-8.4173780">
        <ele>371.6</ele>
        <time>2021-03-03T10:44:37Z</time>
      </trkpt>
      <trkpt lat="42.9218990" lon="-8.4173850">
        <ele>371.8</ele>
        <time>2021-03-03T10:44:38Z</time>
      </trkpt>
      <trkpt lat="42.9219240" lon="-8.4173940">
        <ele>371.8</ele>
        <time>2021-03-03T10:44:39Z</time>
      </trkpt>
      <trkpt lat="42.9219490" lon="-8.4174030">
        <ele>372.0</ele>
        <time>2021-03-03T10:44:40Z</time>
      </trkpt>
      <trkpt lat="42.9219740" lon="-8.4174140">
        <ele>372.2</ele>
        <time>2021-03-03T10:44:41Z</time>
      </trkpt>
      <trkpt lat="42.9219960" lon="-8.4174240">
        <ele>372.4</ele>
        <time>2021-03-03T10:44:42Z</time>
      </trkpt>
      <trkpt lat="42.9220200" lon="-8.4174290">
        <ele>372.4</ele>
        <time>2021-03-03T10:44:43Z</time>
      </trkpt>
      <trkpt lat="42.9220440" lon="-8.4174320">
        <ele>372.6</ele>
        <time>2021-03-03T10:44:44Z</time>
      </trkpt>
      <trkpt lat="42.9220680" lon="-8.4174350">
        <ele>372.8</ele>
        <time>2021-03-03T10:44:45Z</time>
      </trkpt>
      <trkpt lat="42.9220920" lon="-8.4174350">
        <ele>372.8</ele>
        <time>2021-03-03T10:44:46Z</time>
      </trkpt>
      <trkpt lat="42.9221150" lon="-8.4174380">
        <ele>373.0</ele>
        <time>2021-03-03T10:44:47Z</time>
      </trkpt>
      <trkpt lat="42.9221410" lon="-8.4174420">
        <ele>373.0</ele>
        <time>2021-03-03T10:44:48Z</time>
      </trkpt>
      <trkpt lat="42.9221650" lon="-8.4174450">
        <ele>373.2</ele>
        <time>2021-03-03T10:44:49Z</time>
      </trkpt>
      <trkpt lat="42.9221880" lon="-8.4174490">
        <ele>373.2</ele>
        <time>2021-03-03T10:44:50Z</time>
      </trkpt>
      <trkpt lat="42.9222150" lon="-8.4174580">
        <ele>373.4</ele>
        <time>2021-03-03T10:44:51Z</time>
      </trkpt>
      <trkpt lat="42.9222390" lon="-8.4174670">
        <ele>373.6</ele>
        <time>2021-03-03T10:44:52Z</time>
      </trkpt>
      <trkpt lat="42.9222640" lon="-8.4174760">
        <ele>373.6</ele>
        <time>2021-03-03T10:44:53Z</time>
      </trkpt>
      <trkpt lat="42.9222900" lon="-8.4174860">
        <ele>373.8</ele>
        <time>2021-03-03T10:44:54Z</time>
      </trkpt>
      <trkpt lat="42.9223210" lon="-8.4174960">
        <ele>374.0</ele>
        <time>2021-03-03T10:44:55Z</time>
      </trkpt>
      <trkpt lat="42.9223410" lon="-8.4175030">
        <ele>374.2</ele>
        <time>2021-03-03T10:44:56Z</time>
      </trkpt>
      <trkpt lat="42.9223640" lon="-8.4175140">
        <ele>374.2</ele>
        <time>2021-03-03T10:44:57Z</time>
      </trkpt>
      <trkpt lat="42.9223920" lon="-8.4175250">
        <ele>374.2</ele>
        <time>2021-03-03T10:44:58Z</time>
      </trkpt>
      <trkpt lat="42.9224170" lon="-8.4175350">
        <ele>374.6</ele>
        <time>2021-03-03T10:44:59Z</time>
      </trkpt>
      <trkpt lat="42.9224420" lon="-8.4175430">
        <ele>374.8</ele>
        <time>2021-03-03T10:45:00Z</time>
      </trkpt>
      <trkpt lat="42.9224690" lon="-8.4175510">
        <ele>375.0</ele>
        <time>2021-03-03T10:45:01Z</time>
      </trkpt>
      <trkpt lat="42.9224930" lon="-8.4175610">
        <ele>375.2</ele>
        <time>2021-03-03T10:45:02Z</time>
      </trkpt>
      <trkpt lat="42.9225180" lon="-8.4175690">
        <ele>375.4</ele>
        <time>2021-03-03T10:45:03Z</time>
      </trkpt>
      <trkpt lat="42.9225420" lon="-8.4175780">
        <ele>375.6</ele>
        <time>2021-03-03T10:45:04Z</time>
      </trkpt>
      <trkpt lat="42.9225660" lon="-8.4175850">
        <ele>375.8</ele>
        <time>2021-03-03T10:45:05Z</time>
      </trkpt>
      <trkpt lat="42.9225910" lon="-8.4175910">
        <ele>376.0</ele>
        <time>2021-03-03T10:45:06Z</time>
      </trkpt>
      <trkpt lat="42.9226150" lon="-8.4175990">
        <ele>376.2</ele>
        <time>2021-03-03T10:45:07Z</time>
      </trkpt>
      <trkpt lat="42.9226410" lon="-8.4176080">
        <ele>376.4</ele>
        <time>2021-03-03T10:45:08Z</time>
      </trkpt>
      <trkpt lat="42.9226640" lon="-8.4176200">
        <ele>376.6</ele>
        <time>2021-03-03T10:45:09Z</time>
      </trkpt>
      <trkpt lat="42.9226880" lon="-8.4176310">
        <ele>376.8</ele>
        <time>2021-03-03T10:45:10Z</time>
      </trkpt>
      <trkpt lat="42.9227130" lon="-8.4176400">
        <ele>376.8</ele>
        <time>2021-03-03T10:45:11Z</time>
      </trkpt>
      <trkpt lat="42.9227380" lon="-8.4176490">
        <ele>377.0</ele>
        <time>2021-03-03T10:45:12Z</time>
      </trkpt>
      <trkpt lat="42.9227630" lon="-8.4176570">
        <ele>377.2</ele>
        <time>2021-03-03T10:45:13Z</time>
      </trkpt>
      <trkpt lat="42.9227860" lon="-8.4176680">
        <ele>377.4</ele>
        <time>2021-03-03T10:45:14Z</time>
      </trkpt>
      <trkpt lat="42.9228100" lon="-8.4176760">
        <ele>377.6</ele>
        <time>2021-03-03T10:45:15Z</time>
      </trkpt>
      <trkpt lat="42.9228360" lon="-8.4176830">
        <ele>377.8</ele>
        <time>2021-03-03T10:45:16Z</time>
      </trkpt>
      <trkpt lat="42.9228640" lon="-8.4176880">
        <ele>377.8</ele>
        <time>2021-03-03T10:45:17Z</time>
      </trkpt>
      <trkpt lat="42.9228930" lon="-8.4176950">
        <ele>378.2</ele>
        <time>2021-03-03T10:45:18Z</time>
      </trkpt>
      <trkpt lat="42.9229170" lon="-8.4177070">
        <ele>378.4</ele>
        <time>2021-03-03T10:45:19Z</time>
      </trkpt>
      <trkpt lat="42.9229430" lon="-8.4177150">
        <ele>378.6</ele>
        <time>2021-03-03T10:45:20Z</time>
      </trkpt>
      <trkpt lat="42.9229680" lon="-8.4177250">
        <ele>378.6</ele>
        <time>2021-03-03T10:45:21Z</time>
      </trkpt>
      <trkpt lat="42.9229910" lon="-8.4177360">
        <ele>378.8</ele>
        <time>2021-03-03T10:45:22Z</time>
      </trkpt>
      <trkpt lat="42.9230170" lon="-8.4177440">
        <ele>379.0</ele>
        <time>2021-03-03T10:45:23Z</time>
      </trkpt>
      <trkpt lat="42.9230420" lon="-8.4177540">
        <ele>379.2</ele>
        <time>2021-03-03T10:45:24Z</time>
      </trkpt>
      <trkpt lat="42.9230680" lon="-8.4177610">
        <ele>379.4</ele>
        <time>2021-03-03T10:45:25Z</time>
      </trkpt>
      <trkpt lat="42.9230940" lon="-8.4177670">
        <ele>379.4</ele>
        <time>2021-03-03T10:45:26Z</time>
      </trkpt>
      <trkpt lat="42.9231190" lon="-8.4177750">
        <ele>379.6</ele>
        <time>2021-03-03T10:45:27Z</time>
      </trkpt>
      <trkpt lat="42.9231440" lon="-8.4177820">
        <ele>379.6</ele>
        <time>2021-03-03T10:45:28Z</time>
      </trkpt>
      <trkpt lat="42.9231700" lon="-8.4177890">
        <ele>379.6</ele>
        <time>2021-03-03T10:45:29Z</time>
      </trkpt>
      <trkpt lat="42.9231950" lon="-8.4177960">
        <ele>380.0</ele>
        <time>2021-03-03T10:45:30Z</time>
      </trkpt>
      <trkpt lat="42.9232210" lon="-8.4178040">
        <ele>380.2</ele>
        <time>2021-03-03T10:45:31Z</time>
      </trkpt>
      <trkpt lat="42.9232480" lon="-8.4178130">
        <ele>380.4</ele>
        <time>2021-03-03T10:45:32Z</time>
      </trkpt>
      <trkpt lat="42.9232750" lon="-8.4178220">
        <ele>380.4</ele>
        <time>2021-03-03T10:45:33Z</time>
      </trkpt>
      <trkpt lat="42.9233000" lon="-8.4178310">
        <ele>380.6</ele>
        <time>2021-03-03T10:45:34Z</time>
      </trkpt>
      <trkpt lat="42.9233250" lon="-8.4178390">
        <ele>380.8</ele>
        <time>2021-03-03T10:45:35Z</time>
      </trkpt>
      <trkpt lat="42.9233480" lon="-8.4178460">
        <ele>381.0</ele>
        <time>2021-03-03T10:45:36Z</time>
      </trkpt>
      <trkpt lat="42.9233740" lon="-8.4178560">
        <ele>381.2</ele>
        <time>2021-03-03T10:45:37Z</time>
      </trkpt>
      <trkpt lat="42.9233980" lon="-8.4178660">
        <ele>381.4</ele>
        <time>2021-03-03T10:45:38Z</time>
      </trkpt>
      <trkpt lat="42.9234200" lon="-8.4178760">
        <ele>381.6</ele>
        <time>2021-03-03T10:45:39Z</time>
      </trkpt>
      <trkpt lat="42.9234440" lon="-8.4178850">
        <ele>381.6</ele>
        <time>2021-03-03T10:45:40Z</time>
      </trkpt>
      <trkpt lat="42.9234690" lon="-8.4178930">
        <ele>381.8</ele>
        <time>2021-03-03T10:45:41Z</time>
      </trkpt>
      <trkpt lat="42.9234940" lon="-8.4179000">
        <ele>382.0</ele>
        <time>2021-03-03T10:45:42Z</time>
      </trkpt>
      <trkpt lat="42.9235180" lon="-8.4179090">
        <ele>382.2</ele>
        <time>2021-03-03T10:45:43Z</time>
      </trkpt>
      <trkpt lat="42.9235440" lon="-8.4179190">
        <ele>382.2</ele>
        <time>2021-03-03T10:45:44Z</time>
      </trkpt>
      <trkpt lat="42.9235690" lon="-8.4179260">
        <ele>382.4</ele>
        <time>2021-03-03T10:45:45Z</time>
      </trkpt>
      <trkpt lat="42.9235930" lon="-8.4179320">
        <ele>382.6</ele>
        <time>2021-03-03T10:45:46Z</time>
      </trkpt>
      <trkpt lat="42.9236180" lon="-8.4179360">
        <ele>382.6</ele>
        <time>2021-03-03T10:45:47Z</time>
      </trkpt>
      <trkpt lat="42.9236400" lon="-8.4179420">
        <ele>382.8</ele>
        <time>2021-03-03T10:45:48Z</time>
      </trkpt>
      <trkpt lat="42.9236610" lon="-8.4179520">
        <ele>382.8</ele>
        <time>2021-03-03T10:45:49Z</time>
      </trkpt>
      <trkpt lat="42.9236840" lon="-8.4179600">
        <ele>383.0</ele>
        <time>2021-03-03T10:45:50Z</time>
      </trkpt>
      <trkpt lat="42.9237100" lon="-8.4179690">
        <ele>383.2</ele>
        <time>2021-03-03T10:45:51Z</time>
      </trkpt>
      <trkpt lat="42.9237340" lon="-8.4179790">
        <ele>383.2</ele>
        <time>2021-03-03T10:45:52Z</time>
      </trkpt>
      <trkpt lat="42.9237560" lon="-8.4179820">
        <ele>383.4</ele>
        <time>2021-03-03T10:45:53Z</time>
      </trkpt>
      <trkpt lat="42.9237790" lon="-8.4179870">
        <ele>383.4</ele>
        <time>2021-03-03T10:45:54Z</time>
      </trkpt>
      <trkpt lat="42.9238020" lon="-8.4179930">
        <ele>383.6</ele>
        <time>2021-03-03T10:45:55Z</time>
      </trkpt>
      <trkpt lat="42.9238280" lon="-8.4180000">
        <ele>383.8</ele>
        <time>2021-03-03T10:45:56Z</time>
      </trkpt>
      <trkpt lat="42.9238570" lon="-8.4180060">
        <ele>383.8</ele>
        <time>2021-03-03T10:45:57Z</time>
      </trkpt>
      <trkpt lat="42.9238820" lon="-8.4180130">
        <ele>384.0</ele>
        <time>2021-03-03T10:45:58Z</time>
      </trkpt>
      <trkpt lat="42.9239070" lon="-8.4180220">
        <ele>384.0</ele>
        <time>2021-03-03T10:45:59Z</time>
      </trkpt>
      <trkpt lat="42.9239330" lon="-8.4180290">
        <ele>384.2</ele>
        <time>2021-03-03T10:46:00Z</time>
      </trkpt>
      <trkpt lat="42.9239570" lon="-8.4180380">
        <ele>384.4</ele>
        <time>2021-03-03T10:46:01Z</time>
      </trkpt>
      <trkpt lat="42.9239770" lon="-8.4180480">
        <ele>384.4</ele>
        <time>2021-03-03T10:46:02Z</time>
      </trkpt>
      <trkpt lat="42.9239980" lon="-8.4180560">
        <ele>384.6</ele>
        <time>2021-03-03T10:46:03Z</time>
      </trkpt>
      <trkpt lat="42.9240190" lon="-8.4180650">
        <ele>384.8</ele>
        <time>2021-03-03T10:46:04Z</time>
      </trkpt>
      <trkpt lat="42.9240420" lon="-8.4180750">
        <ele>384.8</ele>
        <time>2021-03-03T10:46:05Z</time>
      </trkpt>
      <trkpt lat="42.9240690" lon="-8.4180880">
        <ele>385.0</ele>
        <time>2021-03-03T10:46:06Z</time>
      </trkpt>
      <trkpt lat="42.9240940" lon="-8.4181000">
        <ele>385.0</ele>
        <time>2021-03-03T10:46:07Z</time>
      </trkpt>
      <trkpt lat="42.9241200" lon="-8.4181090">
        <ele>385.2</ele>
        <time>2021-03-03T10:46:08Z</time>
      </trkpt>
      <trkpt lat="42.9241440" lon="-8.4181180">
        <ele>385.4</ele>
        <time>2021-03-03T10:46:09Z</time>
      </trkpt>
      <trkpt lat="42.9241720" lon="-8.4181260">
        <ele>385.6</ele>
        <time>2021-03-03T10:46:10Z</time>
      </trkpt>
      <trkpt lat="42.9242010" lon="-8.4181370">
        <ele>385.6</ele>
        <time>2021-03-03T10:46:11Z</time>
      </trkpt>
      <trkpt lat="42.9242310" lon="-8.4181510">
        <ele>385.6</ele>
        <time>2021-03-03T10:46:12Z</time>
      </trkpt>
      <trkpt lat="42.9242620" lon="-8.4181590">
        <ele>385.8</ele>
        <time>2021-03-03T10:46:13Z</time>
      </trkpt>
      <trkpt lat="42.9242900" lon="-8.4181700">
        <ele>386.0</ele>
        <time>2021-03-03T10:46:14Z</time>
      </trkpt>
      <trkpt lat="42.9243190" lon="-8.4181810">
        <ele>386.0</ele>
        <time>2021-03-03T10:46:15Z</time>
      </trkpt>
      <trkpt lat="42.9243480" lon="-8.4181930">
        <ele>386.2</ele>
        <time>2021-03-03T10:46:16Z</time>
      </trkpt>
      <trkpt lat="42.9243770" lon="-8.4182060">
        <ele>386.2</ele>
        <time>2021-03-03T10:46:17Z</time>
      </trkpt>
      <trkpt lat="42.9244070" lon="-8.4182180">
        <ele>386.2</ele>
        <time>2021-03-03T10:46:18Z</time>
      </trkpt>
      <trkpt lat="42.9244370" lon="-8.4182280">
        <ele>386.2</ele>
        <time>2021-03-03T10:46:19Z</time>
      </trkpt>
      <trkpt lat="42.9244670" lon="-8.4182380">
        <ele>386.4</ele>
        <time>2021-03-03T10:46:20Z</time>
      </trkpt>
      <trkpt lat="42.9244950" lon="-8.4182490">
        <ele>386.4</ele>
        <time>2021-03-03T10:46:21Z</time>
      </trkpt>
      <trkpt lat="42.9245260" lon="-8.4182600">
        <ele>386.6</ele>
        <time>2021-03-03T10:46:22Z</time>
      </trkpt>
      <trkpt lat="42.9245570" lon="-8.4182700">
        <ele>386.6</ele>
        <time>2021-03-03T10:46:23Z</time>
      </trkpt>
      <trkpt lat="42.9245870" lon="-8.4182810">
        <ele>386.6</ele>
        <time>2021-03-03T10:46:24Z</time>
      </trkpt>
      <trkpt lat="42.9246180" lon="-8.4182910">
        <ele>386.8</ele>
        <time>2021-03-03T10:46:25Z</time>
      </trkpt>
      <trkpt lat="42.9246470" lon="-8.4183030">
        <ele>386.8</ele>
        <time>2021-03-03T10:46:26Z</time>
      </trkpt>
      <trkpt lat="42.9246750" lon="-8.4183140">
        <ele>386.8</ele>
        <time>2021-03-03T10:46:27Z</time>
      </trkpt>
      <trkpt lat="42.9247040" lon="-8.4183250">
        <ele>386.6</ele>
        <time>2021-03-03T10:46:28Z</time>
      </trkpt>
      <trkpt lat="42.9247350" lon="-8.4183380">
        <ele>386.6</ele>
        <time>2021-03-03T10:46:29Z</time>
      </trkpt>
      <trkpt lat="42.9247650" lon="-8.4183500">
        <ele>386.4</ele>
        <time>2021-03-03T10:46:30Z</time>
      </trkpt>
      <trkpt lat="42.9247920" lon="-8.4183630">
        <ele>386.4</ele>
        <time>2021-03-03T10:46:31Z</time>
      </trkpt>
      <trkpt lat="42.9248220" lon="-8.4183760">
        <ele>386.4</ele>
        <time>2021-03-03T10:46:32Z</time>
      </trkpt>
      <trkpt lat="42.9248510" lon="-8.4183860">
        <ele>386.4</ele>
        <time>2021-03-03T10:46:33Z</time>
      </trkpt>
      <trkpt lat="42.9248800" lon="-8.4183990">
        <ele>386.2</ele>
        <time>2021-03-03T10:46:34Z</time>
      </trkpt>
      <trkpt lat="42.9249080" lon="-8.4184120">
        <ele>386.0</ele>
        <time>2021-03-03T10:46:35Z</time>
      </trkpt>
      <trkpt lat="42.9249370" lon="-8.4184240">
        <ele>386.0</ele>
        <time>2021-03-03T10:46:36Z</time>
      </trkpt>
      <trkpt lat="42.9249680" lon="-8.4184350">
        <ele>386.0</ele>
        <time>2021-03-03T10:46:37Z</time>
      </trkpt>
      <trkpt lat="42.9249990" lon="-8.4184470">
        <ele>385.8</ele>
        <time>2021-03-03T10:46:38Z</time>
      </trkpt>
      <trkpt lat="42.9250290" lon="-8.4184580">
        <ele>385.6</ele>
        <time>2021-03-03T10:46:39Z</time>
      </trkpt>
      <trkpt lat="42.9250600" lon="-8.4184650">
        <ele>385.4</ele>
        <time>2021-03-03T10:46:40Z</time>
      </trkpt>
      <trkpt lat="42.9250900" lon="-8.4184730">
        <ele>385.0</ele>
        <time>2021-03-03T10:46:41Z</time>
      </trkpt>
      <trkpt lat="42.9251190" lon="-8.4184810">
        <ele>385.0</ele>
        <time>2021-03-03T10:46:42Z</time>
      </trkpt>
      <trkpt lat="42.9251490" lon="-8.4184920">
        <ele>384.8</ele>
        <time>2021-03-03T10:46:43Z</time>
      </trkpt>
      <trkpt lat="42.9251780" lon="-8.4185030">
        <ele>384.8</ele>
        <time>2021-03-03T10:46:44Z</time>
      </trkpt>
      <trkpt lat="42.9252080" lon="-8.4185140">
        <ele>384.6</ele>
        <time>2021-03-03T10:46:45Z</time>
      </trkpt>
      <trkpt lat="42.9252410" lon="-8.4185270">
        <ele>384.4</ele>
        <time>2021-03-03T10:46:46Z</time>
      </trkpt>
      <trkpt lat="42.9252720" lon="-8.4185370">
        <ele>384.2</ele>
        <time>2021-03-03T10:46:47Z</time>
      </trkpt>
      <trkpt lat="42.9253040" lon="-8.4185460">
        <ele>384.2</ele>
        <time>2021-03-03T10:46:48Z</time>
      </trkpt>
      <trkpt lat="42.9253340" lon="-8.4185570">
        <ele>384.0</ele>
        <time>2021-03-03T10:46:49Z</time>
      </trkpt>
      <trkpt lat="42.9253650" lon="-8.4185660">
        <ele>383.8</ele>
        <time>2021-03-03T10:46:50Z</time>
      </trkpt>
      <trkpt lat="42.9253960" lon="-8.4185770">
        <ele>383.6</ele>
        <time>2021-03-03T10:46:51Z</time>
      </trkpt>
      <trkpt lat="42.9254250" lon="-8.4185900">
        <ele>383.6</ele>
        <time>2021-03-03T10:46:52Z</time>
      </trkpt>
      <trkpt lat="42.9254560" lon="-8.4186000">
        <ele>383.4</ele>
        <time>2021-03-03T10:46:53Z</time>
      </trkpt>
      <trkpt lat="42.9254870" lon="-8.4186130">
        <ele>383.4</ele>
        <time>2021-03-03T10:46:54Z</time>
      </trkpt>
      <trkpt lat="42.9255180" lon="-8.4186270">
        <ele>383.2</ele>
        <time>2021-03-03T10:46:55Z</time>
      </trkpt>
      <trkpt lat="42.9255490" lon="-8.4186390">
        <ele>383.2</ele>
        <time>2021-03-03T10:46:56Z</time>
      </trkpt>
      <trkpt lat="42.9255800" lon="-8.4186520">
        <ele>383.2</ele>
        <time>2021-03-03T10:46:57Z</time>
      </trkpt>
      <trkpt lat="42.9256120" lon="-8.4186650">
        <ele>383.0</ele>
        <time>2021-03-03T10:46:58Z</time>
      </trkpt>
      <trkpt lat="42.9256450" lon="-8.4186740">
        <ele>383.0</ele>
        <time>2021-03-03T10:46:59Z</time>
      </trkpt>
      <trkpt lat="42.9256770" lon="-8.4186770">
        <ele>382.8</ele>
        <time>2021-03-03T10:47:00Z</time>
      </trkpt>
      <trkpt lat="42.9257100" lon="-8.4186730">
        <ele>382.8</ele>
        <time>2021-03-03T10:47:01Z</time>
      </trkpt>
      <trkpt lat="42.9257390" lon="-8.4186610">
        <ele>382.6</ele>
        <time>2021-03-03T10:47:02Z</time>
      </trkpt>
      <trkpt lat="42.9257630" lon="-8.4186400">
        <ele>382.6</ele>
        <time>2021-03-03T10:47:03Z</time>
      </trkpt>
      <trkpt lat="42.9257810" lon="-8.4186100">
        <ele>382.8</ele>
        <time>2021-03-03T10:47:04Z</time>
      </trkpt>
      <trkpt lat="42.9257930" lon="-8.4185740">
        <ele>383.0</ele>
        <time>2021-03-03T10:47:05Z</time>
      </trkpt>
      <trkpt lat="42.9257980" lon="-8.4185310">
        <ele>383.0</ele>
        <time>2021-03-03T10:47:06Z</time>
      </trkpt>
      <trkpt lat="42.9257990" lon="-8.4184890">
        <ele>383.0</ele>
        <time>2021-03-03T10:47:07Z</time>
      </trkpt>
      <trkpt lat="42.9257960" lon="-8.4184450">
        <ele>383.2</ele>
        <time>2021-03-03T10:47:08Z</time>
      </trkpt>
      <trkpt lat="42.9257900" lon="-8.4184020">
        <ele>383.2</ele>
        <time>2021-03-03T10:47:09Z</time>
      </trkpt>
      <trkpt lat="42.9257820" lon="-8.4183600">
        <ele>383.4</ele>
        <time>2021-03-03T10:47:10Z</time>
      </trkpt>
      <trkpt lat="42.9257710" lon="-8.4183220">
        <ele>383.6</ele>
        <time>2021-03-03T10:47:11Z</time>
      </trkpt>
      <trkpt lat="42.9257590" lon="-8.4182850">
        <ele>383.6</ele>
        <time>2021-03-03T10:47:12Z</time>
      </trkpt>
      <trkpt lat="42.9257480" lon="-8.4182490">
        <ele>383.8</ele>
        <time>2021-03-03T10:47:13Z</time>
      </trkpt>
      <trkpt lat="42.9257340" lon="-8.4182120">
        <ele>383.8</ele>
        <time>2021-03-03T10:47:14Z</time>
      </trkpt>
      <trkpt lat="42.9257240" lon="-8.4181760">
        <ele>384.0</ele>
        <time>2021-03-03T10:47:15Z</time>
      </trkpt>
      <trkpt lat="42.9257140" lon="-8.4181390">
        <ele>384.2</ele>
        <time>2021-03-03T10:47:16Z</time>
      </trkpt>
      <trkpt lat="42.9257000" lon="-8.4181000">
        <ele>384.2</ele>
        <time>2021-03-03T10:47:17Z</time>
      </trkpt>
      <trkpt lat="42.9256890" lon="-8.4180630">
        <ele>384.4</ele>
        <time>2021-03-03T10:47:18Z</time>
      </trkpt>
      <trkpt lat="42.9256760" lon="-8.4180260">
        <ele>384.4</ele>
        <time>2021-03-03T10:47:19Z</time>
      </trkpt>
      <trkpt lat="42.9256670" lon="-8.4179910">
        <ele>384.6</ele>
        <time>2021-03-03T10:47:20Z</time>
      </trkpt>
      <trkpt lat="42.9256570" lon="-8.4179540">
        <ele>384.6</ele>
        <time>2021-03-03T10:47:21Z</time>
      </trkpt>
      <trkpt lat="42.9256460" lon="-8.4179160">
        <ele>384.8</ele>
        <time>2021-03-03T10:47:22Z</time>
      </trkpt>
      <trkpt lat="42.9256350" lon="-8.4178780">
        <ele>385.0</ele>
        <time>2021-03-03T10:47:23Z</time>
      </trkpt>
      <trkpt lat="42.9256220" lon="-8.4178410">
        <ele>385.0</ele>
        <time>2021-03-03T10:47:24Z</time>
      </trkpt>
      <trkpt lat="42.9256110" lon="-8.4178030">
        <ele>385.2</ele>
        <time>2021-03-03T10:47:25Z</time>
      </trkpt>
      <trkpt lat="42.9256020" lon="-8.4177650">
        <ele>385.2</ele>
        <time>2021-03-03T10:47:26Z</time>
      </trkpt>
      <trkpt lat="42.9255910" lon="-8.4177260">
        <ele>385.2</ele>
        <time>2021-03-03T10:47:27Z</time>
      </trkpt>
      <trkpt lat="42.9255790" lon="-8.4176880">
        <ele>385.4</ele>
        <time>2021-03-03T10:47:28Z</time>
      </trkpt>
      <trkpt lat="42.9255620" lon="-8.4176530">
        <ele>385.6</ele>
        <time>2021-03-03T10:47:29Z</time>
      </trkpt>
      <trkpt lat="42.9255480" lon="-8.4176150">
        <ele>385.6</ele>
        <time>2021-03-03T10:47:30Z</time>
      </trkpt>
      <trkpt lat="42.9255370" lon="-8.4175790">
        <ele>385.8</ele>
        <time>2021-03-03T10:47:31Z</time>
      </trkpt>
      <trkpt lat="42.9255260" lon="-8.4175430">
        <ele>385.8</ele>
        <time>2021-03-03T10:47:32Z</time>
      </trkpt>
      <trkpt lat="42.9255170" lon="-8.4175070">
        <ele>385.8</ele>
        <time>2021-03-03T10:47:33Z</time>
      </trkpt>
      <trkpt lat="42.9255130" lon="-8.4174700">
        <ele>386.0</ele>
        <time>2021-03-03T10:47:34Z</time>
      </trkpt>
      <trkpt lat="42.9255050" lon="-8.4174300">
        <ele>386.0</ele>
        <time>2021-03-03T10:47:35Z</time>
      </trkpt>
      <trkpt lat="42.9254930" lon="-8.4173880">
        <ele>386.0</ele>
        <time>2021-03-03T10:47:36Z</time>
      </trkpt>
      <trkpt lat="42.9254770" lon="-8.4173470">
        <ele>386.2</ele>
        <time>2021-03-03T10:47:37Z</time>
      </trkpt>
      <trkpt lat="42.9254650" lon="-8.4173100">
        <ele>386.2</ele>
        <time>2021-03-03T10:47:38Z</time>
      </trkpt>
      <trkpt lat="42.9254540" lon="-8.4172710">
        <ele>386.2</ele>
        <time>2021-03-03T10:47:39Z</time>
      </trkpt>
      <trkpt lat="42.9254450" lon="-8.4172340">
        <ele>386.2</ele>
        <time>2021-03-03T10:47:40Z</time>
      </trkpt>
      <trkpt lat="42.9254300" lon="-8.4171990">
        <ele>386.2</ele>
        <time>2021-03-03T10:47:41Z</time>
      </trkpt>
      <trkpt lat="42.9254180" lon="-8.4171660">
        <ele>386.4</ele>
        <time>2021-03-03T10:47:42Z</time>
      </trkpt>
      <trkpt lat="42.9254110" lon="-8.4171300">
        <ele>386.4</ele>
        <time>2021-03-03T10:47:43Z</time>
      </trkpt>
      <trkpt lat="42.9254030" lon="-8.4170950">
        <ele>386.4</ele>
        <time>2021-03-03T10:47:44Z</time>
      </trkpt>
      <trkpt lat="42.9253910" lon="-8.4170610">
        <ele>386.4</ele>
        <time>2021-03-03T10:47:45Z</time>
      </trkpt>
      <trkpt lat="42.9253760" lon="-8.4170270">
        <ele>386.4</ele>
        <time>2021-03-03T10:47:46Z</time>
      </trkpt>
      <trkpt lat="42.9253620" lon="-8.4169950">
        <ele>386.4</ele>
        <time>2021-03-03T10:47:47Z</time>
      </trkpt>
      <trkpt lat="42.9253480" lon="-8.4169570">
        <ele>386.6</ele>
        <time>2021-03-03T10:47:48Z</time>
      </trkpt>
      <trkpt lat="42.9253360" lon="-8.4169210">
        <ele>386.6</ele>
        <time>2021-03-03T10:47:49Z</time>
      </trkpt>
      <trkpt lat="42.9253230" lon="-8.4168850">
        <ele>386.8</ele>
        <time>2021-03-03T10:47:50Z</time>
      </trkpt>
      <trkpt lat="42.9253110" lon="-8.4168440">
        <ele>386.8</ele>
        <time>2021-03-03T10:47:51Z</time>
      </trkpt>
      <trkpt lat="42.9252980" lon="-8.4168050">
        <ele>387.0</ele>
        <time>2021-03-03T10:47:52Z</time>
      </trkpt>
      <trkpt lat="42.9252830" lon="-8.4167650">
        <ele>387.0</ele>
        <time>2021-03-03T10:47:53Z</time>
      </trkpt>
      <trkpt lat="42.9252680" lon="-8.4167260">
        <ele>387.2</ele>
        <time>2021-03-03T10:47:54Z</time>
      </trkpt>
      <trkpt lat="42.9252560" lon="-8.4166860">
        <ele>387.2</ele>
        <time>2021-03-03T10:47:55Z</time>
      </trkpt>
      <trkpt lat="42.9252420" lon="-8.4166450">
        <ele>387.2</ele>
        <time>2021-03-03T10:47:56Z</time>
      </trkpt>
      <trkpt lat="42.9252310" lon="-8.4166040">
        <ele>387.2</ele>
        <time>2021-03-03T10:47:57Z</time>
      </trkpt>
      <trkpt lat="42.9252190" lon="-8.4165620">
        <ele>387.4</ele>
        <time>2021-03-03T10:47:58Z</time>
      </trkpt>
      <trkpt lat="42.9252070" lon="-8.4165220">
        <ele>387.4</ele>
        <time>2021-03-03T10:47:59Z</time>
      </trkpt>
      <trkpt lat="42.9251980" lon="-8.4164850">
        <ele>387.4</ele>
        <time>2021-03-03T10:48:00Z</time>
      </trkpt>
      <trkpt lat="42.9251860" lon="-8.4164480">
        <ele>387.4</ele>
        <time>2021-03-03T10:48:01Z</time>
      </trkpt>
      <trkpt lat="42.9251730" lon="-8.4164100">
        <ele>387.4</ele>
        <time>2021-03-03T10:48:02Z</time>
      </trkpt>
      <trkpt lat="42.9251570" lon="-8.4163750">
        <ele>387.6</ele>
        <time>2021-03-03T10:48:03Z</time>
      </trkpt>
      <trkpt lat="42.9251410" lon="-8.4163380">
        <ele>387.6</ele>
        <time>2021-03-03T10:48:04Z</time>
      </trkpt>
      <trkpt lat="42.9251220" lon="-8.4163030">
        <ele>387.6</ele>
        <time>2021-03-03T10:48:05Z</time>
      </trkpt>
      <trkpt lat="42.9251010" lon="-8.4162690">
        <ele>387.6</ele>
        <time>2021-03-03T10:48:06Z</time>
      </trkpt>
      <trkpt lat="42.9250790" lon="-8.4162380">
        <ele>387.6</ele>
        <time>2021-03-03T10:48:07Z</time>
      </trkpt>
      <trkpt lat="42.9250550" lon="-8.4162090">
        <ele>387.8</ele>
        <time>2021-03-03T10:48:08Z</time>
      </trkpt>
      <trkpt lat="42.9250280" lon="-8.4161820">
        <ele>387.8</ele>
        <time>2021-03-03T10:48:09Z</time>
      </trkpt>
      <trkpt lat="42.9250020" lon="-8.4161550">
        <ele>387.8</ele>
        <time>2021-03-03T10:48:10Z</time>
      </trkpt>
      <trkpt lat="42.9249770" lon="-8.4161310">
        <ele>388.0</ele>
        <time>2021-03-03T10:48:11Z</time>
      </trkpt>
      <trkpt lat="42.9249480" lon="-8.4161060">
        <ele>388.0</ele>
        <time>2021-03-03T10:48:12Z</time>
      </trkpt>
      <trkpt lat="42.9249210" lon="-8.4160810">
        <ele>388.0</ele>
        <time>2021-03-03T10:48:13Z</time>
      </trkpt>
      <trkpt lat="42.9248920" lon="-8.4160570">
        <ele>388.2</ele>
        <time>2021-03-03T10:48:14Z</time>
      </trkpt>
      <trkpt lat="42.9248650" lon="-8.4160390">
        <ele>388.2</ele>
        <time>2021-03-03T10:48:15Z</time>
      </trkpt>
      <trkpt lat="42.9248360" lon="-8.4160220">
        <ele>388.2</ele>
        <time>2021-03-03T10:48:16Z</time>
      </trkpt>
      <trkpt lat="42.9248100" lon="-8.4160040">
        <ele>388.2</ele>
        <time>2021-03-03T10:48:17Z</time>
      </trkpt>
      <trkpt lat="42.9247840" lon="-8.4159830">
        <ele>388.0</ele>
        <time>2021-03-03T10:48:18Z</time>
      </trkpt>
      <trkpt lat="42.9247650" lon="-8.4159580">
        <ele>388.0</ele>
        <time>2021-03-03T10:48:19Z</time>
      </trkpt>
      <trkpt lat="42.9247450" lon="-8.4159310">
        <ele>388.0</ele>
        <time>2021-03-03T10:48:20Z</time>
      </trkpt>
      <trkpt lat="42.9247260" lon="-8.4159000">
        <ele>387.8</ele>
        <time>2021-03-03T10:48:21Z</time>
      </trkpt>
      <trkpt lat="42.9247120" lon="-8.4158630">
        <ele>387.8</ele>
        <time>2021-03-03T10:48:22Z</time>
      </trkpt>
      <trkpt lat="42.9247030" lon="-8.4158230">
        <ele>387.6</ele>
        <time>2021-03-03T10:48:23Z</time>
      </trkpt>
      <trkpt lat="42.9246950" lon="-8.4157830">
        <ele>387.6</ele>
        <time>2021-03-03T10:48:24Z</time>
      </trkpt>
      <trkpt lat="42.9246910" lon="-8.4157410">
        <ele>387.6</ele>
        <time>2021-03-03T10:48:25Z</time>
      </trkpt>
      <trkpt lat="42.9246850" lon="-8.4157000">
        <ele>387.4</ele>
        <time>2021-03-03T10:48:26Z</time>
      </trkpt>
      <trkpt lat="42.9246780" lon="-8.4156580">
        <ele>387.4</ele>
        <time>2021-03-03T10:48:27Z</time>
      </trkpt>
      <trkpt lat="42.9246730" lon="-8.4156140">
        <ele>387.2</ele>
        <time>2021-03-03T10:48:28Z</time>
      </trkpt>
      <trkpt lat="42.9246660" lon="-8.4155700">
        <ele>387.2</ele>
        <time>2021-03-03T10:48:29Z</time>
      </trkpt>
      <trkpt lat="42.9246590" lon="-8.4155280">
        <ele>387.2</ele>
        <time>2021-03-03T10:48:30Z</time>
      </trkpt>
      <trkpt lat="42.9246530" lon="-8.4154870">
        <ele>387.0</ele>
        <time>2021-03-03T10:48:31Z</time>
      </trkpt>
      <trkpt lat="42.9246460" lon="-8.4154430">
        <ele>386.8</ele>
        <time>2021-03-03T10:48:32Z</time>
      </trkpt>
      <trkpt lat="42.9246440" lon="-8.4154020">
        <ele>386.6</ele>
        <time>2021-03-03T10:48:33Z</time>
      </trkpt>
      <trkpt lat="42.9246430" lon="-8.4153610">
        <ele>386.4</ele>
        <time>2021-03-03T10:48:34Z</time>
      </trkpt>
      <trkpt lat="42.9246420" lon="-8.4153190">
        <ele>386.4</ele>
        <time>2021-03-03T10:48:35Z</time>
      </trkpt>
      <trkpt lat="42.9246390" lon="-8.4152750">
        <ele>386.4</ele>
        <time>2021-03-03T10:48:36Z</time>
      </trkpt>
      <trkpt lat="42.9246360" lon="-8.4152270">
        <ele>386.2</ele>
        <time>2021-03-03T10:48:37Z</time>
      </trkpt>
      <trkpt lat="42.9246310" lon="-8.4151800">
        <ele>386.2</ele>
        <time>2021-03-03T10:48:38Z</time>
      </trkpt>
      <trkpt lat="42.9246260" lon="-8.4151330">
        <ele>386.2</ele>
        <time>2021-03-03T10:48:39Z</time>
      </trkpt>
      <trkpt lat="42.9246230" lon="-8.4150890">
        <ele>386.0</ele>
        <time>2021-03-03T10:48:40Z</time>
      </trkpt>
      <trkpt lat="42.9246180" lon="-8.4150470">
        <ele>386.2</ele>
        <time>2021-03-03T10:48:41Z</time>
      </trkpt>
      <trkpt lat="42.9246130" lon="-8.4150060">
        <ele>386.2</ele>
        <time>2021-03-03T10:48:42Z</time>
      </trkpt>
      <trkpt lat="42.9246100" lon="-8.4149690">
        <ele>386.2</ele>
        <time>2021-03-03T10:48:43Z</time>
      </trkpt>
      <trkpt lat="42.9246030" lon="-8.4149260">
        <ele>386.2</ele>
        <time>2021-03-03T10:48:44Z</time>
      </trkpt>
      <trkpt lat="42.9245960" lon="-8.4148840">
        <ele>386.0</ele>
        <time>2021-03-03T10:48:45Z</time>
      </trkpt>
      <trkpt lat="42.9245860" lon="-8.4148410">
        <ele>385.8</ele>
        <time>2021-03-03T10:48:46Z</time>
      </trkpt>
      <trkpt lat="42.9245760" lon="-8.4147980">
        <ele>385.6</ele>
        <time>2021-03-03T10:48:47Z</time>
      </trkpt>
      <trkpt lat="42.9245660" lon="-8.4147570">
        <ele>385.4</ele>
        <time>2021-03-03T10:48:48Z</time>
      </trkpt>
      <trkpt lat="42.9245590" lon="-8.4147140">
        <ele>385.2</ele>
        <time>2021-03-03T10:48:49Z</time>
      </trkpt>
      <trkpt lat="42.9245500" lon="-8.4146700">
        <ele>385.0</ele>
        <time>2021-03-03T10:48:50Z</time>
      </trkpt>
      <trkpt lat="42.9245430" lon="-8.4146280">
        <ele>385.0</ele>
        <time>2021-03-03T10:48:51Z</time>
      </trkpt>
      <trkpt lat="42.9245400" lon="-8.4145880">
        <ele>385.0</ele>
        <time>2021-03-03T10:48:52Z</time>
      </trkpt>
      <trkpt lat="42.9245320" lon="-8.4145450">
        <ele>384.8</ele>
        <time>2021-03-03T10:48:53Z</time>
      </trkpt>
      <trkpt lat="42.9245240" lon="-8.4145030">
        <ele>384.8</ele>
        <time>2021-03-03T10:48:54Z</time>
      </trkpt>
      <trkpt lat="42.9245160" lon="-8.4144640">
        <ele>384.6</ele>
        <time>2021-03-03T10:48:55Z</time>
      </trkpt>
      <trkpt lat="42.9245090" lon="-8.4144210">
        <ele>384.6</ele>
        <time>2021-03-03T10:48:56Z</time>
      </trkpt>
      <trkpt lat="42.9245040" lon="-8.4143770">
        <ele>384.4</ele>
        <time>2021-03-03T10:48:57Z</time>
      </trkpt>
      <trkpt lat="42.9244980" lon="-8.4143360">
        <ele>384.2</ele>
        <time>2021-03-03T10:48:58Z</time>
      </trkpt>
      <trkpt lat="42.9244910" lon="-8.4142930">
        <ele>384.2</ele>
        <time>2021-03-03T10:48:59Z</time>
      </trkpt>
      <trkpt lat="42.9244850" lon="-8.4142520">
        <ele>383.8</ele>
        <time>2021-03-03T10:49:00Z</time>
      </trkpt>
      <trkpt lat="42.9244780" lon="-8.4142110">
        <ele>383.6</ele>
        <time>2021-03-03T10:49:01Z</time>
      </trkpt>
      <trkpt lat="42.9244670" lon="-8.4141700">
        <ele>383.4</ele>
        <time>2021-03-03T10:49:02Z</time>
      </trkpt>
      <trkpt lat="42.9244590" lon="-8.4141290">
        <ele>383.2</ele>
        <time>2021-03-03T10:49:03Z</time>
      </trkpt>
      <trkpt lat="42.9244520" lon="-8.4140850">
        <ele>383.2</ele>
        <time>2021-03-03T10:49:04Z</time>
      </trkpt>
      <trkpt lat="42.9244450" lon="-8.4140410">
        <ele>383.2</ele>
        <time>2021-03-03T10:49:05Z</time>
      </trkpt>
      <trkpt lat="42.9244380" lon="-8.4139970">
        <ele>382.8</ele>
        <time>2021-03-03T10:49:06Z</time>
      </trkpt>
      <trkpt lat="42.9244320" lon="-8.4139530">
        <ele>382.6</ele>
        <time>2021-03-03T10:49:07Z</time>
      </trkpt>
      <trkpt lat="42.9244250" lon="-8.4139100">
        <ele>382.4</ele>
        <time>2021-03-03T10:49:08Z</time>
      </trkpt>
      <trkpt lat="42.9244250" lon="-8.4139100">
        <ele>382.2</ele>
        <time>2021-03-03T10:49:09Z</time>
      </trkpt>
      <trkpt lat="42.9244160" lon="-8.4138680">
        <ele>382.2</ele>
        <time>2021-03-03T10:49:10Z</time>
      </trkpt>
      <trkpt lat="42.9244030" lon="-8.4137920">
        <ele>382.0</ele>
        <time>2021-03-03T10:49:11Z</time>
      </trkpt>
      <trkpt lat="42.9243950" lon="-8.4137380">
        <ele>382.0</ele>
        <time>2021-03-03T10:49:12Z</time>
      </trkpt>
      <trkpt lat="42.9243860" lon="-8.4136950">
        <ele>381.8</ele>
        <time>2021-03-03T10:49:13Z</time>
      </trkpt>
      <trkpt lat="42.9243780" lon="-8.4136530">
        <ele>381.6</ele>
        <time>2021-03-03T10:49:14Z</time>
      </trkpt>
      <trkpt lat="42.9243710" lon="-8.4136110">
        <ele>381.6</ele>
        <time>2021-03-03T10:49:15Z</time>
      </trkpt>
      <trkpt lat="42.9243670" lon="-8.4135690">
        <ele>381.6</ele>
        <time>2021-03-03T10:49:16Z</time>
      </trkpt>
      <trkpt lat="42.9243590" lon="-8.4135290">
        <ele>381.4</ele>
        <time>2021-03-03T10:49:17Z</time>
      </trkpt>
      <trkpt lat="42.9243500" lon="-8.4134860">
        <ele>381.4</ele>
        <time>2021-03-03T10:49:18Z</time>
      </trkpt>
      <trkpt lat="42.9243430" lon="-8.4134440">
        <ele>381.2</ele>
        <time>2021-03-03T10:49:19Z</time>
      </trkpt>
      <trkpt lat="42.9243360" lon="-8.4134010">
        <ele>381.2</ele>
        <time>2021-03-03T10:49:20Z</time>
      </trkpt>
      <trkpt lat="42.9243280" lon="-8.4133570">
        <ele>381.2</ele>
        <time>2021-03-03T10:49:21Z</time>
      </trkpt>
      <trkpt lat="42.9243210" lon="-8.4133150">
        <ele>381.2</ele>
        <time>2021-03-03T10:49:22Z</time>
      </trkpt>
      <trkpt lat="42.9243130" lon="-8.4132710">
        <ele>381.0</ele>
        <time>2021-03-03T10:49:23Z</time>
      </trkpt>
      <trkpt lat="42.9243070" lon="-8.4132290">
        <ele>381.0</ele>
        <time>2021-03-03T10:49:24Z</time>
      </trkpt>
      <trkpt lat="42.9243010" lon="-8.4131880">
        <ele>380.6</ele>
        <time>2021-03-03T10:49:25Z</time>
      </trkpt>
      <trkpt lat="42.9242970" lon="-8.4131450">
        <ele>380.4</ele>
        <time>2021-03-03T10:49:26Z</time>
      </trkpt>
      <trkpt lat="42.9242930" lon="-8.4131030">
        <ele>380.2</ele>
        <time>2021-03-03T10:49:27Z</time>
      </trkpt>
      <trkpt lat="42.9242880" lon="-8.4130620">
        <ele>380.0</ele>
        <time>2021-03-03T10:49:28Z</time>
      </trkpt>
      <trkpt lat="42.9242820" lon="-8.4130200">
        <ele>379.8</ele>
        <time>2021-03-03T10:49:29Z</time>
      </trkpt>
      <trkpt lat="42.9242770" lon="-8.4129800">
        <ele>379.6</ele>
        <time>2021-03-03T10:49:30Z</time>
      </trkpt>
      <trkpt lat="42.9242710" lon="-8.4129380">
        <ele>379.8</ele>
        <time>2021-03-03T10:49:31Z</time>
      </trkpt>
      <trkpt lat="42.9242670" lon="-8.4128990">
        <ele>380.0</ele>
        <time>2021-03-03T10:49:32Z</time>
      </trkpt>
      <trkpt lat="42.9242620" lon="-8.4128580">
        <ele>380.0</ele>
        <time>2021-03-03T10:49:33Z</time>
      </trkpt>
      <trkpt lat="42.9242550" lon="-8.4128170">
        <ele>380.2</ele>
        <time>2021-03-03T10:49:34Z</time>
      </trkpt>
      <trkpt lat="42.9242450" lon="-8.4127760">
        <ele>380.4</ele>
        <time>2021-03-03T10:49:35Z</time>
      </trkpt>
      <trkpt lat="42.9242390" lon="-8.4127340">
        <ele>380.4</ele>
        <time>2021-03-03T10:49:36Z</time>
      </trkpt>
      <trkpt lat="42.9242340" lon="-8.4126920">
        <ele>380.6</ele>
        <time>2021-03-03T10:49:37Z</time>
      </trkpt>
      <trkpt lat="42.9242280" lon="-8.4126500">
        <ele>380.8</ele>
        <time>2021-03-03T10:49:38Z</time>
      </trkpt>
      <trkpt lat="42.9242210" lon="-8.4126090">
        <ele>380.8</ele>
        <time>2021-03-03T10:49:39Z</time>
      </trkpt>
      <trkpt lat="42.9242130" lon="-8.4125730">
        <ele>381.0</ele>
        <time>2021-03-03T10:49:40Z</time>
      </trkpt>
      <trkpt lat="42.9242050" lon="-8.4125380">
        <ele>381.0</ele>
        <time>2021-03-03T10:49:41Z</time>
      </trkpt>
      <trkpt lat="42.9241990" lon="-8.4125070">
        <ele>381.0</ele>
        <time>2021-03-03T10:49:42Z</time>
      </trkpt>
      <trkpt lat="42.9241940" lon="-8.4124740">
        <ele>381.2</ele>
        <time>2021-03-03T10:49:43Z</time>
      </trkpt>
      <trkpt lat="42.9241910" lon="-8.4124430">
        <ele>381.2</ele>
        <time>2021-03-03T10:49:44Z</time>
      </trkpt>
      <trkpt lat="42.9241830" lon="-8.4124110">
        <ele>381.4</ele>
        <time>2021-03-03T10:49:45Z</time>
      </trkpt>
      <trkpt lat="42.9241740" lon="-8.4123800">
        <ele>381.6</ele>
        <time>2021-03-03T10:49:46Z</time>
      </trkpt>
      <trkpt lat="42.9241670" lon="-8.4123490">
        <ele>381.8</ele>
        <time>2021-03-03T10:49:47Z</time>
      </trkpt>
      <trkpt lat="42.9241580" lon="-8.4123160">
        <ele>382.0</ele>
        <time>2021-03-03T10:49:48Z</time>
      </trkpt>
      <trkpt lat="42.9241560" lon="-8.4122680">
        <ele>382.2</ele>
        <time>2021-03-03T10:49:49Z</time>
      </trkpt>
      <trkpt lat="42.9241570" lon="-8.4122260">
        <ele>382.4</ele>
        <time>2021-03-03T10:49:50Z</time>
      </trkpt>
      <trkpt lat="42.9241500" lon="-8.4121880">
        <ele>382.6</ele>
        <time>2021-03-03T10:49:51Z</time>
      </trkpt>
      <trkpt lat="42.9241460" lon="-8.4121530">
        <ele>382.6</ele>
        <time>2021-03-03T10:49:52Z</time>
      </trkpt>
      <trkpt lat="42.9241410" lon="-8.4121200">
        <ele>382.6</ele>
        <time>2021-03-03T10:49:53Z</time>
      </trkpt>
      <trkpt lat="42.9241340" lon="-8.4120790">
        <ele>382.6</ele>
        <time>2021-03-03T10:49:54Z</time>
      </trkpt>
      <trkpt lat="42.9241260" lon="-8.4120450">
        <ele>382.8</ele>
        <time>2021-03-03T10:49:55Z</time>
      </trkpt>
      <trkpt lat="42.9241170" lon="-8.4120090">
        <ele>382.8</ele>
        <time>2021-03-03T10:49:56Z</time>
      </trkpt>
      <trkpt lat="42.9241130" lon="-8.4119760">
        <ele>383.0</ele>
        <time>2021-03-03T10:49:57Z</time>
      </trkpt>
      <trkpt lat="42.9241090" lon="-8.4119430">
        <ele>383.0</ele>
        <time>2021-03-03T10:49:58Z</time>
      </trkpt>
      <trkpt lat="42.9241020" lon="-8.4119080">
        <ele>383.0</ele>
        <time>2021-03-03T10:49:59Z</time>
      </trkpt>
      <trkpt lat="42.9240950" lon="-8.4118750">
        <ele>383.0</ele>
        <time>2021-03-03T10:50:00Z</time>
      </trkpt>
      <trkpt lat="42.9240870" lon="-8.4118420">
        <ele>383.0</ele>
        <time>2021-03-03T10:50:01Z</time>
      </trkpt>
      <trkpt lat="42.9240830" lon="-8.4118080">
        <ele>383.0</ele>
        <time>2021-03-03T10:50:02Z</time>
      </trkpt>
      <trkpt lat="42.9240780" lon="-8.4117740">
        <ele>383.0</ele>
        <time>2021-03-03T10:50:03Z</time>
      </trkpt>
      <trkpt lat="42.9240750" lon="-8.4117390">
        <ele>383.0</ele>
        <time>2021-03-03T10:50:04Z</time>
      </trkpt>
      <trkpt lat="42.9240710" lon="-8.4117030">
        <ele>383.0</ele>
        <time>2021-03-03T10:50:05Z</time>
      </trkpt>
      <trkpt lat="42.9240650" lon="-8.4116640">
        <ele>383.2</ele>
        <time>2021-03-03T10:50:06Z</time>
      </trkpt>
      <trkpt lat="42.9240610" lon="-8.4116250">
        <ele>383.2</ele>
        <time>2021-03-03T10:50:07Z</time>
      </trkpt>
      <trkpt lat="42.9240600" lon="-8.4115860">
        <ele>383.0</ele>
        <time>2021-03-03T10:50:08Z</time>
      </trkpt>
      <trkpt lat="42.9240540" lon="-8.4115490">
        <ele>383.0</ele>
        <time>2021-03-03T10:50:09Z</time>
      </trkpt>
      <trkpt lat="42.9240460" lon="-8.4115110">
        <ele>383.0</ele>
        <time>2021-03-03T10:50:10Z</time>
      </trkpt>
      <trkpt lat="42.9240420" lon="-8.4114720">
        <ele>383.0</ele>
        <time>2021-03-03T10:50:11Z</time>
      </trkpt>
      <trkpt lat="42.9240370" lon="-8.4114340">
        <ele>382.8</ele>
        <time>2021-03-03T10:50:12Z</time>
      </trkpt>
      <trkpt lat="42.9240350" lon="-8.4113940">
        <ele>382.8</ele>
        <time>2021-03-03T10:50:13Z</time>
      </trkpt>
      <trkpt lat="42.9240360" lon="-8.4113560">
        <ele>382.8</ele>
        <time>2021-03-03T10:50:14Z</time>
      </trkpt>
      <trkpt lat="42.9240390" lon="-8.4113190">
        <ele>382.6</ele>
        <time>2021-03-03T10:50:15Z</time>
      </trkpt>
      <trkpt lat="42.9240430" lon="-8.4112800">
        <ele>382.6</ele>
        <time>2021-03-03T10:50:16Z</time>
      </trkpt>
      <trkpt lat="42.9240450" lon="-8.4112400">
        <ele>382.6</ele>
        <time>2021-03-03T10:50:17Z</time>
      </trkpt>
      <trkpt lat="42.9240460" lon="-8.4111960">
        <ele>382.6</ele>
        <time>2021-03-03T10:50:18Z</time>
      </trkpt>
      <trkpt lat="42.9240480" lon="-8.4111580">
        <ele>382.6</ele>
        <time>2021-03-03T10:50:19Z</time>
      </trkpt>
      <trkpt lat="42.9240500" lon="-8.4111170">
        <ele>382.6</ele>
        <time>2021-03-03T10:50:20Z</time>
      </trkpt>
      <trkpt lat="42.9240510" lon="-8.4110750">
        <ele>382.6</ele>
        <time>2021-03-03T10:50:21Z</time>
      </trkpt>
      <trkpt lat="42.9240490" lon="-8.4110290">
        <ele>382.4</ele>
        <time>2021-03-03T10:50:22Z</time>
      </trkpt>
      <trkpt lat="42.9240480" lon="-8.4109880">
        <ele>382.2</ele>
        <time>2021-03-03T10:50:23Z</time>
      </trkpt>
      <trkpt lat="42.9240470" lon="-8.4109490">
        <ele>382.0</ele>
        <time>2021-03-03T10:50:24Z</time>
      </trkpt>
      <trkpt lat="42.9240500" lon="-8.4109110">
        <ele>382.0</ele>
        <time>2021-03-03T10:50:25Z</time>
      </trkpt>
      <trkpt lat="42.9240560" lon="-8.4108700">
        <ele>381.8</ele>
        <time>2021-03-03T10:50:26Z</time>
      </trkpt>
      <trkpt lat="42.9240630" lon="-8.4108300">
        <ele>381.8</ele>
        <time>2021-03-03T10:50:27Z</time>
      </trkpt>
      <trkpt lat="42.9240680" lon="-8.4107900">
        <ele>381.8</ele>
        <time>2021-03-03T10:50:28Z</time>
      </trkpt>
      <trkpt lat="42.9240720" lon="-8.4107510">
        <ele>381.8</ele>
        <time>2021-03-03T10:50:29Z</time>
      </trkpt>
      <trkpt lat="42.9240760" lon="-8.4107080">
        <ele>381.8</ele>
        <time>2021-03-03T10:50:30Z</time>
      </trkpt>
      <trkpt lat="42.9240820" lon="-8.4106650">
        <ele>382.0</ele>
        <time>2021-03-03T10:50:31Z</time>
      </trkpt>
      <trkpt lat="42.9240870" lon="-8.4106230">
        <ele>382.0</ele>
        <time>2021-03-03T10:50:32Z</time>
      </trkpt>
      <trkpt lat="42.9240920" lon="-8.4105800">
        <ele>382.0</ele>
        <time>2021-03-03T10:50:33Z</time>
      </trkpt>
      <trkpt lat="42.9240970" lon="-8.4105360">
        <ele>382.0</ele>
        <time>2021-03-03T10:50:34Z</time>
      </trkpt>
      <trkpt lat="42.9241050" lon="-8.4104940">
        <ele>382.0</ele>
        <time>2021-03-03T10:50:35Z</time>
      </trkpt>
      <trkpt lat="42.9241060" lon="-8.4104570">
        <ele>382.0</ele>
        <time>2021-03-03T10:50:36Z</time>
      </trkpt>
      <trkpt lat="42.9241080" lon="-8.4104180">
        <ele>382.0</ele>
        <time>2021-03-03T10:50:37Z</time>
      </trkpt>
      <trkpt lat="42.9241060" lon="-8.4103780">
        <ele>382.0</ele>
        <time>2021-03-03T10:50:38Z</time>
      </trkpt>
      <trkpt lat="42.9241070" lon="-8.4103370">
        <ele>382.0</ele>
        <time>2021-03-03T10:50:39Z</time>
      </trkpt>
      <trkpt lat="42.9241180" lon="-8.4102810">
        <ele>382.0</ele>
        <time>2021-03-03T10:50:40Z</time>
      </trkpt>
      <trkpt lat="42.9241380" lon="-8.4102370">
        <ele>382.0</ele>
        <time>2021-03-03T10:50:41Z</time>
      </trkpt>
      <trkpt lat="42.9241460" lon="-8.4101910">
        <ele>382.0</ele>
        <time>2021-03-03T10:50:42Z</time>
      </trkpt>
      <trkpt lat="42.9241520" lon="-8.4101490">
        <ele>382.0</ele>
        <time>2021-03-03T10:50:43Z</time>
      </trkpt>
      <trkpt lat="42.9241490" lon="-8.4101080">
        <ele>382.0</ele>
        <time>2021-03-03T10:50:44Z</time>
      </trkpt>
      <trkpt lat="42.9241550" lon="-8.4100630">
        <ele>382.0</ele>
        <time>2021-03-03T10:50:45Z</time>
      </trkpt>
      <trkpt lat="42.9241600" lon="-8.4100200">
        <ele>382.0</ele>
        <time>2021-03-03T10:50:46Z</time>
      </trkpt>
      <trkpt lat="42.9241680" lon="-8.4099800">
        <ele>382.0</ele>
        <time>2021-03-03T10:50:47Z</time>
      </trkpt>
      <trkpt lat="42.9241790" lon="-8.4099400">
        <ele>382.0</ele>
        <time>2021-03-03T10:50:48Z</time>
      </trkpt>
      <trkpt lat="42.9241830" lon="-8.4098980">
        <ele>382.0</ele>
        <time>2021-03-03T10:50:49Z</time>
      </trkpt>
      <trkpt lat="42.9241850" lon="-8.4098490">
        <ele>382.2</ele>
        <time>2021-03-03T10:50:50Z</time>
      </trkpt>
      <trkpt lat="42.9241860" lon="-8.4098120">
        <ele>382.0</ele>
        <time>2021-03-03T10:50:51Z</time>
      </trkpt>
      <trkpt lat="42.9241900" lon="-8.4097740">
        <ele>382.2</ele>
        <time>2021-03-03T10:50:52Z</time>
      </trkpt>
      <trkpt lat="42.9241970" lon="-8.4097350">
        <ele>382.2</ele>
        <time>2021-03-03T10:50:53Z</time>
      </trkpt>
      <trkpt lat="42.9242050" lon="-8.4096970">
        <ele>382.2</ele>
        <time>2021-03-03T10:50:54Z</time>
      </trkpt>
      <trkpt lat="42.9242210" lon="-8.4096600">
        <ele>382.2</ele>
        <time>2021-03-03T10:50:55Z</time>
      </trkpt>
      <trkpt lat="42.9242300" lon="-8.4096170">
        <ele>382.4</ele>
        <time>2021-03-03T10:50:56Z</time>
      </trkpt>
      <trkpt lat="42.9242320" lon="-8.4095740">
        <ele>382.4</ele>
        <time>2021-03-03T10:50:57Z</time>
      </trkpt>
      <trkpt lat="42.9242360" lon="-8.4095350">
        <ele>382.4</ele>
        <time>2021-03-03T10:50:58Z</time>
      </trkpt>
      <trkpt lat="42.9242420" lon="-8.4094960">
        <ele>382.4</ele>
        <time>2021-03-03T10:50:59Z</time>
      </trkpt>
      <trkpt lat="42.9242440" lon="-8.4094520">
        <ele>382.4</ele>
        <time>2021-03-03T10:51:00Z</time>
      </trkpt>
      <trkpt lat="42.9242480" lon="-8.4094080">
        <ele>382.4</ele>
        <time>2021-03-03T10:51:01Z</time>
      </trkpt>
      <trkpt lat="42.9242480" lon="-8.4093530">
        <ele>382.6</ele>
        <time>2021-03-03T10:51:02Z</time>
      </trkpt>
      <trkpt lat="42.9242450" lon="-8.4093030">
        <ele>382.6</ele>
        <time>2021-03-03T10:51:03Z</time>
      </trkpt>
      <trkpt lat="42.9242510" lon="-8.4092550">
        <ele>382.8</ele>
        <time>2021-03-03T10:51:04Z</time>
      </trkpt>
      <trkpt lat="42.9242550" lon="-8.4092110">
        <ele>382.8</ele>
        <time>2021-03-03T10:51:05Z</time>
      </trkpt>
      <trkpt lat="42.9242560" lon="-8.4091720">
        <ele>382.8</ele>
        <time>2021-03-03T10:51:06Z</time>
      </trkpt>
      <trkpt lat="42.9242580" lon="-8.4091280">
        <ele>382.8</ele>
        <time>2021-03-03T10:51:07Z</time>
      </trkpt>
      <trkpt lat="42.9242610" lon="-8.4090870">
        <ele>382.8</ele>
        <time>2021-03-03T10:51:08Z</time>
      </trkpt>
      <trkpt lat="42.9242600" lon="-8.4090410">
        <ele>382.8</ele>
        <time>2021-03-03T10:51:09Z</time>
      </trkpt>
      <trkpt lat="42.9242590" lon="-8.4090010">
        <ele>382.8</ele>
        <time>2021-03-03T10:51:10Z</time>
      </trkpt>
      <trkpt lat="42.9242570" lon="-8.4089630">
        <ele>383.0</ele>
        <time>2021-03-03T10:51:11Z</time>
      </trkpt>
      <trkpt lat="42.9242520" lon="-8.4089270">
        <ele>383.4</ele>
        <time>2021-03-03T10:51:12Z</time>
      </trkpt>
      <trkpt lat="42.9242490" lon="-8.4088800">
        <ele>383.6</ele>
        <time>2021-03-03T10:51:13Z</time>
      </trkpt>
      <trkpt lat="42.9242500" lon="-8.4088490">
        <ele>383.6</ele>
        <time>2021-03-03T10:51:14Z</time>
      </trkpt>
      <trkpt lat="42.9242540" lon="-8.4088130">
        <ele>383.6</ele>
        <time>2021-03-03T10:51:15Z</time>
      </trkpt>
      <trkpt lat="42.9242590" lon="-8.4087720">
        <ele>383.4</ele>
        <time>2021-03-03T10:51:16Z</time>
      </trkpt>
      <trkpt lat="42.9242610" lon="-8.4087320">
        <ele>383.4</ele>
        <time>2021-03-03T10:51:17Z</time>
      </trkpt>
      <trkpt lat="42.9242600" lon="-8.4086930">
        <ele>383.4</ele>
        <time>2021-03-03T10:51:18Z</time>
      </trkpt>
      <trkpt lat="42.9242580" lon="-8.4086440">
        <ele>383.4</ele>
        <time>2021-03-03T10:51:19Z</time>
      </trkpt>
      <trkpt lat="42.9242580" lon="-8.4086100">
        <ele>383.4</ele>
        <time>2021-03-03T10:51:20Z</time>
      </trkpt>
      <trkpt lat="42.9242680" lon="-8.4085680">
        <ele>383.4</ele>
        <time>2021-03-03T10:51:21Z</time>
      </trkpt>
      <trkpt lat="42.9242700" lon="-8.4085210">
        <ele>383.4</ele>
        <time>2021-03-03T10:51:22Z</time>
      </trkpt>
      <trkpt lat="42.9242670" lon="-8.4084800">
        <ele>383.4</ele>
        <time>2021-03-03T10:51:23Z</time>
      </trkpt>
      <trkpt lat="42.9242650" lon="-8.4084420">
        <ele>383.4</ele>
        <time>2021-03-03T10:51:24Z</time>
      </trkpt>
      <trkpt lat="42.9242580" lon="-8.4084040">
        <ele>383.4</ele>
        <time>2021-03-03T10:51:25Z</time>
      </trkpt>
      <trkpt lat="42.9242540" lon="-8.4083590">
        <ele>383.2</ele>
        <time>2021-03-03T10:51:26Z</time>
      </trkpt>
      <trkpt lat="42.9242530" lon="-8.4083170">
        <ele>383.0</ele>
        <time>2021-03-03T10:51:27Z</time>
      </trkpt>
      <trkpt lat="42.9242520" lon="-8.4082770">
        <ele>383.0</ele>
        <time>2021-03-03T10:51:28Z</time>
      </trkpt>
      <trkpt lat="42.9242520" lon="-8.4082380">
        <ele>382.8</ele>
        <time>2021-03-03T10:51:29Z</time>
      </trkpt>
      <trkpt lat="42.9242530" lon="-8.4082010">
        <ele>382.8</ele>
        <time>2021-03-03T10:51:30Z</time>
      </trkpt>
      <trkpt lat="42.9242550" lon="-8.4081600">
        <ele>382.6</ele>
        <time>2021-03-03T10:51:31Z</time>
      </trkpt>
      <trkpt lat="42.9242570" lon="-8.4081210">
        <ele>382.4</ele>
        <time>2021-03-03T10:51:32Z</time>
      </trkpt>
      <trkpt lat="42.9242580" lon="-8.4080820">
        <ele>382.2</ele>
        <time>2021-03-03T10:51:33Z</time>
      </trkpt>
      <trkpt lat="42.9242570" lon="-8.4080420">
        <ele>382.2</ele>
        <time>2021-03-03T10:51:34Z</time>
      </trkpt>
      <trkpt lat="42.9242570" lon="-8.4080040">
        <ele>382.2</ele>
        <time>2021-03-03T10:51:35Z</time>
      </trkpt>
      <trkpt lat="42.9242610" lon="-8.4079630">
        <ele>382.2</ele>
        <time>2021-03-03T10:51:36Z</time>
      </trkpt>
      <trkpt lat="42.9242650" lon="-8.4079240">
        <ele>382.0</ele>
        <time>2021-03-03T10:51:37Z</time>
      </trkpt>
      <trkpt lat="42.9242690" lon="-8.4078830">
        <ele>382.0</ele>
        <time>2021-03-03T10:51:38Z</time>
      </trkpt>
      <trkpt lat="42.9242700" lon="-8.4078410">
        <ele>381.8</ele>
        <time>2021-03-03T10:51:39Z</time>
      </trkpt>
      <trkpt lat="42.9242770" lon="-8.4078000">
        <ele>381.6</ele>
        <time>2021-03-03T10:51:40Z</time>
      </trkpt>
      <trkpt lat="42.9242800" lon="-8.4077580">
        <ele>381.6</ele>
        <time>2021-03-03T10:51:41Z</time>
      </trkpt>
      <trkpt lat="42.9242850" lon="-8.4077150">
        <ele>381.4</ele>
        <time>2021-03-03T10:51:42Z</time>
      </trkpt>
      <trkpt lat="42.9242910" lon="-8.4076740">
        <ele>381.2</ele>
        <time>2021-03-03T10:51:43Z</time>
      </trkpt>
      <trkpt lat="42.9242970" lon="-8.4076320">
        <ele>380.8</ele>
        <time>2021-03-03T10:51:44Z</time>
      </trkpt>
      <trkpt lat="42.9243000" lon="-8.4075900">
        <ele>380.6</ele>
        <time>2021-03-03T10:51:45Z</time>
      </trkpt>
      <trkpt lat="42.9243040" lon="-8.4075460">
        <ele>380.2</ele>
        <time>2021-03-03T10:51:46Z</time>
      </trkpt>
      <trkpt lat="42.9243090" lon="-8.4075000">
        <ele>380.0</ele>
        <time>2021-03-03T10:51:47Z</time>
      </trkpt>
      <trkpt lat="42.9243130" lon="-8.4074530">
        <ele>379.6</ele>
        <time>2021-03-03T10:51:48Z</time>
      </trkpt>
      <trkpt lat="42.9243180" lon="-8.4074090">
        <ele>379.2</ele>
        <time>2021-03-03T10:51:49Z</time>
      </trkpt>
      <trkpt lat="42.9243270" lon="-8.4073660">
        <ele>379.0</ele>
        <time>2021-03-03T10:51:50Z</time>
      </trkpt>
      <trkpt lat="42.9243380" lon="-8.4073230">
        <ele>378.8</ele>
        <time>2021-03-03T10:51:51Z</time>
      </trkpt>
      <trkpt lat="42.9243510" lon="-8.4072870">
        <ele>378.4</ele>
        <time>2021-03-03T10:51:52Z</time>
      </trkpt>
      <trkpt lat="42.9243700" lon="-8.4072530">
        <ele>378.2</ele>
        <time>2021-03-03T10:51:53Z</time>
      </trkpt>
      <trkpt lat="42.9243960" lon="-8.4072270">
        <ele>377.6</ele>
        <time>2021-03-03T10:51:54Z</time>
      </trkpt>
      <trkpt lat="42.9244170" lon="-8.4072060">
        <ele>377.4</ele>
        <time>2021-03-03T10:51:55Z</time>
      </trkpt>
      <trkpt lat="42.9244360" lon="-8.4071900">
        <ele>377.2</ele>
        <time>2021-03-03T10:51:56Z</time>
      </trkpt>
      <trkpt lat="42.9244560" lon="-8.4071830">
        <ele>377.0</ele>
        <time>2021-03-03T10:51:57Z</time>
      </trkpt>
      <trkpt lat="42.9244780" lon="-8.4071880">
        <ele>377.0</ele>
        <time>2021-03-03T10:51:58Z</time>
      </trkpt>
      <trkpt lat="42.9245020" lon="-8.4072120">
        <ele>376.8</ele>
        <time>2021-03-03T10:51:59Z</time>
      </trkpt>
      <trkpt lat="42.9245310" lon="-8.4072320">
        <ele>376.8</ele>
        <time>2021-03-03T10:52:00Z</time>
      </trkpt>
      <trkpt lat="42.9245560" lon="-8.4072510">
        <ele>376.8</ele>
        <time>2021-03-03T10:52:01Z</time>
      </trkpt>
      <trkpt lat="42.9245820" lon="-8.4072690">
        <ele>376.8</ele>
        <time>2021-03-03T10:52:02Z</time>
      </trkpt>
      <trkpt lat="42.9246100" lon="-8.4072890">
        <ele>376.6</ele>
        <time>2021-03-03T10:52:03Z</time>
      </trkpt>
      <trkpt lat="42.9246370" lon="-8.4073100">
        <ele>376.6</ele>
        <time>2021-03-03T10:52:04Z</time>
      </trkpt>
      <trkpt lat="42.9246640" lon="-8.4073310">
        <ele>376.6</ele>
        <time>2021-03-03T10:52:05Z</time>
      </trkpt>
      <trkpt lat="42.9246900" lon="-8.4073510">
        <ele>376.4</ele>
        <time>2021-03-03T10:52:06Z</time>
      </trkpt>
      <trkpt lat="42.9247140" lon="-8.4073720">
        <ele>376.4</ele>
        <time>2021-03-03T10:52:07Z</time>
      </trkpt>
      <trkpt lat="42.9247370" lon="-8.4073950">
        <ele>376.4</ele>
        <time>2021-03-03T10:52:08Z</time>
      </trkpt>
      <trkpt lat="42.9247590" lon="-8.4074170">
        <ele>376.4</ele>
        <time>2021-03-03T10:52:09Z</time>
      </trkpt>
      <trkpt lat="42.9247790" lon="-8.4074420">
        <ele>376.4</ele>
        <time>2021-03-03T10:52:10Z</time>
      </trkpt>
      <trkpt lat="42.9248070" lon="-8.4074720">
        <ele>376.4</ele>
        <time>2021-03-03T10:52:11Z</time>
      </trkpt>
      <trkpt lat="42.9248350" lon="-8.4074970">
        <ele>376.2</ele>
        <time>2021-03-03T10:52:12Z</time>
      </trkpt>
      <trkpt lat="42.9248570" lon="-8.4075200">
        <ele>376.0</ele>
        <time>2021-03-03T10:52:13Z</time>
      </trkpt>
      <trkpt lat="42.9248800" lon="-8.4075370">
        <ele>375.8</ele>
        <time>2021-03-03T10:52:14Z</time>
      </trkpt>
      <trkpt lat="42.9249030" lon="-8.4075570">
        <ele>375.8</ele>
        <time>2021-03-03T10:52:15Z</time>
      </trkpt>
      <trkpt lat="42.9249280" lon="-8.4075760">
        <ele>375.8</ele>
        <time>2021-03-03T10:52:16Z</time>
      </trkpt>
      <trkpt lat="42.9249560" lon="-8.4075900">
        <ele>375.8</ele>
        <time>2021-03-03T10:52:17Z</time>
      </trkpt>
      <trkpt lat="42.9249820" lon="-8.4076050">
        <ele>375.8</ele>
        <time>2021-03-03T10:52:18Z</time>
      </trkpt>
      <trkpt lat="42.9250110" lon="-8.4076200">
        <ele>375.8</ele>
        <time>2021-03-03T10:52:19Z</time>
      </trkpt>
      <trkpt lat="42.9250370" lon="-8.4076370">
        <ele>375.6</ele>
        <time>2021-03-03T10:52:20Z</time>
      </trkpt>
      <trkpt lat="42.9250630" lon="-8.4076550">
        <ele>375.6</ele>
        <time>2021-03-03T10:52:21Z</time>
      </trkpt>
      <trkpt lat="42.9250880" lon="-8.4076730">
        <ele>375.6</ele>
        <time>2021-03-03T10:52:22Z</time>
      </trkpt>
      <trkpt lat="42.9251130" lon="-8.4076900">
        <ele>375.6</ele>
        <time>2021-03-03T10:52:23Z</time>
      </trkpt>
      <trkpt lat="42.9251380" lon="-8.4077060">
        <ele>375.6</ele>
        <time>2021-03-03T10:52:24Z</time>
      </trkpt>
      <trkpt lat="42.9251680" lon="-8.4077220">
        <ele>375.6</ele>
        <time>2021-03-03T10:52:25Z</time>
      </trkpt>
      <trkpt lat="42.9251960" lon="-8.4077370">
        <ele>375.6</ele>
        <time>2021-03-03T10:52:26Z</time>
      </trkpt>
      <trkpt lat="42.9252240" lon="-8.4077510">
        <ele>375.6</ele>
        <time>2021-03-03T10:52:27Z</time>
      </trkpt>
      <trkpt lat="42.9252530" lon="-8.4077660">
        <ele>375.4</ele>
        <time>2021-03-03T10:52:28Z</time>
      </trkpt>
      <trkpt lat="42.9252810" lon="-8.4077820">
        <ele>375.2</ele>
        <time>2021-03-03T10:52:29Z</time>
      </trkpt>
      <trkpt lat="42.9253080" lon="-8.4078010">
        <ele>375.2</ele>
        <time>2021-03-03T10:52:30Z</time>
      </trkpt>
      <trkpt lat="42.9253360" lon="-8.4078200">
        <ele>375.0</ele>
        <time>2021-03-03T10:52:31Z</time>
      </trkpt>
      <trkpt lat="42.9253650" lon="-8.4078410">
        <ele>375.0</ele>
        <time>2021-03-03T10:52:32Z</time>
      </trkpt>
      <trkpt lat="42.9253950" lon="-8.4078570">
        <ele>375.0</ele>
        <time>2021-03-03T10:52:33Z</time>
      </trkpt>
      <trkpt lat="42.9254250" lon="-8.4078710">
        <ele>374.8</ele>
        <time>2021-03-03T10:52:34Z</time>
      </trkpt>
      <trkpt lat="42.9254540" lon="-8.4078830">
        <ele>374.8</ele>
        <time>2021-03-03T10:52:35Z</time>
      </trkpt>
      <trkpt lat="42.9254850" lon="-8.4078970">
        <ele>374.8</ele>
        <time>2021-03-03T10:52:36Z</time>
      </trkpt>
      <trkpt lat="42.9255140" lon="-8.4079130">
        <ele>374.8</ele>
        <time>2021-03-03T10:52:37Z</time>
      </trkpt>
      <trkpt lat="42.9255410" lon="-8.4079280">
        <ele>374.6</ele>
        <time>2021-03-03T10:52:38Z</time>
      </trkpt>
      <trkpt lat="42.9255700" lon="-8.4079410">
        <ele>374.6</ele>
        <time>2021-03-03T10:52:39Z</time>
      </trkpt>
      <trkpt lat="42.9256020" lon="-8.4079540">
        <ele>374.6</ele>
        <time>2021-03-03T10:52:40Z</time>
      </trkpt>
      <trkpt lat="42.9256310" lon="-8.4079680">
        <ele>374.4</ele>
        <time>2021-03-03T10:52:41Z</time>
      </trkpt>
      <trkpt lat="42.9256620" lon="-8.4079830">
        <ele>374.4</ele>
        <time>2021-03-03T10:52:42Z</time>
      </trkpt>
      <trkpt lat="42.9256920" lon="-8.4079970">
        <ele>374.4</ele>
        <time>2021-03-03T10:52:43Z</time>
      </trkpt>
      <trkpt lat="42.9257200" lon="-8.4080130">
        <ele>374.2</ele>
        <time>2021-03-03T10:52:44Z</time>
      </trkpt>
      <trkpt lat="42.9257490" lon="-8.4080280">
        <ele>374.2</ele>
        <time>2021-03-03T10:52:45Z</time>
      </trkpt>
      <trkpt lat="42.9257790" lon="-8.4080430">
        <ele>374.0</ele>
        <time>2021-03-03T10:52:46Z</time>
      </trkpt>
      <trkpt lat="42.9258080" lon="-8.4080590">
        <ele>374.0</ele>
        <time>2021-03-03T10:52:47Z</time>
      </trkpt>
      <trkpt lat="42.9258380" lon="-8.4080780">
        <ele>373.8</ele>
        <time>2021-03-03T10:52:48Z</time>
      </trkpt>
      <trkpt lat="42.9258660" lon="-8.4080970">
        <ele>373.6</ele>
        <time>2021-03-03T10:52:49Z</time>
      </trkpt>
      <trkpt lat="42.9258940" lon="-8.4081150">
        <ele>373.4</ele>
        <time>2021-03-03T10:52:50Z</time>
      </trkpt>
      <trkpt lat="42.9259230" lon="-8.4081360">
        <ele>373.2</ele>
        <time>2021-03-03T10:52:51Z</time>
      </trkpt>
      <trkpt lat="42.9259490" lon="-8.4081580">
        <ele>373.0</ele>
        <time>2021-03-03T10:52:52Z</time>
      </trkpt>
      <trkpt lat="42.9259740" lon="-8.4081790">
        <ele>373.0</ele>
        <time>2021-03-03T10:52:53Z</time>
      </trkpt>
      <trkpt lat="42.9260010" lon="-8.4082030">
        <ele>372.8</ele>
        <time>2021-03-03T10:52:54Z</time>
      </trkpt>
      <trkpt lat="42.9260260" lon="-8.4082290">
        <ele>372.6</ele>
        <time>2021-03-03T10:52:55Z</time>
      </trkpt>
      <trkpt lat="42.9260490" lon="-8.4082570">
        <ele>372.4</ele>
        <time>2021-03-03T10:52:56Z</time>
      </trkpt>
      <trkpt lat="42.9260720" lon="-8.4082870">
        <ele>372.4</ele>
        <time>2021-03-03T10:52:57Z</time>
      </trkpt>
      <trkpt lat="42.9260920" lon="-8.4083100">
        <ele>372.2</ele>
        <time>2021-03-03T10:52:58Z</time>
      </trkpt>
      <trkpt lat="42.9261190" lon="-8.4083500">
        <ele>372.0</ele>
        <time>2021-03-03T10:52:59Z</time>
      </trkpt>
      <trkpt lat="42.9261390" lon="-8.4083870">
        <ele>372.0</ele>
        <time>2021-03-03T10:53:00Z</time>
      </trkpt>
      <trkpt lat="42.9261590" lon="-8.4084220">
        <ele>371.8</ele>
        <time>2021-03-03T10:53:01Z</time>
      </trkpt>
      <trkpt lat="42.9261800" lon="-8.4084560">
        <ele>371.6</ele>
        <time>2021-03-03T10:53:02Z</time>
      </trkpt>
      <trkpt lat="42.9261990" lon="-8.4084910">
        <ele>371.4</ele>
        <time>2021-03-03T10:53:03Z</time>
      </trkpt>
      <trkpt lat="42.9262160" lon="-8.4085270">
        <ele>371.2</ele>
        <time>2021-03-03T10:53:04Z</time>
      </trkpt>
      <trkpt lat="42.9262350" lon="-8.4085640">
        <ele>371.0</ele>
        <time>2021-03-03T10:53:05Z</time>
      </trkpt>
      <trkpt lat="42.9262500" lon="-8.4086020">
        <ele>370.8</ele>
        <time>2021-03-03T10:53:06Z</time>
      </trkpt>
      <trkpt lat="42.9262650" lon="-8.4086400">
        <ele>370.8</ele>
        <time>2021-03-03T10:53:07Z</time>
      </trkpt>
      <trkpt lat="42.9262830" lon="-8.4086770">
        <ele>370.6</ele>
        <time>2021-03-03T10:53:08Z</time>
      </trkpt>
      <trkpt lat="42.9263000" lon="-8.4087160">
        <ele>370.4</ele>
        <time>2021-03-03T10:53:09Z</time>
      </trkpt>
      <trkpt lat="42.9263140" lon="-8.4087560">
        <ele>370.2</ele>
        <time>2021-03-03T10:53:10Z</time>
      </trkpt>
      <trkpt lat="42.9263310" lon="-8.4087930">
        <ele>370.0</ele>
        <time>2021-03-03T10:53:11Z</time>
      </trkpt>
      <trkpt lat="42.9263460" lon="-8.4088280">
        <ele>369.8</ele>
        <time>2021-03-03T10:53:12Z</time>
      </trkpt>
      <trkpt lat="42.9263640" lon="-8.4088630">
        <ele>369.6</ele>
        <time>2021-03-03T10:53:13Z</time>
      </trkpt>
      <trkpt lat="42.9263790" lon="-8.4089010">
        <ele>369.6</ele>
        <time>2021-03-03T10:53:14Z</time>
      </trkpt>
      <trkpt lat="42.9263930" lon="-8.4089370">
        <ele>369.6</ele>
        <time>2021-03-03T10:53:15Z</time>
      </trkpt>
      <trkpt lat="42.9264080" lon="-8.4089750">
        <ele>369.2</ele>
        <time>2021-03-03T10:53:16Z</time>
      </trkpt>
      <trkpt lat="42.9264230" lon="-8.4090120">
        <ele>369.2</ele>
        <time>2021-03-03T10:53:17Z</time>
      </trkpt>
      <trkpt lat="42.9264390" lon="-8.4090480">
        <ele>369.2</ele>
        <time>2021-03-03T10:53:18Z</time>
      </trkpt>
      <trkpt lat="42.9264510" lon="-8.4090920">
        <ele>369.0</ele>
        <time>2021-03-03T10:53:19Z</time>
      </trkpt>
      <trkpt lat="42.9264660" lon="-8.4091300">
        <ele>369.0</ele>
        <time>2021-03-03T10:53:20Z</time>
      </trkpt>
      <trkpt lat="42.9264830" lon="-8.4091680">
        <ele>368.8</ele>
        <time>2021-03-03T10:53:21Z</time>
      </trkpt>
      <trkpt lat="42.9265030" lon="-8.4092060">
        <ele>368.6</ele>
        <time>2021-03-03T10:53:22Z</time>
      </trkpt>
      <trkpt lat="42.9265200" lon="-8.4092440">
        <ele>368.6</ele>
        <time>2021-03-03T10:53:23Z</time>
      </trkpt>
      <trkpt lat="42.9265360" lon="-8.4092840">
        <ele>368.6</ele>
        <time>2021-03-03T10:53:24Z</time>
      </trkpt>
      <trkpt lat="42.9265520" lon="-8.4093230">
        <ele>368.4</ele>
        <time>2021-03-03T10:53:25Z</time>
      </trkpt>
      <trkpt lat="42.9265680" lon="-8.4093550">
        <ele>368.2</ele>
        <time>2021-03-03T10:53:26Z</time>
      </trkpt>
      <trkpt lat="42.9265820" lon="-8.4093920">
        <ele>368.0</ele>
        <time>2021-03-03T10:53:27Z</time>
      </trkpt>
      <trkpt lat="42.9266000" lon="-8.4094260">
        <ele>367.8</ele>
        <time>2021-03-03T10:53:28Z</time>
      </trkpt>
      <trkpt lat="42.9266150" lon="-8.4094600">
        <ele>367.6</ele>
        <time>2021-03-03T10:53:29Z</time>
      </trkpt>
      <trkpt lat="42.9266320" lon="-8.4094910">
        <ele>367.6</ele>
        <time>2021-03-03T10:53:30Z</time>
      </trkpt>
      <trkpt lat="42.9266460" lon="-8.4095240">
        <ele>367.4</ele>
        <time>2021-03-03T10:53:31Z</time>
      </trkpt>
      <trkpt lat="42.9266570" lon="-8.4095560">
        <ele>367.2</ele>
        <time>2021-03-03T10:53:32Z</time>
      </trkpt>
      <trkpt lat="42.9266720" lon="-8.4095890">
        <ele>367.0</ele>
        <time>2021-03-03T10:53:33Z</time>
      </trkpt>
      <trkpt lat="42.9266880" lon="-8.4096240">
        <ele>366.6</ele>
        <time>2021-03-03T10:53:34Z</time>
      </trkpt>
      <trkpt lat="42.9267020" lon="-8.4096600">
        <ele>366.6</ele>
        <time>2021-03-03T10:53:35Z</time>
      </trkpt>
      <trkpt lat="42.9267170" lon="-8.4096950">
        <ele>366.4</ele>
        <time>2021-03-03T10:53:36Z</time>
      </trkpt>
      <trkpt lat="42.9267330" lon="-8.4097280">
        <ele>366.2</ele>
        <time>2021-03-03T10:53:37Z</time>
      </trkpt>
      <trkpt lat="42.9267500" lon="-8.4097650">
        <ele>365.8</ele>
        <time>2021-03-03T10:53:38Z</time>
      </trkpt>
      <trkpt lat="42.9267690" lon="-8.4098070">
        <ele>365.6</ele>
        <time>2021-03-03T10:53:39Z</time>
      </trkpt>
      <trkpt lat="42.9267880" lon="-8.4098460">
        <ele>365.4</ele>
        <time>2021-03-03T10:53:40Z</time>
      </trkpt>
      <trkpt lat="42.9268030" lon="-8.4098820">
        <ele>365.2</ele>
        <time>2021-03-03T10:53:41Z</time>
      </trkpt>
      <trkpt lat="42.9268190" lon="-8.4099200">
        <ele>365.0</ele>
        <time>2021-03-03T10:53:42Z</time>
      </trkpt>
      <trkpt lat="42.9268370" lon="-8.4099550">
        <ele>364.6</ele>
        <time>2021-03-03T10:53:43Z</time>
      </trkpt>
      <trkpt lat="42.9268530" lon="-8.4099880">
        <ele>364.4</ele>
        <time>2021-03-03T10:53:44Z</time>
      </trkpt>
      <trkpt lat="42.9268660" lon="-8.4100250">
        <ele>364.2</ele>
        <time>2021-03-03T10:53:45Z</time>
      </trkpt>
      <trkpt lat="42.9268800" lon="-8.4100600">
        <ele>363.8</ele>
        <time>2021-03-03T10:53:46Z</time>
      </trkpt>
      <trkpt lat="42.9268920" lon="-8.4100960">
        <ele>363.4</ele>
        <time>2021-03-03T10:53:47Z</time>
      </trkpt>
      <trkpt lat="42.9269070" lon="-8.4101320">
        <ele>363.4</ele>
        <time>2021-03-03T10:53:48Z</time>
      </trkpt>
      <trkpt lat="42.9269230" lon="-8.4101690">
        <ele>362.8</ele>
        <time>2021-03-03T10:53:49Z</time>
      </trkpt>
      <trkpt lat="42.9269370" lon="-8.4102090">
        <ele>362.4</ele>
        <time>2021-03-03T10:53:50Z</time>
      </trkpt>
      <trkpt lat="42.9269520" lon="-8.4102450">
        <ele>362.2</ele>
        <time>2021-03-03T10:53:51Z</time>
      </trkpt>
      <trkpt lat="42.9269660" lon="-8.4102860">
        <ele>361.6</ele>
        <time>2021-03-03T10:53:52Z</time>
      </trkpt>
      <trkpt lat="42.9269810" lon="-8.4103230">
        <ele>361.2</ele>
        <time>2021-03-03T10:53:53Z</time>
      </trkpt>
      <trkpt lat="42.9269980" lon="-8.4103610">
        <ele>361.0</ele>
        <time>2021-03-03T10:53:54Z</time>
      </trkpt>
      <trkpt lat="42.9270130" lon="-8.4104010">
        <ele>360.6</ele>
        <time>2021-03-03T10:53:55Z</time>
      </trkpt>
      <trkpt lat="42.9270290" lon="-8.4104390">
        <ele>360.2</ele>
        <time>2021-03-03T10:53:56Z</time>
      </trkpt>
      <trkpt lat="42.9270450" lon="-8.4104780">
        <ele>360.0</ele>
        <time>2021-03-03T10:53:57Z</time>
      </trkpt>
      <trkpt lat="42.9270590" lon="-8.4105160">
        <ele>359.4</ele>
        <time>2021-03-03T10:53:58Z</time>
      </trkpt>
      <trkpt lat="42.9270740" lon="-8.4105550">
        <ele>358.8</ele>
        <time>2021-03-03T10:53:59Z</time>
      </trkpt>
      <trkpt lat="42.9270900" lon="-8.4105970">
        <ele>358.6</ele>
        <time>2021-03-03T10:54:00Z</time>
      </trkpt>
      <trkpt lat="42.9271060" lon="-8.4106400">
        <ele>358.4</ele>
        <time>2021-03-03T10:54:01Z</time>
      </trkpt>
      <trkpt lat="42.9271220" lon="-8.4106820">
        <ele>357.8</ele>
        <time>2021-03-03T10:54:02Z</time>
      </trkpt>
      <trkpt lat="42.9271390" lon="-8.4107230">
        <ele>357.4</ele>
        <time>2021-03-03T10:54:03Z</time>
      </trkpt>
      <trkpt lat="42.9271580" lon="-8.4107620">
        <ele>357.2</ele>
        <time>2021-03-03T10:54:04Z</time>
      </trkpt>
      <trkpt lat="42.9271760" lon="-8.4108000">
        <ele>356.8</ele>
        <time>2021-03-03T10:54:05Z</time>
      </trkpt>
      <trkpt lat="42.9271950" lon="-8.4108370">
        <ele>356.4</ele>
        <time>2021-03-03T10:54:06Z</time>
      </trkpt>
      <trkpt lat="42.9272110" lon="-8.4108730">
        <ele>356.0</ele>
        <time>2021-03-03T10:54:07Z</time>
      </trkpt>
      <trkpt lat="42.9272250" lon="-8.4109070">
        <ele>355.6</ele>
        <time>2021-03-03T10:54:08Z</time>
      </trkpt>
      <trkpt lat="42.9272360" lon="-8.4109450">
        <ele>355.2</ele>
        <time>2021-03-03T10:54:09Z</time>
      </trkpt>
      <trkpt lat="42.9272500" lon="-8.4109810">
        <ele>355.0</ele>
        <time>2021-03-03T10:54:10Z</time>
      </trkpt>
      <trkpt lat="42.9272640" lon="-8.4110140">
        <ele>354.8</ele>
        <time>2021-03-03T10:54:11Z</time>
      </trkpt>
      <trkpt lat="42.9272810" lon="-8.4110480">
        <ele>354.6</ele>
        <time>2021-03-03T10:54:12Z</time>
      </trkpt>
      <trkpt lat="42.9272960" lon="-8.4110820">
        <ele>354.6</ele>
        <time>2021-03-03T10:54:13Z</time>
      </trkpt>
      <trkpt lat="42.9273080" lon="-8.4111180">
        <ele>354.6</ele>
        <time>2021-03-03T10:54:14Z</time>
      </trkpt>
      <trkpt lat="42.9273240" lon="-8.4111590">
        <ele>354.4</ele>
        <time>2021-03-03T10:54:15Z</time>
      </trkpt>
      <trkpt lat="42.9273380" lon="-8.4111960">
        <ele>354.2</ele>
        <time>2021-03-03T10:54:16Z</time>
      </trkpt>
      <trkpt lat="42.9273540" lon="-8.4112320">
        <ele>354.2</ele>
        <time>2021-03-03T10:54:17Z</time>
      </trkpt>
      <trkpt lat="42.9273720" lon="-8.4112650">
        <ele>354.2</ele>
        <time>2021-03-03T10:54:18Z</time>
      </trkpt>
      <trkpt lat="42.9273870" lon="-8.4112980">
        <ele>354.0</ele>
        <time>2021-03-03T10:54:19Z</time>
      </trkpt>
      <trkpt lat="42.9274040" lon="-8.4113340">
        <ele>354.2</ele>
        <time>2021-03-03T10:54:20Z</time>
      </trkpt>
      <trkpt lat="42.9274190" lon="-8.4113700">
        <ele>354.0</ele>
        <time>2021-03-03T10:54:21Z</time>
      </trkpt>
      <trkpt lat="42.9274310" lon="-8.4114060">
        <ele>354.2</ele>
        <time>2021-03-03T10:54:22Z</time>
      </trkpt>
      <trkpt lat="42.9274410" lon="-8.4114460">
        <ele>354.4</ele>
        <time>2021-03-03T10:54:23Z</time>
      </trkpt>
      <trkpt lat="42.9274570" lon="-8.4114870">
        <ele>354.4</ele>
        <time>2021-03-03T10:54:24Z</time>
      </trkpt>
      <trkpt lat="42.9274740" lon="-8.4115220">
        <ele>354.4</ele>
        <time>2021-03-03T10:54:25Z</time>
      </trkpt>
      <trkpt lat="42.9274900" lon="-8.4115550">
        <ele>354.6</ele>
        <time>2021-03-03T10:54:26Z</time>
      </trkpt>
      <trkpt lat="42.9275060" lon="-8.4115890">
        <ele>354.6</ele>
        <time>2021-03-03T10:54:27Z</time>
      </trkpt>
      <trkpt lat="42.9275240" lon="-8.4116230">
        <ele>354.6</ele>
        <time>2021-03-03T10:54:28Z</time>
      </trkpt>
      <trkpt lat="42.9275420" lon="-8.4116570">
        <ele>354.6</ele>
        <time>2021-03-03T10:54:29Z</time>
      </trkpt>
      <trkpt lat="42.9275600" lon="-8.4116920">
        <ele>354.6</ele>
        <time>2021-03-03T10:54:30Z</time>
      </trkpt>
      <trkpt lat="42.9275750" lon="-8.4117270">
        <ele>354.6</ele>
        <time>2021-03-03T10:54:31Z</time>
      </trkpt>
      <trkpt lat="42.9275940" lon="-8.4117630">
        <ele>354.6</ele>
        <time>2021-03-03T10:54:32Z</time>
      </trkpt>
      <trkpt lat="42.9276090" lon="-8.4117940">
        <ele>354.6</ele>
        <time>2021-03-03T10:54:33Z</time>
      </trkpt>
      <trkpt lat="42.9276250" lon="-8.4118250">
        <ele>354.6</ele>
        <time>2021-03-03T10:54:34Z</time>
      </trkpt>
      <trkpt lat="42.9276410" lon="-8.4118590">
        <ele>354.6</ele>
        <time>2021-03-03T10:54:35Z</time>
      </trkpt>
      <trkpt lat="42.9276570" lon="-8.4118940">
        <ele>354.6</ele>
        <time>2021-03-03T10:54:36Z</time>
      </trkpt>
      <trkpt lat="42.9276720" lon="-8.4119290">
        <ele>354.6</ele>
        <time>2021-03-03T10:54:37Z</time>
      </trkpt>
      <trkpt lat="42.9276880" lon="-8.4119710">
        <ele>354.6</ele>
        <time>2021-03-03T10:54:38Z</time>
      </trkpt>
      <trkpt lat="42.9277020" lon="-8.4120090">
        <ele>354.6</ele>
        <time>2021-03-03T10:54:39Z</time>
      </trkpt>
      <trkpt lat="42.9277160" lon="-8.4120490">
        <ele>354.6</ele>
        <time>2021-03-03T10:54:40Z</time>
      </trkpt>
      <trkpt lat="42.9277320" lon="-8.4120900">
        <ele>354.4</ele>
        <time>2021-03-03T10:54:41Z</time>
      </trkpt>
      <trkpt lat="42.9277470" lon="-8.4121310">
        <ele>354.4</ele>
        <time>2021-03-03T10:54:42Z</time>
      </trkpt>
      <trkpt lat="42.9277620" lon="-8.4121740">
        <ele>354.4</ele>
        <time>2021-03-03T10:54:43Z</time>
      </trkpt>
      <trkpt lat="42.9277750" lon="-8.4122150">
        <ele>354.2</ele>
        <time>2021-03-03T10:54:44Z</time>
      </trkpt>
      <trkpt lat="42.9277900" lon="-8.4122550">
        <ele>354.2</ele>
        <time>2021-03-03T10:54:45Z</time>
      </trkpt>
      <trkpt lat="42.9278080" lon="-8.4122960">
        <ele>354.0</ele>
        <time>2021-03-03T10:54:46Z</time>
      </trkpt>
      <trkpt lat="42.9278240" lon="-8.4123380">
        <ele>353.8</ele>
        <time>2021-03-03T10:54:47Z</time>
      </trkpt>
      <trkpt lat="42.9278390" lon="-8.4123790">
        <ele>353.6</ele>
        <time>2021-03-03T10:54:48Z</time>
      </trkpt>
      <trkpt lat="42.9278570" lon="-8.4124170">
        <ele>353.6</ele>
        <time>2021-03-03T10:54:49Z</time>
      </trkpt>
      <trkpt lat="42.9278740" lon="-8.4124540">
        <ele>353.4</ele>
        <time>2021-03-03T10:54:50Z</time>
      </trkpt>
      <trkpt lat="42.9278870" lon="-8.4124930">
        <ele>353.2</ele>
        <time>2021-03-03T10:54:51Z</time>
      </trkpt>
      <trkpt lat="42.9279020" lon="-8.4125310">
        <ele>353.0</ele>
        <time>2021-03-03T10:54:52Z</time>
      </trkpt>
      <trkpt lat="42.9279180" lon="-8.4125710">
        <ele>352.6</ele>
        <time>2021-03-03T10:54:53Z</time>
      </trkpt>
      <trkpt lat="42.9279310" lon="-8.4126140">
        <ele>352.4</ele>
        <time>2021-03-03T10:54:54Z</time>
      </trkpt>
      <trkpt lat="42.9279420" lon="-8.4126560">
        <ele>352.4</ele>
        <time>2021-03-03T10:54:55Z</time>
      </trkpt>
      <trkpt lat="42.9279530" lon="-8.4126980">
        <ele>352.2</ele>
        <time>2021-03-03T10:54:56Z</time>
      </trkpt>
      <trkpt lat="42.9279530" lon="-8.4126980">
        <ele>352.2</ele>
        <time>2021-03-03T10:54:57Z</time>
      </trkpt>
      <trkpt lat="42.9279700" lon="-8.4127760">
        <ele>352.0</ele>
        <time>2021-03-03T10:54:58Z</time>
      </trkpt>
      <trkpt lat="42.9279810" lon="-8.4128280">
        <ele>352.0</ele>
        <time>2021-03-03T10:54:59Z</time>
      </trkpt>
      <trkpt lat="42.9279860" lon="-8.4128690">
        <ele>352.0</ele>
        <time>2021-03-03T10:55:00Z</time>
      </trkpt>
      <trkpt lat="42.9279880" lon="-8.4129090">
        <ele>352.0</ele>
        <time>2021-03-03T10:55:01Z</time>
      </trkpt>
      <trkpt lat="42.9279920" lon="-8.4129510">
        <ele>352.0</ele>
        <time>2021-03-03T10:55:02Z</time>
      </trkpt>
      <trkpt lat="42.9279930" lon="-8.4130000">
        <ele>351.8</ele>
        <time>2021-03-03T10:55:03Z</time>
      </trkpt>
      <trkpt lat="42.9279950" lon="-8.4130480">
        <ele>351.8</ele>
        <time>2021-03-03T10:55:04Z</time>
      </trkpt>
      <trkpt lat="42.9280010" lon="-8.4130950">
        <ele>351.8</ele>
        <time>2021-03-03T10:55:05Z</time>
      </trkpt>
      <trkpt lat="42.9280110" lon="-8.4131400">
        <ele>351.6</ele>
        <time>2021-03-03T10:55:06Z</time>
      </trkpt>
      <trkpt lat="42.9280190" lon="-8.4131820">
        <ele>351.4</ele>
        <time>2021-03-03T10:55:07Z</time>
      </trkpt>
      <trkpt lat="42.9280230" lon="-8.4132260">
        <ele>351.4</ele>
        <time>2021-03-03T10:55:08Z</time>
      </trkpt>
      <trkpt lat="42.9280230" lon="-8.4132700">
        <ele>351.2</ele>
        <time>2021-03-03T10:55:09Z</time>
      </trkpt>
      <trkpt lat="42.9280230" lon="-8.4133140">
        <ele>351.2</ele>
        <time>2021-03-03T10:55:10Z</time>
      </trkpt>
      <trkpt lat="42.9280220" lon="-8.4133580">
        <ele>351.2</ele>
        <time>2021-03-03T10:55:11Z</time>
      </trkpt>
      <trkpt lat="42.9280240" lon="-8.4133930">
        <ele>351.0</ele>
        <time>2021-03-03T10:55:12Z</time>
      </trkpt>
      <trkpt lat="42.9280260" lon="-8.4134490">
        <ele>351.0</ele>
        <time>2021-03-03T10:55:13Z</time>
      </trkpt>
      <trkpt lat="42.9280290" lon="-8.4134970">
        <ele>351.0</ele>
        <time>2021-03-03T10:55:14Z</time>
      </trkpt>
      <trkpt lat="42.9280300" lon="-8.4135410">
        <ele>350.8</ele>
        <time>2021-03-03T10:55:15Z</time>
      </trkpt>
      <trkpt lat="42.9280320" lon="-8.4135870">
        <ele>350.6</ele>
        <time>2021-03-03T10:55:16Z</time>
      </trkpt>
      <trkpt lat="42.9280340" lon="-8.4136320">
        <ele>350.6</ele>
        <time>2021-03-03T10:55:17Z</time>
      </trkpt>
      <trkpt lat="42.9280360" lon="-8.4136750">
        <ele>350.4</ele>
        <time>2021-03-03T10:55:18Z</time>
      </trkpt>
      <trkpt lat="42.9280420" lon="-8.4137160">
        <ele>350.2</ele>
        <time>2021-03-03T10:55:19Z</time>
      </trkpt>
      <trkpt lat="42.9280420" lon="-8.4137570">
        <ele>350.2</ele>
        <time>2021-03-03T10:55:20Z</time>
      </trkpt>
      <trkpt lat="42.9280440" lon="-8.4137980">
        <ele>349.8</ele>
        <time>2021-03-03T10:55:21Z</time>
      </trkpt>
      <trkpt lat="42.9280450" lon="-8.4138420">
        <ele>349.6</ele>
        <time>2021-03-03T10:55:22Z</time>
      </trkpt>
      <trkpt lat="42.9280460" lon="-8.4138880">
        <ele>349.6</ele>
        <time>2021-03-03T10:55:23Z</time>
      </trkpt>
      <trkpt lat="42.9280470" lon="-8.4139310">
        <ele>349.4</ele>
        <time>2021-03-03T10:55:24Z</time>
      </trkpt>
      <trkpt lat="42.9280470" lon="-8.4139770">
        <ele>349.2</ele>
        <time>2021-03-03T10:55:25Z</time>
      </trkpt>
      <trkpt lat="42.9280460" lon="-8.4140200">
        <ele>349.0</ele>
        <time>2021-03-03T10:55:26Z</time>
      </trkpt>
      <trkpt lat="42.9280460" lon="-8.4140600">
        <ele>349.0</ele>
        <time>2021-03-03T10:55:27Z</time>
      </trkpt>
      <trkpt lat="42.9280450" lon="-8.4141040">
        <ele>348.8</ele>
        <time>2021-03-03T10:55:28Z</time>
      </trkpt>
      <trkpt lat="42.9280420" lon="-8.4141480">
        <ele>348.6</ele>
        <time>2021-03-03T10:55:29Z</time>
      </trkpt>
      <trkpt lat="42.9280400" lon="-8.4141920">
        <ele>348.4</ele>
        <time>2021-03-03T10:55:30Z</time>
      </trkpt>
      <trkpt lat="42.9280400" lon="-8.4142390">
        <ele>348.0</ele>
        <time>2021-03-03T10:55:31Z</time>
      </trkpt>
      <trkpt lat="42.9280370" lon="-8.4142830">
        <ele>347.8</ele>
        <time>2021-03-03T10:55:32Z</time>
      </trkpt>
      <trkpt lat="42.9280370" lon="-8.4143230">
        <ele>347.8</ele>
        <time>2021-03-03T10:55:33Z</time>
      </trkpt>
      <trkpt lat="42.9280380" lon="-8.4143660">
        <ele>347.6</ele>
        <time>2021-03-03T10:55:34Z</time>
      </trkpt>
      <trkpt lat="42.9280360" lon="-8.4144080">
        <ele>347.2</ele>
        <time>2021-03-03T10:55:35Z</time>
      </trkpt>
      <trkpt lat="42.9280340" lon="-8.4144530">
        <ele>346.8</ele>
        <time>2021-03-03T10:55:36Z</time>
      </trkpt>
      <trkpt lat="42.9280330" lon="-8.4144980">
        <ele>346.4</ele>
        <time>2021-03-03T10:55:37Z</time>
      </trkpt>
      <trkpt lat="42.9280340" lon="-8.4145430">
        <ele>346.0</ele>
        <time>2021-03-03T10:55:38Z</time>
      </trkpt>
      <trkpt lat="42.9280350" lon="-8.4145860">
        <ele>345.8</ele>
        <time>2021-03-03T10:55:39Z</time>
      </trkpt>
      <trkpt lat="42.9280290" lon="-8.4146340">
        <ele>345.4</ele>
        <time>2021-03-03T10:55:40Z</time>
      </trkpt>
      <trkpt lat="42.9280250" lon="-8.4146800">
        <ele>345.0</ele>
        <time>2021-03-03T10:55:41Z</time>
      </trkpt>
      <trkpt lat="42.9280250" lon="-8.4147270">
        <ele>344.6</ele>
        <time>2021-03-03T10:55:42Z</time>
      </trkpt>
      <trkpt lat="42.9280210" lon="-8.4147760">
        <ele>344.4</ele>
        <time>2021-03-03T10:55:43Z</time>
      </trkpt>
      <trkpt lat="42.9280180" lon="-8.4148210">
        <ele>344.2</ele>
        <time>2021-03-03T10:55:44Z</time>
      </trkpt>
      <trkpt lat="42.9280170" lon="-8.4148660">
        <ele>344.0</ele>
        <time>2021-03-03T10:55:45Z</time>
      </trkpt>
      <trkpt lat="42.9280130" lon="-8.4149120">
        <ele>343.8</ele>
        <time>2021-03-03T10:55:46Z</time>
      </trkpt>
      <trkpt lat="42.9280160" lon="-8.4149540">
        <ele>343.4</ele>
        <time>2021-03-03T10:55:47Z</time>
      </trkpt>
      <trkpt lat="42.9280210" lon="-8.4149980">
        <ele>343.2</ele>
        <time>2021-03-03T10:55:48Z</time>
      </trkpt>
      <trkpt lat="42.9280320" lon="-8.4150380">
        <ele>343.0</ele>
        <time>2021-03-03T10:55:49Z</time>
      </trkpt>
      <trkpt lat="42.9280480" lon="-8.4150720">
        <ele>343.0</ele>
        <time>2021-03-03T10:55:50Z</time>
      </trkpt>
      <trkpt lat="42.9280660" lon="-8.4151080">
        <ele>343.0</ele>
        <time>2021-03-03T10:55:51Z</time>
      </trkpt>
      <trkpt lat="42.9280860" lon="-8.4151380">
        <ele>343.0</ele>
        <time>2021-03-03T10:55:52Z</time>
      </trkpt>
      <trkpt lat="42.9281030" lon="-8.4151720">
        <ele>342.8</ele>
        <time>2021-03-03T10:55:53Z</time>
      </trkpt>
      <trkpt lat="42.9281140" lon="-8.4152060">
        <ele>342.8</ele>
        <time>2021-03-03T10:55:54Z</time>
      </trkpt>
      <trkpt lat="42.9281250" lon="-8.4152340">
        <ele>342.8</ele>
        <time>2021-03-03T10:55:55Z</time>
      </trkpt>
      <trkpt lat="42.9281390" lon="-8.4152710">
        <ele>343.0</ele>
        <time>2021-03-03T10:55:56Z</time>
      </trkpt>
      <trkpt lat="42.9281550" lon="-8.4153010">
        <ele>343.0</ele>
        <time>2021-03-03T10:55:57Z</time>
      </trkpt>
      <trkpt lat="42.9281700" lon="-8.4153290">
        <ele>343.0</ele>
        <time>2021-03-03T10:55:58Z</time>
      </trkpt>
      <trkpt lat="42.9281870" lon="-8.4153520">
        <ele>343.2</ele>
        <time>2021-03-03T10:55:59Z</time>
      </trkpt>
      <trkpt lat="42.9282060" lon="-8.4153800">
        <ele>343.4</ele>
        <time>2021-03-03T10:56:00Z</time>
      </trkpt>
      <trkpt lat="42.9282210" lon="-8.4154150">
        <ele>343.6</ele>
        <time>2021-03-03T10:56:01Z</time>
      </trkpt>
      <trkpt lat="42.9282390" lon="-8.4154380">
        <ele>343.8</ele>
        <time>2021-03-03T10:56:02Z</time>
      </trkpt>
      <trkpt lat="42.9282590" lon="-8.4154580">
        <ele>344.0</ele>
        <time>2021-03-03T10:56:03Z</time>
      </trkpt>
      <trkpt lat="42.9282790" lon="-8.4154740">
        <ele>344.0</ele>
        <time>2021-03-03T10:56:04Z</time>
      </trkpt>
      <trkpt lat="42.9283030" lon="-8.4154950">
        <ele>344.0</ele>
        <time>2021-03-03T10:56:05Z</time>
      </trkpt>
      <trkpt lat="42.9283200" lon="-8.4155190">
        <ele>344.0</ele>
        <time>2021-03-03T10:56:06Z</time>
      </trkpt>
      <trkpt lat="42.9283410" lon="-8.4155380">
        <ele>344.2</ele>
        <time>2021-03-03T10:56:07Z</time>
      </trkpt>
      <trkpt lat="42.9283620" lon="-8.4155600">
        <ele>344.2</ele>
        <time>2021-03-03T10:56:08Z</time>
      </trkpt>
      <trkpt lat="42.9283830" lon="-8.4155810">
        <ele>344.4</ele>
        <time>2021-03-03T10:56:09Z</time>
      </trkpt>
      <trkpt lat="42.9284070" lon="-8.4156010">
        <ele>344.4</ele>
        <time>2021-03-03T10:56:10Z</time>
      </trkpt>
      <trkpt lat="42.9284270" lon="-8.4156210">
        <ele>344.6</ele>
        <time>2021-03-03T10:56:11Z</time>
      </trkpt>
      <trkpt lat="42.9284540" lon="-8.4156420">
        <ele>344.6</ele>
        <time>2021-03-03T10:56:12Z</time>
      </trkpt>
      <trkpt lat="42.9284800" lon="-8.4156600">
        <ele>344.6</ele>
        <time>2021-03-03T10:56:13Z</time>
      </trkpt>
      <trkpt lat="42.9285010" lon="-8.4156800">
        <ele>344.8</ele>
        <time>2021-03-03T10:56:14Z</time>
      </trkpt>
      <trkpt lat="42.9285260" lon="-8.4156960">
        <ele>344.8</ele>
        <time>2021-03-03T10:56:15Z</time>
      </trkpt>
      <trkpt lat="42.9285490" lon="-8.4157130">
        <ele>345.0</ele>
        <time>2021-03-03T10:56:16Z</time>
      </trkpt>
      <trkpt lat="42.9285710" lon="-8.4157330">
        <ele>345.2</ele>
        <time>2021-03-03T10:56:17Z</time>
      </trkpt>
      <trkpt lat="42.9285930" lon="-8.4157490">
        <ele>345.4</ele>
        <time>2021-03-03T10:56:18Z</time>
      </trkpt>
      <trkpt lat="42.9286140" lon="-8.4157660">
        <ele>345.4</ele>
        <time>2021-03-03T10:56:19Z</time>
      </trkpt>
      <trkpt lat="42.9286310" lon="-8.4157850">
        <ele>345.6</ele>
        <time>2021-03-03T10:56:20Z</time>
      </trkpt>
      <trkpt lat="42.9286480" lon="-8.4158060">
        <ele>345.6</ele>
        <time>2021-03-03T10:56:21Z</time>
      </trkpt>
      <trkpt lat="42.9286690" lon="-8.4158250">
        <ele>345.8</ele>
        <time>2021-03-03T10:56:22Z</time>
      </trkpt>
      <trkpt lat="42.9286890" lon="-8.4158450">
        <ele>345.8</ele>
        <time>2021-03-03T10:56:23Z</time>
      </trkpt>
      <trkpt lat="42.9287080" lon="-8.4158600">
        <ele>346.0</ele>
        <time>2021-03-03T10:56:24Z</time>
      </trkpt>
      <trkpt lat="42.9287280" lon="-8.4158780">
        <ele>346.2</ele>
        <time>2021-03-03T10:56:25Z</time>
      </trkpt>
      <trkpt lat="42.9287460" lon="-8.4158940">
        <ele>346.2</ele>
        <time>2021-03-03T10:56:26Z</time>
      </trkpt>
      <trkpt lat="42.9287660" lon="-8.4159100">
        <ele>346.2</ele>
        <time>2021-03-03T10:56:27Z</time>
      </trkpt>
      <trkpt lat="42.9287910" lon="-8.4159280">
        <ele>346.4</ele>
        <time>2021-03-03T10:56:28Z</time>
      </trkpt>
      <trkpt lat="42.9288140" lon="-8.4159440">
        <ele>346.6</ele>
        <time>2021-03-03T10:56:29Z</time>
      </trkpt>
      <trkpt lat="42.9288420" lon="-8.4159590">
        <ele>346.6</ele>
        <time>2021-03-03T10:56:30Z</time>
      </trkpt>
      <trkpt lat="42.9288720" lon="-8.4159740">
        <ele>346.6</ele>
        <time>2021-03-03T10:56:31Z</time>
      </trkpt>
      <trkpt lat="42.9288970" lon="-8.4159930">
        <ele>346.6</ele>
        <time>2021-03-03T10:56:32Z</time>
      </trkpt>
      <trkpt lat="42.9289230" lon="-8.4160090">
        <ele>346.8</ele>
        <time>2021-03-03T10:56:33Z</time>
      </trkpt>
      <trkpt lat="42.9289490" lon="-8.4160230">
        <ele>346.8</ele>
        <time>2021-03-03T10:56:34Z</time>
      </trkpt>
      <trkpt lat="42.9289740" lon="-8.4160440">
        <ele>347.0</ele>
        <time>2021-03-03T10:56:35Z</time>
      </trkpt>
      <trkpt lat="42.9290000" lon="-8.4160620">
        <ele>347.0</ele>
        <time>2021-03-03T10:56:36Z</time>
      </trkpt>
      <trkpt lat="42.9290260" lon="-8.4160810">
        <ele>347.2</ele>
        <time>2021-03-03T10:56:37Z</time>
      </trkpt>
      <trkpt lat="42.9290520" lon="-8.4160980">
        <ele>347.2</ele>
        <time>2021-03-03T10:56:38Z</time>
      </trkpt>
      <trkpt lat="42.9290770" lon="-8.4161140">
        <ele>347.2</ele>
        <time>2021-03-03T10:56:39Z</time>
      </trkpt>
      <trkpt lat="42.9291020" lon="-8.4161330">
        <ele>347.4</ele>
        <time>2021-03-03T10:56:40Z</time>
      </trkpt>
      <trkpt lat="42.9291280" lon="-8.4161520">
        <ele>347.4</ele>
        <time>2021-03-03T10:56:41Z</time>
      </trkpt>
      <trkpt lat="42.9291550" lon="-8.4161740">
        <ele>347.4</ele>
        <time>2021-03-03T10:56:42Z</time>
      </trkpt>
      <trkpt lat="42.9291820" lon="-8.4161940">
        <ele>347.4</ele>
        <time>2021-03-03T10:56:43Z</time>
      </trkpt>
      <trkpt lat="42.9292080" lon="-8.4162140">
        <ele>347.4</ele>
        <time>2021-03-03T10:56:44Z</time>
      </trkpt>
      <trkpt lat="42.9292340" lon="-8.4162340">
        <ele>347.4</ele>
        <time>2021-03-03T10:56:45Z</time>
      </trkpt>
      <trkpt lat="42.9292570" lon="-8.4162500">
        <ele>347.4</ele>
        <time>2021-03-03T10:56:46Z</time>
      </trkpt>
      <trkpt lat="42.9292900" lon="-8.4162680">
        <ele>347.4</ele>
        <time>2021-03-03T10:56:47Z</time>
      </trkpt>
      <trkpt lat="42.9293160" lon="-8.4162870">
        <ele>347.4</ele>
        <time>2021-03-03T10:56:48Z</time>
      </trkpt>
      <trkpt lat="42.9293450" lon="-8.4163050">
        <ele>347.2</ele>
        <time>2021-03-03T10:56:49Z</time>
      </trkpt>
      <trkpt lat="42.9293770" lon="-8.4163210">
        <ele>347.2</ele>
        <time>2021-03-03T10:56:50Z</time>
      </trkpt>
      <trkpt lat="42.9294070" lon="-8.4163410">
        <ele>347.0</ele>
        <time>2021-03-03T10:56:51Z</time>
      </trkpt>
      <trkpt lat="42.9294320" lon="-8.4163610">
        <ele>346.8</ele>
        <time>2021-03-03T10:56:52Z</time>
      </trkpt>
      <trkpt lat="42.9294570" lon="-8.4163860">
        <ele>346.8</ele>
        <time>2021-03-03T10:56:53Z</time>
      </trkpt>
      <trkpt lat="42.9294820" lon="-8.4164100">
        <ele>346.6</ele>
        <time>2021-03-03T10:56:54Z</time>
      </trkpt>
      <trkpt lat="42.9295100" lon="-8.4164320">
        <ele>346.4</ele>
        <time>2021-03-03T10:56:55Z</time>
      </trkpt>
      <trkpt lat="42.9295350" lon="-8.4164560">
        <ele>346.2</ele>
        <time>2021-03-03T10:56:56Z</time>
      </trkpt>
      <trkpt lat="42.9295590" lon="-8.4164790">
        <ele>346.0</ele>
        <time>2021-03-03T10:56:57Z</time>
      </trkpt>
      <trkpt lat="42.9295860" lon="-8.4164970">
        <ele>345.8</ele>
        <time>2021-03-03T10:56:58Z</time>
      </trkpt>
      <trkpt lat="42.9296130" lon="-8.4165140">
        <ele>345.6</ele>
        <time>2021-03-03T10:56:59Z</time>
      </trkpt>
      <trkpt lat="42.9296360" lon="-8.4165320">
        <ele>345.4</ele>
        <time>2021-03-03T10:57:00Z</time>
      </trkpt>
      <trkpt lat="42.9296600" lon="-8.4165510">
        <ele>345.4</ele>
        <time>2021-03-03T10:57:01Z</time>
      </trkpt>
      <trkpt lat="42.9296840" lon="-8.4165750">
        <ele>345.0</ele>
        <time>2021-03-03T10:57:02Z</time>
      </trkpt>
      <trkpt lat="42.9297090" lon="-8.4165990">
        <ele>344.6</ele>
        <time>2021-03-03T10:57:03Z</time>
      </trkpt>
      <trkpt lat="42.9297350" lon="-8.4166220">
        <ele>344.6</ele>
        <time>2021-03-03T10:57:04Z</time>
      </trkpt>
      <trkpt lat="42.9297660" lon="-8.4166430">
        <ele>344.4</ele>
        <time>2021-03-03T10:57:05Z</time>
      </trkpt>
      <trkpt lat="42.9297990" lon="-8.4166600">
        <ele>344.0</ele>
        <time>2021-03-03T10:57:06Z</time>
      </trkpt>
      <trkpt lat="42.9298300" lon="-8.4166770">
        <ele>343.6</ele>
        <time>2021-03-03T10:57:07Z</time>
      </trkpt>
      <trkpt lat="42.9298610" lon="-8.4166930">
        <ele>343.2</ele>
        <time>2021-03-03T10:57:08Z</time>
      </trkpt>
      <trkpt lat="42.9298880" lon="-8.4167130">
        <ele>343.0</ele>
        <time>2021-03-03T10:57:09Z</time>
      </trkpt>
      <trkpt lat="42.9299160" lon="-8.4167360">
        <ele>342.8</ele>
        <time>2021-03-03T10:57:10Z</time>
      </trkpt>
      <trkpt lat="42.9299380" lon="-8.4167540">
        <ele>342.4</ele>
        <time>2021-03-03T10:57:11Z</time>
      </trkpt>
      <trkpt lat="42.9299630" lon="-8.4167820">
        <ele>342.0</ele>
        <time>2021-03-03T10:57:12Z</time>
      </trkpt>
      <trkpt lat="42.9299850" lon="-8.4168020">
        <ele>341.8</ele>
        <time>2021-03-03T10:57:13Z</time>
      </trkpt>
      <trkpt lat="42.9300070" lon="-8.4168250">
        <ele>341.2</ele>
        <time>2021-03-03T10:57:14Z</time>
      </trkpt>
      <trkpt lat="42.9300340" lon="-8.4168490">
        <ele>341.0</ele>
        <time>2021-03-03T10:57:15Z</time>
      </trkpt>
      <trkpt lat="42.9300620" lon="-8.4168680">
        <ele>340.8</ele>
        <time>2021-03-03T10:57:16Z</time>
      </trkpt>
      <trkpt lat="42.9300880" lon="-8.4168890">
        <ele>340.2</ele>
        <time>2021-03-03T10:57:17Z</time>
      </trkpt>
      <trkpt lat="42.9301160" lon="-8.4169090">
        <ele>339.6</ele>
        <time>2021-03-03T10:57:18Z</time>
      </trkpt>
      <trkpt lat="42.9301400" lon="-8.4169300">
        <ele>339.2</ele>
        <time>2021-03-03T10:57:19Z</time>
      </trkpt>
      <trkpt lat="42.9301660" lon="-8.4169510">
        <ele>338.8</ele>
        <time>2021-03-03T10:57:20Z</time>
      </trkpt>
      <trkpt lat="42.9301900" lon="-8.4169710">
        <ele>338.4</ele>
        <time>2021-03-03T10:57:21Z</time>
      </trkpt>
      <trkpt lat="42.9302170" lon="-8.4169890">
        <ele>338.0</ele>
        <time>2021-03-03T10:57:22Z</time>
      </trkpt>
      <trkpt lat="42.9302460" lon="-8.4170060">
        <ele>337.6</ele>
        <time>2021-03-03T10:57:23Z</time>
      </trkpt>
      <trkpt lat="42.9302760" lon="-8.4170270">
        <ele>337.4</ele>
        <time>2021-03-03T10:57:24Z</time>
      </trkpt>
      <trkpt lat="42.9303040" lon="-8.4170440">
        <ele>336.8</ele>
        <time>2021-03-03T10:57:25Z</time>
      </trkpt>
      <trkpt lat="42.9303400" lon="-8.4170660">
        <ele>336.2</ele>
        <time>2021-03-03T10:57:26Z</time>
      </trkpt>
      <trkpt lat="42.9303770" lon="-8.4170850">
        <ele>335.8</ele>
        <time>2021-03-03T10:57:27Z</time>
      </trkpt>
      <trkpt lat="42.9304140" lon="-8.4170970">
        <ele>335.6</ele>
        <time>2021-03-03T10:57:28Z</time>
      </trkpt>
      <trkpt lat="42.9304480" lon="-8.4171100">
        <ele>335.2</ele>
        <time>2021-03-03T10:57:29Z</time>
      </trkpt>
      <trkpt lat="42.9304740" lon="-8.4171220">
        <ele>335.0</ele>
        <time>2021-03-03T10:57:30Z</time>
      </trkpt>
      <trkpt lat="42.9305120" lon="-8.4171400">
        <ele>334.8</ele>
        <time>2021-03-03T10:57:31Z</time>
      </trkpt>
      <trkpt lat="42.9305430" lon="-8.4171540">
        <ele>334.4</ele>
        <time>2021-03-03T10:57:32Z</time>
      </trkpt>
      <trkpt lat="42.9305740" lon="-8.4171670">
        <ele>334.2</ele>
        <time>2021-03-03T10:57:33Z</time>
      </trkpt>
      <trkpt lat="42.9306030" lon="-8.4171830">
        <ele>334.0</ele>
        <time>2021-03-03T10:57:34Z</time>
      </trkpt>
      <trkpt lat="42.9306340" lon="-8.4171980">
        <ele>333.8</ele>
        <time>2021-03-03T10:57:35Z</time>
      </trkpt>
      <trkpt lat="42.9306650" lon="-8.4172100">
        <ele>333.4</ele>
        <time>2021-03-03T10:57:36Z</time>
      </trkpt>
      <trkpt lat="42.9306970" lon="-8.4172250">
        <ele>333.4</ele>
        <time>2021-03-03T10:57:37Z</time>
      </trkpt>
      <trkpt lat="42.9307280" lon="-8.4172400">
        <ele>333.0</ele>
        <time>2021-03-03T10:57:38Z</time>
      </trkpt>
      <trkpt lat="42.9307590" lon="-8.4172540">
        <ele>332.8</ele>
        <time>2021-03-03T10:57:39Z</time>
      </trkpt>
      <trkpt lat="42.9307920" lon="-8.4172680">
        <ele>332.8</ele>
        <time>2021-03-03T10:57:40Z</time>
      </trkpt>
      <trkpt lat="42.9308220" lon="-8.4172810">
        <ele>332.4</ele>
        <time>2021-03-03T10:57:41Z</time>
      </trkpt>
      <trkpt lat="42.9308540" lon="-8.4172960">
        <ele>332.4</ele>
        <time>2021-03-03T10:57:42Z</time>
      </trkpt>
      <trkpt lat="42.9308850" lon="-8.4173100">
        <ele>332.2</ele>
        <time>2021-03-03T10:57:43Z</time>
      </trkpt>
      <trkpt lat="42.9309150" lon="-8.4173240">
        <ele>332.0</ele>
        <time>2021-03-03T10:57:44Z</time>
      </trkpt>
      <trkpt lat="42.9309480" lon="-8.4173390">
        <ele>332.0</ele>
        <time>2021-03-03T10:57:45Z</time>
      </trkpt>
      <trkpt lat="42.9309790" lon="-8.4173540">
        <ele>332.0</ele>
        <time>2021-03-03T10:57:46Z</time>
      </trkpt>
      <trkpt lat="42.9310090" lon="-8.4173700">
        <ele>331.8</ele>
        <time>2021-03-03T10:57:47Z</time>
      </trkpt>
      <trkpt lat="42.9310390" lon="-8.4173850">
        <ele>331.6</ele>
        <time>2021-03-03T10:57:48Z</time>
      </trkpt>
      <trkpt lat="42.9310690" lon="-8.4174010">
        <ele>331.4</ele>
        <time>2021-03-03T10:57:49Z</time>
      </trkpt>
      <trkpt lat="42.9310980" lon="-8.4174150">
        <ele>331.2</ele>
        <time>2021-03-03T10:57:50Z</time>
      </trkpt>
      <trkpt lat="42.9311300" lon="-8.4174270">
        <ele>331.2</ele>
        <time>2021-03-03T10:57:51Z</time>
      </trkpt>
      <trkpt lat="42.9311610" lon="-8.4174410">
        <ele>331.0</ele>
        <time>2021-03-03T10:57:52Z</time>
      </trkpt>
      <trkpt lat="42.9311890" lon="-8.4174560">
        <ele>331.0</ele>
        <time>2021-03-03T10:57:53Z</time>
      </trkpt>
      <trkpt lat="42.9312180" lon="-8.4174720">
        <ele>331.0</ele>
        <time>2021-03-03T10:57:54Z</time>
      </trkpt>
      <trkpt lat="42.9312480" lon="-8.4174870">
        <ele>330.8</ele>
        <time>2021-03-03T10:57:55Z</time>
      </trkpt>
      <trkpt lat="42.9312780" lon="-8.4175010">
        <ele>330.8</ele>
        <time>2021-03-03T10:57:56Z</time>
      </trkpt>
      <trkpt lat="42.9313100" lon="-8.4175100">
        <ele>330.8</ele>
        <time>2021-03-03T10:57:57Z</time>
      </trkpt>
      <trkpt lat="42.9313390" lon="-8.4175170">
        <ele>330.8</ele>
        <time>2021-03-03T10:57:58Z</time>
      </trkpt>
      <trkpt lat="42.9313720" lon="-8.4175230">
        <ele>330.6</ele>
        <time>2021-03-03T10:57:59Z</time>
      </trkpt>
      <trkpt lat="42.9314040" lon="-8.4175280">
        <ele>330.4</ele>
        <time>2021-03-03T10:58:00Z</time>
      </trkpt>
      <trkpt lat="42.9314360" lon="-8.4175320">
        <ele>330.4</ele>
        <time>2021-03-03T10:58:01Z</time>
      </trkpt>
      <trkpt lat="42.9314670" lon="-8.4175270">
        <ele>330.2</ele>
        <time>2021-03-03T10:58:02Z</time>
      </trkpt>
      <trkpt lat="42.9314990" lon="-8.4175240">
        <ele>330.2</ele>
        <time>2021-03-03T10:58:03Z</time>
      </trkpt>
      <trkpt lat="42.9315300" lon="-8.4175230">
        <ele>330.0</ele>
        <time>2021-03-03T10:58:04Z</time>
      </trkpt>
      <trkpt lat="42.9315650" lon="-8.4175210">
        <ele>329.8</ele>
        <time>2021-03-03T10:58:05Z</time>
      </trkpt>
      <trkpt lat="42.9316000" lon="-8.4175200">
        <ele>329.8</ele>
        <time>2021-03-03T10:58:06Z</time>
      </trkpt>
      <trkpt lat="42.9316300" lon="-8.4175170">
        <ele>329.8</ele>
        <time>2021-03-03T10:58:07Z</time>
      </trkpt>
      <trkpt lat="42.9316550" lon="-8.4175130">
        <ele>329.8</ele>
        <time>2021-03-03T10:58:08Z</time>
      </trkpt>
      <trkpt lat="42.9316760" lon="-8.4175080">
        <ele>329.8</ele>
        <time>2021-03-03T10:58:09Z</time>
      </trkpt>
      <trkpt lat="42.9317010" lon="-8.4174960">
        <ele>329.6</ele>
        <time>2021-03-03T10:58:10Z</time>
      </trkpt>
      <trkpt lat="42.9317230" lon="-8.4174860">
        <ele>329.6</ele>
        <time>2021-03-03T10:58:11Z</time>
      </trkpt>
      <trkpt lat="42.9317410" lon="-8.4174770">
        <ele>329.6</ele>
        <time>2021-03-03T10:58:12Z</time>
      </trkpt>
      <trkpt lat="42.9317670" lon="-8.4174650">
        <ele>329.6</ele>
        <time>2021-03-03T10:58:13Z</time>
      </trkpt>
      <trkpt lat="42.9317900" lon="-8.4174560">
        <ele>329.6</ele>
        <time>2021-03-03T10:58:14Z</time>
      </trkpt>
      <trkpt lat="42.9318120" lon="-8.4174450">
        <ele>329.6</ele>
        <time>2021-03-03T10:58:15Z</time>
      </trkpt>
      <trkpt lat="42.9318390" lon="-8.4174390">
        <ele>329.8</ele>
        <time>2021-03-03T10:58:16Z</time>
      </trkpt>
      <trkpt lat="42.9318640" lon="-8.4174340">
        <ele>329.8</ele>
        <time>2021-03-03T10:58:17Z</time>
      </trkpt>
      <trkpt lat="42.9318880" lon="-8.4174260">
        <ele>330.0</ele>
        <time>2021-03-03T10:58:18Z</time>
      </trkpt>
      <trkpt lat="42.9319210" lon="-8.4174200">
        <ele>330.4</ele>
        <time>2021-03-03T10:58:19Z</time>
      </trkpt>
      <trkpt lat="42.9319470" lon="-8.4174170">
        <ele>330.4</ele>
        <time>2021-03-03T10:58:20Z</time>
      </trkpt>
      <trkpt lat="42.9319690" lon="-8.4174160">
        <ele>330.6</ele>
        <time>2021-03-03T10:58:21Z</time>
      </trkpt>
      <trkpt lat="42.9319900" lon="-8.4174120">
        <ele>330.8</ele>
        <time>2021-03-03T10:58:22Z</time>
      </trkpt>
      <trkpt lat="42.9320110" lon="-8.4174080">
        <ele>330.8</ele>
        <time>2021-03-03T10:58:23Z</time>
      </trkpt>
      <trkpt lat="42.9320270" lon="-8.4174000">
        <ele>331.0</ele>
        <time>2021-03-03T10:58:24Z</time>
      </trkpt>
      <trkpt lat="42.9320380" lon="-8.4173920">
        <ele>331.2</ele>
        <time>2021-03-03T10:58:25Z</time>
      </trkpt>
      <trkpt lat="42.9320520" lon="-8.4173880">
        <ele>331.2</ele>
        <time>2021-03-03T10:58:26Z</time>
      </trkpt>
      <trkpt lat="42.9320680" lon="-8.4173800">
        <ele>331.6</ele>
        <time>2021-03-03T10:58:27Z</time>
      </trkpt>
      <trkpt lat="42.9320850" lon="-8.4173710">
        <ele>331.6</ele>
        <time>2021-03-03T10:58:28Z</time>
      </trkpt>
      <trkpt lat="42.9321030" lon="-8.4173670">
        <ele>332.0</ele>
        <time>2021-03-03T10:58:29Z</time>
      </trkpt>
      <trkpt lat="42.9321210" lon="-8.4173620">
        <ele>332.2</ele>
        <time>2021-03-03T10:58:30Z</time>
      </trkpt>
      <trkpt lat="42.9321390" lon="-8.4173540">
        <ele>332.4</ele>
        <time>2021-03-03T10:58:31Z</time>
      </trkpt>
      <trkpt lat="42.9321600" lon="-8.4173440">
        <ele>332.6</ele>
        <time>2021-03-03T10:58:32Z</time>
      </trkpt>
      <trkpt lat="42.9321740" lon="-8.4173360">
        <ele>332.8</ele>
        <time>2021-03-03T10:58:33Z</time>
      </trkpt>
      <trkpt lat="42.9321940" lon="-8.4173300">
        <ele>333.0</ele>
        <time>2021-03-03T10:58:34Z</time>
      </trkpt>
      <trkpt lat="42.9322100" lon="-8.4173260">
        <ele>333.2</ele>
        <time>2021-03-03T10:58:35Z</time>
      </trkpt>
      <trkpt lat="42.9322270" lon="-8.4173230">
        <ele>333.4</ele>
        <time>2021-03-03T10:58:36Z</time>
      </trkpt>
      <trkpt lat="42.9322460" lon="-8.4173170">
        <ele>333.8</ele>
        <time>2021-03-03T10:58:37Z</time>
      </trkpt>
      <trkpt lat="42.9322630" lon="-8.4173120">
        <ele>334.0</ele>
        <time>2021-03-03T10:58:38Z</time>
      </trkpt>
      <trkpt lat="42.9322800" lon="-8.4173050">
        <ele>334.2</ele>
        <time>2021-03-03T10:58:39Z</time>
      </trkpt>
      <trkpt lat="42.9322970" lon="-8.4172980">
        <ele>334.4</ele>
        <time>2021-03-03T10:58:40Z</time>
      </trkpt>
      <trkpt lat="42.9323140" lon="-8.4172900">
        <ele>334.6</ele>
        <time>2021-03-03T10:58:41Z</time>
      </trkpt>
      <trkpt lat="42.9323330" lon="-8.4172830">
        <ele>335.0</ele>
        <time>2021-03-03T10:58:42Z</time>
      </trkpt>
      <trkpt lat="42.9323520" lon="-8.4172770">
        <ele>335.4</ele>
        <time>2021-03-03T10:58:43Z</time>
      </trkpt>
      <trkpt lat="42.9323660" lon="-8.4172710">
        <ele>335.6</ele>
        <time>2021-03-03T10:58:44Z</time>
      </trkpt>
      <trkpt lat="42.9323810" lon="-8.4172670">
        <ele>335.8</ele>
        <time>2021-03-03T10:58:45Z</time>
      </trkpt>
      <trkpt lat="42.9323980" lon="-8.4172610">
        <ele>336.2</ele>
        <time>2021-03-03T10:58:46Z</time>
      </trkpt>
      <trkpt lat="42.9324140" lon="-8.4172560">
        <ele>336.4</ele>
        <time>2021-03-03T10:58:47Z</time>
      </trkpt>
      <trkpt lat="42.9324300" lon="-8.4172490">
        <ele>336.8</ele>
        <time>2021-03-03T10:58:48Z</time>
      </trkpt>
      <trkpt lat="42.9324470" lon="-8.4172400">
        <ele>337.0</ele>
        <time>2021-03-03T10:58:49Z</time>
      </trkpt>
      <trkpt lat="42.9324670" lon="-8.4172310">
        <ele>337.0</ele>
        <time>2021-03-03T10:58:50Z</time>
      </trkpt>
      <trkpt lat="42.9324870" lon="-8.4172210">
        <ele>337.2</ele>
        <time>2021-03-03T10:58:51Z</time>
      </trkpt>
      <trkpt lat="42.9325030" lon="-8.4172140">
        <ele>337.4</ele>
        <time>2021-03-03T10:58:52Z</time>
      </trkpt>
      <trkpt lat="42.9325210" lon="-8.4172050">
        <ele>337.8</ele>
        <time>2021-03-03T10:58:53Z</time>
      </trkpt>
      <trkpt lat="42.9325390" lon="-8.4171980">
        <ele>338.0</ele>
        <time>2021-03-03T10:58:54Z</time>
      </trkpt>
      <trkpt lat="42.9325560" lon="-8.4171930">
        <ele>338.2</ele>
        <time>2021-03-03T10:58:55Z</time>
      </trkpt>
      <trkpt lat="42.9325710" lon="-8.4171870">
        <ele>338.4</ele>
        <time>2021-03-03T10:58:56Z</time>
      </trkpt>
      <trkpt lat="42.9325870" lon="-8.4171810">
        <ele>338.6</ele>
        <time>2021-03-03T10:58:57Z</time>
      </trkpt>
      <trkpt lat="42.9326030" lon="-8.4171750">
        <ele>338.8</ele>
        <time>2021-03-03T10:58:58Z</time>
      </trkpt>
      <trkpt lat="42.9326190" lon="-8.4171690">
        <ele>339.0</ele>
        <time>2021-03-03T10:58:59Z</time>
      </trkpt>
      <trkpt lat="42.9326350" lon="-8.4171630">
        <ele>339.2</ele>
        <time>2021-03-03T10:59:00Z</time>
      </trkpt>
      <trkpt lat="42.9326530" lon="-8.4171570">
        <ele>339.4</ele>
        <time>2021-03-03T10:59:01Z</time>
      </trkpt>
      <trkpt lat="42.9326720" lon="-8.4171520">
        <ele>339.6</ele>
        <time>2021-03-03T10:59:02Z</time>
      </trkpt>
      <trkpt lat="42.9326910" lon="-8.4171480">
        <ele>339.8</ele>
        <time>2021-03-03T10:59:03Z</time>
      </trkpt>
      <trkpt lat="42.9327090" lon="-8.4171470">
        <ele>340.0</ele>
        <time>2021-03-03T10:59:04Z</time>
      </trkpt>
      <trkpt lat="42.9327270" lon="-8.4171520">
        <ele>340.2</ele>
        <time>2021-03-03T10:59:05Z</time>
      </trkpt>
      <trkpt lat="42.9327400" lon="-8.4171590">
        <ele>340.2</ele>
        <time>2021-03-03T10:59:06Z</time>
      </trkpt>
      <trkpt lat="42.9327510" lon="-8.4171690">
        <ele>340.4</ele>
        <time>2021-03-03T10:59:07Z</time>
      </trkpt>
      <trkpt lat="42.9327620" lon="-8.4171850">
        <ele>340.6</ele>
        <time>2021-03-03T10:59:08Z</time>
      </trkpt>
      <trkpt lat="42.9327700" lon="-8.4172040">
        <ele>340.8</ele>
        <time>2021-03-03T10:59:09Z</time>
      </trkpt>
      <trkpt lat="42.9327780" lon="-8.4172300">
        <ele>341.0</ele>
        <time>2021-03-03T10:59:10Z</time>
      </trkpt>
      <trkpt lat="42.9327820" lon="-8.4172600">
        <ele>341.0</ele>
        <time>2021-03-03T10:59:11Z</time>
      </trkpt>
      <trkpt lat="42.9327830" lon="-8.4172880">
        <ele>341.0</ele>
        <time>2021-03-03T10:59:12Z</time>
      </trkpt>
      <trkpt lat="42.9327880" lon="-8.4173290">
        <ele>341.2</ele>
        <time>2021-03-03T10:59:13Z</time>
      </trkpt>
      <trkpt lat="42.9327930" lon="-8.4173570">
        <ele>341.4</ele>
        <time>2021-03-03T10:59:14Z</time>
      </trkpt>
      <trkpt lat="42.9328000" lon="-8.4173910">
        <ele>341.4</ele>
        <time>2021-03-03T10:59:15Z</time>
      </trkpt>
      <trkpt lat="42.9328070" lon="-8.4174250">
        <ele>341.4</ele>
        <time>2021-03-03T10:59:16Z</time>
      </trkpt>
      <trkpt lat="42.9328160" lon="-8.4174610">
        <ele>341.4</ele>
        <time>2021-03-03T10:59:17Z</time>
      </trkpt>
      <trkpt lat="42.9328210" lon="-8.4174970">
        <ele>341.6</ele>
        <time>2021-03-03T10:59:18Z</time>
      </trkpt>
      <trkpt lat="42.9328260" lon="-8.4175330">
        <ele>341.6</ele>
        <time>2021-03-03T10:59:19Z</time>
      </trkpt>
      <trkpt lat="42.9328310" lon="-8.4175700">
        <ele>341.6</ele>
        <time>2021-03-03T10:59:20Z</time>
      </trkpt>
      <trkpt lat="42.9328380" lon="-8.4176050">
        <ele>341.6</ele>
        <time>2021-03-03T10:59:21Z</time>
      </trkpt>
      <trkpt lat="42.9328440" lon="-8.4176480">
        <ele>341.6</ele>
        <time>2021-03-03T10:59:22Z</time>
      </trkpt>
      <trkpt lat="42.9328490" lon="-8.4176830">
        <ele>341.6</ele>
        <time>2021-03-03T10:59:23Z</time>
      </trkpt>
      <trkpt lat="42.9328530" lon="-8.4177200">
        <ele>341.8</ele>
        <time>2021-03-03T10:59:24Z</time>
      </trkpt>
      <trkpt lat="42.9328590" lon="-8.4177570">
        <ele>341.8</ele>
        <time>2021-03-03T10:59:25Z</time>
      </trkpt>
      <trkpt lat="42.9328640" lon="-8.4177940">
        <ele>341.8</ele>
        <time>2021-03-03T10:59:26Z</time>
      </trkpt>
      <trkpt lat="42.9328720" lon="-8.4178330">
        <ele>341.8</ele>
        <time>2021-03-03T10:59:27Z</time>
      </trkpt>
      <trkpt lat="42.9328790" lon="-8.4178720">
        <ele>341.8</ele>
        <time>2021-03-03T10:59:28Z</time>
      </trkpt>
      <trkpt lat="42.9328860" lon="-8.4179090">
        <ele>341.8</ele>
        <time>2021-03-03T10:59:29Z</time>
      </trkpt>
      <trkpt lat="42.9328940" lon="-8.4179470">
        <ele>342.0</ele>
        <time>2021-03-03T10:59:30Z</time>
      </trkpt>
      <trkpt lat="42.9328990" lon="-8.4179850">
        <ele>342.0</ele>
        <time>2021-03-03T10:59:31Z</time>
      </trkpt>
      <trkpt lat="42.9329050" lon="-8.4180230">
        <ele>342.0</ele>
        <time>2021-03-03T10:59:32Z</time>
      </trkpt>
      <trkpt lat="42.9329120" lon="-8.4180620">
        <ele>342.2</ele>
        <time>2021-03-03T10:59:33Z</time>
      </trkpt>
      <trkpt lat="42.9329150" lon="-8.4180990">
        <ele>342.0</ele>
        <time>2021-03-03T10:59:34Z</time>
      </trkpt>
      <trkpt lat="42.9329200" lon="-8.4181380">
        <ele>342.0</ele>
        <time>2021-03-03T10:59:35Z</time>
      </trkpt>
      <trkpt lat="42.9329250" lon="-8.4181800">
        <ele>342.0</ele>
        <time>2021-03-03T10:59:36Z</time>
      </trkpt>
      <trkpt lat="42.9329300" lon="-8.4182190">
        <ele>342.0</ele>
        <time>2021-03-03T10:59:37Z</time>
      </trkpt>
      <trkpt lat="42.9329330" lon="-8.4182610">
        <ele>342.0</ele>
        <time>2021-03-03T10:59:38Z</time>
      </trkpt>
      <trkpt lat="42.9329380" lon="-8.4183010">
        <ele>342.0</ele>
        <time>2021-03-03T10:59:39Z</time>
      </trkpt>
      <trkpt lat="42.9329460" lon="-8.4183410">
        <ele>342.0</ele>
        <time>2021-03-03T10:59:40Z</time>
      </trkpt>
      <trkpt lat="42.9329540" lon="-8.4183800">
        <ele>342.2</ele>
        <time>2021-03-03T10:59:41Z</time>
      </trkpt>
      <trkpt lat="42.9329590" lon="-8.4184190">
        <ele>342.0</ele>
        <time>2021-03-03T10:59:42Z</time>
      </trkpt>
      <trkpt lat="42.9329660" lon="-8.4184580">
        <ele>342.0</ele>
        <time>2021-03-03T10:59:43Z</time>
      </trkpt>
      <trkpt lat="42.9329740" lon="-8.4184960">
        <ele>342.0</ele>
        <time>2021-03-03T10:59:44Z</time>
      </trkpt>
      <trkpt lat="42.9329820" lon="-8.4185350">
        <ele>342.0</ele>
        <time>2021-03-03T10:59:45Z</time>
      </trkpt>
      <trkpt lat="42.9329890" lon="-8.4185760">
        <ele>342.0</ele>
        <time>2021-03-03T10:59:46Z</time>
      </trkpt>
      <trkpt lat="42.9329960" lon="-8.4186140">
        <ele>341.8</ele>
        <time>2021-03-03T10:59:47Z</time>
      </trkpt>
      <trkpt lat="42.9330020" lon="-8.4186520">
        <ele>342.0</ele>
        <time>2021-03-03T10:59:48Z</time>
      </trkpt>
      <trkpt lat="42.9330090" lon="-8.4186910">
        <ele>342.0</ele>
        <time>2021-03-03T10:59:49Z</time>
      </trkpt>
      <trkpt lat="42.9330160" lon="-8.4187280">
        <ele>342.0</ele>
        <time>2021-03-03T10:59:50Z</time>
      </trkpt>
      <trkpt lat="42.9330280" lon="-8.4187660">
        <ele>342.2</ele>
        <time>2021-03-03T10:59:51Z</time>
      </trkpt>
      <trkpt lat="42.9330380" lon="-8.4188010">
        <ele>342.2</ele>
        <time>2021-03-03T10:59:52Z</time>
      </trkpt>
      <trkpt lat="42.9330470" lon="-8.4188360">
        <ele>342.2</ele>
        <time>2021-03-03T10:59:53Z</time>
      </trkpt>
      <trkpt lat="42.9330560" lon="-8.4188710">
        <ele>342.2</ele>
        <time>2021-03-03T10:59:54Z</time>
      </trkpt>
      <trkpt lat="42.9330630" lon="-8.4189080">
        <ele>342.2</ele>
        <time>2021-03-03T10:59:55Z</time>
      </trkpt>
      <trkpt lat="42.9330710" lon="-8.4189460">
        <ele>342.4</ele>
        <time>2021-03-03T10:59:56Z</time>
      </trkpt>
      <trkpt lat="42.9330800" lon="-8.4189830">
        <ele>342.4</ele>
        <time>2021-03-03T10:59:57Z</time>
      </trkpt>
      <trkpt lat="42.9330860" lon="-8.4190210">
        <ele>342.4</ele>
        <time>2021-03-03T10:59:58Z</time>
      </trkpt>
      <trkpt lat="42.9330910" lon="-8.4190640">
        <ele>342.2</ele>
        <time>2021-03-03T10:59:59Z</time>
      </trkpt>
      <trkpt lat="42.9330960" lon="-8.4191050">
        <ele>342.2</ele>
        <time>2021-03-03T11:00:00Z</time>
      </trkpt>
      <trkpt lat="42.9331010" lon="-8.4191470">
        <ele>342.2</ele>
        <time>2021-03-03T11:00:01Z</time>
      </trkpt>
      <trkpt lat="42.9331100" lon="-8.4191880">
        <ele>342.2</ele>
        <time>2021-03-03T11:00:02Z</time>
      </trkpt>
      <trkpt lat="42.9331170" lon="-8.4192220">
        <ele>342.2</ele>
        <time>2021-03-03T11:00:03Z</time>
      </trkpt>
      <trkpt lat="42.9331260" lon="-8.4192570">
        <ele>342.2</ele>
        <time>2021-03-03T11:00:04Z</time>
      </trkpt>
      <trkpt lat="42.9331350" lon="-8.4192910">
        <ele>342.2</ele>
        <time>2021-03-03T11:00:05Z</time>
      </trkpt>
      <trkpt lat="42.9331440" lon="-8.4193280">
        <ele>342.2</ele>
        <time>2021-03-03T11:00:06Z</time>
      </trkpt>
      <trkpt lat="42.9331520" lon="-8.4193690">
        <ele>342.2</ele>
        <time>2021-03-03T11:00:07Z</time>
      </trkpt>
      <trkpt lat="42.9331580" lon="-8.4194080">
        <ele>342.2</ele>
        <time>2021-03-03T11:00:08Z</time>
      </trkpt>
      <trkpt lat="42.9331660" lon="-8.4194500">
        <ele>342.4</ele>
        <time>2021-03-03T11:00:09Z</time>
      </trkpt>
      <trkpt lat="42.9331720" lon="-8.4194920">
        <ele>342.4</ele>
        <time>2021-03-03T11:00:10Z</time>
      </trkpt>
      <trkpt lat="42.9331770" lon="-8.4195340">
        <ele>342.4</ele>
        <time>2021-03-03T11:00:11Z</time>
      </trkpt>
      <trkpt lat="42.9331830" lon="-8.4195760">
        <ele>342.4</ele>
        <time>2021-03-03T11:00:12Z</time>
      </trkpt>
      <trkpt lat="42.9331910" lon="-8.4196150">
        <ele>342.2</ele>
        <time>2021-03-03T11:00:13Z</time>
      </trkpt>
      <trkpt lat="42.9331980" lon="-8.4196550">
        <ele>342.2</ele>
        <time>2021-03-03T11:00:14Z</time>
      </trkpt>
      <trkpt lat="42.9332050" lon="-8.4196960">
        <ele>342.2</ele>
        <time>2021-03-03T11:00:15Z</time>
      </trkpt>
      <trkpt lat="42.9332110" lon="-8.4197360">
        <ele>342.0</ele>
        <time>2021-03-03T11:00:16Z</time>
      </trkpt>
      <trkpt lat="42.9332180" lon="-8.4197740">
        <ele>342.0</ele>
        <time>2021-03-03T11:00:17Z</time>
      </trkpt>
      <trkpt lat="42.9332260" lon="-8.4198150">
        <ele>342.0</ele>
        <time>2021-03-03T11:00:18Z</time>
      </trkpt>
      <trkpt lat="42.9332340" lon="-8.4198540">
        <ele>342.0</ele>
        <time>2021-03-03T11:00:19Z</time>
      </trkpt>
      <trkpt lat="42.9332410" lon="-8.4198940">
        <ele>342.0</ele>
        <time>2021-03-03T11:00:20Z</time>
      </trkpt>
      <trkpt lat="42.9332470" lon="-8.4199360">
        <ele>342.0</ele>
        <time>2021-03-03T11:00:21Z</time>
      </trkpt>
      <trkpt lat="42.9332560" lon="-8.4199780">
        <ele>341.8</ele>
        <time>2021-03-03T11:00:22Z</time>
      </trkpt>
      <trkpt lat="42.9332650" lon="-8.4200170">
        <ele>341.8</ele>
        <time>2021-03-03T11:00:23Z</time>
      </trkpt>
      <trkpt lat="42.9332720" lon="-8.4200560">
        <ele>341.8</ele>
        <time>2021-03-03T11:00:24Z</time>
      </trkpt>
      <trkpt lat="42.9332790" lon="-8.4200940">
        <ele>341.6</ele>
        <time>2021-03-03T11:00:25Z</time>
      </trkpt>
      <trkpt lat="42.9332860" lon="-8.4201320">
        <ele>341.6</ele>
        <time>2021-03-03T11:00:26Z</time>
      </trkpt>
      <trkpt lat="42.9332920" lon="-8.4201740">
        <ele>341.6</ele>
        <time>2021-03-03T11:00:27Z</time>
      </trkpt>
      <trkpt lat="42.9332980" lon="-8.4202150">
        <ele>341.4</ele>
        <time>2021-03-03T11:00:28Z</time>
      </trkpt>
      <trkpt lat="42.9333040" lon="-8.4202560">
        <ele>341.4</ele>
        <time>2021-03-03T11:00:29Z</time>
      </trkpt>
      <trkpt lat="42.9333090" lon="-8.4202870">
        <ele>341.4</ele>
        <time>2021-03-03T11:00:30Z</time>
      </trkpt>
      <trkpt lat="42.9333130" lon="-8.4203350">
        <ele>341.2</ele>
        <time>2021-03-03T11:00:31Z</time>
      </trkpt>
      <trkpt lat="42.9333190" lon="-8.4203730">
        <ele>341.2</ele>
        <time>2021-03-03T11:00:32Z</time>
      </trkpt>
      <trkpt lat="42.9333290" lon="-8.4204090">
        <ele>341.0</ele>
        <time>2021-03-03T11:00:33Z</time>
      </trkpt>
      <trkpt lat="42.9333360" lon="-8.4204440">
        <ele>340.8</ele>
        <time>2021-03-03T11:00:34Z</time>
      </trkpt>
      <trkpt lat="42.9333410" lon="-8.4204770">
        <ele>340.8</ele>
        <time>2021-03-03T11:00:35Z</time>
      </trkpt>
      <trkpt lat="42.9333470" lon="-8.4205050">
        <ele>340.6</ele>
        <time>2021-03-03T11:00:36Z</time>
      </trkpt>
      <trkpt lat="42.9333540" lon="-8.4205360">
        <ele>340.6</ele>
        <time>2021-03-03T11:00:37Z</time>
      </trkpt>
      <trkpt lat="42.9333600" lon="-8.4205690">
        <ele>340.4</ele>
        <time>2021-03-03T11:00:38Z</time>
      </trkpt>
      <trkpt lat="42.9333620" lon="-8.4206010">
        <ele>340.2</ele>
        <time>2021-03-03T11:00:39Z</time>
      </trkpt>
      <trkpt lat="42.9333690" lon="-8.4206350">
        <ele>340.2</ele>
        <time>2021-03-03T11:00:40Z</time>
      </trkpt>
      <trkpt lat="42.9333770" lon="-8.4206660">
        <ele>340.2</ele>
        <time>2021-03-03T11:00:41Z</time>
      </trkpt>
      <trkpt lat="42.9333840" lon="-8.4206960">
        <ele>340.2</ele>
        <time>2021-03-03T11:00:42Z</time>
      </trkpt>
      <trkpt lat="42.9333910" lon="-8.4207240">
        <ele>340.0</ele>
        <time>2021-03-03T11:00:43Z</time>
      </trkpt>
      <trkpt lat="42.9333930" lon="-8.4207470">
        <ele>340.0</ele>
        <time>2021-03-03T11:00:44Z</time>
      </trkpt>
      <trkpt lat="42.9333950" lon="-8.4207740">
        <ele>340.0</ele>
        <time>2021-03-03T11:00:45Z</time>
      </trkpt>
      <trkpt lat="42.9334010" lon="-8.4208060">
        <ele>339.8</ele>
        <time>2021-03-03T11:00:46Z</time>
      </trkpt>
      <trkpt lat="42.9334040" lon="-8.4208310">
        <ele>339.8</ele>
        <time>2021-03-03T11:00:47Z</time>
      </trkpt>
      <trkpt lat="42.9334080" lon="-8.4208610">
        <ele>339.6</ele>
        <time>2021-03-03T11:00:48Z</time>
      </trkpt>
      <trkpt lat="42.9334130" lon="-8.4208820">
        <ele>339.6</ele>
        <time>2021-03-03T11:00:49Z</time>
      </trkpt>
      <trkpt lat="42.9334160" lon="-8.4208910">
        <ele>339.6</ele>
        <time>2021-03-03T11:00:50Z</time>
      </trkpt>
      <trkpt lat="42.9334160" lon="-8.4208910">
        <ele>339.6</ele>
        <time>2021-03-03T11:00:51Z</time>
      </trkpt>
      <trkpt lat="42.9334130" lon="-8.4208860">
        <ele>339.4</ele>
        <time>2021-03-03T11:00:52Z</time>
      </trkpt>
      <trkpt lat="42.9334100" lon="-8.4208740">
        <ele>339.4</ele>
        <time>2021-03-03T11:00:53Z</time>
      </trkpt>
      <trkpt lat="42.9334050" lon="-8.4208570">
        <ele>339.2</ele>
        <time>2021-03-03T11:00:54Z</time>
      </trkpt>
      <trkpt lat="42.9334020" lon="-8.4208410">
        <ele>339.2</ele>
        <time>2021-03-03T11:00:55Z</time>
      </trkpt>
      <trkpt lat="42.9333980" lon="-8.4208200">
        <ele>339.0</ele>
        <time>2021-03-03T11:00:56Z</time>
      </trkpt>
      <trkpt lat="42.9333960" lon="-8.4208040">
        <ele>339.0</ele>
        <time>2021-03-03T11:00:57Z</time>
      </trkpt>
      <trkpt lat="42.9333900" lon="-8.4207870">
        <ele>339.0</ele>
        <time>2021-03-03T11:00:58Z</time>
      </trkpt>
      <trkpt lat="42.9333850" lon="-8.4207670">
        <ele>339.0</ele>
        <time>2021-03-03T11:00:59Z</time>
      </trkpt>
      <trkpt lat="42.9333810" lon="-8.4207450">
        <ele>339.2</ele>
        <time>2021-03-03T11:01:00Z</time>
      </trkpt>
      <trkpt lat="42.9333790" lon="-8.4207240">
        <ele>339.2</ele>
        <time>2021-03-03T11:01:01Z</time>
      </trkpt>
      <trkpt lat="42.9333750" lon="-8.4207020">
        <ele>339.2</ele>
        <time>2021-03-03T11:01:02Z</time>
      </trkpt>
      <trkpt lat="42.9333740" lon="-8.4206820">
        <ele>339.4</ele>
        <time>2021-03-03T11:01:03Z</time>
      </trkpt>
      <trkpt lat="42.9333760" lon="-8.4206620">
        <ele>339.4</ele>
        <time>2021-03-03T11:01:04Z</time>
      </trkpt>
      <trkpt lat="42.9333750" lon="-8.4206400">
        <ele>339.6</ele>
        <time>2021-03-03T11:01:05Z</time>
      </trkpt>
      <trkpt lat="42.9333730" lon="-8.4206170">
        <ele>339.8</ele>
        <time>2021-03-03T11:01:06Z</time>
      </trkpt>
      <trkpt lat="42.9333700" lon="-8.4205930">
        <ele>339.8</ele>
        <time>2021-03-03T11:01:07Z</time>
      </trkpt>
      <trkpt lat="42.9333690" lon="-8.4205720">
        <ele>340.0</ele>
        <time>2021-03-03T11:01:08Z</time>
      </trkpt>
      <trkpt lat="42.9333680" lon="-8.4205500">
        <ele>340.0</ele>
        <time>2021-03-03T11:01:09Z</time>
      </trkpt>
      <trkpt lat="42.9333660" lon="-8.4205340">
        <ele>340.0</ele>
        <time>2021-03-03T11:01:10Z</time>
      </trkpt>
      <trkpt lat="42.9333600" lon="-8.4205140">
        <ele>340.0</ele>
        <time>2021-03-03T11:01:11Z</time>
      </trkpt>
      <trkpt lat="42.9333560" lon="-8.4204960">
        <ele>340.2</ele>
        <time>2021-03-03T11:01:12Z</time>
      </trkpt>
      <trkpt lat="42.9333520" lon="-8.4204760">
        <ele>340.4</ele>
        <time>2021-03-03T11:01:13Z</time>
      </trkpt>
      <trkpt lat="42.9333500" lon="-8.4204560">
        <ele>340.6</ele>
        <time>2021-03-03T11:01:14Z</time>
      </trkpt>
      <trkpt lat="42.9333500" lon="-8.4204560">
        <ele>340.6</ele>
        <time>2021-03-03T11:01:15Z</time>
      </trkpt>
      <trkpt lat="42.9333420" lon="-8.4204090">
        <ele>340.6</ele>
        <time>2021-03-03T11:01:16Z</time>
      </trkpt>
      <trkpt lat="42.9333390" lon="-8.4203870">
        <ele>340.6</ele>
        <time>2021-03-03T11:01:17Z</time>
      </trkpt>
      <trkpt lat="42.9333390" lon="-8.4203870">
        <ele>340.6</ele>
        <time>2021-03-03T11:01:18Z</time>
      </trkpt>
      <trkpt lat="42.9333360" lon="-8.4203680">
        <ele>340.6</ele>
        <time>2021-03-03T11:01:19Z</time>
      </trkpt>
      <trkpt lat="42.9333320" lon="-8.4203490">
        <ele>340.6</ele>
        <time>2021-03-03T11:01:20Z</time>
      </trkpt>
      <trkpt lat="42.9333260" lon="-8.4203060">
        <ele>340.6</ele>
        <time>2021-03-03T11:01:21Z</time>
      </trkpt>
      <trkpt lat="42.9333260" lon="-8.4202850">
        <ele>340.6</ele>
        <time>2021-03-03T11:01:22Z</time>
      </trkpt>
      <trkpt lat="42.9333260" lon="-8.4202850">
        <ele>340.6</ele>
        <time>2021-03-03T11:01:23Z</time>
      </trkpt>
      <trkpt lat="42.9333350" lon="-8.4202360">
        <ele>340.6</ele>
        <time>2021-03-03T11:01:24Z</time>
      </trkpt>
      <trkpt lat="42.9333350" lon="-8.4202360">
        <ele>340.6</ele>
        <time>2021-03-03T11:01:25Z</time>
      </trkpt>
      <trkpt lat="42.9333340" lon="-8.4201980">
        <ele>340.6</ele>
        <time>2021-03-03T11:01:26Z</time>
      </trkpt>
      <trkpt lat="42.9333310" lon="-8.4201770">
        <ele>341.2</ele>
        <time>2021-03-03T11:01:27Z</time>
      </trkpt>
      <trkpt lat="42.9333310" lon="-8.4201770">
        <ele>341.2</ele>
        <time>2021-03-03T11:01:28Z</time>
      </trkpt>
      <trkpt lat="42.9333280" lon="-8.4201550">
        <ele>341.2</ele>
        <time>2021-03-03T11:01:29Z</time>
      </trkpt>
      <trkpt lat="42.9333270" lon="-8.4201400">
        <ele>341.2</ele>
        <time>2021-03-03T11:01:30Z</time>
      </trkpt>
      <trkpt lat="42.9333170" lon="-8.4201010">
        <ele>341.2</ele>
        <time>2021-03-03T11:01:31Z</time>
      </trkpt>
      <trkpt lat="42.9333110" lon="-8.4200830">
        <ele>341.2</ele>
        <time>2021-03-03T11:01:32Z</time>
      </trkpt>
      <trkpt lat="42.9333040" lon="-8.4200620">
        <ele>341.4</ele>
        <time>2021-03-03T11:01:33Z</time>
      </trkpt>
      <trkpt lat="42.9333040" lon="-8.4200620">
        <ele>341.4</ele>
        <time>2021-03-03T11:01:34Z</time>
      </trkpt>
      <trkpt lat="42.9332930" lon="-8.4200230">
        <ele>341.4</ele>
        <time>2021-03-03T11:01:35Z</time>
      </trkpt>
      <trkpt lat="42.9332890" lon="-8.4200050">
        <ele>341.6</ele>
        <time>2021-03-03T11:01:36Z</time>
      </trkpt>
      <trkpt lat="42.9332880" lon="-8.4199880">
        <ele>341.8</ele>
        <time>2021-03-03T11:01:37Z</time>
      </trkpt>
      <trkpt lat="42.9332790" lon="-8.4199450">
        <ele>342.0</ele>
        <time>2021-03-03T11:01:39Z</time>
      </trkpt>
      <trkpt lat="42.9332760" lon="-8.4199220">
        <ele>342.2</ele>
        <time>2021-03-03T11:01:40Z</time>
      </trkpt>
      <trkpt lat="42.9332730" lon="-8.4199000">
        <ele>342.2</ele>
        <time>2021-03-03T11:01:41Z</time>
      </trkpt>
      <trkpt lat="42.9332680" lon="-8.4198780">
        <ele>342.2</ele>
        <time>2021-03-03T11:01:42Z</time>
      </trkpt>
      <trkpt lat="42.9332630" lon="-8.4198550">
        <ele>342.2</ele>
        <time>2021-03-03T11:01:43Z</time>
      </trkpt>
      <trkpt lat="42.9332630" lon="-8.4198550">
        <ele>342.2</ele>
        <time>2021-03-03T11:01:44Z</time>
      </trkpt>
      <trkpt lat="42.9332620" lon="-8.4198330">
        <ele>342.2</ele>
        <time>2021-03-03T11:01:45Z</time>
      </trkpt>
      <trkpt lat="42.9332590" lon="-8.4198120">
        <ele>342.4</ele>
        <time>2021-03-03T11:01:46Z</time>
      </trkpt>
      <trkpt lat="42.9332510" lon="-8.4197680">
        <ele>342.4</ele>
        <time>2021-03-03T11:01:47Z</time>
      </trkpt>
      <trkpt lat="42.9332460" lon="-8.4197450">
        <ele>342.4</ele>
        <time>2021-03-03T11:01:48Z</time>
      </trkpt>
      <trkpt lat="42.9332420" lon="-8.4197220">
        <ele>342.4</ele>
        <time>2021-03-03T11:01:49Z</time>
      </trkpt>
      <trkpt lat="42.9332410" lon="-8.4196980">
        <ele>342.4</ele>
        <time>2021-03-03T11:01:50Z</time>
      </trkpt>
      <trkpt lat="42.9332430" lon="-8.4196720">
        <ele>342.6</ele>
        <time>2021-03-03T11:01:51Z</time>
      </trkpt>
      <trkpt lat="42.9332400" lon="-8.4196470">
        <ele>342.6</ele>
        <time>2021-03-03T11:01:52Z</time>
      </trkpt>
      <trkpt lat="42.9332340" lon="-8.4196210">
        <ele>342.6</ele>
        <time>2021-03-03T11:01:53Z</time>
      </trkpt>
      <trkpt lat="42.9332340" lon="-8.4196210">
        <ele>342.8</ele>
        <time>2021-03-03T11:01:54Z</time>
      </trkpt>
      <trkpt lat="42.9332280" lon="-8.4195990">
        <ele>342.8</ele>
        <time>2021-03-03T11:01:55Z</time>
      </trkpt>
      <trkpt lat="42.9332200" lon="-8.4195570">
        <ele>342.8</ele>
        <time>2021-03-03T11:01:56Z</time>
      </trkpt>
      <trkpt lat="42.9332140" lon="-8.4195340">
        <ele>342.8</ele>
        <time>2021-03-03T11:01:57Z</time>
      </trkpt>
      <trkpt lat="42.9332090" lon="-8.4195080">
        <ele>342.6</ele>
        <time>2021-03-03T11:01:58Z</time>
      </trkpt>
      <trkpt lat="42.9332010" lon="-8.4194870">
        <ele>342.6</ele>
        <time>2021-03-03T11:01:59Z</time>
      </trkpt>
      <trkpt lat="42.9331930" lon="-8.4194650">
        <ele>342.6</ele>
        <time>2021-03-03T11:02:00Z</time>
      </trkpt>
      <trkpt lat="42.9331850" lon="-8.4194430">
        <ele>342.6</ele>
        <time>2021-03-03T11:02:01Z</time>
      </trkpt>
      <trkpt lat="42.9331770" lon="-8.4194130">
        <ele>342.6</ele>
        <time>2021-03-03T11:02:02Z</time>
      </trkpt>
      <trkpt lat="42.9331680" lon="-8.4193790">
        <ele>342.4</ele>
        <time>2021-03-03T11:02:03Z</time>
      </trkpt>
      <trkpt lat="42.9331590" lon="-8.4193450">
        <ele>342.4</ele>
        <time>2021-03-03T11:02:04Z</time>
      </trkpt>
      <trkpt lat="42.9331530" lon="-8.4193170">
        <ele>342.4</ele>
        <time>2021-03-03T11:02:05Z</time>
      </trkpt>
      <trkpt lat="42.9331510" lon="-8.4192850">
        <ele>342.4</ele>
        <time>2021-03-03T11:02:06Z</time>
      </trkpt>
      <trkpt lat="42.9331480" lon="-8.4192510">
        <ele>342.4</ele>
        <time>2021-03-03T11:02:07Z</time>
      </trkpt>
      <trkpt lat="42.9331430" lon="-8.4192200">
        <ele>342.4</ele>
        <time>2021-03-03T11:02:08Z</time>
      </trkpt>
      <trkpt lat="42.9331340" lon="-8.4191890">
        <ele>342.6</ele>
        <time>2021-03-03T11:02:09Z</time>
      </trkpt>
      <trkpt lat="42.9331250" lon="-8.4191660">
        <ele>342.6</ele>
        <time>2021-03-03T11:02:10Z</time>
      </trkpt>
      <trkpt lat="42.9331160" lon="-8.4191460">
        <ele>342.4</ele>
        <time>2021-03-03T11:02:11Z</time>
      </trkpt>
      <trkpt lat="42.9331070" lon="-8.4191160">
        <ele>342.4</ele>
        <time>2021-03-03T11:02:12Z</time>
      </trkpt>
      <trkpt lat="42.9331010" lon="-8.4190810">
        <ele>342.4</ele>
        <time>2021-03-03T11:02:13Z</time>
      </trkpt>
      <trkpt lat="42.9330960" lon="-8.4190470">
        <ele>342.4</ele>
        <time>2021-03-03T11:02:14Z</time>
      </trkpt>
      <trkpt lat="42.9330880" lon="-8.4189980">
        <ele>342.2</ele>
        <time>2021-03-03T11:02:15Z</time>
      </trkpt>
      <trkpt lat="42.9330850" lon="-8.4189560">
        <ele>342.2</ele>
        <time>2021-03-03T11:02:16Z</time>
      </trkpt>
      <trkpt lat="42.9330750" lon="-8.4189130">
        <ele>342.2</ele>
        <time>2021-03-03T11:02:17Z</time>
      </trkpt>
      <trkpt lat="42.9330660" lon="-8.4188710">
        <ele>342.4</ele>
        <time>2021-03-03T11:02:18Z</time>
      </trkpt>
      <trkpt lat="42.9330630" lon="-8.4188290">
        <ele>342.4</ele>
        <time>2021-03-03T11:02:19Z</time>
      </trkpt>
      <trkpt lat="42.9330600" lon="-8.4187840">
        <ele>342.4</ele>
        <time>2021-03-03T11:02:20Z</time>
      </trkpt>
      <trkpt lat="42.9330510" lon="-8.4187410">
        <ele>342.4</ele>
        <time>2021-03-03T11:02:21Z</time>
      </trkpt>
      <trkpt lat="42.9330400" lon="-8.4186970">
        <ele>342.2</ele>
        <time>2021-03-03T11:02:22Z</time>
      </trkpt>
      <trkpt lat="42.9330400" lon="-8.4186970">
        <ele>342.2</ele>
        <time>2021-03-03T11:02:23Z</time>
      </trkpt>
      <trkpt lat="42.9330300" lon="-8.4186140">
        <ele>342.0</ele>
        <time>2021-03-03T11:02:24Z</time>
      </trkpt>
      <trkpt lat="42.9330250" lon="-8.4185720">
        <ele>341.8</ele>
        <time>2021-03-03T11:02:25Z</time>
      </trkpt>
      <trkpt lat="42.9330230" lon="-8.4185330">
        <ele>341.8</ele>
        <time>2021-03-03T11:02:26Z</time>
      </trkpt>
      <trkpt lat="42.9330230" lon="-8.4184930">
        <ele>341.8</ele>
        <time>2021-03-03T11:02:27Z</time>
      </trkpt>
      <trkpt lat="42.9330180" lon="-8.4184550">
        <ele>341.6</ele>
        <time>2021-03-03T11:02:28Z</time>
      </trkpt>
      <trkpt lat="42.9330110" lon="-8.4184150">
        <ele>341.6</ele>
        <time>2021-03-03T11:02:29Z</time>
      </trkpt>
      <trkpt lat="42.9330070" lon="-8.4183740">
        <ele>341.6</ele>
        <time>2021-03-03T11:02:30Z</time>
      </trkpt>
      <trkpt lat="42.9330010" lon="-8.4183350">
        <ele>341.6</ele>
        <time>2021-03-03T11:02:31Z</time>
      </trkpt>
      <trkpt lat="42.9329920" lon="-8.4182950">
        <ele>341.6</ele>
        <time>2021-03-03T11:02:32Z</time>
      </trkpt>
      <trkpt lat="42.9329840" lon="-8.4182530">
        <ele>341.6</ele>
        <time>2021-03-03T11:02:33Z</time>
      </trkpt>
      <trkpt lat="42.9329730" lon="-8.4182010">
        <ele>341.6</ele>
        <time>2021-03-03T11:02:34Z</time>
      </trkpt>
      <trkpt lat="42.9329680" lon="-8.4181570">
        <ele>341.6</ele>
        <time>2021-03-03T11:02:35Z</time>
      </trkpt>
      <trkpt lat="42.9329640" lon="-8.4181160">
        <ele>341.6</ele>
        <time>2021-03-03T11:02:36Z</time>
      </trkpt>
      <trkpt lat="42.9329580" lon="-8.4180740">
        <ele>341.6</ele>
        <time>2021-03-03T11:02:37Z</time>
      </trkpt>
      <trkpt lat="42.9329500" lon="-8.4180330">
        <ele>341.6</ele>
        <time>2021-03-03T11:02:38Z</time>
      </trkpt>
      <trkpt lat="42.9329410" lon="-8.4179930">
        <ele>341.6</ele>
        <time>2021-03-03T11:02:39Z</time>
      </trkpt>
      <trkpt lat="42.9329360" lon="-8.4179540">
        <ele>341.8</ele>
        <time>2021-03-03T11:02:40Z</time>
      </trkpt>
      <trkpt lat="42.9329340" lon="-8.4179140">
        <ele>342.0</ele>
        <time>2021-03-03T11:02:41Z</time>
      </trkpt>
      <trkpt lat="42.9329290" lon="-8.4178730">
        <ele>342.0</ele>
        <time>2021-03-03T11:02:42Z</time>
      </trkpt>
      <trkpt lat="42.9329220" lon="-8.4178310">
        <ele>342.0</ele>
        <time>2021-03-03T11:02:43Z</time>
      </trkpt>
      <trkpt lat="42.9329220" lon="-8.4177910">
        <ele>342.0</ele>
        <time>2021-03-03T11:02:44Z</time>
      </trkpt>
      <trkpt lat="42.9329200" lon="-8.4177490">
        <ele>342.0</ele>
        <time>2021-03-03T11:02:45Z</time>
      </trkpt>
      <trkpt lat="42.9329180" lon="-8.4177100">
        <ele>342.0</ele>
        <time>2021-03-03T11:02:46Z</time>
      </trkpt>
      <trkpt lat="42.9329180" lon="-8.4176730">
        <ele>341.8</ele>
        <time>2021-03-03T11:02:47Z</time>
      </trkpt>
      <trkpt lat="42.9329170" lon="-8.4176330">
        <ele>342.0</ele>
        <time>2021-03-03T11:02:48Z</time>
      </trkpt>
      <trkpt lat="42.9329100" lon="-8.4175980">
        <ele>341.8</ele>
        <time>2021-03-03T11:02:49Z</time>
      </trkpt>
      <trkpt lat="42.9328960" lon="-8.4175550">
        <ele>341.2</ele>
        <time>2021-03-03T11:02:50Z</time>
      </trkpt>
      <trkpt lat="42.9328820" lon="-8.4175100">
        <ele>341.2</ele>
        <time>2021-03-03T11:02:51Z</time>
      </trkpt>
      <trkpt lat="42.9328690" lon="-8.4174660">
        <ele>341.2</ele>
        <time>2021-03-03T11:02:52Z</time>
      </trkpt>
      <trkpt lat="42.9328600" lon="-8.4174240">
        <ele>341.2</ele>
        <time>2021-03-03T11:02:53Z</time>
      </trkpt>
      <trkpt lat="42.9328530" lon="-8.4173850">
        <ele>341.2</ele>
        <time>2021-03-03T11:02:54Z</time>
      </trkpt>
      <trkpt lat="42.9328470" lon="-8.4173450">
        <ele>341.2</ele>
        <time>2021-03-03T11:02:55Z</time>
      </trkpt>
      <trkpt lat="42.9328360" lon="-8.4173060">
        <ele>341.2</ele>
        <time>2021-03-03T11:02:56Z</time>
      </trkpt>
      <trkpt lat="42.9328190" lon="-8.4172680">
        <ele>341.2</ele>
        <time>2021-03-03T11:02:57Z</time>
      </trkpt>
      <trkpt lat="42.9328050" lon="-8.4172300">
        <ele>341.2</ele>
        <time>2021-03-03T11:02:58Z</time>
      </trkpt>
      <trkpt lat="42.9327930" lon="-8.4171920">
        <ele>341.0</ele>
        <time>2021-03-03T11:02:59Z</time>
      </trkpt>
      <trkpt lat="42.9327750" lon="-8.4171590">
        <ele>340.6</ele>
        <time>2021-03-03T11:03:00Z</time>
      </trkpt>
      <trkpt lat="42.9327450" lon="-8.4171400">
        <ele>340.4</ele>
        <time>2021-03-03T11:03:01Z</time>
      </trkpt>
      <trkpt lat="42.9327180" lon="-8.4171310">
        <ele>340.0</ele>
        <time>2021-03-03T11:03:02Z</time>
      </trkpt>
      <trkpt lat="42.9326910" lon="-8.4171280">
        <ele>339.8</ele>
        <time>2021-03-03T11:03:03Z</time>
      </trkpt>
      <trkpt lat="42.9326630" lon="-8.4171330">
        <ele>339.6</ele>
        <time>2021-03-03T11:03:04Z</time>
      </trkpt>
      <trkpt lat="42.9326320" lon="-8.4171400">
        <ele>339.0</ele>
        <time>2021-03-03T11:03:05Z</time>
      </trkpt>
      <trkpt lat="42.9325970" lon="-8.4171450">
        <ele>338.6</ele>
        <time>2021-03-03T11:03:06Z</time>
      </trkpt>
      <trkpt lat="42.9325630" lon="-8.4171550">
        <ele>338.4</ele>
        <time>2021-03-03T11:03:07Z</time>
      </trkpt>
      <trkpt lat="42.9325250" lon="-8.4171630">
        <ele>338.0</ele>
        <time>2021-03-03T11:03:08Z</time>
      </trkpt>
      <trkpt lat="42.9324910" lon="-8.4171710">
        <ele>337.8</ele>
        <time>2021-03-03T11:03:09Z</time>
      </trkpt>
      <trkpt lat="42.9324550" lon="-8.4171750">
        <ele>337.6</ele>
        <time>2021-03-03T11:03:10Z</time>
      </trkpt>
      <trkpt lat="42.9324180" lon="-8.4171800">
        <ele>337.8</ele>
        <time>2021-03-03T11:03:11Z</time>
      </trkpt>
      <trkpt lat="42.9323830" lon="-8.4171890">
        <ele>337.8</ele>
        <time>2021-03-03T11:03:12Z</time>
      </trkpt>
      <trkpt lat="42.9323510" lon="-8.4171980">
        <ele>337.8</ele>
        <time>2021-03-03T11:03:13Z</time>
      </trkpt>
      <trkpt lat="42.9323180" lon="-8.4172060">
        <ele>337.4</ele>
        <time>2021-03-03T11:03:14Z</time>
      </trkpt>
      <trkpt lat="42.9322860" lon="-8.4172160">
        <ele>337.2</ele>
        <time>2021-03-03T11:03:15Z</time>
      </trkpt>
      <trkpt lat="42.9322560" lon="-8.4172260">
        <ele>336.8</ele>
        <time>2021-03-03T11:03:16Z</time>
      </trkpt>
      <trkpt lat="42.9322260" lon="-8.4172350">
        <ele>336.2</ele>
        <time>2021-03-03T11:03:17Z</time>
      </trkpt>
      <trkpt lat="42.9321970" lon="-8.4172430">
        <ele>335.6</ele>
        <time>2021-03-03T11:03:18Z</time>
      </trkpt>
      <trkpt lat="42.9321680" lon="-8.4172500">
        <ele>335.2</ele>
        <time>2021-03-03T11:03:19Z</time>
      </trkpt>
      <trkpt lat="42.9321370" lon="-8.4172590">
        <ele>334.8</ele>
        <time>2021-03-03T11:03:20Z</time>
      </trkpt>
      <trkpt lat="42.9321080" lon="-8.4172700">
        <ele>334.4</ele>
        <time>2021-03-03T11:03:21Z</time>
      </trkpt>
      <trkpt lat="42.9320800" lon="-8.4172780">
        <ele>334.2</ele>
        <time>2021-03-03T11:03:22Z</time>
      </trkpt>
      <trkpt lat="42.9320490" lon="-8.4172890">
        <ele>333.6</ele>
        <time>2021-03-03T11:03:23Z</time>
      </trkpt>
      <trkpt lat="42.9320180" lon="-8.4172960">
        <ele>333.2</ele>
        <time>2021-03-03T11:03:24Z</time>
      </trkpt>
      <trkpt lat="42.9319880" lon="-8.4173000">
        <ele>333.0</ele>
        <time>2021-03-03T11:03:25Z</time>
      </trkpt>
      <trkpt lat="42.9319580" lon="-8.4173050">
        <ele>332.4</ele>
        <time>2021-03-03T11:03:26Z</time>
      </trkpt>
      <trkpt lat="42.9319280" lon="-8.4173110">
        <ele>332.0</ele>
        <time>2021-03-03T11:03:27Z</time>
      </trkpt>
      <trkpt lat="42.9319000" lon="-8.4173130">
        <ele>331.8</ele>
        <time>2021-03-03T11:03:28Z</time>
      </trkpt>
      <trkpt lat="42.9318720" lon="-8.4173180">
        <ele>331.6</ele>
        <time>2021-03-03T11:03:29Z</time>
      </trkpt>
      <trkpt lat="42.9318430" lon="-8.4173180">
        <ele>331.4</ele>
        <time>2021-03-03T11:03:30Z</time>
      </trkpt>
      <trkpt lat="42.9318130" lon="-8.4173260">
        <ele>330.0</ele>
        <time>2021-03-03T11:03:31Z</time>
      </trkpt>
      <trkpt lat="42.9317830" lon="-8.4173400">
        <ele>330.0</ele>
        <time>2021-03-03T11:03:32Z</time>
      </trkpt>
      <trkpt lat="42.9317580" lon="-8.4173570">
        <ele>330.0</ele>
        <time>2021-03-03T11:03:33Z</time>
      </trkpt>
      <trkpt lat="42.9317330" lon="-8.4173680">
        <ele>330.0</ele>
        <time>2021-03-03T11:03:34Z</time>
      </trkpt>
      <trkpt lat="42.9317080" lon="-8.4173790">
        <ele>330.0</ele>
        <time>2021-03-03T11:03:35Z</time>
      </trkpt>
      <trkpt lat="42.9316780" lon="-8.4173850">
        <ele>329.8</ele>
        <time>2021-03-03T11:03:36Z</time>
      </trkpt>
      <trkpt lat="42.9316460" lon="-8.4173890">
        <ele>329.8</ele>
        <time>2021-03-03T11:03:37Z</time>
      </trkpt>
      <trkpt lat="42.9316180" lon="-8.4173950">
        <ele>329.8</ele>
        <time>2021-03-03T11:03:38Z</time>
      </trkpt>
      <trkpt lat="42.9315920" lon="-8.4173980">
        <ele>329.8</ele>
        <time>2021-03-03T11:03:39Z</time>
      </trkpt>
      <trkpt lat="42.9315640" lon="-8.4174000">
        <ele>329.8</ele>
        <time>2021-03-03T11:03:40Z</time>
      </trkpt>
      <trkpt lat="42.9315340" lon="-8.4174020">
        <ele>329.8</ele>
        <time>2021-03-03T11:03:41Z</time>
      </trkpt>
      <trkpt lat="42.9315050" lon="-8.4174000">
        <ele>329.8</ele>
        <time>2021-03-03T11:03:42Z</time>
      </trkpt>
      <trkpt lat="42.9314760" lon="-8.4173970">
        <ele>329.8</ele>
        <time>2021-03-03T11:03:43Z</time>
      </trkpt>
      <trkpt lat="42.9314480" lon="-8.4173950">
        <ele>329.8</ele>
        <time>2021-03-03T11:03:44Z</time>
      </trkpt>
      <trkpt lat="42.9314220" lon="-8.4173930">
        <ele>329.8</ele>
        <time>2021-03-03T11:03:45Z</time>
      </trkpt>
      <trkpt lat="42.9313960" lon="-8.4173890">
        <ele>330.0</ele>
        <time>2021-03-03T11:03:46Z</time>
      </trkpt>
      <trkpt lat="42.9313690" lon="-8.4173860">
        <ele>330.2</ele>
        <time>2021-03-03T11:03:47Z</time>
      </trkpt>
      <trkpt lat="42.9313420" lon="-8.4173790">
        <ele>330.4</ele>
        <time>2021-03-03T11:03:48Z</time>
      </trkpt>
      <trkpt lat="42.9313180" lon="-8.4173700">
        <ele>330.4</ele>
        <time>2021-03-03T11:03:49Z</time>
      </trkpt>
      <trkpt lat="42.9312950" lon="-8.4173620">
        <ele>330.6</ele>
        <time>2021-03-03T11:03:50Z</time>
      </trkpt>
      <trkpt lat="42.9312710" lon="-8.4173530">
        <ele>330.6</ele>
        <time>2021-03-03T11:03:51Z</time>
      </trkpt>
      <trkpt lat="42.9312450" lon="-8.4173440">
        <ele>330.6</ele>
        <time>2021-03-03T11:03:52Z</time>
      </trkpt>
      <trkpt lat="42.9312210" lon="-8.4173370">
        <ele>330.6</ele>
        <time>2021-03-03T11:03:53Z</time>
      </trkpt>
      <trkpt lat="42.9311930" lon="-8.4173250">
        <ele>330.8</ele>
        <time>2021-03-03T11:03:54Z</time>
      </trkpt>
      <trkpt lat="42.9311690" lon="-8.4173150">
        <ele>330.6</ele>
        <time>2021-03-03T11:03:55Z</time>
      </trkpt>
      <trkpt lat="42.9311460" lon="-8.4173000">
        <ele>330.8</ele>
        <time>2021-03-03T11:03:56Z</time>
      </trkpt>
      <trkpt lat="42.9311220" lon="-8.4172870">
        <ele>331.0</ele>
        <time>2021-03-03T11:03:57Z</time>
      </trkpt>
      <trkpt lat="42.9310980" lon="-8.4172730">
        <ele>330.8</ele>
        <time>2021-03-03T11:03:58Z</time>
      </trkpt>
      <trkpt lat="42.9310730" lon="-8.4172650">
        <ele>331.0</ele>
        <time>2021-03-03T11:03:59Z</time>
      </trkpt>
      <trkpt lat="42.9310470" lon="-8.4172560">
        <ele>331.0</ele>
        <time>2021-03-03T11:04:00Z</time>
      </trkpt>
      <trkpt lat="42.9310270" lon="-8.4172460">
        <ele>331.0</ele>
        <time>2021-03-03T11:04:01Z</time>
      </trkpt>
      <trkpt lat="42.9310020" lon="-8.4172350">
        <ele>331.0</ele>
        <time>2021-03-03T11:04:02Z</time>
      </trkpt>
      <trkpt lat="42.9309780" lon="-8.4172240">
        <ele>331.0</ele>
        <time>2021-03-03T11:04:03Z</time>
      </trkpt>
      <trkpt lat="42.9309540" lon="-8.4172140">
        <ele>331.0</ele>
        <time>2021-03-03T11:04:04Z</time>
      </trkpt>
      <trkpt lat="42.9309280" lon="-8.4172070">
        <ele>331.2</ele>
        <time>2021-03-03T11:04:05Z</time>
      </trkpt>
      <trkpt lat="42.9309040" lon="-8.4171980">
        <ele>331.0</ele>
        <time>2021-03-03T11:04:06Z</time>
      </trkpt>
      <trkpt lat="42.9308820" lon="-8.4171910">
        <ele>331.0</ele>
        <time>2021-03-03T11:04:07Z</time>
      </trkpt>
      <trkpt lat="42.9308570" lon="-8.4171840">
        <ele>331.0</ele>
        <time>2021-03-03T11:04:08Z</time>
      </trkpt>
      <trkpt lat="42.9308340" lon="-8.4171760">
        <ele>331.0</ele>
        <time>2021-03-03T11:04:09Z</time>
      </trkpt>
      <trkpt lat="42.9308100" lon="-8.4171700">
        <ele>331.0</ele>
        <time>2021-03-03T11:04:10Z</time>
      </trkpt>
      <trkpt lat="42.9307860" lon="-8.4171650">
        <ele>331.0</ele>
        <time>2021-03-03T11:04:11Z</time>
      </trkpt>
      <trkpt lat="42.9307640" lon="-8.4171610">
        <ele>331.0</ele>
        <time>2021-03-03T11:04:12Z</time>
      </trkpt>
      <trkpt lat="42.9307400" lon="-8.4171540">
        <ele>331.0</ele>
        <time>2021-03-03T11:04:13Z</time>
      </trkpt>
      <trkpt lat="42.9307150" lon="-8.4171430">
        <ele>331.2</ele>
        <time>2021-03-03T11:04:14Z</time>
      </trkpt>
      <trkpt lat="42.9306920" lon="-8.4171370">
        <ele>331.4</ele>
        <time>2021-03-03T11:04:15Z</time>
      </trkpt>
      <trkpt lat="42.9306690" lon="-8.4171270">
        <ele>331.4</ele>
        <time>2021-03-03T11:04:16Z</time>
      </trkpt>
      <trkpt lat="42.9306470" lon="-8.4171140">
        <ele>331.8</ele>
        <time>2021-03-03T11:04:17Z</time>
      </trkpt>
      <trkpt lat="42.9306250" lon="-8.4171020">
        <ele>332.0</ele>
        <time>2021-03-03T11:04:18Z</time>
      </trkpt>
      <trkpt lat="42.9306030" lon="-8.4170920">
        <ele>332.2</ele>
        <time>2021-03-03T11:04:19Z</time>
      </trkpt>
      <trkpt lat="42.9305840" lon="-8.4170830">
        <ele>332.2</ele>
        <time>2021-03-03T11:04:20Z</time>
      </trkpt>
      <trkpt lat="42.9305640" lon="-8.4170760">
        <ele>332.4</ele>
        <time>2021-03-03T11:04:21Z</time>
      </trkpt>
      <trkpt lat="42.9305450" lon="-8.4170730">
        <ele>332.6</ele>
        <time>2021-03-03T11:04:22Z</time>
      </trkpt>
      <trkpt lat="42.9305280" lon="-8.4170690">
        <ele>332.8</ele>
        <time>2021-03-03T11:04:23Z</time>
      </trkpt>
      <trkpt lat="42.9305130" lon="-8.4170630">
        <ele>333.0</ele>
        <time>2021-03-03T11:04:24Z</time>
      </trkpt>
      <trkpt lat="42.9304950" lon="-8.4170520">
        <ele>333.2</ele>
        <time>2021-03-03T11:04:25Z</time>
      </trkpt>
      <trkpt lat="42.9304790" lon="-8.4170400">
        <ele>333.4</ele>
        <time>2021-03-03T11:04:26Z</time>
      </trkpt>
      <trkpt lat="42.9304640" lon="-8.4170280">
        <ele>333.6</ele>
        <time>2021-03-03T11:04:27Z</time>
      </trkpt>
      <trkpt lat="42.9304460" lon="-8.4170210">
        <ele>333.8</ele>
        <time>2021-03-03T11:04:28Z</time>
      </trkpt>
      <trkpt lat="42.9304300" lon="-8.4170110">
        <ele>334.0</ele>
        <time>2021-03-03T11:04:29Z</time>
      </trkpt>
      <trkpt lat="42.9304140" lon="-8.4169990">
        <ele>334.0</ele>
        <time>2021-03-03T11:04:30Z</time>
      </trkpt>
      <trkpt lat="42.9303990" lon="-8.4169900">
        <ele>334.4</ele>
        <time>2021-03-03T11:04:31Z</time>
      </trkpt>
      <trkpt lat="42.9303870" lon="-8.4169840">
        <ele>334.4</ele>
        <time>2021-03-03T11:04:32Z</time>
      </trkpt>
      <trkpt lat="42.9303730" lon="-8.4169810">
        <ele>334.8</ele>
        <time>2021-03-03T11:04:33Z</time>
      </trkpt>
      <trkpt lat="42.9303580" lon="-8.4169830">
        <ele>335.0</ele>
        <time>2021-03-03T11:04:34Z</time>
      </trkpt>
      <trkpt lat="42.9303420" lon="-8.4169810">
        <ele>335.0</ele>
        <time>2021-03-03T11:04:35Z</time>
      </trkpt>
      <trkpt lat="42.9303200" lon="-8.4169730">
        <ele>335.2</ele>
        <time>2021-03-03T11:04:36Z</time>
      </trkpt>
      <trkpt lat="42.9303020" lon="-8.4169660">
        <ele>335.4</ele>
        <time>2021-03-03T11:04:37Z</time>
      </trkpt>
      <trkpt lat="42.9302840" lon="-8.4169610">
        <ele>335.4</ele>
        <time>2021-03-03T11:04:38Z</time>
      </trkpt>
      <trkpt lat="42.9302680" lon="-8.4169560">
        <ele>335.4</ele>
        <time>2021-03-03T11:04:39Z</time>
      </trkpt>
      <trkpt lat="42.9302570" lon="-8.4169530">
        <ele>335.6</ele>
        <time>2021-03-03T11:04:40Z</time>
      </trkpt>
      <trkpt lat="42.9302460" lon="-8.4169480">
        <ele>335.8</ele>
        <time>2021-03-03T11:04:41Z</time>
      </trkpt>
      <trkpt lat="42.9302330" lon="-8.4169370">
        <ele>336.0</ele>
        <time>2021-03-03T11:04:42Z</time>
      </trkpt>
      <trkpt lat="42.9302180" lon="-8.4169270">
        <ele>336.2</ele>
        <time>2021-03-03T11:04:43Z</time>
      </trkpt>
      <trkpt lat="42.9301970" lon="-8.4168960">
        <ele>336.4</ele>
        <time>2021-03-03T11:04:44Z</time>
      </trkpt>
      <trkpt lat="42.9301740" lon="-8.4168710">
        <ele>336.6</ele>
        <time>2021-03-03T11:04:45Z</time>
      </trkpt>
      <trkpt lat="42.9301520" lon="-8.4168540">
        <ele>337.0</ele>
        <time>2021-03-03T11:04:46Z</time>
      </trkpt>
      <trkpt lat="42.9301320" lon="-8.4168380">
        <ele>337.2</ele>
        <time>2021-03-03T11:04:47Z</time>
      </trkpt>
      <trkpt lat="42.9301130" lon="-8.4168200">
        <ele>337.4</ele>
        <time>2021-03-03T11:04:48Z</time>
      </trkpt>
      <trkpt lat="42.9300960" lon="-8.4168050">
        <ele>337.4</ele>
        <time>2021-03-03T11:04:49Z</time>
      </trkpt>
      <trkpt lat="42.9300800" lon="-8.4167890">
        <ele>337.6</ele>
        <time>2021-03-03T11:04:50Z</time>
      </trkpt>
      <trkpt lat="42.9300630" lon="-8.4167720">
        <ele>337.8</ele>
        <time>2021-03-03T11:04:51Z</time>
      </trkpt>
      <trkpt lat="42.9300490" lon="-8.4167660">
        <ele>338.0</ele>
        <time>2021-03-03T11:04:52Z</time>
      </trkpt>
      <trkpt lat="42.9300380" lon="-8.4167630">
        <ele>338.2</ele>
        <time>2021-03-03T11:04:53Z</time>
      </trkpt>
      <trkpt lat="42.9300280" lon="-8.4167620">
        <ele>338.6</ele>
        <time>2021-03-03T11:04:54Z</time>
      </trkpt>
      <trkpt lat="42.9300170" lon="-8.4167590">
        <ele>339.0</ele>
        <time>2021-03-03T11:04:55Z</time>
      </trkpt>
      <trkpt lat="42.9300030" lon="-8.4167510">
        <ele>339.2</ele>
        <time>2021-03-03T11:04:56Z</time>
      </trkpt>
      <trkpt lat="42.9299830" lon="-8.4167360">
        <ele>339.4</ele>
        <time>2021-03-03T11:04:57Z</time>
      </trkpt>
      <trkpt lat="42.9299670" lon="-8.4167240">
        <ele>339.6</ele>
        <time>2021-03-03T11:04:58Z</time>
      </trkpt>
      <trkpt lat="42.9299540" lon="-8.4167110">
        <ele>339.8</ele>
        <time>2021-03-03T11:04:59Z</time>
      </trkpt>
      <trkpt lat="42.9299390" lon="-8.4166980">
        <ele>340.6</ele>
        <time>2021-03-03T11:05:00Z</time>
      </trkpt>
      <trkpt lat="42.9299260" lon="-8.4166860">
        <ele>340.6</ele>
        <time>2021-03-03T11:05:01Z</time>
      </trkpt>
      <trkpt lat="42.9299110" lon="-8.4166740">
        <ele>340.6</ele>
        <time>2021-03-03T11:05:02Z</time>
      </trkpt>
      <trkpt lat="42.9298980" lon="-8.4166620">
        <ele>340.8</ele>
        <time>2021-03-03T11:05:03Z</time>
      </trkpt>
      <trkpt lat="42.9298840" lon="-8.4166500">
        <ele>341.0</ele>
        <time>2021-03-03T11:05:04Z</time>
      </trkpt>
      <trkpt lat="42.9298670" lon="-8.4166340">
        <ele>341.4</ele>
        <time>2021-03-03T11:05:05Z</time>
      </trkpt>
      <trkpt lat="42.9298480" lon="-8.4166160">
        <ele>341.4</ele>
        <time>2021-03-03T11:05:06Z</time>
      </trkpt>
      <trkpt lat="42.9298300" lon="-8.4165960">
        <ele>341.6</ele>
        <time>2021-03-03T11:05:07Z</time>
      </trkpt>
      <trkpt lat="42.9298140" lon="-8.4165770">
        <ele>341.8</ele>
        <time>2021-03-03T11:05:08Z</time>
      </trkpt>
      <trkpt lat="42.9298020" lon="-8.4165620">
        <ele>342.0</ele>
        <time>2021-03-03T11:05:09Z</time>
      </trkpt>
      <trkpt lat="42.9297820" lon="-8.4165490">
        <ele>342.2</ele>
        <time>2021-03-03T11:05:10Z</time>
      </trkpt>
      <trkpt lat="42.9297660" lon="-8.4165350">
        <ele>342.4</ele>
        <time>2021-03-03T11:05:11Z</time>
      </trkpt>
      <trkpt lat="42.9297500" lon="-8.4165210">
        <ele>342.4</ele>
        <time>2021-03-03T11:05:12Z</time>
      </trkpt>
      <trkpt lat="42.9297330" lon="-8.4165090">
        <ele>342.8</ele>
        <time>2021-03-03T11:05:13Z</time>
      </trkpt>
      <trkpt lat="42.9297180" lon="-8.4165010">
        <ele>343.0</ele>
        <time>2021-03-03T11:05:14Z</time>
      </trkpt>
      <trkpt lat="42.9296990" lon="-8.4164950">
        <ele>343.0</ele>
        <time>2021-03-03T11:05:15Z</time>
      </trkpt>
      <trkpt lat="42.9296780" lon="-8.4164830">
        <ele>343.2</ele>
        <time>2021-03-03T11:05:16Z</time>
      </trkpt>
      <trkpt lat="42.9296640" lon="-8.4164690">
        <ele>343.4</ele>
        <time>2021-03-03T11:05:17Z</time>
      </trkpt>
      <trkpt lat="42.9296500" lon="-8.4164530">
        <ele>343.4</ele>
        <time>2021-03-03T11:05:18Z</time>
      </trkpt>
      <trkpt lat="42.9296350" lon="-8.4164440">
        <ele>343.8</ele>
        <time>2021-03-03T11:05:19Z</time>
      </trkpt>
      <trkpt lat="42.9296160" lon="-8.4164360">
        <ele>343.8</ele>
        <time>2021-03-03T11:05:20Z</time>
      </trkpt>
      <trkpt lat="42.9296000" lon="-8.4164240">
        <ele>344.0</ele>
        <time>2021-03-03T11:05:21Z</time>
      </trkpt>
      <trkpt lat="42.9295860" lon="-8.4164150">
        <ele>344.0</ele>
        <time>2021-03-03T11:05:22Z</time>
      </trkpt>
      <trkpt lat="42.9295690" lon="-8.4164050">
        <ele>344.0</ele>
        <time>2021-03-03T11:05:23Z</time>
      </trkpt>
      <trkpt lat="42.9295530" lon="-8.4163940">
        <ele>344.0</ele>
        <time>2021-03-03T11:05:24Z</time>
      </trkpt>
      <trkpt lat="42.9295390" lon="-8.4163830">
        <ele>344.0</ele>
        <time>2021-03-03T11:05:25Z</time>
      </trkpt>
      <trkpt lat="42.9295240" lon="-8.4163740">
        <ele>344.2</ele>
        <time>2021-03-03T11:05:26Z</time>
      </trkpt>
      <trkpt lat="42.9295080" lon="-8.4163650">
        <ele>344.2</ele>
        <time>2021-03-03T11:05:27Z</time>
      </trkpt>
      <trkpt lat="42.9294910" lon="-8.4163550">
        <ele>344.4</ele>
        <time>2021-03-03T11:05:28Z</time>
      </trkpt>
      <trkpt lat="42.9294750" lon="-8.4163460">
        <ele>344.4</ele>
        <time>2021-03-03T11:05:29Z</time>
      </trkpt>
      <trkpt lat="42.9294580" lon="-8.4163360">
        <ele>344.6</ele>
        <time>2021-03-03T11:05:30Z</time>
      </trkpt>
      <trkpt lat="42.9294430" lon="-8.4163300">
        <ele>344.6</ele>
        <time>2021-03-03T11:05:31Z</time>
      </trkpt>
      <trkpt lat="42.9294260" lon="-8.4163200">
        <ele>344.8</ele>
        <time>2021-03-03T11:05:32Z</time>
      </trkpt>
      <trkpt lat="42.9294060" lon="-8.4163080">
        <ele>345.0</ele>
        <time>2021-03-03T11:05:33Z</time>
      </trkpt>
      <trkpt lat="42.9293860" lon="-8.4162910">
        <ele>345.2</ele>
        <time>2021-03-03T11:05:34Z</time>
      </trkpt>
      <trkpt lat="42.9293640" lon="-8.4162720">
        <ele>345.2</ele>
        <time>2021-03-03T11:05:35Z</time>
      </trkpt>
      <trkpt lat="42.9293380" lon="-8.4162530">
        <ele>345.4</ele>
        <time>2021-03-03T11:05:36Z</time>
      </trkpt>
      <trkpt lat="42.9293140" lon="-8.4162250">
        <ele>345.4</ele>
        <time>2021-03-03T11:05:37Z</time>
      </trkpt>
      <trkpt lat="42.9292940" lon="-8.4162020">
        <ele>345.6</ele>
        <time>2021-03-03T11:05:38Z</time>
      </trkpt>
      <trkpt lat="42.9292690" lon="-8.4161790">
        <ele>345.6</ele>
        <time>2021-03-03T11:05:39Z</time>
      </trkpt>
      <trkpt lat="42.9292460" lon="-8.4161520">
        <ele>345.8</ele>
        <time>2021-03-03T11:05:40Z</time>
      </trkpt>
      <trkpt lat="42.9292220" lon="-8.4161290">
        <ele>345.8</ele>
        <time>2021-03-03T11:05:41Z</time>
      </trkpt>
      <trkpt lat="42.9291960" lon="-8.4161030">
        <ele>345.8</ele>
        <time>2021-03-03T11:05:42Z</time>
      </trkpt>
      <trkpt lat="42.9291710" lon="-8.4160770">
        <ele>345.8</ele>
        <time>2021-03-03T11:05:43Z</time>
      </trkpt>
      <trkpt lat="42.9291430" lon="-8.4160490">
        <ele>345.8</ele>
        <time>2021-03-03T11:05:44Z</time>
      </trkpt>
      <trkpt lat="42.9291140" lon="-8.4160230">
        <ele>345.8</ele>
        <time>2021-03-03T11:05:45Z</time>
      </trkpt>
      <trkpt lat="42.9290900" lon="-8.4160000">
        <ele>345.8</ele>
        <time>2021-03-03T11:05:46Z</time>
      </trkpt>
      <trkpt lat="42.9290670" lon="-8.4159740">
        <ele>346.4</ele>
        <time>2021-03-03T11:05:47Z</time>
      </trkpt>
      <trkpt lat="42.9290430" lon="-8.4159490">
        <ele>346.4</ele>
        <time>2021-03-03T11:05:48Z</time>
      </trkpt>
      <trkpt lat="42.9290200" lon="-8.4159250">
        <ele>346.4</ele>
        <time>2021-03-03T11:05:49Z</time>
      </trkpt>
      <trkpt lat="42.9289960" lon="-8.4158990">
        <ele>346.4</ele>
        <time>2021-03-03T11:05:50Z</time>
      </trkpt>
      <trkpt lat="42.9289710" lon="-8.4158740">
        <ele>346.2</ele>
        <time>2021-03-03T11:05:51Z</time>
      </trkpt>
      <trkpt lat="42.9289470" lon="-8.4158500">
        <ele>346.0</ele>
        <time>2021-03-03T11:05:52Z</time>
      </trkpt>
      <trkpt lat="42.9289240" lon="-8.4158250">
        <ele>346.0</ele>
        <time>2021-03-03T11:05:53Z</time>
      </trkpt>
      <trkpt lat="42.9289020" lon="-8.4158020">
        <ele>346.0</ele>
        <time>2021-03-03T11:05:54Z</time>
      </trkpt>
      <trkpt lat="42.9288780" lon="-8.4157800">
        <ele>346.0</ele>
        <time>2021-03-03T11:05:55Z</time>
      </trkpt>
      <trkpt lat="42.9288520" lon="-8.4157610">
        <ele>345.8</ele>
        <time>2021-03-03T11:05:56Z</time>
      </trkpt>
      <trkpt lat="42.9288260" lon="-8.4157430">
        <ele>345.8</ele>
        <time>2021-03-03T11:05:57Z</time>
      </trkpt>
      <trkpt lat="42.9288010" lon="-8.4157270">
        <ele>345.6</ele>
        <time>2021-03-03T11:05:58Z</time>
      </trkpt>
      <trkpt lat="42.9287750" lon="-8.4157120">
        <ele>345.4</ele>
        <time>2021-03-03T11:05:59Z</time>
      </trkpt>
      <trkpt lat="42.9287490" lon="-8.4156940">
        <ele>345.4</ele>
        <time>2021-03-03T11:06:00Z</time>
      </trkpt>
      <trkpt lat="42.9287240" lon="-8.4156710">
        <ele>345.2</ele>
        <time>2021-03-03T11:06:01Z</time>
      </trkpt>
      <trkpt lat="42.9286990" lon="-8.4156470">
        <ele>345.2</ele>
        <time>2021-03-03T11:06:02Z</time>
      </trkpt>
      <trkpt lat="42.9286750" lon="-8.4156180">
        <ele>345.2</ele>
        <time>2021-03-03T11:06:03Z</time>
      </trkpt>
      <trkpt lat="42.9286500" lon="-8.4155930">
        <ele>345.0</ele>
        <time>2021-03-03T11:06:04Z</time>
      </trkpt>
      <trkpt lat="42.9286270" lon="-8.4155730">
        <ele>345.0</ele>
        <time>2021-03-03T11:06:05Z</time>
      </trkpt>
      <trkpt lat="42.9286050" lon="-8.4155500">
        <ele>344.8</ele>
        <time>2021-03-03T11:06:06Z</time>
      </trkpt>
      <trkpt lat="42.9285790" lon="-8.4155110">
        <ele>344.8</ele>
        <time>2021-03-03T11:06:07Z</time>
      </trkpt>
      <trkpt lat="42.9285530" lon="-8.4154840">
        <ele>344.8</ele>
        <time>2021-03-03T11:06:08Z</time>
      </trkpt>
      <trkpt lat="42.9285260" lon="-8.4154610">
        <ele>344.6</ele>
        <time>2021-03-03T11:06:09Z</time>
      </trkpt>
      <trkpt lat="42.9284950" lon="-8.4154380">
        <ele>344.6</ele>
        <time>2021-03-03T11:06:10Z</time>
      </trkpt>
      <trkpt lat="42.9284750" lon="-8.4154290">
        <ele>344.4</ele>
        <time>2021-03-03T11:06:11Z</time>
      </trkpt>
      <trkpt lat="42.9284470" lon="-8.4154050">
        <ele>344.4</ele>
        <time>2021-03-03T11:06:12Z</time>
      </trkpt>
      <trkpt lat="42.9284210" lon="-8.4153790">
        <ele>344.4</ele>
        <time>2021-03-03T11:06:13Z</time>
      </trkpt>
      <trkpt lat="42.9283970" lon="-8.4153630">
        <ele>344.2</ele>
        <time>2021-03-03T11:06:14Z</time>
      </trkpt>
      <trkpt lat="42.9283970" lon="-8.4153630">
        <ele>344.2</ele>
        <time>2021-03-03T11:06:15Z</time>
      </trkpt>
      <trkpt lat="42.9283470" lon="-8.4153280">
        <ele>344.0</ele>
        <time>2021-03-03T11:06:16Z</time>
      </trkpt>
      <trkpt lat="42.9283200" lon="-8.4153090">
        <ele>343.6</ele>
        <time>2021-03-03T11:06:17Z</time>
      </trkpt>
      <trkpt lat="42.9282940" lon="-8.4152900">
        <ele>343.6</ele>
        <time>2021-03-03T11:06:18Z</time>
      </trkpt>
      <trkpt lat="42.9282650" lon="-8.4152690">
        <ele>343.6</ele>
        <time>2021-03-03T11:06:19Z</time>
      </trkpt>
      <trkpt lat="42.9282420" lon="-8.4152550">
        <ele>343.6</ele>
        <time>2021-03-03T11:06:20Z</time>
      </trkpt>
      <trkpt lat="42.9282200" lon="-8.4152320">
        <ele>343.2</ele>
        <time>2021-03-03T11:06:21Z</time>
      </trkpt>
      <trkpt lat="42.9282050" lon="-8.4152060">
        <ele>343.0</ele>
        <time>2021-03-03T11:06:22Z</time>
      </trkpt>
      <trkpt lat="42.9281940" lon="-8.4151810">
        <ele>342.8</ele>
        <time>2021-03-03T11:06:23Z</time>
      </trkpt>
      <trkpt lat="42.9281850" lon="-8.4151500">
        <ele>342.6</ele>
        <time>2021-03-03T11:06:24Z</time>
      </trkpt>
      <trkpt lat="42.9281810" lon="-8.4151190">
        <ele>342.4</ele>
        <time>2021-03-03T11:06:25Z</time>
      </trkpt>
      <trkpt lat="42.9281710" lon="-8.4150870">
        <ele>342.2</ele>
        <time>2021-03-03T11:06:26Z</time>
      </trkpt>
      <trkpt lat="42.9281630" lon="-8.4150520">
        <ele>342.2</ele>
        <time>2021-03-03T11:06:27Z</time>
      </trkpt>
      <trkpt lat="42.9281560" lon="-8.4150140">
        <ele>342.0</ele>
        <time>2021-03-03T11:06:28Z</time>
      </trkpt>
      <trkpt lat="42.9281470" lon="-8.4149740">
        <ele>342.0</ele>
        <time>2021-03-03T11:06:29Z</time>
      </trkpt>
      <trkpt lat="42.9281460" lon="-8.4149380">
        <ele>342.0</ele>
        <time>2021-03-03T11:06:30Z</time>
      </trkpt>
      <trkpt lat="42.9281410" lon="-8.4149090">
        <ele>342.0</ele>
        <time>2021-03-03T11:06:31Z</time>
      </trkpt>
      <trkpt lat="42.9281470" lon="-8.4148960">
        <ele>342.0</ele>
        <time>2021-03-03T11:06:32Z</time>
      </trkpt>
      <trkpt lat="42.9281470" lon="-8.4148960">
        <ele>342.2</ele>
        <time>2021-03-03T11:06:33Z</time>
      </trkpt>
      <trkpt lat="42.9281510" lon="-8.4148960">
        <ele>342.2</ele>
        <time>2021-03-03T11:06:34Z</time>
      </trkpt>
      <trkpt lat="42.9281540" lon="-8.4149010">
        <ele>342.2</ele>
        <time>2021-03-03T11:06:35Z</time>
      </trkpt>
      <trkpt lat="42.9281510" lon="-8.4149060">
        <ele>342.2</ele>
        <time>2021-03-03T11:06:36Z</time>
      </trkpt>
      <trkpt lat="42.9281490" lon="-8.4149110">
        <ele>342.2</ele>
        <time>2021-03-03T11:06:37Z</time>
      </trkpt>
      <trkpt lat="42.9281410" lon="-8.4149070">
        <ele>342.2</ele>
        <time>2021-03-03T11:06:38Z</time>
      </trkpt>
      <trkpt lat="42.9281280" lon="-8.4148990">
        <ele>342.2</ele>
        <time>2021-03-03T11:06:39Z</time>
      </trkpt>
      <trkpt lat="42.9281320" lon="-8.4148990">
        <ele>342.2</ele>
        <time>2021-03-03T11:06:40Z</time>
      </trkpt>
      <trkpt lat="42.9281370" lon="-8.4149010">
        <ele>342.2</ele>
        <time>2021-03-03T11:06:41Z</time>
      </trkpt>
      <trkpt lat="42.9281370" lon="-8.4149010">
        <ele>342.2</ele>
        <time>2021-03-03T11:06:42Z</time>
      </trkpt>
      <trkpt lat="42.9281460" lon="-8.4148930">
        <ele>342.2</ele>
        <time>2021-03-03T11:06:43Z</time>
      </trkpt>
      <trkpt lat="42.9281500" lon="-8.4148890">
        <ele>342.2</ele>
        <time>2021-03-03T11:06:44Z</time>
      </trkpt>
      <trkpt lat="42.9281500" lon="-8.4148890">
        <ele>342.2</ele>
        <time>2021-03-03T11:06:45Z</time>
      </trkpt>
      <trkpt lat="42.9281500" lon="-8.4148890">
        <ele>342.0</ele>
        <time>2021-03-03T11:06:46Z</time>
      </trkpt>
      <trkpt lat="42.9281500" lon="-8.4148890">
        <ele>342.0</ele>
        <time>2021-03-03T11:06:47Z</time>
      </trkpt>
      <trkpt lat="42.9281500" lon="-8.4148890">
        <ele>342.0</ele>
        <time>2021-03-03T11:06:48Z</time>
      </trkpt>
      <trkpt lat="42.9281500" lon="-8.4148890">
        <ele>342.0</ele>
        <time>2021-03-03T11:06:49Z</time>
      </trkpt>
      <trkpt lat="42.9281500" lon="-8.4148890">
        <ele>342.0</ele>
        <time>2021-03-03T11:06:50Z</time>
      </trkpt>
      <trkpt lat="42.9281500" lon="-8.4148890">
        <ele>342.0</ele>
        <time>2021-03-03T11:06:51Z</time>
      </trkpt>
      <trkpt lat="42.9281500" lon="-8.4148890">
        <ele>342.0</ele>
        <time>2021-03-03T11:06:52Z</time>
      </trkpt>
      <trkpt lat="42.9281490" lon="-8.4148810">
        <ele>342.0</ele>
        <time>2021-03-03T11:06:53Z</time>
      </trkpt>
      <trkpt lat="42.9281420" lon="-8.4148560">
        <ele>342.0</ele>
        <time>2021-03-03T11:06:54Z</time>
      </trkpt>
      <trkpt lat="42.9281440" lon="-8.4148350">
        <ele>342.2</ele>
        <time>2021-03-03T11:06:55Z</time>
      </trkpt>
      <trkpt lat="42.9281450" lon="-8.4148210">
        <ele>342.4</ele>
        <time>2021-03-03T11:06:56Z</time>
      </trkpt>
      <trkpt lat="42.9281460" lon="-8.4148030">
        <ele>342.4</ele>
        <time>2021-03-03T11:06:57Z</time>
      </trkpt>
      <trkpt lat="42.9281430" lon="-8.4147830">
        <ele>342.4</ele>
        <time>2021-03-03T11:06:58Z</time>
      </trkpt>
      <trkpt lat="42.9281370" lon="-8.4147580">
        <ele>342.6</ele>
        <time>2021-03-03T11:06:59Z</time>
      </trkpt>
      <trkpt lat="42.9281370" lon="-8.4147580">
        <ele>342.6</ele>
        <time>2021-03-03T11:07:00Z</time>
      </trkpt>
      <trkpt lat="42.9281280" lon="-8.4147130">
        <ele>342.8</ele>
        <time>2021-03-03T11:07:01Z</time>
      </trkpt>
      <trkpt lat="42.9281250" lon="-8.4146930">
        <ele>342.8</ele>
        <time>2021-03-03T11:07:02Z</time>
      </trkpt>
      <trkpt lat="42.9281190" lon="-8.4146710">
        <ele>343.0</ele>
        <time>2021-03-03T11:07:03Z</time>
      </trkpt>
      <trkpt lat="42.9281150" lon="-8.4146560">
        <ele>343.2</ele>
        <time>2021-03-03T11:07:04Z</time>
      </trkpt>
      <trkpt lat="42.9281120" lon="-8.4146380">
        <ele>343.4</ele>
        <time>2021-03-03T11:07:05Z</time>
      </trkpt>
      <trkpt lat="42.9281120" lon="-8.4146220">
        <ele>343.8</ele>
        <time>2021-03-03T11:07:06Z</time>
      </trkpt>
      <trkpt lat="42.9281130" lon="-8.4146010">
        <ele>344.0</ele>
        <time>2021-03-03T11:07:07Z</time>
      </trkpt>
      <trkpt lat="42.9281120" lon="-8.4145790">
        <ele>344.2</ele>
        <time>2021-03-03T11:07:08Z</time>
      </trkpt>
      <trkpt lat="42.9281080" lon="-8.4145580">
        <ele>344.2</ele>
        <time>2021-03-03T11:07:09Z</time>
      </trkpt>
      <trkpt lat="42.9281080" lon="-8.4145380">
        <ele>344.4</ele>
        <time>2021-03-03T11:07:10Z</time>
      </trkpt>
      <trkpt lat="42.9281100" lon="-8.4145250">
        <ele>344.6</ele>
        <time>2021-03-03T11:07:11Z</time>
      </trkpt>
      <trkpt lat="42.9281110" lon="-8.4145060">
        <ele>344.6</ele>
        <time>2021-03-03T11:07:12Z</time>
      </trkpt>
      <trkpt lat="42.9281070" lon="-8.4144770">
        <ele>344.8</ele>
        <time>2021-03-03T11:07:13Z</time>
      </trkpt>
      <trkpt lat="42.9281070" lon="-8.4144530">
        <ele>344.8</ele>
        <time>2021-03-03T11:07:14Z</time>
      </trkpt>
      <trkpt lat="42.9281070" lon="-8.4144270">
        <ele>345.0</ele>
        <time>2021-03-03T11:07:15Z</time>
      </trkpt>
      <trkpt lat="42.9281070" lon="-8.4144090">
        <ele>345.0</ele>
        <time>2021-03-03T11:07:16Z</time>
      </trkpt>
      <trkpt lat="42.9281030" lon="-8.4143870">
        <ele>345.2</ele>
        <time>2021-03-03T11:07:17Z</time>
      </trkpt>
      <trkpt lat="42.9280990" lon="-8.4143620">
        <ele>345.2</ele>
        <time>2021-03-03T11:07:18Z</time>
      </trkpt>
      <trkpt lat="42.9280950" lon="-8.4143310">
        <ele>345.4</ele>
        <time>2021-03-03T11:07:19Z</time>
      </trkpt>
      <trkpt lat="42.9280970" lon="-8.4143000">
        <ele>345.4</ele>
        <time>2021-03-03T11:07:20Z</time>
      </trkpt>
      <trkpt lat="42.9280970" lon="-8.4142690">
        <ele>345.6</ele>
        <time>2021-03-03T11:07:21Z</time>
      </trkpt>
      <trkpt lat="42.9280970" lon="-8.4142380">
        <ele>345.8</ele>
        <time>2021-03-03T11:07:22Z</time>
      </trkpt>
      <trkpt lat="42.9280950" lon="-8.4142080">
        <ele>346.0</ele>
        <time>2021-03-03T11:07:23Z</time>
      </trkpt>
      <trkpt lat="42.9280940" lon="-8.4141760">
        <ele>346.6</ele>
        <time>2021-03-03T11:07:24Z</time>
      </trkpt>
      <trkpt lat="42.9280930" lon="-8.4141370">
        <ele>346.8</ele>
        <time>2021-03-03T11:07:25Z</time>
      </trkpt>
      <trkpt lat="42.9280930" lon="-8.4141110">
        <ele>347.0</ele>
        <time>2021-03-03T11:07:26Z</time>
      </trkpt>
      <trkpt lat="42.9280940" lon="-8.4140780">
        <ele>347.2</ele>
        <time>2021-03-03T11:07:27Z</time>
      </trkpt>
      <trkpt lat="42.9280930" lon="-8.4140430">
        <ele>347.2</ele>
        <time>2021-03-03T11:07:28Z</time>
      </trkpt>
      <trkpt lat="42.9280900" lon="-8.4140110">
        <ele>347.6</ele>
        <time>2021-03-03T11:07:29Z</time>
      </trkpt>
      <trkpt lat="42.9280890" lon="-8.4139810">
        <ele>347.8</ele>
        <time>2021-03-03T11:07:30Z</time>
      </trkpt>
      <trkpt lat="42.9280900" lon="-8.4139480">
        <ele>348.0</ele>
        <time>2021-03-03T11:07:31Z</time>
      </trkpt>
      <trkpt lat="42.9280920" lon="-8.4139110">
        <ele>348.2</ele>
        <time>2021-03-03T11:07:32Z</time>
      </trkpt>
      <trkpt lat="42.9280930" lon="-8.4138720">
        <ele>348.4</ele>
        <time>2021-03-03T11:07:33Z</time>
      </trkpt>
      <trkpt lat="42.9280890" lon="-8.4138360">
        <ele>348.4</ele>
        <time>2021-03-03T11:07:34Z</time>
      </trkpt>
      <trkpt lat="42.9280880" lon="-8.4138000">
        <ele>348.4</ele>
        <time>2021-03-03T11:07:35Z</time>
      </trkpt>
      <trkpt lat="42.9280880" lon="-8.4137650">
        <ele>348.4</ele>
        <time>2021-03-03T11:07:36Z</time>
      </trkpt>
      <trkpt lat="42.9280860" lon="-8.4137310">
        <ele>348.6</ele>
        <time>2021-03-03T11:07:37Z</time>
      </trkpt>
      <trkpt lat="42.9280830" lon="-8.4136930">
        <ele>348.6</ele>
        <time>2021-03-03T11:07:38Z</time>
      </trkpt>
      <trkpt lat="42.9280800" lon="-8.4136560">
        <ele>348.8</ele>
        <time>2021-03-03T11:07:39Z</time>
      </trkpt>
      <trkpt lat="42.9280780" lon="-8.4136230">
        <ele>349.0</ele>
        <time>2021-03-03T11:07:40Z</time>
      </trkpt>
      <trkpt lat="42.9280800" lon="-8.4135870">
        <ele>349.0</ele>
        <time>2021-03-03T11:07:41Z</time>
      </trkpt>
      <trkpt lat="42.9280900" lon="-8.4135570">
        <ele>349.2</ele>
        <time>2021-03-03T11:07:42Z</time>
      </trkpt>
      <trkpt lat="42.9280940" lon="-8.4135200">
        <ele>349.2</ele>
        <time>2021-03-03T11:07:43Z</time>
      </trkpt>
      <trkpt lat="42.9280960" lon="-8.4134830">
        <ele>349.2</ele>
        <time>2021-03-03T11:07:44Z</time>
      </trkpt>
      <trkpt lat="42.9280990" lon="-8.4134450">
        <ele>349.2</ele>
        <time>2021-03-03T11:07:45Z</time>
      </trkpt>
      <trkpt lat="42.9281010" lon="-8.4134100">
        <ele>349.2</ele>
        <time>2021-03-03T11:07:46Z</time>
      </trkpt>
      <trkpt lat="42.9281040" lon="-8.4133710">
        <ele>349.4</ele>
        <time>2021-03-03T11:07:47Z</time>
      </trkpt>
      <trkpt lat="42.9281080" lon="-8.4133310">
        <ele>350.2</ele>
        <time>2021-03-03T11:07:48Z</time>
      </trkpt>
      <trkpt lat="42.9281110" lon="-8.4132920">
        <ele>350.2</ele>
        <time>2021-03-03T11:07:49Z</time>
      </trkpt>
      <trkpt lat="42.9281140" lon="-8.4132530">
        <ele>350.2</ele>
        <time>2021-03-03T11:07:50Z</time>
      </trkpt>
      <trkpt lat="42.9281140" lon="-8.4132130">
        <ele>350.2</ele>
        <time>2021-03-03T11:07:51Z</time>
      </trkpt>
      <trkpt lat="42.9281080" lon="-8.4131690">
        <ele>350.4</ele>
        <time>2021-03-03T11:07:52Z</time>
      </trkpt>
      <trkpt lat="42.9281040" lon="-8.4131330">
        <ele>350.8</ele>
        <time>2021-03-03T11:07:53Z</time>
      </trkpt>
      <trkpt lat="42.9281000" lon="-8.4130980">
        <ele>351.0</ele>
        <time>2021-03-03T11:07:54Z</time>
      </trkpt>
      <trkpt lat="42.9280980" lon="-8.4130610">
        <ele>351.0</ele>
        <time>2021-03-03T11:07:55Z</time>
      </trkpt>
      <trkpt lat="42.9280910" lon="-8.4130270">
        <ele>351.2</ele>
        <time>2021-03-03T11:07:56Z</time>
      </trkpt>
      <trkpt lat="42.9280910" lon="-8.4130270">
        <ele>351.4</ele>
        <time>2021-03-03T11:07:57Z</time>
      </trkpt>
      <trkpt lat="42.9280840" lon="-8.4129570">
        <ele>351.4</ele>
        <time>2021-03-03T11:07:58Z</time>
      </trkpt>
      <trkpt lat="42.9280810" lon="-8.4129230">
        <ele>351.6</ele>
        <time>2021-03-03T11:07:59Z</time>
      </trkpt>
      <trkpt lat="42.9280770" lon="-8.4128870">
        <ele>351.6</ele>
        <time>2021-03-03T11:08:00Z</time>
      </trkpt>
      <trkpt lat="42.9280690" lon="-8.4128480">
        <ele>351.8</ele>
        <time>2021-03-03T11:08:01Z</time>
      </trkpt>
      <trkpt lat="42.9280630" lon="-8.4128100">
        <ele>351.8</ele>
        <time>2021-03-03T11:08:02Z</time>
      </trkpt>
      <trkpt lat="42.9280590" lon="-8.4127720">
        <ele>351.8</ele>
        <time>2021-03-03T11:08:03Z</time>
      </trkpt>
      <trkpt lat="42.9280580" lon="-8.4127320">
        <ele>352.0</ele>
        <time>2021-03-03T11:08:04Z</time>
      </trkpt>
      <trkpt lat="42.9280530" lon="-8.4126830">
        <ele>352.0</ele>
        <time>2021-03-03T11:08:05Z</time>
      </trkpt>
      <trkpt lat="42.9280500" lon="-8.4126530">
        <ele>352.0</ele>
        <time>2021-03-03T11:08:06Z</time>
      </trkpt>
      <trkpt lat="42.9280390" lon="-8.4126170">
        <ele>352.0</ele>
        <time>2021-03-03T11:08:07Z</time>
      </trkpt>
      <trkpt lat="42.9280260" lon="-8.4125820">
        <ele>352.0</ele>
        <time>2021-03-03T11:08:08Z</time>
      </trkpt>
      <trkpt lat="42.9280110" lon="-8.4125500">
        <ele>352.0</ele>
        <time>2021-03-03T11:08:09Z</time>
      </trkpt>
      <trkpt lat="42.9279960" lon="-8.4125150">
        <ele>352.0</ele>
        <time>2021-03-03T11:08:10Z</time>
      </trkpt>
      <trkpt lat="42.9279810" lon="-8.4124660">
        <ele>352.0</ele>
        <time>2021-03-03T11:08:11Z</time>
      </trkpt>
      <trkpt lat="42.9279810" lon="-8.4124660">
        <ele>352.0</ele>
        <time>2021-03-03T11:08:12Z</time>
      </trkpt>
      <trkpt lat="42.9279510" lon="-8.4123870">
        <ele>352.2</ele>
        <time>2021-03-03T11:08:13Z</time>
      </trkpt>
      <trkpt lat="42.9279380" lon="-8.4123490">
        <ele>352.2</ele>
        <time>2021-03-03T11:08:14Z</time>
      </trkpt>
      <trkpt lat="42.9279230" lon="-8.4123170">
        <ele>352.6</ele>
        <time>2021-03-03T11:08:15Z</time>
      </trkpt>
      <trkpt lat="42.9279090" lon="-8.4122790">
        <ele>352.8</ele>
        <time>2021-03-03T11:08:16Z</time>
      </trkpt>
      <trkpt lat="42.9278950" lon="-8.4122370">
        <ele>353.0</ele>
        <time>2021-03-03T11:08:17Z</time>
      </trkpt>
      <trkpt lat="42.9278750" lon="-8.4121940">
        <ele>353.2</ele>
        <time>2021-03-03T11:08:18Z</time>
      </trkpt>
      <trkpt lat="42.9278540" lon="-8.4121450">
        <ele>353.2</ele>
        <time>2021-03-03T11:08:19Z</time>
      </trkpt>
      <trkpt lat="42.9278390" lon="-8.4121070">
        <ele>353.4</ele>
        <time>2021-03-03T11:08:20Z</time>
      </trkpt>
      <trkpt lat="42.9278220" lon="-8.4120630">
        <ele>353.6</ele>
        <time>2021-03-03T11:08:21Z</time>
      </trkpt>
      <trkpt lat="42.9278060" lon="-8.4120300">
        <ele>353.8</ele>
        <time>2021-03-03T11:08:22Z</time>
      </trkpt>
      <trkpt lat="42.9277900" lon="-8.4119960">
        <ele>354.0</ele>
        <time>2021-03-03T11:08:23Z</time>
      </trkpt>
      <trkpt lat="42.9277750" lon="-8.4119610">
        <ele>354.0</ele>
        <time>2021-03-03T11:08:24Z</time>
      </trkpt>
      <trkpt lat="42.9277590" lon="-8.4119280">
        <ele>354.4</ele>
        <time>2021-03-03T11:08:25Z</time>
      </trkpt>
      <trkpt lat="42.9277420" lon="-8.4118940">
        <ele>354.4</ele>
        <time>2021-03-03T11:08:26Z</time>
      </trkpt>
      <trkpt lat="42.9277290" lon="-8.4118620">
        <ele>354.4</ele>
        <time>2021-03-03T11:08:27Z</time>
      </trkpt>
      <trkpt lat="42.9277120" lon="-8.4118240">
        <ele>354.6</ele>
        <time>2021-03-03T11:08:28Z</time>
      </trkpt>
      <trkpt lat="42.9276930" lon="-8.4117850">
        <ele>354.6</ele>
        <time>2021-03-03T11:08:29Z</time>
      </trkpt>
      <trkpt lat="42.9276740" lon="-8.4117550">
        <ele>354.8</ele>
        <time>2021-03-03T11:08:30Z</time>
      </trkpt>
      <trkpt lat="42.9276600" lon="-8.4117290">
        <ele>354.8</ele>
        <time>2021-03-03T11:08:31Z</time>
      </trkpt>
      <trkpt lat="42.9276420" lon="-8.4116950">
        <ele>354.8</ele>
        <time>2021-03-03T11:08:32Z</time>
      </trkpt>
      <trkpt lat="42.9276260" lon="-8.4116630">
        <ele>354.8</ele>
        <time>2021-03-03T11:08:33Z</time>
      </trkpt>
      <trkpt lat="42.9276090" lon="-8.4116210">
        <ele>354.6</ele>
        <time>2021-03-03T11:08:34Z</time>
      </trkpt>
      <trkpt lat="42.9275960" lon="-8.4115760">
        <ele>354.6</ele>
        <time>2021-03-03T11:08:35Z</time>
      </trkpt>
      <trkpt lat="42.9275830" lon="-8.4115450">
        <ele>354.6</ele>
        <time>2021-03-03T11:08:36Z</time>
      </trkpt>
      <trkpt lat="42.9275680" lon="-8.4115060">
        <ele>354.4</ele>
        <time>2021-03-03T11:08:37Z</time>
      </trkpt>
      <trkpt lat="42.9275540" lon="-8.4114730">
        <ele>354.6</ele>
        <time>2021-03-03T11:08:38Z</time>
      </trkpt>
      <trkpt lat="42.9275340" lon="-8.4114320">
        <ele>354.8</ele>
        <time>2021-03-03T11:08:39Z</time>
      </trkpt>
      <trkpt lat="42.9275210" lon="-8.4114030">
        <ele>354.8</ele>
        <time>2021-03-03T11:08:40Z</time>
      </trkpt>
      <trkpt lat="42.9275090" lon="-8.4113770">
        <ele>354.8</ele>
        <time>2021-03-03T11:08:41Z</time>
      </trkpt>
      <trkpt lat="42.9274900" lon="-8.4113450">
        <ele>354.8</ele>
        <time>2021-03-03T11:08:42Z</time>
      </trkpt>
      <trkpt lat="42.9274700" lon="-8.4113110">
        <ele>354.8</ele>
        <time>2021-03-03T11:08:43Z</time>
      </trkpt>
      <trkpt lat="42.9274460" lon="-8.4112700">
        <ele>354.8</ele>
        <time>2021-03-03T11:08:44Z</time>
      </trkpt>
      <trkpt lat="42.9274260" lon="-8.4112350">
        <ele>354.8</ele>
        <time>2021-03-03T11:08:45Z</time>
      </trkpt>
      <trkpt lat="42.9274120" lon="-8.4112110">
        <ele>354.6</ele>
        <time>2021-03-03T11:08:46Z</time>
      </trkpt>
      <trkpt lat="42.9273990" lon="-8.4111810">
        <ele>354.6</ele>
        <time>2021-03-03T11:08:47Z</time>
      </trkpt>
      <trkpt lat="42.9273930" lon="-8.4111480">
        <ele>354.4</ele>
        <time>2021-03-03T11:08:48Z</time>
      </trkpt>
      <trkpt lat="42.9273820" lon="-8.4111060">
        <ele>354.4</ele>
        <time>2021-03-03T11:08:49Z</time>
      </trkpt>
      <trkpt lat="42.9273680" lon="-8.4110710">
        <ele>354.4</ele>
        <time>2021-03-03T11:08:50Z</time>
      </trkpt>
      <trkpt lat="42.9273540" lon="-8.4110400">
        <ele>354.4</ele>
        <time>2021-03-03T11:08:51Z</time>
      </trkpt>
      <trkpt lat="42.9273400" lon="-8.4110050">
        <ele>354.6</ele>
        <time>2021-03-03T11:08:52Z</time>
      </trkpt>
      <trkpt lat="42.9273250" lon="-8.4109690">
        <ele>354.8</ele>
        <time>2021-03-03T11:08:53Z</time>
      </trkpt>
      <trkpt lat="42.9273060" lon="-8.4109310">
        <ele>354.8</ele>
        <time>2021-03-03T11:08:54Z</time>
      </trkpt>
      <trkpt lat="42.9272850" lon="-8.4109000">
        <ele>355.0</ele>
        <time>2021-03-03T11:08:55Z</time>
      </trkpt>
      <trkpt lat="42.9272690" lon="-8.4108720">
        <ele>355.0</ele>
        <time>2021-03-03T11:08:56Z</time>
      </trkpt>
      <trkpt lat="42.9272550" lon="-8.4108370">
        <ele>355.0</ele>
        <time>2021-03-03T11:08:57Z</time>
      </trkpt>
      <trkpt lat="42.9272400" lon="-8.4108040">
        <ele>355.2</ele>
        <time>2021-03-03T11:08:58Z</time>
      </trkpt>
      <trkpt lat="42.9272250" lon="-8.4107660">
        <ele>355.6</ele>
        <time>2021-03-03T11:08:59Z</time>
      </trkpt>
      <trkpt lat="42.9272100" lon="-8.4107340">
        <ele>354.6</ele>
        <time>2021-03-03T11:09:00Z</time>
      </trkpt>
      <trkpt lat="42.9272000" lon="-8.4107080">
        <ele>354.6</ele>
        <time>2021-03-03T11:09:01Z</time>
      </trkpt>
      <trkpt lat="42.9271830" lon="-8.4106740">
        <ele>354.6</ele>
        <time>2021-03-03T11:09:02Z</time>
      </trkpt>
      <trkpt lat="42.9271700" lon="-8.4106470">
        <ele>355.0</ele>
        <time>2021-03-03T11:09:03Z</time>
      </trkpt>
      <trkpt lat="42.9271590" lon="-8.4106100">
        <ele>355.4</ele>
        <time>2021-03-03T11:09:04Z</time>
      </trkpt>
      <trkpt lat="42.9271500" lon="-8.4105790">
        <ele>355.8</ele>
        <time>2021-03-03T11:09:05Z</time>
      </trkpt>
      <trkpt lat="42.9271430" lon="-8.4105570">
        <ele>356.0</ele>
        <time>2021-03-03T11:09:06Z</time>
      </trkpt>
      <trkpt lat="42.9271300" lon="-8.4105310">
        <ele>356.2</ele>
        <time>2021-03-03T11:09:07Z</time>
      </trkpt>
      <trkpt lat="42.9271190" lon="-8.4105080">
        <ele>356.4</ele>
        <time>2021-03-03T11:09:08Z</time>
      </trkpt>
      <trkpt lat="42.9271070" lon="-8.4104780">
        <ele>356.8</ele>
        <time>2021-03-03T11:09:09Z</time>
      </trkpt>
      <trkpt lat="42.9270980" lon="-8.4104540">
        <ele>357.0</ele>
        <time>2021-03-03T11:09:10Z</time>
      </trkpt>
      <trkpt lat="42.9270870" lon="-8.4104230">
        <ele>357.2</ele>
        <time>2021-03-03T11:09:11Z</time>
      </trkpt>
      <trkpt lat="42.9270760" lon="-8.4103950">
        <ele>357.6</ele>
        <time>2021-03-03T11:09:12Z</time>
      </trkpt>
      <trkpt lat="42.9270670" lon="-8.4103670">
        <ele>358.0</ele>
        <time>2021-03-03T11:09:13Z</time>
      </trkpt>
      <trkpt lat="42.9270600" lon="-8.4103380">
        <ele>358.2</ele>
        <time>2021-03-03T11:09:14Z</time>
      </trkpt>
      <trkpt lat="42.9270490" lon="-8.4103170">
        <ele>358.6</ele>
        <time>2021-03-03T11:09:15Z</time>
      </trkpt>
      <trkpt lat="42.9270410" lon="-8.4102980">
        <ele>359.2</ele>
        <time>2021-03-03T11:09:16Z</time>
      </trkpt>
      <trkpt lat="42.9270330" lon="-8.4102760">
        <ele>359.4</ele>
        <time>2021-03-03T11:09:17Z</time>
      </trkpt>
      <trkpt lat="42.9270240" lon="-8.4102540">
        <ele>359.6</ele>
        <time>2021-03-03T11:09:18Z</time>
      </trkpt>
      <trkpt lat="42.9270150" lon="-8.4102280">
        <ele>359.8</ele>
        <time>2021-03-03T11:09:19Z</time>
      </trkpt>
      <trkpt lat="42.9270070" lon="-8.4102090">
        <ele>360.0</ele>
        <time>2021-03-03T11:09:20Z</time>
      </trkpt>
      <trkpt lat="42.9269970" lon="-8.4101870">
        <ele>360.2</ele>
        <time>2021-03-03T11:09:21Z</time>
      </trkpt>
      <trkpt lat="42.9269880" lon="-8.4101650">
        <ele>360.4</ele>
        <time>2021-03-03T11:09:22Z</time>
      </trkpt>
      <trkpt lat="42.9269790" lon="-8.4101420">
        <ele>360.6</ele>
        <time>2021-03-03T11:09:23Z</time>
      </trkpt>
      <trkpt lat="42.9269710" lon="-8.4101200">
        <ele>361.0</ele>
        <time>2021-03-03T11:09:24Z</time>
      </trkpt>
      <trkpt lat="42.9269630" lon="-8.4101000">
        <ele>361.2</ele>
        <time>2021-03-03T11:09:25Z</time>
      </trkpt>
      <trkpt lat="42.9269580" lon="-8.4100820">
        <ele>361.4</ele>
        <time>2021-03-03T11:09:26Z</time>
      </trkpt>
      <trkpt lat="42.9269520" lon="-8.4100640">
        <ele>361.6</ele>
        <time>2021-03-03T11:09:27Z</time>
      </trkpt>
      <trkpt lat="42.9269460" lon="-8.4100420">
        <ele>361.6</ele>
        <time>2021-03-03T11:09:28Z</time>
      </trkpt>
      <trkpt lat="42.9269390" lon="-8.4100190">
        <ele>361.8</ele>
        <time>2021-03-03T11:09:29Z</time>
      </trkpt>
      <trkpt lat="42.9269300" lon="-8.4099950">
        <ele>362.2</ele>
        <time>2021-03-03T11:09:30Z</time>
      </trkpt>
      <trkpt lat="42.9269230" lon="-8.4099810">
        <ele>362.4</ele>
        <time>2021-03-03T11:09:31Z</time>
      </trkpt>
      <trkpt lat="42.9269170" lon="-8.4099620">
        <ele>362.6</ele>
        <time>2021-03-03T11:09:32Z</time>
      </trkpt>
      <trkpt lat="42.9269070" lon="-8.4099420">
        <ele>362.8</ele>
        <time>2021-03-03T11:09:33Z</time>
      </trkpt>
      <trkpt lat="42.9268980" lon="-8.4099230">
        <ele>363.0</ele>
        <time>2021-03-03T11:09:34Z</time>
      </trkpt>
      <trkpt lat="42.9268870" lon="-8.4098980">
        <ele>363.2</ele>
        <time>2021-03-03T11:09:35Z</time>
      </trkpt>
      <trkpt lat="42.9268790" lon="-8.4098810">
        <ele>363.2</ele>
        <time>2021-03-03T11:09:36Z</time>
      </trkpt>
      <trkpt lat="42.9268680" lon="-8.4098580">
        <ele>363.4</ele>
        <time>2021-03-03T11:09:37Z</time>
      </trkpt>
      <trkpt lat="42.9268570" lon="-8.4098350">
        <ele>363.6</ele>
        <time>2021-03-03T11:09:38Z</time>
      </trkpt>
      <trkpt lat="42.9268420" lon="-8.4098100">
        <ele>363.8</ele>
        <time>2021-03-03T11:09:39Z</time>
      </trkpt>
      <trkpt lat="42.9268340" lon="-8.4097910">
        <ele>364.2</ele>
        <time>2021-03-03T11:09:40Z</time>
      </trkpt>
      <trkpt lat="42.9268270" lon="-8.4097750">
        <ele>364.4</ele>
        <time>2021-03-03T11:09:41Z</time>
      </trkpt>
      <trkpt lat="42.9268200" lon="-8.4097540">
        <ele>364.6</ele>
        <time>2021-03-03T11:09:42Z</time>
      </trkpt>
      <trkpt lat="42.9268140" lon="-8.4097350">
        <ele>364.8</ele>
        <time>2021-03-03T11:09:43Z</time>
      </trkpt>
      <trkpt lat="42.9268050" lon="-8.4097090">
        <ele>364.8</ele>
        <time>2021-03-03T11:09:44Z</time>
      </trkpt>
      <trkpt lat="42.9268050" lon="-8.4097090">
        <ele>365.0</ele>
        <time>2021-03-03T11:09:45Z</time>
      </trkpt>
      <trkpt lat="42.9267930" lon="-8.4096720">
        <ele>365.0</ele>
        <time>2021-03-03T11:09:46Z</time>
      </trkpt>
      <trkpt lat="42.9267920" lon="-8.4096480">
        <ele>365.0</ele>
        <time>2021-03-03T11:09:47Z</time>
      </trkpt>
      <trkpt lat="42.9267750" lon="-8.4096170">
        <ele>365.4</ele>
        <time>2021-03-03T11:09:48Z</time>
      </trkpt>
      <trkpt lat="42.9267560" lon="-8.4095900">
        <ele>365.6</ele>
        <time>2021-03-03T11:09:49Z</time>
      </trkpt>
      <trkpt lat="42.9267390" lon="-8.4095730">
        <ele>365.8</ele>
        <time>2021-03-03T11:09:50Z</time>
      </trkpt>
      <trkpt lat="42.9267330" lon="-8.4095620">
        <ele>366.0</ele>
        <time>2021-03-03T11:09:51Z</time>
      </trkpt>
      <trkpt lat="42.9267260" lon="-8.4095430">
        <ele>366.0</ele>
        <time>2021-03-03T11:09:52Z</time>
      </trkpt>
      <trkpt lat="42.9267200" lon="-8.4095220">
        <ele>366.0</ele>
        <time>2021-03-03T11:09:53Z</time>
      </trkpt>
      <trkpt lat="42.9267130" lon="-8.4094940">
        <ele>366.0</ele>
        <time>2021-03-03T11:09:54Z</time>
      </trkpt>
      <trkpt lat="42.9267010" lon="-8.4094760">
        <ele>366.0</ele>
        <time>2021-03-03T11:09:55Z</time>
      </trkpt>
      <trkpt lat="42.9266910" lon="-8.4094550">
        <ele>366.0</ele>
        <time>2021-03-03T11:09:56Z</time>
      </trkpt>
      <trkpt lat="42.9266850" lon="-8.4094380">
        <ele>366.0</ele>
        <time>2021-03-03T11:09:57Z</time>
      </trkpt>
      <trkpt lat="42.9266740" lon="-8.4094170">
        <ele>366.0</ele>
        <time>2021-03-03T11:09:58Z</time>
      </trkpt>
      <trkpt lat="42.9266640" lon="-8.4093870">
        <ele>366.0</ele>
        <time>2021-03-03T11:09:59Z</time>
      </trkpt>
      <trkpt lat="42.9266530" lon="-8.4093580">
        <ele>366.0</ele>
        <time>2021-03-03T11:10:00Z</time>
      </trkpt>
      <trkpt lat="42.9266440" lon="-8.4093340">
        <ele>366.2</ele>
        <time>2021-03-03T11:10:01Z</time>
      </trkpt>
      <trkpt lat="42.9266370" lon="-8.4093060">
        <ele>366.2</ele>
        <time>2021-03-03T11:10:02Z</time>
      </trkpt>
      <trkpt lat="42.9266280" lon="-8.4092740">
        <ele>366.4</ele>
        <time>2021-03-03T11:10:03Z</time>
      </trkpt>
      <trkpt lat="42.9266170" lon="-8.4092410">
        <ele>366.4</ele>
        <time>2021-03-03T11:10:04Z</time>
      </trkpt>
      <trkpt lat="42.9266070" lon="-8.4092110">
        <ele>366.6</ele>
        <time>2021-03-03T11:10:05Z</time>
      </trkpt>
      <trkpt lat="42.9265940" lon="-8.4091810">
        <ele>367.0</ele>
        <time>2021-03-03T11:10:06Z</time>
      </trkpt>
      <trkpt lat="42.9265940" lon="-8.4091810">
        <ele>367.2</ele>
        <time>2021-03-03T11:10:07Z</time>
      </trkpt>
      <trkpt lat="42.9265710" lon="-8.4091290">
        <ele>367.2</ele>
        <time>2021-03-03T11:10:08Z</time>
      </trkpt>
      <trkpt lat="42.9265580" lon="-8.4090920">
        <ele>367.4</ele>
        <time>2021-03-03T11:10:09Z</time>
      </trkpt>
      <trkpt lat="42.9265460" lon="-8.4090640">
        <ele>367.4</ele>
        <time>2021-03-03T11:10:10Z</time>
      </trkpt>
      <trkpt lat="42.9265390" lon="-8.4090380">
        <ele>367.4</ele>
        <time>2021-03-03T11:10:11Z</time>
      </trkpt>
      <trkpt lat="42.9265240" lon="-8.4090050">
        <ele>367.4</ele>
        <time>2021-03-03T11:10:12Z</time>
      </trkpt>
      <trkpt lat="42.9265080" lon="-8.4089690">
        <ele>367.4</ele>
        <time>2021-03-03T11:10:13Z</time>
      </trkpt>
      <trkpt lat="42.9264950" lon="-8.4089320">
        <ele>367.4</ele>
        <time>2021-03-03T11:10:14Z</time>
      </trkpt>
      <trkpt lat="42.9264840" lon="-8.4089030">
        <ele>367.4</ele>
        <time>2021-03-03T11:10:15Z</time>
      </trkpt>
      <trkpt lat="42.9264680" lon="-8.4088580">
        <ele>367.4</ele>
        <time>2021-03-03T11:10:16Z</time>
      </trkpt>
      <trkpt lat="42.9264570" lon="-8.4088270">
        <ele>367.4</ele>
        <time>2021-03-03T11:10:17Z</time>
      </trkpt>
      <trkpt lat="42.9264470" lon="-8.4087910">
        <ele>367.4</ele>
        <time>2021-03-03T11:10:18Z</time>
      </trkpt>
      <trkpt lat="42.9264320" lon="-8.4087500">
        <ele>368.0</ele>
        <time>2021-03-03T11:10:19Z</time>
      </trkpt>
      <trkpt lat="42.9264180" lon="-8.4087200">
        <ele>367.6</ele>
        <time>2021-03-03T11:10:20Z</time>
      </trkpt>
      <trkpt lat="42.9264040" lon="-8.4086900">
        <ele>368.0</ele>
        <time>2021-03-03T11:10:21Z</time>
      </trkpt>
      <trkpt lat="42.9264040" lon="-8.4086900">
        <ele>368.4</ele>
        <time>2021-03-03T11:10:22Z</time>
      </trkpt>
      <trkpt lat="42.9263780" lon="-8.4086380">
        <ele>368.4</ele>
        <time>2021-03-03T11:10:23Z</time>
      </trkpt>
      <trkpt lat="42.9263590" lon="-8.4086000">
        <ele>368.6</ele>
        <time>2021-03-03T11:10:24Z</time>
      </trkpt>
      <trkpt lat="42.9263450" lon="-8.4085630">
        <ele>369.0</ele>
        <time>2021-03-03T11:10:25Z</time>
      </trkpt>
      <trkpt lat="42.9263310" lon="-8.4085280">
        <ele>369.0</ele>
        <time>2021-03-03T11:10:26Z</time>
      </trkpt>
      <trkpt lat="42.9263170" lon="-8.4084980">
        <ele>369.2</ele>
        <time>2021-03-03T11:10:27Z</time>
      </trkpt>
      <trkpt lat="42.9263030" lon="-8.4084690">
        <ele>369.2</ele>
        <time>2021-03-03T11:10:28Z</time>
      </trkpt>
      <trkpt lat="42.9262880" lon="-8.4084420">
        <ele>369.4</ele>
        <time>2021-03-03T11:10:29Z</time>
      </trkpt>
      <trkpt lat="42.9262710" lon="-8.4084140">
        <ele>369.6</ele>
        <time>2021-03-03T11:10:30Z</time>
      </trkpt>
      <trkpt lat="42.9262540" lon="-8.4083870">
        <ele>369.8</ele>
        <time>2021-03-03T11:10:31Z</time>
      </trkpt>
      <trkpt lat="42.9262350" lon="-8.4083580">
        <ele>369.8</ele>
        <time>2021-03-03T11:10:32Z</time>
      </trkpt>
      <trkpt lat="42.9262150" lon="-8.4083280">
        <ele>369.8</ele>
        <time>2021-03-03T11:10:33Z</time>
      </trkpt>
      <trkpt lat="42.9261970" lon="-8.4082990">
        <ele>370.0</ele>
        <time>2021-03-03T11:10:34Z</time>
      </trkpt>
      <trkpt lat="42.9261790" lon="-8.4082720">
        <ele>370.0</ele>
        <time>2021-03-03T11:10:35Z</time>
      </trkpt>
      <trkpt lat="42.9261650" lon="-8.4082540">
        <ele>370.0</ele>
        <time>2021-03-03T11:10:36Z</time>
      </trkpt>
      <trkpt lat="42.9261450" lon="-8.4082260">
        <ele>370.8</ele>
        <time>2021-03-03T11:10:37Z</time>
      </trkpt>
      <trkpt lat="42.9261270" lon="-8.4082000">
        <ele>370.8</ele>
        <time>2021-03-03T11:10:38Z</time>
      </trkpt>
      <trkpt lat="42.9261020" lon="-8.4081680">
        <ele>370.8</ele>
        <time>2021-03-03T11:10:39Z</time>
      </trkpt>
      <trkpt lat="42.9260820" lon="-8.4081400">
        <ele>370.8</ele>
        <time>2021-03-03T11:10:40Z</time>
      </trkpt>
      <trkpt lat="42.9260630" lon="-8.4081170">
        <ele>370.8</ele>
        <time>2021-03-03T11:10:41Z</time>
      </trkpt>
      <trkpt lat="42.9260400" lon="-8.4080910">
        <ele>370.4</ele>
        <time>2021-03-03T11:10:42Z</time>
      </trkpt>
      <trkpt lat="42.9260170" lon="-8.4080670">
        <ele>370.2</ele>
        <time>2021-03-03T11:10:43Z</time>
      </trkpt>
      <trkpt lat="42.9259930" lon="-8.4080430">
        <ele>370.2</ele>
        <time>2021-03-03T11:10:44Z</time>
      </trkpt>
      <trkpt lat="42.9259650" lon="-8.4080160">
        <ele>370.6</ele>
        <time>2021-03-03T11:10:45Z</time>
      </trkpt>
      <trkpt lat="42.9259460" lon="-8.4079980">
        <ele>370.6</ele>
        <time>2021-03-03T11:10:46Z</time>
      </trkpt>
      <trkpt lat="42.9259200" lon="-8.4079780">
        <ele>370.8</ele>
        <time>2021-03-03T11:10:47Z</time>
      </trkpt>
      <trkpt lat="42.9258920" lon="-8.4079590">
        <ele>370.8</ele>
        <time>2021-03-03T11:10:48Z</time>
      </trkpt>
      <trkpt lat="42.9258610" lon="-8.4079380">
        <ele>371.0</ele>
        <time>2021-03-03T11:10:49Z</time>
      </trkpt>
      <trkpt lat="42.9258340" lon="-8.4079200">
        <ele>371.2</ele>
        <time>2021-03-03T11:10:50Z</time>
      </trkpt>
      <trkpt lat="42.9258340" lon="-8.4079200">
        <ele>371.2</ele>
        <time>2021-03-03T11:10:51Z</time>
      </trkpt>
      <trkpt lat="42.9257870" lon="-8.4078870">
        <ele>371.2</ele>
        <time>2021-03-03T11:10:52Z</time>
      </trkpt>
      <trkpt lat="42.9257610" lon="-8.4078650">
        <ele>371.4</ele>
        <time>2021-03-03T11:10:53Z</time>
      </trkpt>
      <trkpt lat="42.9257340" lon="-8.4078440">
        <ele>371.6</ele>
        <time>2021-03-03T11:10:54Z</time>
      </trkpt>
      <trkpt lat="42.9257070" lon="-8.4078280">
        <ele>372.0</ele>
        <time>2021-03-03T11:10:55Z</time>
      </trkpt>
      <trkpt lat="42.9256800" lon="-8.4078110">
        <ele>372.0</ele>
        <time>2021-03-03T11:10:56Z</time>
      </trkpt>
      <trkpt lat="42.9256510" lon="-8.4077940">
        <ele>372.0</ele>
        <time>2021-03-03T11:10:57Z</time>
      </trkpt>
      <trkpt lat="42.9256230" lon="-8.4077810">
        <ele>372.2</ele>
        <time>2021-03-03T11:10:58Z</time>
      </trkpt>
      <trkpt lat="42.9255940" lon="-8.4077680">
        <ele>372.0</ele>
        <time>2021-03-03T11:10:59Z</time>
      </trkpt>
      <trkpt lat="42.9255670" lon="-8.4077600">
        <ele>372.2</ele>
        <time>2021-03-03T11:11:00Z</time>
      </trkpt>
      <trkpt lat="42.9255380" lon="-8.4077490">
        <ele>372.0</ele>
        <time>2021-03-03T11:11:01Z</time>
      </trkpt>
      <trkpt lat="42.9255380" lon="-8.4077490">
        <ele>372.0</ele>
        <time>2021-03-03T11:11:02Z</time>
      </trkpt>
      <trkpt lat="42.9254820" lon="-8.4077280">
        <ele>372.0</ele>
        <time>2021-03-03T11:11:03Z</time>
      </trkpt>
      <trkpt lat="42.9254480" lon="-8.4077150">
        <ele>372.0</ele>
        <time>2021-03-03T11:11:04Z</time>
      </trkpt>
      <trkpt lat="42.9254260" lon="-8.4077040">
        <ele>372.0</ele>
        <time>2021-03-03T11:11:05Z</time>
      </trkpt>
      <trkpt lat="42.9253980" lon="-8.4076890">
        <ele>372.6</ele>
        <time>2021-03-03T11:11:06Z</time>
      </trkpt>
      <trkpt lat="42.9253980" lon="-8.4076890">
        <ele>372.4</ele>
        <time>2021-03-03T11:11:07Z</time>
      </trkpt>
      <trkpt lat="42.9253460" lon="-8.4076550">
        <ele>372.8</ele>
        <time>2021-03-03T11:11:08Z</time>
      </trkpt>
      <trkpt lat="42.9253100" lon="-8.4076340">
        <ele>373.0</ele>
        <time>2021-03-03T11:11:09Z</time>
      </trkpt>
      <trkpt lat="42.9252850" lon="-8.4076200">
        <ele>373.0</ele>
        <time>2021-03-03T11:11:10Z</time>
      </trkpt>
      <trkpt lat="42.9252580" lon="-8.4076060">
        <ele>373.2</ele>
        <time>2021-03-03T11:11:11Z</time>
      </trkpt>
      <trkpt lat="42.9252280" lon="-8.4075930">
        <ele>373.0</ele>
        <time>2021-03-03T11:11:12Z</time>
      </trkpt>
      <trkpt lat="42.9251990" lon="-8.4075790">
        <ele>372.8</ele>
        <time>2021-03-03T11:11:13Z</time>
      </trkpt>
      <trkpt lat="42.9251710" lon="-8.4075630">
        <ele>372.8</ele>
        <time>2021-03-03T11:11:14Z</time>
      </trkpt>
      <trkpt lat="42.9251370" lon="-8.4075460">
        <ele>372.6</ele>
        <time>2021-03-03T11:11:15Z</time>
      </trkpt>
      <trkpt lat="42.9251160" lon="-8.4075350">
        <ele>372.6</ele>
        <time>2021-03-03T11:11:16Z</time>
      </trkpt>
      <trkpt lat="42.9250880" lon="-8.4075210">
        <ele>372.6</ele>
        <time>2021-03-03T11:11:17Z</time>
      </trkpt>
      <trkpt lat="42.9250600" lon="-8.4075110">
        <ele>372.6</ele>
        <time>2021-03-03T11:11:18Z</time>
      </trkpt>
      <trkpt lat="42.9250330" lon="-8.4075000">
        <ele>372.6</ele>
        <time>2021-03-03T11:11:19Z</time>
      </trkpt>
      <trkpt lat="42.9250030" lon="-8.4074880">
        <ele>373.2</ele>
        <time>2021-03-03T11:11:20Z</time>
      </trkpt>
      <trkpt lat="42.9249810" lon="-8.4074790">
        <ele>373.0</ele>
        <time>2021-03-03T11:11:21Z</time>
      </trkpt>
      <trkpt lat="42.9249570" lon="-8.4074690">
        <ele>373.4</ele>
        <time>2021-03-03T11:11:22Z</time>
      </trkpt>
      <trkpt lat="42.9249320" lon="-8.4074550">
        <ele>373.6</ele>
        <time>2021-03-03T11:11:23Z</time>
      </trkpt>
      <trkpt lat="42.9249040" lon="-8.4074380">
        <ele>373.6</ele>
        <time>2021-03-03T11:11:24Z</time>
      </trkpt>
      <trkpt lat="42.9248700" lon="-8.4074160">
        <ele>373.8</ele>
        <time>2021-03-03T11:11:25Z</time>
      </trkpt>
      <trkpt lat="42.9248460" lon="-8.4073980">
        <ele>373.8</ele>
        <time>2021-03-03T11:11:26Z</time>
      </trkpt>
      <trkpt lat="42.9248200" lon="-8.4073750">
        <ele>373.8</ele>
        <time>2021-03-03T11:11:27Z</time>
      </trkpt>
      <trkpt lat="42.9247920" lon="-8.4073540">
        <ele>373.8</ele>
        <time>2021-03-03T11:11:28Z</time>
      </trkpt>
      <trkpt lat="42.9247650" lon="-8.4073360">
        <ele>373.8</ele>
        <time>2021-03-03T11:11:29Z</time>
      </trkpt>
      <trkpt lat="42.9247380" lon="-8.4073190">
        <ele>373.8</ele>
        <time>2021-03-03T11:11:30Z</time>
      </trkpt>
      <trkpt lat="42.9247090" lon="-8.4073040">
        <ele>374.0</ele>
        <time>2021-03-03T11:11:31Z</time>
      </trkpt>
      <trkpt lat="42.9246830" lon="-8.4072900">
        <ele>374.0</ele>
        <time>2021-03-03T11:11:32Z</time>
      </trkpt>
      <trkpt lat="42.9246570" lon="-8.4072750">
        <ele>374.0</ele>
        <time>2021-03-03T11:11:33Z</time>
      </trkpt>
      <trkpt lat="42.9246300" lon="-8.4072600">
        <ele>374.0</ele>
        <time>2021-03-03T11:11:34Z</time>
      </trkpt>
      <trkpt lat="42.9245980" lon="-8.4072400">
        <ele>374.2</ele>
        <time>2021-03-03T11:11:35Z</time>
      </trkpt>
      <trkpt lat="42.9245790" lon="-8.4072290">
        <ele>374.2</ele>
        <time>2021-03-03T11:11:36Z</time>
      </trkpt>
      <trkpt lat="42.9245520" lon="-8.4072130">
        <ele>374.2</ele>
        <time>2021-03-03T11:11:37Z</time>
      </trkpt>
      <trkpt lat="42.9245260" lon="-8.4071960">
        <ele>374.4</ele>
        <time>2021-03-03T11:11:38Z</time>
      </trkpt>
      <trkpt lat="42.9245000" lon="-8.4071770">
        <ele>374.6</ele>
        <time>2021-03-03T11:11:39Z</time>
      </trkpt>
      <trkpt lat="42.9244730" lon="-8.4071570">
        <ele>374.8</ele>
        <time>2021-03-03T11:11:40Z</time>
      </trkpt>
      <trkpt lat="42.9244460" lon="-8.4071430">
        <ele>374.8</ele>
        <time>2021-03-03T11:11:41Z</time>
      </trkpt>
      <trkpt lat="42.9244190" lon="-8.4071310">
        <ele>375.0</ele>
        <time>2021-03-03T11:11:42Z</time>
      </trkpt>
      <trkpt lat="42.9243950" lon="-8.4071270">
        <ele>375.0</ele>
        <time>2021-03-03T11:11:43Z</time>
      </trkpt>
      <trkpt lat="42.9243640" lon="-8.4071250">
        <ele>375.0</ele>
        <time>2021-03-03T11:11:44Z</time>
      </trkpt>
      <trkpt lat="42.9243420" lon="-8.4071230">
        <ele>375.0</ele>
        <time>2021-03-03T11:11:45Z</time>
      </trkpt>
      <trkpt lat="42.9243200" lon="-8.4071310">
        <ele>375.2</ele>
        <time>2021-03-03T11:11:46Z</time>
      </trkpt>
      <trkpt lat="42.9242960" lon="-8.4071480">
        <ele>375.2</ele>
        <time>2021-03-03T11:11:47Z</time>
      </trkpt>
      <trkpt lat="42.9242800" lon="-8.4071730">
        <ele>375.2</ele>
        <time>2021-03-03T11:11:48Z</time>
      </trkpt>
      <trkpt lat="42.9242710" lon="-8.4071970">
        <ele>375.4</ele>
        <time>2021-03-03T11:11:49Z</time>
      </trkpt>
      <trkpt lat="42.9242630" lon="-8.4072200">
        <ele>375.8</ele>
        <time>2021-03-03T11:11:50Z</time>
      </trkpt>
      <trkpt lat="42.9242550" lon="-8.4072400">
        <ele>376.0</ele>
        <time>2021-03-03T11:11:51Z</time>
      </trkpt>
      <trkpt lat="42.9242490" lon="-8.4072630">
        <ele>377.2</ele>
        <time>2021-03-03T11:11:52Z</time>
      </trkpt>
      <trkpt lat="42.9242470" lon="-8.4072890">
        <ele>377.2</ele>
        <time>2021-03-03T11:11:53Z</time>
      </trkpt>
      <trkpt lat="42.9242490" lon="-8.4073160">
        <ele>377.2</ele>
        <time>2021-03-03T11:11:54Z</time>
      </trkpt>
      <trkpt lat="42.9242490" lon="-8.4073410">
        <ele>377.2</ele>
        <time>2021-03-03T11:11:55Z</time>
      </trkpt>
      <trkpt lat="42.9242480" lon="-8.4073690">
        <ele>377.2</ele>
        <time>2021-03-03T11:11:56Z</time>
      </trkpt>
      <trkpt lat="42.9242420" lon="-8.4073940">
        <ele>377.4</ele>
        <time>2021-03-03T11:11:57Z</time>
      </trkpt>
      <trkpt lat="42.9242380" lon="-8.4074200">
        <ele>377.6</ele>
        <time>2021-03-03T11:11:58Z</time>
      </trkpt>
      <trkpt lat="42.9242360" lon="-8.4074470">
        <ele>377.6</ele>
        <time>2021-03-03T11:11:59Z</time>
      </trkpt>
      <trkpt lat="42.9242370" lon="-8.4074730">
        <ele>377.8</ele>
        <time>2021-03-03T11:12:00Z</time>
      </trkpt>
      <trkpt lat="42.9242350" lon="-8.4074970">
        <ele>378.0</ele>
        <time>2021-03-03T11:12:01Z</time>
      </trkpt>
      <trkpt lat="42.9242360" lon="-8.4075210">
        <ele>378.2</ele>
        <time>2021-03-03T11:12:02Z</time>
      </trkpt>
      <trkpt lat="42.9242340" lon="-8.4075430">
        <ele>378.4</ele>
        <time>2021-03-03T11:12:03Z</time>
      </trkpt>
      <trkpt lat="42.9242310" lon="-8.4075660">
        <ele>378.6</ele>
        <time>2021-03-03T11:12:04Z</time>
      </trkpt>
      <trkpt lat="42.9242270" lon="-8.4075930">
        <ele>378.6</ele>
        <time>2021-03-03T11:12:05Z</time>
      </trkpt>
      <trkpt lat="42.9242220" lon="-8.4076230">
        <ele>379.0</ele>
        <time>2021-03-03T11:12:06Z</time>
      </trkpt>
      <trkpt lat="42.9242200" lon="-8.4076540">
        <ele>379.2</ele>
        <time>2021-03-03T11:12:07Z</time>
      </trkpt>
      <trkpt lat="42.9242180" lon="-8.4076820">
        <ele>379.4</ele>
        <time>2021-03-03T11:12:08Z</time>
      </trkpt>
      <trkpt lat="42.9242190" lon="-8.4077080">
        <ele>379.4</ele>
        <time>2021-03-03T11:12:09Z</time>
      </trkpt>
      <trkpt lat="42.9242160" lon="-8.4077360">
        <ele>379.4</ele>
        <time>2021-03-03T11:12:10Z</time>
      </trkpt>
      <trkpt lat="42.9242130" lon="-8.4077530">
        <ele>379.6</ele>
        <time>2021-03-03T11:12:11Z</time>
      </trkpt>
      <trkpt lat="42.9242120" lon="-8.4077780">
        <ele>380.0</ele>
        <time>2021-03-03T11:12:12Z</time>
      </trkpt>
      <trkpt lat="42.9242120" lon="-8.4078040">
        <ele>380.0</ele>
        <time>2021-03-03T11:12:13Z</time>
      </trkpt>
      <trkpt lat="42.9242090" lon="-8.4078300">
        <ele>380.2</ele>
        <time>2021-03-03T11:12:14Z</time>
      </trkpt>
      <trkpt lat="42.9242080" lon="-8.4078580">
        <ele>380.2</ele>
        <time>2021-03-03T11:12:15Z</time>
      </trkpt>
      <trkpt lat="42.9242100" lon="-8.4078890">
        <ele>380.2</ele>
        <time>2021-03-03T11:12:16Z</time>
      </trkpt>
      <trkpt lat="42.9242060" lon="-8.4079130">
        <ele>380.4</ele>
        <time>2021-03-03T11:12:17Z</time>
      </trkpt>
      <trkpt lat="42.9242020" lon="-8.4079410">
        <ele>380.4</ele>
        <time>2021-03-03T11:12:18Z</time>
      </trkpt>
      <trkpt lat="42.9241990" lon="-8.4079700">
        <ele>380.6</ele>
        <time>2021-03-03T11:12:19Z</time>
      </trkpt>
      <trkpt lat="42.9241960" lon="-8.4080000">
        <ele>380.6</ele>
        <time>2021-03-03T11:12:20Z</time>
      </trkpt>
      <trkpt lat="42.9241910" lon="-8.4080340">
        <ele>380.6</ele>
        <time>2021-03-03T11:12:21Z</time>
      </trkpt>
      <trkpt lat="42.9241920" lon="-8.4080600">
        <ele>380.8</ele>
        <time>2021-03-03T11:12:22Z</time>
      </trkpt>
      <trkpt lat="42.9241890" lon="-8.4080950">
        <ele>380.8</ele>
        <time>2021-03-03T11:12:23Z</time>
      </trkpt>
      <trkpt lat="42.9241870" lon="-8.4081290">
        <ele>380.8</ele>
        <time>2021-03-03T11:12:24Z</time>
      </trkpt>
      <trkpt lat="42.9241850" lon="-8.4081690">
        <ele>380.8</ele>
        <time>2021-03-03T11:12:25Z</time>
      </trkpt>
      <trkpt lat="42.9241820" lon="-8.4081960">
        <ele>381.0</ele>
        <time>2021-03-03T11:12:26Z</time>
      </trkpt>
      <trkpt lat="42.9241790" lon="-8.4082290">
        <ele>381.0</ele>
        <time>2021-03-03T11:12:27Z</time>
      </trkpt>
      <trkpt lat="42.9241750" lon="-8.4082670">
        <ele>381.2</ele>
        <time>2021-03-03T11:12:28Z</time>
      </trkpt>
      <trkpt lat="42.9241700" lon="-8.4083050">
        <ele>381.2</ele>
        <time>2021-03-03T11:12:29Z</time>
      </trkpt>
      <trkpt lat="42.9241700" lon="-8.4083360">
        <ele>381.4</ele>
        <time>2021-03-03T11:12:30Z</time>
      </trkpt>
      <trkpt lat="42.9241750" lon="-8.4083660">
        <ele>381.4</ele>
        <time>2021-03-03T11:12:31Z</time>
      </trkpt>
      <trkpt lat="42.9241780" lon="-8.4083960">
        <ele>381.4</ele>
        <time>2021-03-03T11:12:32Z</time>
      </trkpt>
      <trkpt lat="42.9241770" lon="-8.4084340">
        <ele>381.6</ele>
        <time>2021-03-03T11:12:33Z</time>
      </trkpt>
      <trkpt lat="42.9241780" lon="-8.4084600">
        <ele>381.6</ele>
        <time>2021-03-03T11:12:34Z</time>
      </trkpt>
      <trkpt lat="42.9241760" lon="-8.4084920">
        <ele>381.6</ele>
        <time>2021-03-03T11:12:35Z</time>
      </trkpt>
      <trkpt lat="42.9241690" lon="-8.4085310">
        <ele>381.6</ele>
        <time>2021-03-03T11:12:36Z</time>
      </trkpt>
      <trkpt lat="42.9241640" lon="-8.4085630">
        <ele>381.6</ele>
        <time>2021-03-03T11:12:37Z</time>
      </trkpt>
      <trkpt lat="42.9241580" lon="-8.4086050">
        <ele>381.6</ele>
        <time>2021-03-03T11:12:38Z</time>
      </trkpt>
      <trkpt lat="42.9241530" lon="-8.4086480">
        <ele>381.6</ele>
        <time>2021-03-03T11:12:39Z</time>
      </trkpt>
      <trkpt lat="42.9241490" lon="-8.4086860">
        <ele>381.6</ele>
        <time>2021-03-03T11:12:40Z</time>
      </trkpt>
      <trkpt lat="42.9241440" lon="-8.4087280">
        <ele>381.6</ele>
        <time>2021-03-03T11:12:41Z</time>
      </trkpt>
      <trkpt lat="42.9241430" lon="-8.4087680">
        <ele>381.6</ele>
        <time>2021-03-03T11:12:42Z</time>
      </trkpt>
      <trkpt lat="42.9241360" lon="-8.4088030">
        <ele>381.6</ele>
        <time>2021-03-03T11:12:43Z</time>
      </trkpt>
      <trkpt lat="42.9241320" lon="-8.4088460">
        <ele>381.6</ele>
        <time>2021-03-03T11:12:44Z</time>
      </trkpt>
      <trkpt lat="42.9241320" lon="-8.4088780">
        <ele>381.6</ele>
        <time>2021-03-03T11:12:45Z</time>
      </trkpt>
      <trkpt lat="42.9241250" lon="-8.4089130">
        <ele>381.4</ele>
        <time>2021-03-03T11:12:46Z</time>
      </trkpt>
      <trkpt lat="42.9241220" lon="-8.4089460">
        <ele>381.4</ele>
        <time>2021-03-03T11:12:47Z</time>
      </trkpt>
      <trkpt lat="42.9241190" lon="-8.4089790">
        <ele>381.6</ele>
        <time>2021-03-03T11:12:48Z</time>
      </trkpt>
      <trkpt lat="42.9241160" lon="-8.4090120">
        <ele>381.4</ele>
        <time>2021-03-03T11:12:49Z</time>
      </trkpt>
      <trkpt lat="42.9241140" lon="-8.4090460">
        <ele>381.6</ele>
        <time>2021-03-03T11:12:50Z</time>
      </trkpt>
      <trkpt lat="42.9241130" lon="-8.4090770">
        <ele>381.6</ele>
        <time>2021-03-03T11:12:51Z</time>
      </trkpt>
      <trkpt lat="42.9241130" lon="-8.4091130">
        <ele>381.6</ele>
        <time>2021-03-03T11:12:52Z</time>
      </trkpt>
      <trkpt lat="42.9241110" lon="-8.4091460">
        <ele>381.6</ele>
        <time>2021-03-03T11:12:53Z</time>
      </trkpt>
      <trkpt lat="42.9241030" lon="-8.4091800">
        <ele>381.6</ele>
        <time>2021-03-03T11:12:54Z</time>
      </trkpt>
      <trkpt lat="42.9240950" lon="-8.4092140">
        <ele>381.6</ele>
        <time>2021-03-03T11:12:55Z</time>
      </trkpt>
      <trkpt lat="42.9240940" lon="-8.4092470">
        <ele>381.6</ele>
        <time>2021-03-03T11:12:56Z</time>
      </trkpt>
      <trkpt lat="42.9240910" lon="-8.4092800">
        <ele>381.6</ele>
        <time>2021-03-03T11:12:57Z</time>
      </trkpt>
      <trkpt lat="42.9240910" lon="-8.4093150">
        <ele>381.6</ele>
        <time>2021-03-03T11:12:58Z</time>
      </trkpt>
      <trkpt lat="42.9240920" lon="-8.4093510">
        <ele>381.6</ele>
        <time>2021-03-03T11:12:59Z</time>
      </trkpt>
      <trkpt lat="42.9240920" lon="-8.4093870">
        <ele>381.6</ele>
        <time>2021-03-03T11:13:00Z</time>
      </trkpt>
      <trkpt lat="42.9240950" lon="-8.4094240">
        <ele>381.4</ele>
        <time>2021-03-03T11:13:01Z</time>
      </trkpt>
      <trkpt lat="42.9240950" lon="-8.4094610">
        <ele>381.4</ele>
        <time>2021-03-03T11:13:02Z</time>
      </trkpt>
      <trkpt lat="42.9240920" lon="-8.4095030">
        <ele>381.4</ele>
        <time>2021-03-03T11:13:03Z</time>
      </trkpt>
      <trkpt lat="42.9240900" lon="-8.4095420">
        <ele>381.4</ele>
        <time>2021-03-03T11:13:04Z</time>
      </trkpt>
      <trkpt lat="42.9240890" lon="-8.4095770">
        <ele>381.4</ele>
        <time>2021-03-03T11:13:05Z</time>
      </trkpt>
      <trkpt lat="42.9240830" lon="-8.4096350">
        <ele>381.4</ele>
        <time>2021-03-03T11:13:06Z</time>
      </trkpt>
      <trkpt lat="42.9240750" lon="-8.4096750">
        <ele>381.4</ele>
        <time>2021-03-03T11:13:07Z</time>
      </trkpt>
      <trkpt lat="42.9240680" lon="-8.4097130">
        <ele>381.4</ele>
        <time>2021-03-03T11:13:08Z</time>
      </trkpt>
      <trkpt lat="42.9240600" lon="-8.4097530">
        <ele>381.2</ele>
        <time>2021-03-03T11:13:09Z</time>
      </trkpt>
      <trkpt lat="42.9240520" lon="-8.4097960">
        <ele>381.2</ele>
        <time>2021-03-03T11:13:10Z</time>
      </trkpt>
      <trkpt lat="42.9240520" lon="-8.4098350">
        <ele>381.2</ele>
        <time>2021-03-03T11:13:11Z</time>
      </trkpt>
      <trkpt lat="42.9240520" lon="-8.4098700">
        <ele>381.2</ele>
        <time>2021-03-03T11:13:12Z</time>
      </trkpt>
      <trkpt lat="42.9240470" lon="-8.4099050">
        <ele>381.0</ele>
        <time>2021-03-03T11:13:13Z</time>
      </trkpt>
      <trkpt lat="42.9240420" lon="-8.4099420">
        <ele>381.0</ele>
        <time>2021-03-03T11:13:14Z</time>
      </trkpt>
      <trkpt lat="42.9240360" lon="-8.4099770">
        <ele>381.0</ele>
        <time>2021-03-03T11:13:15Z</time>
      </trkpt>
      <trkpt lat="42.9240260" lon="-8.4100230">
        <ele>381.0</ele>
        <time>2021-03-03T11:13:16Z</time>
      </trkpt>
      <trkpt lat="42.9240200" lon="-8.4100590">
        <ele>381.0</ele>
        <time>2021-03-03T11:13:17Z</time>
      </trkpt>
      <trkpt lat="42.9240150" lon="-8.4100920">
        <ele>382.6</ele>
        <time>2021-03-03T11:13:18Z</time>
      </trkpt>
      <trkpt lat="42.9240130" lon="-8.4101260">
        <ele>382.6</ele>
        <time>2021-03-03T11:13:19Z</time>
      </trkpt>
      <trkpt lat="42.9240130" lon="-8.4101610">
        <ele>382.6</ele>
        <time>2021-03-03T11:13:20Z</time>
      </trkpt>
      <trkpt lat="42.9240120" lon="-8.4101940">
        <ele>382.6</ele>
        <time>2021-03-03T11:13:21Z</time>
      </trkpt>
      <trkpt lat="42.9240110" lon="-8.4102260">
        <ele>382.4</ele>
        <time>2021-03-03T11:13:22Z</time>
      </trkpt>
      <trkpt lat="42.9240080" lon="-8.4102600">
        <ele>382.4</ele>
        <time>2021-03-03T11:13:23Z</time>
      </trkpt>
      <trkpt lat="42.9240050" lon="-8.4102950">
        <ele>382.4</ele>
        <time>2021-03-03T11:13:24Z</time>
      </trkpt>
      <trkpt lat="42.9240050" lon="-8.4103270">
        <ele>382.2</ele>
        <time>2021-03-03T11:13:25Z</time>
      </trkpt>
      <trkpt lat="42.9240020" lon="-8.4103640">
        <ele>382.2</ele>
        <time>2021-03-03T11:13:26Z</time>
      </trkpt>
      <trkpt lat="42.9240000" lon="-8.4104000">
        <ele>382.2</ele>
        <time>2021-03-03T11:13:27Z</time>
      </trkpt>
      <trkpt lat="42.9240010" lon="-8.4104250">
        <ele>382.2</ele>
        <time>2021-03-03T11:13:28Z</time>
      </trkpt>
      <trkpt lat="42.9239990" lon="-8.4104590">
        <ele>382.2</ele>
        <time>2021-03-03T11:13:29Z</time>
      </trkpt>
      <trkpt lat="42.9240000" lon="-8.4104960">
        <ele>382.2</ele>
        <time>2021-03-03T11:13:30Z</time>
      </trkpt>
      <trkpt lat="42.9240020" lon="-8.4105290">
        <ele>382.2</ele>
        <time>2021-03-03T11:13:31Z</time>
      </trkpt>
      <trkpt lat="42.9239990" lon="-8.4105750">
        <ele>382.2</ele>
        <time>2021-03-03T11:13:32Z</time>
      </trkpt>
      <trkpt lat="42.9239930" lon="-8.4106130">
        <ele>382.2</ele>
        <time>2021-03-03T11:13:33Z</time>
      </trkpt>
      <trkpt lat="42.9239870" lon="-8.4106550">
        <ele>382.2</ele>
        <time>2021-03-03T11:13:34Z</time>
      </trkpt>
      <trkpt lat="42.9239790" lon="-8.4107060">
        <ele>382.4</ele>
        <time>2021-03-03T11:13:35Z</time>
      </trkpt>
      <trkpt lat="42.9239760" lon="-8.4107560">
        <ele>382.4</ele>
        <time>2021-03-03T11:13:36Z</time>
      </trkpt>
      <trkpt lat="42.9239760" lon="-8.4107560">
        <ele>382.6</ele>
        <time>2021-03-03T11:13:37Z</time>
      </trkpt>
      <trkpt lat="42.9239780" lon="-8.4108420">
        <ele>382.6</ele>
        <time>2021-03-03T11:13:38Z</time>
      </trkpt>
      <trkpt lat="42.9239700" lon="-8.4108870">
        <ele>382.6</ele>
        <time>2021-03-03T11:13:39Z</time>
      </trkpt>
      <trkpt lat="42.9239680" lon="-8.4109300">
        <ele>382.8</ele>
        <time>2021-03-03T11:13:40Z</time>
      </trkpt>
      <trkpt lat="42.9239700" lon="-8.4109680">
        <ele>382.8</ele>
        <time>2021-03-03T11:13:41Z</time>
      </trkpt>
      <trkpt lat="42.9239690" lon="-8.4110170">
        <ele>382.8</ele>
        <time>2021-03-03T11:13:42Z</time>
      </trkpt>
      <trkpt lat="42.9239690" lon="-8.4110560">
        <ele>382.8</ele>
        <time>2021-03-03T11:13:43Z</time>
      </trkpt>
      <trkpt lat="42.9239700" lon="-8.4110920">
        <ele>382.8</ele>
        <time>2021-03-03T11:13:44Z</time>
      </trkpt>
      <trkpt lat="42.9239690" lon="-8.4111240">
        <ele>383.0</ele>
        <time>2021-03-03T11:13:45Z</time>
      </trkpt>
      <trkpt lat="42.9239740" lon="-8.4111750">
        <ele>383.0</ele>
        <time>2021-03-03T11:13:46Z</time>
      </trkpt>
      <trkpt lat="42.9239840" lon="-8.4112210">
        <ele>383.0</ele>
        <time>2021-03-03T11:13:47Z</time>
      </trkpt>
      <trkpt lat="42.9239900" lon="-8.4112630">
        <ele>383.0</ele>
        <time>2021-03-03T11:13:48Z</time>
      </trkpt>
      <trkpt lat="42.9239950" lon="-8.4113110">
        <ele>383.0</ele>
        <time>2021-03-03T11:13:49Z</time>
      </trkpt>
      <trkpt lat="42.9239990" lon="-8.4113480">
        <ele>383.0</ele>
        <time>2021-03-03T11:13:50Z</time>
      </trkpt>
      <trkpt lat="42.9240050" lon="-8.4113880">
        <ele>383.0</ele>
        <time>2021-03-03T11:13:51Z</time>
      </trkpt>
      <trkpt lat="42.9240110" lon="-8.4114240">
        <ele>383.2</ele>
        <time>2021-03-03T11:13:52Z</time>
      </trkpt>
      <trkpt lat="42.9240180" lon="-8.4114520">
        <ele>383.2</ele>
        <time>2021-03-03T11:13:53Z</time>
      </trkpt>
      <trkpt lat="42.9240210" lon="-8.4114880">
        <ele>383.2</ele>
        <time>2021-03-03T11:13:54Z</time>
      </trkpt>
      <trkpt lat="42.9240210" lon="-8.4114880">
        <ele>383.4</ele>
        <time>2021-03-03T11:13:55Z</time>
      </trkpt>
      <trkpt lat="42.9240270" lon="-8.4115620">
        <ele>383.4</ele>
        <time>2021-03-03T11:13:56Z</time>
      </trkpt>
      <trkpt lat="42.9240320" lon="-8.4116050">
        <ele>383.4</ele>
        <time>2021-03-03T11:13:57Z</time>
      </trkpt>
      <trkpt lat="42.9240360" lon="-8.4116310">
        <ele>383.4</ele>
        <time>2021-03-03T11:13:58Z</time>
      </trkpt>
      <trkpt lat="42.9240420" lon="-8.4116670">
        <ele>383.4</ele>
        <time>2021-03-03T11:13:59Z</time>
      </trkpt>
      <trkpt lat="42.9240460" lon="-8.4117130">
        <ele>383.4</ele>
        <time>2021-03-03T11:14:00Z</time>
      </trkpt>
      <trkpt lat="42.9240480" lon="-8.4117550">
        <ele>383.4</ele>
        <time>2021-03-03T11:14:01Z</time>
      </trkpt>
      <trkpt lat="42.9240550" lon="-8.4117940">
        <ele>383.4</ele>
        <time>2021-03-03T11:14:02Z</time>
      </trkpt>
      <trkpt lat="42.9240600" lon="-8.4118230">
        <ele>383.4</ele>
        <time>2021-03-03T11:14:03Z</time>
      </trkpt>
      <trkpt lat="42.9240680" lon="-8.4118570">
        <ele>383.4</ele>
        <time>2021-03-03T11:14:04Z</time>
      </trkpt>
      <trkpt lat="42.9240720" lon="-8.4118980">
        <ele>383.4</ele>
        <time>2021-03-03T11:14:05Z</time>
      </trkpt>
      <trkpt lat="42.9240740" lon="-8.4119380">
        <ele>383.6</ele>
        <time>2021-03-03T11:14:06Z</time>
      </trkpt>
      <trkpt lat="42.9240770" lon="-8.4119860">
        <ele>383.4</ele>
        <time>2021-03-03T11:14:07Z</time>
      </trkpt>
      <trkpt lat="42.9240810" lon="-8.4120190">
        <ele>383.4</ele>
        <time>2021-03-03T11:14:08Z</time>
      </trkpt>
      <trkpt lat="42.9240890" lon="-8.4120550">
        <ele>383.4</ele>
        <time>2021-03-03T11:14:09Z</time>
      </trkpt>
      <trkpt lat="42.9240960" lon="-8.4120890">
        <ele>383.4</ele>
        <time>2021-03-03T11:14:10Z</time>
      </trkpt>
      <trkpt lat="42.9241090" lon="-8.4121340">
        <ele>383.2</ele>
        <time>2021-03-03T11:14:11Z</time>
      </trkpt>
      <trkpt lat="42.9241210" lon="-8.4121700">
        <ele>383.2</ele>
        <time>2021-03-03T11:14:12Z</time>
      </trkpt>
      <trkpt lat="42.9241280" lon="-8.4122100">
        <ele>383.0</ele>
        <time>2021-03-03T11:14:13Z</time>
      </trkpt>
      <trkpt lat="42.9241330" lon="-8.4122500">
        <ele>383.0</ele>
        <time>2021-03-03T11:14:14Z</time>
      </trkpt>
      <trkpt lat="42.9241370" lon="-8.4122840">
        <ele>382.8</ele>
        <time>2021-03-03T11:14:15Z</time>
      </trkpt>
      <trkpt lat="42.9241420" lon="-8.4123380">
        <ele>382.6</ele>
        <time>2021-03-03T11:14:16Z</time>
      </trkpt>
      <trkpt lat="42.9241450" lon="-8.4123740">
        <ele>382.6</ele>
        <time>2021-03-03T11:14:17Z</time>
      </trkpt>
      <trkpt lat="42.9241500" lon="-8.4124150">
        <ele>382.4</ele>
        <time>2021-03-03T11:14:18Z</time>
      </trkpt>
      <trkpt lat="42.9241560" lon="-8.4124590">
        <ele>382.2</ele>
        <time>2021-03-03T11:14:19Z</time>
      </trkpt>
      <trkpt lat="42.9241640" lon="-8.4125070">
        <ele>382.0</ele>
        <time>2021-03-03T11:14:20Z</time>
      </trkpt>
      <trkpt lat="42.9241710" lon="-8.4125500">
        <ele>381.8</ele>
        <time>2021-03-03T11:14:21Z</time>
      </trkpt>
      <trkpt lat="42.9241750" lon="-8.4125860">
        <ele>381.6</ele>
        <time>2021-03-03T11:14:22Z</time>
      </trkpt>
      <trkpt lat="42.9241830" lon="-8.4126340">
        <ele>381.4</ele>
        <time>2021-03-03T11:14:23Z</time>
      </trkpt>
      <trkpt lat="42.9241880" lon="-8.4126650">
        <ele>381.2</ele>
        <time>2021-03-03T11:14:24Z</time>
      </trkpt>
      <trkpt lat="42.9241980" lon="-8.4127130">
        <ele>381.2</ele>
        <time>2021-03-03T11:14:25Z</time>
      </trkpt>
      <trkpt lat="42.9242060" lon="-8.4127530">
        <ele>381.0</ele>
        <time>2021-03-03T11:14:26Z</time>
      </trkpt>
      <trkpt lat="42.9242120" lon="-8.4127840">
        <ele>380.8</ele>
        <time>2021-03-03T11:14:27Z</time>
      </trkpt>
      <trkpt lat="42.9242180" lon="-8.4128240">
        <ele>380.8</ele>
        <time>2021-03-03T11:14:28Z</time>
      </trkpt>
      <trkpt lat="42.9242240" lon="-8.4128640">
        <ele>380.8</ele>
        <time>2021-03-03T11:14:29Z</time>
      </trkpt>
      <trkpt lat="42.9242310" lon="-8.4129130">
        <ele>380.6</ele>
        <time>2021-03-03T11:14:30Z</time>
      </trkpt>
      <trkpt lat="42.9242380" lon="-8.4129510">
        <ele>380.6</ele>
        <time>2021-03-03T11:14:31Z</time>
      </trkpt>
      <trkpt lat="42.9242420" lon="-8.4129800">
        <ele>380.4</ele>
        <time>2021-03-03T11:14:32Z</time>
      </trkpt>
      <trkpt lat="42.9242460" lon="-8.4130190">
        <ele>380.4</ele>
        <time>2021-03-03T11:14:33Z</time>
      </trkpt>
      <trkpt lat="42.9242500" lon="-8.4130570">
        <ele>380.4</ele>
        <time>2021-03-03T11:14:34Z</time>
      </trkpt>
      <trkpt lat="42.9242550" lon="-8.4130970">
        <ele>380.4</ele>
        <time>2021-03-03T11:14:35Z</time>
      </trkpt>
      <trkpt lat="42.9242620" lon="-8.4131360">
        <ele>380.4</ele>
        <time>2021-03-03T11:14:36Z</time>
      </trkpt>
      <trkpt lat="42.9242680" lon="-8.4131750">
        <ele>380.6</ele>
        <time>2021-03-03T11:14:37Z</time>
      </trkpt>
      <trkpt lat="42.9242730" lon="-8.4132130">
        <ele>380.6</ele>
        <time>2021-03-03T11:14:38Z</time>
      </trkpt>
      <trkpt lat="42.9242790" lon="-8.4132580">
        <ele>380.8</ele>
        <time>2021-03-03T11:14:39Z</time>
      </trkpt>
      <trkpt lat="42.9242850" lon="-8.4132900">
        <ele>380.8</ele>
        <time>2021-03-03T11:14:40Z</time>
      </trkpt>
      <trkpt lat="42.9242900" lon="-8.4133280">
        <ele>380.8</ele>
        <time>2021-03-03T11:14:41Z</time>
      </trkpt>
      <trkpt lat="42.9242970" lon="-8.4133650">
        <ele>381.0</ele>
        <time>2021-03-03T11:14:42Z</time>
      </trkpt>
      <trkpt lat="42.9243040" lon="-8.4134010">
        <ele>381.0</ele>
        <time>2021-03-03T11:14:43Z</time>
      </trkpt>
      <trkpt lat="42.9243100" lon="-8.4134370">
        <ele>381.0</ele>
        <time>2021-03-03T11:14:44Z</time>
      </trkpt>
      <trkpt lat="42.9243170" lon="-8.4134750">
        <ele>381.0</ele>
        <time>2021-03-03T11:14:45Z</time>
      </trkpt>
      <trkpt lat="42.9243230" lon="-8.4135170">
        <ele>381.0</ele>
        <time>2021-03-03T11:14:46Z</time>
      </trkpt>
      <trkpt lat="42.9243290" lon="-8.4135450">
        <ele>381.4</ele>
        <time>2021-03-03T11:14:47Z</time>
      </trkpt>
      <trkpt lat="42.9243360" lon="-8.4135830">
        <ele>381.4</ele>
        <time>2021-03-03T11:14:48Z</time>
      </trkpt>
      <trkpt lat="42.9243360" lon="-8.4135830">
        <ele>381.6</ele>
        <time>2021-03-03T11:14:49Z</time>
      </trkpt>
      <trkpt lat="42.9243450" lon="-8.4136580">
        <ele>381.6</ele>
        <time>2021-03-03T11:14:50Z</time>
      </trkpt>
      <trkpt lat="42.9243520" lon="-8.4136950">
        <ele>381.6</ele>
        <time>2021-03-03T11:14:51Z</time>
      </trkpt>
      <trkpt lat="42.9243540" lon="-8.4137310">
        <ele>381.8</ele>
        <time>2021-03-03T11:14:52Z</time>
      </trkpt>
      <trkpt lat="42.9243610" lon="-8.4137690">
        <ele>382.0</ele>
        <time>2021-03-03T11:14:53Z</time>
      </trkpt>
      <trkpt lat="42.9243660" lon="-8.4138050">
        <ele>382.0</ele>
        <time>2021-03-03T11:14:54Z</time>
      </trkpt>
      <trkpt lat="42.9243740" lon="-8.4138500">
        <ele>382.0</ele>
        <time>2021-03-03T11:14:55Z</time>
      </trkpt>
      <trkpt lat="42.9243790" lon="-8.4138800">
        <ele>382.2</ele>
        <time>2021-03-03T11:14:56Z</time>
      </trkpt>
      <trkpt lat="42.9243850" lon="-8.4139260">
        <ele>382.2</ele>
        <time>2021-03-03T11:14:57Z</time>
      </trkpt>
      <trkpt lat="42.9243910" lon="-8.4139560">
        <ele>382.2</ele>
        <time>2021-03-03T11:14:58Z</time>
      </trkpt>
      <trkpt lat="42.9243960" lon="-8.4139930">
        <ele>382.4</ele>
        <time>2021-03-03T11:14:59Z</time>
      </trkpt>
      <trkpt lat="42.9244010" lon="-8.4140290">
        <ele>382.6</ele>
        <time>2021-03-03T11:15:00Z</time>
      </trkpt>
      <trkpt lat="42.9244080" lon="-8.4140660">
        <ele>382.6</ele>
        <time>2021-03-03T11:15:01Z</time>
      </trkpt>
      <trkpt lat="42.9244140" lon="-8.4141110">
        <ele>382.8</ele>
        <time>2021-03-03T11:15:02Z</time>
      </trkpt>
      <trkpt lat="42.9244180" lon="-8.4141490">
        <ele>382.8</ele>
        <time>2021-03-03T11:15:03Z</time>
      </trkpt>
      <trkpt lat="42.9244220" lon="-8.4141870">
        <ele>383.0</ele>
        <time>2021-03-03T11:15:04Z</time>
      </trkpt>
      <trkpt lat="42.9244270" lon="-8.4142230">
        <ele>383.0</ele>
        <time>2021-03-03T11:15:05Z</time>
      </trkpt>
      <trkpt lat="42.9244330" lon="-8.4142600">
        <ele>383.2</ele>
        <time>2021-03-03T11:15:06Z</time>
      </trkpt>
      <trkpt lat="42.9244400" lon="-8.4142980">
        <ele>383.2</ele>
        <time>2021-03-03T11:15:07Z</time>
      </trkpt>
      <trkpt lat="42.9244460" lon="-8.4143320">
        <ele>383.2</ele>
        <time>2021-03-03T11:15:08Z</time>
      </trkpt>
      <trkpt lat="42.9244520" lon="-8.4143680">
        <ele>383.4</ele>
        <time>2021-03-03T11:15:09Z</time>
      </trkpt>
      <trkpt lat="42.9244560" lon="-8.4144040">
        <ele>383.6</ele>
        <time>2021-03-03T11:15:10Z</time>
      </trkpt>
      <trkpt lat="42.9244610" lon="-8.4144390">
        <ele>383.8</ele>
        <time>2021-03-03T11:15:11Z</time>
      </trkpt>
      <trkpt lat="42.9244670" lon="-8.4144750">
        <ele>383.8</ele>
        <time>2021-03-03T11:15:12Z</time>
      </trkpt>
      <trkpt lat="42.9244740" lon="-8.4145100">
        <ele>384.0</ele>
        <time>2021-03-03T11:15:13Z</time>
      </trkpt>
      <trkpt lat="42.9244830" lon="-8.4145550">
        <ele>384.2</ele>
        <time>2021-03-03T11:15:14Z</time>
      </trkpt>
      <trkpt lat="42.9244870" lon="-8.4145850">
        <ele>384.4</ele>
        <time>2021-03-03T11:15:15Z</time>
      </trkpt>
      <trkpt lat="42.9244920" lon="-8.4146230">
        <ele>384.4</ele>
        <time>2021-03-03T11:15:16Z</time>
      </trkpt>
      <trkpt lat="42.9244980" lon="-8.4146590">
        <ele>384.6</ele>
        <time>2021-03-03T11:15:17Z</time>
      </trkpt>
      <trkpt lat="42.9245050" lon="-8.4146960">
        <ele>384.6</ele>
        <time>2021-03-03T11:15:18Z</time>
      </trkpt>
      <trkpt lat="42.9245130" lon="-8.4147410">
        <ele>384.6</ele>
        <time>2021-03-03T11:15:19Z</time>
      </trkpt>
      <trkpt lat="42.9245190" lon="-8.4147710">
        <ele>384.6</ele>
        <time>2021-03-03T11:15:20Z</time>
      </trkpt>
      <trkpt lat="42.9245240" lon="-8.4148060">
        <ele>384.6</ele>
        <time>2021-03-03T11:15:21Z</time>
      </trkpt>
      <trkpt lat="42.9245290" lon="-8.4148400">
        <ele>384.8</ele>
        <time>2021-03-03T11:15:22Z</time>
      </trkpt>
      <trkpt lat="42.9245370" lon="-8.4148750">
        <ele>385.0</ele>
        <time>2021-03-03T11:15:23Z</time>
      </trkpt>
      <trkpt lat="42.9245420" lon="-8.4149090">
        <ele>385.0</ele>
        <time>2021-03-03T11:15:24Z</time>
      </trkpt>
      <trkpt lat="42.9245460" lon="-8.4149460">
        <ele>385.2</ele>
        <time>2021-03-03T11:15:25Z</time>
      </trkpt>
      <trkpt lat="42.9245530" lon="-8.4149820">
        <ele>385.2</ele>
        <time>2021-03-03T11:15:26Z</time>
      </trkpt>
      <trkpt lat="42.9245580" lon="-8.4150170">
        <ele>385.2</ele>
        <time>2021-03-03T11:15:27Z</time>
      </trkpt>
      <trkpt lat="42.9245650" lon="-8.4150590">
        <ele>385.4</ele>
        <time>2021-03-03T11:15:28Z</time>
      </trkpt>
      <trkpt lat="42.9245680" lon="-8.4150880">
        <ele>385.4</ele>
        <time>2021-03-03T11:15:29Z</time>
      </trkpt>
      <trkpt lat="42.9245730" lon="-8.4151210">
        <ele>385.6</ele>
        <time>2021-03-03T11:15:30Z</time>
      </trkpt>
      <trkpt lat="42.9245770" lon="-8.4151590">
        <ele>385.8</ele>
        <time>2021-03-03T11:15:31Z</time>
      </trkpt>
      <trkpt lat="42.9245810" lon="-8.4151950">
        <ele>385.8</ele>
        <time>2021-03-03T11:15:32Z</time>
      </trkpt>
      <trkpt lat="42.9245870" lon="-8.4152280">
        <ele>386.0</ele>
        <time>2021-03-03T11:15:33Z</time>
      </trkpt>
      <trkpt lat="42.9245950" lon="-8.4152620">
        <ele>386.0</ele>
        <time>2021-03-03T11:15:34Z</time>
      </trkpt>
      <trkpt lat="42.9246010" lon="-8.4152950">
        <ele>386.2</ele>
        <time>2021-03-03T11:15:35Z</time>
      </trkpt>
      <trkpt lat="42.9246070" lon="-8.4153300">
        <ele>386.6</ele>
        <time>2021-03-03T11:15:36Z</time>
      </trkpt>
      <trkpt lat="42.9246080" lon="-8.4153650">
        <ele>386.6</ele>
        <time>2021-03-03T11:15:37Z</time>
      </trkpt>
      <trkpt lat="42.9246080" lon="-8.4154020">
        <ele>386.8</ele>
        <time>2021-03-03T11:15:38Z</time>
      </trkpt>
      <trkpt lat="42.9246110" lon="-8.4154350">
        <ele>386.8</ele>
        <time>2021-03-03T11:15:39Z</time>
      </trkpt>
      <trkpt lat="42.9246160" lon="-8.4154650">
        <ele>386.8</ele>
        <time>2021-03-03T11:15:40Z</time>
      </trkpt>
      <trkpt lat="42.9246230" lon="-8.4154930">
        <ele>386.8</ele>
        <time>2021-03-03T11:15:41Z</time>
      </trkpt>
      <trkpt lat="42.9246300" lon="-8.4155230">
        <ele>387.0</ele>
        <time>2021-03-03T11:15:42Z</time>
      </trkpt>
      <trkpt lat="42.9246380" lon="-8.4155580">
        <ele>387.0</ele>
        <time>2021-03-03T11:15:43Z</time>
      </trkpt>
      <trkpt lat="42.9246440" lon="-8.4155920">
        <ele>387.2</ele>
        <time>2021-03-03T11:15:44Z</time>
      </trkpt>
      <trkpt lat="42.9246520" lon="-8.4156250">
        <ele>387.2</ele>
        <time>2021-03-03T11:15:45Z</time>
      </trkpt>
      <trkpt lat="42.9246590" lon="-8.4156610">
        <ele>387.2</ele>
        <time>2021-03-03T11:15:46Z</time>
      </trkpt>
      <trkpt lat="42.9246650" lon="-8.4156920">
        <ele>387.4</ele>
        <time>2021-03-03T11:15:47Z</time>
      </trkpt>
      <trkpt lat="42.9246720" lon="-8.4157260">
        <ele>387.6</ele>
        <time>2021-03-03T11:15:48Z</time>
      </trkpt>
      <trkpt lat="42.9246770" lon="-8.4157610">
        <ele>387.6</ele>
        <time>2021-03-03T11:15:49Z</time>
      </trkpt>
      <trkpt lat="42.9246820" lon="-8.4157970">
        <ele>387.8</ele>
        <time>2021-03-03T11:15:50Z</time>
      </trkpt>
      <trkpt lat="42.9246880" lon="-8.4158360">
        <ele>387.8</ele>
        <time>2021-03-03T11:15:51Z</time>
      </trkpt>
      <trkpt lat="42.9246940" lon="-8.4158610">
        <ele>388.0</ele>
        <time>2021-03-03T11:15:52Z</time>
      </trkpt>
      <trkpt lat="42.9247060" lon="-8.4158960">
        <ele>388.0</ele>
        <time>2021-03-03T11:15:53Z</time>
      </trkpt>
      <trkpt lat="42.9247190" lon="-8.4159350">
        <ele>388.0</ele>
        <time>2021-03-03T11:15:54Z</time>
      </trkpt>
      <trkpt lat="42.9247330" lon="-8.4159710">
        <ele>388.2</ele>
        <time>2021-03-03T11:15:55Z</time>
      </trkpt>
      <trkpt lat="42.9247520" lon="-8.4160000">
        <ele>388.2</ele>
        <time>2021-03-03T11:15:56Z</time>
      </trkpt>
      <trkpt lat="42.9247730" lon="-8.4160280">
        <ele>388.2</ele>
        <time>2021-03-03T11:15:57Z</time>
      </trkpt>
      <trkpt lat="42.9247920" lon="-8.4160540">
        <ele>388.4</ele>
        <time>2021-03-03T11:15:58Z</time>
      </trkpt>
      <trkpt lat="42.9248130" lon="-8.4160800">
        <ele>388.4</ele>
        <time>2021-03-03T11:15:59Z</time>
      </trkpt>
      <trkpt lat="42.9248360" lon="-8.4161130">
        <ele>388.4</ele>
        <time>2021-03-03T11:16:00Z</time>
      </trkpt>
      <trkpt lat="42.9248530" lon="-8.4161350">
        <ele>388.4</ele>
        <time>2021-03-03T11:16:01Z</time>
      </trkpt>
      <trkpt lat="42.9248760" lon="-8.4161590">
        <ele>388.4</ele>
        <time>2021-03-03T11:16:02Z</time>
      </trkpt>
      <trkpt lat="42.9249010" lon="-8.4161810">
        <ele>388.4</ele>
        <time>2021-03-03T11:16:03Z</time>
      </trkpt>
      <trkpt lat="42.9249230" lon="-8.4162020">
        <ele>388.4</ele>
        <time>2021-03-03T11:16:04Z</time>
      </trkpt>
      <trkpt lat="42.9249480" lon="-8.4162250">
        <ele>388.2</ele>
        <time>2021-03-03T11:16:05Z</time>
      </trkpt>
      <trkpt lat="42.9249710" lon="-8.4162500">
        <ele>388.2</ele>
        <time>2021-03-03T11:16:06Z</time>
      </trkpt>
      <trkpt lat="42.9249930" lon="-8.4162760">
        <ele>388.2</ele>
        <time>2021-03-03T11:16:07Z</time>
      </trkpt>
      <trkpt lat="42.9250140" lon="-8.4163030">
        <ele>388.2</ele>
        <time>2021-03-03T11:16:08Z</time>
      </trkpt>
      <trkpt lat="42.9250320" lon="-8.4163350">
        <ele>388.2</ele>
        <time>2021-03-03T11:16:09Z</time>
      </trkpt>
      <trkpt lat="42.9250500" lon="-8.4163680">
        <ele>388.2</ele>
        <time>2021-03-03T11:16:10Z</time>
      </trkpt>
      <trkpt lat="42.9250660" lon="-8.4164030">
        <ele>388.2</ele>
        <time>2021-03-03T11:16:11Z</time>
      </trkpt>
      <trkpt lat="42.9250770" lon="-8.4164370">
        <ele>388.0</ele>
        <time>2021-03-03T11:16:12Z</time>
      </trkpt>
      <trkpt lat="42.9250880" lon="-8.4164670">
        <ele>388.0</ele>
        <time>2021-03-03T11:16:13Z</time>
      </trkpt>
      <trkpt lat="42.9251010" lon="-8.4165000">
        <ele>388.0</ele>
        <time>2021-03-03T11:16:14Z</time>
      </trkpt>
      <trkpt lat="42.9251140" lon="-8.4165310">
        <ele>388.0</ele>
        <time>2021-03-03T11:16:15Z</time>
      </trkpt>
      <trkpt lat="42.9251280" lon="-8.4165570">
        <ele>388.0</ele>
        <time>2021-03-03T11:16:16Z</time>
      </trkpt>
      <trkpt lat="42.9251420" lon="-8.4165870">
        <ele>388.0</ele>
        <time>2021-03-03T11:16:17Z</time>
      </trkpt>
      <trkpt lat="42.9251620" lon="-8.4166280">
        <ele>388.0</ele>
        <time>2021-03-03T11:16:18Z</time>
      </trkpt>
      <trkpt lat="42.9251760" lon="-8.4166530">
        <ele>387.8</ele>
        <time>2021-03-03T11:16:19Z</time>
      </trkpt>
      <trkpt lat="42.9251920" lon="-8.4166860">
        <ele>387.8</ele>
        <time>2021-03-03T11:16:20Z</time>
      </trkpt>
      <trkpt lat="42.9252060" lon="-8.4167210">
        <ele>387.6</ele>
        <time>2021-03-03T11:16:21Z</time>
      </trkpt>
      <trkpt lat="42.9252180" lon="-8.4167570">
        <ele>387.6</ele>
        <time>2021-03-03T11:16:22Z</time>
      </trkpt>
      <trkpt lat="42.9252290" lon="-8.4167920">
        <ele>387.6</ele>
        <time>2021-03-03T11:16:23Z</time>
      </trkpt>
      <trkpt lat="42.9252400" lon="-8.4168250">
        <ele>387.6</ele>
        <time>2021-03-03T11:16:24Z</time>
      </trkpt>
      <trkpt lat="42.9252530" lon="-8.4168610">
        <ele>387.4</ele>
        <time>2021-03-03T11:16:25Z</time>
      </trkpt>
      <trkpt lat="42.9252640" lon="-8.4168930">
        <ele>387.4</ele>
        <time>2021-03-03T11:16:26Z</time>
      </trkpt>
      <trkpt lat="42.9252750" lon="-8.4169270">
        <ele>387.4</ele>
        <time>2021-03-03T11:16:27Z</time>
      </trkpt>
      <trkpt lat="42.9252850" lon="-8.4169600">
        <ele>387.4</ele>
        <time>2021-03-03T11:16:28Z</time>
      </trkpt>
      <trkpt lat="42.9252950" lon="-8.4169930">
        <ele>387.2</ele>
        <time>2021-03-03T11:16:29Z</time>
      </trkpt>
      <trkpt lat="42.9253080" lon="-8.4170310">
        <ele>387.2</ele>
        <time>2021-03-03T11:16:30Z</time>
      </trkpt>
      <trkpt lat="42.9253230" lon="-8.4170670">
        <ele>387.2</ele>
        <time>2021-03-03T11:16:31Z</time>
      </trkpt>
      <trkpt lat="42.9253390" lon="-8.4171060">
        <ele>387.2</ele>
        <time>2021-03-03T11:16:32Z</time>
      </trkpt>
      <trkpt lat="42.9253520" lon="-8.4171470">
        <ele>387.2</ele>
        <time>2021-03-03T11:16:33Z</time>
      </trkpt>
      <trkpt lat="42.9253640" lon="-8.4171890">
        <ele>387.2</ele>
        <time>2021-03-03T11:16:34Z</time>
      </trkpt>
      <trkpt lat="42.9253770" lon="-8.4172270">
        <ele>387.2</ele>
        <time>2021-03-03T11:16:35Z</time>
      </trkpt>
      <trkpt lat="42.9253910" lon="-8.4172610">
        <ele>387.2</ele>
        <time>2021-03-03T11:16:36Z</time>
      </trkpt>
      <trkpt lat="42.9254000" lon="-8.4172960">
        <ele>387.0</ele>
        <time>2021-03-03T11:16:37Z</time>
      </trkpt>
      <trkpt lat="42.9254100" lon="-8.4173320">
        <ele>387.0</ele>
        <time>2021-03-03T11:16:38Z</time>
      </trkpt>
      <trkpt lat="42.9254200" lon="-8.4173740">
        <ele>387.0</ele>
        <time>2021-03-03T11:16:39Z</time>
      </trkpt>
      <trkpt lat="42.9254300" lon="-8.4174110">
        <ele>386.8</ele>
        <time>2021-03-03T11:16:40Z</time>
      </trkpt>
      <trkpt lat="42.9254380" lon="-8.4174450">
        <ele>386.8</ele>
        <time>2021-03-03T11:16:41Z</time>
      </trkpt>
      <trkpt lat="42.9254470" lon="-8.4174750">
        <ele>386.8</ele>
        <time>2021-03-03T11:16:42Z</time>
      </trkpt>
      <trkpt lat="42.9254560" lon="-8.4175040">
        <ele>386.6</ele>
        <time>2021-03-03T11:16:43Z</time>
      </trkpt>
      <trkpt lat="42.9254650" lon="-8.4175350">
        <ele>386.6</ele>
        <time>2021-03-03T11:16:44Z</time>
      </trkpt>
      <trkpt lat="42.9254750" lon="-8.4175650">
        <ele>386.6</ele>
        <time>2021-03-03T11:16:45Z</time>
      </trkpt>
      <trkpt lat="42.9254850" lon="-8.4175930">
        <ele>386.4</ele>
        <time>2021-03-03T11:16:46Z</time>
      </trkpt>
      <trkpt lat="42.9254960" lon="-8.4176260">
        <ele>386.4</ele>
        <time>2021-03-03T11:16:47Z</time>
      </trkpt>
      <trkpt lat="42.9255090" lon="-8.4176620">
        <ele>386.2</ele>
        <time>2021-03-03T11:16:48Z</time>
      </trkpt>
      <trkpt lat="42.9255270" lon="-8.4176960">
        <ele>386.0</ele>
        <time>2021-03-03T11:16:49Z</time>
      </trkpt>
      <trkpt lat="42.9255440" lon="-8.4177270">
        <ele>386.0</ele>
        <time>2021-03-03T11:16:50Z</time>
      </trkpt>
      <trkpt lat="42.9255560" lon="-8.4177590">
        <ele>386.0</ele>
        <time>2021-03-03T11:16:51Z</time>
      </trkpt>
      <trkpt lat="42.9255700" lon="-8.4177970">
        <ele>386.0</ele>
        <time>2021-03-03T11:16:52Z</time>
      </trkpt>
      <trkpt lat="42.9255830" lon="-8.4178320">
        <ele>386.0</ele>
        <time>2021-03-03T11:16:53Z</time>
      </trkpt>
      <trkpt lat="42.9255970" lon="-8.4178650">
        <ele>385.8</ele>
        <time>2021-03-03T11:16:54Z</time>
      </trkpt>
      <trkpt lat="42.9256120" lon="-8.4179030">
        <ele>385.8</ele>
        <time>2021-03-03T11:16:55Z</time>
      </trkpt>
      <trkpt lat="42.9256320" lon="-8.4179430">
        <ele>385.6</ele>
        <time>2021-03-03T11:16:56Z</time>
      </trkpt>
      <trkpt lat="42.9256420" lon="-8.4179710">
        <ele>385.4</ele>
        <time>2021-03-03T11:16:57Z</time>
      </trkpt>
      <trkpt lat="42.9256540" lon="-8.4180100">
        <ele>385.2</ele>
        <time>2021-03-03T11:16:58Z</time>
      </trkpt>
      <trkpt lat="42.9256660" lon="-8.4180500">
        <ele>385.0</ele>
        <time>2021-03-03T11:16:59Z</time>
      </trkpt>
      <trkpt lat="42.9256790" lon="-8.4180870">
        <ele>384.8</ele>
        <time>2021-03-03T11:17:00Z</time>
      </trkpt>
      <trkpt lat="42.9256950" lon="-8.4181340">
        <ele>384.8</ele>
        <time>2021-03-03T11:17:01Z</time>
      </trkpt>
      <trkpt lat="42.9257020" lon="-8.4181700">
        <ele>384.6</ele>
        <time>2021-03-03T11:17:02Z</time>
      </trkpt>
      <trkpt lat="42.9257180" lon="-8.4182190">
        <ele>384.6</ele>
        <time>2021-03-03T11:17:03Z</time>
      </trkpt>
      <trkpt lat="42.9257310" lon="-8.4182600">
        <ele>384.6</ele>
        <time>2021-03-03T11:17:04Z</time>
      </trkpt>
      <trkpt lat="42.9257430" lon="-8.4182990">
        <ele>384.4</ele>
        <time>2021-03-03T11:17:05Z</time>
      </trkpt>
      <trkpt lat="42.9257510" lon="-8.4183330">
        <ele>384.2</ele>
        <time>2021-03-03T11:17:06Z</time>
      </trkpt>
      <trkpt lat="42.9257620" lon="-8.4183740">
        <ele>384.2</ele>
        <time>2021-03-03T11:17:07Z</time>
      </trkpt>
      <trkpt lat="42.9257700" lon="-8.4184190">
        <ele>383.6</ele>
        <time>2021-03-03T11:17:08Z</time>
      </trkpt>
      <trkpt lat="42.9257720" lon="-8.4184660">
        <ele>383.6</ele>
        <time>2021-03-03T11:17:09Z</time>
      </trkpt>
      <trkpt lat="42.9257700" lon="-8.4185080">
        <ele>383.6</ele>
        <time>2021-03-03T11:17:10Z</time>
      </trkpt>
      <trkpt lat="42.9257610" lon="-8.4185410">
        <ele>383.4</ele>
        <time>2021-03-03T11:17:11Z</time>
      </trkpt>
      <trkpt lat="42.9257470" lon="-8.4185710">
        <ele>383.2</ele>
        <time>2021-03-03T11:17:12Z</time>
      </trkpt>
      <trkpt lat="42.9257320" lon="-8.4185990">
        <ele>383.0</ele>
        <time>2021-03-03T11:17:13Z</time>
      </trkpt>
      <trkpt lat="42.9257140" lon="-8.4186160">
        <ele>383.0</ele>
        <time>2021-03-03T11:17:14Z</time>
      </trkpt>
      <trkpt lat="42.9256940" lon="-8.4186190">
        <ele>383.0</ele>
        <time>2021-03-03T11:17:15Z</time>
      </trkpt>
      <trkpt lat="42.9256670" lon="-8.4186170">
        <ele>383.0</ele>
        <time>2021-03-03T11:17:16Z</time>
      </trkpt>
      <trkpt lat="42.9256400" lon="-8.4186080">
        <ele>383.0</ele>
        <time>2021-03-03T11:17:17Z</time>
      </trkpt>
      <trkpt lat="42.9256150" lon="-8.4185970">
        <ele>383.0</ele>
        <time>2021-03-03T11:17:18Z</time>
      </trkpt>
      <trkpt lat="42.9255850" lon="-8.4185760">
        <ele>383.0</ele>
        <time>2021-03-03T11:17:19Z</time>
      </trkpt>
      <trkpt lat="42.9255620" lon="-8.4185540">
        <ele>383.0</ele>
        <time>2021-03-03T11:17:20Z</time>
      </trkpt>
      <trkpt lat="42.9255350" lon="-8.4185370">
        <ele>383.0</ele>
        <time>2021-03-03T11:17:21Z</time>
      </trkpt>
      <trkpt lat="42.9255010" lon="-8.4185210">
        <ele>383.2</ele>
        <time>2021-03-03T11:17:22Z</time>
      </trkpt>
      <trkpt lat="42.9254790" lon="-8.4184990">
        <ele>383.4</ele>
        <time>2021-03-03T11:17:23Z</time>
      </trkpt>
      <trkpt lat="42.9254510" lon="-8.4184830">
        <ele>383.6</ele>
        <time>2021-03-03T11:17:24Z</time>
      </trkpt>
      <trkpt lat="42.9254270" lon="-8.4184700">
        <ele>383.6</ele>
        <time>2021-03-03T11:17:25Z</time>
      </trkpt>
      <trkpt lat="42.9253980" lon="-8.4184490">
        <ele>383.8</ele>
        <time>2021-03-03T11:17:26Z</time>
      </trkpt>
      <trkpt lat="42.9253770" lon="-8.4184380">
        <ele>383.8</ele>
        <time>2021-03-03T11:17:27Z</time>
      </trkpt>
      <trkpt lat="42.9253490" lon="-8.4184220">
        <ele>383.8</ele>
        <time>2021-03-03T11:17:28Z</time>
      </trkpt>
      <trkpt lat="42.9253230" lon="-8.4184010">
        <ele>384.0</ele>
        <time>2021-03-03T11:17:29Z</time>
      </trkpt>
      <trkpt lat="42.9253000" lon="-8.4183910">
        <ele>384.2</ele>
        <time>2021-03-03T11:17:30Z</time>
      </trkpt>
      <trkpt lat="42.9252760" lon="-8.4183820">
        <ele>384.4</ele>
        <time>2021-03-03T11:17:31Z</time>
      </trkpt>
      <trkpt lat="42.9252500" lon="-8.4183690">
        <ele>384.4</ele>
        <time>2021-03-03T11:17:32Z</time>
      </trkpt>
      <trkpt lat="42.9252230" lon="-8.4183590">
        <ele>384.4</ele>
        <time>2021-03-03T11:17:33Z</time>
      </trkpt>
      <trkpt lat="42.9251950" lon="-8.4183480">
        <ele>384.6</ele>
        <time>2021-03-03T11:17:34Z</time>
      </trkpt>
      <trkpt lat="42.9251670" lon="-8.4183360">
        <ele>384.6</ele>
        <time>2021-03-03T11:17:35Z</time>
      </trkpt>
      <trkpt lat="42.9251410" lon="-8.4183230">
        <ele>384.8</ele>
        <time>2021-03-03T11:17:36Z</time>
      </trkpt>
      <trkpt lat="42.9251150" lon="-8.4183090">
        <ele>385.0</ele>
        <time>2021-03-03T11:17:37Z</time>
      </trkpt>
      <trkpt lat="42.9250890" lon="-8.4182950">
        <ele>385.0</ele>
        <time>2021-03-03T11:17:38Z</time>
      </trkpt>
      <trkpt lat="42.9250660" lon="-8.4182860">
        <ele>385.2</ele>
        <time>2021-03-03T11:17:39Z</time>
      </trkpt>
      <trkpt lat="42.9250430" lon="-8.4182790">
        <ele>385.2</ele>
        <time>2021-03-03T11:17:40Z</time>
      </trkpt>
      <trkpt lat="42.9250200" lon="-8.4182700">
        <ele>385.4</ele>
        <time>2021-03-03T11:17:41Z</time>
      </trkpt>
      <trkpt lat="42.9249980" lon="-8.4182640">
        <ele>385.4</ele>
        <time>2021-03-03T11:17:42Z</time>
      </trkpt>
      <trkpt lat="42.9249700" lon="-8.4182520">
        <ele>385.6</ele>
        <time>2021-03-03T11:17:43Z</time>
      </trkpt>
      <trkpt lat="42.9249410" lon="-8.4182450">
        <ele>385.8</ele>
        <time>2021-03-03T11:17:44Z</time>
      </trkpt>
      <trkpt lat="42.9249140" lon="-8.4182390">
        <ele>385.8</ele>
        <time>2021-03-03T11:17:45Z</time>
      </trkpt>
      <trkpt lat="42.9248880" lon="-8.4182310">
        <ele>386.0</ele>
        <time>2021-03-03T11:17:46Z</time>
      </trkpt>
      <trkpt lat="42.9248610" lon="-8.4182230">
        <ele>386.2</ele>
        <time>2021-03-03T11:17:47Z</time>
      </trkpt>
      <trkpt lat="42.9248350" lon="-8.4182140">
        <ele>386.4</ele>
        <time>2021-03-03T11:17:48Z</time>
      </trkpt>
      <trkpt lat="42.9248100" lon="-8.4182070">
        <ele>386.4</ele>
        <time>2021-03-03T11:17:49Z</time>
      </trkpt>
      <trkpt lat="42.9247840" lon="-8.4181990">
        <ele>386.4</ele>
        <time>2021-03-03T11:17:50Z</time>
      </trkpt>
      <trkpt lat="42.9247550" lon="-8.4181920">
        <ele>386.4</ele>
        <time>2021-03-03T11:17:51Z</time>
      </trkpt>
      <trkpt lat="42.9247290" lon="-8.4181860">
        <ele>386.6</ele>
        <time>2021-03-03T11:17:52Z</time>
      </trkpt>
      <trkpt lat="42.9247040" lon="-8.4181790">
        <ele>386.8</ele>
        <time>2021-03-03T11:17:53Z</time>
      </trkpt>
      <trkpt lat="42.9246770" lon="-8.4181710">
        <ele>387.0</ele>
        <time>2021-03-03T11:17:54Z</time>
      </trkpt>
      <trkpt lat="42.9246490" lon="-8.4181600">
        <ele>387.0</ele>
        <time>2021-03-03T11:17:55Z</time>
      </trkpt>
      <trkpt lat="42.9246210" lon="-8.4181480">
        <ele>387.0</ele>
        <time>2021-03-03T11:17:56Z</time>
      </trkpt>
      <trkpt lat="42.9245920" lon="-8.4181380">
        <ele>387.0</ele>
        <time>2021-03-03T11:17:57Z</time>
      </trkpt>
      <trkpt lat="42.9245640" lon="-8.4181270">
        <ele>387.0</ele>
        <time>2021-03-03T11:17:58Z</time>
      </trkpt>
      <trkpt lat="42.9245350" lon="-8.4181150">
        <ele>387.0</ele>
        <time>2021-03-03T11:17:59Z</time>
      </trkpt>
      <trkpt lat="42.9245050" lon="-8.4181030">
        <ele>387.0</ele>
        <time>2021-03-03T11:18:00Z</time>
      </trkpt>
      <trkpt lat="42.9244740" lon="-8.4180870">
        <ele>387.0</ele>
        <time>2021-03-03T11:18:01Z</time>
      </trkpt>
      <trkpt lat="42.9244450" lon="-8.4180830">
        <ele>387.0</ele>
        <time>2021-03-03T11:18:02Z</time>
      </trkpt>
      <trkpt lat="42.9244170" lon="-8.4180830">
        <ele>386.8</ele>
        <time>2021-03-03T11:18:03Z</time>
      </trkpt>
      <trkpt lat="42.9243880" lon="-8.4180750">
        <ele>386.8</ele>
        <time>2021-03-03T11:18:04Z</time>
      </trkpt>
      <trkpt lat="42.9243540" lon="-8.4180660">
        <ele>386.6</ele>
        <time>2021-03-03T11:18:05Z</time>
      </trkpt>
      <trkpt lat="42.9243240" lon="-8.4180490">
        <ele>386.4</ele>
        <time>2021-03-03T11:18:06Z</time>
      </trkpt>
      <trkpt lat="42.9242920" lon="-8.4180330">
        <ele>386.2</ele>
        <time>2021-03-03T11:18:07Z</time>
      </trkpt>
      <trkpt lat="42.9242590" lon="-8.4180200">
        <ele>386.2</ele>
        <time>2021-03-03T11:18:08Z</time>
      </trkpt>
      <trkpt lat="42.9242290" lon="-8.4180080">
        <ele>386.0</ele>
        <time>2021-03-03T11:18:09Z</time>
      </trkpt>
      <trkpt lat="42.9241990" lon="-8.4179970">
        <ele>385.8</ele>
        <time>2021-03-03T11:18:10Z</time>
      </trkpt>
      <trkpt lat="42.9241690" lon="-8.4179870">
        <ele>385.8</ele>
        <time>2021-03-03T11:18:11Z</time>
      </trkpt>
      <trkpt lat="42.9241390" lon="-8.4179780">
        <ele>385.8</ele>
        <time>2021-03-03T11:18:12Z</time>
      </trkpt>
      <trkpt lat="42.9241130" lon="-8.4179720">
        <ele>385.8</ele>
        <time>2021-03-03T11:18:13Z</time>
      </trkpt>
      <trkpt lat="42.9240860" lon="-8.4179620">
        <ele>385.6</ele>
        <time>2021-03-03T11:18:14Z</time>
      </trkpt>
      <trkpt lat="42.9240530" lon="-8.4179480">
        <ele>385.6</ele>
        <time>2021-03-03T11:18:15Z</time>
      </trkpt>
      <trkpt lat="42.9240190" lon="-8.4179360">
        <ele>385.4</ele>
        <time>2021-03-03T11:18:16Z</time>
      </trkpt>
      <trkpt lat="42.9239870" lon="-8.4179210">
        <ele>385.2</ele>
        <time>2021-03-03T11:18:17Z</time>
      </trkpt>
      <trkpt lat="42.9239550" lon="-8.4179080">
        <ele>385.2</ele>
        <time>2021-03-03T11:18:18Z</time>
      </trkpt>
      <trkpt lat="42.9239250" lon="-8.4179050">
        <ele>385.0</ele>
        <time>2021-03-03T11:18:19Z</time>
      </trkpt>
      <trkpt lat="42.9238970" lon="-8.4179050">
        <ele>385.0</ele>
        <time>2021-03-03T11:18:20Z</time>
      </trkpt>
      <trkpt lat="42.9238690" lon="-8.4179010">
        <ele>384.8</ele>
        <time>2021-03-03T11:18:21Z</time>
      </trkpt>
      <trkpt lat="42.9238420" lon="-8.4178970">
        <ele>384.6</ele>
        <time>2021-03-03T11:18:22Z</time>
      </trkpt>
      <trkpt lat="42.9238140" lon="-8.4178920">
        <ele>384.6</ele>
        <time>2021-03-03T11:18:23Z</time>
      </trkpt>
      <trkpt lat="42.9237850" lon="-8.4178740">
        <ele>384.6</ele>
        <time>2021-03-03T11:18:24Z</time>
      </trkpt>
      <trkpt lat="42.9237540" lon="-8.4178560">
        <ele>384.6</ele>
        <time>2021-03-03T11:18:25Z</time>
      </trkpt>
      <trkpt lat="42.9237200" lon="-8.4178340">
        <ele>384.6</ele>
        <time>2021-03-03T11:18:26Z</time>
      </trkpt>
      <trkpt lat="42.9236870" lon="-8.4178150">
        <ele>384.4</ele>
        <time>2021-03-03T11:18:27Z</time>
      </trkpt>
      <trkpt lat="42.9236570" lon="-8.4177990">
        <ele>384.2</ele>
        <time>2021-03-03T11:18:28Z</time>
      </trkpt>
      <trkpt lat="42.9236270" lon="-8.4177880">
        <ele>384.0</ele>
        <time>2021-03-03T11:18:29Z</time>
      </trkpt>
      <trkpt lat="42.9235960" lon="-8.4177740">
        <ele>384.0</ele>
        <time>2021-03-03T11:18:30Z</time>
      </trkpt>
      <trkpt lat="42.9235670" lon="-8.4177690">
        <ele>384.0</ele>
        <time>2021-03-03T11:18:31Z</time>
      </trkpt>
      <trkpt lat="42.9235370" lon="-8.4177610">
        <ele>384.0</ele>
        <time>2021-03-03T11:18:32Z</time>
      </trkpt>
      <trkpt lat="42.9235090" lon="-8.4177520">
        <ele>383.6</ele>
        <time>2021-03-03T11:18:33Z</time>
      </trkpt>
      <trkpt lat="42.9234810" lon="-8.4177430">
        <ele>383.6</ele>
        <time>2021-03-03T11:18:34Z</time>
      </trkpt>
      <trkpt lat="42.9234520" lon="-8.4177360">
        <ele>383.4</ele>
        <time>2021-03-03T11:18:35Z</time>
      </trkpt>
      <trkpt lat="42.9234230" lon="-8.4177260">
        <ele>383.4</ele>
        <time>2021-03-03T11:18:36Z</time>
      </trkpt>
      <trkpt lat="42.9233960" lon="-8.4177180">
        <ele>383.2</ele>
        <time>2021-03-03T11:18:37Z</time>
      </trkpt>
      <trkpt lat="42.9233670" lon="-8.4177140">
        <ele>383.2</ele>
        <time>2021-03-03T11:18:38Z</time>
      </trkpt>
      <trkpt lat="42.9233370" lon="-8.4177090">
        <ele>382.8</ele>
        <time>2021-03-03T11:18:39Z</time>
      </trkpt>
      <trkpt lat="42.9233120" lon="-8.4177060">
        <ele>382.6</ele>
        <time>2021-03-03T11:18:40Z</time>
      </trkpt>
      <trkpt lat="42.9232840" lon="-8.4177040">
        <ele>382.6</ele>
        <time>2021-03-03T11:18:41Z</time>
      </trkpt>
      <trkpt lat="42.9232540" lon="-8.4176980">
        <ele>382.4</ele>
        <time>2021-03-03T11:18:42Z</time>
      </trkpt>
      <trkpt lat="42.9232280" lon="-8.4176890">
        <ele>382.2</ele>
        <time>2021-03-03T11:18:43Z</time>
      </trkpt>
      <trkpt lat="42.9232020" lon="-8.4176820">
        <ele>382.0</ele>
        <time>2021-03-03T11:18:44Z</time>
      </trkpt>
      <trkpt lat="42.9231760" lon="-8.4176750">
        <ele>381.8</ele>
        <time>2021-03-03T11:18:45Z</time>
      </trkpt>
      <trkpt lat="42.9231490" lon="-8.4176680">
        <ele>381.8</ele>
        <time>2021-03-03T11:18:46Z</time>
      </trkpt>
      <trkpt lat="42.9231210" lon="-8.4176610">
        <ele>381.6</ele>
        <time>2021-03-03T11:18:47Z</time>
      </trkpt>
      <trkpt lat="42.9230910" lon="-8.4176530">
        <ele>381.4</ele>
        <time>2021-03-03T11:18:48Z</time>
      </trkpt>
      <trkpt lat="42.9230640" lon="-8.4176460">
        <ele>381.4</ele>
        <time>2021-03-03T11:18:49Z</time>
      </trkpt>
      <trkpt lat="42.9230380" lon="-8.4176420">
        <ele>381.2</ele>
        <time>2021-03-03T11:18:50Z</time>
      </trkpt>
      <trkpt lat="42.9230050" lon="-8.4176360">
        <ele>380.8</ele>
        <time>2021-03-03T11:18:51Z</time>
      </trkpt>
      <trkpt lat="42.9229830" lon="-8.4176300">
        <ele>380.6</ele>
        <time>2021-03-03T11:18:52Z</time>
      </trkpt>
      <trkpt lat="42.9229550" lon="-8.4176210">
        <ele>380.4</ele>
        <time>2021-03-03T11:18:53Z</time>
      </trkpt>
      <trkpt lat="42.9229260" lon="-8.4176110">
        <ele>380.2</ele>
        <time>2021-03-03T11:18:54Z</time>
      </trkpt>
      <trkpt lat="42.9228980" lon="-8.4176030">
        <ele>380.2</ele>
        <time>2021-03-03T11:18:55Z</time>
      </trkpt>
      <trkpt lat="42.9228700" lon="-8.4175970">
        <ele>380.0</ele>
        <time>2021-03-03T11:18:56Z</time>
      </trkpt>
      <trkpt lat="42.9228430" lon="-8.4175930">
        <ele>379.8</ele>
        <time>2021-03-03T11:18:57Z</time>
      </trkpt>
      <trkpt lat="42.9228150" lon="-8.4175900">
        <ele>379.8</ele>
        <time>2021-03-03T11:18:58Z</time>
      </trkpt>
      <trkpt lat="42.9227890" lon="-8.4175850">
        <ele>379.6</ele>
        <time>2021-03-03T11:18:59Z</time>
      </trkpt>
      <trkpt lat="42.9227620" lon="-8.4175810">
        <ele>379.2</ele>
        <time>2021-03-03T11:19:00Z</time>
      </trkpt>
      <trkpt lat="42.9227350" lon="-8.4175750">
        <ele>379.0</ele>
        <time>2021-03-03T11:19:01Z</time>
      </trkpt>
      <trkpt lat="42.9227060" lon="-8.4175700">
        <ele>379.0</ele>
        <time>2021-03-03T11:19:02Z</time>
      </trkpt>
      <trkpt lat="42.9226760" lon="-8.4175660">
        <ele>378.8</ele>
        <time>2021-03-03T11:19:03Z</time>
      </trkpt>
      <trkpt lat="42.9226590" lon="-8.4175620">
        <ele>378.4</ele>
        <time>2021-03-03T11:19:04Z</time>
      </trkpt>
      <trkpt lat="42.9226350" lon="-8.4175540">
        <ele>378.4</ele>
        <time>2021-03-03T11:19:05Z</time>
      </trkpt>
      <trkpt lat="42.9226090" lon="-8.4175450">
        <ele>378.2</ele>
        <time>2021-03-03T11:19:06Z</time>
      </trkpt>
      <trkpt lat="42.9225830" lon="-8.4175350">
        <ele>378.0</ele>
        <time>2021-03-03T11:19:07Z</time>
      </trkpt>
      <trkpt lat="42.9225530" lon="-8.4175210">
        <ele>377.8</ele>
        <time>2021-03-03T11:19:08Z</time>
      </trkpt>
      <trkpt lat="42.9225200" lon="-8.4175090">
        <ele>377.4</ele>
        <time>2021-03-03T11:19:09Z</time>
      </trkpt>
      <trkpt lat="42.9224980" lon="-8.4175020">
        <ele>377.2</ele>
        <time>2021-03-03T11:19:10Z</time>
      </trkpt>
      <trkpt lat="42.9224710" lon="-8.4174950">
        <ele>377.0</ele>
        <time>2021-03-03T11:19:11Z</time>
      </trkpt>
      <trkpt lat="42.9224440" lon="-8.4174880">
        <ele>376.8</ele>
        <time>2021-03-03T11:19:12Z</time>
      </trkpt>
      <trkpt lat="42.9224140" lon="-8.4174790">
        <ele>376.6</ele>
        <time>2021-03-03T11:19:13Z</time>
      </trkpt>
      <trkpt lat="42.9223860" lon="-8.4174650">
        <ele>376.6</ele>
        <time>2021-03-03T11:19:14Z</time>
      </trkpt>
      <trkpt lat="42.9223570" lon="-8.4174480">
        <ele>376.4</ele>
        <time>2021-03-03T11:19:15Z</time>
      </trkpt>
      <trkpt lat="42.9223240" lon="-8.4174320">
        <ele>376.2</ele>
        <time>2021-03-03T11:19:16Z</time>
      </trkpt>
      <trkpt lat="42.9222950" lon="-8.4174190">
        <ele>376.2</ele>
        <time>2021-03-03T11:19:17Z</time>
      </trkpt>
      <trkpt lat="42.9222670" lon="-8.4174040">
        <ele>376.0</ele>
        <time>2021-03-03T11:19:18Z</time>
      </trkpt>
      <trkpt lat="42.9222360" lon="-8.4173850">
        <ele>375.8</ele>
        <time>2021-03-03T11:19:19Z</time>
      </trkpt>
      <trkpt lat="42.9222080" lon="-8.4173690">
        <ele>375.6</ele>
        <time>2021-03-03T11:19:20Z</time>
      </trkpt>
      <trkpt lat="42.9221790" lon="-8.4173540">
        <ele>375.4</ele>
        <time>2021-03-03T11:19:21Z</time>
      </trkpt>
      <trkpt lat="42.9221450" lon="-8.4173260">
        <ele>375.4</ele>
        <time>2021-03-03T11:19:22Z</time>
      </trkpt>
      <trkpt lat="42.9221160" lon="-8.4173080">
        <ele>375.2</ele>
        <time>2021-03-03T11:19:23Z</time>
      </trkpt>
      <trkpt lat="42.9220840" lon="-8.4173000">
        <ele>375.0</ele>
        <time>2021-03-03T11:19:24Z</time>
      </trkpt>
      <trkpt lat="42.9220520" lon="-8.4172890">
        <ele>374.8</ele>
        <time>2021-03-03T11:19:25Z</time>
      </trkpt>
      <trkpt lat="42.9220210" lon="-8.4172790">
        <ele>374.6</ele>
        <time>2021-03-03T11:19:26Z</time>
      </trkpt>
      <trkpt lat="42.9219870" lon="-8.4172750">
        <ele>374.6</ele>
        <time>2021-03-03T11:19:27Z</time>
      </trkpt>
      <trkpt lat="42.9219650" lon="-8.4172700">
        <ele>372.6</ele>
        <time>2021-03-03T11:19:28Z</time>
      </trkpt>
      <trkpt lat="42.9219400" lon="-8.4172630">
        <ele>372.6</ele>
        <time>2021-03-03T11:19:29Z</time>
      </trkpt>
      <trkpt lat="42.9219110" lon="-8.4172490">
        <ele>372.6</ele>
        <time>2021-03-03T11:19:30Z</time>
      </trkpt>
      <trkpt lat="42.9218810" lon="-8.4172440">
        <ele>372.6</ele>
        <time>2021-03-03T11:19:31Z</time>
      </trkpt>
      <trkpt lat="42.9218510" lon="-8.4172370">
        <ele>372.6</ele>
        <time>2021-03-03T11:19:32Z</time>
      </trkpt>
      <trkpt lat="42.9218220" lon="-8.4172250">
        <ele>372.2</ele>
        <time>2021-03-03T11:19:33Z</time>
      </trkpt>
      <trkpt lat="42.9217910" lon="-8.4172130">
        <ele>372.0</ele>
        <time>2021-03-03T11:19:34Z</time>
      </trkpt>
      <trkpt lat="42.9217560" lon="-8.4171980">
        <ele>371.8</ele>
        <time>2021-03-03T11:19:35Z</time>
      </trkpt>
      <trkpt lat="42.9217330" lon="-8.4171850">
        <ele>371.6</ele>
        <time>2021-03-03T11:19:36Z</time>
      </trkpt>
      <trkpt lat="42.9217040" lon="-8.4171750">
        <ele>371.4</ele>
        <time>2021-03-03T11:19:37Z</time>
      </trkpt>
      <trkpt lat="42.9216770" lon="-8.4171690">
        <ele>371.4</ele>
        <time>2021-03-03T11:19:38Z</time>
      </trkpt>
      <trkpt lat="42.9216500" lon="-8.4171620">
        <ele>371.2</ele>
        <time>2021-03-03T11:19:39Z</time>
      </trkpt>
      <trkpt lat="42.9216220" lon="-8.4171530">
        <ele>371.2</ele>
        <time>2021-03-03T11:19:40Z</time>
      </trkpt>
      <trkpt lat="42.9215960" lon="-8.4171460">
        <ele>371.0</ele>
        <time>2021-03-03T11:19:41Z</time>
      </trkpt>
      <trkpt lat="42.9215690" lon="-8.4171410">
        <ele>370.8</ele>
        <time>2021-03-03T11:19:42Z</time>
      </trkpt>
      <trkpt lat="42.9215420" lon="-8.4171340">
        <ele>370.8</ele>
        <time>2021-03-03T11:19:43Z</time>
      </trkpt>
      <trkpt lat="42.9215140" lon="-8.4171280">
        <ele>370.8</ele>
        <time>2021-03-03T11:19:44Z</time>
      </trkpt>
      <trkpt lat="42.9214860" lon="-8.4171200">
        <ele>370.6</ele>
        <time>2021-03-03T11:19:45Z</time>
      </trkpt>
      <trkpt lat="42.9214590" lon="-8.4171110">
        <ele>370.6</ele>
        <time>2021-03-03T11:19:46Z</time>
      </trkpt>
      <trkpt lat="42.9214310" lon="-8.4171030">
        <ele>370.4</ele>
        <time>2021-03-03T11:19:47Z</time>
      </trkpt>
      <trkpt lat="42.9214030" lon="-8.4170960">
        <ele>370.4</ele>
        <time>2021-03-03T11:19:48Z</time>
      </trkpt>
      <trkpt lat="42.9213690" lon="-8.4170900">
        <ele>370.4</ele>
        <time>2021-03-03T11:19:49Z</time>
      </trkpt>
      <trkpt lat="42.9213460" lon="-8.4170820">
        <ele>370.2</ele>
        <time>2021-03-03T11:19:50Z</time>
      </trkpt>
      <trkpt lat="42.9213170" lon="-8.4170760">
        <ele>370.2</ele>
        <time>2021-03-03T11:19:51Z</time>
      </trkpt>
      <trkpt lat="42.9212880" lon="-8.4170670">
        <ele>370.2</ele>
        <time>2021-03-03T11:19:52Z</time>
      </trkpt>
      <trkpt lat="42.9212600" lon="-8.4170570">
        <ele>370.2</ele>
        <time>2021-03-03T11:19:53Z</time>
      </trkpt>
      <trkpt lat="42.9212330" lon="-8.4170440">
        <ele>370.0</ele>
        <time>2021-03-03T11:19:54Z</time>
      </trkpt>
      <trkpt lat="42.9212050" lon="-8.4170350">
        <ele>370.0</ele>
        <time>2021-03-03T11:19:55Z</time>
      </trkpt>
      <trkpt lat="42.9211780" lon="-8.4170310">
        <ele>370.0</ele>
        <time>2021-03-03T11:19:56Z</time>
      </trkpt>
      <trkpt lat="42.9211500" lon="-8.4170260">
        <ele>370.0</ele>
        <time>2021-03-03T11:19:57Z</time>
      </trkpt>
      <trkpt lat="42.9211220" lon="-8.4170200">
        <ele>369.8</ele>
        <time>2021-03-03T11:19:58Z</time>
      </trkpt>
      <trkpt lat="42.9210970" lon="-8.4170150">
        <ele>369.8</ele>
        <time>2021-03-03T11:19:59Z</time>
      </trkpt>
      <trkpt lat="42.9210710" lon="-8.4170120">
        <ele>369.8</ele>
        <time>2021-03-03T11:20:00Z</time>
      </trkpt>
      <trkpt lat="42.9210470" lon="-8.4170120">
        <ele>369.8</ele>
        <time>2021-03-03T11:20:01Z</time>
      </trkpt>
      <trkpt lat="42.9210230" lon="-8.4170030">
        <ele>369.6</ele>
        <time>2021-03-03T11:20:02Z</time>
      </trkpt>
      <trkpt lat="42.9209960" lon="-8.4169940">
        <ele>369.6</ele>
        <time>2021-03-03T11:20:03Z</time>
      </trkpt>
      <trkpt lat="42.9209700" lon="-8.4169860">
        <ele>369.6</ele>
        <time>2021-03-03T11:20:04Z</time>
      </trkpt>
      <trkpt lat="42.9209430" lon="-8.4169790">
        <ele>369.6</ele>
        <time>2021-03-03T11:20:05Z</time>
      </trkpt>
      <trkpt lat="42.9209190" lon="-8.4169750">
        <ele>369.6</ele>
        <time>2021-03-03T11:20:06Z</time>
      </trkpt>
      <trkpt lat="42.9208940" lon="-8.4169710">
        <ele>369.4</ele>
        <time>2021-03-03T11:20:07Z</time>
      </trkpt>
      <trkpt lat="42.9208690" lon="-8.4169660">
        <ele>369.4</ele>
        <time>2021-03-03T11:20:08Z</time>
      </trkpt>
      <trkpt lat="42.9208420" lon="-8.4169630">
        <ele>369.6</ele>
        <time>2021-03-03T11:20:09Z</time>
      </trkpt>
      <trkpt lat="42.9208130" lon="-8.4169550">
        <ele>369.6</ele>
        <time>2021-03-03T11:20:10Z</time>
      </trkpt>
      <trkpt lat="42.9207850" lon="-8.4169470">
        <ele>369.6</ele>
        <time>2021-03-03T11:20:11Z</time>
      </trkpt>
      <trkpt lat="42.9207580" lon="-8.4169360">
        <ele>369.6</ele>
        <time>2021-03-03T11:20:12Z</time>
      </trkpt>
      <trkpt lat="42.9207290" lon="-8.4169270">
        <ele>369.6</ele>
        <time>2021-03-03T11:20:13Z</time>
      </trkpt>
      <trkpt lat="42.9207040" lon="-8.4169230">
        <ele>369.8</ele>
        <time>2021-03-03T11:20:14Z</time>
      </trkpt>
      <trkpt lat="42.9206800" lon="-8.4169190">
        <ele>369.8</ele>
        <time>2021-03-03T11:20:15Z</time>
      </trkpt>
      <trkpt lat="42.9206540" lon="-8.4169100">
        <ele>369.8</ele>
        <time>2021-03-03T11:20:16Z</time>
      </trkpt>
      <trkpt lat="42.9206240" lon="-8.4169020">
        <ele>369.8</ele>
        <time>2021-03-03T11:20:17Z</time>
      </trkpt>
      <trkpt lat="42.9206040" lon="-8.4168920">
        <ele>370.0</ele>
        <time>2021-03-03T11:20:18Z</time>
      </trkpt>
      <trkpt lat="42.9205780" lon="-8.4168810">
        <ele>370.0</ele>
        <time>2021-03-03T11:20:19Z</time>
      </trkpt>
      <trkpt lat="42.9205510" lon="-8.4168710">
        <ele>370.0</ele>
        <time>2021-03-03T11:20:20Z</time>
      </trkpt>
      <trkpt lat="42.9205240" lon="-8.4168630">
        <ele>370.0</ele>
        <time>2021-03-03T11:20:21Z</time>
      </trkpt>
      <trkpt lat="42.9204970" lon="-8.4168520">
        <ele>370.0</ele>
        <time>2021-03-03T11:20:22Z</time>
      </trkpt>
      <trkpt lat="42.9204670" lon="-8.4168390">
        <ele>370.0</ele>
        <time>2021-03-03T11:20:23Z</time>
      </trkpt>
      <trkpt lat="42.9204370" lon="-8.4168260">
        <ele>370.2</ele>
        <time>2021-03-03T11:20:24Z</time>
      </trkpt>
      <trkpt lat="42.9204110" lon="-8.4168170">
        <ele>370.2</ele>
        <time>2021-03-03T11:20:25Z</time>
      </trkpt>
      <trkpt lat="42.9203880" lon="-8.4168070">
        <ele>370.2</ele>
        <time>2021-03-03T11:20:26Z</time>
      </trkpt>
      <trkpt lat="42.9203640" lon="-8.4167960">
        <ele>370.2</ele>
        <time>2021-03-03T11:20:27Z</time>
      </trkpt>
      <trkpt lat="42.9203370" lon="-8.4167830">
        <ele>370.4</ele>
        <time>2021-03-03T11:20:28Z</time>
      </trkpt>
      <trkpt lat="42.9203090" lon="-8.4167700">
        <ele>370.4</ele>
        <time>2021-03-03T11:20:29Z</time>
      </trkpt>
      <trkpt lat="42.9202830" lon="-8.4167600">
        <ele>370.4</ele>
        <time>2021-03-03T11:20:30Z</time>
      </trkpt>
      <trkpt lat="42.9202570" lon="-8.4167470">
        <ele>370.4</ele>
        <time>2021-03-03T11:20:31Z</time>
      </trkpt>
      <trkpt lat="42.9202310" lon="-8.4167350">
        <ele>370.4</ele>
        <time>2021-03-03T11:20:32Z</time>
      </trkpt>
      <trkpt lat="42.9202030" lon="-8.4167180">
        <ele>370.4</ele>
        <time>2021-03-03T11:20:33Z</time>
      </trkpt>
      <trkpt lat="42.9201730" lon="-8.4167010">
        <ele>370.4</ele>
        <time>2021-03-03T11:20:34Z</time>
      </trkpt>
      <trkpt lat="42.9201460" lon="-8.4166840">
        <ele>370.4</ele>
        <time>2021-03-03T11:20:35Z</time>
      </trkpt>
      <trkpt lat="42.9201200" lon="-8.4166700">
        <ele>370.4</ele>
        <time>2021-03-03T11:20:36Z</time>
      </trkpt>
      <trkpt lat="42.9200920" lon="-8.4166550">
        <ele>370.4</ele>
        <time>2021-03-03T11:20:37Z</time>
      </trkpt>
      <trkpt lat="42.9200640" lon="-8.4166430">
        <ele>370.6</ele>
        <time>2021-03-03T11:20:38Z</time>
      </trkpt>
      <trkpt lat="42.9200370" lon="-8.4166300">
        <ele>370.4</ele>
        <time>2021-03-03T11:20:39Z</time>
      </trkpt>
      <trkpt lat="42.9200070" lon="-8.4166170">
        <ele>370.6</ele>
        <time>2021-03-03T11:20:40Z</time>
      </trkpt>
      <trkpt lat="42.9199780" lon="-8.4166020">
        <ele>370.8</ele>
        <time>2021-03-03T11:20:41Z</time>
      </trkpt>
      <trkpt lat="42.9199520" lon="-8.4165890">
        <ele>370.6</ele>
        <time>2021-03-03T11:20:42Z</time>
      </trkpt>
      <trkpt lat="42.9199280" lon="-8.4165790">
        <ele>370.8</ele>
        <time>2021-03-03T11:20:43Z</time>
      </trkpt>
      <trkpt lat="42.9199010" lon="-8.4165710">
        <ele>371.0</ele>
        <time>2021-03-03T11:20:44Z</time>
      </trkpt>
      <trkpt lat="42.9198740" lon="-8.4165620">
        <ele>371.0</ele>
        <time>2021-03-03T11:20:45Z</time>
      </trkpt>
      <trkpt lat="42.9198470" lon="-8.4165530">
        <ele>371.0</ele>
        <time>2021-03-03T11:20:46Z</time>
      </trkpt>
      <trkpt lat="42.9198190" lon="-8.4165410">
        <ele>370.6</ele>
        <time>2021-03-03T11:20:47Z</time>
      </trkpt>
      <trkpt lat="42.9197940" lon="-8.4165270">
        <ele>370.6</ele>
        <time>2021-03-03T11:20:48Z</time>
      </trkpt>
      <trkpt lat="42.9197710" lon="-8.4165140">
        <ele>370.6</ele>
        <time>2021-03-03T11:20:49Z</time>
      </trkpt>
      <trkpt lat="42.9197560" lon="-8.4165010">
        <ele>370.6</ele>
        <time>2021-03-03T11:20:50Z</time>
      </trkpt>
      <trkpt lat="42.9197430" lon="-8.4164890">
        <ele>370.6</ele>
        <time>2021-03-03T11:20:51Z</time>
      </trkpt>
      <trkpt lat="42.9197270" lon="-8.4164820">
        <ele>370.6</ele>
        <time>2021-03-03T11:20:52Z</time>
      </trkpt>
      <trkpt lat="42.9197130" lon="-8.4164760">
        <ele>370.4</ele>
        <time>2021-03-03T11:20:53Z</time>
      </trkpt>
      <trkpt lat="42.9196970" lon="-8.4164710">
        <ele>370.4</ele>
        <time>2021-03-03T11:20:54Z</time>
      </trkpt>
      <trkpt lat="42.9196820" lon="-8.4164680">
        <ele>370.4</ele>
        <time>2021-03-03T11:20:55Z</time>
      </trkpt>
      <trkpt lat="42.9196680" lon="-8.4164670">
        <ele>370.6</ele>
        <time>2021-03-03T11:20:56Z</time>
      </trkpt>
      <trkpt lat="42.9196530" lon="-8.4164640">
        <ele>370.6</ele>
        <time>2021-03-03T11:20:57Z</time>
      </trkpt>
      <trkpt lat="42.9196290" lon="-8.4164530">
        <ele>370.8</ele>
        <time>2021-03-03T11:20:58Z</time>
      </trkpt>
      <trkpt lat="42.9196010" lon="-8.4164400">
        <ele>370.8</ele>
        <time>2021-03-03T11:20:59Z</time>
      </trkpt>
      <trkpt lat="42.9195780" lon="-8.4164240">
        <ele>371.0</ele>
        <time>2021-03-03T11:21:00Z</time>
      </trkpt>
      <trkpt lat="42.9195500" lon="-8.4164090">
        <ele>371.2</ele>
        <time>2021-03-03T11:21:01Z</time>
      </trkpt>
      <trkpt lat="42.9195040" lon="-8.4163740">
        <ele>371.4</ele>
        <time>2021-03-03T11:21:02Z</time>
      </trkpt>
      <trkpt lat="42.9194620" lon="-8.4163330">
        <ele>371.4</ele>
        <time>2021-03-03T11:21:03Z</time>
      </trkpt>
      <trkpt lat="42.9194150" lon="-8.4162990">
        <ele>371.4</ele>
        <time>2021-03-03T11:21:04Z</time>
      </trkpt>
      <trkpt lat="42.9193860" lon="-8.4162830">
        <ele>371.6</ele>
        <time>2021-03-03T11:21:05Z</time>
      </trkpt>
      <trkpt lat="42.9193580" lon="-8.4162680">
        <ele>371.6</ele>
        <time>2021-03-03T11:21:06Z</time>
      </trkpt>
      <trkpt lat="42.9193290" lon="-8.4162550">
        <ele>371.6</ele>
        <time>2021-03-03T11:21:07Z</time>
      </trkpt>
      <trkpt lat="42.9193080" lon="-8.4162480">
        <ele>371.6</ele>
        <time>2021-03-03T11:21:08Z</time>
      </trkpt>
      <trkpt lat="42.9192850" lon="-8.4162420">
        <ele>371.8</ele>
        <time>2021-03-03T11:21:09Z</time>
      </trkpt>
      <trkpt lat="42.9192540" lon="-8.4162290">
        <ele>371.8</ele>
        <time>2021-03-03T11:21:10Z</time>
      </trkpt>
      <trkpt lat="42.9192240" lon="-8.4162130">
        <ele>372.0</ele>
        <time>2021-03-03T11:21:11Z</time>
      </trkpt>
      <trkpt lat="42.9191930" lon="-8.4161980">
        <ele>372.0</ele>
        <time>2021-03-03T11:21:12Z</time>
      </trkpt>
      <trkpt lat="42.9191660" lon="-8.4161860">
        <ele>372.0</ele>
        <time>2021-03-03T11:21:13Z</time>
      </trkpt>
      <trkpt lat="42.9191360" lon="-8.4161730">
        <ele>372.2</ele>
        <time>2021-03-03T11:21:14Z</time>
      </trkpt>
      <trkpt lat="42.9191070" lon="-8.4161560">
        <ele>372.2</ele>
        <time>2021-03-03T11:21:15Z</time>
      </trkpt>
      <trkpt lat="42.9190850" lon="-8.4161420">
        <ele>372.2</ele>
        <time>2021-03-03T11:21:16Z</time>
      </trkpt>
      <trkpt lat="42.9190530" lon="-8.4161230">
        <ele>372.4</ele>
        <time>2021-03-03T11:21:17Z</time>
      </trkpt>
      <trkpt lat="42.9190190" lon="-8.4161030">
        <ele>372.4</ele>
        <time>2021-03-03T11:21:18Z</time>
      </trkpt>
      <trkpt lat="42.9189880" lon="-8.4160870">
        <ele>372.4</ele>
        <time>2021-03-03T11:21:19Z</time>
      </trkpt>
      <trkpt lat="42.9189620" lon="-8.4160750">
        <ele>372.4</ele>
        <time>2021-03-03T11:21:20Z</time>
      </trkpt>
      <trkpt lat="42.9189390" lon="-8.4160630">
        <ele>372.4</ele>
        <time>2021-03-03T11:21:21Z</time>
      </trkpt>
      <trkpt lat="42.9189120" lon="-8.4160490">
        <ele>372.4</ele>
        <time>2021-03-03T11:21:22Z</time>
      </trkpt>
      <trkpt lat="42.9188840" lon="-8.4160400">
        <ele>372.4</ele>
        <time>2021-03-03T11:21:23Z</time>
      </trkpt>
      <trkpt lat="42.9188570" lon="-8.4160320">
        <ele>372.4</ele>
        <time>2021-03-03T11:21:24Z</time>
      </trkpt>
      <trkpt lat="42.9188320" lon="-8.4160250">
        <ele>372.4</ele>
        <time>2021-03-03T11:21:25Z</time>
      </trkpt>
      <trkpt lat="42.9188000" lon="-8.4160200">
        <ele>372.4</ele>
        <time>2021-03-03T11:21:26Z</time>
      </trkpt>
      <trkpt lat="42.9187700" lon="-8.4160170">
        <ele>372.4</ele>
        <time>2021-03-03T11:21:27Z</time>
      </trkpt>
      <trkpt lat="42.9187410" lon="-8.4160070">
        <ele>372.4</ele>
        <time>2021-03-03T11:21:28Z</time>
      </trkpt>
      <trkpt lat="42.9187090" lon="-8.4159960">
        <ele>372.6</ele>
        <time>2021-03-03T11:21:29Z</time>
      </trkpt>
      <trkpt lat="42.9186810" lon="-8.4159870">
        <ele>372.6</ele>
        <time>2021-03-03T11:21:30Z</time>
      </trkpt>
      <trkpt lat="42.9186530" lon="-8.4159760">
        <ele>372.6</ele>
        <time>2021-03-03T11:21:31Z</time>
      </trkpt>
      <trkpt lat="42.9186240" lon="-8.4159650">
        <ele>372.6</ele>
        <time>2021-03-03T11:21:32Z</time>
      </trkpt>
      <trkpt lat="42.9185940" lon="-8.4159510">
        <ele>372.6</ele>
        <time>2021-03-03T11:21:33Z</time>
      </trkpt>
      <trkpt lat="42.9185690" lon="-8.4159420">
        <ele>372.6</ele>
        <time>2021-03-03T11:21:34Z</time>
      </trkpt>
      <trkpt lat="42.9185430" lon="-8.4159300">
        <ele>372.6</ele>
        <time>2021-03-03T11:21:35Z</time>
      </trkpt>
      <trkpt lat="42.9185190" lon="-8.4159230">
        <ele>372.6</ele>
        <time>2021-03-03T11:21:36Z</time>
      </trkpt>
      <trkpt lat="42.9184950" lon="-8.4159150">
        <ele>372.6</ele>
        <time>2021-03-03T11:21:37Z</time>
      </trkpt>
      <trkpt lat="42.9184680" lon="-8.4159090">
        <ele>372.6</ele>
        <time>2021-03-03T11:21:38Z</time>
      </trkpt>
      <trkpt lat="42.9184310" lon="-8.4158970">
        <ele>372.6</ele>
        <time>2021-03-03T11:21:39Z</time>
      </trkpt>
      <trkpt lat="42.9184020" lon="-8.4158840">
        <ele>372.6</ele>
        <time>2021-03-03T11:21:40Z</time>
      </trkpt>
      <trkpt lat="42.9183750" lon="-8.4158730">
        <ele>372.4</ele>
        <time>2021-03-03T11:21:41Z</time>
      </trkpt>
      <trkpt lat="42.9183410" lon="-8.4158610">
        <ele>372.4</ele>
        <time>2021-03-03T11:21:42Z</time>
      </trkpt>
      <trkpt lat="42.9183140" lon="-8.4158510">
        <ele>372.4</ele>
        <time>2021-03-03T11:21:43Z</time>
      </trkpt>
      <trkpt lat="42.9182820" lon="-8.4158400">
        <ele>372.4</ele>
        <time>2021-03-03T11:21:44Z</time>
      </trkpt>
      <trkpt lat="42.9182430" lon="-8.4158250">
        <ele>372.2</ele>
        <time>2021-03-03T11:21:45Z</time>
      </trkpt>
      <trkpt lat="42.9182160" lon="-8.4158150">
        <ele>372.0</ele>
        <time>2021-03-03T11:21:46Z</time>
      </trkpt>
      <trkpt lat="42.9181830" lon="-8.4158000">
        <ele>372.0</ele>
        <time>2021-03-03T11:21:47Z</time>
      </trkpt>
      <trkpt lat="42.9181510" lon="-8.4157860">
        <ele>371.8</ele>
        <time>2021-03-03T11:21:48Z</time>
      </trkpt>
      <trkpt lat="42.9181170" lon="-8.4157660">
        <ele>371.8</ele>
        <time>2021-03-03T11:21:49Z</time>
      </trkpt>
      <trkpt lat="42.9180860" lon="-8.4157510">
        <ele>371.6</ele>
        <time>2021-03-03T11:21:50Z</time>
      </trkpt>
      <trkpt lat="42.9180560" lon="-8.4157410">
        <ele>371.6</ele>
        <time>2021-03-03T11:21:51Z</time>
      </trkpt>
      <trkpt lat="42.9180230" lon="-8.4157280">
        <ele>371.6</ele>
        <time>2021-03-03T11:21:52Z</time>
      </trkpt>
      <trkpt lat="42.9179860" lon="-8.4157080">
        <ele>371.4</ele>
        <time>2021-03-03T11:21:53Z</time>
      </trkpt>
      <trkpt lat="42.9179610" lon="-8.4157010">
        <ele>371.2</ele>
        <time>2021-03-03T11:21:54Z</time>
      </trkpt>
      <trkpt lat="42.9179280" lon="-8.4156880">
        <ele>371.0</ele>
        <time>2021-03-03T11:21:55Z</time>
      </trkpt>
      <trkpt lat="42.9179020" lon="-8.4156800">
        <ele>370.8</ele>
        <time>2021-03-03T11:21:56Z</time>
      </trkpt>
      <trkpt lat="42.9178720" lon="-8.4156770">
        <ele>370.8</ele>
        <time>2021-03-03T11:21:57Z</time>
      </trkpt>
      <trkpt lat="42.9178400" lon="-8.4156730">
        <ele>370.6</ele>
        <time>2021-03-03T11:21:58Z</time>
      </trkpt>
      <trkpt lat="42.9178060" lon="-8.4156600">
        <ele>370.6</ele>
        <time>2021-03-03T11:21:59Z</time>
      </trkpt>
      <trkpt lat="42.9177760" lon="-8.4156480">
        <ele>370.6</ele>
        <time>2021-03-03T11:22:00Z</time>
      </trkpt>
      <trkpt lat="42.9177440" lon="-8.4156340">
        <ele>370.4</ele>
        <time>2021-03-03T11:22:01Z</time>
      </trkpt>
      <trkpt lat="42.9177150" lon="-8.4156280">
        <ele>370.4</ele>
        <time>2021-03-03T11:22:02Z</time>
      </trkpt>
      <trkpt lat="42.9176840" lon="-8.4156130">
        <ele>370.4</ele>
        <time>2021-03-03T11:22:03Z</time>
      </trkpt>
      <trkpt lat="42.9176490" lon="-8.4155960">
        <ele>370.0</ele>
        <time>2021-03-03T11:22:04Z</time>
      </trkpt>
      <trkpt lat="42.9176260" lon="-8.4155850">
        <ele>368.6</ele>
        <time>2021-03-03T11:22:05Z</time>
      </trkpt>
      <trkpt lat="42.9175960" lon="-8.4155710">
        <ele>368.6</ele>
        <time>2021-03-03T11:22:06Z</time>
      </trkpt>
      <trkpt lat="42.9175650" lon="-8.4155600">
        <ele>368.6</ele>
        <time>2021-03-03T11:22:07Z</time>
      </trkpt>
      <trkpt lat="42.9175360" lon="-8.4155480">
        <ele>368.8</ele>
        <time>2021-03-03T11:22:08Z</time>
      </trkpt>
      <trkpt lat="42.9175040" lon="-8.4155320">
        <ele>369.0</ele>
        <time>2021-03-03T11:22:09Z</time>
      </trkpt>
      <trkpt lat="42.9174710" lon="-8.4155200">
        <ele>369.0</ele>
        <time>2021-03-03T11:22:10Z</time>
      </trkpt>
      <trkpt lat="42.9174330" lon="-8.4155120">
        <ele>369.0</ele>
        <time>2021-03-03T11:22:11Z</time>
      </trkpt>
      <trkpt lat="42.9174140" lon="-8.4155120">
        <ele>369.2</ele>
        <time>2021-03-03T11:22:12Z</time>
      </trkpt>
      <trkpt lat="42.9173770" lon="-8.4154970">
        <ele>369.0</ele>
        <time>2021-03-03T11:22:13Z</time>
      </trkpt>
      <trkpt lat="42.9173490" lon="-8.4154840">
        <ele>369.0</ele>
        <time>2021-03-03T11:22:14Z</time>
      </trkpt>
      <trkpt lat="42.9173200" lon="-8.4154720">
        <ele>368.8</ele>
        <time>2021-03-03T11:22:15Z</time>
      </trkpt>
      <trkpt lat="42.9172870" lon="-8.4154590">
        <ele>368.6</ele>
        <time>2021-03-03T11:22:16Z</time>
      </trkpt>
      <trkpt lat="42.9172570" lon="-8.4154480">
        <ele>368.4</ele>
        <time>2021-03-03T11:22:17Z</time>
      </trkpt>
      <trkpt lat="42.9172260" lon="-8.4154390">
        <ele>368.2</ele>
        <time>2021-03-03T11:22:18Z</time>
      </trkpt>
      <trkpt lat="42.9171970" lon="-8.4154300">
        <ele>367.8</ele>
        <time>2021-03-03T11:22:19Z</time>
      </trkpt>
      <trkpt lat="42.9171690" lon="-8.4154200">
        <ele>367.8</ele>
        <time>2021-03-03T11:22:20Z</time>
      </trkpt>
      <trkpt lat="42.9171360" lon="-8.4154080">
        <ele>367.6</ele>
        <time>2021-03-03T11:22:21Z</time>
      </trkpt>
      <trkpt lat="42.9171070" lon="-8.4153950">
        <ele>367.4</ele>
        <time>2021-03-03T11:22:22Z</time>
      </trkpt>
      <trkpt lat="42.9170800" lon="-8.4153850">
        <ele>367.2</ele>
        <time>2021-03-03T11:22:23Z</time>
      </trkpt>
      <trkpt lat="42.9170530" lon="-8.4153790">
        <ele>367.2</ele>
        <time>2021-03-03T11:22:24Z</time>
      </trkpt>
      <trkpt lat="42.9170230" lon="-8.4153670">
        <ele>367.0</ele>
        <time>2021-03-03T11:22:25Z</time>
      </trkpt>
      <trkpt lat="42.9169970" lon="-8.4153620">
        <ele>366.8</ele>
        <time>2021-03-03T11:22:26Z</time>
      </trkpt>
      <trkpt lat="42.9169660" lon="-8.4153550">
        <ele>366.8</ele>
        <time>2021-03-03T11:22:27Z</time>
      </trkpt>
      <trkpt lat="42.9169360" lon="-8.4153480">
        <ele>366.4</ele>
        <time>2021-03-03T11:22:28Z</time>
      </trkpt>
      <trkpt lat="42.9169070" lon="-8.4153440">
        <ele>366.2</ele>
        <time>2021-03-03T11:22:29Z</time>
      </trkpt>
      <trkpt lat="42.9168810" lon="-8.4153360">
        <ele>366.0</ele>
        <time>2021-03-03T11:22:30Z</time>
      </trkpt>
      <trkpt lat="42.9168560" lon="-8.4153260">
        <ele>366.0</ele>
        <time>2021-03-03T11:22:31Z</time>
      </trkpt>
      <trkpt lat="42.9168280" lon="-8.4153130">
        <ele>365.6</ele>
        <time>2021-03-03T11:22:32Z</time>
      </trkpt>
      <trkpt lat="42.9168010" lon="-8.4153010">
        <ele>365.6</ele>
        <time>2021-03-03T11:22:33Z</time>
      </trkpt>
      <trkpt lat="42.9167760" lon="-8.4152950">
        <ele>365.4</ele>
        <time>2021-03-03T11:22:34Z</time>
      </trkpt>
      <trkpt lat="42.9167480" lon="-8.4152920">
        <ele>365.4</ele>
        <time>2021-03-03T11:22:35Z</time>
      </trkpt>
      <trkpt lat="42.9167210" lon="-8.4152920">
        <ele>365.6</ele>
        <time>2021-03-03T11:22:36Z</time>
      </trkpt>
      <trkpt lat="42.9166930" lon="-8.4152880">
        <ele>365.8</ele>
        <time>2021-03-03T11:22:37Z</time>
      </trkpt>
      <trkpt lat="42.9166640" lon="-8.4152850">
        <ele>365.8</ele>
        <time>2021-03-03T11:22:38Z</time>
      </trkpt>
      <trkpt lat="42.9166340" lon="-8.4152780">
        <ele>365.8</ele>
        <time>2021-03-03T11:22:39Z</time>
      </trkpt>
      <trkpt lat="42.9166060" lon="-8.4152740">
        <ele>365.8</ele>
        <time>2021-03-03T11:22:40Z</time>
      </trkpt>
      <trkpt lat="42.9165760" lon="-8.4152720">
        <ele>366.0</ele>
        <time>2021-03-03T11:22:41Z</time>
      </trkpt>
      <trkpt lat="42.9165470" lon="-8.4152710">
        <ele>366.0</ele>
        <time>2021-03-03T11:22:42Z</time>
      </trkpt>
      <trkpt lat="42.9165200" lon="-8.4152700">
        <ele>366.0</ele>
        <time>2021-03-03T11:22:43Z</time>
      </trkpt>
      <trkpt lat="42.9164910" lon="-8.4152690">
        <ele>366.2</ele>
        <time>2021-03-03T11:22:44Z</time>
      </trkpt>
      <trkpt lat="42.9164620" lon="-8.4152630">
        <ele>366.2</ele>
        <time>2021-03-03T11:22:45Z</time>
      </trkpt>
      <trkpt lat="42.9164330" lon="-8.4152580">
        <ele>366.6</ele>
        <time>2021-03-03T11:22:46Z</time>
      </trkpt>
      <trkpt lat="42.9164060" lon="-8.4152520">
        <ele>366.8</ele>
        <time>2021-03-03T11:22:47Z</time>
      </trkpt>
      <trkpt lat="42.9163810" lon="-8.4152480">
        <ele>366.8</ele>
        <time>2021-03-03T11:22:48Z</time>
      </trkpt>
      <trkpt lat="42.9163570" lon="-8.4152460">
        <ele>366.8</ele>
        <time>2021-03-03T11:22:49Z</time>
      </trkpt>
      <trkpt lat="42.9163290" lon="-8.4152460">
        <ele>366.8</ele>
        <time>2021-03-03T11:22:50Z</time>
      </trkpt>
      <trkpt lat="42.9163110" lon="-8.4152460">
        <ele>366.8</ele>
        <time>2021-03-03T11:22:51Z</time>
      </trkpt>
      <trkpt lat="42.9162890" lon="-8.4152510">
        <ele>366.8</ele>
        <time>2021-03-03T11:22:52Z</time>
      </trkpt>
      <trkpt lat="42.9162640" lon="-8.4152510">
        <ele>366.8</ele>
        <time>2021-03-03T11:22:53Z</time>
      </trkpt>
      <trkpt lat="42.9162370" lon="-8.4152430">
        <ele>366.8</ele>
        <time>2021-03-03T11:22:54Z</time>
      </trkpt>
      <trkpt lat="42.9162100" lon="-8.4152330">
        <ele>366.8</ele>
        <time>2021-03-03T11:22:55Z</time>
      </trkpt>
      <trkpt lat="42.9161820" lon="-8.4152230">
        <ele>366.8</ele>
        <time>2021-03-03T11:22:56Z</time>
      </trkpt>
      <trkpt lat="42.9161550" lon="-8.4152110">
        <ele>367.0</ele>
        <time>2021-03-03T11:22:57Z</time>
      </trkpt>
      <trkpt lat="42.9161270" lon="-8.4152010">
        <ele>367.0</ele>
        <time>2021-03-03T11:22:58Z</time>
      </trkpt>
      <trkpt lat="42.9161010" lon="-8.4151890">
        <ele>367.0</ele>
        <time>2021-03-03T11:22:59Z</time>
      </trkpt>
      <trkpt lat="42.9160750" lon="-8.4151740">
        <ele>367.0</ele>
        <time>2021-03-03T11:23:00Z</time>
      </trkpt>
      <trkpt lat="42.9160480" lon="-8.4151570">
        <ele>367.0</ele>
        <time>2021-03-03T11:23:01Z</time>
      </trkpt>
      <trkpt lat="42.9160230" lon="-8.4151400">
        <ele>366.8</ele>
        <time>2021-03-03T11:23:02Z</time>
      </trkpt>
      <trkpt lat="42.9159990" lon="-8.4151210">
        <ele>366.8</ele>
        <time>2021-03-03T11:23:03Z</time>
      </trkpt>
      <trkpt lat="42.9159780" lon="-8.4151030">
        <ele>367.0</ele>
        <time>2021-03-03T11:23:04Z</time>
      </trkpt>
      <trkpt lat="42.9159580" lon="-8.4150820">
        <ele>367.0</ele>
        <time>2021-03-03T11:23:05Z</time>
      </trkpt>
      <trkpt lat="42.9159380" lon="-8.4150590">
        <ele>367.0</ele>
        <time>2021-03-03T11:23:06Z</time>
      </trkpt>
      <trkpt lat="42.9159180" lon="-8.4150350">
        <ele>367.2</ele>
        <time>2021-03-03T11:23:07Z</time>
      </trkpt>
      <trkpt lat="42.9158980" lon="-8.4150080">
        <ele>367.2</ele>
        <time>2021-03-03T11:23:08Z</time>
      </trkpt>
      <trkpt lat="42.9158790" lon="-8.4149810">
        <ele>367.2</ele>
        <time>2021-03-03T11:23:09Z</time>
      </trkpt>
      <trkpt lat="42.9158600" lon="-8.4149540">
        <ele>367.6</ele>
        <time>2021-03-03T11:23:10Z</time>
      </trkpt>
      <trkpt lat="42.9158410" lon="-8.4149250">
        <ele>367.4</ele>
        <time>2021-03-03T11:23:11Z</time>
      </trkpt>
      <trkpt lat="42.9158260" lon="-8.4148950">
        <ele>367.4</ele>
        <time>2021-03-03T11:23:12Z</time>
      </trkpt>
      <trkpt lat="42.9158120" lon="-8.4148650">
        <ele>367.6</ele>
        <time>2021-03-03T11:23:13Z</time>
      </trkpt>
      <trkpt lat="42.9157970" lon="-8.4148370">
        <ele>367.6</ele>
        <time>2021-03-03T11:23:14Z</time>
      </trkpt>
      <trkpt lat="42.9157790" lon="-8.4148070">
        <ele>367.8</ele>
        <time>2021-03-03T11:23:15Z</time>
      </trkpt>
      <trkpt lat="42.9157600" lon="-8.4147790">
        <ele>367.8</ele>
        <time>2021-03-03T11:23:16Z</time>
      </trkpt>
      <trkpt lat="42.9157430" lon="-8.4147500">
        <ele>367.6</ele>
        <time>2021-03-03T11:23:17Z</time>
      </trkpt>
      <trkpt lat="42.9157280" lon="-8.4147180">
        <ele>367.8</ele>
        <time>2021-03-03T11:23:18Z</time>
      </trkpt>
      <trkpt lat="42.9157140" lon="-8.4146850">
        <ele>367.6</ele>
        <time>2021-03-03T11:23:19Z</time>
      </trkpt>
      <trkpt lat="42.9157010" lon="-8.4146520">
        <ele>367.6</ele>
        <time>2021-03-03T11:23:20Z</time>
      </trkpt>
      <trkpt lat="42.9156880" lon="-8.4146170">
        <ele>367.8</ele>
        <time>2021-03-03T11:23:21Z</time>
      </trkpt>
      <trkpt lat="42.9156760" lon="-8.4145830">
        <ele>368.0</ele>
        <time>2021-03-03T11:23:22Z</time>
      </trkpt>
      <trkpt lat="42.9156650" lon="-8.4145480">
        <ele>368.2</ele>
        <time>2021-03-03T11:23:23Z</time>
      </trkpt>
      <trkpt lat="42.9156510" lon="-8.4145110">
        <ele>368.2</ele>
        <time>2021-03-03T11:23:24Z</time>
      </trkpt>
      <trkpt lat="42.9156380" lon="-8.4144750">
        <ele>368.2</ele>
        <time>2021-03-03T11:23:25Z</time>
      </trkpt>
      <trkpt lat="42.9156260" lon="-8.4144410">
        <ele>368.4</ele>
        <time>2021-03-03T11:23:26Z</time>
      </trkpt>
      <trkpt lat="42.9156140" lon="-8.4144070">
        <ele>368.4</ele>
        <time>2021-03-03T11:23:27Z</time>
      </trkpt>
      <trkpt lat="42.9156040" lon="-8.4143740">
        <ele>368.6</ele>
        <time>2021-03-03T11:23:28Z</time>
      </trkpt>
      <trkpt lat="42.9155950" lon="-8.4143400">
        <ele>368.6</ele>
        <time>2021-03-03T11:23:29Z</time>
      </trkpt>
      <trkpt lat="42.9155810" lon="-8.4143030">
        <ele>368.6</ele>
        <time>2021-03-03T11:23:30Z</time>
      </trkpt>
      <trkpt lat="42.9155700" lon="-8.4142680">
        <ele>368.8</ele>
        <time>2021-03-03T11:23:31Z</time>
      </trkpt>
      <trkpt lat="42.9155580" lon="-8.4142320">
        <ele>369.0</ele>
        <time>2021-03-03T11:23:32Z</time>
      </trkpt>
      <trkpt lat="42.9155480" lon="-8.4141950">
        <ele>369.0</ele>
        <time>2021-03-03T11:23:33Z</time>
      </trkpt>
      <trkpt lat="42.9155390" lon="-8.4141610">
        <ele>368.8</ele>
        <time>2021-03-03T11:23:34Z</time>
      </trkpt>
      <trkpt lat="42.9155300" lon="-8.4141260">
        <ele>368.8</ele>
        <time>2021-03-03T11:23:35Z</time>
      </trkpt>
      <trkpt lat="42.9155220" lon="-8.4140920">
        <ele>368.6</ele>
        <time>2021-03-03T11:23:36Z</time>
      </trkpt>
      <trkpt lat="42.9155140" lon="-8.4140600">
        <ele>368.6</ele>
        <time>2021-03-03T11:23:37Z</time>
      </trkpt>
      <trkpt lat="42.9155030" lon="-8.4140270">
        <ele>368.6</ele>
        <time>2021-03-03T11:23:38Z</time>
      </trkpt>
      <trkpt lat="42.9154950" lon="-8.4139930">
        <ele>368.6</ele>
        <time>2021-03-03T11:23:39Z</time>
      </trkpt>
      <trkpt lat="42.9154860" lon="-8.4139600">
        <ele>368.8</ele>
        <time>2021-03-03T11:23:40Z</time>
      </trkpt>
      <trkpt lat="42.9154750" lon="-8.4139240">
        <ele>368.8</ele>
        <time>2021-03-03T11:23:41Z</time>
      </trkpt>
      <trkpt lat="42.9154640" lon="-8.4138900">
        <ele>368.8</ele>
        <time>2021-03-03T11:23:42Z</time>
      </trkpt>
      <trkpt lat="42.9154530" lon="-8.4138580">
        <ele>368.8</ele>
        <time>2021-03-03T11:23:43Z</time>
      </trkpt>
      <trkpt lat="42.9154400" lon="-8.4138270">
        <ele>369.0</ele>
        <time>2021-03-03T11:23:44Z</time>
      </trkpt>
      <trkpt lat="42.9154230" lon="-8.4137980">
        <ele>368.8</ele>
        <time>2021-03-03T11:23:45Z</time>
      </trkpt>
      <trkpt lat="42.9154040" lon="-8.4137610">
        <ele>368.8</ele>
        <time>2021-03-03T11:23:46Z</time>
      </trkpt>
      <trkpt lat="42.9153830" lon="-8.4137230">
        <ele>368.8</ele>
        <time>2021-03-03T11:23:47Z</time>
      </trkpt>
      <trkpt lat="42.9153670" lon="-8.4136920">
        <ele>368.8</ele>
        <time>2021-03-03T11:23:48Z</time>
      </trkpt>
      <trkpt lat="42.9153480" lon="-8.4136670">
        <ele>368.8</ele>
        <time>2021-03-03T11:23:49Z</time>
      </trkpt>
      <trkpt lat="42.9153290" lon="-8.4136410">
        <ele>369.0</ele>
        <time>2021-03-03T11:23:50Z</time>
      </trkpt>
      <trkpt lat="42.9153070" lon="-8.4136160">
        <ele>369.2</ele>
        <time>2021-03-03T11:23:51Z</time>
      </trkpt>
      <trkpt lat="42.9152820" lon="-8.4135990">
        <ele>369.2</ele>
        <time>2021-03-03T11:23:52Z</time>
      </trkpt>
      <trkpt lat="42.9152560" lon="-8.4135890">
        <ele>369.2</ele>
        <time>2021-03-03T11:23:53Z</time>
      </trkpt>
      <trkpt lat="42.9152270" lon="-8.4135900">
        <ele>368.4</ele>
        <time>2021-03-03T11:23:54Z</time>
      </trkpt>
      <trkpt lat="42.9151960" lon="-8.4136030">
        <ele>368.4</ele>
        <time>2021-03-03T11:23:55Z</time>
      </trkpt>
      <trkpt lat="42.9151650" lon="-8.4136190">
        <ele>368.4</ele>
        <time>2021-03-03T11:23:56Z</time>
      </trkpt>
      <trkpt lat="42.9151400" lon="-8.4136400">
        <ele>368.4</ele>
        <time>2021-03-03T11:23:57Z</time>
      </trkpt>
      <trkpt lat="42.9151160" lon="-8.4136640">
        <ele>368.4</ele>
        <time>2021-03-03T11:23:58Z</time>
      </trkpt>
      <trkpt lat="42.9150920" lon="-8.4136860">
        <ele>368.2</ele>
        <time>2021-03-03T11:23:59Z</time>
      </trkpt>
      <trkpt lat="42.9150660" lon="-8.4137070">
        <ele>368.0</ele>
        <time>2021-03-03T11:24:00Z</time>
      </trkpt>
      <trkpt lat="42.9150400" lon="-8.4137290">
        <ele>367.6</ele>
        <time>2021-03-03T11:24:01Z</time>
      </trkpt>
      <trkpt lat="42.9150150" lon="-8.4137510">
        <ele>367.2</ele>
        <time>2021-03-03T11:24:02Z</time>
      </trkpt>
      <trkpt lat="42.9149840" lon="-8.4137780">
        <ele>367.0</ele>
        <time>2021-03-03T11:24:03Z</time>
      </trkpt>
      <trkpt lat="42.9149610" lon="-8.4137940">
        <ele>367.0</ele>
        <time>2021-03-03T11:24:04Z</time>
      </trkpt>
      <trkpt lat="42.9149350" lon="-8.4138150">
        <ele>366.8</ele>
        <time>2021-03-03T11:24:05Z</time>
      </trkpt>
      <trkpt lat="42.9149100" lon="-8.4138360">
        <ele>366.8</ele>
        <time>2021-03-03T11:24:06Z</time>
      </trkpt>
      <trkpt lat="42.9148830" lon="-8.4138580">
        <ele>366.6</ele>
        <time>2021-03-03T11:24:07Z</time>
      </trkpt>
      <trkpt lat="42.9148600" lon="-8.4138800">
        <ele>366.6</ele>
        <time>2021-03-03T11:24:08Z</time>
      </trkpt>
      <trkpt lat="42.9148360" lon="-8.4139030">
        <ele>366.6</ele>
        <time>2021-03-03T11:24:09Z</time>
      </trkpt>
      <trkpt lat="42.9148120" lon="-8.4139280">
        <ele>366.6</ele>
        <time>2021-03-03T11:24:10Z</time>
      </trkpt>
      <trkpt lat="42.9147890" lon="-8.4139520">
        <ele>366.4</ele>
        <time>2021-03-03T11:24:11Z</time>
      </trkpt>
      <trkpt lat="42.9147660" lon="-8.4139750">
        <ele>366.4</ele>
        <time>2021-03-03T11:24:12Z</time>
      </trkpt>
      <trkpt lat="42.9147410" lon="-8.4139970">
        <ele>366.2</ele>
        <time>2021-03-03T11:24:13Z</time>
      </trkpt>
      <trkpt lat="42.9147150" lon="-8.4140190">
        <ele>366.2</ele>
        <time>2021-03-03T11:24:14Z</time>
      </trkpt>
      <trkpt lat="42.9146900" lon="-8.4140420">
        <ele>366.0</ele>
        <time>2021-03-03T11:24:15Z</time>
      </trkpt>
      <trkpt lat="42.9146660" lon="-8.4140640">
        <ele>366.0</ele>
        <time>2021-03-03T11:24:16Z</time>
      </trkpt>
      <trkpt lat="42.9146440" lon="-8.4140850">
        <ele>365.8</ele>
        <time>2021-03-03T11:24:17Z</time>
      </trkpt>
      <trkpt lat="42.9146200" lon="-8.4141040">
        <ele>365.8</ele>
        <time>2021-03-03T11:24:18Z</time>
      </trkpt>
      <trkpt lat="42.9145930" lon="-8.4141200">
        <ele>365.8</ele>
        <time>2021-03-03T11:24:19Z</time>
      </trkpt>
      <trkpt lat="42.9145670" lon="-8.4141340">
        <ele>365.8</ele>
        <time>2021-03-03T11:24:20Z</time>
      </trkpt>
      <trkpt lat="42.9145410" lon="-8.4141450">
        <ele>365.8</ele>
        <time>2021-03-03T11:24:21Z</time>
      </trkpt>
      <trkpt lat="42.9145130" lon="-8.4141500">
        <ele>365.6</ele>
        <time>2021-03-03T11:24:22Z</time>
      </trkpt>
      <trkpt lat="42.9144860" lon="-8.4141500">
        <ele>365.6</ele>
        <time>2021-03-03T11:24:23Z</time>
      </trkpt>
      <trkpt lat="42.9144580" lon="-8.4141470">
        <ele>365.6</ele>
        <time>2021-03-03T11:24:24Z</time>
      </trkpt>
      <trkpt lat="42.9144300" lon="-8.4141410">
        <ele>365.6</ele>
        <time>2021-03-03T11:24:25Z</time>
      </trkpt>
      <trkpt lat="42.9144030" lon="-8.4141350">
        <ele>365.6</ele>
        <time>2021-03-03T11:24:26Z</time>
      </trkpt>
      <trkpt lat="42.9143740" lon="-8.4141300">
        <ele>365.4</ele>
        <time>2021-03-03T11:24:27Z</time>
      </trkpt>
      <trkpt lat="42.9143470" lon="-8.4141260">
        <ele>365.4</ele>
        <time>2021-03-03T11:24:28Z</time>
      </trkpt>
      <trkpt lat="42.9143200" lon="-8.4141160">
        <ele>365.4</ele>
        <time>2021-03-03T11:24:29Z</time>
      </trkpt>
      <trkpt lat="42.9142940" lon="-8.4141080">
        <ele>365.4</ele>
        <time>2021-03-03T11:24:30Z</time>
      </trkpt>
      <trkpt lat="42.9142670" lon="-8.4141010">
        <ele>365.4</ele>
        <time>2021-03-03T11:24:31Z</time>
      </trkpt>
      <trkpt lat="42.9142410" lon="-8.4140960">
        <ele>365.4</ele>
        <time>2021-03-03T11:24:32Z</time>
      </trkpt>
      <trkpt lat="42.9142150" lon="-8.4140920">
        <ele>365.4</ele>
        <time>2021-03-03T11:24:33Z</time>
      </trkpt>
      <trkpt lat="42.9141870" lon="-8.4140870">
        <ele>365.4</ele>
        <time>2021-03-03T11:24:34Z</time>
      </trkpt>
      <trkpt lat="42.9141610" lon="-8.4140820">
        <ele>365.4</ele>
        <time>2021-03-03T11:24:35Z</time>
      </trkpt>
      <trkpt lat="42.9141330" lon="-8.4140770">
        <ele>365.4</ele>
        <time>2021-03-03T11:24:36Z</time>
      </trkpt>
      <trkpt lat="42.9141060" lon="-8.4140710">
        <ele>365.4</ele>
        <time>2021-03-03T11:24:37Z</time>
      </trkpt>
      <trkpt lat="42.9140770" lon="-8.4140650">
        <ele>365.4</ele>
        <time>2021-03-03T11:24:38Z</time>
      </trkpt>
      <trkpt lat="42.9140490" lon="-8.4140600">
        <ele>365.4</ele>
        <time>2021-03-03T11:24:39Z</time>
      </trkpt>
      <trkpt lat="42.9140220" lon="-8.4140550">
        <ele>365.4</ele>
        <time>2021-03-03T11:24:40Z</time>
      </trkpt>
      <trkpt lat="42.9139960" lon="-8.4140490">
        <ele>365.4</ele>
        <time>2021-03-03T11:24:41Z</time>
      </trkpt>
      <trkpt lat="42.9139690" lon="-8.4140420">
        <ele>365.4</ele>
        <time>2021-03-03T11:24:42Z</time>
      </trkpt>
      <trkpt lat="42.9139410" lon="-8.4140370">
        <ele>365.4</ele>
        <time>2021-03-03T11:24:43Z</time>
      </trkpt>
      <trkpt lat="42.9139140" lon="-8.4140340">
        <ele>365.2</ele>
        <time>2021-03-03T11:24:44Z</time>
      </trkpt>
      <trkpt lat="42.9138870" lon="-8.4140340">
        <ele>365.2</ele>
        <time>2021-03-03T11:24:45Z</time>
      </trkpt>
      <trkpt lat="42.9138590" lon="-8.4140330">
        <ele>365.2</ele>
        <time>2021-03-03T11:24:46Z</time>
      </trkpt>
      <trkpt lat="42.9138330" lon="-8.4140340">
        <ele>365.2</ele>
        <time>2021-03-03T11:24:47Z</time>
      </trkpt>
      <trkpt lat="42.9138040" lon="-8.4140320">
        <ele>365.2</ele>
        <time>2021-03-03T11:24:48Z</time>
      </trkpt>
      <trkpt lat="42.9137760" lon="-8.4140330">
        <ele>365.2</ele>
        <time>2021-03-03T11:24:49Z</time>
      </trkpt>
      <trkpt lat="42.9137480" lon="-8.4140330">
        <ele>365.4</ele>
        <time>2021-03-03T11:24:50Z</time>
      </trkpt>
      <trkpt lat="42.9137220" lon="-8.4140370">
        <ele>365.4</ele>
        <time>2021-03-03T11:24:51Z</time>
      </trkpt>
      <trkpt lat="42.9136950" lon="-8.4140400">
        <ele>365.4</ele>
        <time>2021-03-03T11:24:52Z</time>
      </trkpt>
      <trkpt lat="42.9136690" lon="-8.4140430">
        <ele>365.6</ele>
        <time>2021-03-03T11:24:53Z</time>
      </trkpt>
      <trkpt lat="42.9136450" lon="-8.4140410">
        <ele>365.6</ele>
        <time>2021-03-03T11:24:54Z</time>
      </trkpt>
      <trkpt lat="42.9136210" lon="-8.4140370">
        <ele>365.8</ele>
        <time>2021-03-03T11:24:55Z</time>
      </trkpt>
      <trkpt lat="42.9135970" lon="-8.4140340">
        <ele>366.0</ele>
        <time>2021-03-03T11:24:56Z</time>
      </trkpt>
      <trkpt lat="42.9135720" lon="-8.4140320">
        <ele>366.2</ele>
        <time>2021-03-03T11:24:57Z</time>
      </trkpt>
      <trkpt lat="42.9135490" lon="-8.4140320">
        <ele>366.6</ele>
        <time>2021-03-03T11:24:58Z</time>
      </trkpt>
      <trkpt lat="42.9135240" lon="-8.4140350">
        <ele>366.8</ele>
        <time>2021-03-03T11:24:59Z</time>
      </trkpt>
      <trkpt lat="42.9134990" lon="-8.4140380">
        <ele>366.8</ele>
        <time>2021-03-03T11:25:00Z</time>
      </trkpt>
      <trkpt lat="42.9134750" lon="-8.4140430">
        <ele>367.0</ele>
        <time>2021-03-03T11:25:01Z</time>
      </trkpt>
      <trkpt lat="42.9134510" lon="-8.4140460">
        <ele>367.2</ele>
        <time>2021-03-03T11:25:02Z</time>
      </trkpt>
      <trkpt lat="42.9134250" lon="-8.4140490">
        <ele>367.2</ele>
        <time>2021-03-03T11:25:03Z</time>
      </trkpt>
      <trkpt lat="42.9133990" lon="-8.4140530">
        <ele>367.2</ele>
        <time>2021-03-03T11:25:04Z</time>
      </trkpt>
      <trkpt lat="42.9133750" lon="-8.4140570">
        <ele>367.2</ele>
        <time>2021-03-03T11:25:05Z</time>
      </trkpt>
      <trkpt lat="42.9133490" lon="-8.4140580">
        <ele>367.2</ele>
        <time>2021-03-03T11:25:06Z</time>
      </trkpt>
      <trkpt lat="42.9133220" lon="-8.4140570">
        <ele>367.4</ele>
        <time>2021-03-03T11:25:07Z</time>
      </trkpt>
      <trkpt lat="42.9132940" lon="-8.4140560">
        <ele>367.4</ele>
        <time>2021-03-03T11:25:08Z</time>
      </trkpt>
      <trkpt lat="42.9132670" lon="-8.4140560">
        <ele>367.4</ele>
        <time>2021-03-03T11:25:09Z</time>
      </trkpt>
      <trkpt lat="42.9132400" lon="-8.4140570">
        <ele>367.4</ele>
        <time>2021-03-03T11:25:10Z</time>
      </trkpt>
      <trkpt lat="42.9132130" lon="-8.4140620">
        <ele>367.4</ele>
        <time>2021-03-03T11:25:11Z</time>
      </trkpt>
      <trkpt lat="42.9131860" lon="-8.4140700">
        <ele>367.2</ele>
        <time>2021-03-03T11:25:12Z</time>
      </trkpt>
      <trkpt lat="42.9131610" lon="-8.4140790">
        <ele>367.2</ele>
        <time>2021-03-03T11:25:13Z</time>
      </trkpt>
      <trkpt lat="42.9131340" lon="-8.4140850">
        <ele>367.2</ele>
        <time>2021-03-03T11:25:14Z</time>
      </trkpt>
      <trkpt lat="42.9131090" lon="-8.4140890">
        <ele>367.2</ele>
        <time>2021-03-03T11:25:15Z</time>
      </trkpt>
      <trkpt lat="42.9130830" lon="-8.4140900">
        <ele>367.2</ele>
        <time>2021-03-03T11:25:16Z</time>
      </trkpt>
      <trkpt lat="42.9130560" lon="-8.4140890">
        <ele>367.2</ele>
        <time>2021-03-03T11:25:17Z</time>
      </trkpt>
      <trkpt lat="42.9130300" lon="-8.4140930">
        <ele>367.0</ele>
        <time>2021-03-03T11:25:18Z</time>
      </trkpt>
      <trkpt lat="42.9130050" lon="-8.4140980">
        <ele>367.0</ele>
        <time>2021-03-03T11:25:19Z</time>
      </trkpt>
      <trkpt lat="42.9129800" lon="-8.4141030">
        <ele>367.2</ele>
        <time>2021-03-03T11:25:20Z</time>
      </trkpt>
      <trkpt lat="42.9129520" lon="-8.4141080">
        <ele>367.0</ele>
        <time>2021-03-03T11:25:21Z</time>
      </trkpt>
      <trkpt lat="42.9129250" lon="-8.4141120">
        <ele>367.0</ele>
        <time>2021-03-03T11:25:22Z</time>
      </trkpt>
      <trkpt lat="42.9129000" lon="-8.4141160">
        <ele>367.2</ele>
        <time>2021-03-03T11:25:23Z</time>
      </trkpt>
      <trkpt lat="42.9128810" lon="-8.4141220">
        <ele>367.2</ele>
        <time>2021-03-03T11:25:24Z</time>
      </trkpt>
      <trkpt lat="42.9128570" lon="-8.4141250">
        <ele>367.2</ele>
        <time>2021-03-03T11:25:25Z</time>
      </trkpt>
      <trkpt lat="42.9128330" lon="-8.4141260">
        <ele>367.2</ele>
        <time>2021-03-03T11:25:26Z</time>
      </trkpt>
      <trkpt lat="42.9128110" lon="-8.4141290">
        <ele>367.2</ele>
        <time>2021-03-03T11:25:27Z</time>
      </trkpt>
      <trkpt lat="42.9127930" lon="-8.4141310">
        <ele>367.2</ele>
        <time>2021-03-03T11:25:28Z</time>
      </trkpt>
      <trkpt lat="42.9127720" lon="-8.4141250">
        <ele>367.2</ele>
        <time>2021-03-03T11:25:29Z</time>
      </trkpt>
      <trkpt lat="42.9127510" lon="-8.4141210">
        <ele>367.2</ele>
        <time>2021-03-03T11:25:30Z</time>
      </trkpt>
      <trkpt lat="42.9127290" lon="-8.4141230">
        <ele>367.2</ele>
        <time>2021-03-03T11:25:31Z</time>
      </trkpt>
      <trkpt lat="42.9127060" lon="-8.4141220">
        <ele>367.2</ele>
        <time>2021-03-03T11:25:32Z</time>
      </trkpt>
      <trkpt lat="42.9126850" lon="-8.4141230">
        <ele>367.2</ele>
        <time>2021-03-03T11:25:33Z</time>
      </trkpt>
      <trkpt lat="42.9126620" lon="-8.4141220">
        <ele>367.2</ele>
        <time>2021-03-03T11:25:34Z</time>
      </trkpt>
      <trkpt lat="42.9126370" lon="-8.4141240">
        <ele>367.2</ele>
        <time>2021-03-03T11:25:35Z</time>
      </trkpt>
      <trkpt lat="42.9126160" lon="-8.4141250">
        <ele>367.2</ele>
        <time>2021-03-03T11:25:36Z</time>
      </trkpt>
      <trkpt lat="42.9125960" lon="-8.4141250">
        <ele>367.2</ele>
        <time>2021-03-03T11:25:37Z</time>
      </trkpt>
      <trkpt lat="42.9125740" lon="-8.4141230">
        <ele>367.2</ele>
        <time>2021-03-03T11:25:38Z</time>
      </trkpt>
      <trkpt lat="42.9125490" lon="-8.4141240">
        <ele>367.2</ele>
        <time>2021-03-03T11:25:39Z</time>
      </trkpt>
      <trkpt lat="42.9125220" lon="-8.4141230">
        <ele>367.2</ele>
        <time>2021-03-03T11:25:40Z</time>
      </trkpt>
      <trkpt lat="42.9124980" lon="-8.4141220">
        <ele>367.4</ele>
        <time>2021-03-03T11:25:41Z</time>
      </trkpt>
      <trkpt lat="42.9124700" lon="-8.4141180">
        <ele>367.4</ele>
        <time>2021-03-03T11:25:42Z</time>
      </trkpt>
      <trkpt lat="42.9124430" lon="-8.4141210">
        <ele>367.4</ele>
        <time>2021-03-03T11:25:43Z</time>
      </trkpt>
      <trkpt lat="42.9124160" lon="-8.4141240">
        <ele>367.4</ele>
        <time>2021-03-03T11:25:44Z</time>
      </trkpt>
      <trkpt lat="42.9123890" lon="-8.4141270">
        <ele>367.4</ele>
        <time>2021-03-03T11:25:45Z</time>
      </trkpt>
      <trkpt lat="42.9123670" lon="-8.4141300">
        <ele>367.4</ele>
        <time>2021-03-03T11:25:46Z</time>
      </trkpt>
      <trkpt lat="42.9123390" lon="-8.4141320">
        <ele>367.4</ele>
        <time>2021-03-03T11:25:47Z</time>
      </trkpt>
      <trkpt lat="42.9123110" lon="-8.4141370">
        <ele>367.4</ele>
        <time>2021-03-03T11:25:48Z</time>
      </trkpt>
      <trkpt lat="42.9122810" lon="-8.4141450">
        <ele>367.4</ele>
        <time>2021-03-03T11:25:49Z</time>
      </trkpt>
      <trkpt lat="42.9122540" lon="-8.4141470">
        <ele>367.4</ele>
        <time>2021-03-03T11:25:50Z</time>
      </trkpt>
      <trkpt lat="42.9122300" lon="-8.4141480">
        <ele>367.6</ele>
        <time>2021-03-03T11:25:51Z</time>
      </trkpt>
      <trkpt lat="42.9122090" lon="-8.4141510">
        <ele>367.6</ele>
        <time>2021-03-03T11:25:52Z</time>
      </trkpt>
      <trkpt lat="42.9121830" lon="-8.4141490">
        <ele>367.6</ele>
        <time>2021-03-03T11:25:53Z</time>
      </trkpt>
      <trkpt lat="42.9121580" lon="-8.4141450">
        <ele>367.6</ele>
        <time>2021-03-03T11:25:54Z</time>
      </trkpt>
      <trkpt lat="42.9121310" lon="-8.4141480">
        <ele>367.8</ele>
        <time>2021-03-03T11:25:55Z</time>
      </trkpt>
      <trkpt lat="42.9121000" lon="-8.4141470">
        <ele>367.8</ele>
        <time>2021-03-03T11:25:56Z</time>
      </trkpt>
      <trkpt lat="42.9120680" lon="-8.4141470">
        <ele>367.8</ele>
        <time>2021-03-03T11:25:57Z</time>
      </trkpt>
      <trkpt lat="42.9120350" lon="-8.4141480">
        <ele>367.8</ele>
        <time>2021-03-03T11:25:58Z</time>
      </trkpt>
      <trkpt lat="42.9120040" lon="-8.4141460">
        <ele>367.8</ele>
        <time>2021-03-03T11:25:59Z</time>
      </trkpt>
      <trkpt lat="42.9119750" lon="-8.4141450">
        <ele>367.8</ele>
        <time>2021-03-03T11:26:00Z</time>
      </trkpt>
      <trkpt lat="42.9119450" lon="-8.4141480">
        <ele>367.8</ele>
        <time>2021-03-03T11:26:01Z</time>
      </trkpt>
      <trkpt lat="42.9119170" lon="-8.4141500">
        <ele>367.8</ele>
        <time>2021-03-03T11:26:02Z</time>
      </trkpt>
      <trkpt lat="42.9118820" lon="-8.4141490">
        <ele>368.0</ele>
        <time>2021-03-03T11:26:03Z</time>
      </trkpt>
      <trkpt lat="42.9118520" lon="-8.4141500">
        <ele>368.0</ele>
        <time>2021-03-03T11:26:04Z</time>
      </trkpt>
      <trkpt lat="42.9118210" lon="-8.4141570">
        <ele>368.0</ele>
        <time>2021-03-03T11:26:05Z</time>
      </trkpt>
      <trkpt lat="42.9117880" lon="-8.4141570">
        <ele>368.0</ele>
        <time>2021-03-03T11:26:06Z</time>
      </trkpt>
      <trkpt lat="42.9117530" lon="-8.4141570">
        <ele>368.0</ele>
        <time>2021-03-03T11:26:07Z</time>
      </trkpt>
      <trkpt lat="42.9117210" lon="-8.4141630">
        <ele>368.0</ele>
        <time>2021-03-03T11:26:08Z</time>
      </trkpt>
      <trkpt lat="42.9116920" lon="-8.4141690">
        <ele>368.0</ele>
        <time>2021-03-03T11:26:09Z</time>
      </trkpt>
      <trkpt lat="42.9116650" lon="-8.4141770">
        <ele>368.0</ele>
        <time>2021-03-03T11:26:10Z</time>
      </trkpt>
      <trkpt lat="42.9116400" lon="-8.4141840">
        <ele>368.0</ele>
        <time>2021-03-03T11:26:11Z</time>
      </trkpt>
      <trkpt lat="42.9116130" lon="-8.4141870">
        <ele>367.8</ele>
        <time>2021-03-03T11:26:12Z</time>
      </trkpt>
      <trkpt lat="42.9115850" lon="-8.4141870">
        <ele>367.8</ele>
        <time>2021-03-03T11:26:13Z</time>
      </trkpt>
      <trkpt lat="42.9115580" lon="-8.4141930">
        <ele>367.8</ele>
        <time>2021-03-03T11:26:14Z</time>
      </trkpt>
      <trkpt lat="42.9115290" lon="-8.4142060">
        <ele>367.8</ele>
        <time>2021-03-03T11:26:15Z</time>
      </trkpt>
      <trkpt lat="42.9115050" lon="-8.4142200">
        <ele>367.8</ele>
        <time>2021-03-03T11:26:16Z</time>
      </trkpt>
      <trkpt lat="42.9114770" lon="-8.4142310">
        <ele>367.8</ele>
        <time>2021-03-03T11:26:17Z</time>
      </trkpt>
      <trkpt lat="42.9114470" lon="-8.4142380">
        <ele>367.8</ele>
        <time>2021-03-03T11:26:18Z</time>
      </trkpt>
      <trkpt lat="42.9114200" lon="-8.4142460">
        <ele>367.8</ele>
        <time>2021-03-03T11:26:19Z</time>
      </trkpt>
      <trkpt lat="42.9113930" lon="-8.4142500">
        <ele>367.6</ele>
        <time>2021-03-03T11:26:20Z</time>
      </trkpt>
      <trkpt lat="42.9113650" lon="-8.4142550">
        <ele>367.8</ele>
        <time>2021-03-03T11:26:21Z</time>
      </trkpt>
      <trkpt lat="42.9113400" lon="-8.4142640">
        <ele>367.8</ele>
        <time>2021-03-03T11:26:22Z</time>
      </trkpt>
      <trkpt lat="42.9113090" lon="-8.4142710">
        <ele>367.8</ele>
        <time>2021-03-03T11:26:23Z</time>
      </trkpt>
      <trkpt lat="42.9112780" lon="-8.4142800">
        <ele>367.6</ele>
        <time>2021-03-03T11:26:24Z</time>
      </trkpt>
      <trkpt lat="42.9112520" lon="-8.4142910">
        <ele>367.8</ele>
        <time>2021-03-03T11:26:25Z</time>
      </trkpt>
      <trkpt lat="42.9112280" lon="-8.4142980">
        <ele>367.8</ele>
        <time>2021-03-03T11:26:26Z</time>
      </trkpt>
      <trkpt lat="42.9112090" lon="-8.4143030">
        <ele>367.8</ele>
        <time>2021-03-03T11:26:27Z</time>
      </trkpt>
      <trkpt lat="42.9111870" lon="-8.4143090">
        <ele>367.8</ele>
        <time>2021-03-03T11:26:28Z</time>
      </trkpt>
      <trkpt lat="42.9111680" lon="-8.4143160">
        <ele>367.8</ele>
        <time>2021-03-03T11:26:29Z</time>
      </trkpt>
      <trkpt lat="42.9111460" lon="-8.4143190">
        <ele>367.8</ele>
        <time>2021-03-03T11:26:30Z</time>
      </trkpt>
      <trkpt lat="42.9111250" lon="-8.4143220">
        <ele>367.8</ele>
        <time>2021-03-03T11:26:31Z</time>
      </trkpt>
      <trkpt lat="42.9111000" lon="-8.4143280">
        <ele>368.0</ele>
        <time>2021-03-03T11:26:32Z</time>
      </trkpt>
      <trkpt lat="42.9110770" lon="-8.4143380">
        <ele>368.0</ele>
        <time>2021-03-03T11:26:33Z</time>
      </trkpt>
      <trkpt lat="42.9110540" lon="-8.4143480">
        <ele>367.8</ele>
        <time>2021-03-03T11:26:34Z</time>
      </trkpt>
      <trkpt lat="42.9110290" lon="-8.4143550">
        <ele>368.0</ele>
        <time>2021-03-03T11:26:35Z</time>
      </trkpt>
      <trkpt lat="42.9110060" lon="-8.4143600">
        <ele>368.0</ele>
        <time>2021-03-03T11:26:36Z</time>
      </trkpt>
      <trkpt lat="42.9109820" lon="-8.4143660">
        <ele>368.0</ele>
        <time>2021-03-03T11:26:37Z</time>
      </trkpt>
      <trkpt lat="42.9109570" lon="-8.4143710">
        <ele>368.2</ele>
        <time>2021-03-03T11:26:38Z</time>
      </trkpt>
      <trkpt lat="42.9109320" lon="-8.4143740">
        <ele>368.2</ele>
        <time>2021-03-03T11:26:39Z</time>
      </trkpt>
      <trkpt lat="42.9109050" lon="-8.4143780">
        <ele>368.2</ele>
        <time>2021-03-03T11:26:40Z</time>
      </trkpt>
      <trkpt lat="42.9108760" lon="-8.4143780">
        <ele>368.2</ele>
        <time>2021-03-03T11:26:41Z</time>
      </trkpt>
      <trkpt lat="42.9108480" lon="-8.4143750">
        <ele>368.2</ele>
        <time>2021-03-03T11:26:42Z</time>
      </trkpt>
      <trkpt lat="42.9108190" lon="-8.4143710">
        <ele>368.2</ele>
        <time>2021-03-03T11:26:43Z</time>
      </trkpt>
      <trkpt lat="42.9107850" lon="-8.4143690">
        <ele>368.2</ele>
        <time>2021-03-03T11:26:44Z</time>
      </trkpt>
      <trkpt lat="42.9107550" lon="-8.4143680">
        <ele>368.2</ele>
        <time>2021-03-03T11:26:45Z</time>
      </trkpt>
      <trkpt lat="42.9107280" lon="-8.4143680">
        <ele>368.2</ele>
        <time>2021-03-03T11:26:46Z</time>
      </trkpt>
      <trkpt lat="42.9106950" lon="-8.4143670">
        <ele>368.4</ele>
        <time>2021-03-03T11:26:47Z</time>
      </trkpt>
      <trkpt lat="42.9106630" lon="-8.4143690">
        <ele>368.4</ele>
        <time>2021-03-03T11:26:48Z</time>
      </trkpt>
      <trkpt lat="42.9106360" lon="-8.4143720">
        <ele>368.6</ele>
        <time>2021-03-03T11:26:49Z</time>
      </trkpt>
      <trkpt lat="42.9106060" lon="-8.4143740">
        <ele>368.6</ele>
        <time>2021-03-03T11:26:50Z</time>
      </trkpt>
      <trkpt lat="42.9105820" lon="-8.4143810">
        <ele>368.6</ele>
        <time>2021-03-03T11:26:51Z</time>
      </trkpt>
      <trkpt lat="42.9105570" lon="-8.4143850">
        <ele>368.8</ele>
        <time>2021-03-03T11:26:52Z</time>
      </trkpt>
      <trkpt lat="42.9105310" lon="-8.4143910">
        <ele>369.0</ele>
        <time>2021-03-03T11:26:53Z</time>
      </trkpt>
      <trkpt lat="42.9105000" lon="-8.4143920">
        <ele>369.0</ele>
        <time>2021-03-03T11:26:54Z</time>
      </trkpt>
      <trkpt lat="42.9104680" lon="-8.4143900">
        <ele>369.2</ele>
        <time>2021-03-03T11:26:55Z</time>
      </trkpt>
      <trkpt lat="42.9104340" lon="-8.4143870">
        <ele>369.2</ele>
        <time>2021-03-03T11:26:56Z</time>
      </trkpt>
      <trkpt lat="42.9104060" lon="-8.4143870">
        <ele>369.2</ele>
        <time>2021-03-03T11:26:57Z</time>
      </trkpt>
      <trkpt lat="42.9103730" lon="-8.4143890">
        <ele>369.4</ele>
        <time>2021-03-03T11:26:58Z</time>
      </trkpt>
      <trkpt lat="42.9103480" lon="-8.4143910">
        <ele>369.4</ele>
        <time>2021-03-03T11:26:59Z</time>
      </trkpt>
      <trkpt lat="42.9103200" lon="-8.4144000">
        <ele>369.4</ele>
        <time>2021-03-03T11:27:00Z</time>
      </trkpt>
      <trkpt lat="42.9102960" lon="-8.4144080">
        <ele>369.4</ele>
        <time>2021-03-03T11:27:01Z</time>
      </trkpt>
      <trkpt lat="42.9102720" lon="-8.4144150">
        <ele>369.4</ele>
        <time>2021-03-03T11:27:02Z</time>
      </trkpt>
      <trkpt lat="42.9102400" lon="-8.4144170">
        <ele>369.4</ele>
        <time>2021-03-03T11:27:03Z</time>
      </trkpt>
      <trkpt lat="42.9102160" lon="-8.4144210">
        <ele>369.4</ele>
        <time>2021-03-03T11:27:04Z</time>
      </trkpt>
      <trkpt lat="42.9101810" lon="-8.4144260">
        <ele>369.4</ele>
        <time>2021-03-03T11:27:05Z</time>
      </trkpt>
      <trkpt lat="42.9101540" lon="-8.4144270">
        <ele>369.4</ele>
        <time>2021-03-03T11:27:06Z</time>
      </trkpt>
      <trkpt lat="42.9101260" lon="-8.4144300">
        <ele>369.4</ele>
        <time>2021-03-03T11:27:07Z</time>
      </trkpt>
      <trkpt lat="42.9100940" lon="-8.4144310">
        <ele>369.4</ele>
        <time>2021-03-03T11:27:08Z</time>
      </trkpt>
      <trkpt lat="42.9100650" lon="-8.4144320">
        <ele>369.4</ele>
        <time>2021-03-03T11:27:09Z</time>
      </trkpt>
      <trkpt lat="42.9100380" lon="-8.4144360">
        <ele>369.4</ele>
        <time>2021-03-03T11:27:10Z</time>
      </trkpt>
      <trkpt lat="42.9100110" lon="-8.4144410">
        <ele>369.4</ele>
        <time>2021-03-03T11:27:11Z</time>
      </trkpt>
      <trkpt lat="42.9099910" lon="-8.4144520">
        <ele>369.4</ele>
        <time>2021-03-03T11:27:12Z</time>
      </trkpt>
      <trkpt lat="42.9099660" lon="-8.4144610">
        <ele>369.4</ele>
        <time>2021-03-03T11:27:13Z</time>
      </trkpt>
      <trkpt lat="42.9099400" lon="-8.4144660">
        <ele>369.6</ele>
        <time>2021-03-03T11:27:14Z</time>
      </trkpt>
      <trkpt lat="42.9099120" lon="-8.4144680">
        <ele>369.6</ele>
        <time>2021-03-03T11:27:15Z</time>
      </trkpt>
      <trkpt lat="42.9098850" lon="-8.4144730">
        <ele>369.6</ele>
        <time>2021-03-03T11:27:16Z</time>
      </trkpt>
      <trkpt lat="42.9098570" lon="-8.4144790">
        <ele>369.6</ele>
        <time>2021-03-03T11:27:17Z</time>
      </trkpt>
      <trkpt lat="42.9098230" lon="-8.4144840">
        <ele>369.6</ele>
        <time>2021-03-03T11:27:18Z</time>
      </trkpt>
      <trkpt lat="42.9097970" lon="-8.4144890">
        <ele>369.6</ele>
        <time>2021-03-03T11:27:19Z</time>
      </trkpt>
      <trkpt lat="42.9097760" lon="-8.4144910">
        <ele>369.6</ele>
        <time>2021-03-03T11:27:20Z</time>
      </trkpt>
      <trkpt lat="42.9097500" lon="-8.4144910">
        <ele>369.8</ele>
        <time>2021-03-03T11:27:21Z</time>
      </trkpt>
      <trkpt lat="42.9097210" lon="-8.4144950">
        <ele>369.8</ele>
        <time>2021-03-03T11:27:22Z</time>
      </trkpt>
      <trkpt lat="42.9096910" lon="-8.4144990">
        <ele>369.8</ele>
        <time>2021-03-03T11:27:23Z</time>
      </trkpt>
      <trkpt lat="42.9096630" lon="-8.4145030">
        <ele>369.8</ele>
        <time>2021-03-03T11:27:24Z</time>
      </trkpt>
      <trkpt lat="42.9096390" lon="-8.4145100">
        <ele>369.8</ele>
        <time>2021-03-03T11:27:25Z</time>
      </trkpt>
      <trkpt lat="42.9096040" lon="-8.4145170">
        <ele>369.8</ele>
        <time>2021-03-03T11:27:26Z</time>
      </trkpt>
      <trkpt lat="42.9095800" lon="-8.4145210">
        <ele>369.8</ele>
        <time>2021-03-03T11:27:27Z</time>
      </trkpt>
      <trkpt lat="42.9095440" lon="-8.4145280">
        <ele>369.8</ele>
        <time>2021-03-03T11:27:28Z</time>
      </trkpt>
      <trkpt lat="42.9095190" lon="-8.4145380">
        <ele>369.6</ele>
        <time>2021-03-03T11:27:29Z</time>
      </trkpt>
      <trkpt lat="42.9094830" lon="-8.4145450">
        <ele>369.6</ele>
        <time>2021-03-03T11:27:30Z</time>
      </trkpt>
      <trkpt lat="42.9094430" lon="-8.4145530">
        <ele>369.4</ele>
        <time>2021-03-03T11:27:31Z</time>
      </trkpt>
      <trkpt lat="42.9094080" lon="-8.4145610">
        <ele>369.4</ele>
        <time>2021-03-03T11:27:32Z</time>
      </trkpt>
      <trkpt lat="42.9093740" lon="-8.4145710">
        <ele>369.4</ele>
        <time>2021-03-03T11:27:33Z</time>
      </trkpt>
      <trkpt lat="42.9093480" lon="-8.4145790">
        <ele>369.2</ele>
        <time>2021-03-03T11:27:34Z</time>
      </trkpt>
      <trkpt lat="42.9093150" lon="-8.4145870">
        <ele>369.0</ele>
        <time>2021-03-03T11:27:35Z</time>
      </trkpt>
      <trkpt lat="42.9092790" lon="-8.4145940">
        <ele>368.8</ele>
        <time>2021-03-03T11:27:36Z</time>
      </trkpt>
      <trkpt lat="42.9092500" lon="-8.4146040">
        <ele>368.8</ele>
        <time>2021-03-03T11:27:37Z</time>
      </trkpt>
      <trkpt lat="42.9092180" lon="-8.4146080">
        <ele>368.8</ele>
        <time>2021-03-03T11:27:38Z</time>
      </trkpt>
      <trkpt lat="42.9091900" lon="-8.4146130">
        <ele>368.6</ele>
        <time>2021-03-03T11:27:39Z</time>
      </trkpt>
      <trkpt lat="42.9091560" lon="-8.4146200">
        <ele>368.6</ele>
        <time>2021-03-03T11:27:40Z</time>
      </trkpt>
      <trkpt lat="42.9091310" lon="-8.4146240">
        <ele>368.4</ele>
        <time>2021-03-03T11:27:41Z</time>
      </trkpt>
      <trkpt lat="42.9091030" lon="-8.4146350">
        <ele>368.4</ele>
        <time>2021-03-03T11:27:42Z</time>
      </trkpt>
      <trkpt lat="42.9090710" lon="-8.4146490">
        <ele>368.4</ele>
        <time>2021-03-03T11:27:43Z</time>
      </trkpt>
      <trkpt lat="42.9090480" lon="-8.4146520">
        <ele>368.6</ele>
        <time>2021-03-03T11:27:44Z</time>
      </trkpt>
      <trkpt lat="42.9090150" lon="-8.4146590">
        <ele>368.6</ele>
        <time>2021-03-03T11:27:45Z</time>
      </trkpt>
      <trkpt lat="42.9089870" lon="-8.4146710">
        <ele>368.6</ele>
        <time>2021-03-03T11:27:46Z</time>
      </trkpt>
      <trkpt lat="42.9089610" lon="-8.4146810">
        <ele>368.8</ele>
        <time>2021-03-03T11:27:47Z</time>
      </trkpt>
      <trkpt lat="42.9089400" lon="-8.4146910">
        <ele>368.8</ele>
        <time>2021-03-03T11:27:48Z</time>
      </trkpt>
      <trkpt lat="42.9089130" lon="-8.4147030">
        <ele>368.8</ele>
        <time>2021-03-03T11:27:49Z</time>
      </trkpt>
      <trkpt lat="42.9088890" lon="-8.4147060">
        <ele>368.8</ele>
        <time>2021-03-03T11:27:50Z</time>
      </trkpt>
      <trkpt lat="42.9088680" lon="-8.4147080">
        <ele>368.8</ele>
        <time>2021-03-03T11:27:51Z</time>
      </trkpt>
      <trkpt lat="42.9088460" lon="-8.4147080">
        <ele>368.8</ele>
        <time>2021-03-03T11:27:52Z</time>
      </trkpt>
      <trkpt lat="42.9088220" lon="-8.4147120">
        <ele>368.8</ele>
        <time>2021-03-03T11:27:53Z</time>
      </trkpt>
      <trkpt lat="42.9087960" lon="-8.4147200">
        <ele>368.8</ele>
        <time>2021-03-03T11:27:54Z</time>
      </trkpt>
      <trkpt lat="42.9087770" lon="-8.4147300">
        <ele>368.8</ele>
        <time>2021-03-03T11:27:55Z</time>
      </trkpt>
      <trkpt lat="42.9087400" lon="-8.4147340">
        <ele>368.8</ele>
        <time>2021-03-03T11:27:56Z</time>
      </trkpt>
      <trkpt lat="42.9087180" lon="-8.4147390">
        <ele>368.8</ele>
        <time>2021-03-03T11:27:57Z</time>
      </trkpt>
      <trkpt lat="42.9086870" lon="-8.4147430">
        <ele>368.8</ele>
        <time>2021-03-03T11:27:58Z</time>
      </trkpt>
      <trkpt lat="42.9086550" lon="-8.4147450">
        <ele>368.8</ele>
        <time>2021-03-03T11:27:59Z</time>
      </trkpt>
      <trkpt lat="42.9086260" lon="-8.4147490">
        <ele>369.0</ele>
        <time>2021-03-03T11:28:00Z</time>
      </trkpt>
      <trkpt lat="42.9086050" lon="-8.4147480">
        <ele>369.0</ele>
        <time>2021-03-03T11:28:01Z</time>
      </trkpt>
      <trkpt lat="42.9085770" lon="-8.4147500">
        <ele>369.2</ele>
        <time>2021-03-03T11:28:02Z</time>
      </trkpt>
      <trkpt lat="42.9085370" lon="-8.4147550">
        <ele>369.2</ele>
        <time>2021-03-03T11:28:03Z</time>
      </trkpt>
      <trkpt lat="42.9085010" lon="-8.4147580">
        <ele>369.2</ele>
        <time>2021-03-03T11:28:04Z</time>
      </trkpt>
      <trkpt lat="42.9084820" lon="-8.4147590">
        <ele>369.2</ele>
        <time>2021-03-03T11:28:05Z</time>
      </trkpt>
      <trkpt lat="42.9084580" lon="-8.4147640">
        <ele>369.2</ele>
        <time>2021-03-03T11:28:06Z</time>
      </trkpt>
      <trkpt lat="42.9084340" lon="-8.4147670">
        <ele>369.2</ele>
        <time>2021-03-03T11:28:07Z</time>
      </trkpt>
      <trkpt lat="42.9084020" lon="-8.4147720">
        <ele>369.2</ele>
        <time>2021-03-03T11:28:08Z</time>
      </trkpt>
      <trkpt lat="42.9083720" lon="-8.4147780">
        <ele>369.4</ele>
        <time>2021-03-03T11:28:09Z</time>
      </trkpt>
      <trkpt lat="42.9083500" lon="-8.4147840">
        <ele>369.2</ele>
        <time>2021-03-03T11:28:10Z</time>
      </trkpt>
      <trkpt lat="42.9083230" lon="-8.4147900">
        <ele>369.2</ele>
        <time>2021-03-03T11:28:11Z</time>
      </trkpt>
      <trkpt lat="42.9082910" lon="-8.4147960">
        <ele>369.2</ele>
        <time>2021-03-03T11:28:12Z</time>
      </trkpt>
      <trkpt lat="42.9082600" lon="-8.4148020">
        <ele>369.2</ele>
        <time>2021-03-03T11:28:13Z</time>
      </trkpt>
      <trkpt lat="42.9082350" lon="-8.4148110">
        <ele>369.2</ele>
        <time>2021-03-03T11:28:14Z</time>
      </trkpt>
      <trkpt lat="42.9082120" lon="-8.4148210">
        <ele>369.4</ele>
        <time>2021-03-03T11:28:15Z</time>
      </trkpt>
      <trkpt lat="42.9081910" lon="-8.4148260">
        <ele>369.4</ele>
        <time>2021-03-03T11:28:16Z</time>
      </trkpt>
      <trkpt lat="42.9081590" lon="-8.4148300">
        <ele>369.4</ele>
        <time>2021-03-03T11:28:17Z</time>
      </trkpt>
      <trkpt lat="42.9081310" lon="-8.4148340">
        <ele>369.6</ele>
        <time>2021-03-03T11:28:18Z</time>
      </trkpt>
      <trkpt lat="42.9080970" lon="-8.4148500">
        <ele>369.6</ele>
        <time>2021-03-03T11:28:19Z</time>
      </trkpt>
      <trkpt lat="42.9080770" lon="-8.4148520">
        <ele>369.6</ele>
        <time>2021-03-03T11:28:20Z</time>
      </trkpt>
      <trkpt lat="42.9080480" lon="-8.4148590">
        <ele>369.6</ele>
        <time>2021-03-03T11:28:21Z</time>
      </trkpt>
      <trkpt lat="42.9080220" lon="-8.4148710">
        <ele>369.6</ele>
        <time>2021-03-03T11:28:22Z</time>
      </trkpt>
      <trkpt lat="42.9079950" lon="-8.4148790">
        <ele>369.6</ele>
        <time>2021-03-03T11:28:23Z</time>
      </trkpt>
      <trkpt lat="42.9079690" lon="-8.4148870">
        <ele>369.8</ele>
        <time>2021-03-03T11:28:24Z</time>
      </trkpt>
      <trkpt lat="42.9079410" lon="-8.4148940">
        <ele>369.8</ele>
        <time>2021-03-03T11:28:25Z</time>
      </trkpt>
      <trkpt lat="42.9079120" lon="-8.4149020">
        <ele>369.8</ele>
        <time>2021-03-03T11:28:26Z</time>
      </trkpt>
      <trkpt lat="42.9078840" lon="-8.4149090">
        <ele>370.0</ele>
        <time>2021-03-03T11:28:27Z</time>
      </trkpt>
      <trkpt lat="42.9078580" lon="-8.4149140">
        <ele>370.0</ele>
        <time>2021-03-03T11:28:28Z</time>
      </trkpt>
      <trkpt lat="42.9078370" lon="-8.4149200">
        <ele>370.0</ele>
        <time>2021-03-03T11:28:29Z</time>
      </trkpt>
      <trkpt lat="42.9078050" lon="-8.4149280">
        <ele>370.0</ele>
        <time>2021-03-03T11:28:30Z</time>
      </trkpt>
      <trkpt lat="42.9077760" lon="-8.4149370">
        <ele>370.2</ele>
        <time>2021-03-03T11:28:31Z</time>
      </trkpt>
      <trkpt lat="42.9077500" lon="-8.4149440">
        <ele>370.2</ele>
        <time>2021-03-03T11:28:32Z</time>
      </trkpt>
      <trkpt lat="42.9077280" lon="-8.4149480">
        <ele>370.2</ele>
        <time>2021-03-03T11:28:33Z</time>
      </trkpt>
      <trkpt lat="42.9076930" lon="-8.4149440">
        <ele>370.2</ele>
        <time>2021-03-03T11:28:34Z</time>
      </trkpt>
      <trkpt lat="42.9076630" lon="-8.4149430">
        <ele>370.4</ele>
        <time>2021-03-03T11:28:35Z</time>
      </trkpt>
      <trkpt lat="42.9076350" lon="-8.4149460">
        <ele>370.4</ele>
        <time>2021-03-03T11:28:36Z</time>
      </trkpt>
      <trkpt lat="42.9076060" lon="-8.4149550">
        <ele>370.4</ele>
        <time>2021-03-03T11:28:37Z</time>
      </trkpt>
      <trkpt lat="42.9075780" lon="-8.4149690">
        <ele>370.6</ele>
        <time>2021-03-03T11:28:38Z</time>
      </trkpt>
      <trkpt lat="42.9075540" lon="-8.4149850">
        <ele>370.6</ele>
        <time>2021-03-03T11:28:39Z</time>
      </trkpt>
      <trkpt lat="42.9075330" lon="-8.4149950">
        <ele>370.6</ele>
        <time>2021-03-03T11:28:40Z</time>
      </trkpt>
      <trkpt lat="42.9075060" lon="-8.4150060">
        <ele>370.6</ele>
        <time>2021-03-03T11:28:41Z</time>
      </trkpt>
      <trkpt lat="42.9074780" lon="-8.4150210">
        <ele>370.8</ele>
        <time>2021-03-03T11:28:42Z</time>
      </trkpt>
      <trkpt lat="42.9074540" lon="-8.4150370">
        <ele>370.8</ele>
        <time>2021-03-03T11:28:43Z</time>
      </trkpt>
      <trkpt lat="42.9074290" lon="-8.4150520">
        <ele>371.0</ele>
        <time>2021-03-03T11:28:44Z</time>
      </trkpt>
      <trkpt lat="42.9074040" lon="-8.4150630">
        <ele>371.2</ele>
        <time>2021-03-03T11:28:45Z</time>
      </trkpt>
      <trkpt lat="42.9073820" lon="-8.4150740">
        <ele>371.2</ele>
        <time>2021-03-03T11:28:46Z</time>
      </trkpt>
      <trkpt lat="42.9073590" lon="-8.4150860">
        <ele>371.4</ele>
        <time>2021-03-03T11:28:47Z</time>
      </trkpt>
      <trkpt lat="42.9073360" lon="-8.4150950">
        <ele>371.4</ele>
        <time>2021-03-03T11:28:48Z</time>
      </trkpt>
      <trkpt lat="42.9073130" lon="-8.4151020">
        <ele>371.4</ele>
        <time>2021-03-03T11:28:49Z</time>
      </trkpt>
      <trkpt lat="42.9072830" lon="-8.4151070">
        <ele>371.4</ele>
        <time>2021-03-03T11:28:50Z</time>
      </trkpt>
      <trkpt lat="42.9072550" lon="-8.4151130">
        <ele>371.6</ele>
        <time>2021-03-03T11:28:51Z</time>
      </trkpt>
      <trkpt lat="42.9072300" lon="-8.4151200">
        <ele>371.8</ele>
        <time>2021-03-03T11:28:52Z</time>
      </trkpt>
      <trkpt lat="42.9072000" lon="-8.4151330">
        <ele>372.0</ele>
        <time>2021-03-03T11:28:53Z</time>
      </trkpt>
      <trkpt lat="42.9071760" lon="-8.4151440">
        <ele>372.0</ele>
        <time>2021-03-03T11:28:54Z</time>
      </trkpt>
      <trkpt lat="42.9071520" lon="-8.4151540">
        <ele>372.2</ele>
        <time>2021-03-03T11:28:55Z</time>
      </trkpt>
      <trkpt lat="42.9071310" lon="-8.4151590">
        <ele>372.4</ele>
        <time>2021-03-03T11:28:56Z</time>
      </trkpt>
      <trkpt lat="42.9071030" lon="-8.4151620">
        <ele>372.4</ele>
        <time>2021-03-03T11:28:57Z</time>
      </trkpt>
      <trkpt lat="42.9070700" lon="-8.4151720">
        <ele>372.6</ele>
        <time>2021-03-03T11:28:58Z</time>
      </trkpt>
      <trkpt lat="42.9070430" lon="-8.4151790">
        <ele>372.6</ele>
        <time>2021-03-03T11:28:59Z</time>
      </trkpt>
      <trkpt lat="42.9070150" lon="-8.4151870">
        <ele>372.8</ele>
        <time>2021-03-03T11:29:00Z</time>
      </trkpt>
      <trkpt lat="42.9069940" lon="-8.4151900">
        <ele>373.0</ele>
        <time>2021-03-03T11:29:01Z</time>
      </trkpt>
      <trkpt lat="42.9069680" lon="-8.4151940">
        <ele>373.2</ele>
        <time>2021-03-03T11:29:02Z</time>
      </trkpt>
      <trkpt lat="42.9069370" lon="-8.4152020">
        <ele>373.4</ele>
        <time>2021-03-03T11:29:03Z</time>
      </trkpt>
      <trkpt lat="42.9069080" lon="-8.4152050">
        <ele>373.6</ele>
        <time>2021-03-03T11:29:04Z</time>
      </trkpt>
      <trkpt lat="42.9068860" lon="-8.4152120">
        <ele>373.6</ele>
        <time>2021-03-03T11:29:05Z</time>
      </trkpt>
      <trkpt lat="42.9068570" lon="-8.4152140">
        <ele>373.8</ele>
        <time>2021-03-03T11:29:06Z</time>
      </trkpt>
      <trkpt lat="42.9068290" lon="-8.4152220">
        <ele>373.8</ele>
        <time>2021-03-03T11:29:07Z</time>
      </trkpt>
      <trkpt lat="42.9068000" lon="-8.4152320">
        <ele>374.0</ele>
        <time>2021-03-03T11:29:08Z</time>
      </trkpt>
      <trkpt lat="42.9067720" lon="-8.4152430">
        <ele>374.0</ele>
        <time>2021-03-03T11:29:09Z</time>
      </trkpt>
      <trkpt lat="42.9067420" lon="-8.4152560">
        <ele>374.0</ele>
        <time>2021-03-03T11:29:10Z</time>
      </trkpt>
      <trkpt lat="42.9067140" lon="-8.4152720">
        <ele>374.0</ele>
        <time>2021-03-03T11:29:11Z</time>
      </trkpt>
      <trkpt lat="42.9066870" lon="-8.4152870">
        <ele>374.0</ele>
        <time>2021-03-03T11:29:12Z</time>
      </trkpt>
      <trkpt lat="42.9066620" lon="-8.4153030">
        <ele>374.0</ele>
        <time>2021-03-03T11:29:13Z</time>
      </trkpt>
      <trkpt lat="42.9066350" lon="-8.4153160">
        <ele>374.0</ele>
        <time>2021-03-03T11:29:14Z</time>
      </trkpt>
      <trkpt lat="42.9066080" lon="-8.4153290">
        <ele>373.8</ele>
        <time>2021-03-03T11:29:15Z</time>
      </trkpt>
      <trkpt lat="42.9065820" lon="-8.4153500">
        <ele>373.8</ele>
        <time>2021-03-03T11:29:16Z</time>
      </trkpt>
      <trkpt lat="42.9065540" lon="-8.4153680">
        <ele>373.8</ele>
        <time>2021-03-03T11:29:17Z</time>
      </trkpt>
      <trkpt lat="42.9065230" lon="-8.4153820">
        <ele>373.6</ele>
        <time>2021-03-03T11:29:18Z</time>
      </trkpt>
      <trkpt lat="42.9064920" lon="-8.4153980">
        <ele>373.6</ele>
        <time>2021-03-03T11:29:19Z</time>
      </trkpt>
      <trkpt lat="42.9064620" lon="-8.4154070">
        <ele>373.4</ele>
        <time>2021-03-03T11:29:20Z</time>
      </trkpt>
      <trkpt lat="42.9064310" lon="-8.4154190">
        <ele>373.4</ele>
        <time>2021-03-03T11:29:21Z</time>
      </trkpt>
      <trkpt lat="42.9064020" lon="-8.4154340">
        <ele>373.2</ele>
        <time>2021-03-03T11:29:22Z</time>
      </trkpt>
      <trkpt lat="42.9063740" lon="-8.4154510">
        <ele>373.2</ele>
        <time>2021-03-03T11:29:23Z</time>
      </trkpt>
      <trkpt lat="42.9063470" lon="-8.4154690">
        <ele>373.2</ele>
        <time>2021-03-03T11:29:24Z</time>
      </trkpt>
      <trkpt lat="42.9063190" lon="-8.4154870">
        <ele>372.8</ele>
        <time>2021-03-03T11:29:25Z</time>
      </trkpt>
      <trkpt lat="42.9062910" lon="-8.4155020">
        <ele>372.6</ele>
        <time>2021-03-03T11:29:26Z</time>
      </trkpt>
      <trkpt lat="42.9062660" lon="-8.4155170">
        <ele>372.4</ele>
        <time>2021-03-03T11:29:27Z</time>
      </trkpt>
      <trkpt lat="42.9062370" lon="-8.4155280">
        <ele>372.2</ele>
        <time>2021-03-03T11:29:28Z</time>
      </trkpt>
      <trkpt lat="42.9062080" lon="-8.4155350">
        <ele>372.0</ele>
        <time>2021-03-03T11:29:29Z</time>
      </trkpt>
      <trkpt lat="42.9061790" lon="-8.4155400">
        <ele>371.6</ele>
        <time>2021-03-03T11:29:30Z</time>
      </trkpt>
      <trkpt lat="42.9061510" lon="-8.4155480">
        <ele>371.4</ele>
        <time>2021-03-03T11:29:31Z</time>
      </trkpt>
      <trkpt lat="42.9061230" lon="-8.4155580">
        <ele>371.2</ele>
        <time>2021-03-03T11:29:32Z</time>
      </trkpt>
      <trkpt lat="42.9060910" lon="-8.4155730">
        <ele>371.2</ele>
        <time>2021-03-03T11:29:33Z</time>
      </trkpt>
      <trkpt lat="42.9060610" lon="-8.4155860">
        <ele>370.8</ele>
        <time>2021-03-03T11:29:34Z</time>
      </trkpt>
      <trkpt lat="42.9060330" lon="-8.4155940">
        <ele>370.6</ele>
        <time>2021-03-03T11:29:35Z</time>
      </trkpt>
      <trkpt lat="42.9060040" lon="-8.4156030">
        <ele>370.4</ele>
        <time>2021-03-03T11:29:36Z</time>
      </trkpt>
      <trkpt lat="42.9059770" lon="-8.4156200">
        <ele>370.2</ele>
        <time>2021-03-03T11:29:37Z</time>
      </trkpt>
      <trkpt lat="42.9059490" lon="-8.4156400">
        <ele>369.8</ele>
        <time>2021-03-03T11:29:38Z</time>
      </trkpt>
      <trkpt lat="42.9059210" lon="-8.4156590">
        <ele>369.4</ele>
        <time>2021-03-03T11:29:39Z</time>
      </trkpt>
      <trkpt lat="42.9058940" lon="-8.4156760">
        <ele>369.2</ele>
        <time>2021-03-03T11:29:40Z</time>
      </trkpt>
      <trkpt lat="42.9058650" lon="-8.4156900">
        <ele>369.0</ele>
        <time>2021-03-03T11:29:41Z</time>
      </trkpt>
      <trkpt lat="42.9058360" lon="-8.4157030">
        <ele>368.6</ele>
        <time>2021-03-03T11:29:42Z</time>
      </trkpt>
      <trkpt lat="42.9058090" lon="-8.4157130">
        <ele>368.4</ele>
        <time>2021-03-03T11:29:43Z</time>
      </trkpt>
      <trkpt lat="42.9057790" lon="-8.4157210">
        <ele>368.2</ele>
        <time>2021-03-03T11:29:44Z</time>
      </trkpt>
      <trkpt lat="42.9057500" lon="-8.4157300">
        <ele>367.8</ele>
        <time>2021-03-03T11:29:45Z</time>
      </trkpt>
      <trkpt lat="42.9057200" lon="-8.4157320">
        <ele>367.8</ele>
        <time>2021-03-03T11:29:46Z</time>
      </trkpt>
      <trkpt lat="42.9056920" lon="-8.4157330">
        <ele>367.6</ele>
        <time>2021-03-03T11:29:47Z</time>
      </trkpt>
      <trkpt lat="42.9056640" lon="-8.4157350">
        <ele>367.4</ele>
        <time>2021-03-03T11:29:48Z</time>
      </trkpt>
      <trkpt lat="42.9056350" lon="-8.4157350">
        <ele>367.4</ele>
        <time>2021-03-03T11:29:49Z</time>
      </trkpt>
      <trkpt lat="42.9055980" lon="-8.4157330">
        <ele>367.4</ele>
        <time>2021-03-03T11:29:50Z</time>
      </trkpt>
      <trkpt lat="42.9055760" lon="-8.4157310">
        <ele>367.2</ele>
        <time>2021-03-03T11:29:51Z</time>
      </trkpt>
      <trkpt lat="42.9055490" lon="-8.4157310">
        <ele>367.2</ele>
        <time>2021-03-03T11:29:52Z</time>
      </trkpt>
      <trkpt lat="42.9055190" lon="-8.4157300">
        <ele>367.2</ele>
        <time>2021-03-03T11:29:53Z</time>
      </trkpt>
      <trkpt lat="42.9054860" lon="-8.4157240">
        <ele>367.0</ele>
        <time>2021-03-03T11:29:54Z</time>
      </trkpt>
      <trkpt lat="42.9054480" lon="-8.4157170">
        <ele>367.0</ele>
        <time>2021-03-03T11:29:55Z</time>
      </trkpt>
      <trkpt lat="42.9054220" lon="-8.4157090">
        <ele>366.8</ele>
        <time>2021-03-03T11:29:56Z</time>
      </trkpt>
      <trkpt lat="42.9053930" lon="-8.4157070">
        <ele>366.6</ele>
        <time>2021-03-03T11:29:57Z</time>
      </trkpt>
      <trkpt lat="42.9053660" lon="-8.4157060">
        <ele>366.6</ele>
        <time>2021-03-03T11:29:58Z</time>
      </trkpt>
      <trkpt lat="42.9053380" lon="-8.4157020">
        <ele>366.4</ele>
        <time>2021-03-03T11:29:59Z</time>
      </trkpt>
      <trkpt lat="42.9053090" lon="-8.4156990">
        <ele>366.4</ele>
        <time>2021-03-03T11:30:00Z</time>
      </trkpt>
      <trkpt lat="42.9052800" lon="-8.4156950">
        <ele>366.2</ele>
        <time>2021-03-03T11:30:01Z</time>
      </trkpt>
      <trkpt lat="42.9052510" lon="-8.4156940">
        <ele>366.2</ele>
        <time>2021-03-03T11:30:02Z</time>
      </trkpt>
      <trkpt lat="42.9052220" lon="-8.4156910">
        <ele>366.2</ele>
        <time>2021-03-03T11:30:03Z</time>
      </trkpt>
      <trkpt lat="42.9051920" lon="-8.4156860">
        <ele>366.2</ele>
        <time>2021-03-03T11:30:04Z</time>
      </trkpt>
      <trkpt lat="42.9051600" lon="-8.4156770">
        <ele>366.0</ele>
        <time>2021-03-03T11:30:05Z</time>
      </trkpt>
      <trkpt lat="42.9051310" lon="-8.4156720">
        <ele>365.8</ele>
        <time>2021-03-03T11:30:06Z</time>
      </trkpt>
      <trkpt lat="42.9051030" lon="-8.4156670">
        <ele>365.6</ele>
        <time>2021-03-03T11:30:07Z</time>
      </trkpt>
      <trkpt lat="42.9050730" lon="-8.4156630">
        <ele>365.4</ele>
        <time>2021-03-03T11:30:08Z</time>
      </trkpt>
      <trkpt lat="42.9050420" lon="-8.4156560">
        <ele>365.4</ele>
        <time>2021-03-03T11:30:09Z</time>
      </trkpt>
      <trkpt lat="42.9050130" lon="-8.4156540">
        <ele>365.2</ele>
        <time>2021-03-03T11:30:10Z</time>
      </trkpt>
      <trkpt lat="42.9049830" lon="-8.4156450">
        <ele>365.0</ele>
        <time>2021-03-03T11:30:11Z</time>
      </trkpt>
      <trkpt lat="42.9049550" lon="-8.4156390">
        <ele>364.8</ele>
        <time>2021-03-03T11:30:12Z</time>
      </trkpt>
      <trkpt lat="42.9049260" lon="-8.4156390">
        <ele>364.6</ele>
        <time>2021-03-03T11:30:13Z</time>
      </trkpt>
      <trkpt lat="42.9048970" lon="-8.4156380">
        <ele>364.4</ele>
        <time>2021-03-03T11:30:14Z</time>
      </trkpt>
      <trkpt lat="42.9048690" lon="-8.4156370">
        <ele>364.4</ele>
        <time>2021-03-03T11:30:15Z</time>
      </trkpt>
      <trkpt lat="42.9048390" lon="-8.4156340">
        <ele>364.2</ele>
        <time>2021-03-03T11:30:16Z</time>
      </trkpt>
      <trkpt lat="42.9048080" lon="-8.4156290">
        <ele>364.0</ele>
        <time>2021-03-03T11:30:17Z</time>
      </trkpt>
      <trkpt lat="42.9047810" lon="-8.4156240">
        <ele>364.0</ele>
        <time>2021-03-03T11:30:18Z</time>
      </trkpt>
      <trkpt lat="42.9047530" lon="-8.4156230">
        <ele>364.0</ele>
        <time>2021-03-03T11:30:19Z</time>
      </trkpt>
      <trkpt lat="42.9047240" lon="-8.4156200">
        <ele>363.8</ele>
        <time>2021-03-03T11:30:20Z</time>
      </trkpt>
      <trkpt lat="42.9046970" lon="-8.4156200">
        <ele>363.8</ele>
        <time>2021-03-03T11:30:21Z</time>
      </trkpt>
      <trkpt lat="42.9046700" lon="-8.4156200">
        <ele>363.8</ele>
        <time>2021-03-03T11:30:22Z</time>
      </trkpt>
      <trkpt lat="42.9046390" lon="-8.4156170">
        <ele>363.6</ele>
        <time>2021-03-03T11:30:23Z</time>
      </trkpt>
      <trkpt lat="42.9046100" lon="-8.4156140">
        <ele>363.4</ele>
        <time>2021-03-03T11:30:24Z</time>
      </trkpt>
      <trkpt lat="42.9045810" lon="-8.4156070">
        <ele>363.2</ele>
        <time>2021-03-03T11:30:25Z</time>
      </trkpt>
      <trkpt lat="42.9045500" lon="-8.4156030">
        <ele>363.2</ele>
        <time>2021-03-03T11:30:26Z</time>
      </trkpt>
      <trkpt lat="42.9045180" lon="-8.4155910">
        <ele>363.0</ele>
        <time>2021-03-03T11:30:27Z</time>
      </trkpt>
      <trkpt lat="42.9044880" lon="-8.4155840">
        <ele>363.0</ele>
        <time>2021-03-03T11:30:28Z</time>
      </trkpt>
      <trkpt lat="42.9044580" lon="-8.4155780">
        <ele>363.0</ele>
        <time>2021-03-03T11:30:29Z</time>
      </trkpt>
      <trkpt lat="42.9044270" lon="-8.4155700">
        <ele>362.8</ele>
        <time>2021-03-03T11:30:30Z</time>
      </trkpt>
      <trkpt lat="42.9044000" lon="-8.4155650">
        <ele>362.8</ele>
        <time>2021-03-03T11:30:31Z</time>
      </trkpt>
      <trkpt lat="42.9043690" lon="-8.4155570">
        <ele>363.0</ele>
        <time>2021-03-03T11:30:32Z</time>
      </trkpt>
      <trkpt lat="42.9043400" lon="-8.4155470">
        <ele>363.0</ele>
        <time>2021-03-03T11:30:33Z</time>
      </trkpt>
      <trkpt lat="42.9043100" lon="-8.4155380">
        <ele>363.0</ele>
        <time>2021-03-03T11:30:34Z</time>
      </trkpt>
      <trkpt lat="42.9042810" lon="-8.4155260">
        <ele>363.0</ele>
        <time>2021-03-03T11:30:35Z</time>
      </trkpt>
      <trkpt lat="42.9042540" lon="-8.4155090">
        <ele>363.0</ele>
        <time>2021-03-03T11:30:36Z</time>
      </trkpt>
      <trkpt lat="42.9042270" lon="-8.4154900">
        <ele>363.0</ele>
        <time>2021-03-03T11:30:37Z</time>
      </trkpt>
      <trkpt lat="42.9042010" lon="-8.4154700">
        <ele>363.0</ele>
        <time>2021-03-03T11:30:38Z</time>
      </trkpt>
      <trkpt lat="42.9041740" lon="-8.4154500">
        <ele>363.0</ele>
        <time>2021-03-03T11:30:39Z</time>
      </trkpt>
      <trkpt lat="42.9041500" lon="-8.4154170">
        <ele>362.8</ele>
        <time>2021-03-03T11:30:40Z</time>
      </trkpt>
      <trkpt lat="42.9041220" lon="-8.4153830">
        <ele>362.6</ele>
        <time>2021-03-03T11:30:41Z</time>
      </trkpt>
      <trkpt lat="42.9040950" lon="-8.4153550">
        <ele>362.6</ele>
        <time>2021-03-03T11:30:42Z</time>
      </trkpt>
      <trkpt lat="42.9040690" lon="-8.4153390">
        <ele>362.4</ele>
        <time>2021-03-03T11:30:43Z</time>
      </trkpt>
      <trkpt lat="42.9040440" lon="-8.4153220">
        <ele>362.4</ele>
        <time>2021-03-03T11:30:44Z</time>
      </trkpt>
      <trkpt lat="42.9040180" lon="-8.4153050">
        <ele>362.2</ele>
        <time>2021-03-03T11:30:45Z</time>
      </trkpt>
      <trkpt lat="42.9039910" lon="-8.4152900">
        <ele>362.2</ele>
        <time>2021-03-03T11:30:46Z</time>
      </trkpt>
      <trkpt lat="42.9039670" lon="-8.4152730">
        <ele>362.0</ele>
        <time>2021-03-03T11:30:47Z</time>
      </trkpt>
      <trkpt lat="42.9039450" lon="-8.4152520">
        <ele>362.0</ele>
        <time>2021-03-03T11:30:48Z</time>
      </trkpt>
      <trkpt lat="42.9039190" lon="-8.4152330">
        <ele>361.8</ele>
        <time>2021-03-03T11:30:49Z</time>
      </trkpt>
      <trkpt lat="42.9038930" lon="-8.4152130">
        <ele>361.6</ele>
        <time>2021-03-03T11:30:50Z</time>
      </trkpt>
      <trkpt lat="42.9038690" lon="-8.4151950">
        <ele>361.4</ele>
        <time>2021-03-03T11:30:51Z</time>
      </trkpt>
      <trkpt lat="42.9038440" lon="-8.4151760">
        <ele>361.4</ele>
        <time>2021-03-03T11:30:52Z</time>
      </trkpt>
      <trkpt lat="42.9038190" lon="-8.4151580">
        <ele>361.2</ele>
        <time>2021-03-03T11:30:53Z</time>
      </trkpt>
      <trkpt lat="42.9037950" lon="-8.4151420">
        <ele>361.2</ele>
        <time>2021-03-03T11:30:54Z</time>
      </trkpt>
      <trkpt lat="42.9037690" lon="-8.4151280">
        <ele>361.0</ele>
        <time>2021-03-03T11:30:55Z</time>
      </trkpt>
      <trkpt lat="42.9037440" lon="-8.4151120">
        <ele>361.0</ele>
        <time>2021-03-03T11:30:56Z</time>
      </trkpt>
      <trkpt lat="42.9037190" lon="-8.4150980">
        <ele>360.8</ele>
        <time>2021-03-03T11:30:57Z</time>
      </trkpt>
      <trkpt lat="42.9036930" lon="-8.4150840">
        <ele>360.4</ele>
        <time>2021-03-03T11:30:58Z</time>
      </trkpt>
      <trkpt lat="42.9036650" lon="-8.4150700">
        <ele>360.2</ele>
        <time>2021-03-03T11:30:59Z</time>
      </trkpt>
      <trkpt lat="42.9036380" lon="-8.4150560">
        <ele>360.2</ele>
        <time>2021-03-03T11:31:00Z</time>
      </trkpt>
      <trkpt lat="42.9036100" lon="-8.4150390">
        <ele>360.0</ele>
        <time>2021-03-03T11:31:01Z</time>
      </trkpt>
      <trkpt lat="42.9035810" lon="-8.4150150">
        <ele>359.8</ele>
        <time>2021-03-03T11:31:02Z</time>
      </trkpt>
      <trkpt lat="42.9035500" lon="-8.4149940">
        <ele>359.8</ele>
        <time>2021-03-03T11:31:03Z</time>
      </trkpt>
      <trkpt lat="42.9035200" lon="-8.4149710">
        <ele>359.8</ele>
        <time>2021-03-03T11:31:04Z</time>
      </trkpt>
      <trkpt lat="42.9034930" lon="-8.4149500">
        <ele>359.6</ele>
        <time>2021-03-03T11:31:05Z</time>
      </trkpt>
      <trkpt lat="42.9034640" lon="-8.4149340">
        <ele>359.6</ele>
        <time>2021-03-03T11:31:06Z</time>
      </trkpt>
      <trkpt lat="42.9034320" lon="-8.4149150">
        <ele>359.6</ele>
        <time>2021-03-03T11:31:07Z</time>
      </trkpt>
      <trkpt lat="42.9034020" lon="-8.4148970">
        <ele>359.4</ele>
        <time>2021-03-03T11:31:08Z</time>
      </trkpt>
      <trkpt lat="42.9033700" lon="-8.4148770">
        <ele>359.4</ele>
        <time>2021-03-03T11:31:09Z</time>
      </trkpt>
      <trkpt lat="42.9033400" lon="-8.4148610">
        <ele>359.0</ele>
        <time>2021-03-03T11:31:10Z</time>
      </trkpt>
      <trkpt lat="42.9033110" lon="-8.4148440">
        <ele>358.8</ele>
        <time>2021-03-03T11:31:11Z</time>
      </trkpt>
      <trkpt lat="42.9032820" lon="-8.4148280">
        <ele>358.8</ele>
        <time>2021-03-03T11:31:12Z</time>
      </trkpt>
      <trkpt lat="42.9032560" lon="-8.4148160">
        <ele>358.6</ele>
        <time>2021-03-03T11:31:13Z</time>
      </trkpt>
      <trkpt lat="42.9032290" lon="-8.4148070">
        <ele>358.4</ele>
        <time>2021-03-03T11:31:14Z</time>
      </trkpt>
      <trkpt lat="42.9031990" lon="-8.4147950">
        <ele>358.2</ele>
        <time>2021-03-03T11:31:15Z</time>
      </trkpt>
      <trkpt lat="42.9031720" lon="-8.4147870">
        <ele>357.8</ele>
        <time>2021-03-03T11:31:16Z</time>
      </trkpt>
      <trkpt lat="42.9031470" lon="-8.4147830">
        <ele>358.0</ele>
        <time>2021-03-03T11:31:17Z</time>
      </trkpt>
      <trkpt lat="42.9031200" lon="-8.4147800">
        <ele>358.0</ele>
        <time>2021-03-03T11:31:18Z</time>
      </trkpt>
      <trkpt lat="42.9030950" lon="-8.4147740">
        <ele>357.8</ele>
        <time>2021-03-03T11:31:19Z</time>
      </trkpt>
      <trkpt lat="42.9030670" lon="-8.4147650">
        <ele>358.0</ele>
        <time>2021-03-03T11:31:20Z</time>
      </trkpt>
      <trkpt lat="42.9030390" lon="-8.4147530">
        <ele>358.2</ele>
        <time>2021-03-03T11:31:21Z</time>
      </trkpt>
      <trkpt lat="42.9030140" lon="-8.4147390">
        <ele>357.8</ele>
        <time>2021-03-03T11:31:22Z</time>
      </trkpt>
      <trkpt lat="42.9029890" lon="-8.4147210">
        <ele>358.0</ele>
        <time>2021-03-03T11:31:23Z</time>
      </trkpt>
      <trkpt lat="42.9029640" lon="-8.4147060">
        <ele>357.8</ele>
        <time>2021-03-03T11:31:24Z</time>
      </trkpt>
      <trkpt lat="42.9029370" lon="-8.4146900">
        <ele>357.6</ele>
        <time>2021-03-03T11:31:25Z</time>
      </trkpt>
      <trkpt lat="42.9029060" lon="-8.4146760">
        <ele>357.6</ele>
        <time>2021-03-03T11:31:26Z</time>
      </trkpt>
      <trkpt lat="42.9028770" lon="-8.4146640">
        <ele>357.6</ele>
        <time>2021-03-03T11:31:27Z</time>
      </trkpt>
      <trkpt lat="42.9028490" lon="-8.4146540">
        <ele>357.6</ele>
        <time>2021-03-03T11:31:28Z</time>
      </trkpt>
      <trkpt lat="42.9028220" lon="-8.4146470">
        <ele>357.2</ele>
        <time>2021-03-03T11:31:29Z</time>
      </trkpt>
      <trkpt lat="42.9027960" lon="-8.4146410">
        <ele>356.8</ele>
        <time>2021-03-03T11:31:30Z</time>
      </trkpt>
      <trkpt lat="42.9027690" lon="-8.4146340">
        <ele>356.6</ele>
        <time>2021-03-03T11:31:31Z</time>
      </trkpt>
      <trkpt lat="42.9027410" lon="-8.4146250">
        <ele>356.4</ele>
        <time>2021-03-03T11:31:32Z</time>
      </trkpt>
      <trkpt lat="42.9027150" lon="-8.4146180">
        <ele>356.4</ele>
        <time>2021-03-03T11:31:33Z</time>
      </trkpt>
      <trkpt lat="42.9026860" lon="-8.4146080">
        <ele>356.2</ele>
        <time>2021-03-03T11:31:34Z</time>
      </trkpt>
      <trkpt lat="42.9026550" lon="-8.4145970">
        <ele>356.2</ele>
        <time>2021-03-03T11:31:35Z</time>
      </trkpt>
      <trkpt lat="42.9026280" lon="-8.4145930">
        <ele>356.0</ele>
        <time>2021-03-03T11:31:36Z</time>
      </trkpt>
      <trkpt lat="42.9026020" lon="-8.4145910">
        <ele>356.0</ele>
        <time>2021-03-03T11:31:37Z</time>
      </trkpt>
      <trkpt lat="42.9025770" lon="-8.4145850">
        <ele>356.0</ele>
        <time>2021-03-03T11:31:38Z</time>
      </trkpt>
      <trkpt lat="42.9025490" lon="-8.4145760">
        <ele>356.0</ele>
        <time>2021-03-03T11:31:39Z</time>
      </trkpt>
      <trkpt lat="42.9025200" lon="-8.4145630">
        <ele>356.0</ele>
        <time>2021-03-03T11:31:40Z</time>
      </trkpt>
      <trkpt lat="42.9024910" lon="-8.4145500">
        <ele>356.2</ele>
        <time>2021-03-03T11:31:41Z</time>
      </trkpt>
      <trkpt lat="42.9024600" lon="-8.4145330">
        <ele>356.2</ele>
        <time>2021-03-03T11:31:42Z</time>
      </trkpt>
      <trkpt lat="42.9024320" lon="-8.4145160">
        <ele>356.2</ele>
        <time>2021-03-03T11:31:43Z</time>
      </trkpt>
      <trkpt lat="42.9024010" lon="-8.4144840">
        <ele>356.4</ele>
        <time>2021-03-03T11:31:44Z</time>
      </trkpt>
      <trkpt lat="42.9023710" lon="-8.4144580">
        <ele>356.4</ele>
        <time>2021-03-03T11:31:45Z</time>
      </trkpt>
      <trkpt lat="42.9023430" lon="-8.4144340">
        <ele>356.4</ele>
        <time>2021-03-03T11:31:46Z</time>
      </trkpt>
      <trkpt lat="42.9023130" lon="-8.4144110">
        <ele>356.4</ele>
        <time>2021-03-03T11:31:47Z</time>
      </trkpt>
      <trkpt lat="42.9022850" lon="-8.4143870">
        <ele>356.6</ele>
        <time>2021-03-03T11:31:48Z</time>
      </trkpt>
      <trkpt lat="42.9022590" lon="-8.4143610">
        <ele>356.4</ele>
        <time>2021-03-03T11:31:49Z</time>
      </trkpt>
      <trkpt lat="42.9022350" lon="-8.4143420">
        <ele>356.4</ele>
        <time>2021-03-03T11:31:50Z</time>
      </trkpt>
      <trkpt lat="42.9022120" lon="-8.4143170">
        <ele>356.0</ele>
        <time>2021-03-03T11:31:51Z</time>
      </trkpt>
      <trkpt lat="42.9021910" lon="-8.4142940">
        <ele>356.0</ele>
        <time>2021-03-03T11:31:52Z</time>
      </trkpt>
      <trkpt lat="42.9021700" lon="-8.4142720">
        <ele>355.8</ele>
        <time>2021-03-03T11:31:53Z</time>
      </trkpt>
      <trkpt lat="42.9021490" lon="-8.4142480">
        <ele>355.8</ele>
        <time>2021-03-03T11:31:54Z</time>
      </trkpt>
      <trkpt lat="42.9021260" lon="-8.4142210">
        <ele>355.6</ele>
        <time>2021-03-03T11:31:55Z</time>
      </trkpt>
      <trkpt lat="42.9021050" lon="-8.4141970">
        <ele>355.6</ele>
        <time>2021-03-03T11:31:56Z</time>
      </trkpt>
      <trkpt lat="42.9020850" lon="-8.4141730">
        <ele>355.4</ele>
        <time>2021-03-03T11:31:57Z</time>
      </trkpt>
      <trkpt lat="42.9020670" lon="-8.4141500">
        <ele>355.2</ele>
        <time>2021-03-03T11:31:58Z</time>
      </trkpt>
      <trkpt lat="42.9020460" lon="-8.4141240">
        <ele>355.0</ele>
        <time>2021-03-03T11:31:59Z</time>
      </trkpt>
      <trkpt lat="42.9020250" lon="-8.4141010">
        <ele>354.8</ele>
        <time>2021-03-03T11:32:00Z</time>
      </trkpt>
      <trkpt lat="42.9020010" lon="-8.4140740">
        <ele>354.6</ele>
        <time>2021-03-03T11:32:01Z</time>
      </trkpt>
      <trkpt lat="42.9019770" lon="-8.4140470">
        <ele>354.2</ele>
        <time>2021-03-03T11:32:02Z</time>
      </trkpt>
      <trkpt lat="42.9019540" lon="-8.4140200">
        <ele>354.0</ele>
        <time>2021-03-03T11:32:03Z</time>
      </trkpt>
      <trkpt lat="42.9019360" lon="-8.4139950">
        <ele>354.0</ele>
        <time>2021-03-03T11:32:04Z</time>
      </trkpt>
      <trkpt lat="42.9019150" lon="-8.4139700">
        <ele>354.0</ele>
        <time>2021-03-03T11:32:05Z</time>
      </trkpt>
      <trkpt lat="42.9018920" lon="-8.4139450">
        <ele>353.8</ele>
        <time>2021-03-03T11:32:06Z</time>
      </trkpt>
      <trkpt lat="42.9018720" lon="-8.4139260">
        <ele>353.6</ele>
        <time>2021-03-03T11:32:07Z</time>
      </trkpt>
      <trkpt lat="42.9018540" lon="-8.4139090">
        <ele>353.8</ele>
        <time>2021-03-03T11:32:08Z</time>
      </trkpt>
      <trkpt lat="42.9018340" lon="-8.4138900">
        <ele>353.6</ele>
        <time>2021-03-03T11:32:09Z</time>
      </trkpt>
      <trkpt lat="42.9018150" lon="-8.4138730">
        <ele>353.6</ele>
        <time>2021-03-03T11:32:10Z</time>
      </trkpt>
      <trkpt lat="42.9017940" lon="-8.4138550">
        <ele>353.6</ele>
        <time>2021-03-03T11:32:11Z</time>
      </trkpt>
      <trkpt lat="42.9017700" lon="-8.4138360">
        <ele>353.6</ele>
        <time>2021-03-03T11:32:12Z</time>
      </trkpt>
      <trkpt lat="42.9017550" lon="-8.4138240">
        <ele>353.6</ele>
        <time>2021-03-03T11:32:13Z</time>
      </trkpt>
      <trkpt lat="42.9017300" lon="-8.4138100">
        <ele>353.8</ele>
        <time>2021-03-03T11:32:14Z</time>
      </trkpt>
      <trkpt lat="42.9017050" lon="-8.4137970">
        <ele>353.8</ele>
        <time>2021-03-03T11:32:15Z</time>
      </trkpt>
      <trkpt lat="42.9016800" lon="-8.4137820">
        <ele>353.8</ele>
        <time>2021-03-03T11:32:16Z</time>
      </trkpt>
      <trkpt lat="42.9016540" lon="-8.4137690">
        <ele>353.8</ele>
        <time>2021-03-03T11:32:17Z</time>
      </trkpt>
      <trkpt lat="42.9016290" lon="-8.4137590">
        <ele>353.4</ele>
        <time>2021-03-03T11:32:18Z</time>
      </trkpt>
      <trkpt lat="42.9016050" lon="-8.4137500">
        <ele>353.2</ele>
        <time>2021-03-03T11:32:19Z</time>
      </trkpt>
      <trkpt lat="42.9015780" lon="-8.4137400">
        <ele>353.2</ele>
        <time>2021-03-03T11:32:20Z</time>
      </trkpt>
      <trkpt lat="42.9015520" lon="-8.4137330">
        <ele>353.0</ele>
        <time>2021-03-03T11:32:21Z</time>
      </trkpt>
      <trkpt lat="42.9015270" lon="-8.4137280">
        <ele>353.0</ele>
        <time>2021-03-03T11:32:22Z</time>
      </trkpt>
      <trkpt lat="42.9015000" lon="-8.4137250">
        <ele>353.2</ele>
        <time>2021-03-03T11:32:23Z</time>
      </trkpt>
      <trkpt lat="42.9014740" lon="-8.4137180">
        <ele>353.2</ele>
        <time>2021-03-03T11:32:24Z</time>
      </trkpt>
      <trkpt lat="42.9014470" lon="-8.4137090">
        <ele>353.2</ele>
        <time>2021-03-03T11:32:25Z</time>
      </trkpt>
      <trkpt lat="42.9014190" lon="-8.4136960">
        <ele>353.4</ele>
        <time>2021-03-03T11:32:26Z</time>
      </trkpt>
      <trkpt lat="42.9013950" lon="-8.4136800">
        <ele>353.4</ele>
        <time>2021-03-03T11:32:27Z</time>
      </trkpt>
      <trkpt lat="42.9013670" lon="-8.4136650">
        <ele>353.6</ele>
        <time>2021-03-03T11:32:28Z</time>
      </trkpt>
      <trkpt lat="42.9013460" lon="-8.4136500">
        <ele>353.6</ele>
        <time>2021-03-03T11:32:29Z</time>
      </trkpt>
      <trkpt lat="42.9013190" lon="-8.4136380">
        <ele>353.8</ele>
        <time>2021-03-03T11:32:30Z</time>
      </trkpt>
      <trkpt lat="42.9012850" lon="-8.4136170">
        <ele>354.0</ele>
        <time>2021-03-03T11:32:31Z</time>
      </trkpt>
      <trkpt lat="42.9012590" lon="-8.4136030">
        <ele>354.2</ele>
        <time>2021-03-03T11:32:32Z</time>
      </trkpt>
      <trkpt lat="42.9012350" lon="-8.4135920">
        <ele>354.4</ele>
        <time>2021-03-03T11:32:33Z</time>
      </trkpt>
      <trkpt lat="42.9012110" lon="-8.4135800">
        <ele>354.4</ele>
        <time>2021-03-03T11:32:34Z</time>
      </trkpt>
      <trkpt lat="42.9011900" lon="-8.4135740">
        <ele>354.6</ele>
        <time>2021-03-03T11:32:35Z</time>
      </trkpt>
      <trkpt lat="42.9011680" lon="-8.4135640">
        <ele>354.6</ele>
        <time>2021-03-03T11:32:36Z</time>
      </trkpt>
      <trkpt lat="42.9011430" lon="-8.4135510">
        <ele>354.6</ele>
        <time>2021-03-03T11:32:37Z</time>
      </trkpt>
      <trkpt lat="42.9011200" lon="-8.4135390">
        <ele>354.8</ele>
        <time>2021-03-03T11:32:38Z</time>
      </trkpt>
      <trkpt lat="42.9010960" lon="-8.4135210">
        <ele>355.0</ele>
        <time>2021-03-03T11:32:39Z</time>
      </trkpt>
      <trkpt lat="42.9010690" lon="-8.4135050">
        <ele>355.0</ele>
        <time>2021-03-03T11:32:40Z</time>
      </trkpt>
      <trkpt lat="42.9010450" lon="-8.4134920">
        <ele>355.2</ele>
        <time>2021-03-03T11:32:41Z</time>
      </trkpt>
      <trkpt lat="42.9010230" lon="-8.4134740">
        <ele>355.2</ele>
        <time>2021-03-03T11:32:42Z</time>
      </trkpt>
      <trkpt lat="42.9009970" lon="-8.4134570">
        <ele>355.4</ele>
        <time>2021-03-03T11:32:43Z</time>
      </trkpt>
      <trkpt lat="42.9009750" lon="-8.4134500">
        <ele>355.6</ele>
        <time>2021-03-03T11:32:44Z</time>
      </trkpt>
      <trkpt lat="42.9009530" lon="-8.4134440">
        <ele>355.8</ele>
        <time>2021-03-03T11:32:45Z</time>
      </trkpt>
      <trkpt lat="42.9009340" lon="-8.4134370">
        <ele>356.0</ele>
        <time>2021-03-03T11:32:46Z</time>
      </trkpt>
      <trkpt lat="42.9009130" lon="-8.4134260">
        <ele>356.4</ele>
        <time>2021-03-03T11:32:47Z</time>
      </trkpt>
      <trkpt lat="42.9008920" lon="-8.4134150">
        <ele>356.6</ele>
        <time>2021-03-03T11:32:48Z</time>
      </trkpt>
      <trkpt lat="42.9008710" lon="-8.4134030">
        <ele>356.6</ele>
        <time>2021-03-03T11:32:49Z</time>
      </trkpt>
      <trkpt lat="42.9008480" lon="-8.4133920">
        <ele>356.8</ele>
        <time>2021-03-03T11:32:50Z</time>
      </trkpt>
      <trkpt lat="42.9008260" lon="-8.4133830">
        <ele>356.8</ele>
        <time>2021-03-03T11:32:51Z</time>
      </trkpt>
      <trkpt lat="42.9008030" lon="-8.4133750">
        <ele>357.0</ele>
        <time>2021-03-03T11:32:52Z</time>
      </trkpt>
      <trkpt lat="42.9007810" lon="-8.4133700">
        <ele>357.4</ele>
        <time>2021-03-03T11:32:53Z</time>
      </trkpt>
      <trkpt lat="42.9007590" lon="-8.4133640">
        <ele>357.6</ele>
        <time>2021-03-03T11:32:54Z</time>
      </trkpt>
      <trkpt lat="42.9007370" lon="-8.4133590">
        <ele>357.8</ele>
        <time>2021-03-03T11:32:55Z</time>
      </trkpt>
      <trkpt lat="42.9007150" lon="-8.4133540">
        <ele>358.0</ele>
        <time>2021-03-03T11:32:56Z</time>
      </trkpt>
      <trkpt lat="42.9006930" lon="-8.4133490">
        <ele>358.2</ele>
        <time>2021-03-03T11:32:57Z</time>
      </trkpt>
      <trkpt lat="42.9006680" lon="-8.4133410">
        <ele>358.2</ele>
        <time>2021-03-03T11:32:58Z</time>
      </trkpt>
      <trkpt lat="42.9006430" lon="-8.4133350">
        <ele>358.4</ele>
        <time>2021-03-03T11:32:59Z</time>
      </trkpt>
      <trkpt lat="42.9006180" lon="-8.4133270">
        <ele>358.4</ele>
        <time>2021-03-03T11:33:00Z</time>
      </trkpt>
      <trkpt lat="42.9005940" lon="-8.4133210">
        <ele>358.4</ele>
        <time>2021-03-03T11:33:01Z</time>
      </trkpt>
      <trkpt lat="42.9005700" lon="-8.4133140">
        <ele>358.6</ele>
        <time>2021-03-03T11:33:02Z</time>
      </trkpt>
      <trkpt lat="42.9005440" lon="-8.4133060">
        <ele>358.6</ele>
        <time>2021-03-03T11:33:03Z</time>
      </trkpt>
      <trkpt lat="42.9005200" lon="-8.4132980">
        <ele>358.8</ele>
        <time>2021-03-03T11:33:04Z</time>
      </trkpt>
      <trkpt lat="42.9004950" lon="-8.4132900">
        <ele>358.8</ele>
        <time>2021-03-03T11:33:05Z</time>
      </trkpt>
      <trkpt lat="42.9004710" lon="-8.4132800">
        <ele>358.8</ele>
        <time>2021-03-03T11:33:06Z</time>
      </trkpt>
      <trkpt lat="42.9004460" lon="-8.4132670">
        <ele>359.0</ele>
        <time>2021-03-03T11:33:07Z</time>
      </trkpt>
      <trkpt lat="42.9004200" lon="-8.4132550">
        <ele>359.0</ele>
        <time>2021-03-03T11:33:08Z</time>
      </trkpt>
      <trkpt lat="42.9003940" lon="-8.4132440">
        <ele>359.0</ele>
        <time>2021-03-03T11:33:09Z</time>
      </trkpt>
      <trkpt lat="42.9003730" lon="-8.4132360">
        <ele>359.0</ele>
        <time>2021-03-03T11:33:10Z</time>
      </trkpt>
      <trkpt lat="42.9003520" lon="-8.4132280">
        <ele>359.0</ele>
        <time>2021-03-03T11:33:11Z</time>
      </trkpt>
      <trkpt lat="42.9003300" lon="-8.4132150">
        <ele>359.2</ele>
        <time>2021-03-03T11:33:12Z</time>
      </trkpt>
      <trkpt lat="42.9003070" lon="-8.4132010">
        <ele>359.2</ele>
        <time>2021-03-03T11:33:13Z</time>
      </trkpt>
      <trkpt lat="42.9002820" lon="-8.4131850">
        <ele>359.2</ele>
        <time>2021-03-03T11:33:14Z</time>
      </trkpt>
      <trkpt lat="42.9002570" lon="-8.4131680">
        <ele>359.2</ele>
        <time>2021-03-03T11:33:15Z</time>
      </trkpt>
      <trkpt lat="42.9002300" lon="-8.4131540">
        <ele>359.4</ele>
        <time>2021-03-03T11:33:16Z</time>
      </trkpt>
      <trkpt lat="42.9002050" lon="-8.4131440">
        <ele>359.6</ele>
        <time>2021-03-03T11:33:17Z</time>
      </trkpt>
      <trkpt lat="42.9001790" lon="-8.4131350">
        <ele>359.6</ele>
        <time>2021-03-03T11:33:18Z</time>
      </trkpt>
      <trkpt lat="42.9001540" lon="-8.4131280">
        <ele>359.8</ele>
        <time>2021-03-03T11:33:19Z</time>
      </trkpt>
      <trkpt lat="42.9001230" lon="-8.4131140">
        <ele>359.8</ele>
        <time>2021-03-03T11:33:20Z</time>
      </trkpt>
      <trkpt lat="42.9000940" lon="-8.4131010">
        <ele>359.8</ele>
        <time>2021-03-03T11:33:21Z</time>
      </trkpt>
      <trkpt lat="42.9000640" lon="-8.4130880">
        <ele>360.0</ele>
        <time>2021-03-03T11:33:22Z</time>
      </trkpt>
      <trkpt lat="42.9000430" lon="-8.4130790">
        <ele>360.2</ele>
        <time>2021-03-03T11:33:23Z</time>
      </trkpt>
      <trkpt lat="42.9000200" lon="-8.4130670">
        <ele>360.4</ele>
        <time>2021-03-03T11:33:24Z</time>
      </trkpt>
      <trkpt lat="42.8999970" lon="-8.4130500">
        <ele>360.4</ele>
        <time>2021-03-03T11:33:25Z</time>
      </trkpt>
      <trkpt lat="42.8999760" lon="-8.4130410">
        <ele>360.4</ele>
        <time>2021-03-03T11:33:26Z</time>
      </trkpt>
      <trkpt lat="42.8999600" lon="-8.4130330">
        <ele>360.6</ele>
        <time>2021-03-03T11:33:27Z</time>
      </trkpt>
      <trkpt lat="42.8999440" lon="-8.4130280">
        <ele>360.6</ele>
        <time>2021-03-03T11:33:28Z</time>
      </trkpt>
      <trkpt lat="42.8999260" lon="-8.4130200">
        <ele>360.6</ele>
        <time>2021-03-03T11:33:29Z</time>
      </trkpt>
      <trkpt lat="42.8999120" lon="-8.4130150">
        <ele>360.6</ele>
        <time>2021-03-03T11:33:30Z</time>
      </trkpt>
      <trkpt lat="42.8998940" lon="-8.4130130">
        <ele>361.0</ele>
        <time>2021-03-03T11:33:31Z</time>
      </trkpt>
      <trkpt lat="42.8998790" lon="-8.4130060">
        <ele>361.2</ele>
        <time>2021-03-03T11:33:32Z</time>
      </trkpt>
      <trkpt lat="42.8998630" lon="-8.4130010">
        <ele>361.4</ele>
        <time>2021-03-03T11:33:33Z</time>
      </trkpt>
      <trkpt lat="42.8998450" lon="-8.4129940">
        <ele>361.4</ele>
        <time>2021-03-03T11:33:34Z</time>
      </trkpt>
      <trkpt lat="42.8998250" lon="-8.4129880">
        <ele>361.4</ele>
        <time>2021-03-03T11:33:35Z</time>
      </trkpt>
      <trkpt lat="42.8998110" lon="-8.4129800">
        <ele>361.4</ele>
        <time>2021-03-03T11:33:36Z</time>
      </trkpt>
      <trkpt lat="42.8997890" lon="-8.4129690">
        <ele>361.6</ele>
        <time>2021-03-03T11:33:37Z</time>
      </trkpt>
      <trkpt lat="42.8997730" lon="-8.4129630">
        <ele>361.6</ele>
        <time>2021-03-03T11:33:38Z</time>
      </trkpt>
      <trkpt lat="42.8997560" lon="-8.4129580">
        <ele>361.6</ele>
        <time>2021-03-03T11:33:39Z</time>
      </trkpt>
      <trkpt lat="42.8997420" lon="-8.4129540">
        <ele>361.6</ele>
        <time>2021-03-03T11:33:40Z</time>
      </trkpt>
      <trkpt lat="42.8997280" lon="-8.4129500">
        <ele>362.0</ele>
        <time>2021-03-03T11:33:41Z</time>
      </trkpt>
      <trkpt lat="42.8997130" lon="-8.4129450">
        <ele>362.2</ele>
        <time>2021-03-03T11:33:42Z</time>
      </trkpt>
      <trkpt lat="42.8996970" lon="-8.4129390">
        <ele>362.2</ele>
        <time>2021-03-03T11:33:43Z</time>
      </trkpt>
      <trkpt lat="42.8996760" lon="-8.4129290">
        <ele>362.2</ele>
        <time>2021-03-03T11:33:44Z</time>
      </trkpt>
      <trkpt lat="42.8996610" lon="-8.4129230">
        <ele>362.4</ele>
        <time>2021-03-03T11:33:45Z</time>
      </trkpt>
      <trkpt lat="42.8996400" lon="-8.4129140">
        <ele>362.4</ele>
        <time>2021-03-03T11:33:46Z</time>
      </trkpt>
      <trkpt lat="42.8996230" lon="-8.4129070">
        <ele>362.4</ele>
        <time>2021-03-03T11:33:47Z</time>
      </trkpt>
      <trkpt lat="42.8996090" lon="-8.4129020">
        <ele>362.4</ele>
        <time>2021-03-03T11:33:48Z</time>
      </trkpt>
      <trkpt lat="42.8995920" lon="-8.4128950">
        <ele>362.6</ele>
        <time>2021-03-03T11:33:49Z</time>
      </trkpt>
      <trkpt lat="42.8995760" lon="-8.4128890">
        <ele>362.8</ele>
        <time>2021-03-03T11:33:50Z</time>
      </trkpt>
      <trkpt lat="42.8995590" lon="-8.4128840">
        <ele>362.8</ele>
        <time>2021-03-03T11:33:51Z</time>
      </trkpt>
      <trkpt lat="42.8995440" lon="-8.4128810">
        <ele>362.8</ele>
        <time>2021-03-03T11:33:52Z</time>
      </trkpt>
      <trkpt lat="42.8995290" lon="-8.4128770">
        <ele>363.0</ele>
        <time>2021-03-03T11:33:53Z</time>
      </trkpt>
      <trkpt lat="42.8995140" lon="-8.4128730">
        <ele>363.0</ele>
        <time>2021-03-03T11:33:54Z</time>
      </trkpt>
      <trkpt lat="42.8994970" lon="-8.4128680">
        <ele>363.0</ele>
        <time>2021-03-03T11:33:55Z</time>
      </trkpt>
      <trkpt lat="42.8994800" lon="-8.4128650">
        <ele>363.0</ele>
        <time>2021-03-03T11:33:56Z</time>
      </trkpt>
      <trkpt lat="42.8994650" lon="-8.4128610">
        <ele>363.0</ele>
        <time>2021-03-03T11:33:57Z</time>
      </trkpt>
      <trkpt lat="42.8994470" lon="-8.4128560">
        <ele>363.2</ele>
        <time>2021-03-03T11:33:58Z</time>
      </trkpt>
      <trkpt lat="42.8994290" lon="-8.4128500">
        <ele>363.2</ele>
        <time>2021-03-03T11:33:59Z</time>
      </trkpt>
      <trkpt lat="42.8994110" lon="-8.4128480">
        <ele>363.2</ele>
        <time>2021-03-03T11:34:00Z</time>
      </trkpt>
      <trkpt lat="42.8993920" lon="-8.4128460">
        <ele>363.2</ele>
        <time>2021-03-03T11:34:01Z</time>
      </trkpt>
      <trkpt lat="42.8993740" lon="-8.4128420">
        <ele>363.4</ele>
        <time>2021-03-03T11:34:02Z</time>
      </trkpt>
      <trkpt lat="42.8993590" lon="-8.4128360">
        <ele>363.4</ele>
        <time>2021-03-03T11:34:03Z</time>
      </trkpt>
      <trkpt lat="42.8993440" lon="-8.4128310">
        <ele>363.4</ele>
        <time>2021-03-03T11:34:04Z</time>
      </trkpt>
      <trkpt lat="42.8993310" lon="-8.4128280">
        <ele>363.4</ele>
        <time>2021-03-03T11:34:05Z</time>
      </trkpt>
      <trkpt lat="42.8993170" lon="-8.4128230">
        <ele>363.4</ele>
        <time>2021-03-03T11:34:06Z</time>
      </trkpt>
      <trkpt lat="42.8993030" lon="-8.4128180">
        <ele>363.6</ele>
        <time>2021-03-03T11:34:07Z</time>
      </trkpt>
      <trkpt lat="42.8992870" lon="-8.4128090">
        <ele>363.8</ele>
        <time>2021-03-03T11:34:08Z</time>
      </trkpt>
      <trkpt lat="42.8992710" lon="-8.4128010">
        <ele>363.8</ele>
        <time>2021-03-03T11:34:09Z</time>
      </trkpt>
      <trkpt lat="42.8992520" lon="-8.4127930">
        <ele>364.0</ele>
        <time>2021-03-03T11:34:10Z</time>
      </trkpt>
      <trkpt lat="42.8992330" lon="-8.4127850">
        <ele>364.0</ele>
        <time>2021-03-03T11:34:11Z</time>
      </trkpt>
      <trkpt lat="42.8992150" lon="-8.4127770">
        <ele>364.0</ele>
        <time>2021-03-03T11:34:12Z</time>
      </trkpt>
      <trkpt lat="42.8991960" lon="-8.4127700">
        <ele>364.0</ele>
        <time>2021-03-03T11:34:13Z</time>
      </trkpt>
      <trkpt lat="42.8991760" lon="-8.4127610">
        <ele>364.2</ele>
        <time>2021-03-03T11:34:14Z</time>
      </trkpt>
      <trkpt lat="42.8991560" lon="-8.4127550">
        <ele>364.2</ele>
        <time>2021-03-03T11:34:15Z</time>
      </trkpt>
      <trkpt lat="42.8991380" lon="-8.4127470">
        <ele>364.4</ele>
        <time>2021-03-03T11:34:16Z</time>
      </trkpt>
      <trkpt lat="42.8991220" lon="-8.4127390">
        <ele>364.4</ele>
        <time>2021-03-03T11:34:17Z</time>
      </trkpt>
      <trkpt lat="42.8991050" lon="-8.4127320">
        <ele>364.6</ele>
        <time>2021-03-03T11:34:18Z</time>
      </trkpt>
      <trkpt lat="42.8990900" lon="-8.4127270">
        <ele>364.6</ele>
        <time>2021-03-03T11:34:19Z</time>
      </trkpt>
      <trkpt lat="42.8990730" lon="-8.4127200">
        <ele>364.6</ele>
        <time>2021-03-03T11:34:20Z</time>
      </trkpt>
      <trkpt lat="42.8990540" lon="-8.4127090">
        <ele>364.8</ele>
        <time>2021-03-03T11:34:21Z</time>
      </trkpt>
      <trkpt lat="42.8990360" lon="-8.4126990">
        <ele>364.8</ele>
        <time>2021-03-03T11:34:22Z</time>
      </trkpt>
      <trkpt lat="42.8990120" lon="-8.4126880">
        <ele>365.0</ele>
        <time>2021-03-03T11:34:23Z</time>
      </trkpt>
      <trkpt lat="42.8989920" lon="-8.4126770">
        <ele>365.2</ele>
        <time>2021-03-03T11:34:24Z</time>
      </trkpt>
      <trkpt lat="42.8989710" lon="-8.4126700">
        <ele>365.2</ele>
        <time>2021-03-03T11:34:25Z</time>
      </trkpt>
      <trkpt lat="42.8989580" lon="-8.4126630">
        <ele>365.2</ele>
        <time>2021-03-03T11:34:26Z</time>
      </trkpt>
      <trkpt lat="42.8989450" lon="-8.4126570">
        <ele>365.2</ele>
        <time>2021-03-03T11:34:27Z</time>
      </trkpt>
      <trkpt lat="42.8989290" lon="-8.4126510">
        <ele>365.4</ele>
        <time>2021-03-03T11:34:28Z</time>
      </trkpt>
      <trkpt lat="42.8989120" lon="-8.4126400">
        <ele>365.6</ele>
        <time>2021-03-03T11:34:29Z</time>
      </trkpt>
      <trkpt lat="42.8988900" lon="-8.4126270">
        <ele>365.8</ele>
        <time>2021-03-03T11:34:30Z</time>
      </trkpt>
      <trkpt lat="42.8988690" lon="-8.4126190">
        <ele>365.8</ele>
        <time>2021-03-03T11:34:31Z</time>
      </trkpt>
      <trkpt lat="42.8988500" lon="-8.4126130">
        <ele>366.0</ele>
        <time>2021-03-03T11:34:32Z</time>
      </trkpt>
      <trkpt lat="42.8988320" lon="-8.4126050">
        <ele>366.2</ele>
        <time>2021-03-03T11:34:33Z</time>
      </trkpt>
      <trkpt lat="42.8988160" lon="-8.4125990">
        <ele>366.2</ele>
        <time>2021-03-03T11:34:34Z</time>
      </trkpt>
      <trkpt lat="42.8988030" lon="-8.4125930">
        <ele>366.2</ele>
        <time>2021-03-03T11:34:35Z</time>
      </trkpt>
      <trkpt lat="42.8987870" lon="-8.4125880">
        <ele>366.2</ele>
        <time>2021-03-03T11:34:36Z</time>
      </trkpt>
      <trkpt lat="42.8987740" lon="-8.4125830">
        <ele>366.2</ele>
        <time>2021-03-03T11:34:37Z</time>
      </trkpt>
      <trkpt lat="42.8987620" lon="-8.4125760">
        <ele>366.2</ele>
        <time>2021-03-03T11:34:38Z</time>
      </trkpt>
      <trkpt lat="42.8987480" lon="-8.4125700">
        <ele>366.2</ele>
        <time>2021-03-03T11:34:39Z</time>
      </trkpt>
      <trkpt lat="42.8987320" lon="-8.4125640">
        <ele>366.4</ele>
        <time>2021-03-03T11:34:40Z</time>
      </trkpt>
      <trkpt lat="42.8987150" lon="-8.4125580">
        <ele>366.4</ele>
        <time>2021-03-03T11:34:41Z</time>
      </trkpt>
      <trkpt lat="42.8986970" lon="-8.4125500">
        <ele>366.4</ele>
        <time>2021-03-03T11:34:42Z</time>
      </trkpt>
      <trkpt lat="42.8986790" lon="-8.4125380">
        <ele>366.6</ele>
        <time>2021-03-03T11:34:43Z</time>
      </trkpt>
      <trkpt lat="42.8986630" lon="-8.4125260">
        <ele>366.8</ele>
        <time>2021-03-03T11:34:44Z</time>
      </trkpt>
      <trkpt lat="42.8986470" lon="-8.4125180">
        <ele>367.0</ele>
        <time>2021-03-03T11:34:45Z</time>
      </trkpt>
      <trkpt lat="42.8986310" lon="-8.4125090">
        <ele>367.2</ele>
        <time>2021-03-03T11:34:46Z</time>
      </trkpt>
      <trkpt lat="42.8986150" lon="-8.4125050">
        <ele>367.4</ele>
        <time>2021-03-03T11:34:47Z</time>
      </trkpt>
      <trkpt lat="42.8985990" lon="-8.4124980">
        <ele>367.4</ele>
        <time>2021-03-03T11:34:48Z</time>
      </trkpt>
      <trkpt lat="42.8985820" lon="-8.4124920">
        <ele>367.4</ele>
        <time>2021-03-03T11:34:49Z</time>
      </trkpt>
      <trkpt lat="42.8985640" lon="-8.4124860">
        <ele>367.6</ele>
        <time>2021-03-03T11:34:50Z</time>
      </trkpt>
      <trkpt lat="42.8985460" lon="-8.4124800">
        <ele>367.6</ele>
        <time>2021-03-03T11:34:51Z</time>
      </trkpt>
      <trkpt lat="42.8985260" lon="-8.4124730">
        <ele>367.6</ele>
        <time>2021-03-03T11:34:52Z</time>
      </trkpt>
      <trkpt lat="42.8985070" lon="-8.4124650">
        <ele>367.6</ele>
        <time>2021-03-03T11:34:53Z</time>
      </trkpt>
      <trkpt lat="42.8984890" lon="-8.4124620">
        <ele>367.6</ele>
        <time>2021-03-03T11:34:54Z</time>
      </trkpt>
      <trkpt lat="42.8984710" lon="-8.4124550">
        <ele>367.6</ele>
        <time>2021-03-03T11:34:55Z</time>
      </trkpt>
      <trkpt lat="42.8984540" lon="-8.4124430">
        <ele>367.8</ele>
        <time>2021-03-03T11:34:56Z</time>
      </trkpt>
      <trkpt lat="42.8984320" lon="-8.4124280">
        <ele>367.8</ele>
        <time>2021-03-03T11:34:57Z</time>
      </trkpt>
      <trkpt lat="42.8984100" lon="-8.4124180">
        <ele>367.8</ele>
        <time>2021-03-03T11:34:58Z</time>
      </trkpt>
      <trkpt lat="42.8983850" lon="-8.4124110">
        <ele>367.8</ele>
        <time>2021-03-03T11:34:59Z</time>
      </trkpt>
      <trkpt lat="42.8983620" lon="-8.4124040">
        <ele>367.8</ele>
        <time>2021-03-03T11:35:00Z</time>
      </trkpt>
      <trkpt lat="42.8983380" lon="-8.4123990">
        <ele>368.0</ele>
        <time>2021-03-03T11:35:01Z</time>
      </trkpt>
      <trkpt lat="42.8983160" lon="-8.4123940">
        <ele>368.0</ele>
        <time>2021-03-03T11:35:02Z</time>
      </trkpt>
      <trkpt lat="42.8982930" lon="-8.4123860">
        <ele>368.2</ele>
        <time>2021-03-03T11:35:03Z</time>
      </trkpt>
      <trkpt lat="42.8982690" lon="-8.4123780">
        <ele>368.2</ele>
        <time>2021-03-03T11:35:04Z</time>
      </trkpt>
      <trkpt lat="42.8982460" lon="-8.4123690">
        <ele>368.2</ele>
        <time>2021-03-03T11:35:05Z</time>
      </trkpt>
      <trkpt lat="42.8982210" lon="-8.4123590">
        <ele>368.4</ele>
        <time>2021-03-03T11:35:06Z</time>
      </trkpt>
      <trkpt lat="42.8981970" lon="-8.4123490">
        <ele>368.4</ele>
        <time>2021-03-03T11:35:07Z</time>
      </trkpt>
      <trkpt lat="42.8981720" lon="-8.4123390">
        <ele>368.4</ele>
        <time>2021-03-03T11:35:08Z</time>
      </trkpt>
      <trkpt lat="42.8981470" lon="-8.4123280">
        <ele>368.4</ele>
        <time>2021-03-03T11:35:09Z</time>
      </trkpt>
      <trkpt lat="42.8981220" lon="-8.4123170">
        <ele>368.4</ele>
        <time>2021-03-03T11:35:10Z</time>
      </trkpt>
      <trkpt lat="42.8980960" lon="-8.4123020">
        <ele>368.4</ele>
        <time>2021-03-03T11:35:11Z</time>
      </trkpt>
      <trkpt lat="42.8980710" lon="-8.4122930">
        <ele>368.4</ele>
        <time>2021-03-03T11:35:12Z</time>
      </trkpt>
      <trkpt lat="42.8980480" lon="-8.4122840">
        <ele>368.4</ele>
        <time>2021-03-03T11:35:13Z</time>
      </trkpt>
      <trkpt lat="42.8980250" lon="-8.4122750">
        <ele>368.4</ele>
        <time>2021-03-03T11:35:14Z</time>
      </trkpt>
      <trkpt lat="42.8980040" lon="-8.4122650">
        <ele>368.2</ele>
        <time>2021-03-03T11:35:15Z</time>
      </trkpt>
      <trkpt lat="42.8979800" lon="-8.4122540">
        <ele>368.2</ele>
        <time>2021-03-03T11:35:16Z</time>
      </trkpt>
      <trkpt lat="42.8979530" lon="-8.4122420">
        <ele>368.2</ele>
        <time>2021-03-03T11:35:17Z</time>
      </trkpt>
      <trkpt lat="42.8979240" lon="-8.4122340">
        <ele>368.2</ele>
        <time>2021-03-03T11:35:18Z</time>
      </trkpt>
      <trkpt lat="42.8978930" lon="-8.4122300">
        <ele>368.2</ele>
        <time>2021-03-03T11:35:19Z</time>
      </trkpt>
      <trkpt lat="42.8978640" lon="-8.4122280">
        <ele>368.2</ele>
        <time>2021-03-03T11:35:20Z</time>
      </trkpt>
      <trkpt lat="42.8978360" lon="-8.4122300">
        <ele>368.2</ele>
        <time>2021-03-03T11:35:21Z</time>
      </trkpt>
      <trkpt lat="42.8978080" lon="-8.4122280">
        <ele>368.4</ele>
        <time>2021-03-03T11:35:22Z</time>
      </trkpt>
      <trkpt lat="42.8977810" lon="-8.4122240">
        <ele>368.4</ele>
        <time>2021-03-03T11:35:23Z</time>
      </trkpt>
      <trkpt lat="42.8977530" lon="-8.4122240">
        <ele>368.4</ele>
        <time>2021-03-03T11:35:24Z</time>
      </trkpt>
      <trkpt lat="42.8977240" lon="-8.4122260">
        <ele>368.4</ele>
        <time>2021-03-03T11:35:25Z</time>
      </trkpt>
      <trkpt lat="42.8976950" lon="-8.4122300">
        <ele>368.4</ele>
        <time>2021-03-03T11:35:26Z</time>
      </trkpt>
      <trkpt lat="42.8976640" lon="-8.4122340">
        <ele>368.0</ele>
        <time>2021-03-03T11:35:27Z</time>
      </trkpt>
      <trkpt lat="42.8976340" lon="-8.4122370">
        <ele>368.0</ele>
        <time>2021-03-03T11:35:28Z</time>
      </trkpt>
      <trkpt lat="42.8976030" lon="-8.4122400">
        <ele>368.0</ele>
        <time>2021-03-03T11:35:29Z</time>
      </trkpt>
      <trkpt lat="42.8975720" lon="-8.4122430">
        <ele>367.8</ele>
        <time>2021-03-03T11:35:30Z</time>
      </trkpt>
      <trkpt lat="42.8975430" lon="-8.4122450">
        <ele>367.8</ele>
        <time>2021-03-03T11:35:31Z</time>
      </trkpt>
      <trkpt lat="42.8975130" lon="-8.4122420">
        <ele>367.6</ele>
        <time>2021-03-03T11:35:32Z</time>
      </trkpt>
      <trkpt lat="42.8974820" lon="-8.4122370">
        <ele>367.6</ele>
        <time>2021-03-03T11:35:33Z</time>
      </trkpt>
      <trkpt lat="42.8974440" lon="-8.4122330">
        <ele>367.6</ele>
        <time>2021-03-03T11:35:34Z</time>
      </trkpt>
      <trkpt lat="42.8974170" lon="-8.4122320">
        <ele>367.4</ele>
        <time>2021-03-03T11:35:35Z</time>
      </trkpt>
      <trkpt lat="42.8973840" lon="-8.4122300">
        <ele>367.4</ele>
        <time>2021-03-03T11:35:36Z</time>
      </trkpt>
      <trkpt lat="42.8973510" lon="-8.4122260">
        <ele>367.2</ele>
        <time>2021-03-03T11:35:37Z</time>
      </trkpt>
      <trkpt lat="42.8973230" lon="-8.4122300">
        <ele>367.2</ele>
        <time>2021-03-03T11:35:38Z</time>
      </trkpt>
      <trkpt lat="42.8972940" lon="-8.4122330">
        <ele>367.2</ele>
        <time>2021-03-03T11:35:39Z</time>
      </trkpt>
      <trkpt lat="42.8972660" lon="-8.4122340">
        <ele>367.0</ele>
        <time>2021-03-03T11:35:40Z</time>
      </trkpt>
      <trkpt lat="42.8972360" lon="-8.4122360">
        <ele>367.0</ele>
        <time>2021-03-03T11:35:41Z</time>
      </trkpt>
      <trkpt lat="42.8972160" lon="-8.4122390">
        <ele>367.0</ele>
        <time>2021-03-03T11:35:42Z</time>
      </trkpt>
      <trkpt lat="42.8971880" lon="-8.4122430">
        <ele>366.8</ele>
        <time>2021-03-03T11:35:43Z</time>
      </trkpt>
      <trkpt lat="42.8971710" lon="-8.4122490">
        <ele>366.8</ele>
        <time>2021-03-03T11:35:44Z</time>
      </trkpt>
      <trkpt lat="42.8971510" lon="-8.4122570">
        <ele>366.4</ele>
        <time>2021-03-03T11:35:45Z</time>
      </trkpt>
      <trkpt lat="42.8971190" lon="-8.4122660">
        <ele>366.4</ele>
        <time>2021-03-03T11:35:46Z</time>
      </trkpt>
      <trkpt lat="42.8970940" lon="-8.4122690">
        <ele>366.2</ele>
        <time>2021-03-03T11:35:47Z</time>
      </trkpt>
      <trkpt lat="42.8970620" lon="-8.4122710">
        <ele>366.2</ele>
        <time>2021-03-03T11:35:48Z</time>
      </trkpt>
      <trkpt lat="42.8970320" lon="-8.4122710">
        <ele>366.0</ele>
        <time>2021-03-03T11:35:49Z</time>
      </trkpt>
      <trkpt lat="42.8970010" lon="-8.4122700">
        <ele>366.0</ele>
        <time>2021-03-03T11:35:50Z</time>
      </trkpt>
      <trkpt lat="42.8969710" lon="-8.4122690">
        <ele>366.0</ele>
        <time>2021-03-03T11:35:51Z</time>
      </trkpt>
      <trkpt lat="42.8969410" lon="-8.4122740">
        <ele>365.8</ele>
        <time>2021-03-03T11:35:52Z</time>
      </trkpt>
      <trkpt lat="42.8969110" lon="-8.4122750">
        <ele>366.0</ele>
        <time>2021-03-03T11:35:53Z</time>
      </trkpt>
      <trkpt lat="42.8968750" lon="-8.4122740">
        <ele>365.8</ele>
        <time>2021-03-03T11:35:54Z</time>
      </trkpt>
      <trkpt lat="42.8968520" lon="-8.4122730">
        <ele>366.0</ele>
        <time>2021-03-03T11:35:55Z</time>
      </trkpt>
      <trkpt lat="42.8968180" lon="-8.4122700">
        <ele>365.8</ele>
        <time>2021-03-03T11:35:56Z</time>
      </trkpt>
      <trkpt lat="42.8967940" lon="-8.4122710">
        <ele>365.6</ele>
        <time>2021-03-03T11:35:57Z</time>
      </trkpt>
      <trkpt lat="42.8967620" lon="-8.4122700">
        <ele>365.6</ele>
        <time>2021-03-03T11:35:58Z</time>
      </trkpt>
      <trkpt lat="42.8967230" lon="-8.4122700">
        <ele>365.8</ele>
        <time>2021-03-03T11:35:59Z</time>
      </trkpt>
      <trkpt lat="42.8966890" lon="-8.4122710">
        <ele>365.6</ele>
        <time>2021-03-03T11:36:00Z</time>
      </trkpt>
      <trkpt lat="42.8966640" lon="-8.4122730">
        <ele>365.6</ele>
        <time>2021-03-03T11:36:01Z</time>
      </trkpt>
      <trkpt lat="42.8966310" lon="-8.4122700">
        <ele>365.4</ele>
        <time>2021-03-03T11:36:02Z</time>
      </trkpt>
      <trkpt lat="42.8965900" lon="-8.4122620">
        <ele>365.2</ele>
        <time>2021-03-03T11:36:03Z</time>
      </trkpt>
      <trkpt lat="42.8965610" lon="-8.4122520">
        <ele>365.2</ele>
        <time>2021-03-03T11:36:04Z</time>
      </trkpt>
      <trkpt lat="42.8965240" lon="-8.4122440">
        <ele>365.0</ele>
        <time>2021-03-03T11:36:05Z</time>
      </trkpt>
      <trkpt lat="42.8964990" lon="-8.4122380">
        <ele>365.0</ele>
        <time>2021-03-03T11:36:06Z</time>
      </trkpt>
      <trkpt lat="42.8964680" lon="-8.4122280">
        <ele>365.0</ele>
        <time>2021-03-03T11:36:07Z</time>
      </trkpt>
      <trkpt lat="42.8964370" lon="-8.4122200">
        <ele>365.0</ele>
        <time>2021-03-03T11:36:08Z</time>
      </trkpt>
      <trkpt lat="42.8964000" lon="-8.4122150">
        <ele>365.0</ele>
        <time>2021-03-03T11:36:09Z</time>
      </trkpt>
      <trkpt lat="42.8963700" lon="-8.4122130">
        <ele>365.0</ele>
        <time>2021-03-03T11:36:10Z</time>
      </trkpt>
      <trkpt lat="42.8963480" lon="-8.4122130">
        <ele>365.0</ele>
        <time>2021-03-03T11:36:11Z</time>
      </trkpt>
      <trkpt lat="42.8963130" lon="-8.4122140">
        <ele>365.0</ele>
        <time>2021-03-03T11:36:12Z</time>
      </trkpt>
      <trkpt lat="42.8962880" lon="-8.4122180">
        <ele>365.0</ele>
        <time>2021-03-03T11:36:13Z</time>
      </trkpt>
      <trkpt lat="42.8962590" lon="-8.4122210">
        <ele>364.8</ele>
        <time>2021-03-03T11:36:14Z</time>
      </trkpt>
      <trkpt lat="42.8962240" lon="-8.4122220">
        <ele>364.8</ele>
        <time>2021-03-03T11:36:15Z</time>
      </trkpt>
      <trkpt lat="42.8961990" lon="-8.4122250">
        <ele>364.6</ele>
        <time>2021-03-03T11:36:16Z</time>
      </trkpt>
      <trkpt lat="42.8961690" lon="-8.4122270">
        <ele>364.4</ele>
        <time>2021-03-03T11:36:17Z</time>
      </trkpt>
      <trkpt lat="42.8961350" lon="-8.4122320">
        <ele>364.4</ele>
        <time>2021-03-03T11:36:18Z</time>
      </trkpt>
      <trkpt lat="42.8961110" lon="-8.4122380">
        <ele>364.2</ele>
        <time>2021-03-03T11:36:19Z</time>
      </trkpt>
      <trkpt lat="42.8960910" lon="-8.4122430">
        <ele>364.2</ele>
        <time>2021-03-03T11:36:20Z</time>
      </trkpt>
      <trkpt lat="42.8960610" lon="-8.4122450">
        <ele>364.0</ele>
        <time>2021-03-03T11:36:21Z</time>
      </trkpt>
      <trkpt lat="42.8960310" lon="-8.4122470">
        <ele>364.0</ele>
        <time>2021-03-03T11:36:22Z</time>
      </trkpt>
      <trkpt lat="42.8960100" lon="-8.4122520">
        <ele>363.8</ele>
        <time>2021-03-03T11:36:23Z</time>
      </trkpt>
      <trkpt lat="42.8959840" lon="-8.4122590">
        <ele>363.8</ele>
        <time>2021-03-03T11:36:24Z</time>
      </trkpt>
      <trkpt lat="42.8959570" lon="-8.4122630">
        <ele>363.8</ele>
        <time>2021-03-03T11:36:25Z</time>
      </trkpt>
      <trkpt lat="42.8959250" lon="-8.4122610">
        <ele>363.8</ele>
        <time>2021-03-03T11:36:26Z</time>
      </trkpt>
      <trkpt lat="42.8959010" lon="-8.4122520">
        <ele>363.6</ele>
        <time>2021-03-03T11:36:27Z</time>
      </trkpt>
      <trkpt lat="42.8958870" lon="-8.4122340">
        <ele>363.4</ele>
        <time>2021-03-03T11:36:28Z</time>
      </trkpt>
      <trkpt lat="42.8958730" lon="-8.4122060">
        <ele>363.2</ele>
        <time>2021-03-03T11:36:29Z</time>
      </trkpt>
      <trkpt lat="42.8958590" lon="-8.4121680">
        <ele>363.0</ele>
        <time>2021-03-03T11:36:30Z</time>
      </trkpt>
      <trkpt lat="42.8958500" lon="-8.4121310">
        <ele>363.0</ele>
        <time>2021-03-03T11:36:31Z</time>
      </trkpt>
      <trkpt lat="42.8958530" lon="-8.4121000">
        <ele>362.8</ele>
        <time>2021-03-03T11:36:32Z</time>
      </trkpt>
      <trkpt lat="42.8958520" lon="-8.4120590">
        <ele>362.8</ele>
        <time>2021-03-03T11:36:33Z</time>
      </trkpt>
      <trkpt lat="42.8958490" lon="-8.4120170">
        <ele>362.6</ele>
        <time>2021-03-03T11:36:34Z</time>
      </trkpt>
      <trkpt lat="42.8958450" lon="-8.4119820">
        <ele>362.6</ele>
        <time>2021-03-03T11:36:35Z</time>
      </trkpt>
      <trkpt lat="42.8958360" lon="-8.4119440">
        <ele>362.4</ele>
        <time>2021-03-03T11:36:36Z</time>
      </trkpt>
      <trkpt lat="42.8958280" lon="-8.4119200">
        <ele>362.2</ele>
        <time>2021-03-03T11:36:37Z</time>
      </trkpt>
      <trkpt lat="42.8958170" lon="-8.4118910">
        <ele>362.0</ele>
        <time>2021-03-03T11:36:38Z</time>
      </trkpt>
      <trkpt lat="42.8958040" lon="-8.4118620">
        <ele>361.6</ele>
        <time>2021-03-03T11:36:39Z</time>
      </trkpt>
      <trkpt lat="42.8957820" lon="-8.4118310">
        <ele>361.4</ele>
        <time>2021-03-03T11:36:40Z</time>
      </trkpt>
      <trkpt lat="42.8957630" lon="-8.4118070">
        <ele>361.2</ele>
        <time>2021-03-03T11:36:41Z</time>
      </trkpt>
      <trkpt lat="42.8957390" lon="-8.4117830">
        <ele>361.0</ele>
        <time>2021-03-03T11:36:42Z</time>
      </trkpt>
      <trkpt lat="42.8957110" lon="-8.4117680">
        <ele>360.8</ele>
        <time>2021-03-03T11:36:43Z</time>
      </trkpt>
      <trkpt lat="42.8956840" lon="-8.4117480">
        <ele>360.6</ele>
        <time>2021-03-03T11:36:44Z</time>
      </trkpt>
      <trkpt lat="42.8956620" lon="-8.4117320">
        <ele>360.4</ele>
        <time>2021-03-03T11:36:45Z</time>
      </trkpt>
      <trkpt lat="42.8956390" lon="-8.4117220">
        <ele>360.4</ele>
        <time>2021-03-03T11:36:46Z</time>
      </trkpt>
      <trkpt lat="42.8956200" lon="-8.4117140">
        <ele>360.2</ele>
        <time>2021-03-03T11:36:47Z</time>
      </trkpt>
      <trkpt lat="42.8956000" lon="-8.4117010">
        <ele>360.0</ele>
        <time>2021-03-03T11:36:48Z</time>
      </trkpt>
      <trkpt lat="42.8955790" lon="-8.4116850">
        <ele>360.0</ele>
        <time>2021-03-03T11:36:49Z</time>
      </trkpt>
      <trkpt lat="42.8955610" lon="-8.4116720">
        <ele>360.0</ele>
        <time>2021-03-03T11:36:50Z</time>
      </trkpt>
      <trkpt lat="42.8955400" lon="-8.4116620">
        <ele>359.8</ele>
        <time>2021-03-03T11:36:51Z</time>
      </trkpt>
      <trkpt lat="42.8955200" lon="-8.4116510">
        <ele>359.8</ele>
        <time>2021-03-03T11:36:52Z</time>
      </trkpt>
      <trkpt lat="42.8955020" lon="-8.4116420">
        <ele>359.8</ele>
        <time>2021-03-03T11:36:53Z</time>
      </trkpt>
      <trkpt lat="42.8954870" lon="-8.4116390">
        <ele>359.8</ele>
        <time>2021-03-03T11:36:54Z</time>
      </trkpt>
      <trkpt lat="42.8954710" lon="-8.4116360">
        <ele>359.8</ele>
        <time>2021-03-03T11:36:55Z</time>
      </trkpt>
      <trkpt lat="42.8954550" lon="-8.4116310">
        <ele>359.8</ele>
        <time>2021-03-03T11:36:56Z</time>
      </trkpt>
      <trkpt lat="42.8954390" lon="-8.4116260">
        <ele>359.8</ele>
        <time>2021-03-03T11:36:57Z</time>
      </trkpt>
      <trkpt lat="42.8954200" lon="-8.4116210">
        <ele>359.8</ele>
        <time>2021-03-03T11:36:58Z</time>
      </trkpt>
      <trkpt lat="42.8953990" lon="-8.4116170">
        <ele>359.8</ele>
        <time>2021-03-03T11:36:59Z</time>
      </trkpt>
      <trkpt lat="42.8953790" lon="-8.4116130">
        <ele>359.8</ele>
        <time>2021-03-03T11:37:00Z</time>
      </trkpt>
      <trkpt lat="42.8953560" lon="-8.4116090">
        <ele>359.8</ele>
        <time>2021-03-03T11:37:01Z</time>
      </trkpt>
      <trkpt lat="42.8953400" lon="-8.4116080">
        <ele>359.8</ele>
        <time>2021-03-03T11:37:02Z</time>
      </trkpt>
      <trkpt lat="42.8953140" lon="-8.4116010">
        <ele>359.8</ele>
        <time>2021-03-03T11:37:03Z</time>
      </trkpt>
      <trkpt lat="42.8952910" lon="-8.4115960">
        <ele>360.0</ele>
        <time>2021-03-03T11:37:04Z</time>
      </trkpt>
      <trkpt lat="42.8952510" lon="-8.4115800">
        <ele>360.0</ele>
        <time>2021-03-03T11:37:05Z</time>
      </trkpt>
      <trkpt lat="42.8952260" lon="-8.4115760">
        <ele>360.0</ele>
        <time>2021-03-03T11:37:06Z</time>
      </trkpt>
      <trkpt lat="42.8952110" lon="-8.4115750">
        <ele>360.0</ele>
        <time>2021-03-03T11:37:07Z</time>
      </trkpt>
      <trkpt lat="42.8951870" lon="-8.4115670">
        <ele>360.0</ele>
        <time>2021-03-03T11:37:08Z</time>
      </trkpt>
      <trkpt lat="42.8951600" lon="-8.4115610">
        <ele>360.0</ele>
        <time>2021-03-03T11:37:09Z</time>
      </trkpt>
      <trkpt lat="42.8951450" lon="-8.4115590">
        <ele>360.0</ele>
        <time>2021-03-03T11:37:10Z</time>
      </trkpt>
      <trkpt lat="42.8951270" lon="-8.4115550">
        <ele>360.0</ele>
        <time>2021-03-03T11:37:11Z</time>
      </trkpt>
      <trkpt lat="42.8950930" lon="-8.4115360">
        <ele>360.0</ele>
        <time>2021-03-03T11:37:12Z</time>
      </trkpt>
      <trkpt lat="42.8950640" lon="-8.4115180">
        <ele>360.0</ele>
        <time>2021-03-03T11:37:13Z</time>
      </trkpt>
      <trkpt lat="42.8950350" lon="-8.4115050">
        <ele>359.8</ele>
        <time>2021-03-03T11:37:14Z</time>
      </trkpt>
      <trkpt lat="42.8949930" lon="-8.4114960">
        <ele>359.8</ele>
        <time>2021-03-03T11:37:15Z</time>
      </trkpt>
      <trkpt lat="42.8949560" lon="-8.4114820">
        <ele>359.8</ele>
        <time>2021-03-03T11:37:16Z</time>
      </trkpt>
      <trkpt lat="42.8949240" lon="-8.4114750">
        <ele>359.6</ele>
        <time>2021-03-03T11:37:17Z</time>
      </trkpt>
      <trkpt lat="42.8948970" lon="-8.4114670">
        <ele>359.4</ele>
        <time>2021-03-03T11:37:18Z</time>
      </trkpt>
      <trkpt lat="42.8948660" lon="-8.4114640">
        <ele>359.2</ele>
        <time>2021-03-03T11:37:19Z</time>
      </trkpt>
      <trkpt lat="42.8948350" lon="-8.4114650">
        <ele>359.0</ele>
        <time>2021-03-03T11:37:20Z</time>
      </trkpt>
      <trkpt lat="42.8947990" lon="-8.4114650">
        <ele>359.0</ele>
        <time>2021-03-03T11:37:21Z</time>
      </trkpt>
      <trkpt lat="42.8947720" lon="-8.4114640">
        <ele>358.8</ele>
        <time>2021-03-03T11:37:22Z</time>
      </trkpt>
      <trkpt lat="42.8947430" lon="-8.4114630">
        <ele>358.4</ele>
        <time>2021-03-03T11:37:23Z</time>
      </trkpt>
      <trkpt lat="42.8947150" lon="-8.4114610">
        <ele>358.2</ele>
        <time>2021-03-03T11:37:24Z</time>
      </trkpt>
      <trkpt lat="42.8946820" lon="-8.4114620">
        <ele>357.8</ele>
        <time>2021-03-03T11:37:25Z</time>
      </trkpt>
      <trkpt lat="42.8946530" lon="-8.4114600">
        <ele>357.6</ele>
        <time>2021-03-03T11:37:26Z</time>
      </trkpt>
      <trkpt lat="42.8946260" lon="-8.4114540">
        <ele>357.2</ele>
        <time>2021-03-03T11:37:27Z</time>
      </trkpt>
      <trkpt lat="42.8946000" lon="-8.4114510">
        <ele>357.0</ele>
        <time>2021-03-03T11:37:28Z</time>
      </trkpt>
      <trkpt lat="42.8945780" lon="-8.4114510">
        <ele>357.0</ele>
        <time>2021-03-03T11:37:29Z</time>
      </trkpt>
      <trkpt lat="42.8945580" lon="-8.4114490">
        <ele>356.8</ele>
        <time>2021-03-03T11:37:30Z</time>
      </trkpt>
      <trkpt lat="42.8945310" lon="-8.4114450">
        <ele>356.8</ele>
        <time>2021-03-03T11:37:31Z</time>
      </trkpt>
      <trkpt lat="42.8945000" lon="-8.4114360">
        <ele>356.8</ele>
        <time>2021-03-03T11:37:32Z</time>
      </trkpt>
      <trkpt lat="42.8944740" lon="-8.4114260">
        <ele>357.0</ele>
        <time>2021-03-03T11:37:33Z</time>
      </trkpt>
      <trkpt lat="42.8944320" lon="-8.4114060">
        <ele>357.2</ele>
        <time>2021-03-03T11:37:34Z</time>
      </trkpt>
      <trkpt lat="42.8943930" lon="-8.4114030">
        <ele>357.2</ele>
        <time>2021-03-03T11:37:35Z</time>
      </trkpt>
      <trkpt lat="42.8943700" lon="-8.4114080">
        <ele>357.4</ele>
        <time>2021-03-03T11:37:36Z</time>
      </trkpt>
      <trkpt lat="42.8943460" lon="-8.4114220">
        <ele>357.4</ele>
        <time>2021-03-03T11:37:37Z</time>
      </trkpt>
      <trkpt lat="42.8943350" lon="-8.4114360">
        <ele>357.6</ele>
        <time>2021-03-03T11:37:38Z</time>
      </trkpt>
      <trkpt lat="42.8943180" lon="-8.4114560">
        <ele>357.8</ele>
        <time>2021-03-03T11:37:39Z</time>
      </trkpt>
      <trkpt lat="42.8943000" lon="-8.4114720">
        <ele>358.2</ele>
        <time>2021-03-03T11:37:40Z</time>
      </trkpt>
      <trkpt lat="42.8942820" lon="-8.4114870">
        <ele>358.2</ele>
        <time>2021-03-03T11:37:41Z</time>
      </trkpt>
      <trkpt lat="42.8942610" lon="-8.4115070">
        <ele>358.4</ele>
        <time>2021-03-03T11:37:42Z</time>
      </trkpt>
      <trkpt lat="42.8942440" lon="-8.4115290">
        <ele>358.4</ele>
        <time>2021-03-03T11:37:43Z</time>
      </trkpt>
      <trkpt lat="42.8942240" lon="-8.4115470">
        <ele>358.6</ele>
        <time>2021-03-03T11:37:44Z</time>
      </trkpt>
      <trkpt lat="42.8942090" lon="-8.4115610">
        <ele>359.0</ele>
        <time>2021-03-03T11:37:45Z</time>
      </trkpt>
      <trkpt lat="42.8941930" lon="-8.4115840">
        <ele>359.4</ele>
        <time>2021-03-03T11:37:46Z</time>
      </trkpt>
      <trkpt lat="42.8941820" lon="-8.4116010">
        <ele>359.4</ele>
        <time>2021-03-03T11:37:47Z</time>
      </trkpt>
      <trkpt lat="42.8941700" lon="-8.4116280">
        <ele>359.6</ele>
        <time>2021-03-03T11:37:48Z</time>
      </trkpt>
      <trkpt lat="42.8941580" lon="-8.4116430">
        <ele>360.0</ele>
        <time>2021-03-03T11:37:49Z</time>
      </trkpt>
      <trkpt lat="42.8941470" lon="-8.4116620">
        <ele>360.0</ele>
        <time>2021-03-03T11:37:50Z</time>
      </trkpt>
      <trkpt lat="42.8941320" lon="-8.4116830">
        <ele>360.2</ele>
        <time>2021-03-03T11:37:51Z</time>
      </trkpt>
      <trkpt lat="42.8941150" lon="-8.4116980">
        <ele>360.4</ele>
        <time>2021-03-03T11:37:52Z</time>
      </trkpt>
      <trkpt lat="42.8940990" lon="-8.4117090">
        <ele>360.4</ele>
        <time>2021-03-03T11:37:53Z</time>
      </trkpt>
      <trkpt lat="42.8940800" lon="-8.4117180">
        <ele>360.6</ele>
        <time>2021-03-03T11:37:54Z</time>
      </trkpt>
      <trkpt lat="42.8940610" lon="-8.4117190">
        <ele>360.6</ele>
        <time>2021-03-03T11:37:55Z</time>
      </trkpt>
      <trkpt lat="42.8940370" lon="-8.4117220">
        <ele>360.8</ele>
        <time>2021-03-03T11:37:56Z</time>
      </trkpt>
      <trkpt lat="42.8940110" lon="-8.4117180">
        <ele>361.0</ele>
        <time>2021-03-03T11:37:57Z</time>
      </trkpt>
      <trkpt lat="42.8939930" lon="-8.4117120">
        <ele>361.2</ele>
        <time>2021-03-03T11:37:58Z</time>
      </trkpt>
      <trkpt lat="42.8939700" lon="-8.4117070">
        <ele>361.4</ele>
        <time>2021-03-03T11:37:59Z</time>
      </trkpt>
      <trkpt lat="42.8939470" lon="-8.4117010">
        <ele>361.6</ele>
        <time>2021-03-03T11:38:00Z</time>
      </trkpt>
      <trkpt lat="42.8939240" lon="-8.4116930">
        <ele>361.8</ele>
        <time>2021-03-03T11:38:01Z</time>
      </trkpt>
      <trkpt lat="42.8939010" lon="-8.4116840">
        <ele>361.8</ele>
        <time>2021-03-03T11:38:02Z</time>
      </trkpt>
      <trkpt lat="42.8938770" lon="-8.4116750">
        <ele>361.8</ele>
        <time>2021-03-03T11:38:03Z</time>
      </trkpt>
      <trkpt lat="42.8938520" lon="-8.4116670">
        <ele>361.8</ele>
        <time>2021-03-03T11:38:04Z</time>
      </trkpt>
      <trkpt lat="42.8938240" lon="-8.4116600">
        <ele>362.0</ele>
        <time>2021-03-03T11:38:05Z</time>
      </trkpt>
      <trkpt lat="42.8937950" lon="-8.4116540">
        <ele>361.8</ele>
        <time>2021-03-03T11:38:06Z</time>
      </trkpt>
      <trkpt lat="42.8937750" lon="-8.4116470">
        <ele>362.0</ele>
        <time>2021-03-03T11:38:07Z</time>
      </trkpt>
      <trkpt lat="42.8937520" lon="-8.4116410">
        <ele>362.2</ele>
        <time>2021-03-03T11:38:08Z</time>
      </trkpt>
      <trkpt lat="42.8937260" lon="-8.4116430">
        <ele>362.2</ele>
        <time>2021-03-03T11:38:09Z</time>
      </trkpt>
      <trkpt lat="42.8937080" lon="-8.4116420">
        <ele>362.4</ele>
        <time>2021-03-03T11:38:10Z</time>
      </trkpt>
      <trkpt lat="42.8936850" lon="-8.4116390">
        <ele>362.6</ele>
        <time>2021-03-03T11:38:11Z</time>
      </trkpt>
      <trkpt lat="42.8936630" lon="-8.4116340">
        <ele>362.6</ele>
        <time>2021-03-03T11:38:12Z</time>
      </trkpt>
      <trkpt lat="42.8936420" lon="-8.4116320">
        <ele>362.8</ele>
        <time>2021-03-03T11:38:13Z</time>
      </trkpt>
      <trkpt lat="42.8936190" lon="-8.4116270">
        <ele>362.8</ele>
        <time>2021-03-03T11:38:14Z</time>
      </trkpt>
      <trkpt lat="42.8935890" lon="-8.4116180">
        <ele>362.8</ele>
        <time>2021-03-03T11:38:15Z</time>
      </trkpt>
      <trkpt lat="42.8935620" lon="-8.4116130">
        <ele>362.8</ele>
        <time>2021-03-03T11:38:16Z</time>
      </trkpt>
      <trkpt lat="42.8935400" lon="-8.4116100">
        <ele>363.0</ele>
        <time>2021-03-03T11:38:17Z</time>
      </trkpt>
      <trkpt lat="42.8935130" lon="-8.4116190">
        <ele>363.0</ele>
        <time>2021-03-03T11:38:18Z</time>
      </trkpt>
      <trkpt lat="42.8934960" lon="-8.4116230">
        <ele>363.0</ele>
        <time>2021-03-03T11:38:19Z</time>
      </trkpt>
      <trkpt lat="42.8934650" lon="-8.4116250">
        <ele>363.0</ele>
        <time>2021-03-03T11:38:20Z</time>
      </trkpt>
      <trkpt lat="42.8934300" lon="-8.4116270">
        <ele>363.0</ele>
        <time>2021-03-03T11:38:21Z</time>
      </trkpt>
      <trkpt lat="42.8934030" lon="-8.4116180">
        <ele>363.2</ele>
        <time>2021-03-03T11:38:22Z</time>
      </trkpt>
      <trkpt lat="42.8933780" lon="-8.4116140">
        <ele>363.4</ele>
        <time>2021-03-03T11:38:23Z</time>
      </trkpt>
      <trkpt lat="42.8933540" lon="-8.4116120">
        <ele>363.4</ele>
        <time>2021-03-03T11:38:24Z</time>
      </trkpt>
      <trkpt lat="42.8933290" lon="-8.4116080">
        <ele>363.4</ele>
        <time>2021-03-03T11:38:25Z</time>
      </trkpt>
      <trkpt lat="42.8933040" lon="-8.4116030">
        <ele>363.4</ele>
        <time>2021-03-03T11:38:26Z</time>
      </trkpt>
      <trkpt lat="42.8932720" lon="-8.4115950">
        <ele>363.6</ele>
        <time>2021-03-03T11:38:27Z</time>
      </trkpt>
      <trkpt lat="42.8932510" lon="-8.4115890">
        <ele>363.6</ele>
        <time>2021-03-03T11:38:28Z</time>
      </trkpt>
      <trkpt lat="42.8932250" lon="-8.4115840">
        <ele>363.4</ele>
        <time>2021-03-03T11:38:29Z</time>
      </trkpt>
      <trkpt lat="42.8931970" lon="-8.4115770">
        <ele>363.4</ele>
        <time>2021-03-03T11:38:30Z</time>
      </trkpt>
      <trkpt lat="42.8931710" lon="-8.4115680">
        <ele>363.4</ele>
        <time>2021-03-03T11:38:31Z</time>
      </trkpt>
      <trkpt lat="42.8931460" lon="-8.4115590">
        <ele>363.2</ele>
        <time>2021-03-03T11:38:32Z</time>
      </trkpt>
      <trkpt lat="42.8931190" lon="-8.4115550">
        <ele>363.2</ele>
        <time>2021-03-03T11:38:33Z</time>
      </trkpt>
      <trkpt lat="42.8930840" lon="-8.4115500">
        <ele>363.2</ele>
        <time>2021-03-03T11:38:34Z</time>
      </trkpt>
      <trkpt lat="42.8930590" lon="-8.4115430">
        <ele>363.2</ele>
        <time>2021-03-03T11:38:35Z</time>
      </trkpt>
      <trkpt lat="42.8930240" lon="-8.4115330">
        <ele>363.2</ele>
        <time>2021-03-03T11:38:36Z</time>
      </trkpt>
      <trkpt lat="42.8930000" lon="-8.4115250">
        <ele>363.0</ele>
        <time>2021-03-03T11:38:37Z</time>
      </trkpt>
      <trkpt lat="42.8929720" lon="-8.4115170">
        <ele>363.0</ele>
        <time>2021-03-03T11:38:38Z</time>
      </trkpt>
      <trkpt lat="42.8929400" lon="-8.4115030">
        <ele>363.2</ele>
        <time>2021-03-03T11:38:39Z</time>
      </trkpt>
      <trkpt lat="42.8929110" lon="-8.4114900">
        <ele>363.2</ele>
        <time>2021-03-03T11:38:40Z</time>
      </trkpt>
      <trkpt lat="42.8928840" lon="-8.4114830">
        <ele>363.2</ele>
        <time>2021-03-03T11:38:41Z</time>
      </trkpt>
      <trkpt lat="42.8928510" lon="-8.4114730">
        <ele>363.2</ele>
        <time>2021-03-03T11:38:42Z</time>
      </trkpt>
      <trkpt lat="42.8928280" lon="-8.4114640">
        <ele>363.2</ele>
        <time>2021-03-03T11:38:43Z</time>
      </trkpt>
      <trkpt lat="42.8927920" lon="-8.4114530">
        <ele>363.2</ele>
        <time>2021-03-03T11:38:44Z</time>
      </trkpt>
      <trkpt lat="42.8927620" lon="-8.4114460">
        <ele>363.2</ele>
        <time>2021-03-03T11:38:45Z</time>
      </trkpt>
      <trkpt lat="42.8927330" lon="-8.4114360">
        <ele>363.2</ele>
        <time>2021-03-03T11:38:46Z</time>
      </trkpt>
      <trkpt lat="42.8927070" lon="-8.4114250">
        <ele>363.2</ele>
        <time>2021-03-03T11:38:47Z</time>
      </trkpt>
      <trkpt lat="42.8926800" lon="-8.4114180">
        <ele>363.0</ele>
        <time>2021-03-03T11:38:48Z</time>
      </trkpt>
      <trkpt lat="42.8926540" lon="-8.4114150">
        <ele>363.0</ele>
        <time>2021-03-03T11:38:49Z</time>
      </trkpt>
      <trkpt lat="42.8926290" lon="-8.4114120">
        <ele>363.0</ele>
        <time>2021-03-03T11:38:50Z</time>
      </trkpt>
      <trkpt lat="42.8926070" lon="-8.4114050">
        <ele>363.0</ele>
        <time>2021-03-03T11:38:51Z</time>
      </trkpt>
      <trkpt lat="42.8925870" lon="-8.4113920">
        <ele>363.0</ele>
        <time>2021-03-03T11:38:52Z</time>
      </trkpt>
      <trkpt lat="42.8925760" lon="-8.4113810">
        <ele>363.0</ele>
        <time>2021-03-03T11:38:53Z</time>
      </trkpt>
      <trkpt lat="42.8925600" lon="-8.4113620">
        <ele>363.0</ele>
        <time>2021-03-03T11:38:54Z</time>
      </trkpt>
      <trkpt lat="42.8925510" lon="-8.4113430">
        <ele>363.0</ele>
        <time>2021-03-03T11:38:55Z</time>
      </trkpt>
      <trkpt lat="42.8925410" lon="-8.4113240">
        <ele>363.0</ele>
        <time>2021-03-03T11:38:56Z</time>
      </trkpt>
      <trkpt lat="42.8925330" lon="-8.4113100">
        <ele>363.0</ele>
        <time>2021-03-03T11:38:57Z</time>
      </trkpt>
      <trkpt lat="42.8925290" lon="-8.4113000">
        <ele>362.8</ele>
        <time>2021-03-03T11:38:58Z</time>
      </trkpt>
      <trkpt lat="42.8925220" lon="-8.4112880">
        <ele>362.8</ele>
        <time>2021-03-03T11:38:59Z</time>
      </trkpt>
      <trkpt lat="42.8925140" lon="-8.4112770">
        <ele>362.6</ele>
        <time>2021-03-03T11:39:00Z</time>
      </trkpt>
      <trkpt lat="42.8925090" lon="-8.4112650">
        <ele>362.6</ele>
        <time>2021-03-03T11:39:01Z</time>
      </trkpt>
      <trkpt lat="42.8925030" lon="-8.4112520">
        <ele>362.4</ele>
        <time>2021-03-03T11:39:02Z</time>
      </trkpt>
      <trkpt lat="42.8924950" lon="-8.4112380">
        <ele>362.2</ele>
        <time>2021-03-03T11:39:03Z</time>
      </trkpt>
      <trkpt lat="42.8924870" lon="-8.4112240">
        <ele>362.2</ele>
        <time>2021-03-03T11:39:04Z</time>
      </trkpt>
      <trkpt lat="42.8924820" lon="-8.4112060">
        <ele>362.0</ele>
        <time>2021-03-03T11:39:05Z</time>
      </trkpt>
      <trkpt lat="42.8924740" lon="-8.4111830">
        <ele>362.0</ele>
        <time>2021-03-03T11:39:06Z</time>
      </trkpt>
      <trkpt lat="42.8924680" lon="-8.4111620">
        <ele>361.8</ele>
        <time>2021-03-03T11:39:07Z</time>
      </trkpt>
      <trkpt lat="42.8924630" lon="-8.4111500">
        <ele>361.8</ele>
        <time>2021-03-03T11:39:08Z</time>
      </trkpt>
      <trkpt lat="42.8924570" lon="-8.4111370">
        <ele>361.8</ele>
        <time>2021-03-03T11:39:09Z</time>
      </trkpt>
      <trkpt lat="42.8924530" lon="-8.4111250">
        <ele>361.8</ele>
        <time>2021-03-03T11:39:10Z</time>
      </trkpt>
      <trkpt lat="42.8924480" lon="-8.4111110">
        <ele>361.6</ele>
        <time>2021-03-03T11:39:11Z</time>
      </trkpt>
      <trkpt lat="42.8924490" lon="-8.4110920">
        <ele>361.6</ele>
        <time>2021-03-03T11:39:12Z</time>
      </trkpt>
      <trkpt lat="42.8924460" lon="-8.4110680">
        <ele>361.4</ele>
        <time>2021-03-03T11:39:13Z</time>
      </trkpt>
      <trkpt lat="42.8924340" lon="-8.4110470">
        <ele>361.4</ele>
        <time>2021-03-03T11:39:14Z</time>
      </trkpt>
      <trkpt lat="42.8924290" lon="-8.4110350">
        <ele>361.4</ele>
        <time>2021-03-03T11:39:15Z</time>
      </trkpt>
      <trkpt lat="42.8924160" lon="-8.4110040">
        <ele>361.2</ele>
        <time>2021-03-03T11:39:16Z</time>
      </trkpt>
      <trkpt lat="42.8924050" lon="-8.4109780">
        <ele>361.2</ele>
        <time>2021-03-03T11:39:17Z</time>
      </trkpt>
      <trkpt lat="42.8924000" lon="-8.4109580">
        <ele>361.0</ele>
        <time>2021-03-03T11:39:18Z</time>
      </trkpt>
      <trkpt lat="42.8924000" lon="-8.4109490">
        <ele>361.0</ele>
        <time>2021-03-03T11:39:19Z</time>
      </trkpt>
      <trkpt lat="42.8923970" lon="-8.4109400">
        <ele>360.8</ele>
        <time>2021-03-03T11:39:20Z</time>
      </trkpt>
      <trkpt lat="42.8923890" lon="-8.4109270">
        <ele>360.8</ele>
        <time>2021-03-03T11:39:21Z</time>
      </trkpt>
      <trkpt lat="42.8923840" lon="-8.4109100">
        <ele>360.6</ele>
        <time>2021-03-03T11:39:22Z</time>
      </trkpt>
      <trkpt lat="42.8923810" lon="-8.4108990">
        <ele>360.6</ele>
        <time>2021-03-03T11:39:23Z</time>
      </trkpt>
      <trkpt lat="42.8923790" lon="-8.4108800">
        <ele>360.6</ele>
        <time>2021-03-03T11:39:24Z</time>
      </trkpt>
      <trkpt lat="42.8923760" lon="-8.4108700">
        <ele>360.6</ele>
        <time>2021-03-03T11:39:25Z</time>
      </trkpt>
      <trkpt lat="42.8923750" lon="-8.4108570">
        <ele>360.6</ele>
        <time>2021-03-03T11:39:26Z</time>
      </trkpt>
      <trkpt lat="42.8923740" lon="-8.4108390">
        <ele>360.6</ele>
        <time>2021-03-03T11:39:27Z</time>
      </trkpt>
      <trkpt lat="42.8923740" lon="-8.4108260">
        <ele>360.4</ele>
        <time>2021-03-03T11:39:28Z</time>
      </trkpt>
      <trkpt lat="42.8923730" lon="-8.4108120">
        <ele>360.4</ele>
        <time>2021-03-03T11:39:29Z</time>
      </trkpt>
      <trkpt lat="42.8923740" lon="-8.4108000">
        <ele>360.4</ele>
        <time>2021-03-03T11:39:30Z</time>
      </trkpt>
      <trkpt lat="42.8923760" lon="-8.4107890">
        <ele>360.4</ele>
        <time>2021-03-03T11:39:31Z</time>
      </trkpt>
      <trkpt lat="42.8923760" lon="-8.4107770">
        <ele>360.4</ele>
        <time>2021-03-03T11:39:32Z</time>
      </trkpt>
      <trkpt lat="42.8923750" lon="-8.4107670">
        <ele>360.2</ele>
        <time>2021-03-03T11:39:33Z</time>
      </trkpt>
      <trkpt lat="42.8923730" lon="-8.4107580">
        <ele>360.2</ele>
        <time>2021-03-03T11:39:34Z</time>
      </trkpt>
      <trkpt lat="42.8923710" lon="-8.4107540">
        <ele>360.0</ele>
        <time>2021-03-03T11:39:35Z</time>
      </trkpt>
      <trkpt lat="42.8923670" lon="-8.4107530">
        <ele>360.0</ele>
        <time>2021-03-03T11:39:36Z</time>
      </trkpt>
      <trkpt lat="42.8923680" lon="-8.4107520">
        <ele>359.8</ele>
        <time>2021-03-03T11:39:37Z</time>
      </trkpt>
      <trkpt lat="42.8923720" lon="-8.4107570">
        <ele>359.8</ele>
        <time>2021-03-03T11:39:38Z</time>
      </trkpt>
      <trkpt lat="42.8923770" lon="-8.4107590">
        <ele>359.8</ele>
        <time>2021-03-03T11:39:39Z</time>
      </trkpt>
      <trkpt lat="42.8923780" lon="-8.4107600">
        <ele>359.8</ele>
        <time>2021-03-03T11:39:40Z</time>
      </trkpt>
      <trkpt lat="42.8923780" lon="-8.4107600">
        <ele>359.6</ele>
        <time>2021-03-03T11:39:41Z</time>
      </trkpt>
      <trkpt lat="42.8923760" lon="-8.4107600">
        <ele>359.6</ele>
        <time>2021-03-03T11:39:42Z</time>
      </trkpt>
      <trkpt lat="42.8923770" lon="-8.4107620">
        <ele>359.6</ele>
        <time>2021-03-03T11:39:43Z</time>
      </trkpt>
      <trkpt lat="42.8923770" lon="-8.4107610">
        <ele>359.6</ele>
        <time>2021-03-03T11:39:44Z</time>
      </trkpt>
      <trkpt lat="42.8923770" lon="-8.4107610">
        <ele>359.6</ele>
        <time>2021-03-03T11:39:45Z</time>
      </trkpt>
      <trkpt lat="42.8923770" lon="-8.4107610">
        <ele>359.6</ele>
        <time>2021-03-03T11:39:46Z</time>
      </trkpt>
      <trkpt lat="42.8923770" lon="-8.4107610">
        <ele>359.6</ele>
        <time>2021-03-03T11:39:47Z</time>
      </trkpt>
      <trkpt lat="42.8923770" lon="-8.4107610">
        <ele>359.6</ele>
        <time>2021-03-03T11:39:48Z</time>
      </trkpt>
      <trkpt lat="42.8923770" lon="-8.4107610">
        <ele>359.6</ele>
        <time>2021-03-03T11:39:49Z</time>
      </trkpt>
      <trkpt lat="42.8923770" lon="-8.4107610">
        <ele>359.6</ele>
        <time>2021-03-03T11:39:50Z</time>
      </trkpt>
      <trkpt lat="42.8923770" lon="-8.4107610">
        <ele>359.6</ele>
        <time>2021-03-03T11:39:51Z</time>
      </trkpt>
      <trkpt lat="42.8923770" lon="-8.4107610">
        <ele>359.6</ele>
        <time>2021-03-03T11:39:52Z</time>
      </trkpt>
      <trkpt lat="42.8923770" lon="-8.4107600">
        <ele>359.6</ele>
        <time>2021-03-03T11:39:53Z</time>
      </trkpt>
      <trkpt lat="42.8923770" lon="-8.4107600">
        <ele>359.6</ele>
        <time>2021-03-03T11:39:54Z</time>
      </trkpt>
      <trkpt lat="42.8923770" lon="-8.4107600">
        <ele>359.6</ele>
        <time>2021-03-03T11:39:55Z</time>
      </trkpt>
      <trkpt lat="42.8923760" lon="-8.4107590">
        <ele>359.4</ele>
        <time>2021-03-03T11:39:56Z</time>
      </trkpt>
      <trkpt lat="42.8923760" lon="-8.4107590">
        <ele>359.4</ele>
        <time>2021-03-03T11:39:57Z</time>
      </trkpt>
      <trkpt lat="42.8923730" lon="-8.4107570">
        <ele>359.4</ele>
        <time>2021-03-03T11:39:58Z</time>
      </trkpt>
      <trkpt lat="42.8923720" lon="-8.4107560">
        <ele>359.4</ele>
        <time>2021-03-03T11:39:59Z</time>
      </trkpt>
      <trkpt lat="42.8923680" lon="-8.4107530">
        <ele>359.4</ele>
        <time>2021-03-03T11:40:00Z</time>
      </trkpt>
      <trkpt lat="42.8923670" lon="-8.4107520">
        <ele>359.4</ele>
        <time>2021-03-03T11:40:01Z</time>
      </trkpt>
      <trkpt lat="42.8923660" lon="-8.4107450">
        <ele>359.6</ele>
        <time>2021-03-03T11:40:02Z</time>
      </trkpt>
      <trkpt lat="42.8923650" lon="-8.4107360">
        <ele>359.6</ele>
        <time>2021-03-03T11:40:03Z</time>
      </trkpt>
      <trkpt lat="42.8923650" lon="-8.4107300">
        <ele>359.6</ele>
        <time>2021-03-03T11:40:04Z</time>
      </trkpt>
      <trkpt lat="42.8923650" lon="-8.4107280">
        <ele>359.6</ele>
        <time>2021-03-03T11:40:05Z</time>
      </trkpt>
      <trkpt lat="42.8923640" lon="-8.4107260">
        <ele>359.6</ele>
        <time>2021-03-03T11:40:06Z</time>
      </trkpt>
      <trkpt lat="42.8923640" lon="-8.4107230">
        <ele>359.4</ele>
        <time>2021-03-03T11:40:07Z</time>
      </trkpt>
      <trkpt lat="42.8923640" lon="-8.4107200">
        <ele>359.4</ele>
        <time>2021-03-03T11:40:08Z</time>
      </trkpt>
      <trkpt lat="42.8923640" lon="-8.4107170">
        <ele>359.4</ele>
        <time>2021-03-03T11:40:09Z</time>
      </trkpt>
      <trkpt lat="42.8923630" lon="-8.4107170">
        <ele>359.4</ele>
        <time>2021-03-03T11:40:10Z</time>
      </trkpt>
      <trkpt lat="42.8923630" lon="-8.4107150">
        <ele>359.4</ele>
        <time>2021-03-03T11:40:11Z</time>
      </trkpt>
      <trkpt lat="42.8923610" lon="-8.4107090">
        <ele>359.4</ele>
        <time>2021-03-03T11:40:12Z</time>
      </trkpt>
      <trkpt lat="42.8923550" lon="-8.4106870">
        <ele>359.2</ele>
        <time>2021-03-03T11:40:13Z</time>
      </trkpt>
      <trkpt lat="42.8923470" lon="-8.4106660">
        <ele>359.2</ele>
        <time>2021-03-03T11:40:14Z</time>
      </trkpt>
      <trkpt lat="42.8923400" lon="-8.4106470">
        <ele>359.2</ele>
        <time>2021-03-03T11:40:15Z</time>
      </trkpt>
      <trkpt lat="42.8923320" lon="-8.4106290">
        <ele>359.2</ele>
        <time>2021-03-03T11:40:16Z</time>
      </trkpt>
      <trkpt lat="42.8923230" lon="-8.4106110">
        <ele>359.0</ele>
        <time>2021-03-03T11:40:17Z</time>
      </trkpt>
      <trkpt lat="42.8923130" lon="-8.4105920">
        <ele>359.0</ele>
        <time>2021-03-03T11:40:18Z</time>
      </trkpt>
      <trkpt lat="42.8923000" lon="-8.4105690">
        <ele>358.8</ele>
        <time>2021-03-03T11:40:19Z</time>
      </trkpt>
      <trkpt lat="42.8922900" lon="-8.4105460">
        <ele>358.8</ele>
        <time>2021-03-03T11:40:20Z</time>
      </trkpt>
      <trkpt lat="42.8922820" lon="-8.4105230">
        <ele>358.8</ele>
        <time>2021-03-03T11:40:21Z</time>
      </trkpt>
      <trkpt lat="42.8922760" lon="-8.4105090">
        <ele>358.6</ele>
        <time>2021-03-03T11:40:22Z</time>
      </trkpt>
      <trkpt lat="42.8922710" lon="-8.4104960">
        <ele>358.6</ele>
        <time>2021-03-03T11:40:23Z</time>
      </trkpt>
      <trkpt lat="42.8922680" lon="-8.4104840">
        <ele>358.6</ele>
        <time>2021-03-03T11:40:24Z</time>
      </trkpt>
      <trkpt lat="42.8922610" lon="-8.4104700">
        <ele>358.4</ele>
        <time>2021-03-03T11:40:25Z</time>
      </trkpt>
      <trkpt lat="42.8922520" lon="-8.4104560">
        <ele>358.4</ele>
        <time>2021-03-03T11:40:26Z</time>
      </trkpt>
      <trkpt lat="42.8922460" lon="-8.4104440">
        <ele>358.4</ele>
        <time>2021-03-03T11:40:27Z</time>
      </trkpt>
      <trkpt lat="42.8922400" lon="-8.4104270">
        <ele>358.2</ele>
        <time>2021-03-03T11:40:28Z</time>
      </trkpt>
      <trkpt lat="42.8922350" lon="-8.4104110">
        <ele>358.0</ele>
        <time>2021-03-03T11:40:29Z</time>
      </trkpt>
      <trkpt lat="42.8922270" lon="-8.4103940">
        <ele>358.0</ele>
        <time>2021-03-03T11:40:30Z</time>
      </trkpt>
      <trkpt lat="42.8922190" lon="-8.4103780">
        <ele>358.0</ele>
        <time>2021-03-03T11:40:31Z</time>
      </trkpt>
      <trkpt lat="42.8922090" lon="-8.4103600">
        <ele>357.8</ele>
        <time>2021-03-03T11:40:32Z</time>
      </trkpt>
      <trkpt lat="42.8922020" lon="-8.4103460">
        <ele>357.8</ele>
        <time>2021-03-03T11:40:33Z</time>
      </trkpt>
      <trkpt lat="42.8921930" lon="-8.4103310">
        <ele>357.6</ele>
        <time>2021-03-03T11:40:34Z</time>
      </trkpt>
      <trkpt lat="42.8921830" lon="-8.4103160">
        <ele>357.6</ele>
        <time>2021-03-03T11:40:35Z</time>
      </trkpt>
      <trkpt lat="42.8921720" lon="-8.4103010">
        <ele>357.4</ele>
        <time>2021-03-03T11:40:36Z</time>
      </trkpt>
      <trkpt lat="42.8921650" lon="-8.4102880">
        <ele>357.4</ele>
        <time>2021-03-03T11:40:37Z</time>
      </trkpt>
      <trkpt lat="42.8921610" lon="-8.4102760">
        <ele>357.4</ele>
        <time>2021-03-03T11:40:38Z</time>
      </trkpt>
      <trkpt lat="42.8921560" lon="-8.4102630">
        <ele>357.4</ele>
        <time>2021-03-03T11:40:39Z</time>
      </trkpt>
      <trkpt lat="42.8921510" lon="-8.4102500">
        <ele>357.2</ele>
        <time>2021-03-03T11:40:40Z</time>
      </trkpt>
      <trkpt lat="42.8921460" lon="-8.4102370">
        <ele>357.2</ele>
        <time>2021-03-03T11:40:41Z</time>
      </trkpt>
      <trkpt lat="42.8921380" lon="-8.4102230">
        <ele>357.2</ele>
        <time>2021-03-03T11:40:42Z</time>
      </trkpt>
      <trkpt lat="42.8921300" lon="-8.4102080">
        <ele>357.0</ele>
        <time>2021-03-03T11:40:43Z</time>
      </trkpt>
      <trkpt lat="42.8921240" lon="-8.4101950">
        <ele>357.0</ele>
        <time>2021-03-03T11:40:44Z</time>
      </trkpt>
      <trkpt lat="42.8921160" lon="-8.4101800">
        <ele>356.8</ele>
        <time>2021-03-03T11:40:45Z</time>
      </trkpt>
      <trkpt lat="42.8921090" lon="-8.4101640">
        <ele>356.8</ele>
        <time>2021-03-03T11:40:46Z</time>
      </trkpt>
      <trkpt lat="42.8921050" lon="-8.4101520">
        <ele>356.6</ele>
        <time>2021-03-03T11:40:47Z</time>
      </trkpt>
      <trkpt lat="42.8921010" lon="-8.4101330">
        <ele>356.6</ele>
        <time>2021-03-03T11:40:48Z</time>
      </trkpt>
      <trkpt lat="42.8920950" lon="-8.4101180">
        <ele>356.6</ele>
        <time>2021-03-03T11:40:49Z</time>
      </trkpt>
      <trkpt lat="42.8920870" lon="-8.4101040">
        <ele>356.4</ele>
        <time>2021-03-03T11:40:50Z</time>
      </trkpt>
      <trkpt lat="42.8920800" lon="-8.4100940">
        <ele>356.4</ele>
        <time>2021-03-03T11:40:51Z</time>
      </trkpt>
      <trkpt lat="42.8920730" lon="-8.4100780">
        <ele>356.2</ele>
        <time>2021-03-03T11:40:52Z</time>
      </trkpt>
      <trkpt lat="42.8920680" lon="-8.4100650">
        <ele>356.0</ele>
        <time>2021-03-03T11:40:53Z</time>
      </trkpt>
      <trkpt lat="42.8920610" lon="-8.4100490">
        <ele>355.8</ele>
        <time>2021-03-03T11:40:54Z</time>
      </trkpt>
      <trkpt lat="42.8920560" lon="-8.4100370">
        <ele>355.8</ele>
        <time>2021-03-03T11:40:55Z</time>
      </trkpt>
      <trkpt lat="42.8920500" lon="-8.4100200">
        <ele>355.6</ele>
        <time>2021-03-03T11:40:56Z</time>
      </trkpt>
      <trkpt lat="42.8920420" lon="-8.4100060">
        <ele>355.6</ele>
        <time>2021-03-03T11:40:57Z</time>
      </trkpt>
      <trkpt lat="42.8920370" lon="-8.4099900">
        <ele>355.6</ele>
        <time>2021-03-03T11:40:58Z</time>
      </trkpt>
      <trkpt lat="42.8920310" lon="-8.4099750">
        <ele>355.4</ele>
        <time>2021-03-03T11:40:59Z</time>
      </trkpt>
      <trkpt lat="42.8920260" lon="-8.4099650">
        <ele>355.4</ele>
        <time>2021-03-03T11:41:00Z</time>
      </trkpt>
      <trkpt lat="42.8920170" lon="-8.4099490">
        <ele>355.4</ele>
        <time>2021-03-03T11:41:01Z</time>
      </trkpt>
      <trkpt lat="42.8920100" lon="-8.4099370">
        <ele>355.2</ele>
        <time>2021-03-03T11:41:02Z</time>
      </trkpt>
      <trkpt lat="42.8920020" lon="-8.4099240">
        <ele>355.2</ele>
        <time>2021-03-03T11:41:03Z</time>
      </trkpt>
      <trkpt lat="42.8919950" lon="-8.4099110">
        <ele>355.2</ele>
        <time>2021-03-03T11:41:04Z</time>
      </trkpt>
      <trkpt lat="42.8919870" lon="-8.4098940">
        <ele>355.0</ele>
        <time>2021-03-03T11:41:05Z</time>
      </trkpt>
      <trkpt lat="42.8919810" lon="-8.4098770">
        <ele>355.0</ele>
        <time>2021-03-03T11:41:06Z</time>
      </trkpt>
      <trkpt lat="42.8919770" lon="-8.4098590">
        <ele>354.8</ele>
        <time>2021-03-03T11:41:07Z</time>
      </trkpt>
      <trkpt lat="42.8919710" lon="-8.4098420">
        <ele>354.8</ele>
        <time>2021-03-03T11:41:08Z</time>
      </trkpt>
      <trkpt lat="42.8919630" lon="-8.4098280">
        <ele>354.6</ele>
        <time>2021-03-03T11:41:09Z</time>
      </trkpt>
      <trkpt lat="42.8919530" lon="-8.4098140">
        <ele>354.6</ele>
        <time>2021-03-03T11:41:10Z</time>
      </trkpt>
      <trkpt lat="42.8919460" lon="-8.4098010">
        <ele>354.6</ele>
        <time>2021-03-03T11:41:11Z</time>
      </trkpt>
      <trkpt lat="42.8919370" lon="-8.4097890">
        <ele>354.6</ele>
        <time>2021-03-03T11:41:12Z</time>
      </trkpt>
      <trkpt lat="42.8919320" lon="-8.4097760">
        <ele>354.4</ele>
        <time>2021-03-03T11:41:13Z</time>
      </trkpt>
      <trkpt lat="42.8919280" lon="-8.4097600">
        <ele>354.2</ele>
        <time>2021-03-03T11:41:14Z</time>
      </trkpt>
      <trkpt lat="42.8919230" lon="-8.4097450">
        <ele>354.0</ele>
        <time>2021-03-03T11:41:15Z</time>
      </trkpt>
      <trkpt lat="42.8919120" lon="-8.4097290">
        <ele>353.8</ele>
        <time>2021-03-03T11:41:16Z</time>
      </trkpt>
      <trkpt lat="42.8919040" lon="-8.4097130">
        <ele>353.8</ele>
        <time>2021-03-03T11:41:17Z</time>
      </trkpt>
      <trkpt lat="42.8918950" lon="-8.4096980">
        <ele>353.6</ele>
        <time>2021-03-03T11:41:18Z</time>
      </trkpt>
      <trkpt lat="42.8918880" lon="-8.4096840">
        <ele>353.6</ele>
        <time>2021-03-03T11:41:19Z</time>
      </trkpt>
      <trkpt lat="42.8918810" lon="-8.4096700">
        <ele>353.6</ele>
        <time>2021-03-03T11:41:20Z</time>
      </trkpt>
      <trkpt lat="42.8918750" lon="-8.4096600">
        <ele>353.6</ele>
        <time>2021-03-03T11:41:21Z</time>
      </trkpt>
      <trkpt lat="42.8918710" lon="-8.4096490">
        <ele>353.4</ele>
        <time>2021-03-03T11:41:22Z</time>
      </trkpt>
      <trkpt lat="42.8918650" lon="-8.4096370">
        <ele>353.4</ele>
        <time>2021-03-03T11:41:23Z</time>
      </trkpt>
      <trkpt lat="42.8918590" lon="-8.4096250">
        <ele>353.4</ele>
        <time>2021-03-03T11:41:24Z</time>
      </trkpt>
      <trkpt lat="42.8918500" lon="-8.4096090">
        <ele>353.2</ele>
        <time>2021-03-03T11:41:25Z</time>
      </trkpt>
      <trkpt lat="42.8918440" lon="-8.4095950">
        <ele>353.2</ele>
        <time>2021-03-03T11:41:26Z</time>
      </trkpt>
      <trkpt lat="42.8918350" lon="-8.4095780">
        <ele>353.0</ele>
        <time>2021-03-03T11:41:27Z</time>
      </trkpt>
      <trkpt lat="42.8918240" lon="-8.4095620">
        <ele>353.0</ele>
        <time>2021-03-03T11:41:28Z</time>
      </trkpt>
      <trkpt lat="42.8918150" lon="-8.4095460">
        <ele>353.0</ele>
        <time>2021-03-03T11:41:29Z</time>
      </trkpt>
      <trkpt lat="42.8918070" lon="-8.4095300">
        <ele>352.8</ele>
        <time>2021-03-03T11:41:30Z</time>
      </trkpt>
      <trkpt lat="42.8917990" lon="-8.4095150">
        <ele>352.8</ele>
        <time>2021-03-03T11:41:31Z</time>
      </trkpt>
      <trkpt lat="42.8917900" lon="-8.4095020">
        <ele>352.8</ele>
        <time>2021-03-03T11:41:32Z</time>
      </trkpt>
      <trkpt lat="42.8917830" lon="-8.4094910">
        <ele>352.6</ele>
        <time>2021-03-03T11:41:33Z</time>
      </trkpt>
      <trkpt lat="42.8917760" lon="-8.4094800">
        <ele>352.6</ele>
        <time>2021-03-03T11:41:34Z</time>
      </trkpt>
      <trkpt lat="42.8917680" lon="-8.4094660">
        <ele>352.6</ele>
        <time>2021-03-03T11:41:35Z</time>
      </trkpt>
      <trkpt lat="42.8917630" lon="-8.4094550">
        <ele>352.4</ele>
        <time>2021-03-03T11:41:36Z</time>
      </trkpt>
      <trkpt lat="42.8917560" lon="-8.4094410">
        <ele>352.4</ele>
        <time>2021-03-03T11:41:37Z</time>
      </trkpt>
      <trkpt lat="42.8917490" lon="-8.4094250">
        <ele>352.2</ele>
        <time>2021-03-03T11:41:38Z</time>
      </trkpt>
      <trkpt lat="42.8917420" lon="-8.4094070">
        <ele>352.2</ele>
        <time>2021-03-03T11:41:39Z</time>
      </trkpt>
      <trkpt lat="42.8917340" lon="-8.4093880">
        <ele>352.0</ele>
        <time>2021-03-03T11:41:40Z</time>
      </trkpt>
      <trkpt lat="42.8917270" lon="-8.4093710">
        <ele>351.8</ele>
        <time>2021-03-03T11:41:41Z</time>
      </trkpt>
      <trkpt lat="42.8917200" lon="-8.4093520">
        <ele>351.8</ele>
        <time>2021-03-03T11:41:42Z</time>
      </trkpt>
      <trkpt lat="42.8917130" lon="-8.4093340">
        <ele>351.8</ele>
        <time>2021-03-03T11:41:43Z</time>
      </trkpt>
      <trkpt lat="42.8917000" lon="-8.4093100">
        <ele>351.6</ele>
        <time>2021-03-03T11:41:44Z</time>
      </trkpt>
      <trkpt lat="42.8916920" lon="-8.4092950">
        <ele>351.6</ele>
        <time>2021-03-03T11:41:45Z</time>
      </trkpt>
      <trkpt lat="42.8916840" lon="-8.4092790">
        <ele>351.4</ele>
        <time>2021-03-03T11:41:46Z</time>
      </trkpt>
      <trkpt lat="42.8916750" lon="-8.4092630">
        <ele>351.2</ele>
        <time>2021-03-03T11:41:47Z</time>
      </trkpt>
      <trkpt lat="42.8916670" lon="-8.4092480">
        <ele>351.2</ele>
        <time>2021-03-03T11:41:48Z</time>
      </trkpt>
      <trkpt lat="42.8916570" lon="-8.4092340">
        <ele>351.0</ele>
        <time>2021-03-03T11:41:49Z</time>
      </trkpt>
      <trkpt lat="42.8916490" lon="-8.4092210">
        <ele>351.0</ele>
        <time>2021-03-03T11:41:50Z</time>
      </trkpt>
      <trkpt lat="42.8916450" lon="-8.4092080">
        <ele>351.0</ele>
        <time>2021-03-03T11:41:51Z</time>
      </trkpt>
      <trkpt lat="42.8916430" lon="-8.4092010">
        <ele>351.0</ele>
        <time>2021-03-03T11:41:52Z</time>
      </trkpt>
      <trkpt lat="42.8916410" lon="-8.4091980">
        <ele>351.0</ele>
        <time>2021-03-03T11:41:53Z</time>
      </trkpt>
      <trkpt lat="42.8916410" lon="-8.4091990">
        <ele>351.0</ele>
        <time>2021-03-03T11:41:54Z</time>
      </trkpt>
      <trkpt lat="42.8916430" lon="-8.4092010">
        <ele>351.0</ele>
        <time>2021-03-03T11:41:55Z</time>
      </trkpt>
      <trkpt lat="42.8916450" lon="-8.4092040">
        <ele>351.0</ele>
        <time>2021-03-03T11:41:56Z</time>
      </trkpt>
      <trkpt lat="42.8916470" lon="-8.4092060">
        <ele>351.0</ele>
        <time>2021-03-03T11:41:57Z</time>
      </trkpt>
      <trkpt lat="42.8916490" lon="-8.4092090">
        <ele>351.0</ele>
        <time>2021-03-03T11:41:58Z</time>
      </trkpt>
      <trkpt lat="42.8916490" lon="-8.4092110">
        <ele>351.0</ele>
        <time>2021-03-03T11:41:59Z</time>
      </trkpt>
      <trkpt lat="42.8916480" lon="-8.4092120">
        <ele>351.0</ele>
        <time>2021-03-03T11:42:00Z</time>
      </trkpt>
      <trkpt lat="42.8916480" lon="-8.4092120">
        <ele>351.0</ele>
        <time>2021-03-03T11:42:01Z</time>
      </trkpt>
      <trkpt lat="42.8916490" lon="-8.4092130">
        <ele>350.8</ele>
        <time>2021-03-03T11:42:02Z</time>
      </trkpt>
      <trkpt lat="42.8916490" lon="-8.4092130">
        <ele>350.8</ele>
        <time>2021-03-03T11:42:03Z</time>
      </trkpt>
      <trkpt lat="42.8916490" lon="-8.4092130">
        <ele>351.0</ele>
        <time>2021-03-03T11:42:04Z</time>
      </trkpt>
      <trkpt lat="42.8916490" lon="-8.4092130">
        <ele>350.8</ele>
        <time>2021-03-03T11:42:05Z</time>
      </trkpt>
      <trkpt lat="42.8916490" lon="-8.4092130">
        <ele>351.0</ele>
        <time>2021-03-03T11:42:06Z</time>
      </trkpt>
      <trkpt lat="42.8916490" lon="-8.4092130">
        <ele>351.0</ele>
        <time>2021-03-03T11:42:07Z</time>
      </trkpt>
      <trkpt lat="42.8916490" lon="-8.4092130">
        <ele>351.0</ele>
        <time>2021-03-03T11:42:08Z</time>
      </trkpt>
      <trkpt lat="42.8916490" lon="-8.4092130">
        <ele>351.0</ele>
        <time>2021-03-03T11:42:09Z</time>
      </trkpt>
      <trkpt lat="42.8916490" lon="-8.4092130">
        <ele>351.0</ele>
        <time>2021-03-03T11:42:10Z</time>
      </trkpt>
      <trkpt lat="42.8916490" lon="-8.4092130">
        <ele>351.0</ele>
        <time>2021-03-03T11:42:11Z</time>
      </trkpt>
      <trkpt lat="42.8916490" lon="-8.4092130">
        <ele>351.0</ele>
        <time>2021-03-03T11:42:12Z</time>
      </trkpt>
      <trkpt lat="42.8916490" lon="-8.4092130">
        <ele>351.2</ele>
        <time>2021-03-03T11:42:13Z</time>
      </trkpt>
      <trkpt lat="42.8916490" lon="-8.4092130">
        <ele>351.2</ele>
        <time>2021-03-03T11:42:14Z</time>
      </trkpt>
      <trkpt lat="42.8916480" lon="-8.4092130">
        <ele>351.2</ele>
        <time>2021-03-03T11:42:15Z</time>
      </trkpt>
      <trkpt lat="42.8916480" lon="-8.4092130">
        <ele>351.0</ele>
        <time>2021-03-03T11:42:16Z</time>
      </trkpt>
      <trkpt lat="42.8916480" lon="-8.4092130">
        <ele>351.0</ele>
        <time>2021-03-03T11:42:17Z</time>
      </trkpt>
      <trkpt lat="42.8916470" lon="-8.4092130">
        <ele>351.0</ele>
        <time>2021-03-03T11:42:18Z</time>
      </trkpt>
      <trkpt lat="42.8916470" lon="-8.4092130">
        <ele>351.0</ele>
        <time>2021-03-03T11:42:19Z</time>
      </trkpt>
      <trkpt lat="42.8916450" lon="-8.4092130">
        <ele>351.0</ele>
        <time>2021-03-03T11:42:20Z</time>
      </trkpt>
      <trkpt lat="42.8916450" lon="-8.4092140">
        <ele>351.0</ele>
        <time>2021-03-03T11:42:21Z</time>
      </trkpt>
      <trkpt lat="42.8916450" lon="-8.4092140">
        <ele>351.0</ele>
        <time>2021-03-03T11:42:22Z</time>
      </trkpt>
      <trkpt lat="42.8916450" lon="-8.4092140">
        <ele>350.8</ele>
        <time>2021-03-03T11:42:23Z</time>
      </trkpt>
      <trkpt lat="42.8916450" lon="-8.4092150">
        <ele>350.8</ele>
        <time>2021-03-03T11:42:24Z</time>
      </trkpt>
      <trkpt lat="42.8916450" lon="-8.4092150">
        <ele>350.8</ele>
        <time>2021-03-03T11:42:25Z</time>
      </trkpt>
      <trkpt lat="42.8916450" lon="-8.4092150">
        <ele>350.8</ele>
        <time>2021-03-03T11:42:26Z</time>
      </trkpt>
      <trkpt lat="42.8916440" lon="-8.4092150">
        <ele>350.8</ele>
        <time>2021-03-03T11:42:27Z</time>
      </trkpt>
      <trkpt lat="42.8916440" lon="-8.4092150">
        <ele>350.8</ele>
        <time>2021-03-03T11:42:28Z</time>
      </trkpt>
      <trkpt lat="42.8916430" lon="-8.4092160">
        <ele>350.8</ele>
        <time>2021-03-03T11:42:29Z</time>
      </trkpt>
      <trkpt lat="42.8916430" lon="-8.4092160">
        <ele>350.8</ele>
        <time>2021-03-03T11:42:30Z</time>
      </trkpt>
      <trkpt lat="42.8916430" lon="-8.4092170">
        <ele>350.8</ele>
        <time>2021-03-03T11:42:31Z</time>
      </trkpt>
      <trkpt lat="42.8916420" lon="-8.4092170">
        <ele>350.8</ele>
        <time>2021-03-03T11:42:32Z</time>
      </trkpt>
      <trkpt lat="42.8916420" lon="-8.4092180">
        <ele>350.8</ele>
        <time>2021-03-03T11:42:33Z</time>
      </trkpt>
      <trkpt lat="42.8916420" lon="-8.4092180">
        <ele>350.8</ele>
        <time>2021-03-03T11:42:34Z</time>
      </trkpt>
      <trkpt lat="42.8916390" lon="-8.4092150">
        <ele>350.8</ele>
        <time>2021-03-03T11:42:35Z</time>
      </trkpt>
      <trkpt lat="42.8916230" lon="-8.4092020">
        <ele>350.8</ele>
        <time>2021-03-03T11:42:36Z</time>
      </trkpt>
      <trkpt lat="42.8916100" lon="-8.4091850">
        <ele>350.8</ele>
        <time>2021-03-03T11:42:37Z</time>
      </trkpt>
      <trkpt lat="42.8915990" lon="-8.4091590">
        <ele>350.6</ele>
        <time>2021-03-03T11:42:38Z</time>
      </trkpt>
      <trkpt lat="42.8915880" lon="-8.4091310">
        <ele>350.6</ele>
        <time>2021-03-03T11:42:39Z</time>
      </trkpt>
      <trkpt lat="42.8915740" lon="-8.4091000">
        <ele>350.6</ele>
        <time>2021-03-03T11:42:40Z</time>
      </trkpt>
      <trkpt lat="42.8915610" lon="-8.4090700">
        <ele>350.6</ele>
        <time>2021-03-03T11:42:41Z</time>
      </trkpt>
      <trkpt lat="42.8915470" lon="-8.4090410">
        <ele>350.4</ele>
        <time>2021-03-03T11:42:42Z</time>
      </trkpt>
      <trkpt lat="42.8915320" lon="-8.4090090">
        <ele>350.4</ele>
        <time>2021-03-03T11:42:43Z</time>
      </trkpt>
      <trkpt lat="42.8915160" lon="-8.4089790">
        <ele>350.4</ele>
        <time>2021-03-03T11:42:44Z</time>
      </trkpt>
      <trkpt lat="42.8915030" lon="-8.4089520">
        <ele>350.4</ele>
        <time>2021-03-03T11:42:45Z</time>
      </trkpt>
      <trkpt lat="42.8914880" lon="-8.4089240">
        <ele>350.2</ele>
        <time>2021-03-03T11:42:46Z</time>
      </trkpt>
      <trkpt lat="42.8914750" lon="-8.4088950">
        <ele>350.2</ele>
        <time>2021-03-03T11:42:47Z</time>
      </trkpt>
      <trkpt lat="42.8914620" lon="-8.4088680">
        <ele>350.0</ele>
        <time>2021-03-03T11:42:48Z</time>
      </trkpt>
      <trkpt lat="42.8914460" lon="-8.4088370">
        <ele>350.0</ele>
        <time>2021-03-03T11:42:49Z</time>
      </trkpt>
      <trkpt lat="42.8914350" lon="-8.4088170">
        <ele>349.8</ele>
        <time>2021-03-03T11:42:50Z</time>
      </trkpt>
      <trkpt lat="42.8914230" lon="-8.4087890">
        <ele>349.8</ele>
        <time>2021-03-03T11:42:51Z</time>
      </trkpt>
      <trkpt lat="42.8914110" lon="-8.4087620">
        <ele>349.6</ele>
        <time>2021-03-03T11:42:52Z</time>
      </trkpt>
      <trkpt lat="42.8913990" lon="-8.4087340">
        <ele>349.4</ele>
        <time>2021-03-03T11:42:53Z</time>
      </trkpt>
      <trkpt lat="42.8913870" lon="-8.4087060">
        <ele>349.2</ele>
        <time>2021-03-03T11:42:54Z</time>
      </trkpt>
      <trkpt lat="42.8913770" lon="-8.4086810">
        <ele>349.0</ele>
        <time>2021-03-03T11:42:55Z</time>
      </trkpt>
      <trkpt lat="42.8913650" lon="-8.4086540">
        <ele>348.8</ele>
        <time>2021-03-03T11:42:56Z</time>
      </trkpt>
      <trkpt lat="42.8913520" lon="-8.4086260">
        <ele>348.8</ele>
        <time>2021-03-03T11:42:57Z</time>
      </trkpt>
      <trkpt lat="42.8913440" lon="-8.4086020">
        <ele>348.6</ele>
        <time>2021-03-03T11:42:58Z</time>
      </trkpt>
      <trkpt lat="42.8913380" lon="-8.4085740">
        <ele>348.4</ele>
        <time>2021-03-03T11:42:59Z</time>
      </trkpt>
      <trkpt lat="42.8913300" lon="-8.4085460">
        <ele>348.4</ele>
        <time>2021-03-03T11:43:00Z</time>
      </trkpt>
      <trkpt lat="42.8913240" lon="-8.4085190">
        <ele>348.4</ele>
        <time>2021-03-03T11:43:01Z</time>
      </trkpt>
      <trkpt lat="42.8913200" lon="-8.4084890">
        <ele>348.4</ele>
        <time>2021-03-03T11:43:02Z</time>
      </trkpt>
      <trkpt lat="42.8913140" lon="-8.4084570">
        <ele>348.0</ele>
        <time>2021-03-03T11:43:03Z</time>
      </trkpt>
      <trkpt lat="42.8913110" lon="-8.4084290">
        <ele>348.0</ele>
        <time>2021-03-03T11:43:04Z</time>
      </trkpt>
      <trkpt lat="42.8913090" lon="-8.4083980">
        <ele>348.0</ele>
        <time>2021-03-03T11:43:05Z</time>
      </trkpt>
      <trkpt lat="42.8913050" lon="-8.4083680">
        <ele>348.0</ele>
        <time>2021-03-03T11:43:06Z</time>
      </trkpt>
      <trkpt lat="42.8913020" lon="-8.4083400">
        <ele>347.8</ele>
        <time>2021-03-03T11:43:07Z</time>
      </trkpt>
      <trkpt lat="42.8912970" lon="-8.4083080">
        <ele>347.8</ele>
        <time>2021-03-03T11:43:08Z</time>
      </trkpt>
      <trkpt lat="42.8912910" lon="-8.4082780">
        <ele>347.8</ele>
        <time>2021-03-03T11:43:09Z</time>
      </trkpt>
      <trkpt lat="42.8912860" lon="-8.4082470">
        <ele>347.8</ele>
        <time>2021-03-03T11:43:10Z</time>
      </trkpt>
      <trkpt lat="42.8912800" lon="-8.4082150">
        <ele>347.8</ele>
        <time>2021-03-03T11:43:11Z</time>
      </trkpt>
      <trkpt lat="42.8912740" lon="-8.4081840">
        <ele>347.8</ele>
        <time>2021-03-03T11:43:12Z</time>
      </trkpt>
      <trkpt lat="42.8912690" lon="-8.4081520">
        <ele>347.6</ele>
        <time>2021-03-03T11:43:13Z</time>
      </trkpt>
      <trkpt lat="42.8912660" lon="-8.4081200">
        <ele>347.4</ele>
        <time>2021-03-03T11:43:14Z</time>
      </trkpt>
      <trkpt lat="42.8912630" lon="-8.4080880">
        <ele>347.2</ele>
        <time>2021-03-03T11:43:15Z</time>
      </trkpt>
      <trkpt lat="42.8912590" lon="-8.4080570">
        <ele>347.0</ele>
        <time>2021-03-03T11:43:16Z</time>
      </trkpt>
      <trkpt lat="42.8912510" lon="-8.4080270">
        <ele>347.0</ele>
        <time>2021-03-03T11:43:17Z</time>
      </trkpt>
      <trkpt lat="42.8912420" lon="-8.4079950">
        <ele>346.8</ele>
        <time>2021-03-03T11:43:18Z</time>
      </trkpt>
      <trkpt lat="42.8912340" lon="-8.4079640">
        <ele>346.8</ele>
        <time>2021-03-03T11:43:19Z</time>
      </trkpt>
      <trkpt lat="42.8912250" lon="-8.4079340">
        <ele>346.8</ele>
        <time>2021-03-03T11:43:20Z</time>
      </trkpt>
      <trkpt lat="42.8912130" lon="-8.4078960">
        <ele>346.8</ele>
        <time>2021-03-03T11:43:21Z</time>
      </trkpt>
      <trkpt lat="42.8912010" lon="-8.4078680">
        <ele>346.8</ele>
        <time>2021-03-03T11:43:22Z</time>
      </trkpt>
      <trkpt lat="42.8911950" lon="-8.4078400">
        <ele>346.8</ele>
        <time>2021-03-03T11:43:23Z</time>
      </trkpt>
      <trkpt lat="42.8911850" lon="-8.4078110">
        <ele>346.8</ele>
        <time>2021-03-03T11:43:24Z</time>
      </trkpt>
      <trkpt lat="42.8911770" lon="-8.4077790">
        <ele>346.8</ele>
        <time>2021-03-03T11:43:25Z</time>
      </trkpt>
      <trkpt lat="42.8911670" lon="-8.4077480">
        <ele>346.6</ele>
        <time>2021-03-03T11:43:26Z</time>
      </trkpt>
      <trkpt lat="42.8911560" lon="-8.4077170">
        <ele>346.6</ele>
        <time>2021-03-03T11:43:27Z</time>
      </trkpt>
      <trkpt lat="42.8911470" lon="-8.4076850">
        <ele>346.6</ele>
        <time>2021-03-03T11:43:28Z</time>
      </trkpt>
      <trkpt lat="42.8911390" lon="-8.4076500">
        <ele>346.6</ele>
        <time>2021-03-03T11:43:29Z</time>
      </trkpt>
      <trkpt lat="42.8911300" lon="-8.4076160">
        <ele>346.6</ele>
        <time>2021-03-03T11:43:30Z</time>
      </trkpt>
      <trkpt lat="42.8911210" lon="-8.4075860">
        <ele>346.4</ele>
        <time>2021-03-03T11:43:31Z</time>
      </trkpt>
      <trkpt lat="42.8911110" lon="-8.4075530">
        <ele>346.2</ele>
        <time>2021-03-03T11:43:32Z</time>
      </trkpt>
      <trkpt lat="42.8910990" lon="-8.4075180">
        <ele>346.2</ele>
        <time>2021-03-03T11:43:33Z</time>
      </trkpt>
      <trkpt lat="42.8910870" lon="-8.4074830">
        <ele>346.0</ele>
        <time>2021-03-03T11:43:34Z</time>
      </trkpt>
      <trkpt lat="42.8910730" lon="-8.4074420">
        <ele>346.0</ele>
        <time>2021-03-03T11:43:35Z</time>
      </trkpt>
      <trkpt lat="42.8910630" lon="-8.4074160">
        <ele>346.0</ele>
        <time>2021-03-03T11:43:36Z</time>
      </trkpt>
      <trkpt lat="42.8910520" lon="-8.4073840">
        <ele>345.8</ele>
        <time>2021-03-03T11:43:37Z</time>
      </trkpt>
      <trkpt lat="42.8910430" lon="-8.4073500">
        <ele>345.8</ele>
        <time>2021-03-03T11:43:38Z</time>
      </trkpt>
      <trkpt lat="42.8910340" lon="-8.4073170">
        <ele>345.8</ele>
        <time>2021-03-03T11:43:39Z</time>
      </trkpt>
      <trkpt lat="42.8910240" lon="-8.4072840">
        <ele>345.8</ele>
        <time>2021-03-03T11:43:40Z</time>
      </trkpt>
      <trkpt lat="42.8910120" lon="-8.4072540">
        <ele>345.6</ele>
        <time>2021-03-03T11:43:41Z</time>
      </trkpt>
      <trkpt lat="42.8910010" lon="-8.4072210">
        <ele>345.6</ele>
        <time>2021-03-03T11:43:42Z</time>
      </trkpt>
      <trkpt lat="42.8909930" lon="-8.4071870">
        <ele>345.4</ele>
        <time>2021-03-03T11:43:43Z</time>
      </trkpt>
      <trkpt lat="42.8909860" lon="-8.4071520">
        <ele>345.4</ele>
        <time>2021-03-03T11:43:44Z</time>
      </trkpt>
      <trkpt lat="42.8909740" lon="-8.4071150">
        <ele>345.4</ele>
        <time>2021-03-03T11:43:45Z</time>
      </trkpt>
      <trkpt lat="42.8909610" lon="-8.4070820">
        <ele>345.2</ele>
        <time>2021-03-03T11:43:46Z</time>
      </trkpt>
      <trkpt lat="42.8909480" lon="-8.4070490">
        <ele>345.0</ele>
        <time>2021-03-03T11:43:47Z</time>
      </trkpt>
      <trkpt lat="42.8909340" lon="-8.4070140">
        <ele>344.8</ele>
        <time>2021-03-03T11:43:48Z</time>
      </trkpt>
      <trkpt lat="42.8909200" lon="-8.4069810">
        <ele>344.6</ele>
        <time>2021-03-03T11:43:49Z</time>
      </trkpt>
      <trkpt lat="42.8909070" lon="-8.4069450">
        <ele>344.6</ele>
        <time>2021-03-03T11:43:50Z</time>
      </trkpt>
      <trkpt lat="42.8908940" lon="-8.4069120">
        <ele>344.6</ele>
        <time>2021-03-03T11:43:51Z</time>
      </trkpt>
      <trkpt lat="42.8908810" lon="-8.4068780">
        <ele>344.6</ele>
        <time>2021-03-03T11:43:52Z</time>
      </trkpt>
      <trkpt lat="42.8908690" lon="-8.4068440">
        <ele>344.4</ele>
        <time>2021-03-03T11:43:53Z</time>
      </trkpt>
      <trkpt lat="42.8908570" lon="-8.4068080">
        <ele>344.4</ele>
        <time>2021-03-03T11:43:54Z</time>
      </trkpt>
      <trkpt lat="42.8908490" lon="-8.4067810">
        <ele>344.4</ele>
        <time>2021-03-03T11:43:55Z</time>
      </trkpt>
      <trkpt lat="42.8908390" lon="-8.4067580">
        <ele>344.4</ele>
        <time>2021-03-03T11:43:56Z</time>
      </trkpt>
      <trkpt lat="42.8908310" lon="-8.4067250">
        <ele>344.4</ele>
        <time>2021-03-03T11:43:57Z</time>
      </trkpt>
      <trkpt lat="42.8908190" lon="-8.4066910">
        <ele>344.4</ele>
        <time>2021-03-03T11:43:58Z</time>
      </trkpt>
      <trkpt lat="42.8908120" lon="-8.4066740">
        <ele>344.4</ele>
        <time>2021-03-03T11:43:59Z</time>
      </trkpt>
      <trkpt lat="42.8908030" lon="-8.4066580">
        <ele>344.4</ele>
        <time>2021-03-03T11:44:00Z</time>
      </trkpt>
      <trkpt lat="42.8907940" lon="-8.4066420">
        <ele>344.4</ele>
        <time>2021-03-03T11:44:01Z</time>
      </trkpt>
      <trkpt lat="42.8907850" lon="-8.4066240">
        <ele>344.4</ele>
        <time>2021-03-03T11:44:02Z</time>
      </trkpt>
      <trkpt lat="42.8907730" lon="-8.4066060">
        <ele>344.4</ele>
        <time>2021-03-03T11:44:03Z</time>
      </trkpt>
      <trkpt lat="42.8907570" lon="-8.4065880">
        <ele>344.4</ele>
        <time>2021-03-03T11:44:04Z</time>
      </trkpt>
      <trkpt lat="42.8907430" lon="-8.4065740">
        <ele>344.2</ele>
        <time>2021-03-03T11:44:05Z</time>
      </trkpt>
      <trkpt lat="42.8907300" lon="-8.4065680">
        <ele>344.2</ele>
        <time>2021-03-03T11:44:06Z</time>
      </trkpt>
      <trkpt lat="42.8907180" lon="-8.4065640">
        <ele>344.2</ele>
        <time>2021-03-03T11:44:07Z</time>
      </trkpt>
      <trkpt lat="42.8907070" lon="-8.4065600">
        <ele>344.2</ele>
        <time>2021-03-03T11:44:08Z</time>
      </trkpt>
      <trkpt lat="42.8906940" lon="-8.4065510">
        <ele>344.2</ele>
        <time>2021-03-03T11:44:09Z</time>
      </trkpt>
      <trkpt lat="42.8906810" lon="-8.4065380">
        <ele>344.2</ele>
        <time>2021-03-03T11:44:10Z</time>
      </trkpt>
      <trkpt lat="42.8906670" lon="-8.4065240">
        <ele>344.4</ele>
        <time>2021-03-03T11:44:11Z</time>
      </trkpt>
      <trkpt lat="42.8906490" lon="-8.4065060">
        <ele>344.4</ele>
        <time>2021-03-03T11:44:12Z</time>
      </trkpt>
      <trkpt lat="42.8906360" lon="-8.4064940">
        <ele>344.4</ele>
        <time>2021-03-03T11:44:13Z</time>
      </trkpt>
      <trkpt lat="42.8906230" lon="-8.4064830">
        <ele>344.2</ele>
        <time>2021-03-03T11:44:14Z</time>
      </trkpt>
      <trkpt lat="42.8905960" lon="-8.4064600">
        <ele>344.0</ele>
        <time>2021-03-03T11:44:15Z</time>
      </trkpt>
      <trkpt lat="42.8905650" lon="-8.4064330">
        <ele>344.0</ele>
        <time>2021-03-03T11:44:16Z</time>
      </trkpt>
      <trkpt lat="42.8905370" lon="-8.4064130">
        <ele>344.0</ele>
        <time>2021-03-03T11:44:17Z</time>
      </trkpt>
      <trkpt lat="42.8905130" lon="-8.4063960">
        <ele>344.0</ele>
        <time>2021-03-03T11:44:18Z</time>
      </trkpt>
      <trkpt lat="42.8904880" lon="-8.4063640">
        <ele>344.0</ele>
        <time>2021-03-03T11:44:19Z</time>
      </trkpt>
      <trkpt lat="42.8904620" lon="-8.4063340">
        <ele>344.0</ele>
        <time>2021-03-03T11:44:20Z</time>
      </trkpt>
      <trkpt lat="42.8904420" lon="-8.4063130">
        <ele>344.0</ele>
        <time>2021-03-03T11:44:21Z</time>
      </trkpt>
      <trkpt lat="42.8904290" lon="-8.4062970">
        <ele>344.0</ele>
        <time>2021-03-03T11:44:22Z</time>
      </trkpt>
      <trkpt lat="42.8904080" lon="-8.4062820">
        <ele>344.0</ele>
        <time>2021-03-03T11:44:23Z</time>
      </trkpt>
      <trkpt lat="42.8903900" lon="-8.4062680">
        <ele>343.8</ele>
        <time>2021-03-03T11:44:24Z</time>
      </trkpt>
      <trkpt lat="42.8903700" lon="-8.4062520">
        <ele>343.8</ele>
        <time>2021-03-03T11:44:25Z</time>
      </trkpt>
      <trkpt lat="42.8903480" lon="-8.4062330">
        <ele>343.4</ele>
        <time>2021-03-03T11:44:26Z</time>
      </trkpt>
      <trkpt lat="42.8903210" lon="-8.4062120">
        <ele>343.4</ele>
        <time>2021-03-03T11:44:27Z</time>
      </trkpt>
      <trkpt lat="42.8902980" lon="-8.4061980">
        <ele>343.2</ele>
        <time>2021-03-03T11:44:28Z</time>
      </trkpt>
      <trkpt lat="42.8902760" lon="-8.4061870">
        <ele>343.2</ele>
        <time>2021-03-03T11:44:29Z</time>
      </trkpt>
      <trkpt lat="42.8902580" lon="-8.4061740">
        <ele>343.2</ele>
        <time>2021-03-03T11:44:30Z</time>
      </trkpt>
      <trkpt lat="42.8902360" lon="-8.4061590">
        <ele>343.2</ele>
        <time>2021-03-03T11:44:31Z</time>
      </trkpt>
      <trkpt lat="42.8902130" lon="-8.4061470">
        <ele>343.0</ele>
        <time>2021-03-03T11:44:32Z</time>
      </trkpt>
      <trkpt lat="42.8901880" lon="-8.4061340">
        <ele>343.0</ele>
        <time>2021-03-03T11:44:33Z</time>
      </trkpt>
      <trkpt lat="42.8901680" lon="-8.4061210">
        <ele>342.8</ele>
        <time>2021-03-03T11:44:34Z</time>
      </trkpt>
      <trkpt lat="42.8901410" lon="-8.4061040">
        <ele>342.6</ele>
        <time>2021-03-03T11:44:35Z</time>
      </trkpt>
      <trkpt lat="42.8901230" lon="-8.4060920">
        <ele>342.4</ele>
        <time>2021-03-03T11:44:36Z</time>
      </trkpt>
      <trkpt lat="42.8900920" lon="-8.4060560">
        <ele>342.2</ele>
        <time>2021-03-03T11:44:37Z</time>
      </trkpt>
      <trkpt lat="42.8900610" lon="-8.4060250">
        <ele>342.2</ele>
        <time>2021-03-03T11:44:38Z</time>
      </trkpt>
      <trkpt lat="42.8900260" lon="-8.4059860">
        <ele>341.8</ele>
        <time>2021-03-03T11:44:39Z</time>
      </trkpt>
      <trkpt lat="42.8899990" lon="-8.4059550">
        <ele>341.6</ele>
        <time>2021-03-03T11:44:40Z</time>
      </trkpt>
      <trkpt lat="42.8899830" lon="-8.4059290">
        <ele>341.4</ele>
        <time>2021-03-03T11:44:41Z</time>
      </trkpt>
      <trkpt lat="42.8899610" lon="-8.4058910">
        <ele>341.4</ele>
        <time>2021-03-03T11:44:42Z</time>
      </trkpt>
      <trkpt lat="42.8899410" lon="-8.4058680">
        <ele>341.2</ele>
        <time>2021-03-03T11:44:43Z</time>
      </trkpt>
      <trkpt lat="42.8899200" lon="-8.4058430">
        <ele>341.0</ele>
        <time>2021-03-03T11:44:44Z</time>
      </trkpt>
      <trkpt lat="42.8899000" lon="-8.4058200">
        <ele>341.0</ele>
        <time>2021-03-03T11:44:45Z</time>
      </trkpt>
      <trkpt lat="42.8898790" lon="-8.4057980">
        <ele>340.6</ele>
        <time>2021-03-03T11:44:46Z</time>
      </trkpt>
      <trkpt lat="42.8898540" lon="-8.4057790">
        <ele>340.6</ele>
        <time>2021-03-03T11:44:47Z</time>
      </trkpt>
      <trkpt lat="42.8898260" lon="-8.4057570">
        <ele>340.4</ele>
        <time>2021-03-03T11:44:48Z</time>
      </trkpt>
      <trkpt lat="42.8897930" lon="-8.4057310">
        <ele>340.2</ele>
        <time>2021-03-03T11:44:49Z</time>
      </trkpt>
      <trkpt lat="42.8897620" lon="-8.4057020">
        <ele>340.0</ele>
        <time>2021-03-03T11:44:50Z</time>
      </trkpt>
      <trkpt lat="42.8897330" lon="-8.4056800">
        <ele>339.8</ele>
        <time>2021-03-03T11:44:51Z</time>
      </trkpt>
      <trkpt lat="42.8897070" lon="-8.4056570">
        <ele>339.4</ele>
        <time>2021-03-03T11:44:52Z</time>
      </trkpt>
      <trkpt lat="42.8896810" lon="-8.4056350">
        <ele>339.4</ele>
        <time>2021-03-03T11:44:53Z</time>
      </trkpt>
      <trkpt lat="42.8896560" lon="-8.4056160">
        <ele>339.2</ele>
        <time>2021-03-03T11:44:54Z</time>
      </trkpt>
      <trkpt lat="42.8896300" lon="-8.4055870">
        <ele>339.0</ele>
        <time>2021-03-03T11:44:55Z</time>
      </trkpt>
      <trkpt lat="42.8896060" lon="-8.4055630">
        <ele>338.8</ele>
        <time>2021-03-03T11:44:56Z</time>
      </trkpt>
      <trkpt lat="42.8895840" lon="-8.4055520">
        <ele>338.6</ele>
        <time>2021-03-03T11:44:57Z</time>
      </trkpt>
      <trkpt lat="42.8895550" lon="-8.4055380">
        <ele>338.6</ele>
        <time>2021-03-03T11:44:58Z</time>
      </trkpt>
      <trkpt lat="42.8895280" lon="-8.4055350">
        <ele>338.2</ele>
        <time>2021-03-03T11:44:59Z</time>
      </trkpt>
      <trkpt lat="42.8895120" lon="-8.4055300">
        <ele>338.2</ele>
        <time>2021-03-03T11:45:00Z</time>
      </trkpt>
      <trkpt lat="42.8894950" lon="-8.4055190">
        <ele>338.0</ele>
        <time>2021-03-03T11:45:01Z</time>
      </trkpt>
      <trkpt lat="42.8894680" lon="-8.4055150">
        <ele>338.0</ele>
        <time>2021-03-03T11:45:02Z</time>
      </trkpt>
      <trkpt lat="42.8894410" lon="-8.4055200">
        <ele>338.0</ele>
        <time>2021-03-03T11:45:03Z</time>
      </trkpt>
      <trkpt lat="42.8894140" lon="-8.4055290">
        <ele>338.0</ele>
        <time>2021-03-03T11:45:04Z</time>
      </trkpt>
      <trkpt lat="42.8893890" lon="-8.4055360">
        <ele>338.0</ele>
        <time>2021-03-03T11:45:05Z</time>
      </trkpt>
      <trkpt lat="42.8893640" lon="-8.4055490">
        <ele>338.0</ele>
        <time>2021-03-03T11:45:06Z</time>
      </trkpt>
      <trkpt lat="42.8893490" lon="-8.4055630">
        <ele>338.0</ele>
        <time>2021-03-03T11:45:07Z</time>
      </trkpt>
      <trkpt lat="42.8893290" lon="-8.4055810">
        <ele>338.0</ele>
        <time>2021-03-03T11:45:08Z</time>
      </trkpt>
      <trkpt lat="42.8893120" lon="-8.4056100">
        <ele>338.0</ele>
        <time>2021-03-03T11:45:09Z</time>
      </trkpt>
      <trkpt lat="42.8892900" lon="-8.4056390">
        <ele>338.0</ele>
        <time>2021-03-03T11:45:10Z</time>
      </trkpt>
      <trkpt lat="42.8892670" lon="-8.4056700">
        <ele>338.0</ele>
        <time>2021-03-03T11:45:11Z</time>
      </trkpt>
      <trkpt lat="42.8892470" lon="-8.4056900">
        <ele>338.0</ele>
        <time>2021-03-03T11:45:12Z</time>
      </trkpt>
      <trkpt lat="42.8892250" lon="-8.4057030">
        <ele>338.0</ele>
        <time>2021-03-03T11:45:13Z</time>
      </trkpt>
      <trkpt lat="42.8892020" lon="-8.4057090">
        <ele>338.0</ele>
        <time>2021-03-03T11:45:14Z</time>
      </trkpt>
      <trkpt lat="42.8891790" lon="-8.4057200">
        <ele>338.0</ele>
        <time>2021-03-03T11:45:15Z</time>
      </trkpt>
      <trkpt lat="42.8891570" lon="-8.4057390">
        <ele>338.0</ele>
        <time>2021-03-03T11:45:16Z</time>
      </trkpt>
      <trkpt lat="42.8891370" lon="-8.4057550">
        <ele>338.0</ele>
        <time>2021-03-03T11:45:17Z</time>
      </trkpt>
      <trkpt lat="42.8891230" lon="-8.4057720">
        <ele>338.0</ele>
        <time>2021-03-03T11:45:18Z</time>
      </trkpt>
      <trkpt lat="42.8891130" lon="-8.4057840">
        <ele>338.2</ele>
        <time>2021-03-03T11:45:19Z</time>
      </trkpt>
      <trkpt lat="42.8890980" lon="-8.4058010">
        <ele>338.2</ele>
        <time>2021-03-03T11:45:20Z</time>
      </trkpt>
      <trkpt lat="42.8890790" lon="-8.4058240">
        <ele>338.2</ele>
        <time>2021-03-03T11:45:21Z</time>
      </trkpt>
      <trkpt lat="42.8890560" lon="-8.4058450">
        <ele>338.2</ele>
        <time>2021-03-03T11:45:22Z</time>
      </trkpt>
      <trkpt lat="42.8890320" lon="-8.4058580">
        <ele>338.4</ele>
        <time>2021-03-03T11:45:23Z</time>
      </trkpt>
      <trkpt lat="42.8890090" lon="-8.4058710">
        <ele>338.4</ele>
        <time>2021-03-03T11:45:24Z</time>
      </trkpt>
      <trkpt lat="42.8889830" lon="-8.4058780">
        <ele>338.2</ele>
        <time>2021-03-03T11:45:25Z</time>
      </trkpt>
      <trkpt lat="42.8889560" lon="-8.4058900">
        <ele>338.2</ele>
        <time>2021-03-03T11:45:26Z</time>
      </trkpt>
      <trkpt lat="42.8889310" lon="-8.4059090">
        <ele>338.4</ele>
        <time>2021-03-03T11:45:27Z</time>
      </trkpt>
      <trkpt lat="42.8889080" lon="-8.4059300">
        <ele>338.4</ele>
        <time>2021-03-03T11:45:28Z</time>
      </trkpt>
      <trkpt lat="42.8888850" lon="-8.4059550">
        <ele>338.4</ele>
        <time>2021-03-03T11:45:29Z</time>
      </trkpt>
      <trkpt lat="42.8888650" lon="-8.4059770">
        <ele>338.6</ele>
        <time>2021-03-03T11:45:30Z</time>
      </trkpt>
      <trkpt lat="42.8888390" lon="-8.4059950">
        <ele>338.6</ele>
        <time>2021-03-03T11:45:31Z</time>
      </trkpt>
      <trkpt lat="42.8888070" lon="-8.4060180">
        <ele>338.8</ele>
        <time>2021-03-03T11:45:32Z</time>
      </trkpt>
      <trkpt lat="42.8887810" lon="-8.4060440">
        <ele>338.8</ele>
        <time>2021-03-03T11:45:33Z</time>
      </trkpt>
      <trkpt lat="42.8887550" lon="-8.4060610">
        <ele>338.8</ele>
        <time>2021-03-03T11:45:34Z</time>
      </trkpt>
      <trkpt lat="42.8887290" lon="-8.4060820">
        <ele>339.0</ele>
        <time>2021-03-03T11:45:35Z</time>
      </trkpt>
      <trkpt lat="42.8887120" lon="-8.4060950">
        <ele>339.2</ele>
        <time>2021-03-03T11:45:36Z</time>
      </trkpt>
      <trkpt lat="42.8886900" lon="-8.4061120">
        <ele>339.4</ele>
        <time>2021-03-03T11:45:37Z</time>
      </trkpt>
      <trkpt lat="42.8886680" lon="-8.4061320">
        <ele>339.4</ele>
        <time>2021-03-03T11:45:38Z</time>
      </trkpt>
      <trkpt lat="42.8886500" lon="-8.4061520">
        <ele>339.6</ele>
        <time>2021-03-03T11:45:39Z</time>
      </trkpt>
      <trkpt lat="42.8886270" lon="-8.4061780">
        <ele>339.6</ele>
        <time>2021-03-03T11:45:40Z</time>
      </trkpt>
      <trkpt lat="42.8886010" lon="-8.4061960">
        <ele>339.6</ele>
        <time>2021-03-03T11:45:41Z</time>
      </trkpt>
      <trkpt lat="42.8885810" lon="-8.4062080">
        <ele>339.8</ele>
        <time>2021-03-03T11:45:42Z</time>
      </trkpt>
      <trkpt lat="42.8885550" lon="-8.4062250">
        <ele>339.8</ele>
        <time>2021-03-03T11:45:43Z</time>
      </trkpt>
      <trkpt lat="42.8885300" lon="-8.4062430">
        <ele>339.8</ele>
        <time>2021-03-03T11:45:44Z</time>
      </trkpt>
      <trkpt lat="42.8885100" lon="-8.4062600">
        <ele>340.0</ele>
        <time>2021-03-03T11:45:45Z</time>
      </trkpt>
      <trkpt lat="42.8884920" lon="-8.4062810">
        <ele>340.0</ele>
        <time>2021-03-03T11:45:46Z</time>
      </trkpt>
      <trkpt lat="42.8884730" lon="-8.4062990">
        <ele>340.2</ele>
        <time>2021-03-03T11:45:47Z</time>
      </trkpt>
      <trkpt lat="42.8884500" lon="-8.4063180">
        <ele>340.2</ele>
        <time>2021-03-03T11:45:48Z</time>
      </trkpt>
      <trkpt lat="42.8884270" lon="-8.4063420">
        <ele>340.4</ele>
        <time>2021-03-03T11:45:49Z</time>
      </trkpt>
      <trkpt lat="42.8884090" lon="-8.4063590">
        <ele>340.4</ele>
        <time>2021-03-03T11:45:50Z</time>
      </trkpt>
      <trkpt lat="42.8883890" lon="-8.4063810">
        <ele>340.4</ele>
        <time>2021-03-03T11:45:51Z</time>
      </trkpt>
      <trkpt lat="42.8883690" lon="-8.4064020">
        <ele>340.6</ele>
        <time>2021-03-03T11:45:52Z</time>
      </trkpt>
      <trkpt lat="42.8883510" lon="-8.4064250">
        <ele>340.6</ele>
        <time>2021-03-03T11:45:53Z</time>
      </trkpt>
      <trkpt lat="42.8883330" lon="-8.4064480">
        <ele>340.6</ele>
        <time>2021-03-03T11:45:54Z</time>
      </trkpt>
      <trkpt lat="42.8883180" lon="-8.4064710">
        <ele>340.6</ele>
        <time>2021-03-03T11:45:55Z</time>
      </trkpt>
      <trkpt lat="42.8883010" lon="-8.4064940">
        <ele>340.8</ele>
        <time>2021-03-03T11:45:56Z</time>
      </trkpt>
      <trkpt lat="42.8882870" lon="-8.4065200">
        <ele>340.8</ele>
        <time>2021-03-03T11:45:57Z</time>
      </trkpt>
      <trkpt lat="42.8882710" lon="-8.4065440">
        <ele>340.8</ele>
        <time>2021-03-03T11:45:58Z</time>
      </trkpt>
      <trkpt lat="42.8882540" lon="-8.4065690">
        <ele>340.8</ele>
        <time>2021-03-03T11:45:59Z</time>
      </trkpt>
      <trkpt lat="42.8882340" lon="-8.4065940">
        <ele>340.8</ele>
        <time>2021-03-03T11:46:00Z</time>
      </trkpt>
      <trkpt lat="42.8882080" lon="-8.4066180">
        <ele>341.0</ele>
        <time>2021-03-03T11:46:01Z</time>
      </trkpt>
      <trkpt lat="42.8881850" lon="-8.4066470">
        <ele>341.0</ele>
        <time>2021-03-03T11:46:02Z</time>
      </trkpt>
      <trkpt lat="42.8881650" lon="-8.4066760">
        <ele>341.0</ele>
        <time>2021-03-03T11:46:03Z</time>
      </trkpt>
      <trkpt lat="42.8881470" lon="-8.4067100">
        <ele>341.0</ele>
        <time>2021-03-03T11:46:04Z</time>
      </trkpt>
      <trkpt lat="42.8881320" lon="-8.4067430">
        <ele>341.0</ele>
        <time>2021-03-03T11:46:05Z</time>
      </trkpt>
      <trkpt lat="42.8881140" lon="-8.4067720">
        <ele>341.0</ele>
        <time>2021-03-03T11:46:06Z</time>
      </trkpt>
      <trkpt lat="42.8880960" lon="-8.4068100">
        <ele>341.2</ele>
        <time>2021-03-03T11:46:07Z</time>
      </trkpt>
      <trkpt lat="42.8880810" lon="-8.4068390">
        <ele>341.2</ele>
        <time>2021-03-03T11:46:08Z</time>
      </trkpt>
      <trkpt lat="42.8880590" lon="-8.4068710">
        <ele>341.2</ele>
        <time>2021-03-03T11:46:09Z</time>
      </trkpt>
      <trkpt lat="42.8880360" lon="-8.4069050">
        <ele>341.2</ele>
        <time>2021-03-03T11:46:10Z</time>
      </trkpt>
      <trkpt lat="42.8880210" lon="-8.4069380">
        <ele>341.2</ele>
        <time>2021-03-03T11:46:11Z</time>
      </trkpt>
      <trkpt lat="42.8880210" lon="-8.4070010">
        <ele>341.2</ele>
        <time>2021-03-03T11:46:12Z</time>
      </trkpt>
      <trkpt lat="42.8880070" lon="-8.4070470">
        <ele>341.4</ele>
        <time>2021-03-03T11:46:13Z</time>
      </trkpt>
      <trkpt lat="42.8879970" lon="-8.4070790">
        <ele>341.4</ele>
        <time>2021-03-03T11:46:14Z</time>
      </trkpt>
      <trkpt lat="42.8879900" lon="-8.4071140">
        <ele>341.4</ele>
        <time>2021-03-03T11:46:15Z</time>
      </trkpt>
      <trkpt lat="42.8879780" lon="-8.4071400">
        <ele>341.4</ele>
        <time>2021-03-03T11:46:16Z</time>
      </trkpt>
      <trkpt lat="42.8879580" lon="-8.4071570">
        <ele>341.4</ele>
        <time>2021-03-03T11:46:17Z</time>
      </trkpt>
      <trkpt lat="42.8879370" lon="-8.4071650">
        <ele>341.4</ele>
        <time>2021-03-03T11:46:18Z</time>
      </trkpt>
      <trkpt lat="42.8879150" lon="-8.4071650">
        <ele>341.4</ele>
        <time>2021-03-03T11:46:19Z</time>
      </trkpt>
      <trkpt lat="42.8878900" lon="-8.4071640">
        <ele>341.4</ele>
        <time>2021-03-03T11:46:20Z</time>
      </trkpt>
      <trkpt lat="42.8878570" lon="-8.4071750">
        <ele>341.4</ele>
        <time>2021-03-03T11:46:21Z</time>
      </trkpt>
      <trkpt lat="42.8878330" lon="-8.4071820">
        <ele>341.4</ele>
        <time>2021-03-03T11:46:22Z</time>
      </trkpt>
      <trkpt lat="42.8878060" lon="-8.4072020">
        <ele>341.2</ele>
        <time>2021-03-03T11:46:23Z</time>
      </trkpt>
      <trkpt lat="42.8877870" lon="-8.4072260">
        <ele>341.4</ele>
        <time>2021-03-03T11:46:24Z</time>
      </trkpt>
      <trkpt lat="42.8877700" lon="-8.4072590">
        <ele>341.4</ele>
        <time>2021-03-03T11:46:25Z</time>
      </trkpt>
      <trkpt lat="42.8877520" lon="-8.4072910">
        <ele>341.2</ele>
        <time>2021-03-03T11:46:26Z</time>
      </trkpt>
      <trkpt lat="42.8877370" lon="-8.4073130">
        <ele>341.4</ele>
        <time>2021-03-03T11:46:27Z</time>
      </trkpt>
      <trkpt lat="42.8877200" lon="-8.4073310">
        <ele>341.4</ele>
        <time>2021-03-03T11:46:28Z</time>
      </trkpt>
      <trkpt lat="42.8877030" lon="-8.4073510">
        <ele>341.4</ele>
        <time>2021-03-03T11:46:29Z</time>
      </trkpt>
      <trkpt lat="42.8876730" lon="-8.4073780">
        <ele>341.6</ele>
        <time>2021-03-03T11:46:30Z</time>
      </trkpt>
      <trkpt lat="42.8876480" lon="-8.4073970">
        <ele>341.6</ele>
        <time>2021-03-03T11:46:31Z</time>
      </trkpt>
      <trkpt lat="42.8876210" lon="-8.4074180">
        <ele>341.6</ele>
        <time>2021-03-03T11:46:32Z</time>
      </trkpt>
      <trkpt lat="42.8875950" lon="-8.4074400">
        <ele>341.6</ele>
        <time>2021-03-03T11:46:33Z</time>
      </trkpt>
      <trkpt lat="42.8875690" lon="-8.4074600">
        <ele>341.6</ele>
        <time>2021-03-03T11:46:34Z</time>
      </trkpt>
      <trkpt lat="42.8875490" lon="-8.4074810">
        <ele>341.6</ele>
        <time>2021-03-03T11:46:35Z</time>
      </trkpt>
      <trkpt lat="42.8875310" lon="-8.4074940">
        <ele>341.6</ele>
        <time>2021-03-03T11:46:36Z</time>
      </trkpt>
      <trkpt lat="42.8875170" lon="-8.4075000">
        <ele>341.6</ele>
        <time>2021-03-03T11:46:37Z</time>
      </trkpt>
      <trkpt lat="42.8875090" lon="-8.4075090">
        <ele>341.6</ele>
        <time>2021-03-03T11:46:38Z</time>
      </trkpt>
      <trkpt lat="42.8874980" lon="-8.4075150">
        <ele>341.6</ele>
        <time>2021-03-03T11:46:39Z</time>
      </trkpt>
      <trkpt lat="42.8874830" lon="-8.4075170">
        <ele>341.4</ele>
        <time>2021-03-03T11:46:40Z</time>
      </trkpt>
      <trkpt lat="42.8874700" lon="-8.4075200">
        <ele>341.6</ele>
        <time>2021-03-03T11:46:41Z</time>
      </trkpt>
      <trkpt lat="42.8874500" lon="-8.4075230">
        <ele>341.6</ele>
        <time>2021-03-03T11:46:42Z</time>
      </trkpt>
      <trkpt lat="42.8874290" lon="-8.4075230">
        <ele>341.6</ele>
        <time>2021-03-03T11:46:43Z</time>
      </trkpt>
      <trkpt lat="42.8874060" lon="-8.4075210">
        <ele>341.6</ele>
        <time>2021-03-03T11:46:44Z</time>
      </trkpt>
      <trkpt lat="42.8873850" lon="-8.4075180">
        <ele>341.6</ele>
        <time>2021-03-03T11:46:45Z</time>
      </trkpt>
      <trkpt lat="42.8873680" lon="-8.4075160">
        <ele>341.8</ele>
        <time>2021-03-03T11:46:46Z</time>
      </trkpt>
      <trkpt lat="42.8873540" lon="-8.4075140">
        <ele>341.8</ele>
        <time>2021-03-03T11:46:47Z</time>
      </trkpt>
      <trkpt lat="42.8873420" lon="-8.4075140">
        <ele>341.8</ele>
        <time>2021-03-03T11:46:48Z</time>
      </trkpt>
      <trkpt lat="42.8873280" lon="-8.4075080">
        <ele>341.8</ele>
        <time>2021-03-03T11:46:49Z</time>
      </trkpt>
      <trkpt lat="42.8873130" lon="-8.4074980">
        <ele>342.0</ele>
        <time>2021-03-03T11:46:50Z</time>
      </trkpt>
      <trkpt lat="42.8872980" lon="-8.4074840">
        <ele>342.2</ele>
        <time>2021-03-03T11:46:51Z</time>
      </trkpt>
      <trkpt lat="42.8872810" lon="-8.4074700">
        <ele>342.2</ele>
        <time>2021-03-03T11:46:52Z</time>
      </trkpt>
      <trkpt lat="42.8872640" lon="-8.4074510">
        <ele>342.6</ele>
        <time>2021-03-03T11:46:53Z</time>
      </trkpt>
      <trkpt lat="42.8872440" lon="-8.4074350">
        <ele>342.8</ele>
        <time>2021-03-03T11:46:54Z</time>
      </trkpt>
      <trkpt lat="42.8872240" lon="-8.4074190">
        <ele>343.0</ele>
        <time>2021-03-03T11:46:55Z</time>
      </trkpt>
      <trkpt lat="42.8872050" lon="-8.4074030">
        <ele>343.2</ele>
        <time>2021-03-03T11:46:56Z</time>
      </trkpt>
      <trkpt lat="42.8871850" lon="-8.4073830">
        <ele>343.4</ele>
        <time>2021-03-03T11:46:57Z</time>
      </trkpt>
      <trkpt lat="42.8871680" lon="-8.4073740">
        <ele>343.6</ele>
        <time>2021-03-03T11:46:58Z</time>
      </trkpt>
      <trkpt lat="42.8871520" lon="-8.4073680">
        <ele>343.8</ele>
        <time>2021-03-03T11:46:59Z</time>
      </trkpt>
      <trkpt lat="42.8871390" lon="-8.4073610">
        <ele>344.0</ele>
        <time>2021-03-03T11:47:00Z</time>
      </trkpt>
      <trkpt lat="42.8871270" lon="-8.4073530">
        <ele>344.0</ele>
        <time>2021-03-03T11:47:01Z</time>
      </trkpt>
      <trkpt lat="42.8871160" lon="-8.4073430">
        <ele>344.4</ele>
        <time>2021-03-03T11:47:02Z</time>
      </trkpt>
      <trkpt lat="42.8871030" lon="-8.4073330">
        <ele>344.6</ele>
        <time>2021-03-03T11:47:03Z</time>
      </trkpt>
      <trkpt lat="42.8870920" lon="-8.4073240">
        <ele>344.8</ele>
        <time>2021-03-03T11:47:04Z</time>
      </trkpt>
      <trkpt lat="42.8870790" lon="-8.4073140">
        <ele>345.0</ele>
        <time>2021-03-03T11:47:05Z</time>
      </trkpt>
      <trkpt lat="42.8870640" lon="-8.4073030">
        <ele>345.2</ele>
        <time>2021-03-03T11:47:06Z</time>
      </trkpt>
      <trkpt lat="42.8870440" lon="-8.4072920">
        <ele>345.4</ele>
        <time>2021-03-03T11:47:07Z</time>
      </trkpt>
      <trkpt lat="42.8870240" lon="-8.4072890">
        <ele>345.4</ele>
        <time>2021-03-03T11:47:08Z</time>
      </trkpt>
      <trkpt lat="42.8870070" lon="-8.4072950">
        <ele>345.6</ele>
        <time>2021-03-03T11:47:09Z</time>
      </trkpt>
      <trkpt lat="42.8869900" lon="-8.4073040">
        <ele>345.6</ele>
        <time>2021-03-03T11:47:10Z</time>
      </trkpt>
      <trkpt lat="42.8869730" lon="-8.4073130">
        <ele>345.8</ele>
        <time>2021-03-03T11:47:11Z</time>
      </trkpt>
      <trkpt lat="42.8869580" lon="-8.4073230">
        <ele>346.0</ele>
        <time>2021-03-03T11:47:12Z</time>
      </trkpt>
      <trkpt lat="42.8869420" lon="-8.4073330">
        <ele>346.2</ele>
        <time>2021-03-03T11:47:13Z</time>
      </trkpt>
      <trkpt lat="42.8869220" lon="-8.4073430">
        <ele>346.4</ele>
        <time>2021-03-03T11:47:14Z</time>
      </trkpt>
      <trkpt lat="42.8869060" lon="-8.4073530">
        <ele>346.6</ele>
        <time>2021-03-03T11:47:15Z</time>
      </trkpt>
      <trkpt lat="42.8868880" lon="-8.4073680">
        <ele>347.0</ele>
        <time>2021-03-03T11:47:16Z</time>
      </trkpt>
      <trkpt lat="42.8868670" lon="-8.4073820">
        <ele>347.2</ele>
        <time>2021-03-03T11:47:17Z</time>
      </trkpt>
      <trkpt lat="42.8868480" lon="-8.4073950">
        <ele>347.4</ele>
        <time>2021-03-03T11:47:18Z</time>
      </trkpt>
      <trkpt lat="42.8868300" lon="-8.4074080">
        <ele>347.6</ele>
        <time>2021-03-03T11:47:19Z</time>
      </trkpt>
      <trkpt lat="42.8868130" lon="-8.4074200">
        <ele>347.8</ele>
        <time>2021-03-03T11:47:20Z</time>
      </trkpt>
      <trkpt lat="42.8867990" lon="-8.4074290">
        <ele>347.8</ele>
        <time>2021-03-03T11:47:21Z</time>
      </trkpt>
      <trkpt lat="42.8867860" lon="-8.4074400">
        <ele>348.0</ele>
        <time>2021-03-03T11:47:22Z</time>
      </trkpt>
      <trkpt lat="42.8867740" lon="-8.4074550">
        <ele>348.2</ele>
        <time>2021-03-03T11:47:23Z</time>
      </trkpt>
      <trkpt lat="42.8867610" lon="-8.4074700">
        <ele>348.2</ele>
        <time>2021-03-03T11:47:24Z</time>
      </trkpt>
      <trkpt lat="42.8867480" lon="-8.4074860">
        <ele>348.2</ele>
        <time>2021-03-03T11:47:25Z</time>
      </trkpt>
      <trkpt lat="42.8867310" lon="-8.4075050">
        <ele>348.4</ele>
        <time>2021-03-03T11:47:26Z</time>
      </trkpt>
      <trkpt lat="42.8867210" lon="-8.4075190">
        <ele>348.4</ele>
        <time>2021-03-03T11:47:27Z</time>
      </trkpt>
      <trkpt lat="42.8867080" lon="-8.4075370">
        <ele>348.6</ele>
        <time>2021-03-03T11:47:28Z</time>
      </trkpt>
      <trkpt lat="42.8866930" lon="-8.4075520">
        <ele>348.6</ele>
        <time>2021-03-03T11:47:29Z</time>
      </trkpt>
      <trkpt lat="42.8866810" lon="-8.4075700">
        <ele>348.8</ele>
        <time>2021-03-03T11:47:30Z</time>
      </trkpt>
      <trkpt lat="42.8866690" lon="-8.4075870">
        <ele>348.8</ele>
        <time>2021-03-03T11:47:31Z</time>
      </trkpt>
      <trkpt lat="42.8866590" lon="-8.4076010">
        <ele>348.8</ele>
        <time>2021-03-03T11:47:32Z</time>
      </trkpt>
      <trkpt lat="42.8866480" lon="-8.4076170">
        <ele>349.0</ele>
        <time>2021-03-03T11:47:33Z</time>
      </trkpt>
      <trkpt lat="42.8866360" lon="-8.4076330">
        <ele>349.2</ele>
        <time>2021-03-03T11:47:34Z</time>
      </trkpt>
      <trkpt lat="42.8866190" lon="-8.4076470">
        <ele>349.2</ele>
        <time>2021-03-03T11:47:35Z</time>
      </trkpt>
      <trkpt lat="42.8866010" lon="-8.4076630">
        <ele>349.4</ele>
        <time>2021-03-03T11:47:36Z</time>
      </trkpt>
      <trkpt lat="42.8865850" lon="-8.4076790">
        <ele>349.6</ele>
        <time>2021-03-03T11:47:37Z</time>
      </trkpt>
      <trkpt lat="42.8865700" lon="-8.4076970">
        <ele>349.8</ele>
        <time>2021-03-03T11:47:38Z</time>
      </trkpt>
      <trkpt lat="42.8865530" lon="-8.4077190">
        <ele>350.0</ele>
        <time>2021-03-03T11:47:39Z</time>
      </trkpt>
      <trkpt lat="42.8865400" lon="-8.4077370">
        <ele>350.0</ele>
        <time>2021-03-03T11:47:40Z</time>
      </trkpt>
      <trkpt lat="42.8865300" lon="-8.4077580">
        <ele>350.0</ele>
        <time>2021-03-03T11:47:41Z</time>
      </trkpt>
      <trkpt lat="42.8865190" lon="-8.4077770">
        <ele>350.4</ele>
        <time>2021-03-03T11:47:42Z</time>
      </trkpt>
      <trkpt lat="42.8865070" lon="-8.4077960">
        <ele>350.4</ele>
        <time>2021-03-03T11:47:43Z</time>
      </trkpt>
      <trkpt lat="42.8864920" lon="-8.4078170">
        <ele>350.8</ele>
        <time>2021-03-03T11:47:44Z</time>
      </trkpt>
      <trkpt lat="42.8864780" lon="-8.4078390">
        <ele>350.8</ele>
        <time>2021-03-03T11:47:45Z</time>
      </trkpt>
      <trkpt lat="42.8864610" lon="-8.4078590">
        <ele>351.0</ele>
        <time>2021-03-03T11:47:46Z</time>
      </trkpt>
      <trkpt lat="42.8864440" lon="-8.4078790">
        <ele>351.2</ele>
        <time>2021-03-03T11:47:47Z</time>
      </trkpt>
      <trkpt lat="42.8864290" lon="-8.4078990">
        <ele>351.4</ele>
        <time>2021-03-03T11:47:48Z</time>
      </trkpt>
      <trkpt lat="42.8864190" lon="-8.4079230">
        <ele>351.6</ele>
        <time>2021-03-03T11:47:49Z</time>
      </trkpt>
      <trkpt lat="42.8864060" lon="-8.4079460">
        <ele>351.8</ele>
        <time>2021-03-03T11:47:50Z</time>
      </trkpt>
      <trkpt lat="42.8863760" lon="-8.4079770">
        <ele>352.0</ele>
        <time>2021-03-03T11:47:51Z</time>
      </trkpt>
      <trkpt lat="42.8863540" lon="-8.4080030">
        <ele>352.2</ele>
        <time>2021-03-03T11:47:52Z</time>
      </trkpt>
      <trkpt lat="42.8863420" lon="-8.4080240">
        <ele>352.4</ele>
        <time>2021-03-03T11:47:53Z</time>
      </trkpt>
      <trkpt lat="42.8863190" lon="-8.4080430">
        <ele>352.4</ele>
        <time>2021-03-03T11:47:54Z</time>
      </trkpt>
      <trkpt lat="42.8863040" lon="-8.4080470">
        <ele>352.6</ele>
        <time>2021-03-03T11:47:55Z</time>
      </trkpt>
      <trkpt lat="42.8862780" lon="-8.4080600">
        <ele>352.6</ele>
        <time>2021-03-03T11:47:56Z</time>
      </trkpt>
      <trkpt lat="42.8862530" lon="-8.4080700">
        <ele>352.8</ele>
        <time>2021-03-03T11:47:57Z</time>
      </trkpt>
      <trkpt lat="42.8862340" lon="-8.4080800">
        <ele>353.0</ele>
        <time>2021-03-03T11:47:58Z</time>
      </trkpt>
      <trkpt lat="42.8862170" lon="-8.4081000">
        <ele>353.2</ele>
        <time>2021-03-03T11:47:59Z</time>
      </trkpt>
      <trkpt lat="42.8862050" lon="-8.4081270">
        <ele>353.2</ele>
        <time>2021-03-03T11:48:00Z</time>
      </trkpt>
      <trkpt lat="42.8861900" lon="-8.4081450">
        <ele>353.2</ele>
        <time>2021-03-03T11:48:01Z</time>
      </trkpt>
      <trkpt lat="42.8861700" lon="-8.4081610">
        <ele>353.2</ele>
        <time>2021-03-03T11:48:02Z</time>
      </trkpt>
      <trkpt lat="42.8861540" lon="-8.4081770">
        <ele>353.4</ele>
        <time>2021-03-03T11:48:03Z</time>
      </trkpt>
      <trkpt lat="42.8861380" lon="-8.4081940">
        <ele>353.6</ele>
        <time>2021-03-03T11:48:04Z</time>
      </trkpt>
      <trkpt lat="42.8861220" lon="-8.4082110">
        <ele>353.8</ele>
        <time>2021-03-03T11:48:05Z</time>
      </trkpt>
      <trkpt lat="42.8861040" lon="-8.4082260">
        <ele>354.0</ele>
        <time>2021-03-03T11:48:06Z</time>
      </trkpt>
      <trkpt lat="42.8860830" lon="-8.4082400">
        <ele>354.0</ele>
        <time>2021-03-03T11:48:07Z</time>
      </trkpt>
      <trkpt lat="42.8860570" lon="-8.4082570">
        <ele>354.2</ele>
        <time>2021-03-03T11:48:08Z</time>
      </trkpt>
      <trkpt lat="42.8860330" lon="-8.4082700">
        <ele>354.6</ele>
        <time>2021-03-03T11:48:09Z</time>
      </trkpt>
      <trkpt lat="42.8860080" lon="-8.4082840">
        <ele>354.8</ele>
        <time>2021-03-03T11:48:10Z</time>
      </trkpt>
      <trkpt lat="42.8859840" lon="-8.4082980">
        <ele>355.0</ele>
        <time>2021-03-03T11:48:11Z</time>
      </trkpt>
      <trkpt lat="42.8859610" lon="-8.4083120">
        <ele>355.2</ele>
        <time>2021-03-03T11:48:12Z</time>
      </trkpt>
      <trkpt lat="42.8859350" lon="-8.4083250">
        <ele>355.4</ele>
        <time>2021-03-03T11:48:13Z</time>
      </trkpt>
      <trkpt lat="42.8859110" lon="-8.4083390">
        <ele>355.6</ele>
        <time>2021-03-03T11:48:14Z</time>
      </trkpt>
      <trkpt lat="42.8858860" lon="-8.4083550">
        <ele>355.8</ele>
        <time>2021-03-03T11:48:15Z</time>
      </trkpt>
      <trkpt lat="42.8858590" lon="-8.4083690">
        <ele>356.0</ele>
        <time>2021-03-03T11:48:16Z</time>
      </trkpt>
      <trkpt lat="42.8858300" lon="-8.4083850">
        <ele>356.4</ele>
        <time>2021-03-03T11:48:17Z</time>
      </trkpt>
      <trkpt lat="42.8858030" lon="-8.4084060">
        <ele>356.6</ele>
        <time>2021-03-03T11:48:18Z</time>
      </trkpt>
      <trkpt lat="42.8857780" lon="-8.4084270">
        <ele>356.8</ele>
        <time>2021-03-03T11:48:19Z</time>
      </trkpt>
      <trkpt lat="42.8857570" lon="-8.4084420">
        <ele>357.0</ele>
        <time>2021-03-03T11:48:20Z</time>
      </trkpt>
      <trkpt lat="42.8857390" lon="-8.4084550">
        <ele>357.0</ele>
        <time>2021-03-03T11:48:21Z</time>
      </trkpt>
      <trkpt lat="42.8857180" lon="-8.4084690">
        <ele>357.2</ele>
        <time>2021-03-03T11:48:22Z</time>
      </trkpt>
      <trkpt lat="42.8856970" lon="-8.4084830">
        <ele>357.4</ele>
        <time>2021-03-03T11:48:23Z</time>
      </trkpt>
      <trkpt lat="42.8856730" lon="-8.4084940">
        <ele>357.8</ele>
        <time>2021-03-03T11:48:24Z</time>
      </trkpt>
      <trkpt lat="42.8856490" lon="-8.4085100">
        <ele>358.0</ele>
        <time>2021-03-03T11:48:25Z</time>
      </trkpt>
      <trkpt lat="42.8856280" lon="-8.4085330">
        <ele>358.0</ele>
        <time>2021-03-03T11:48:26Z</time>
      </trkpt>
      <trkpt lat="42.8856080" lon="-8.4085730">
        <ele>358.2</ele>
        <time>2021-03-03T11:48:27Z</time>
      </trkpt>
      <trkpt lat="42.8855970" lon="-8.4085980">
        <ele>358.2</ele>
        <time>2021-03-03T11:48:28Z</time>
      </trkpt>
      <trkpt lat="42.8855770" lon="-8.4086210">
        <ele>358.2</ele>
        <time>2021-03-03T11:48:29Z</time>
      </trkpt>
      <trkpt lat="42.8855530" lon="-8.4086410">
        <ele>358.2</ele>
        <time>2021-03-03T11:48:30Z</time>
      </trkpt>
      <trkpt lat="42.8855350" lon="-8.4086540">
        <ele>358.6</ele>
        <time>2021-03-03T11:48:31Z</time>
      </trkpt>
      <trkpt lat="42.8855140" lon="-8.4086640">
        <ele>358.8</ele>
        <time>2021-03-03T11:48:32Z</time>
      </trkpt>
      <trkpt lat="42.8854890" lon="-8.4086800">
        <ele>359.0</ele>
        <time>2021-03-03T11:48:33Z</time>
      </trkpt>
      <trkpt lat="42.8854670" lon="-8.4086930">
        <ele>359.0</ele>
        <time>2021-03-03T11:48:34Z</time>
      </trkpt>
      <trkpt lat="42.8854440" lon="-8.4087060">
        <ele>359.2</ele>
        <time>2021-03-03T11:48:35Z</time>
      </trkpt>
      <trkpt lat="42.8854190" lon="-8.4087230">
        <ele>359.2</ele>
        <time>2021-03-03T11:48:36Z</time>
      </trkpt>
      <trkpt lat="42.8853950" lon="-8.4087480">
        <ele>359.4</ele>
        <time>2021-03-03T11:48:37Z</time>
      </trkpt>
      <trkpt lat="42.8853780" lon="-8.4087640">
        <ele>359.6</ele>
        <time>2021-03-03T11:48:38Z</time>
      </trkpt>
      <trkpt lat="42.8853550" lon="-8.4087850">
        <ele>359.6</ele>
        <time>2021-03-03T11:48:39Z</time>
      </trkpt>
      <trkpt lat="42.8853320" lon="-8.4088010">
        <ele>359.8</ele>
        <time>2021-03-03T11:48:40Z</time>
      </trkpt>
      <trkpt lat="42.8853070" lon="-8.4088130">
        <ele>360.0</ele>
        <time>2021-03-03T11:48:41Z</time>
      </trkpt>
      <trkpt lat="42.8852820" lon="-8.4088250">
        <ele>360.2</ele>
        <time>2021-03-03T11:48:42Z</time>
      </trkpt>
      <trkpt lat="42.8852580" lon="-8.4088380">
        <ele>360.6</ele>
        <time>2021-03-03T11:48:43Z</time>
      </trkpt>
      <trkpt lat="42.8852320" lon="-8.4088490">
        <ele>360.8</ele>
        <time>2021-03-03T11:48:44Z</time>
      </trkpt>
      <trkpt lat="42.8852080" lon="-8.4088580">
        <ele>361.0</ele>
        <time>2021-03-03T11:48:45Z</time>
      </trkpt>
      <trkpt lat="42.8851850" lon="-8.4088700">
        <ele>361.2</ele>
        <time>2021-03-03T11:48:46Z</time>
      </trkpt>
      <trkpt lat="42.8851580" lon="-8.4088810">
        <ele>361.2</ele>
        <time>2021-03-03T11:48:47Z</time>
      </trkpt>
      <trkpt lat="42.8851320" lon="-8.4088940">
        <ele>361.4</ele>
        <time>2021-03-03T11:48:48Z</time>
      </trkpt>
      <trkpt lat="42.8851040" lon="-8.4089070">
        <ele>361.4</ele>
        <time>2021-03-03T11:48:49Z</time>
      </trkpt>
      <trkpt lat="42.8850770" lon="-8.4089180">
        <ele>361.4</ele>
        <time>2021-03-03T11:48:50Z</time>
      </trkpt>
      <trkpt lat="42.8850530" lon="-8.4089300">
        <ele>361.6</ele>
        <time>2021-03-03T11:48:51Z</time>
      </trkpt>
      <trkpt lat="42.8850280" lon="-8.4089400">
        <ele>361.6</ele>
        <time>2021-03-03T11:48:52Z</time>
      </trkpt>
      <trkpt lat="42.8850010" lon="-8.4089500">
        <ele>361.8</ele>
        <time>2021-03-03T11:48:53Z</time>
      </trkpt>
      <trkpt lat="42.8849760" lon="-8.4089640">
        <ele>362.0</ele>
        <time>2021-03-03T11:48:54Z</time>
      </trkpt>
      <trkpt lat="42.8849500" lon="-8.4089740">
        <ele>362.2</ele>
        <time>2021-03-03T11:48:55Z</time>
      </trkpt>
      <trkpt lat="42.8849240" lon="-8.4089830">
        <ele>362.2</ele>
        <time>2021-03-03T11:48:56Z</time>
      </trkpt>
      <trkpt lat="42.8848980" lon="-8.4089940">
        <ele>362.4</ele>
        <time>2021-03-03T11:48:57Z</time>
      </trkpt>
      <trkpt lat="42.8848720" lon="-8.4090040">
        <ele>362.4</ele>
        <time>2021-03-03T11:48:58Z</time>
      </trkpt>
      <trkpt lat="42.8848470" lon="-8.4090130">
        <ele>362.6</ele>
        <time>2021-03-03T11:48:59Z</time>
      </trkpt>
      <trkpt lat="42.8848210" lon="-8.4090230">
        <ele>362.6</ele>
        <time>2021-03-03T11:49:00Z</time>
      </trkpt>
      <trkpt lat="42.8847960" lon="-8.4090290">
        <ele>362.6</ele>
        <time>2021-03-03T11:49:01Z</time>
      </trkpt>
      <trkpt lat="42.8847720" lon="-8.4090380">
        <ele>362.6</ele>
        <time>2021-03-03T11:49:02Z</time>
      </trkpt>
      <trkpt lat="42.8847460" lon="-8.4090450">
        <ele>362.8</ele>
        <time>2021-03-03T11:49:03Z</time>
      </trkpt>
      <trkpt lat="42.8847190" lon="-8.4090460">
        <ele>362.8</ele>
        <time>2021-03-03T11:49:04Z</time>
      </trkpt>
      <trkpt lat="42.8846900" lon="-8.4090420">
        <ele>362.8</ele>
        <time>2021-03-03T11:49:05Z</time>
      </trkpt>
      <trkpt lat="42.8846610" lon="-8.4090410">
        <ele>363.0</ele>
        <time>2021-03-03T11:49:06Z</time>
      </trkpt>
      <trkpt lat="42.8846320" lon="-8.4090440">
        <ele>363.0</ele>
        <time>2021-03-03T11:49:07Z</time>
      </trkpt>
      <trkpt lat="42.8846030" lon="-8.4090430">
        <ele>363.2</ele>
        <time>2021-03-03T11:49:08Z</time>
      </trkpt>
      <trkpt lat="42.8845740" lon="-8.4090400">
        <ele>363.2</ele>
        <time>2021-03-03T11:49:09Z</time>
      </trkpt>
      <trkpt lat="42.8845440" lon="-8.4090370">
        <ele>363.4</ele>
        <time>2021-03-03T11:49:10Z</time>
      </trkpt>
      <trkpt lat="42.8845130" lon="-8.4090320">
        <ele>363.4</ele>
        <time>2021-03-03T11:49:11Z</time>
      </trkpt>
      <trkpt lat="42.8844820" lon="-8.4090250">
        <ele>363.4</ele>
        <time>2021-03-03T11:49:12Z</time>
      </trkpt>
      <trkpt lat="42.8844510" lon="-8.4090180">
        <ele>363.6</ele>
        <time>2021-03-03T11:49:13Z</time>
      </trkpt>
      <trkpt lat="42.8844210" lon="-8.4090100">
        <ele>363.6</ele>
        <time>2021-03-03T11:49:14Z</time>
      </trkpt>
      <trkpt lat="42.8843910" lon="-8.4089980">
        <ele>363.6</ele>
        <time>2021-03-03T11:49:15Z</time>
      </trkpt>
      <trkpt lat="42.8843600" lon="-8.4089860">
        <ele>363.8</ele>
        <time>2021-03-03T11:49:16Z</time>
      </trkpt>
      <trkpt lat="42.8843310" lon="-8.4089740">
        <ele>363.8</ele>
        <time>2021-03-03T11:49:17Z</time>
      </trkpt>
      <trkpt lat="42.8843030" lon="-8.4089610">
        <ele>363.8</ele>
        <time>2021-03-03T11:49:18Z</time>
      </trkpt>
      <trkpt lat="42.8842750" lon="-8.4089490">
        <ele>364.0</ele>
        <time>2021-03-03T11:49:19Z</time>
      </trkpt>
      <trkpt lat="42.8842460" lon="-8.4089380">
        <ele>364.0</ele>
        <time>2021-03-03T11:49:20Z</time>
      </trkpt>
      <trkpt lat="42.8842170" lon="-8.4089260">
        <ele>364.2</ele>
        <time>2021-03-03T11:49:21Z</time>
      </trkpt>
      <trkpt lat="42.8841870" lon="-8.4089180">
        <ele>364.2</ele>
        <time>2021-03-03T11:49:22Z</time>
      </trkpt>
      <trkpt lat="42.8841590" lon="-8.4089120">
        <ele>364.2</ele>
        <time>2021-03-03T11:49:23Z</time>
      </trkpt>
      <trkpt lat="42.8841310" lon="-8.4089020">
        <ele>364.2</ele>
        <time>2021-03-03T11:49:24Z</time>
      </trkpt>
      <trkpt lat="42.8841030" lon="-8.4088960">
        <ele>364.2</ele>
        <time>2021-03-03T11:49:25Z</time>
      </trkpt>
      <trkpt lat="42.8840730" lon="-8.4088910">
        <ele>364.0</ele>
        <time>2021-03-03T11:49:26Z</time>
      </trkpt>
      <trkpt lat="42.8840440" lon="-8.4088860">
        <ele>364.2</ele>
        <time>2021-03-03T11:49:27Z</time>
      </trkpt>
      <trkpt lat="42.8840150" lon="-8.4088770">
        <ele>364.4</ele>
        <time>2021-03-03T11:49:28Z</time>
      </trkpt>
      <trkpt lat="42.8839850" lon="-8.4088710">
        <ele>364.4</ele>
        <time>2021-03-03T11:49:29Z</time>
      </trkpt>
      <trkpt lat="42.8839560" lon="-8.4088680">
        <ele>364.4</ele>
        <time>2021-03-03T11:49:30Z</time>
      </trkpt>
      <trkpt lat="42.8839270" lon="-8.4088630">
        <ele>364.4</ele>
        <time>2021-03-03T11:49:31Z</time>
      </trkpt>
      <trkpt lat="42.8838980" lon="-8.4088550">
        <ele>364.6</ele>
        <time>2021-03-03T11:49:32Z</time>
      </trkpt>
      <trkpt lat="42.8838700" lon="-8.4088470">
        <ele>364.6</ele>
        <time>2021-03-03T11:49:33Z</time>
      </trkpt>
      <trkpt lat="42.8838430" lon="-8.4088450">
        <ele>364.8</ele>
        <time>2021-03-03T11:49:34Z</time>
      </trkpt>
      <trkpt lat="42.8838150" lon="-8.4088420">
        <ele>365.0</ele>
        <time>2021-03-03T11:49:35Z</time>
      </trkpt>
      <trkpt lat="42.8837890" lon="-8.4088330">
        <ele>365.0</ele>
        <time>2021-03-03T11:49:36Z</time>
      </trkpt>
      <trkpt lat="42.8837610" lon="-8.4088260">
        <ele>365.2</ele>
        <time>2021-03-03T11:49:37Z</time>
      </trkpt>
      <trkpt lat="42.8837340" lon="-8.4088200">
        <ele>365.2</ele>
        <time>2021-03-03T11:49:38Z</time>
      </trkpt>
      <trkpt lat="42.8837060" lon="-8.4088140">
        <ele>365.2</ele>
        <time>2021-03-03T11:49:39Z</time>
      </trkpt>
      <trkpt lat="42.8836770" lon="-8.4088110">
        <ele>365.0</ele>
        <time>2021-03-03T11:49:40Z</time>
      </trkpt>
      <trkpt lat="42.8836470" lon="-8.4088070">
        <ele>365.0</ele>
        <time>2021-03-03T11:49:41Z</time>
      </trkpt>
      <trkpt lat="42.8836160" lon="-8.4088040">
        <ele>365.0</ele>
        <time>2021-03-03T11:49:42Z</time>
      </trkpt>
      <trkpt lat="42.8835860" lon="-8.4088020">
        <ele>364.8</ele>
        <time>2021-03-03T11:49:43Z</time>
      </trkpt>
      <trkpt lat="42.8835560" lon="-8.4088050">
        <ele>364.8</ele>
        <time>2021-03-03T11:49:44Z</time>
      </trkpt>
      <trkpt lat="42.8835240" lon="-8.4088060">
        <ele>364.6</ele>
        <time>2021-03-03T11:49:45Z</time>
      </trkpt>
      <trkpt lat="42.8834940" lon="-8.4088070">
        <ele>364.4</ele>
        <time>2021-03-03T11:49:46Z</time>
      </trkpt>
      <trkpt lat="42.8834640" lon="-8.4088090">
        <ele>364.4</ele>
        <time>2021-03-03T11:49:47Z</time>
      </trkpt>
      <trkpt lat="42.8834350" lon="-8.4088170">
        <ele>364.2</ele>
        <time>2021-03-03T11:49:48Z</time>
      </trkpt>
      <trkpt lat="42.8834040" lon="-8.4088310">
        <ele>364.2</ele>
        <time>2021-03-03T11:49:49Z</time>
      </trkpt>
      <trkpt lat="42.8833760" lon="-8.4088460">
        <ele>364.0</ele>
        <time>2021-03-03T11:49:50Z</time>
      </trkpt>
      <trkpt lat="42.8833410" lon="-8.4088610">
        <ele>363.8</ele>
        <time>2021-03-03T11:49:51Z</time>
      </trkpt>
      <trkpt lat="42.8833180" lon="-8.4088720">
        <ele>363.6</ele>
        <time>2021-03-03T11:49:52Z</time>
      </trkpt>
      <trkpt lat="42.8832890" lon="-8.4088890">
        <ele>363.4</ele>
        <time>2021-03-03T11:49:53Z</time>
      </trkpt>
      <trkpt lat="42.8832620" lon="-8.4089060">
        <ele>363.2</ele>
        <time>2021-03-03T11:49:54Z</time>
      </trkpt>
      <trkpt lat="42.8832330" lon="-8.4089290">
        <ele>363.2</ele>
        <time>2021-03-03T11:49:55Z</time>
      </trkpt>
      <trkpt lat="42.8832040" lon="-8.4089570">
        <ele>363.0</ele>
        <time>2021-03-03T11:49:56Z</time>
      </trkpt>
      <trkpt lat="42.8831840" lon="-8.4089780">
        <ele>362.8</ele>
        <time>2021-03-03T11:49:57Z</time>
      </trkpt>
      <trkpt lat="42.8831600" lon="-8.4090030">
        <ele>362.8</ele>
        <time>2021-03-03T11:49:58Z</time>
      </trkpt>
      <trkpt lat="42.8831370" lon="-8.4090280">
        <ele>362.6</ele>
        <time>2021-03-03T11:49:59Z</time>
      </trkpt>
      <trkpt lat="42.8831140" lon="-8.4090550">
        <ele>362.4</ele>
        <time>2021-03-03T11:50:00Z</time>
      </trkpt>
      <trkpt lat="42.8830920" lon="-8.4090850">
        <ele>362.2</ele>
        <time>2021-03-03T11:50:01Z</time>
      </trkpt>
      <trkpt lat="42.8830700" lon="-8.4091150">
        <ele>362.2</ele>
        <time>2021-03-03T11:50:02Z</time>
      </trkpt>
      <trkpt lat="42.8830480" lon="-8.4091420">
        <ele>362.0</ele>
        <time>2021-03-03T11:50:03Z</time>
      </trkpt>
      <trkpt lat="42.8830250" lon="-8.4091690">
        <ele>361.8</ele>
        <time>2021-03-03T11:50:04Z</time>
      </trkpt>
      <trkpt lat="42.8829990" lon="-8.4091980">
        <ele>361.8</ele>
        <time>2021-03-03T11:50:05Z</time>
      </trkpt>
      <trkpt lat="42.8829740" lon="-8.4092260">
        <ele>361.6</ele>
        <time>2021-03-03T11:50:06Z</time>
      </trkpt>
      <trkpt lat="42.8829500" lon="-8.4092530">
        <ele>361.6</ele>
        <time>2021-03-03T11:50:07Z</time>
      </trkpt>
      <trkpt lat="42.8829270" lon="-8.4092800">
        <ele>361.2</ele>
        <time>2021-03-03T11:50:08Z</time>
      </trkpt>
      <trkpt lat="42.8829050" lon="-8.4093030">
        <ele>361.0</ele>
        <time>2021-03-03T11:50:09Z</time>
      </trkpt>
      <trkpt lat="42.8828810" lon="-8.4093280">
        <ele>360.8</ele>
        <time>2021-03-03T11:50:10Z</time>
      </trkpt>
      <trkpt lat="42.8828570" lon="-8.4093570">
        <ele>360.6</ele>
        <time>2021-03-03T11:50:11Z</time>
      </trkpt>
      <trkpt lat="42.8828340" lon="-8.4093830">
        <ele>360.6</ele>
        <time>2021-03-03T11:50:12Z</time>
      </trkpt>
      <trkpt lat="42.8828110" lon="-8.4094080">
        <ele>360.4</ele>
        <time>2021-03-03T11:50:13Z</time>
      </trkpt>
      <trkpt lat="42.8827870" lon="-8.4094350">
        <ele>360.2</ele>
        <time>2021-03-03T11:50:14Z</time>
      </trkpt>
      <trkpt lat="42.8827640" lon="-8.4094620">
        <ele>360.0</ele>
        <time>2021-03-03T11:50:15Z</time>
      </trkpt>
      <trkpt lat="42.8827350" lon="-8.4094940">
        <ele>359.8</ele>
        <time>2021-03-03T11:50:16Z</time>
      </trkpt>
      <trkpt lat="42.8827170" lon="-8.4095180">
        <ele>359.6</ele>
        <time>2021-03-03T11:50:17Z</time>
      </trkpt>
      <trkpt lat="42.8826950" lon="-8.4095450">
        <ele>359.6</ele>
        <time>2021-03-03T11:50:18Z</time>
      </trkpt>
      <trkpt lat="42.8826710" lon="-8.4095720">
        <ele>359.2</ele>
        <time>2021-03-03T11:50:19Z</time>
      </trkpt>
      <trkpt lat="42.8826440" lon="-8.4096030">
        <ele>359.0</ele>
        <time>2021-03-03T11:50:20Z</time>
      </trkpt>
      <trkpt lat="42.8826200" lon="-8.4096310">
        <ele>358.8</ele>
        <time>2021-03-03T11:50:21Z</time>
      </trkpt>
      <trkpt lat="42.8825950" lon="-8.4096590">
        <ele>358.6</ele>
        <time>2021-03-03T11:50:22Z</time>
      </trkpt>
      <trkpt lat="42.8825700" lon="-8.4096890">
        <ele>358.4</ele>
        <time>2021-03-03T11:50:23Z</time>
      </trkpt>
      <trkpt lat="42.8825450" lon="-8.4097200">
        <ele>358.2</ele>
        <time>2021-03-03T11:50:24Z</time>
      </trkpt>
      <trkpt lat="42.8825180" lon="-8.4097600">
        <ele>358.0</ele>
        <time>2021-03-03T11:50:25Z</time>
      </trkpt>
      <trkpt lat="42.8825010" lon="-8.4097880">
        <ele>358.0</ele>
        <time>2021-03-03T11:50:26Z</time>
      </trkpt>
      <trkpt lat="42.8824810" lon="-8.4098170">
        <ele>357.8</ele>
        <time>2021-03-03T11:50:27Z</time>
      </trkpt>
      <trkpt lat="42.8824640" lon="-8.4098510">
        <ele>357.4</ele>
        <time>2021-03-03T11:50:28Z</time>
      </trkpt>
      <trkpt lat="42.8824480" lon="-8.4098880">
        <ele>357.2</ele>
        <time>2021-03-03T11:50:29Z</time>
      </trkpt>
      <trkpt lat="42.8824360" lon="-8.4099240">
        <ele>357.0</ele>
        <time>2021-03-03T11:50:30Z</time>
      </trkpt>
      <trkpt lat="42.8824260" lon="-8.4099630">
        <ele>356.4</ele>
        <time>2021-03-03T11:50:31Z</time>
      </trkpt>
      <trkpt lat="42.8824160" lon="-8.4100060">
        <ele>356.2</ele>
        <time>2021-03-03T11:50:32Z</time>
      </trkpt>
      <trkpt lat="42.8824060" lon="-8.4100500">
        <ele>355.6</ele>
        <time>2021-03-03T11:50:33Z</time>
      </trkpt>
      <trkpt lat="42.8823960" lon="-8.4100930">
        <ele>355.2</ele>
        <time>2021-03-03T11:50:34Z</time>
      </trkpt>
      <trkpt lat="42.8823850" lon="-8.4101370">
        <ele>354.6</ele>
        <time>2021-03-03T11:50:35Z</time>
      </trkpt>
      <trkpt lat="42.8823760" lon="-8.4101800">
        <ele>354.0</ele>
        <time>2021-03-03T11:50:36Z</time>
      </trkpt>
      <trkpt lat="42.8823630" lon="-8.4102210">
        <ele>353.6</ele>
        <time>2021-03-03T11:50:37Z</time>
      </trkpt>
      <trkpt lat="42.8823480" lon="-8.4102630">
        <ele>353.0</ele>
        <time>2021-03-03T11:50:38Z</time>
      </trkpt>
      <trkpt lat="42.8823360" lon="-8.4103060">
        <ele>352.4</ele>
        <time>2021-03-03T11:50:39Z</time>
      </trkpt>
      <trkpt lat="42.8823240" lon="-8.4103460">
        <ele>351.8</ele>
        <time>2021-03-03T11:50:40Z</time>
      </trkpt>
      <trkpt lat="42.8823090" lon="-8.4103870">
        <ele>351.2</ele>
        <time>2021-03-03T11:50:41Z</time>
      </trkpt>
      <trkpt lat="42.8822930" lon="-8.4104260">
        <ele>350.6</ele>
        <time>2021-03-03T11:50:42Z</time>
      </trkpt>
      <trkpt lat="42.8822730" lon="-8.4104630">
        <ele>350.0</ele>
        <time>2021-03-03T11:50:43Z</time>
      </trkpt>
      <trkpt lat="42.8822510" lon="-8.4105010">
        <ele>349.8</ele>
        <time>2021-03-03T11:50:44Z</time>
      </trkpt>
      <trkpt lat="42.8822320" lon="-8.4105340">
        <ele>349.4</ele>
        <time>2021-03-03T11:50:45Z</time>
      </trkpt>
      <trkpt lat="42.8822110" lon="-8.4105660">
        <ele>348.6</ele>
        <time>2021-03-03T11:50:46Z</time>
      </trkpt>
      <trkpt lat="42.8821880" lon="-8.4105990">
        <ele>347.8</ele>
        <time>2021-03-03T11:50:47Z</time>
      </trkpt>
      <trkpt lat="42.8821640" lon="-8.4106310">
        <ele>347.4</ele>
        <time>2021-03-03T11:50:48Z</time>
      </trkpt>
      <trkpt lat="42.8821430" lon="-8.4106680">
        <ele>346.6</ele>
        <time>2021-03-03T11:50:49Z</time>
      </trkpt>
      <trkpt lat="42.8821210" lon="-8.4107040">
        <ele>345.8</ele>
        <time>2021-03-03T11:50:50Z</time>
      </trkpt>
      <trkpt lat="42.8820980" lon="-8.4107410">
        <ele>345.0</ele>
        <time>2021-03-03T11:50:51Z</time>
      </trkpt>
      <trkpt lat="42.8820780" lon="-8.4107840">
        <ele>344.4</ele>
        <time>2021-03-03T11:50:52Z</time>
      </trkpt>
      <trkpt lat="42.8820580" lon="-8.4108270">
        <ele>343.4</ele>
        <time>2021-03-03T11:50:53Z</time>
      </trkpt>
      <trkpt lat="42.8820360" lon="-8.4108670">
        <ele>342.8</ele>
        <time>2021-03-03T11:50:54Z</time>
      </trkpt>
      <trkpt lat="42.8820150" lon="-8.4109070">
        <ele>342.2</ele>
        <time>2021-03-03T11:50:55Z</time>
      </trkpt>
      <trkpt lat="42.8819940" lon="-8.4109460">
        <ele>341.2</ele>
        <time>2021-03-03T11:50:56Z</time>
      </trkpt>
      <trkpt lat="42.8819710" lon="-8.4109860">
        <ele>340.6</ele>
        <time>2021-03-03T11:50:57Z</time>
      </trkpt>
      <trkpt lat="42.8819510" lon="-8.4110220">
        <ele>339.8</ele>
        <time>2021-03-03T11:50:58Z</time>
      </trkpt>
      <trkpt lat="42.8819360" lon="-8.4110560">
        <ele>339.2</ele>
        <time>2021-03-03T11:50:59Z</time>
      </trkpt>
      <trkpt lat="42.8819190" lon="-8.4110830">
        <ele>338.6</ele>
        <time>2021-03-03T11:51:00Z</time>
      </trkpt>
      <trkpt lat="42.8818960" lon="-8.4111090">
        <ele>338.2</ele>
        <time>2021-03-03T11:51:01Z</time>
      </trkpt>
      <trkpt lat="42.8818770" lon="-8.4111420">
        <ele>337.8</ele>
        <time>2021-03-03T11:51:02Z</time>
      </trkpt>
      <trkpt lat="42.8818610" lon="-8.4111800">
        <ele>337.6</ele>
        <time>2021-03-03T11:51:03Z</time>
      </trkpt>
      <trkpt lat="42.8818520" lon="-8.4112230">
        <ele>337.2</ele>
        <time>2021-03-03T11:51:04Z</time>
      </trkpt>
      <trkpt lat="42.8818480" lon="-8.4112650">
        <ele>336.8</ele>
        <time>2021-03-03T11:51:05Z</time>
      </trkpt>
      <trkpt lat="42.8818480" lon="-8.4113070">
        <ele>336.4</ele>
        <time>2021-03-03T11:51:06Z</time>
      </trkpt>
      <trkpt lat="42.8818540" lon="-8.4113490">
        <ele>336.0</ele>
        <time>2021-03-03T11:51:07Z</time>
      </trkpt>
      <trkpt lat="42.8818600" lon="-8.4113900">
        <ele>336.0</ele>
        <time>2021-03-03T11:51:08Z</time>
      </trkpt>
      <trkpt lat="42.8818670" lon="-8.4114250">
        <ele>335.8</ele>
        <time>2021-03-03T11:51:09Z</time>
      </trkpt>
      <trkpt lat="42.8818740" lon="-8.4114610">
        <ele>336.2</ele>
        <time>2021-03-03T11:51:10Z</time>
      </trkpt>
      <trkpt lat="42.8818780" lon="-8.4114950">
        <ele>336.2</ele>
        <time>2021-03-03T11:51:11Z</time>
      </trkpt>
      <trkpt lat="42.8818840" lon="-8.4115280">
        <ele>336.4</ele>
        <time>2021-03-03T11:51:12Z</time>
      </trkpt>
      <trkpt lat="42.8818890" lon="-8.4115580">
        <ele>336.6</ele>
        <time>2021-03-03T11:51:13Z</time>
      </trkpt>
      <trkpt lat="42.8818950" lon="-8.4115870">
        <ele>336.8</ele>
        <time>2021-03-03T11:51:14Z</time>
      </trkpt>
      <trkpt lat="42.8819010" lon="-8.4116130">
        <ele>337.2</ele>
        <time>2021-03-03T11:51:15Z</time>
      </trkpt>
      <trkpt lat="42.8819050" lon="-8.4116380">
        <ele>337.4</ele>
        <time>2021-03-03T11:51:16Z</time>
      </trkpt>
      <trkpt lat="42.8819110" lon="-8.4116610">
        <ele>337.6</ele>
        <time>2021-03-03T11:51:17Z</time>
      </trkpt>
      <trkpt lat="42.8819160" lon="-8.4116820">
        <ele>338.0</ele>
        <time>2021-03-03T11:51:18Z</time>
      </trkpt>
      <trkpt lat="42.8819210" lon="-8.4117040">
        <ele>338.2</ele>
        <time>2021-03-03T11:51:19Z</time>
      </trkpt>
      <trkpt lat="42.8819290" lon="-8.4117240">
        <ele>338.4</ele>
        <time>2021-03-03T11:51:20Z</time>
      </trkpt>
      <trkpt lat="42.8819350" lon="-8.4117440">
        <ele>338.6</ele>
        <time>2021-03-03T11:51:21Z</time>
      </trkpt>
      <trkpt lat="42.8819410" lon="-8.4117640">
        <ele>339.0</ele>
        <time>2021-03-03T11:51:22Z</time>
      </trkpt>
      <trkpt lat="42.8819480" lon="-8.4117810">
        <ele>339.4</ele>
        <time>2021-03-03T11:51:23Z</time>
      </trkpt>
      <trkpt lat="42.8819530" lon="-8.4117990">
        <ele>339.6</ele>
        <time>2021-03-03T11:51:24Z</time>
      </trkpt>
      <trkpt lat="42.8819570" lon="-8.4118170">
        <ele>339.8</ele>
        <time>2021-03-03T11:51:25Z</time>
      </trkpt>
      <trkpt lat="42.8819620" lon="-8.4118370">
        <ele>340.0</ele>
        <time>2021-03-03T11:51:26Z</time>
      </trkpt>
      <trkpt lat="42.8819720" lon="-8.4118630">
        <ele>340.2</ele>
        <time>2021-03-03T11:51:27Z</time>
      </trkpt>
      <trkpt lat="42.8819810" lon="-8.4118780">
        <ele>340.4</ele>
        <time>2021-03-03T11:51:28Z</time>
      </trkpt>
      <trkpt lat="42.8819920" lon="-8.4118950">
        <ele>340.8</ele>
        <time>2021-03-03T11:51:29Z</time>
      </trkpt>
      <trkpt lat="42.8820010" lon="-8.4119140">
        <ele>341.0</ele>
        <time>2021-03-03T11:51:30Z</time>
      </trkpt>
      <trkpt lat="42.8820120" lon="-8.4119320">
        <ele>341.0</ele>
        <time>2021-03-03T11:51:31Z</time>
      </trkpt>
      <trkpt lat="42.8820220" lon="-8.4119520">
        <ele>341.4</ele>
        <time>2021-03-03T11:51:32Z</time>
      </trkpt>
      <trkpt lat="42.8820320" lon="-8.4119720">
        <ele>341.8</ele>
        <time>2021-03-03T11:51:33Z</time>
      </trkpt>
      <trkpt lat="42.8820420" lon="-8.4119940">
        <ele>342.2</ele>
        <time>2021-03-03T11:51:34Z</time>
      </trkpt>
      <trkpt lat="42.8820520" lon="-8.4120140">
        <ele>342.4</ele>
        <time>2021-03-03T11:51:35Z</time>
      </trkpt>
      <trkpt lat="42.8820650" lon="-8.4120310">
        <ele>342.6</ele>
        <time>2021-03-03T11:51:36Z</time>
      </trkpt>
      <trkpt lat="42.8820780" lon="-8.4120470">
        <ele>343.0</ele>
        <time>2021-03-03T11:51:37Z</time>
      </trkpt>
      <trkpt lat="42.8820890" lon="-8.4120640">
        <ele>343.2</ele>
        <time>2021-03-03T11:51:38Z</time>
      </trkpt>
      <trkpt lat="42.8821010" lon="-8.4120810">
        <ele>343.6</ele>
        <time>2021-03-03T11:51:39Z</time>
      </trkpt>
      <trkpt lat="42.8821090" lon="-8.4120910">
        <ele>343.8</ele>
        <time>2021-03-03T11:51:40Z</time>
      </trkpt>
      <trkpt lat="42.8821180" lon="-8.4121050">
        <ele>344.2</ele>
        <time>2021-03-03T11:51:41Z</time>
      </trkpt>
      <trkpt lat="42.8821270" lon="-8.4121210">
        <ele>344.4</ele>
        <time>2021-03-03T11:51:42Z</time>
      </trkpt>
      <trkpt lat="42.8821370" lon="-8.4121350">
        <ele>344.8</ele>
        <time>2021-03-03T11:51:43Z</time>
      </trkpt>
      <trkpt lat="42.8821470" lon="-8.4121490">
        <ele>345.0</ele>
        <time>2021-03-03T11:51:44Z</time>
      </trkpt>
      <trkpt lat="42.8821590" lon="-8.4121600">
        <ele>345.6</ele>
        <time>2021-03-03T11:51:45Z</time>
      </trkpt>
      <trkpt lat="42.8821740" lon="-8.4121730">
        <ele>345.8</ele>
        <time>2021-03-03T11:51:46Z</time>
      </trkpt>
      <trkpt lat="42.8821900" lon="-8.4121820">
        <ele>346.0</ele>
        <time>2021-03-03T11:51:47Z</time>
      </trkpt>
      <trkpt lat="42.8822050" lon="-8.4121920">
        <ele>346.2</ele>
        <time>2021-03-03T11:51:48Z</time>
      </trkpt>
      <trkpt lat="42.8822200" lon="-8.4122040">
        <ele>346.4</ele>
        <time>2021-03-03T11:51:49Z</time>
      </trkpt>
      <trkpt lat="42.8822330" lon="-8.4122190">
        <ele>346.6</ele>
        <time>2021-03-03T11:51:50Z</time>
      </trkpt>
      <trkpt lat="42.8822460" lon="-8.4122340">
        <ele>346.8</ele>
        <time>2021-03-03T11:51:51Z</time>
      </trkpt>
      <trkpt lat="42.8822610" lon="-8.4122460">
        <ele>347.2</ele>
        <time>2021-03-03T11:51:52Z</time>
      </trkpt>
      <trkpt lat="42.8822760" lon="-8.4122580">
        <ele>347.6</ele>
        <time>2021-03-03T11:51:53Z</time>
      </trkpt>
      <trkpt lat="42.8822900" lon="-8.4122730">
        <ele>347.8</ele>
        <time>2021-03-03T11:51:54Z</time>
      </trkpt>
      <trkpt lat="42.8823020" lon="-8.4122900">
        <ele>348.0</ele>
        <time>2021-03-03T11:51:55Z</time>
      </trkpt>
      <trkpt lat="42.8823120" lon="-8.4123070">
        <ele>348.2</ele>
        <time>2021-03-03T11:51:56Z</time>
      </trkpt>
      <trkpt lat="42.8823210" lon="-8.4123250">
        <ele>348.4</ele>
        <time>2021-03-03T11:51:57Z</time>
      </trkpt>
      <trkpt lat="42.8823300" lon="-8.4123450">
        <ele>348.4</ele>
        <time>2021-03-03T11:51:58Z</time>
      </trkpt>
      <trkpt lat="42.8823390" lon="-8.4123630">
        <ele>348.6</ele>
        <time>2021-03-03T11:51:59Z</time>
      </trkpt>
      <trkpt lat="42.8823480" lon="-8.4123790">
        <ele>349.0</ele>
        <time>2021-03-03T11:52:00Z</time>
      </trkpt>
      <trkpt lat="42.8823560" lon="-8.4123980">
        <ele>349.2</ele>
        <time>2021-03-03T11:52:01Z</time>
      </trkpt>
      <trkpt lat="42.8823610" lon="-8.4124160">
        <ele>349.4</ele>
        <time>2021-03-03T11:52:02Z</time>
      </trkpt>
      <trkpt lat="42.8823670" lon="-8.4124340">
        <ele>349.6</ele>
        <time>2021-03-03T11:52:03Z</time>
      </trkpt>
      <trkpt lat="42.8823720" lon="-8.4124510">
        <ele>349.6</ele>
        <time>2021-03-03T11:52:04Z</time>
      </trkpt>
      <trkpt lat="42.8823770" lon="-8.4124730">
        <ele>349.6</ele>
        <time>2021-03-03T11:52:05Z</time>
      </trkpt>
      <trkpt lat="42.8823830" lon="-8.4124990">
        <ele>349.8</ele>
        <time>2021-03-03T11:52:06Z</time>
      </trkpt>
      <trkpt lat="42.8823880" lon="-8.4125260">
        <ele>349.8</ele>
        <time>2021-03-03T11:52:07Z</time>
      </trkpt>
      <trkpt lat="42.8823930" lon="-8.4125530">
        <ele>349.8</ele>
        <time>2021-03-03T11:52:08Z</time>
      </trkpt>
      <trkpt lat="42.8824020" lon="-8.4125860">
        <ele>349.8</ele>
        <time>2021-03-03T11:52:09Z</time>
      </trkpt>
      <trkpt lat="42.8824090" lon="-8.4126200">
        <ele>349.6</ele>
        <time>2021-03-03T11:52:10Z</time>
      </trkpt>
      <trkpt lat="42.8824120" lon="-8.4126560">
        <ele>349.2</ele>
        <time>2021-03-03T11:52:11Z</time>
      </trkpt>
      <trkpt lat="42.8824090" lon="-8.4126960">
        <ele>349.0</ele>
        <time>2021-03-03T11:52:12Z</time>
      </trkpt>
      <trkpt lat="42.8824110" lon="-8.4127360">
        <ele>349.0</ele>
        <time>2021-03-03T11:52:13Z</time>
      </trkpt>
      <trkpt lat="42.8824140" lon="-8.4127800">
        <ele>348.8</ele>
        <time>2021-03-03T11:52:14Z</time>
      </trkpt>
      <trkpt lat="42.8824190" lon="-8.4128120">
        <ele>348.6</ele>
        <time>2021-03-03T11:52:15Z</time>
      </trkpt>
      <trkpt lat="42.8824210" lon="-8.4128530">
        <ele>348.6</ele>
        <time>2021-03-03T11:52:16Z</time>
      </trkpt>
      <trkpt lat="42.8824240" lon="-8.4128930">
        <ele>348.6</ele>
        <time>2021-03-03T11:52:17Z</time>
      </trkpt>
      <trkpt lat="42.8824250" lon="-8.4129310">
        <ele>348.6</ele>
        <time>2021-03-03T11:52:18Z</time>
      </trkpt>
      <trkpt lat="42.8824250" lon="-8.4129690">
        <ele>348.6</ele>
        <time>2021-03-03T11:52:19Z</time>
      </trkpt>
      <trkpt lat="42.8824270" lon="-8.4130050">
        <ele>348.6</ele>
        <time>2021-03-03T11:52:20Z</time>
      </trkpt>
      <trkpt lat="42.8824280" lon="-8.4130430">
        <ele>348.8</ele>
        <time>2021-03-03T11:52:21Z</time>
      </trkpt>
      <trkpt lat="42.8824330" lon="-8.4130780">
        <ele>348.8</ele>
        <time>2021-03-03T11:52:22Z</time>
      </trkpt>
      <trkpt lat="42.8824380" lon="-8.4131110">
        <ele>348.8</ele>
        <time>2021-03-03T11:52:23Z</time>
      </trkpt>
      <trkpt lat="42.8824430" lon="-8.4131450">
        <ele>348.8</ele>
        <time>2021-03-03T11:52:24Z</time>
      </trkpt>
      <trkpt lat="42.8824490" lon="-8.4131790">
        <ele>348.8</ele>
        <time>2021-03-03T11:52:25Z</time>
      </trkpt>
      <trkpt lat="42.8824560" lon="-8.4132130">
        <ele>349.0</ele>
        <time>2021-03-03T11:52:26Z</time>
      </trkpt>
      <trkpt lat="42.8824660" lon="-8.4132460">
        <ele>349.0</ele>
        <time>2021-03-03T11:52:27Z</time>
      </trkpt>
      <trkpt lat="42.8824780" lon="-8.4132790">
        <ele>349.2</ele>
        <time>2021-03-03T11:52:28Z</time>
      </trkpt>
      <trkpt lat="42.8824940" lon="-8.4133040">
        <ele>349.2</ele>
        <time>2021-03-03T11:52:29Z</time>
      </trkpt>
      <trkpt lat="42.8825110" lon="-8.4133270">
        <ele>349.2</ele>
        <time>2021-03-03T11:52:30Z</time>
      </trkpt>
      <trkpt lat="42.8825300" lon="-8.4133460">
        <ele>349.4</ele>
        <time>2021-03-03T11:52:31Z</time>
      </trkpt>
      <trkpt lat="42.8825500" lon="-8.4133630">
        <ele>349.4</ele>
        <time>2021-03-03T11:52:32Z</time>
      </trkpt>
      <trkpt lat="42.8825720" lon="-8.4133770">
        <ele>349.6</ele>
        <time>2021-03-03T11:52:33Z</time>
      </trkpt>
      <trkpt lat="42.8825930" lon="-8.4133900">
        <ele>349.6</ele>
        <time>2021-03-03T11:52:34Z</time>
      </trkpt>
      <trkpt lat="42.8826110" lon="-8.4134010">
        <ele>349.8</ele>
        <time>2021-03-03T11:52:35Z</time>
      </trkpt>
      <trkpt lat="42.8826280" lon="-8.4134160">
        <ele>349.8</ele>
        <time>2021-03-03T11:52:36Z</time>
      </trkpt>
      <trkpt lat="42.8826460" lon="-8.4134300">
        <ele>350.2</ele>
        <time>2021-03-03T11:52:37Z</time>
      </trkpt>
      <trkpt lat="42.8826640" lon="-8.4134410">
        <ele>350.4</ele>
        <time>2021-03-03T11:52:38Z</time>
      </trkpt>
      <trkpt lat="42.8826850" lon="-8.4134510">
        <ele>350.6</ele>
        <time>2021-03-03T11:52:39Z</time>
      </trkpt>
      <trkpt lat="42.8827080" lon="-8.4134610">
        <ele>350.6</ele>
        <time>2021-03-03T11:52:40Z</time>
      </trkpt>
      <trkpt lat="42.8827260" lon="-8.4134710">
        <ele>350.8</ele>
        <time>2021-03-03T11:52:41Z</time>
      </trkpt>
      <trkpt lat="42.8827460" lon="-8.4134820">
        <ele>351.2</ele>
        <time>2021-03-03T11:52:42Z</time>
      </trkpt>
      <trkpt lat="42.8827670" lon="-8.4134950">
        <ele>351.4</ele>
        <time>2021-03-03T11:52:43Z</time>
      </trkpt>
      <trkpt lat="42.8827850" lon="-8.4135020">
        <ele>351.4</ele>
        <time>2021-03-03T11:52:44Z</time>
      </trkpt>
      <trkpt lat="42.8828030" lon="-8.4135110">
        <ele>351.6</ele>
        <time>2021-03-03T11:52:45Z</time>
      </trkpt>
      <trkpt lat="42.8828170" lon="-8.4135200">
        <ele>351.8</ele>
        <time>2021-03-03T11:52:46Z</time>
      </trkpt>
      <trkpt lat="42.8828320" lon="-8.4135300">
        <ele>352.0</ele>
        <time>2021-03-03T11:52:47Z</time>
      </trkpt>
      <trkpt lat="42.8828440" lon="-8.4135370">
        <ele>352.2</ele>
        <time>2021-03-03T11:52:48Z</time>
      </trkpt>
      <trkpt lat="42.8828570" lon="-8.4135450">
        <ele>352.4</ele>
        <time>2021-03-03T11:52:49Z</time>
      </trkpt>
      <trkpt lat="42.8828730" lon="-8.4135550">
        <ele>352.6</ele>
        <time>2021-03-03T11:52:50Z</time>
      </trkpt>
      <trkpt lat="42.8828880" lon="-8.4135660">
        <ele>352.8</ele>
        <time>2021-03-03T11:52:51Z</time>
      </trkpt>
      <trkpt lat="42.8829000" lon="-8.4135750">
        <ele>353.0</ele>
        <time>2021-03-03T11:52:52Z</time>
      </trkpt>
      <trkpt lat="42.8829140" lon="-8.4135810">
        <ele>353.2</ele>
        <time>2021-03-03T11:52:53Z</time>
      </trkpt>
      <trkpt lat="42.8829290" lon="-8.4135910">
        <ele>353.4</ele>
        <time>2021-03-03T11:52:54Z</time>
      </trkpt>
      <trkpt lat="42.8829430" lon="-8.4135990">
        <ele>353.6</ele>
        <time>2021-03-03T11:52:55Z</time>
      </trkpt>
      <trkpt lat="42.8829560" lon="-8.4136090">
        <ele>353.8</ele>
        <time>2021-03-03T11:52:56Z</time>
      </trkpt>
      <trkpt lat="42.8829690" lon="-8.4136220">
        <ele>354.0</ele>
        <time>2021-03-03T11:52:57Z</time>
      </trkpt>
      <trkpt lat="42.8829830" lon="-8.4136360">
        <ele>354.2</ele>
        <time>2021-03-03T11:52:58Z</time>
      </trkpt>
      <trkpt lat="42.8829980" lon="-8.4136500">
        <ele>354.6</ele>
        <time>2021-03-03T11:52:59Z</time>
      </trkpt>
      <trkpt lat="42.8830120" lon="-8.4136630">
        <ele>354.6</ele>
        <time>2021-03-03T11:53:00Z</time>
      </trkpt>
      <trkpt lat="42.8830270" lon="-8.4136720">
        <ele>354.8</ele>
        <time>2021-03-03T11:53:01Z</time>
      </trkpt>
      <trkpt lat="42.8830490" lon="-8.4136860">
        <ele>355.0</ele>
        <time>2021-03-03T11:53:02Z</time>
      </trkpt>
      <trkpt lat="42.8830680" lon="-8.4136920">
        <ele>355.4</ele>
        <time>2021-03-03T11:53:03Z</time>
      </trkpt>
      <trkpt lat="42.8830870" lon="-8.4137040">
        <ele>355.4</ele>
        <time>2021-03-03T11:53:04Z</time>
      </trkpt>
      <trkpt lat="42.8831030" lon="-8.4137210">
        <ele>355.6</ele>
        <time>2021-03-03T11:53:05Z</time>
      </trkpt>
      <trkpt lat="42.8831230" lon="-8.4137390">
        <ele>355.8</ele>
        <time>2021-03-03T11:53:06Z</time>
      </trkpt>
      <trkpt lat="42.8831410" lon="-8.4137560">
        <ele>355.8</ele>
        <time>2021-03-03T11:53:07Z</time>
      </trkpt>
      <trkpt lat="42.8831570" lon="-8.4137730">
        <ele>356.0</ele>
        <time>2021-03-03T11:53:08Z</time>
      </trkpt>
      <trkpt lat="42.8831740" lon="-8.4137870">
        <ele>356.2</ele>
        <time>2021-03-03T11:53:09Z</time>
      </trkpt>
      <trkpt lat="42.8831890" lon="-8.4138010">
        <ele>356.4</ele>
        <time>2021-03-03T11:53:10Z</time>
      </trkpt>
      <trkpt lat="42.8832000" lon="-8.4138100">
        <ele>356.6</ele>
        <time>2021-03-03T11:53:11Z</time>
      </trkpt>
      <trkpt lat="42.8832100" lon="-8.4138230">
        <ele>356.8</ele>
        <time>2021-03-03T11:53:12Z</time>
      </trkpt>
      <trkpt lat="42.8832200" lon="-8.4138360">
        <ele>357.0</ele>
        <time>2021-03-03T11:53:13Z</time>
      </trkpt>
      <trkpt lat="42.8832270" lon="-8.4138470">
        <ele>357.2</ele>
        <time>2021-03-03T11:53:14Z</time>
      </trkpt>
      <trkpt lat="42.8832350" lon="-8.4138580">
        <ele>357.4</ele>
        <time>2021-03-03T11:53:15Z</time>
      </trkpt>
      <trkpt lat="42.8832440" lon="-8.4138650">
        <ele>357.6</ele>
        <time>2021-03-03T11:53:16Z</time>
      </trkpt>
      <trkpt lat="42.8832550" lon="-8.4138710">
        <ele>357.8</ele>
        <time>2021-03-03T11:53:17Z</time>
      </trkpt>
      <trkpt lat="42.8832680" lon="-8.4138810">
        <ele>358.0</ele>
        <time>2021-03-03T11:53:18Z</time>
      </trkpt>
      <trkpt lat="42.8832860" lon="-8.4138920">
        <ele>358.2</ele>
        <time>2021-03-03T11:53:19Z</time>
      </trkpt>
      <trkpt lat="42.8832980" lon="-8.4139010">
        <ele>358.4</ele>
        <time>2021-03-03T11:53:20Z</time>
      </trkpt>
      <trkpt lat="42.8833120" lon="-8.4139090">
        <ele>358.6</ele>
        <time>2021-03-03T11:53:21Z</time>
      </trkpt>
      <trkpt lat="42.8833250" lon="-8.4139180">
        <ele>358.8</ele>
        <time>2021-03-03T11:53:22Z</time>
      </trkpt>
      <trkpt lat="42.8833400" lon="-8.4139290">
        <ele>359.2</ele>
        <time>2021-03-03T11:53:23Z</time>
      </trkpt>
      <trkpt lat="42.8833570" lon="-8.4139410">
        <ele>359.4</ele>
        <time>2021-03-03T11:53:24Z</time>
      </trkpt>
      <trkpt lat="42.8833730" lon="-8.4139550">
        <ele>359.4</ele>
        <time>2021-03-03T11:53:25Z</time>
      </trkpt>
      <trkpt lat="42.8833900" lon="-8.4139690">
        <ele>359.6</ele>
        <time>2021-03-03T11:53:26Z</time>
      </trkpt>
      <trkpt lat="42.8834020" lon="-8.4139840">
        <ele>359.8</ele>
        <time>2021-03-03T11:53:27Z</time>
      </trkpt>
      <trkpt lat="42.8834180" lon="-8.4139980">
        <ele>360.0</ele>
        <time>2021-03-03T11:53:28Z</time>
      </trkpt>
      <trkpt lat="42.8834340" lon="-8.4140100">
        <ele>360.2</ele>
        <time>2021-03-03T11:53:29Z</time>
      </trkpt>
      <trkpt lat="42.8834510" lon="-8.4140220">
        <ele>360.4</ele>
        <time>2021-03-03T11:53:30Z</time>
      </trkpt>
      <trkpt lat="42.8834700" lon="-8.4140330">
        <ele>360.6</ele>
        <time>2021-03-03T11:53:31Z</time>
      </trkpt>
      <trkpt lat="42.8834870" lon="-8.4140410">
        <ele>360.8</ele>
        <time>2021-03-03T11:53:32Z</time>
      </trkpt>
      <trkpt lat="42.8835050" lon="-8.4140490">
        <ele>361.0</ele>
        <time>2021-03-03T11:53:33Z</time>
      </trkpt>
      <trkpt lat="42.8835230" lon="-8.4140600">
        <ele>361.0</ele>
        <time>2021-03-03T11:53:34Z</time>
      </trkpt>
      <trkpt lat="42.8835420" lon="-8.4140720">
        <ele>361.2</ele>
        <time>2021-03-03T11:53:35Z</time>
      </trkpt>
      <trkpt lat="42.8835610" lon="-8.4140800">
        <ele>361.4</ele>
        <time>2021-03-03T11:53:36Z</time>
      </trkpt>
      <trkpt lat="42.8835800" lon="-8.4140900">
        <ele>361.6</ele>
        <time>2021-03-03T11:53:37Z</time>
      </trkpt>
      <trkpt lat="42.8835940" lon="-8.4140970">
        <ele>361.8</ele>
        <time>2021-03-03T11:53:38Z</time>
      </trkpt>
      <trkpt lat="42.8836080" lon="-8.4141000">
        <ele>362.0</ele>
        <time>2021-03-03T11:53:39Z</time>
      </trkpt>
      <trkpt lat="42.8836240" lon="-8.4141020">
        <ele>362.2</ele>
        <time>2021-03-03T11:53:40Z</time>
      </trkpt>
      <trkpt lat="42.8836390" lon="-8.4141040">
        <ele>362.2</ele>
        <time>2021-03-03T11:53:41Z</time>
      </trkpt>
      <trkpt lat="42.8836560" lon="-8.4141120">
        <ele>362.2</ele>
        <time>2021-03-03T11:53:42Z</time>
      </trkpt>
      <trkpt lat="42.8836720" lon="-8.4141230">
        <ele>362.6</ele>
        <time>2021-03-03T11:53:43Z</time>
      </trkpt>
      <trkpt lat="42.8836870" lon="-8.4141320">
        <ele>362.8</ele>
        <time>2021-03-03T11:53:44Z</time>
      </trkpt>
      <trkpt lat="42.8837030" lon="-8.4141410">
        <ele>363.0</ele>
        <time>2021-03-03T11:53:45Z</time>
      </trkpt>
      <trkpt lat="42.8837210" lon="-8.4141490">
        <ele>363.0</ele>
        <time>2021-03-03T11:53:46Z</time>
      </trkpt>
      <trkpt lat="42.8837410" lon="-8.4141540">
        <ele>363.2</ele>
        <time>2021-03-03T11:53:47Z</time>
      </trkpt>
      <trkpt lat="42.8837600" lon="-8.4141610">
        <ele>363.2</ele>
        <time>2021-03-03T11:53:48Z</time>
      </trkpt>
      <trkpt lat="42.8837750" lon="-8.4141670">
        <ele>363.4</ele>
        <time>2021-03-03T11:53:49Z</time>
      </trkpt>
      <trkpt lat="42.8837900" lon="-8.4141750">
        <ele>363.8</ele>
        <time>2021-03-03T11:53:50Z</time>
      </trkpt>
      <trkpt lat="42.8838050" lon="-8.4141870">
        <ele>364.0</ele>
        <time>2021-03-03T11:53:51Z</time>
      </trkpt>
      <trkpt lat="42.8838290" lon="-8.4142000">
        <ele>364.0</ele>
        <time>2021-03-03T11:53:52Z</time>
      </trkpt>
      <trkpt lat="42.8838480" lon="-8.4142090">
        <ele>364.2</ele>
        <time>2021-03-03T11:53:53Z</time>
      </trkpt>
      <trkpt lat="42.8838660" lon="-8.4142190">
        <ele>364.2</ele>
        <time>2021-03-03T11:53:54Z</time>
      </trkpt>
      <trkpt lat="42.8838790" lon="-8.4142240">
        <ele>364.4</ele>
        <time>2021-03-03T11:53:55Z</time>
      </trkpt>
      <trkpt lat="42.8838960" lon="-8.4142320">
        <ele>364.6</ele>
        <time>2021-03-03T11:53:56Z</time>
      </trkpt>
      <trkpt lat="42.8839080" lon="-8.4142420">
        <ele>364.8</ele>
        <time>2021-03-03T11:53:57Z</time>
      </trkpt>
      <trkpt lat="42.8839180" lon="-8.4142500">
        <ele>364.8</ele>
        <time>2021-03-03T11:53:58Z</time>
      </trkpt>
      <trkpt lat="42.8839300" lon="-8.4142580">
        <ele>365.2</ele>
        <time>2021-03-03T11:53:59Z</time>
      </trkpt>
      <trkpt lat="42.8839460" lon="-8.4142700">
        <ele>365.2</ele>
        <time>2021-03-03T11:54:00Z</time>
      </trkpt>
      <trkpt lat="42.8839630" lon="-8.4142810">
        <ele>365.4</ele>
        <time>2021-03-03T11:54:01Z</time>
      </trkpt>
      <trkpt lat="42.8839810" lon="-8.4142920">
        <ele>365.4</ele>
        <time>2021-03-03T11:54:02Z</time>
      </trkpt>
      <trkpt lat="42.8840080" lon="-8.4143150">
        <ele>365.6</ele>
        <time>2021-03-03T11:54:03Z</time>
      </trkpt>
      <trkpt lat="42.8840260" lon="-8.4143300">
        <ele>365.8</ele>
        <time>2021-03-03T11:54:04Z</time>
      </trkpt>
      <trkpt lat="42.8840440" lon="-8.4143470">
        <ele>366.0</ele>
        <time>2021-03-03T11:54:05Z</time>
      </trkpt>
      <trkpt lat="42.8840640" lon="-8.4143710">
        <ele>366.2</ele>
        <time>2021-03-03T11:54:06Z</time>
      </trkpt>
      <trkpt lat="42.8840790" lon="-8.4143810">
        <ele>366.2</ele>
        <time>2021-03-03T11:54:07Z</time>
      </trkpt>
      <trkpt lat="42.8840960" lon="-8.4143910">
        <ele>366.4</ele>
        <time>2021-03-03T11:54:08Z</time>
      </trkpt>
      <trkpt lat="42.8841130" lon="-8.4143960">
        <ele>366.6</ele>
        <time>2021-03-03T11:54:09Z</time>
      </trkpt>
      <trkpt lat="42.8841280" lon="-8.4144050">
        <ele>366.6</ele>
        <time>2021-03-03T11:54:10Z</time>
      </trkpt>
      <trkpt lat="42.8841430" lon="-8.4144110">
        <ele>366.8</ele>
        <time>2021-03-03T11:54:11Z</time>
      </trkpt>
      <trkpt lat="42.8841580" lon="-8.4144150">
        <ele>366.8</ele>
        <time>2021-03-03T11:54:12Z</time>
      </trkpt>
      <trkpt lat="42.8841730" lon="-8.4144200">
        <ele>367.0</ele>
        <time>2021-03-03T11:54:13Z</time>
      </trkpt>
      <trkpt lat="42.8841880" lon="-8.4144290">
        <ele>367.2</ele>
        <time>2021-03-03T11:54:14Z</time>
      </trkpt>
      <trkpt lat="42.8842060" lon="-8.4144410">
        <ele>367.4</ele>
        <time>2021-03-03T11:54:15Z</time>
      </trkpt>
      <trkpt lat="42.8842230" lon="-8.4144560">
        <ele>367.4</ele>
        <time>2021-03-03T11:54:16Z</time>
      </trkpt>
      <trkpt lat="42.8842420" lon="-8.4144690">
        <ele>367.6</ele>
        <time>2021-03-03T11:54:17Z</time>
      </trkpt>
      <trkpt lat="42.8842600" lon="-8.4144800">
        <ele>367.8</ele>
        <time>2021-03-03T11:54:18Z</time>
      </trkpt>
      <trkpt lat="42.8842780" lon="-8.4144890">
        <ele>368.0</ele>
        <time>2021-03-03T11:54:19Z</time>
      </trkpt>
      <trkpt lat="42.8842960" lon="-8.4145010">
        <ele>368.2</ele>
        <time>2021-03-03T11:54:20Z</time>
      </trkpt>
      <trkpt lat="42.8843130" lon="-8.4145130">
        <ele>368.2</ele>
        <time>2021-03-03T11:54:21Z</time>
      </trkpt>
      <trkpt lat="42.8843360" lon="-8.4145290">
        <ele>368.4</ele>
        <time>2021-03-03T11:54:22Z</time>
      </trkpt>
      <trkpt lat="42.8843600" lon="-8.4145430">
        <ele>368.6</ele>
        <time>2021-03-03T11:54:23Z</time>
      </trkpt>
      <trkpt lat="42.8843810" lon="-8.4145560">
        <ele>368.8</ele>
        <time>2021-03-03T11:54:24Z</time>
      </trkpt>
      <trkpt lat="42.8843980" lon="-8.4145630">
        <ele>369.0</ele>
        <time>2021-03-03T11:54:25Z</time>
      </trkpt>
      <trkpt lat="42.8844160" lon="-8.4145780">
        <ele>369.2</ele>
        <time>2021-03-03T11:54:26Z</time>
      </trkpt>
      <trkpt lat="42.8844350" lon="-8.4145930">
        <ele>369.4</ele>
        <time>2021-03-03T11:54:27Z</time>
      </trkpt>
      <trkpt lat="42.8844570" lon="-8.4146070">
        <ele>369.8</ele>
        <time>2021-03-03T11:54:28Z</time>
      </trkpt>
      <trkpt lat="42.8844780" lon="-8.4146150">
        <ele>369.8</ele>
        <time>2021-03-03T11:54:29Z</time>
      </trkpt>
      <trkpt lat="42.8844930" lon="-8.4146100">
        <ele>370.0</ele>
        <time>2021-03-03T11:54:30Z</time>
      </trkpt>
      <trkpt lat="42.8845100" lon="-8.4146180">
        <ele>370.2</ele>
        <time>2021-03-03T11:54:31Z</time>
      </trkpt>
      <trkpt lat="42.8845270" lon="-8.4146300">
        <ele>370.2</ele>
        <time>2021-03-03T11:54:32Z</time>
      </trkpt>
      <trkpt lat="42.8845440" lon="-8.4146420">
        <ele>370.4</ele>
        <time>2021-03-03T11:54:33Z</time>
      </trkpt>
      <trkpt lat="42.8845590" lon="-8.4146520">
        <ele>370.6</ele>
        <time>2021-03-03T11:54:34Z</time>
      </trkpt>
      <trkpt lat="42.8845740" lon="-8.4146600">
        <ele>371.0</ele>
        <time>2021-03-03T11:54:35Z</time>
      </trkpt>
      <trkpt lat="42.8845890" lon="-8.4146670">
        <ele>371.2</ele>
        <time>2021-03-03T11:54:36Z</time>
      </trkpt>
      <trkpt lat="42.8846040" lon="-8.4146740">
        <ele>371.2</ele>
        <time>2021-03-03T11:54:37Z</time>
      </trkpt>
      <trkpt lat="42.8846220" lon="-8.4146800">
        <ele>371.2</ele>
        <time>2021-03-03T11:54:38Z</time>
      </trkpt>
      <trkpt lat="42.8846380" lon="-8.4146910">
        <ele>371.4</ele>
        <time>2021-03-03T11:54:39Z</time>
      </trkpt>
      <trkpt lat="42.8846540" lon="-8.4146990">
        <ele>371.6</ele>
        <time>2021-03-03T11:54:40Z</time>
      </trkpt>
      <trkpt lat="42.8846710" lon="-8.4147050">
        <ele>371.6</ele>
        <time>2021-03-03T11:54:41Z</time>
      </trkpt>
      <trkpt lat="42.8846930" lon="-8.4147120">
        <ele>371.8</ele>
        <time>2021-03-03T11:54:42Z</time>
      </trkpt>
      <trkpt lat="42.8847150" lon="-8.4147200">
        <ele>371.8</ele>
        <time>2021-03-03T11:54:43Z</time>
      </trkpt>
      <trkpt lat="42.8847370" lon="-8.4147240">
        <ele>371.8</ele>
        <time>2021-03-03T11:54:44Z</time>
      </trkpt>
      <trkpt lat="42.8847590" lon="-8.4147330">
        <ele>372.0</ele>
        <time>2021-03-03T11:54:45Z</time>
      </trkpt>
      <trkpt lat="42.8847780" lon="-8.4147430">
        <ele>372.0</ele>
        <time>2021-03-03T11:54:46Z</time>
      </trkpt>
      <trkpt lat="42.8848000" lon="-8.4147500">
        <ele>372.0</ele>
        <time>2021-03-03T11:54:47Z</time>
      </trkpt>
      <trkpt lat="42.8848250" lon="-8.4147580">
        <ele>372.0</ele>
        <time>2021-03-03T11:54:48Z</time>
      </trkpt>
      <trkpt lat="42.8848470" lon="-8.4147680">
        <ele>372.4</ele>
        <time>2021-03-03T11:54:49Z</time>
      </trkpt>
      <trkpt lat="42.8848690" lon="-8.4147760">
        <ele>372.4</ele>
        <time>2021-03-03T11:54:50Z</time>
      </trkpt>
      <trkpt lat="42.8848890" lon="-8.4147820">
        <ele>372.6</ele>
        <time>2021-03-03T11:54:51Z</time>
      </trkpt>
      <trkpt lat="42.8849100" lon="-8.4147930">
        <ele>372.8</ele>
        <time>2021-03-03T11:54:52Z</time>
      </trkpt>
      <trkpt lat="42.8849320" lon="-8.4148060">
        <ele>373.0</ele>
        <time>2021-03-03T11:54:53Z</time>
      </trkpt>
      <trkpt lat="42.8849560" lon="-8.4148200">
        <ele>373.0</ele>
        <time>2021-03-03T11:54:54Z</time>
      </trkpt>
      <trkpt lat="42.8849860" lon="-8.4148410">
        <ele>373.0</ele>
        <time>2021-03-03T11:54:55Z</time>
      </trkpt>
      <trkpt lat="42.8850080" lon="-8.4148600">
        <ele>373.2</ele>
        <time>2021-03-03T11:54:56Z</time>
      </trkpt>
      <trkpt lat="42.8850360" lon="-8.4148790">
        <ele>373.2</ele>
        <time>2021-03-03T11:54:57Z</time>
      </trkpt>
      <trkpt lat="42.8850630" lon="-8.4148880">
        <ele>373.4</ele>
        <time>2021-03-03T11:54:58Z</time>
      </trkpt>
      <trkpt lat="42.8850890" lon="-8.4148990">
        <ele>373.4</ele>
        <time>2021-03-03T11:54:59Z</time>
      </trkpt>
      <trkpt lat="42.8851160" lon="-8.4149200">
        <ele>373.4</ele>
        <time>2021-03-03T11:55:00Z</time>
      </trkpt>
      <trkpt lat="42.8851430" lon="-8.4149400">
        <ele>373.6</ele>
        <time>2021-03-03T11:55:01Z</time>
      </trkpt>
      <trkpt lat="42.8851680" lon="-8.4149540">
        <ele>373.8</ele>
        <time>2021-03-03T11:55:02Z</time>
      </trkpt>
      <trkpt lat="42.8851930" lon="-8.4149700">
        <ele>373.8</ele>
        <time>2021-03-03T11:55:03Z</time>
      </trkpt>
      <trkpt lat="42.8852170" lon="-8.4149900">
        <ele>374.0</ele>
        <time>2021-03-03T11:55:04Z</time>
      </trkpt>
      <trkpt lat="42.8852380" lon="-8.4150080">
        <ele>374.2</ele>
        <time>2021-03-03T11:55:05Z</time>
      </trkpt>
      <trkpt lat="42.8852610" lon="-8.4150260">
        <ele>374.4</ele>
        <time>2021-03-03T11:55:06Z</time>
      </trkpt>
      <trkpt lat="42.8852820" lon="-8.4150470">
        <ele>374.4</ele>
        <time>2021-03-03T11:55:07Z</time>
      </trkpt>
      <trkpt lat="42.8853000" lon="-8.4150660">
        <ele>374.4</ele>
        <time>2021-03-03T11:55:08Z</time>
      </trkpt>
      <trkpt lat="42.8853120" lon="-8.4150870">
        <ele>374.6</ele>
        <time>2021-03-03T11:55:09Z</time>
      </trkpt>
      <trkpt lat="42.8853180" lon="-8.4151100">
        <ele>374.6</ele>
        <time>2021-03-03T11:55:10Z</time>
      </trkpt>
      <trkpt lat="42.8853130" lon="-8.4151290">
        <ele>374.8</ele>
        <time>2021-03-03T11:55:11Z</time>
      </trkpt>
      <trkpt lat="42.8852960" lon="-8.4151360">
        <ele>374.8</ele>
        <time>2021-03-03T11:55:12Z</time>
      </trkpt>
      <trkpt lat="42.8852730" lon="-8.4151310">
        <ele>375.0</ele>
        <time>2021-03-03T11:55:13Z</time>
      </trkpt>
      <trkpt lat="42.8852470" lon="-8.4151200">
        <ele>375.0</ele>
        <time>2021-03-03T11:55:14Z</time>
      </trkpt>
      <trkpt lat="42.8852110" lon="-8.4150900">
        <ele>375.0</ele>
        <time>2021-03-03T11:55:15Z</time>
      </trkpt>
      <trkpt lat="42.8851820" lon="-8.4150680">
        <ele>375.0</ele>
        <time>2021-03-03T11:55:16Z</time>
      </trkpt>
      <trkpt lat="42.8851540" lon="-8.4150520">
        <ele>375.0</ele>
        <time>2021-03-03T11:55:17Z</time>
      </trkpt>
      <trkpt lat="42.8851260" lon="-8.4150370">
        <ele>375.0</ele>
        <time>2021-03-03T11:55:18Z</time>
      </trkpt>
      <trkpt lat="42.8850960" lon="-8.4150220">
        <ele>374.8</ele>
        <time>2021-03-03T11:55:19Z</time>
      </trkpt>
      <trkpt lat="42.8850650" lon="-8.4150110">
        <ele>374.8</ele>
        <time>2021-03-03T11:55:20Z</time>
      </trkpt>
      <trkpt lat="42.8850380" lon="-8.4150040">
        <ele>374.6</ele>
        <time>2021-03-03T11:55:21Z</time>
      </trkpt>
      <trkpt lat="42.8850100" lon="-8.4149960">
        <ele>374.6</ele>
        <time>2021-03-03T11:55:22Z</time>
      </trkpt>
      <trkpt lat="42.8849720" lon="-8.4149880">
        <ele>374.4</ele>
        <time>2021-03-03T11:55:23Z</time>
      </trkpt>
      <trkpt lat="42.8849410" lon="-8.4149740">
        <ele>374.4</ele>
        <time>2021-03-03T11:55:24Z</time>
      </trkpt>
      <trkpt lat="42.8849210" lon="-8.4149530">
        <ele>374.4</ele>
        <time>2021-03-03T11:55:25Z</time>
      </trkpt>
      <trkpt lat="42.8848900" lon="-8.4149400">
        <ele>374.4</ele>
        <time>2021-03-03T11:55:26Z</time>
      </trkpt>
      <trkpt lat="42.8848610" lon="-8.4149300">
        <ele>374.4</ele>
        <time>2021-03-03T11:55:27Z</time>
      </trkpt>
      <trkpt lat="42.8848340" lon="-8.4149220">
        <ele>374.2</ele>
        <time>2021-03-03T11:55:28Z</time>
      </trkpt>
      <trkpt lat="42.8848090" lon="-8.4149150">
        <ele>374.4</ele>
        <time>2021-03-03T11:55:29Z</time>
      </trkpt>
      <trkpt lat="42.8847900" lon="-8.4149140">
        <ele>374.2</ele>
        <time>2021-03-03T11:55:30Z</time>
      </trkpt>
      <trkpt lat="42.8847730" lon="-8.4149140">
        <ele>374.0</ele>
        <time>2021-03-03T11:55:31Z</time>
      </trkpt>
      <trkpt lat="42.8847520" lon="-8.4149160">
        <ele>374.0</ele>
        <time>2021-03-03T11:55:32Z</time>
      </trkpt>
      <trkpt lat="42.8847340" lon="-8.4149150">
        <ele>374.0</ele>
        <time>2021-03-03T11:55:33Z</time>
      </trkpt>
      <trkpt lat="42.8847160" lon="-8.4149160">
        <ele>373.8</ele>
        <time>2021-03-03T11:55:34Z</time>
      </trkpt>
      <trkpt lat="42.8846930" lon="-8.4149160">
        <ele>373.8</ele>
        <time>2021-03-03T11:55:35Z</time>
      </trkpt>
      <trkpt lat="42.8846680" lon="-8.4149200">
        <ele>373.6</ele>
        <time>2021-03-03T11:55:36Z</time>
      </trkpt>
      <trkpt lat="42.8846420" lon="-8.4149240">
        <ele>373.6</ele>
        <time>2021-03-03T11:55:37Z</time>
      </trkpt>
      <trkpt lat="42.8846150" lon="-8.4149340">
        <ele>373.6</ele>
        <time>2021-03-03T11:55:38Z</time>
      </trkpt>
      <trkpt lat="42.8845880" lon="-8.4149530">
        <ele>373.6</ele>
        <time>2021-03-03T11:55:39Z</time>
      </trkpt>
      <trkpt lat="42.8845650" lon="-8.4149790">
        <ele>373.4</ele>
        <time>2021-03-03T11:55:40Z</time>
      </trkpt>
      <trkpt lat="42.8845350" lon="-8.4150030">
        <ele>373.6</ele>
        <time>2021-03-03T11:55:41Z</time>
      </trkpt>
      <trkpt lat="42.8845190" lon="-8.4150350">
        <ele>373.6</ele>
        <time>2021-03-03T11:55:42Z</time>
      </trkpt>
      <trkpt lat="42.8845110" lon="-8.4150650">
        <ele>373.8</ele>
        <time>2021-03-03T11:55:43Z</time>
      </trkpt>
      <trkpt lat="42.8845050" lon="-8.4150920">
        <ele>374.0</ele>
        <time>2021-03-03T11:55:44Z</time>
      </trkpt>
      <trkpt lat="42.8845000" lon="-8.4151170">
        <ele>374.2</ele>
        <time>2021-03-03T11:55:45Z</time>
      </trkpt>
      <trkpt lat="42.8844950" lon="-8.4151440">
        <ele>374.4</ele>
        <time>2021-03-03T11:55:46Z</time>
      </trkpt>
      <trkpt lat="42.8844900" lon="-8.4151700">
        <ele>374.6</ele>
        <time>2021-03-03T11:55:47Z</time>
      </trkpt>
      <trkpt lat="42.8844890" lon="-8.4151920">
        <ele>375.0</ele>
        <time>2021-03-03T11:55:48Z</time>
      </trkpt>
      <trkpt lat="42.8844870" lon="-8.4152160">
        <ele>375.2</ele>
        <time>2021-03-03T11:55:49Z</time>
      </trkpt>
      <trkpt lat="42.8844810" lon="-8.4152400">
        <ele>375.6</ele>
        <time>2021-03-03T11:55:50Z</time>
      </trkpt>
      <trkpt lat="42.8844750" lon="-8.4152640">
        <ele>376.0</ele>
        <time>2021-03-03T11:55:51Z</time>
      </trkpt>
      <trkpt lat="42.8844700" lon="-8.4152930">
        <ele>376.2</ele>
        <time>2021-03-03T11:55:52Z</time>
      </trkpt>
      <trkpt lat="42.8844690" lon="-8.4153120">
        <ele>376.4</ele>
        <time>2021-03-03T11:55:53Z</time>
      </trkpt>
      <trkpt lat="42.8844630" lon="-8.4153340">
        <ele>376.6</ele>
        <time>2021-03-03T11:55:54Z</time>
      </trkpt>
      <trkpt lat="42.8844520" lon="-8.4153640">
        <ele>376.8</ele>
        <time>2021-03-03T11:55:55Z</time>
      </trkpt>
      <trkpt lat="42.8844430" lon="-8.4153850">
        <ele>377.2</ele>
        <time>2021-03-03T11:55:56Z</time>
      </trkpt>
      <trkpt lat="42.8844350" lon="-8.4154050">
        <ele>377.2</ele>
        <time>2021-03-03T11:55:57Z</time>
      </trkpt>
      <trkpt lat="42.8844310" lon="-8.4154250">
        <ele>377.6</ele>
        <time>2021-03-03T11:55:58Z</time>
      </trkpt>
      <trkpt lat="42.8844240" lon="-8.4154450">
        <ele>378.0</ele>
        <time>2021-03-03T11:55:59Z</time>
      </trkpt>
      <trkpt lat="42.8844170" lon="-8.4154640">
        <ele>378.2</ele>
        <time>2021-03-03T11:56:00Z</time>
      </trkpt>
      <trkpt lat="42.8844080" lon="-8.4154820">
        <ele>378.4</ele>
        <time>2021-03-03T11:56:01Z</time>
      </trkpt>
      <trkpt lat="42.8843990" lon="-8.4155010">
        <ele>378.6</ele>
        <time>2021-03-03T11:56:02Z</time>
      </trkpt>
      <trkpt lat="42.8843900" lon="-8.4155220">
        <ele>378.8</ele>
        <time>2021-03-03T11:56:03Z</time>
      </trkpt>
      <trkpt lat="42.8843830" lon="-8.4155440">
        <ele>379.2</ele>
        <time>2021-03-03T11:56:04Z</time>
      </trkpt>
      <trkpt lat="42.8843720" lon="-8.4155630">
        <ele>379.4</ele>
        <time>2021-03-03T11:56:05Z</time>
      </trkpt>
      <trkpt lat="42.8843610" lon="-8.4155850">
        <ele>379.6</ele>
        <time>2021-03-03T11:56:06Z</time>
      </trkpt>
      <trkpt lat="42.8843500" lon="-8.4156070">
        <ele>380.0</ele>
        <time>2021-03-03T11:56:07Z</time>
      </trkpt>
      <trkpt lat="42.8843430" lon="-8.4156300">
        <ele>380.2</ele>
        <time>2021-03-03T11:56:08Z</time>
      </trkpt>
      <trkpt lat="42.8843370" lon="-8.4156520">
        <ele>380.4</ele>
        <time>2021-03-03T11:56:09Z</time>
      </trkpt>
      <trkpt lat="42.8843300" lon="-8.4156730">
        <ele>380.4</ele>
        <time>2021-03-03T11:56:10Z</time>
      </trkpt>
      <trkpt lat="42.8843230" lon="-8.4156970">
        <ele>380.8</ele>
        <time>2021-03-03T11:56:11Z</time>
      </trkpt>
      <trkpt lat="42.8843140" lon="-8.4157220">
        <ele>381.0</ele>
        <time>2021-03-03T11:56:12Z</time>
      </trkpt>
      <trkpt lat="42.8843050" lon="-8.4157440">
        <ele>381.2</ele>
        <time>2021-03-03T11:56:13Z</time>
      </trkpt>
      <trkpt lat="42.8842910" lon="-8.4157630">
        <ele>381.2</ele>
        <time>2021-03-03T11:56:14Z</time>
      </trkpt>
      <trkpt lat="42.8842780" lon="-8.4157850">
        <ele>381.4</ele>
        <time>2021-03-03T11:56:15Z</time>
      </trkpt>
      <trkpt lat="42.8842700" lon="-8.4158090">
        <ele>381.6</ele>
        <time>2021-03-03T11:56:16Z</time>
      </trkpt>
      <trkpt lat="42.8842660" lon="-8.4158330">
        <ele>381.8</ele>
        <time>2021-03-03T11:56:17Z</time>
      </trkpt>
      <trkpt lat="42.8842570" lon="-8.4158540">
        <ele>382.0</ele>
        <time>2021-03-03T11:56:18Z</time>
      </trkpt>
      <trkpt lat="42.8842470" lon="-8.4158790">
        <ele>382.2</ele>
        <time>2021-03-03T11:56:19Z</time>
      </trkpt>
      <trkpt lat="42.8842380" lon="-8.4159040">
        <ele>382.4</ele>
        <time>2021-03-03T11:56:20Z</time>
      </trkpt>
      <trkpt lat="42.8842260" lon="-8.4159290">
        <ele>382.6</ele>
        <time>2021-03-03T11:56:21Z</time>
      </trkpt>
      <trkpt lat="42.8842160" lon="-8.4159550">
        <ele>382.8</ele>
        <time>2021-03-03T11:56:22Z</time>
      </trkpt>
      <trkpt lat="42.8842100" lon="-8.4159770">
        <ele>383.0</ele>
        <time>2021-03-03T11:56:23Z</time>
      </trkpt>
      <trkpt lat="42.8842040" lon="-8.4160000">
        <ele>383.2</ele>
        <time>2021-03-03T11:56:24Z</time>
      </trkpt>
      <trkpt lat="42.8841950" lon="-8.4160270">
        <ele>383.2</ele>
        <time>2021-03-03T11:56:25Z</time>
      </trkpt>
      <trkpt lat="42.8841870" lon="-8.4160550">
        <ele>383.4</ele>
        <time>2021-03-03T11:56:26Z</time>
      </trkpt>
      <trkpt lat="42.8841800" lon="-8.4160780">
        <ele>383.6</ele>
        <time>2021-03-03T11:56:27Z</time>
      </trkpt>
      <trkpt lat="42.8841690" lon="-8.4161060">
        <ele>383.6</ele>
        <time>2021-03-03T11:56:28Z</time>
      </trkpt>
      <trkpt lat="42.8841610" lon="-8.4161340">
        <ele>383.8</ele>
        <time>2021-03-03T11:56:29Z</time>
      </trkpt>
      <trkpt lat="42.8841580" lon="-8.4161730">
        <ele>384.0</ele>
        <time>2021-03-03T11:56:30Z</time>
      </trkpt>
      <trkpt lat="42.8841500" lon="-8.4161930">
        <ele>384.2</ele>
        <time>2021-03-03T11:56:31Z</time>
      </trkpt>
      <trkpt lat="42.8841400" lon="-8.4162160">
        <ele>384.4</ele>
        <time>2021-03-03T11:56:32Z</time>
      </trkpt>
      <trkpt lat="42.8841310" lon="-8.4162310">
        <ele>384.4</ele>
        <time>2021-03-03T11:56:33Z</time>
      </trkpt>
      <trkpt lat="42.8841190" lon="-8.4162540">
        <ele>384.8</ele>
        <time>2021-03-03T11:56:34Z</time>
      </trkpt>
      <trkpt lat="42.8841090" lon="-8.4162770">
        <ele>384.8</ele>
        <time>2021-03-03T11:56:35Z</time>
      </trkpt>
      <trkpt lat="42.8841020" lon="-8.4162990">
        <ele>385.0</ele>
        <time>2021-03-03T11:56:36Z</time>
      </trkpt>
      <trkpt lat="42.8840900" lon="-8.4163250">
        <ele>385.0</ele>
        <time>2021-03-03T11:56:37Z</time>
      </trkpt>
      <trkpt lat="42.8840790" lon="-8.4163510">
        <ele>385.2</ele>
        <time>2021-03-03T11:56:38Z</time>
      </trkpt>
      <trkpt lat="42.8840640" lon="-8.4163700">
        <ele>385.4</ele>
        <time>2021-03-03T11:56:39Z</time>
      </trkpt>
      <trkpt lat="42.8840540" lon="-8.4163910">
        <ele>385.6</ele>
        <time>2021-03-03T11:56:40Z</time>
      </trkpt>
      <trkpt lat="42.8840450" lon="-8.4164100">
        <ele>385.8</ele>
        <time>2021-03-03T11:56:41Z</time>
      </trkpt>
      <trkpt lat="42.8840350" lon="-8.4164300">
        <ele>386.0</ele>
        <time>2021-03-03T11:56:42Z</time>
      </trkpt>
      <trkpt lat="42.8840270" lon="-8.4164530">
        <ele>386.4</ele>
        <time>2021-03-03T11:56:43Z</time>
      </trkpt>
      <trkpt lat="42.8840210" lon="-8.4164770">
        <ele>386.4</ele>
        <time>2021-03-03T11:56:44Z</time>
      </trkpt>
      <trkpt lat="42.8840140" lon="-8.4165010">
        <ele>386.6</ele>
        <time>2021-03-03T11:56:45Z</time>
      </trkpt>
      <trkpt lat="42.8840050" lon="-8.4165240">
        <ele>386.8</ele>
        <time>2021-03-03T11:56:46Z</time>
      </trkpt>
      <trkpt lat="42.8839950" lon="-8.4165470">
        <ele>387.0</ele>
        <time>2021-03-03T11:56:47Z</time>
      </trkpt>
      <trkpt lat="42.8839880" lon="-8.4165670">
        <ele>387.0</ele>
        <time>2021-03-03T11:56:48Z</time>
      </trkpt>
      <trkpt lat="42.8839810" lon="-8.4165850">
        <ele>387.2</ele>
        <time>2021-03-03T11:56:49Z</time>
      </trkpt>
      <trkpt lat="42.8839740" lon="-8.4166060">
        <ele>387.4</ele>
        <time>2021-03-03T11:56:50Z</time>
      </trkpt>
      <trkpt lat="42.8839660" lon="-8.4166290">
        <ele>387.4</ele>
        <time>2021-03-03T11:56:51Z</time>
      </trkpt>
      <trkpt lat="42.8839590" lon="-8.4166550">
        <ele>387.6</ele>
        <time>2021-03-03T11:56:52Z</time>
      </trkpt>
      <trkpt lat="42.8839520" lon="-8.4166800">
        <ele>387.8</ele>
        <time>2021-03-03T11:56:53Z</time>
      </trkpt>
      <trkpt lat="42.8839420" lon="-8.4167030">
        <ele>388.0</ele>
        <time>2021-03-03T11:56:54Z</time>
      </trkpt>
      <trkpt lat="42.8839350" lon="-8.4167260">
        <ele>388.0</ele>
        <time>2021-03-03T11:56:55Z</time>
      </trkpt>
      <trkpt lat="42.8839330" lon="-8.4167480">
        <ele>388.2</ele>
        <time>2021-03-03T11:56:56Z</time>
      </trkpt>
      <trkpt lat="42.8839300" lon="-8.4167670">
        <ele>388.4</ele>
        <time>2021-03-03T11:56:57Z</time>
      </trkpt>
      <trkpt lat="42.8839280" lon="-8.4167880">
        <ele>388.6</ele>
        <time>2021-03-03T11:56:58Z</time>
      </trkpt>
      <trkpt lat="42.8839210" lon="-8.4168100">
        <ele>388.6</ele>
        <time>2021-03-03T11:56:59Z</time>
      </trkpt>
      <trkpt lat="42.8839130" lon="-8.4168390">
        <ele>388.8</ele>
        <time>2021-03-03T11:57:00Z</time>
      </trkpt>
      <trkpt lat="42.8839050" lon="-8.4168670">
        <ele>388.8</ele>
        <time>2021-03-03T11:57:01Z</time>
      </trkpt>
      <trkpt lat="42.8838970" lon="-8.4168910">
        <ele>389.0</ele>
        <time>2021-03-03T11:57:02Z</time>
      </trkpt>
      <trkpt lat="42.8838860" lon="-8.4169110">
        <ele>389.2</ele>
        <time>2021-03-03T11:57:03Z</time>
      </trkpt>
      <trkpt lat="42.8838750" lon="-8.4169240">
        <ele>389.4</ele>
        <time>2021-03-03T11:57:04Z</time>
      </trkpt>
      <trkpt lat="42.8838640" lon="-8.4169400">
        <ele>389.6</ele>
        <time>2021-03-03T11:57:05Z</time>
      </trkpt>
      <trkpt lat="42.8838570" lon="-8.4169640">
        <ele>389.6</ele>
        <time>2021-03-03T11:57:06Z</time>
      </trkpt>
      <trkpt lat="42.8838500" lon="-8.4169910">
        <ele>389.8</ele>
        <time>2021-03-03T11:57:07Z</time>
      </trkpt>
      <trkpt lat="42.8838390" lon="-8.4170150">
        <ele>390.0</ele>
        <time>2021-03-03T11:57:08Z</time>
      </trkpt>
      <trkpt lat="42.8838310" lon="-8.4170500">
        <ele>390.0</ele>
        <time>2021-03-03T11:57:09Z</time>
      </trkpt>
      <trkpt lat="42.8838240" lon="-8.4170800">
        <ele>390.2</ele>
        <time>2021-03-03T11:57:10Z</time>
      </trkpt>
      <trkpt lat="42.8838170" lon="-8.4171030">
        <ele>390.4</ele>
        <time>2021-03-03T11:57:11Z</time>
      </trkpt>
      <trkpt lat="42.8838100" lon="-8.4171220">
        <ele>390.6</ele>
        <time>2021-03-03T11:57:12Z</time>
      </trkpt>
      <trkpt lat="42.8838020" lon="-8.4171390">
        <ele>390.8</ele>
        <time>2021-03-03T11:57:13Z</time>
      </trkpt>
      <trkpt lat="42.8837960" lon="-8.4171570">
        <ele>391.0</ele>
        <time>2021-03-03T11:57:14Z</time>
      </trkpt>
      <trkpt lat="42.8837850" lon="-8.4171770">
        <ele>391.0</ele>
        <time>2021-03-03T11:57:15Z</time>
      </trkpt>
      <trkpt lat="42.8837700" lon="-8.4172000">
        <ele>391.2</ele>
        <time>2021-03-03T11:57:16Z</time>
      </trkpt>
      <trkpt lat="42.8837560" lon="-8.4172250">
        <ele>391.4</ele>
        <time>2021-03-03T11:57:17Z</time>
      </trkpt>
      <trkpt lat="42.8837400" lon="-8.4172430">
        <ele>391.6</ele>
        <time>2021-03-03T11:57:18Z</time>
      </trkpt>
      <trkpt lat="42.8837290" lon="-8.4172600">
        <ele>391.8</ele>
        <time>2021-03-03T11:57:19Z</time>
      </trkpt>
      <trkpt lat="42.8837210" lon="-8.4172760">
        <ele>392.0</ele>
        <time>2021-03-03T11:57:20Z</time>
      </trkpt>
      <trkpt lat="42.8837090" lon="-8.4172890">
        <ele>392.2</ele>
        <time>2021-03-03T11:57:21Z</time>
      </trkpt>
      <trkpt lat="42.8836960" lon="-8.4173020">
        <ele>392.4</ele>
        <time>2021-03-03T11:57:22Z</time>
      </trkpt>
      <trkpt lat="42.8836860" lon="-8.4173200">
        <ele>392.4</ele>
        <time>2021-03-03T11:57:23Z</time>
      </trkpt>
      <trkpt lat="42.8836750" lon="-8.4173420">
        <ele>392.6</ele>
        <time>2021-03-03T11:57:24Z</time>
      </trkpt>
      <trkpt lat="42.8836660" lon="-8.4173650">
        <ele>392.8</ele>
        <time>2021-03-03T11:57:25Z</time>
      </trkpt>
      <trkpt lat="42.8836570" lon="-8.4173870">
        <ele>393.0</ele>
        <time>2021-03-03T11:57:26Z</time>
      </trkpt>
      <trkpt lat="42.8836460" lon="-8.4174070">
        <ele>393.2</ele>
        <time>2021-03-03T11:57:27Z</time>
      </trkpt>
      <trkpt lat="42.8836340" lon="-8.4174250">
        <ele>393.4</ele>
        <time>2021-03-03T11:57:28Z</time>
      </trkpt>
      <trkpt lat="42.8836240" lon="-8.4174410">
        <ele>393.4</ele>
        <time>2021-03-03T11:57:29Z</time>
      </trkpt>
      <trkpt lat="42.8836120" lon="-8.4174580">
        <ele>393.8</ele>
        <time>2021-03-03T11:57:30Z</time>
      </trkpt>
      <trkpt lat="42.8835980" lon="-8.4174780">
        <ele>393.8</ele>
        <time>2021-03-03T11:57:31Z</time>
      </trkpt>
      <trkpt lat="42.8835850" lon="-8.4174990">
        <ele>394.0</ele>
        <time>2021-03-03T11:57:32Z</time>
      </trkpt>
      <trkpt lat="42.8835740" lon="-8.4175230">
        <ele>394.2</ele>
        <time>2021-03-03T11:57:33Z</time>
      </trkpt>
      <trkpt lat="42.8835690" lon="-8.4175480">
        <ele>394.4</ele>
        <time>2021-03-03T11:57:34Z</time>
      </trkpt>
      <trkpt lat="42.8835630" lon="-8.4175720">
        <ele>394.6</ele>
        <time>2021-03-03T11:57:35Z</time>
      </trkpt>
      <trkpt lat="42.8835560" lon="-8.4175940">
        <ele>394.8</ele>
        <time>2021-03-03T11:57:36Z</time>
      </trkpt>
      <trkpt lat="42.8835490" lon="-8.4176180">
        <ele>395.0</ele>
        <time>2021-03-03T11:57:37Z</time>
      </trkpt>
      <trkpt lat="42.8835420" lon="-8.4176460">
        <ele>395.0</ele>
        <time>2021-03-03T11:57:38Z</time>
      </trkpt>
      <trkpt lat="42.8835310" lon="-8.4176690">
        <ele>395.2</ele>
        <time>2021-03-03T11:57:39Z</time>
      </trkpt>
      <trkpt lat="42.8835190" lon="-8.4176900">
        <ele>395.4</ele>
        <time>2021-03-03T11:57:40Z</time>
      </trkpt>
      <trkpt lat="42.8835070" lon="-8.4177110">
        <ele>395.4</ele>
        <time>2021-03-03T11:57:41Z</time>
      </trkpt>
      <trkpt lat="42.8834940" lon="-8.4177260">
        <ele>395.6</ele>
        <time>2021-03-03T11:57:42Z</time>
      </trkpt>
      <trkpt lat="42.8834830" lon="-8.4177460">
        <ele>395.8</ele>
        <time>2021-03-03T11:57:43Z</time>
      </trkpt>
      <trkpt lat="42.8834760" lon="-8.4177680">
        <ele>396.0</ele>
        <time>2021-03-03T11:57:44Z</time>
      </trkpt>
      <trkpt lat="42.8834680" lon="-8.4177910">
        <ele>396.2</ele>
        <time>2021-03-03T11:57:45Z</time>
      </trkpt>
      <trkpt lat="42.8834570" lon="-8.4178140">
        <ele>396.2</ele>
        <time>2021-03-03T11:57:46Z</time>
      </trkpt>
      <trkpt lat="42.8834440" lon="-8.4178380">
        <ele>396.2</ele>
        <time>2021-03-03T11:57:47Z</time>
      </trkpt>
      <trkpt lat="42.8834290" lon="-8.4178650">
        <ele>396.4</ele>
        <time>2021-03-03T11:57:48Z</time>
      </trkpt>
      <trkpt lat="42.8834150" lon="-8.4178910">
        <ele>396.6</ele>
        <time>2021-03-03T11:57:49Z</time>
      </trkpt>
      <trkpt lat="42.8834040" lon="-8.4179110">
        <ele>396.8</ele>
        <time>2021-03-03T11:57:50Z</time>
      </trkpt>
      <trkpt lat="42.8833980" lon="-8.4179290">
        <ele>396.8</ele>
        <time>2021-03-03T11:57:51Z</time>
      </trkpt>
      <trkpt lat="42.8833900" lon="-8.4179480">
        <ele>396.8</ele>
        <time>2021-03-03T11:57:52Z</time>
      </trkpt>
      <trkpt lat="42.8833790" lon="-8.4179680">
        <ele>397.0</ele>
        <time>2021-03-03T11:57:53Z</time>
      </trkpt>
      <trkpt lat="42.8833670" lon="-8.4179890">
        <ele>397.0</ele>
        <time>2021-03-03T11:57:54Z</time>
      </trkpt>
      <trkpt lat="42.8833540" lon="-8.4180130">
        <ele>397.0</ele>
        <time>2021-03-03T11:57:55Z</time>
      </trkpt>
      <trkpt lat="42.8833410" lon="-8.4180370">
        <ele>397.2</ele>
        <time>2021-03-03T11:57:56Z</time>
      </trkpt>
      <trkpt lat="42.8833320" lon="-8.4180570">
        <ele>397.4</ele>
        <time>2021-03-03T11:57:57Z</time>
      </trkpt>
      <trkpt lat="42.8833220" lon="-8.4180770">
        <ele>397.4</ele>
        <time>2021-03-03T11:57:58Z</time>
      </trkpt>
      <trkpt lat="42.8833140" lon="-8.4180950">
        <ele>397.6</ele>
        <time>2021-03-03T11:57:59Z</time>
      </trkpt>
      <trkpt lat="42.8833050" lon="-8.4181140">
        <ele>397.6</ele>
        <time>2021-03-03T11:58:00Z</time>
      </trkpt>
      <trkpt lat="42.8832960" lon="-8.4181360">
        <ele>397.6</ele>
        <time>2021-03-03T11:58:01Z</time>
      </trkpt>
      <trkpt lat="42.8832840" lon="-8.4181600">
        <ele>397.8</ele>
        <time>2021-03-03T11:58:02Z</time>
      </trkpt>
      <trkpt lat="42.8832720" lon="-8.4181840">
        <ele>398.0</ele>
        <time>2021-03-03T11:58:03Z</time>
      </trkpt>
      <trkpt lat="42.8832600" lon="-8.4182090">
        <ele>398.2</ele>
        <time>2021-03-03T11:58:04Z</time>
      </trkpt>
      <trkpt lat="42.8832490" lon="-8.4182300">
        <ele>398.2</ele>
        <time>2021-03-03T11:58:05Z</time>
      </trkpt>
      <trkpt lat="42.8832380" lon="-8.4182500">
        <ele>398.4</ele>
        <time>2021-03-03T11:58:06Z</time>
      </trkpt>
      <trkpt lat="42.8832280" lon="-8.4182680">
        <ele>398.6</ele>
        <time>2021-03-03T11:58:07Z</time>
      </trkpt>
      <trkpt lat="42.8832170" lon="-8.4182880">
        <ele>398.6</ele>
        <time>2021-03-03T11:58:08Z</time>
      </trkpt>
      <trkpt lat="42.8832080" lon="-8.4183110">
        <ele>398.8</ele>
        <time>2021-03-03T11:58:09Z</time>
      </trkpt>
      <trkpt lat="42.8831990" lon="-8.4183340">
        <ele>398.8</ele>
        <time>2021-03-03T11:58:10Z</time>
      </trkpt>
      <trkpt lat="42.8831890" lon="-8.4183550">
        <ele>399.2</ele>
        <time>2021-03-03T11:58:11Z</time>
      </trkpt>
      <trkpt lat="42.8831780" lon="-8.4183750">
        <ele>399.4</ele>
        <time>2021-03-03T11:58:12Z</time>
      </trkpt>
      <trkpt lat="42.8831680" lon="-8.4183960">
        <ele>399.4</ele>
        <time>2021-03-03T11:58:13Z</time>
      </trkpt>
      <trkpt lat="42.8831590" lon="-8.4184200">
        <ele>399.6</ele>
        <time>2021-03-03T11:58:14Z</time>
      </trkpt>
      <trkpt lat="42.8831520" lon="-8.4184400">
        <ele>399.6</ele>
        <time>2021-03-03T11:58:15Z</time>
      </trkpt>
      <trkpt lat="42.8831450" lon="-8.4184590">
        <ele>399.8</ele>
        <time>2021-03-03T11:58:16Z</time>
      </trkpt>
      <trkpt lat="42.8831330" lon="-8.4184800">
        <ele>399.8</ele>
        <time>2021-03-03T11:58:17Z</time>
      </trkpt>
      <trkpt lat="42.8831190" lon="-8.4185040">
        <ele>399.8</ele>
        <time>2021-03-03T11:58:18Z</time>
      </trkpt>
      <trkpt lat="42.8831050" lon="-8.4185290">
        <ele>400.0</ele>
        <time>2021-03-03T11:58:19Z</time>
      </trkpt>
      <trkpt lat="42.8830920" lon="-8.4185550">
        <ele>400.0</ele>
        <time>2021-03-03T11:58:20Z</time>
      </trkpt>
      <trkpt lat="42.8830810" lon="-8.4185780">
        <ele>400.0</ele>
        <time>2021-03-03T11:58:21Z</time>
      </trkpt>
      <trkpt lat="42.8830630" lon="-8.4186060">
        <ele>400.2</ele>
        <time>2021-03-03T11:58:22Z</time>
      </trkpt>
      <trkpt lat="42.8830460" lon="-8.4186340">
        <ele>400.4</ele>
        <time>2021-03-03T11:58:23Z</time>
      </trkpt>
      <trkpt lat="42.8830290" lon="-8.4186630">
        <ele>400.4</ele>
        <time>2021-03-03T11:58:24Z</time>
      </trkpt>
      <trkpt lat="42.8830100" lon="-8.4186930">
        <ele>400.6</ele>
        <time>2021-03-03T11:58:25Z</time>
      </trkpt>
      <trkpt lat="42.8829940" lon="-8.4187210">
        <ele>400.6</ele>
        <time>2021-03-03T11:58:26Z</time>
      </trkpt>
      <trkpt lat="42.8829750" lon="-8.4187500">
        <ele>400.8</ele>
        <time>2021-03-03T11:58:27Z</time>
      </trkpt>
      <trkpt lat="42.8829580" lon="-8.4187770">
        <ele>400.8</ele>
        <time>2021-03-03T11:58:28Z</time>
      </trkpt>
      <trkpt lat="42.8829450" lon="-8.4188030">
        <ele>401.0</ele>
        <time>2021-03-03T11:58:29Z</time>
      </trkpt>
      <trkpt lat="42.8829350" lon="-8.4188300">
        <ele>401.0</ele>
        <time>2021-03-03T11:58:30Z</time>
      </trkpt>
      <trkpt lat="42.8829180" lon="-8.4188590">
        <ele>401.2</ele>
        <time>2021-03-03T11:58:31Z</time>
      </trkpt>
      <trkpt lat="42.8829010" lon="-8.4188920">
        <ele>401.2</ele>
        <time>2021-03-03T11:58:32Z</time>
      </trkpt>
      <trkpt lat="42.8828850" lon="-8.4189260">
        <ele>401.2</ele>
        <time>2021-03-03T11:58:33Z</time>
      </trkpt>
      <trkpt lat="42.8828730" lon="-8.4189610">
        <ele>401.4</ele>
        <time>2021-03-03T11:58:34Z</time>
      </trkpt>
      <trkpt lat="42.8828580" lon="-8.4189970">
        <ele>401.4</ele>
        <time>2021-03-03T11:58:35Z</time>
      </trkpt>
      <trkpt lat="42.8828480" lon="-8.4190310">
        <ele>401.4</ele>
        <time>2021-03-03T11:58:36Z</time>
      </trkpt>
      <trkpt lat="42.8828380" lon="-8.4190670">
        <ele>401.4</ele>
        <time>2021-03-03T11:58:37Z</time>
      </trkpt>
      <trkpt lat="42.8828270" lon="-8.4191030">
        <ele>401.4</ele>
        <time>2021-03-03T11:58:38Z</time>
      </trkpt>
      <trkpt lat="42.8828170" lon="-8.4191390">
        <ele>401.4</ele>
        <time>2021-03-03T11:58:39Z</time>
      </trkpt>
      <trkpt lat="42.8828100" lon="-8.4191760">
        <ele>401.4</ele>
        <time>2021-03-03T11:58:40Z</time>
      </trkpt>
      <trkpt lat="42.8828030" lon="-8.4192170">
        <ele>401.4</ele>
        <time>2021-03-03T11:58:41Z</time>
      </trkpt>
      <trkpt lat="42.8827950" lon="-8.4192590">
        <ele>401.4</ele>
        <time>2021-03-03T11:58:42Z</time>
      </trkpt>
      <trkpt lat="42.8827970" lon="-8.4193000">
        <ele>401.4</ele>
        <time>2021-03-03T11:58:43Z</time>
      </trkpt>
      <trkpt lat="42.8828070" lon="-8.4193380">
        <ele>401.4</ele>
        <time>2021-03-03T11:58:44Z</time>
      </trkpt>
      <trkpt lat="42.8828230" lon="-8.4193700">
        <ele>401.4</ele>
        <time>2021-03-03T11:58:45Z</time>
      </trkpt>
      <trkpt lat="42.8828460" lon="-8.4193990">
        <ele>401.4</ele>
        <time>2021-03-03T11:58:46Z</time>
      </trkpt>
      <trkpt lat="42.8828680" lon="-8.4194260">
        <ele>401.4</ele>
        <time>2021-03-03T11:58:47Z</time>
      </trkpt>
      <trkpt lat="42.8828940" lon="-8.4194500">
        <ele>401.4</ele>
        <time>2021-03-03T11:58:48Z</time>
      </trkpt>
      <trkpt lat="42.8829190" lon="-8.4194760">
        <ele>401.2</ele>
        <time>2021-03-03T11:58:49Z</time>
      </trkpt>
      <trkpt lat="42.8829400" lon="-8.4195030">
        <ele>401.2</ele>
        <time>2021-03-03T11:58:50Z</time>
      </trkpt>
      <trkpt lat="42.8829630" lon="-8.4195290">
        <ele>401.0</ele>
        <time>2021-03-03T11:58:51Z</time>
      </trkpt>
      <trkpt lat="42.8829850" lon="-8.4195560">
        <ele>400.8</ele>
        <time>2021-03-03T11:58:52Z</time>
      </trkpt>
      <trkpt lat="42.8830110" lon="-8.4195830">
        <ele>400.8</ele>
        <time>2021-03-03T11:58:53Z</time>
      </trkpt>
      <trkpt lat="42.8830360" lon="-8.4196110">
        <ele>400.6</ele>
        <time>2021-03-03T11:58:54Z</time>
      </trkpt>
      <trkpt lat="42.8830610" lon="-8.4196350">
        <ele>400.4</ele>
        <time>2021-03-03T11:58:55Z</time>
      </trkpt>
      <trkpt lat="42.8830870" lon="-8.4196550">
        <ele>400.2</ele>
        <time>2021-03-03T11:58:56Z</time>
      </trkpt>
      <trkpt lat="42.8831130" lon="-8.4196760">
        <ele>400.2</ele>
        <time>2021-03-03T11:58:57Z</time>
      </trkpt>
      <trkpt lat="42.8831410" lon="-8.4196980">
        <ele>400.0</ele>
        <time>2021-03-03T11:58:58Z</time>
      </trkpt>
      <trkpt lat="42.8831680" lon="-8.4197210">
        <ele>400.0</ele>
        <time>2021-03-03T11:58:59Z</time>
      </trkpt>
      <trkpt lat="42.8831920" lon="-8.4197500">
        <ele>399.8</ele>
        <time>2021-03-03T11:59:00Z</time>
      </trkpt>
      <trkpt lat="42.8832190" lon="-8.4197780">
        <ele>399.6</ele>
        <time>2021-03-03T11:59:01Z</time>
      </trkpt>
      <trkpt lat="42.8832410" lon="-8.4198040">
        <ele>399.6</ele>
        <time>2021-03-03T11:59:02Z</time>
      </trkpt>
      <trkpt lat="42.8832640" lon="-8.4198310">
        <ele>399.4</ele>
        <time>2021-03-03T11:59:03Z</time>
      </trkpt>
      <trkpt lat="42.8832870" lon="-8.4198590">
        <ele>399.4</ele>
        <time>2021-03-03T11:59:04Z</time>
      </trkpt>
      <trkpt lat="42.8833100" lon="-8.4198880">
        <ele>399.0</ele>
        <time>2021-03-03T11:59:05Z</time>
      </trkpt>
      <trkpt lat="42.8833360" lon="-8.4199160">
        <ele>398.8</ele>
        <time>2021-03-03T11:59:06Z</time>
      </trkpt>
      <trkpt lat="42.8833640" lon="-8.4199410">
        <ele>398.4</ele>
        <time>2021-03-03T11:59:07Z</time>
      </trkpt>
      <trkpt lat="42.8833910" lon="-8.4199680">
        <ele>398.2</ele>
        <time>2021-03-03T11:59:08Z</time>
      </trkpt>
      <trkpt lat="42.8834190" lon="-8.4199980">
        <ele>398.0</ele>
        <time>2021-03-03T11:59:09Z</time>
      </trkpt>
      <trkpt lat="42.8834470" lon="-8.4200320">
        <ele>397.6</ele>
        <time>2021-03-03T11:59:10Z</time>
      </trkpt>
      <trkpt lat="42.8834720" lon="-8.4200660">
        <ele>397.4</ele>
        <time>2021-03-03T11:59:11Z</time>
      </trkpt>
      <trkpt lat="42.8834960" lon="-8.4201090">
        <ele>397.0</ele>
        <time>2021-03-03T11:59:12Z</time>
      </trkpt>
      <trkpt lat="42.8835130" lon="-8.4201550">
        <ele>396.2</ele>
        <time>2021-03-03T11:59:13Z</time>
      </trkpt>
      <trkpt lat="42.8835210" lon="-8.4202020">
        <ele>395.8</ele>
        <time>2021-03-03T11:59:14Z</time>
      </trkpt>
      <trkpt lat="42.8835240" lon="-8.4202470">
        <ele>395.4</ele>
        <time>2021-03-03T11:59:15Z</time>
      </trkpt>
      <trkpt lat="42.8835190" lon="-8.4202900">
        <ele>395.0</ele>
        <time>2021-03-03T11:59:16Z</time>
      </trkpt>
      <trkpt lat="42.8835100" lon="-8.4203360">
        <ele>394.8</ele>
        <time>2021-03-03T11:59:17Z</time>
      </trkpt>
      <trkpt lat="42.8835000" lon="-8.4203890">
        <ele>394.8</ele>
        <time>2021-03-03T11:59:18Z</time>
      </trkpt>
      <trkpt lat="42.8834840" lon="-8.4204290">
        <ele>394.6</ele>
        <time>2021-03-03T11:59:19Z</time>
      </trkpt>
      <trkpt lat="42.8834660" lon="-8.4204720">
        <ele>394.6</ele>
        <time>2021-03-03T11:59:20Z</time>
      </trkpt>
      <trkpt lat="42.8834420" lon="-8.4205090">
        <ele>394.6</ele>
        <time>2021-03-03T11:59:21Z</time>
      </trkpt>
      <trkpt lat="42.8834190" lon="-8.4205460">
        <ele>394.4</ele>
        <time>2021-03-03T11:59:22Z</time>
      </trkpt>
      <trkpt lat="42.8833980" lon="-8.4205860">
        <ele>394.4</ele>
        <time>2021-03-03T11:59:23Z</time>
      </trkpt>
      <trkpt lat="42.8833870" lon="-8.4206260">
        <ele>394.4</ele>
        <time>2021-03-03T11:59:24Z</time>
      </trkpt>
      <trkpt lat="42.8833710" lon="-8.4206690">
        <ele>394.2</ele>
        <time>2021-03-03T11:59:25Z</time>
      </trkpt>
      <trkpt lat="42.8833590" lon="-8.4207080">
        <ele>394.2</ele>
        <time>2021-03-03T11:59:26Z</time>
      </trkpt>
      <trkpt lat="42.8833410" lon="-8.4207460">
        <ele>394.2</ele>
        <time>2021-03-03T11:59:27Z</time>
      </trkpt>
      <trkpt lat="42.8833240" lon="-8.4207870">
        <ele>394.2</ele>
        <time>2021-03-03T11:59:28Z</time>
      </trkpt>
      <trkpt lat="42.8833080" lon="-8.4208260">
        <ele>394.2</ele>
        <time>2021-03-03T11:59:29Z</time>
      </trkpt>
      <trkpt lat="42.8832920" lon="-8.4208660">
        <ele>394.2</ele>
        <time>2021-03-03T11:59:30Z</time>
      </trkpt>
      <trkpt lat="42.8832760" lon="-8.4209000">
        <ele>394.2</ele>
        <time>2021-03-03T11:59:31Z</time>
      </trkpt>
      <trkpt lat="42.8832640" lon="-8.4209410">
        <ele>394.4</ele>
        <time>2021-03-03T11:59:32Z</time>
      </trkpt>
      <trkpt lat="42.8832490" lon="-8.4209820">
        <ele>394.4</ele>
        <time>2021-03-03T11:59:33Z</time>
      </trkpt>
      <trkpt lat="42.8832320" lon="-8.4210190">
        <ele>394.4</ele>
        <time>2021-03-03T11:59:34Z</time>
      </trkpt>
      <trkpt lat="42.8832160" lon="-8.4210580">
        <ele>394.6</ele>
        <time>2021-03-03T11:59:35Z</time>
      </trkpt>
      <trkpt lat="42.8832040" lon="-8.4210930">
        <ele>394.6</ele>
        <time>2021-03-03T11:59:36Z</time>
      </trkpt>
      <trkpt lat="42.8831880" lon="-8.4211280">
        <ele>395.0</ele>
        <time>2021-03-03T11:59:37Z</time>
      </trkpt>
      <trkpt lat="42.8831770" lon="-8.4211610">
        <ele>395.2</ele>
        <time>2021-03-03T11:59:38Z</time>
      </trkpt>
      <trkpt lat="42.8831690" lon="-8.4211900">
        <ele>395.2</ele>
        <time>2021-03-03T11:59:39Z</time>
      </trkpt>
      <trkpt lat="42.8831630" lon="-8.4212140">
        <ele>395.6</ele>
        <time>2021-03-03T11:59:40Z</time>
      </trkpt>
      <trkpt lat="42.8831580" lon="-8.4212340">
        <ele>396.0</ele>
        <time>2021-03-03T11:59:41Z</time>
      </trkpt>
      <trkpt lat="42.8831510" lon="-8.4212560">
        <ele>396.0</ele>
        <time>2021-03-03T11:59:42Z</time>
      </trkpt>
      <trkpt lat="42.8831440" lon="-8.4212810">
        <ele>396.2</ele>
        <time>2021-03-03T11:59:43Z</time>
      </trkpt>
      <trkpt lat="42.8831390" lon="-8.4213070">
        <ele>396.4</ele>
        <time>2021-03-03T11:59:44Z</time>
      </trkpt>
      <trkpt lat="42.8831310" lon="-8.4213320">
        <ele>396.6</ele>
        <time>2021-03-03T11:59:45Z</time>
      </trkpt>
      <trkpt lat="42.8831230" lon="-8.4213570">
        <ele>396.8</ele>
        <time>2021-03-03T11:59:46Z</time>
      </trkpt>
      <trkpt lat="42.8831180" lon="-8.4213770">
        <ele>397.0</ele>
        <time>2021-03-03T11:59:47Z</time>
      </trkpt>
      <trkpt lat="42.8831130" lon="-8.4213970">
        <ele>397.2</ele>
        <time>2021-03-03T11:59:48Z</time>
      </trkpt>
      <trkpt lat="42.8831070" lon="-8.4214190">
        <ele>397.4</ele>
        <time>2021-03-03T11:59:49Z</time>
      </trkpt>
      <trkpt lat="42.8831010" lon="-8.4214390">
        <ele>397.6</ele>
        <time>2021-03-03T11:59:50Z</time>
      </trkpt>
      <trkpt lat="42.8830950" lon="-8.4214630">
        <ele>397.8</ele>
        <time>2021-03-03T11:59:51Z</time>
      </trkpt>
      <trkpt lat="42.8830880" lon="-8.4214910">
        <ele>398.0</ele>
        <time>2021-03-03T11:59:52Z</time>
      </trkpt>
      <trkpt lat="42.8830800" lon="-8.4215160">
        <ele>398.2</ele>
        <time>2021-03-03T11:59:53Z</time>
      </trkpt>
      <trkpt lat="42.8830730" lon="-8.4215390">
        <ele>398.4</ele>
        <time>2021-03-03T11:59:54Z</time>
      </trkpt>
      <trkpt lat="42.8830660" lon="-8.4215600">
        <ele>398.4</ele>
        <time>2021-03-03T11:59:55Z</time>
      </trkpt>
      <trkpt lat="42.8830620" lon="-8.4215820">
        <ele>398.6</ele>
        <time>2021-03-03T11:59:56Z</time>
      </trkpt>
      <trkpt lat="42.8830570" lon="-8.4216020">
        <ele>398.6</ele>
        <time>2021-03-03T11:59:57Z</time>
      </trkpt>
      <trkpt lat="42.8830490" lon="-8.4216230">
        <ele>398.8</ele>
        <time>2021-03-03T11:59:58Z</time>
      </trkpt>
      <trkpt lat="42.8830400" lon="-8.4216500">
        <ele>399.0</ele>
        <time>2021-03-03T11:59:59Z</time>
      </trkpt>
      <trkpt lat="42.8830310" lon="-8.4216780">
        <ele>399.2</ele>
        <time>2021-03-03T12:00:00Z</time>
      </trkpt>
      <trkpt lat="42.8830220" lon="-8.4217120">
        <ele>399.2</ele>
        <time>2021-03-03T12:00:01Z</time>
      </trkpt>
      <trkpt lat="42.8830090" lon="-8.4217520">
        <ele>399.2</ele>
        <time>2021-03-03T12:00:02Z</time>
      </trkpt>
      <trkpt lat="42.8829980" lon="-8.4217910">
        <ele>399.2</ele>
        <time>2021-03-03T12:00:03Z</time>
      </trkpt>
      <trkpt lat="42.8829900" lon="-8.4218290">
        <ele>399.2</ele>
        <time>2021-03-03T12:00:04Z</time>
      </trkpt>
      <trkpt lat="42.8829830" lon="-8.4218670">
        <ele>399.2</ele>
        <time>2021-03-03T12:00:05Z</time>
      </trkpt>
      <trkpt lat="42.8829760" lon="-8.4219030">
        <ele>399.4</ele>
        <time>2021-03-03T12:00:06Z</time>
      </trkpt>
      <trkpt lat="42.8829690" lon="-8.4219400">
        <ele>399.4</ele>
        <time>2021-03-03T12:00:07Z</time>
      </trkpt>
      <trkpt lat="42.8829590" lon="-8.4219740">
        <ele>399.6</ele>
        <time>2021-03-03T12:00:08Z</time>
      </trkpt>
      <trkpt lat="42.8829470" lon="-8.4220100">
        <ele>399.6</ele>
        <time>2021-03-03T12:00:09Z</time>
      </trkpt>
      <trkpt lat="42.8829360" lon="-8.4220460">
        <ele>399.8</ele>
        <time>2021-03-03T12:00:10Z</time>
      </trkpt>
      <trkpt lat="42.8829270" lon="-8.4220810">
        <ele>399.8</ele>
        <time>2021-03-03T12:00:11Z</time>
      </trkpt>
      <trkpt lat="42.8829170" lon="-8.4221170">
        <ele>400.0</ele>
        <time>2021-03-03T12:00:12Z</time>
      </trkpt>
      <trkpt lat="42.8829080" lon="-8.4221550">
        <ele>400.2</ele>
        <time>2021-03-03T12:00:13Z</time>
      </trkpt>
      <trkpt lat="42.8828980" lon="-8.4221900">
        <ele>400.4</ele>
        <time>2021-03-03T12:00:14Z</time>
      </trkpt>
      <trkpt lat="42.8828860" lon="-8.4222280">
        <ele>400.6</ele>
        <time>2021-03-03T12:00:15Z</time>
      </trkpt>
      <trkpt lat="42.8828740" lon="-8.4222650">
        <ele>400.6</ele>
        <time>2021-03-03T12:00:16Z</time>
      </trkpt>
      <trkpt lat="42.8828630" lon="-8.4223000">
        <ele>400.6</ele>
        <time>2021-03-03T12:00:17Z</time>
      </trkpt>
      <trkpt lat="42.8828530" lon="-8.4223350">
        <ele>400.8</ele>
        <time>2021-03-03T12:00:18Z</time>
      </trkpt>
      <trkpt lat="42.8828420" lon="-8.4223710">
        <ele>400.8</ele>
        <time>2021-03-03T12:00:19Z</time>
      </trkpt>
      <trkpt lat="42.8828350" lon="-8.4224060">
        <ele>400.8</ele>
        <time>2021-03-03T12:00:20Z</time>
      </trkpt>
      <trkpt lat="42.8828270" lon="-8.4224400">
        <ele>400.8</ele>
        <time>2021-03-03T12:00:21Z</time>
      </trkpt>
      <trkpt lat="42.8828150" lon="-8.4224790">
        <ele>400.8</ele>
        <time>2021-03-03T12:00:22Z</time>
      </trkpt>
      <trkpt lat="42.8828040" lon="-8.4225150">
        <ele>400.8</ele>
        <time>2021-03-03T12:00:23Z</time>
      </trkpt>
      <trkpt lat="42.8827950" lon="-8.4225510">
        <ele>400.8</ele>
        <time>2021-03-03T12:00:24Z</time>
      </trkpt>
      <trkpt lat="42.8827850" lon="-8.4225900">
        <ele>400.8</ele>
        <time>2021-03-03T12:00:25Z</time>
      </trkpt>
      <trkpt lat="42.8827780" lon="-8.4226250">
        <ele>401.0</ele>
        <time>2021-03-03T12:00:26Z</time>
      </trkpt>
      <trkpt lat="42.8827660" lon="-8.4226610">
        <ele>401.0</ele>
        <time>2021-03-03T12:00:27Z</time>
      </trkpt>
      <trkpt lat="42.8827510" lon="-8.4226990">
        <ele>401.2</ele>
        <time>2021-03-03T12:00:28Z</time>
      </trkpt>
      <trkpt lat="42.8827410" lon="-8.4227350">
        <ele>401.2</ele>
        <time>2021-03-03T12:00:29Z</time>
      </trkpt>
      <trkpt lat="42.8827310" lon="-8.4227710">
        <ele>401.2</ele>
        <time>2021-03-03T12:00:30Z</time>
      </trkpt>
      <trkpt lat="42.8827210" lon="-8.4228070">
        <ele>401.2</ele>
        <time>2021-03-03T12:00:31Z</time>
      </trkpt>
      <trkpt lat="42.8827070" lon="-8.4228440">
        <ele>401.4</ele>
        <time>2021-03-03T12:00:32Z</time>
      </trkpt>
      <trkpt lat="42.8826930" lon="-8.4228830">
        <ele>401.4</ele>
        <time>2021-03-03T12:00:33Z</time>
      </trkpt>
      <trkpt lat="42.8826810" lon="-8.4229180">
        <ele>401.6</ele>
        <time>2021-03-03T12:00:34Z</time>
      </trkpt>
      <trkpt lat="42.8826670" lon="-8.4229530">
        <ele>401.6</ele>
        <time>2021-03-03T12:00:35Z</time>
      </trkpt>
      <trkpt lat="42.8826500" lon="-8.4229920">
        <ele>401.6</ele>
        <time>2021-03-03T12:00:36Z</time>
      </trkpt>
      <trkpt lat="42.8826360" lon="-8.4230240">
        <ele>401.8</ele>
        <time>2021-03-03T12:00:37Z</time>
      </trkpt>
      <trkpt lat="42.8826210" lon="-8.4230580">
        <ele>401.8</ele>
        <time>2021-03-03T12:00:38Z</time>
      </trkpt>
      <trkpt lat="42.8826050" lon="-8.4230920">
        <ele>401.8</ele>
        <time>2021-03-03T12:00:39Z</time>
      </trkpt>
      <trkpt lat="42.8825920" lon="-8.4231250">
        <ele>402.0</ele>
        <time>2021-03-03T12:00:40Z</time>
      </trkpt>
      <trkpt lat="42.8825800" lon="-8.4231600">
        <ele>402.0</ele>
        <time>2021-03-03T12:00:41Z</time>
      </trkpt>
      <trkpt lat="42.8825670" lon="-8.4231930">
        <ele>402.2</ele>
        <time>2021-03-03T12:00:42Z</time>
      </trkpt>
      <trkpt lat="42.8825530" lon="-8.4232300">
        <ele>402.2</ele>
        <time>2021-03-03T12:00:43Z</time>
      </trkpt>
      <trkpt lat="42.8825450" lon="-8.4232550">
        <ele>402.4</ele>
        <time>2021-03-03T12:00:44Z</time>
      </trkpt>
      <trkpt lat="42.8825300" lon="-8.4232880">
        <ele>402.4</ele>
        <time>2021-03-03T12:00:45Z</time>
      </trkpt>
      <trkpt lat="42.8825170" lon="-8.4233210">
        <ele>402.4</ele>
        <time>2021-03-03T12:00:46Z</time>
      </trkpt>
      <trkpt lat="42.8825040" lon="-8.4233510">
        <ele>402.4</ele>
        <time>2021-03-03T12:00:47Z</time>
      </trkpt>
      <trkpt lat="42.8824910" lon="-8.4233860">
        <ele>402.4</ele>
        <time>2021-03-03T12:00:48Z</time>
      </trkpt>
      <trkpt lat="42.8824790" lon="-8.4234200">
        <ele>402.6</ele>
        <time>2021-03-03T12:00:49Z</time>
      </trkpt>
      <trkpt lat="42.8824660" lon="-8.4234600">
        <ele>402.8</ele>
        <time>2021-03-03T12:00:50Z</time>
      </trkpt>
      <trkpt lat="42.8824520" lon="-8.4234970">
        <ele>402.8</ele>
        <time>2021-03-03T12:00:51Z</time>
      </trkpt>
      <trkpt lat="42.8824430" lon="-8.4235320">
        <ele>403.0</ele>
        <time>2021-03-03T12:00:52Z</time>
      </trkpt>
      <trkpt lat="42.8824320" lon="-8.4235710">
        <ele>403.2</ele>
        <time>2021-03-03T12:00:53Z</time>
      </trkpt>
      <trkpt lat="42.8824180" lon="-8.4236090">
        <ele>403.4</ele>
        <time>2021-03-03T12:00:54Z</time>
      </trkpt>
      <trkpt lat="42.8824050" lon="-8.4236420">
        <ele>403.4</ele>
        <time>2021-03-03T12:00:55Z</time>
      </trkpt>
      <trkpt lat="42.8823920" lon="-8.4236760">
        <ele>403.4</ele>
        <time>2021-03-03T12:00:56Z</time>
      </trkpt>
      <trkpt lat="42.8823810" lon="-8.4237080">
        <ele>403.4</ele>
        <time>2021-03-03T12:00:57Z</time>
      </trkpt>
      <trkpt lat="42.8823710" lon="-8.4237440">
        <ele>403.6</ele>
        <time>2021-03-03T12:00:58Z</time>
      </trkpt>
      <trkpt lat="42.8823630" lon="-8.4237810">
        <ele>403.4</ele>
        <time>2021-03-03T12:00:59Z</time>
      </trkpt>
      <trkpt lat="42.8823540" lon="-8.4238190">
        <ele>403.4</ele>
        <time>2021-03-03T12:01:00Z</time>
      </trkpt>
      <trkpt lat="42.8823430" lon="-8.4238580">
        <ele>403.6</ele>
        <time>2021-03-03T12:01:01Z</time>
      </trkpt>
      <trkpt lat="42.8823330" lon="-8.4238940">
        <ele>403.6</ele>
        <time>2021-03-03T12:01:02Z</time>
      </trkpt>
      <trkpt lat="42.8823250" lon="-8.4239280">
        <ele>403.6</ele>
        <time>2021-03-03T12:01:03Z</time>
      </trkpt>
      <trkpt lat="42.8823120" lon="-8.4239690">
        <ele>403.6</ele>
        <time>2021-03-03T12:01:04Z</time>
      </trkpt>
      <trkpt lat="42.8823000" lon="-8.4240090">
        <ele>403.6</ele>
        <time>2021-03-03T12:01:05Z</time>
      </trkpt>
      <trkpt lat="42.8822870" lon="-8.4240470">
        <ele>403.8</ele>
        <time>2021-03-03T12:01:06Z</time>
      </trkpt>
      <trkpt lat="42.8822720" lon="-8.4240870">
        <ele>403.6</ele>
        <time>2021-03-03T12:01:07Z</time>
      </trkpt>
      <trkpt lat="42.8822590" lon="-8.4241240">
        <ele>403.6</ele>
        <time>2021-03-03T12:01:08Z</time>
      </trkpt>
      <trkpt lat="42.8822470" lon="-8.4241630">
        <ele>403.6</ele>
        <time>2021-03-03T12:01:09Z</time>
      </trkpt>
      <trkpt lat="42.8822360" lon="-8.4242010">
        <ele>403.4</ele>
        <time>2021-03-03T12:01:10Z</time>
      </trkpt>
      <trkpt lat="42.8822280" lon="-8.4242360">
        <ele>403.6</ele>
        <time>2021-03-03T12:01:11Z</time>
      </trkpt>
      <trkpt lat="42.8822150" lon="-8.4242740">
        <ele>403.8</ele>
        <time>2021-03-03T12:01:12Z</time>
      </trkpt>
      <trkpt lat="42.8822050" lon="-8.4243090">
        <ele>403.8</ele>
        <time>2021-03-03T12:01:13Z</time>
      </trkpt>
      <trkpt lat="42.8821900" lon="-8.4243430">
        <ele>404.0</ele>
        <time>2021-03-03T12:01:14Z</time>
      </trkpt>
      <trkpt lat="42.8821740" lon="-8.4243770">
        <ele>404.0</ele>
        <time>2021-03-03T12:01:15Z</time>
      </trkpt>
      <trkpt lat="42.8821610" lon="-8.4244100">
        <ele>404.0</ele>
        <time>2021-03-03T12:01:16Z</time>
      </trkpt>
      <trkpt lat="42.8821480" lon="-8.4244450">
        <ele>404.2</ele>
        <time>2021-03-03T12:01:17Z</time>
      </trkpt>
      <trkpt lat="42.8821380" lon="-8.4244820">
        <ele>404.2</ele>
        <time>2021-03-03T12:01:18Z</time>
      </trkpt>
      <trkpt lat="42.8821250" lon="-8.4245180">
        <ele>404.2</ele>
        <time>2021-03-03T12:01:19Z</time>
      </trkpt>
      <trkpt lat="42.8821110" lon="-8.4245530">
        <ele>404.4</ele>
        <time>2021-03-03T12:01:20Z</time>
      </trkpt>
      <trkpt lat="42.8820950" lon="-8.4245930">
        <ele>404.6</ele>
        <time>2021-03-03T12:01:21Z</time>
      </trkpt>
      <trkpt lat="42.8820820" lon="-8.4246200">
        <ele>404.8</ele>
        <time>2021-03-03T12:01:22Z</time>
      </trkpt>
      <trkpt lat="42.8820680" lon="-8.4246520">
        <ele>404.8</ele>
        <time>2021-03-03T12:01:23Z</time>
      </trkpt>
      <trkpt lat="42.8820540" lon="-8.4246850">
        <ele>405.0</ele>
        <time>2021-03-03T12:01:24Z</time>
      </trkpt>
      <trkpt lat="42.8820410" lon="-8.4247190">
        <ele>405.0</ele>
        <time>2021-03-03T12:01:25Z</time>
      </trkpt>
      <trkpt lat="42.8820220" lon="-8.4247590">
        <ele>405.2</ele>
        <time>2021-03-03T12:01:26Z</time>
      </trkpt>
      <trkpt lat="42.8820050" lon="-8.4247890">
        <ele>405.2</ele>
        <time>2021-03-03T12:01:27Z</time>
      </trkpt>
      <trkpt lat="42.8819860" lon="-8.4248240">
        <ele>405.4</ele>
        <time>2021-03-03T12:01:28Z</time>
      </trkpt>
      <trkpt lat="42.8819650" lon="-8.4248520">
        <ele>405.6</ele>
        <time>2021-03-03T12:01:29Z</time>
      </trkpt>
      <trkpt lat="42.8819440" lon="-8.4248830">
        <ele>405.6</ele>
        <time>2021-03-03T12:01:30Z</time>
      </trkpt>
      <trkpt lat="42.8819270" lon="-8.4249140">
        <ele>405.8</ele>
        <time>2021-03-03T12:01:31Z</time>
      </trkpt>
      <trkpt lat="42.8819140" lon="-8.4249440">
        <ele>405.8</ele>
        <time>2021-03-03T12:01:32Z</time>
      </trkpt>
      <trkpt lat="42.8819090" lon="-8.4249800">
        <ele>405.8</ele>
        <time>2021-03-03T12:01:33Z</time>
      </trkpt>
      <trkpt lat="42.8819000" lon="-8.4250130">
        <ele>406.0</ele>
        <time>2021-03-03T12:01:34Z</time>
      </trkpt>
      <trkpt lat="42.8818880" lon="-8.4250460">
        <ele>406.2</ele>
        <time>2021-03-03T12:01:35Z</time>
      </trkpt>
      <trkpt lat="42.8818750" lon="-8.4250790">
        <ele>406.2</ele>
        <time>2021-03-03T12:01:36Z</time>
      </trkpt>
      <trkpt lat="42.8818620" lon="-8.4251170">
        <ele>406.2</ele>
        <time>2021-03-03T12:01:37Z</time>
      </trkpt>
      <trkpt lat="42.8818500" lon="-8.4251620">
        <ele>406.2</ele>
        <time>2021-03-03T12:01:38Z</time>
      </trkpt>
      <trkpt lat="42.8818440" lon="-8.4252070">
        <ele>406.2</ele>
        <time>2021-03-03T12:01:39Z</time>
      </trkpt>
      <trkpt lat="42.8818420" lon="-8.4252500">
        <ele>406.4</ele>
        <time>2021-03-03T12:01:40Z</time>
      </trkpt>
      <trkpt lat="42.8818430" lon="-8.4252900">
        <ele>406.4</ele>
        <time>2021-03-03T12:01:41Z</time>
      </trkpt>
      <trkpt lat="42.8818400" lon="-8.4253270">
        <ele>406.4</ele>
        <time>2021-03-03T12:01:42Z</time>
      </trkpt>
      <trkpt lat="42.8818340" lon="-8.4253630">
        <ele>406.4</ele>
        <time>2021-03-03T12:01:43Z</time>
      </trkpt>
      <trkpt lat="42.8818270" lon="-8.4253970">
        <ele>406.6</ele>
        <time>2021-03-03T12:01:44Z</time>
      </trkpt>
      <trkpt lat="42.8818180" lon="-8.4254380">
        <ele>406.8</ele>
        <time>2021-03-03T12:01:45Z</time>
      </trkpt>
      <trkpt lat="42.8818100" lon="-8.4254790">
        <ele>406.6</ele>
        <time>2021-03-03T12:01:46Z</time>
      </trkpt>
      <trkpt lat="42.8818060" lon="-8.4255210">
        <ele>406.8</ele>
        <time>2021-03-03T12:01:47Z</time>
      </trkpt>
      <trkpt lat="42.8818090" lon="-8.4255610">
        <ele>406.8</ele>
        <time>2021-03-03T12:01:48Z</time>
      </trkpt>
      <trkpt lat="42.8818070" lon="-8.4256110">
        <ele>406.8</ele>
        <time>2021-03-03T12:01:49Z</time>
      </trkpt>
      <trkpt lat="42.8818050" lon="-8.4256460">
        <ele>406.6</ele>
        <time>2021-03-03T12:01:50Z</time>
      </trkpt>
      <trkpt lat="42.8817990" lon="-8.4256920">
        <ele>406.6</ele>
        <time>2021-03-03T12:01:51Z</time>
      </trkpt>
      <trkpt lat="42.8817950" lon="-8.4257360">
        <ele>406.6</ele>
        <time>2021-03-03T12:01:52Z</time>
      </trkpt>
      <trkpt lat="42.8817880" lon="-8.4257820">
        <ele>406.4</ele>
        <time>2021-03-03T12:01:53Z</time>
      </trkpt>
      <trkpt lat="42.8817830" lon="-8.4258260">
        <ele>406.4</ele>
        <time>2021-03-03T12:01:54Z</time>
      </trkpt>
      <trkpt lat="42.8817760" lon="-8.4258740">
        <ele>406.4</ele>
        <time>2021-03-03T12:01:55Z</time>
      </trkpt>
      <trkpt lat="42.8817700" lon="-8.4259240">
        <ele>406.2</ele>
        <time>2021-03-03T12:01:56Z</time>
      </trkpt>
      <trkpt lat="42.8817680" lon="-8.4259710">
        <ele>405.8</ele>
        <time>2021-03-03T12:01:57Z</time>
      </trkpt>
      <trkpt lat="42.8817630" lon="-8.4260190">
        <ele>405.4</ele>
        <time>2021-03-03T12:01:58Z</time>
      </trkpt>
      <trkpt lat="42.8817580" lon="-8.4260690">
        <ele>405.2</ele>
        <time>2021-03-03T12:01:59Z</time>
      </trkpt>
      <trkpt lat="42.8817540" lon="-8.4261180">
        <ele>405.0</ele>
        <time>2021-03-03T12:02:00Z</time>
      </trkpt>
      <trkpt lat="42.8817510" lon="-8.4261670">
        <ele>403.8</ele>
        <time>2021-03-03T12:02:01Z</time>
      </trkpt>
      <trkpt lat="42.8817420" lon="-8.4262160">
        <ele>403.0</ele>
        <time>2021-03-03T12:02:02Z</time>
      </trkpt>
      <trkpt lat="42.8817310" lon="-8.4262650">
        <ele>402.6</ele>
        <time>2021-03-03T12:02:03Z</time>
      </trkpt>
      <trkpt lat="42.8817230" lon="-8.4263160">
        <ele>401.8</ele>
        <time>2021-03-03T12:02:04Z</time>
      </trkpt>
      <trkpt lat="42.8817130" lon="-8.4263640">
        <ele>401.2</ele>
        <time>2021-03-03T12:02:05Z</time>
      </trkpt>
      <trkpt lat="42.8817040" lon="-8.4264140">
        <ele>400.8</ele>
        <time>2021-03-03T12:02:06Z</time>
      </trkpt>
      <trkpt lat="42.8816990" lon="-8.4264600">
        <ele>400.2</ele>
        <time>2021-03-03T12:02:07Z</time>
      </trkpt>
      <trkpt lat="42.8816910" lon="-8.4265080">
        <ele>399.6</ele>
        <time>2021-03-03T12:02:08Z</time>
      </trkpt>
      <trkpt lat="42.8816830" lon="-8.4265610">
        <ele>399.2</ele>
        <time>2021-03-03T12:02:09Z</time>
      </trkpt>
      <trkpt lat="42.8816750" lon="-8.4266110">
        <ele>398.4</ele>
        <time>2021-03-03T12:02:10Z</time>
      </trkpt>
      <trkpt lat="42.8816680" lon="-8.4266650">
        <ele>397.6</ele>
        <time>2021-03-03T12:02:11Z</time>
      </trkpt>
      <trkpt lat="42.8816600" lon="-8.4267110">
        <ele>397.2</ele>
        <time>2021-03-03T12:02:12Z</time>
      </trkpt>
      <trkpt lat="42.8816500" lon="-8.4267600">
        <ele>396.6</ele>
        <time>2021-03-03T12:02:13Z</time>
      </trkpt>
      <trkpt lat="42.8816410" lon="-8.4268120">
        <ele>396.2</ele>
        <time>2021-03-03T12:02:14Z</time>
      </trkpt>
      <trkpt lat="42.8816320" lon="-8.4268730">
        <ele>395.2</ele>
        <time>2021-03-03T12:02:15Z</time>
      </trkpt>
      <trkpt lat="42.8816250" lon="-8.4269120">
        <ele>394.6</ele>
        <time>2021-03-03T12:02:16Z</time>
      </trkpt>
      <trkpt lat="42.8816120" lon="-8.4269670">
        <ele>394.2</ele>
        <time>2021-03-03T12:02:17Z</time>
      </trkpt>
      <trkpt lat="42.8816110" lon="-8.4270120">
        <ele>393.8</ele>
        <time>2021-03-03T12:02:18Z</time>
      </trkpt>
      <trkpt lat="42.8816180" lon="-8.4270560">
        <ele>393.6</ele>
        <time>2021-03-03T12:02:19Z</time>
      </trkpt>
      <trkpt lat="42.8816270" lon="-8.4270980">
        <ele>393.2</ele>
        <time>2021-03-03T12:02:20Z</time>
      </trkpt>
      <trkpt lat="42.8816340" lon="-8.4271470">
        <ele>392.8</ele>
        <time>2021-03-03T12:02:21Z</time>
      </trkpt>
      <trkpt lat="42.8816450" lon="-8.4271950">
        <ele>392.0</ele>
        <time>2021-03-03T12:02:22Z</time>
      </trkpt>
      <trkpt lat="42.8816650" lon="-8.4272360">
        <ele>391.6</ele>
        <time>2021-03-03T12:02:23Z</time>
      </trkpt>
      <trkpt lat="42.8816890" lon="-8.4272710">
        <ele>391.2</ele>
        <time>2021-03-03T12:02:24Z</time>
      </trkpt>
      <trkpt lat="42.8817160" lon="-8.4272950">
        <ele>391.0</ele>
        <time>2021-03-03T12:02:25Z</time>
      </trkpt>
      <trkpt lat="42.8817440" lon="-8.4273120">
        <ele>390.8</ele>
        <time>2021-03-03T12:02:26Z</time>
      </trkpt>
      <trkpt lat="42.8817690" lon="-8.4273250">
        <ele>390.6</ele>
        <time>2021-03-03T12:02:27Z</time>
      </trkpt>
      <trkpt lat="42.8817860" lon="-8.4273400">
        <ele>390.6</ele>
        <time>2021-03-03T12:02:28Z</time>
      </trkpt>
      <trkpt lat="42.8817940" lon="-8.4273590">
        <ele>390.6</ele>
        <time>2021-03-03T12:02:29Z</time>
      </trkpt>
      <trkpt lat="42.8817950" lon="-8.4273860">
        <ele>390.6</ele>
        <time>2021-03-03T12:02:30Z</time>
      </trkpt>
      <trkpt lat="42.8817970" lon="-8.4274190">
        <ele>390.8</ele>
        <time>2021-03-03T12:02:31Z</time>
      </trkpt>
      <trkpt lat="42.8817960" lon="-8.4274560">
        <ele>390.8</ele>
        <time>2021-03-03T12:02:32Z</time>
      </trkpt>
      <trkpt lat="42.8817940" lon="-8.4274950">
        <ele>390.8</ele>
        <time>2021-03-03T12:02:33Z</time>
      </trkpt>
      <trkpt lat="42.8817900" lon="-8.4275350">
        <ele>390.8</ele>
        <time>2021-03-03T12:02:34Z</time>
      </trkpt>
      <trkpt lat="42.8817880" lon="-8.4275720">
        <ele>390.8</ele>
        <time>2021-03-03T12:02:35Z</time>
      </trkpt>
      <trkpt lat="42.8817860" lon="-8.4276090">
        <ele>390.8</ele>
        <time>2021-03-03T12:02:36Z</time>
      </trkpt>
      <trkpt lat="42.8817850" lon="-8.4276440">
        <ele>391.0</ele>
        <time>2021-03-03T12:02:37Z</time>
      </trkpt>
      <trkpt lat="42.8817840" lon="-8.4276810">
        <ele>391.0</ele>
        <time>2021-03-03T12:02:38Z</time>
      </trkpt>
      <trkpt lat="42.8817830" lon="-8.4277140">
        <ele>391.4</ele>
        <time>2021-03-03T12:02:39Z</time>
      </trkpt>
      <trkpt lat="42.8817810" lon="-8.4277470">
        <ele>391.4</ele>
        <time>2021-03-03T12:02:40Z</time>
      </trkpt>
      <trkpt lat="42.8817800" lon="-8.4277800">
        <ele>391.6</ele>
        <time>2021-03-03T12:02:41Z</time>
      </trkpt>
      <trkpt lat="42.8817770" lon="-8.4278120">
        <ele>391.6</ele>
        <time>2021-03-03T12:02:42Z</time>
      </trkpt>
      <trkpt lat="42.8817760" lon="-8.4278450">
        <ele>391.8</ele>
        <time>2021-03-03T12:02:43Z</time>
      </trkpt>
      <trkpt lat="42.8817720" lon="-8.4278770">
        <ele>391.8</ele>
        <time>2021-03-03T12:02:44Z</time>
      </trkpt>
      <trkpt lat="42.8817660" lon="-8.4279130">
        <ele>392.0</ele>
        <time>2021-03-03T12:02:45Z</time>
      </trkpt>
      <trkpt lat="42.8817630" lon="-8.4279470">
        <ele>392.2</ele>
        <time>2021-03-03T12:02:46Z</time>
      </trkpt>
      <trkpt lat="42.8817620" lon="-8.4279790">
        <ele>392.2</ele>
        <time>2021-03-03T12:02:47Z</time>
      </trkpt>
      <trkpt lat="42.8817610" lon="-8.4280110">
        <ele>392.6</ele>
        <time>2021-03-03T12:02:48Z</time>
      </trkpt>
      <trkpt lat="42.8817630" lon="-8.4280430">
        <ele>392.6</ele>
        <time>2021-03-03T12:02:49Z</time>
      </trkpt>
      <trkpt lat="42.8817620" lon="-8.4280730">
        <ele>392.8</ele>
        <time>2021-03-03T12:02:50Z</time>
      </trkpt>
      <trkpt lat="42.8817620" lon="-8.4281070">
        <ele>393.0</ele>
        <time>2021-03-03T12:02:51Z</time>
      </trkpt>
      <trkpt lat="42.8817620" lon="-8.4281370">
        <ele>393.2</ele>
        <time>2021-03-03T12:02:52Z</time>
      </trkpt>
      <trkpt lat="42.8817600" lon="-8.4281660">
        <ele>393.4</ele>
        <time>2021-03-03T12:02:53Z</time>
      </trkpt>
      <trkpt lat="42.8817560" lon="-8.4281970">
        <ele>393.4</ele>
        <time>2021-03-03T12:02:54Z</time>
      </trkpt>
      <trkpt lat="42.8817500" lon="-8.4282290">
        <ele>393.6</ele>
        <time>2021-03-03T12:02:55Z</time>
      </trkpt>
      <trkpt lat="42.8817480" lon="-8.4282610">
        <ele>393.8</ele>
        <time>2021-03-03T12:02:56Z</time>
      </trkpt>
      <trkpt lat="42.8817470" lon="-8.4282920">
        <ele>393.8</ele>
        <time>2021-03-03T12:02:57Z</time>
      </trkpt>
      <trkpt lat="42.8817430" lon="-8.4283230">
        <ele>394.0</ele>
        <time>2021-03-03T12:02:58Z</time>
      </trkpt>
      <trkpt lat="42.8817400" lon="-8.4283550">
        <ele>394.2</ele>
        <time>2021-03-03T12:02:59Z</time>
      </trkpt>
      <trkpt lat="42.8817400" lon="-8.4283860">
        <ele>394.4</ele>
        <time>2021-03-03T12:03:00Z</time>
      </trkpt>
      <trkpt lat="42.8817380" lon="-8.4284190">
        <ele>394.4</ele>
        <time>2021-03-03T12:03:01Z</time>
      </trkpt>
      <trkpt lat="42.8817360" lon="-8.4284510">
        <ele>394.8</ele>
        <time>2021-03-03T12:03:02Z</time>
      </trkpt>
      <trkpt lat="42.8817340" lon="-8.4284810">
        <ele>395.0</ele>
        <time>2021-03-03T12:03:03Z</time>
      </trkpt>
      <trkpt lat="42.8817330" lon="-8.4285070">
        <ele>395.2</ele>
        <time>2021-03-03T12:03:04Z</time>
      </trkpt>
      <trkpt lat="42.8817310" lon="-8.4285320">
        <ele>395.2</ele>
        <time>2021-03-03T12:03:05Z</time>
      </trkpt>
      <trkpt lat="42.8817290" lon="-8.4285580">
        <ele>395.6</ele>
        <time>2021-03-03T12:03:06Z</time>
      </trkpt>
      <trkpt lat="42.8817250" lon="-8.4285850">
        <ele>395.8</ele>
        <time>2021-03-03T12:03:07Z</time>
      </trkpt>
      <trkpt lat="42.8817210" lon="-8.4286100">
        <ele>396.0</ele>
        <time>2021-03-03T12:03:08Z</time>
      </trkpt>
      <trkpt lat="42.8817160" lon="-8.4286320">
        <ele>396.2</ele>
        <time>2021-03-03T12:03:09Z</time>
      </trkpt>
      <trkpt lat="42.8817170" lon="-8.4286580">
        <ele>396.4</ele>
        <time>2021-03-03T12:03:10Z</time>
      </trkpt>
      <trkpt lat="42.8817170" lon="-8.4286770">
        <ele>396.6</ele>
        <time>2021-03-03T12:03:11Z</time>
      </trkpt>
      <trkpt lat="42.8817190" lon="-8.4286970">
        <ele>396.8</ele>
        <time>2021-03-03T12:03:12Z</time>
      </trkpt>
      <trkpt lat="42.8817160" lon="-8.4287190">
        <ele>397.0</ele>
        <time>2021-03-03T12:03:13Z</time>
      </trkpt>
      <trkpt lat="42.8817170" lon="-8.4287380">
        <ele>397.2</ele>
        <time>2021-03-03T12:03:14Z</time>
      </trkpt>
      <trkpt lat="42.8817160" lon="-8.4287580">
        <ele>397.4</ele>
        <time>2021-03-03T12:03:15Z</time>
      </trkpt>
      <trkpt lat="42.8817120" lon="-8.4287840">
        <ele>397.6</ele>
        <time>2021-03-03T12:03:16Z</time>
      </trkpt>
      <trkpt lat="42.8817090" lon="-8.4288070">
        <ele>397.6</ele>
        <time>2021-03-03T12:03:17Z</time>
      </trkpt>
      <trkpt lat="42.8817080" lon="-8.4288290">
        <ele>397.6</ele>
        <time>2021-03-03T12:03:18Z</time>
      </trkpt>
      <trkpt lat="42.8817070" lon="-8.4288540">
        <ele>397.8</ele>
        <time>2021-03-03T12:03:19Z</time>
      </trkpt>
      <trkpt lat="42.8817060" lon="-8.4288780">
        <ele>398.2</ele>
        <time>2021-03-03T12:03:20Z</time>
      </trkpt>
      <trkpt lat="42.8817020" lon="-8.4289010">
        <ele>398.4</ele>
        <time>2021-03-03T12:03:21Z</time>
      </trkpt>
      <trkpt lat="42.8817010" lon="-8.4289220">
        <ele>398.6</ele>
        <time>2021-03-03T12:03:22Z</time>
      </trkpt>
      <trkpt lat="42.8816990" lon="-8.4289410">
        <ele>398.8</ele>
        <time>2021-03-03T12:03:23Z</time>
      </trkpt>
      <trkpt lat="42.8817000" lon="-8.4289630">
        <ele>398.8</ele>
        <time>2021-03-03T12:03:24Z</time>
      </trkpt>
      <trkpt lat="42.8817020" lon="-8.4289840">
        <ele>399.0</ele>
        <time>2021-03-03T12:03:25Z</time>
      </trkpt>
      <trkpt lat="42.8817040" lon="-8.4290040">
        <ele>399.2</ele>
        <time>2021-03-03T12:03:26Z</time>
      </trkpt>
      <trkpt lat="42.8817100" lon="-8.4290280">
        <ele>399.4</ele>
        <time>2021-03-03T12:03:27Z</time>
      </trkpt>
      <trkpt lat="42.8817160" lon="-8.4290510">
        <ele>399.8</ele>
        <time>2021-03-03T12:03:28Z</time>
      </trkpt>
      <trkpt lat="42.8817180" lon="-8.4290670">
        <ele>400.0</ele>
        <time>2021-03-03T12:03:29Z</time>
      </trkpt>
      <trkpt lat="42.8817220" lon="-8.4290860">
        <ele>400.2</ele>
        <time>2021-03-03T12:03:30Z</time>
      </trkpt>
      <trkpt lat="42.8817270" lon="-8.4291080">
        <ele>400.4</ele>
        <time>2021-03-03T12:03:31Z</time>
      </trkpt>
      <trkpt lat="42.8817300" lon="-8.4291290">
        <ele>400.4</ele>
        <time>2021-03-03T12:03:32Z</time>
      </trkpt>
      <trkpt lat="42.8817330" lon="-8.4291590">
        <ele>400.6</ele>
        <time>2021-03-03T12:03:33Z</time>
      </trkpt>
      <trkpt lat="42.8817350" lon="-8.4291800">
        <ele>400.6</ele>
        <time>2021-03-03T12:03:34Z</time>
      </trkpt>
      <trkpt lat="42.8817410" lon="-8.4292050">
        <ele>401.0</ele>
        <time>2021-03-03T12:03:35Z</time>
      </trkpt>
      <trkpt lat="42.8817490" lon="-8.4292270">
        <ele>401.2</ele>
        <time>2021-03-03T12:03:36Z</time>
      </trkpt>
      <trkpt lat="42.8817560" lon="-8.4292470">
        <ele>401.4</ele>
        <time>2021-03-03T12:03:37Z</time>
      </trkpt>
      <trkpt lat="42.8817590" lon="-8.4292730">
        <ele>401.6</ele>
        <time>2021-03-03T12:03:38Z</time>
      </trkpt>
      <trkpt lat="42.8817610" lon="-8.4292980">
        <ele>401.8</ele>
        <time>2021-03-03T12:03:39Z</time>
      </trkpt>
      <trkpt lat="42.8817660" lon="-8.4293200">
        <ele>402.0</ele>
        <time>2021-03-03T12:03:40Z</time>
      </trkpt>
      <trkpt lat="42.8817740" lon="-8.4293390">
        <ele>402.2</ele>
        <time>2021-03-03T12:03:41Z</time>
      </trkpt>
      <trkpt lat="42.8817840" lon="-8.4293610">
        <ele>402.2</ele>
        <time>2021-03-03T12:03:42Z</time>
      </trkpt>
      <trkpt lat="42.8817930" lon="-8.4293800">
        <ele>402.4</ele>
        <time>2021-03-03T12:03:43Z</time>
      </trkpt>
      <trkpt lat="42.8818040" lon="-8.4294000">
        <ele>402.4</ele>
        <time>2021-03-03T12:03:44Z</time>
      </trkpt>
      <trkpt lat="42.8818120" lon="-8.4294190">
        <ele>402.6</ele>
        <time>2021-03-03T12:03:45Z</time>
      </trkpt>
      <trkpt lat="42.8818180" lon="-8.4294400">
        <ele>402.8</ele>
        <time>2021-03-03T12:03:46Z</time>
      </trkpt>
      <trkpt lat="42.8818270" lon="-8.4294640">
        <ele>403.0</ele>
        <time>2021-03-03T12:03:47Z</time>
      </trkpt>
      <trkpt lat="42.8818340" lon="-8.4294800">
        <ele>403.2</ele>
        <time>2021-03-03T12:03:48Z</time>
      </trkpt>
      <trkpt lat="42.8818410" lon="-8.4295000">
        <ele>403.6</ele>
        <time>2021-03-03T12:03:49Z</time>
      </trkpt>
      <trkpt lat="42.8818510" lon="-8.4295300">
        <ele>403.8</ele>
        <time>2021-03-03T12:03:50Z</time>
      </trkpt>
      <trkpt lat="42.8818570" lon="-8.4295520">
        <ele>403.8</ele>
        <time>2021-03-03T12:03:51Z</time>
      </trkpt>
      <trkpt lat="42.8818640" lon="-8.4295730">
        <ele>404.0</ele>
        <time>2021-03-03T12:03:52Z</time>
      </trkpt>
      <trkpt lat="42.8818710" lon="-8.4295930">
        <ele>404.2</ele>
        <time>2021-03-03T12:03:53Z</time>
      </trkpt>
      <trkpt lat="42.8818780" lon="-8.4296140">
        <ele>404.2</ele>
        <time>2021-03-03T12:03:54Z</time>
      </trkpt>
      <trkpt lat="42.8818860" lon="-8.4296350">
        <ele>404.4</ele>
        <time>2021-03-03T12:03:55Z</time>
      </trkpt>
      <trkpt lat="42.8818950" lon="-8.4296590">
        <ele>404.6</ele>
        <time>2021-03-03T12:03:56Z</time>
      </trkpt>
      <trkpt lat="42.8818990" lon="-8.4296760">
        <ele>404.8</ele>
        <time>2021-03-03T12:03:57Z</time>
      </trkpt>
      <trkpt lat="42.8819070" lon="-8.4296980">
        <ele>405.0</ele>
        <time>2021-03-03T12:03:58Z</time>
      </trkpt>
      <trkpt lat="42.8819150" lon="-8.4297200">
        <ele>405.2</ele>
        <time>2021-03-03T12:03:59Z</time>
      </trkpt>
      <trkpt lat="42.8819200" lon="-8.4297410">
        <ele>405.2</ele>
        <time>2021-03-03T12:04:00Z</time>
      </trkpt>
      <trkpt lat="42.8819270" lon="-8.4297610">
        <ele>405.4</ele>
        <time>2021-03-03T12:04:01Z</time>
      </trkpt>
      <trkpt lat="42.8819320" lon="-8.4297820">
        <ele>405.8</ele>
        <time>2021-03-03T12:04:02Z</time>
      </trkpt>
      <trkpt lat="42.8819400" lon="-8.4298010">
        <ele>406.0</ele>
        <time>2021-03-03T12:04:03Z</time>
      </trkpt>
      <trkpt lat="42.8819500" lon="-8.4298190">
        <ele>406.2</ele>
        <time>2021-03-03T12:04:04Z</time>
      </trkpt>
      <trkpt lat="42.8819570" lon="-8.4298400">
        <ele>406.4</ele>
        <time>2021-03-03T12:04:05Z</time>
      </trkpt>
      <trkpt lat="42.8819640" lon="-8.4298640">
        <ele>406.4</ele>
        <time>2021-03-03T12:04:06Z</time>
      </trkpt>
      <trkpt lat="42.8819720" lon="-8.4298880">
        <ele>406.6</ele>
        <time>2021-03-03T12:04:07Z</time>
      </trkpt>
      <trkpt lat="42.8819800" lon="-8.4299130">
        <ele>406.6</ele>
        <time>2021-03-03T12:04:08Z</time>
      </trkpt>
      <trkpt lat="42.8819850" lon="-8.4299390">
        <ele>406.8</ele>
        <time>2021-03-03T12:04:09Z</time>
      </trkpt>
      <trkpt lat="42.8819900" lon="-8.4299600">
        <ele>407.2</ele>
        <time>2021-03-03T12:04:10Z</time>
      </trkpt>
      <trkpt lat="42.8819980" lon="-8.4299830">
        <ele>407.4</ele>
        <time>2021-03-03T12:04:11Z</time>
      </trkpt>
      <trkpt lat="42.8820080" lon="-8.4300050">
        <ele>407.4</ele>
        <time>2021-03-03T12:04:12Z</time>
      </trkpt>
      <trkpt lat="42.8820170" lon="-8.4300270">
        <ele>407.6</ele>
        <time>2021-03-03T12:04:13Z</time>
      </trkpt>
      <trkpt lat="42.8820270" lon="-8.4300460">
        <ele>407.6</ele>
        <time>2021-03-03T12:04:14Z</time>
      </trkpt>
      <trkpt lat="42.8820360" lon="-8.4300670">
        <ele>408.0</ele>
        <time>2021-03-03T12:04:15Z</time>
      </trkpt>
      <trkpt lat="42.8820440" lon="-8.4300890">
        <ele>408.2</ele>
        <time>2021-03-03T12:04:16Z</time>
      </trkpt>
      <trkpt lat="42.8820510" lon="-8.4301130">
        <ele>408.4</ele>
        <time>2021-03-03T12:04:17Z</time>
      </trkpt>
      <trkpt lat="42.8820590" lon="-8.4301340">
        <ele>408.6</ele>
        <time>2021-03-03T12:04:18Z</time>
      </trkpt>
      <trkpt lat="42.8820670" lon="-8.4301580">
        <ele>408.6</ele>
        <time>2021-03-03T12:04:19Z</time>
      </trkpt>
      <trkpt lat="42.8820730" lon="-8.4301800">
        <ele>408.8</ele>
        <time>2021-03-03T12:04:20Z</time>
      </trkpt>
      <trkpt lat="42.8820820" lon="-8.4302050">
        <ele>408.8</ele>
        <time>2021-03-03T12:04:21Z</time>
      </trkpt>
      <trkpt lat="42.8820920" lon="-8.4302320">
        <ele>409.0</ele>
        <time>2021-03-03T12:04:22Z</time>
      </trkpt>
      <trkpt lat="42.8821020" lon="-8.4302610">
        <ele>409.0</ele>
        <time>2021-03-03T12:04:23Z</time>
      </trkpt>
      <trkpt lat="42.8821130" lon="-8.4302860">
        <ele>409.2</ele>
        <time>2021-03-03T12:04:24Z</time>
      </trkpt>
      <trkpt lat="42.8821190" lon="-8.4303060">
        <ele>409.4</ele>
        <time>2021-03-03T12:04:25Z</time>
      </trkpt>
      <trkpt lat="42.8821270" lon="-8.4303240">
        <ele>409.6</ele>
        <time>2021-03-03T12:04:26Z</time>
      </trkpt>
      <trkpt lat="42.8821330" lon="-8.4303430">
        <ele>409.6</ele>
        <time>2021-03-03T12:04:27Z</time>
      </trkpt>
      <trkpt lat="42.8821400" lon="-8.4303660">
        <ele>409.8</ele>
        <time>2021-03-03T12:04:28Z</time>
      </trkpt>
      <trkpt lat="42.8821460" lon="-8.4303880">
        <ele>410.2</ele>
        <time>2021-03-03T12:04:29Z</time>
      </trkpt>
      <trkpt lat="42.8821500" lon="-8.4304040">
        <ele>410.4</ele>
        <time>2021-03-03T12:04:30Z</time>
      </trkpt>
      <trkpt lat="42.8821550" lon="-8.4304240">
        <ele>410.4</ele>
        <time>2021-03-03T12:04:31Z</time>
      </trkpt>
      <trkpt lat="42.8821590" lon="-8.4304460">
        <ele>410.6</ele>
        <time>2021-03-03T12:04:32Z</time>
      </trkpt>
      <trkpt lat="42.8821710" lon="-8.4304730">
        <ele>410.8</ele>
        <time>2021-03-03T12:04:33Z</time>
      </trkpt>
      <trkpt lat="42.8821830" lon="-8.4304990">
        <ele>410.8</ele>
        <time>2021-03-03T12:04:34Z</time>
      </trkpt>
      <trkpt lat="42.8821920" lon="-8.4305150">
        <ele>411.0</ele>
        <time>2021-03-03T12:04:35Z</time>
      </trkpt>
      <trkpt lat="42.8822000" lon="-8.4305370">
        <ele>411.0</ele>
        <time>2021-03-03T12:04:36Z</time>
      </trkpt>
      <trkpt lat="42.8822090" lon="-8.4305610">
        <ele>411.2</ele>
        <time>2021-03-03T12:04:37Z</time>
      </trkpt>
      <trkpt lat="42.8822170" lon="-8.4305870">
        <ele>411.4</ele>
        <time>2021-03-03T12:04:38Z</time>
      </trkpt>
      <trkpt lat="42.8822250" lon="-8.4306110">
        <ele>411.4</ele>
        <time>2021-03-03T12:04:39Z</time>
      </trkpt>
      <trkpt lat="42.8822330" lon="-8.4306340">
        <ele>411.6</ele>
        <time>2021-03-03T12:04:40Z</time>
      </trkpt>
      <trkpt lat="42.8822410" lon="-8.4306550">
        <ele>411.6</ele>
        <time>2021-03-03T12:04:41Z</time>
      </trkpt>
      <trkpt lat="42.8822460" lon="-8.4306750">
        <ele>411.8</ele>
        <time>2021-03-03T12:04:42Z</time>
      </trkpt>
      <trkpt lat="42.8822540" lon="-8.4306970">
        <ele>412.0</ele>
        <time>2021-03-03T12:04:43Z</time>
      </trkpt>
      <trkpt lat="42.8822620" lon="-8.4307170">
        <ele>412.2</ele>
        <time>2021-03-03T12:04:44Z</time>
      </trkpt>
      <trkpt lat="42.8822680" lon="-8.4307400">
        <ele>412.2</ele>
        <time>2021-03-03T12:04:45Z</time>
      </trkpt>
      <trkpt lat="42.8822750" lon="-8.4307630">
        <ele>412.4</ele>
        <time>2021-03-03T12:04:46Z</time>
      </trkpt>
      <trkpt lat="42.8822830" lon="-8.4307860">
        <ele>412.6</ele>
        <time>2021-03-03T12:04:47Z</time>
      </trkpt>
      <trkpt lat="42.8822900" lon="-8.4308110">
        <ele>413.0</ele>
        <time>2021-03-03T12:04:48Z</time>
      </trkpt>
      <trkpt lat="42.8822970" lon="-8.4308340">
        <ele>413.2</ele>
        <time>2021-03-03T12:04:49Z</time>
      </trkpt>
      <trkpt lat="42.8823040" lon="-8.4308550">
        <ele>413.2</ele>
        <time>2021-03-03T12:04:50Z</time>
      </trkpt>
      <trkpt lat="42.8823120" lon="-8.4308740">
        <ele>413.4</ele>
        <time>2021-03-03T12:04:51Z</time>
      </trkpt>
      <trkpt lat="42.8823190" lon="-8.4308930">
        <ele>413.6</ele>
        <time>2021-03-03T12:04:52Z</time>
      </trkpt>
      <trkpt lat="42.8823250" lon="-8.4309160">
        <ele>413.8</ele>
        <time>2021-03-03T12:04:53Z</time>
      </trkpt>
      <trkpt lat="42.8823320" lon="-8.4309360">
        <ele>413.8</ele>
        <time>2021-03-03T12:04:54Z</time>
      </trkpt>
      <trkpt lat="42.8823370" lon="-8.4309570">
        <ele>414.0</ele>
        <time>2021-03-03T12:04:55Z</time>
      </trkpt>
      <trkpt lat="42.8823440" lon="-8.4309800">
        <ele>414.0</ele>
        <time>2021-03-03T12:04:56Z</time>
      </trkpt>
      <trkpt lat="42.8823520" lon="-8.4310010">
        <ele>414.0</ele>
        <time>2021-03-03T12:04:57Z</time>
      </trkpt>
      <trkpt lat="42.8823580" lon="-8.4310270">
        <ele>414.2</ele>
        <time>2021-03-03T12:04:58Z</time>
      </trkpt>
      <trkpt lat="42.8823660" lon="-8.4310510">
        <ele>414.6</ele>
        <time>2021-03-03T12:04:59Z</time>
      </trkpt>
      <trkpt lat="42.8823730" lon="-8.4310730">
        <ele>414.8</ele>
        <time>2021-03-03T12:05:00Z</time>
      </trkpt>
      <trkpt lat="42.8823790" lon="-8.4310960">
        <ele>415.0</ele>
        <time>2021-03-03T12:05:01Z</time>
      </trkpt>
      <trkpt lat="42.8823870" lon="-8.4311170">
        <ele>415.0</ele>
        <time>2021-03-03T12:05:02Z</time>
      </trkpt>
      <trkpt lat="42.8823950" lon="-8.4311350">
        <ele>415.2</ele>
        <time>2021-03-03T12:05:03Z</time>
      </trkpt>
      <trkpt lat="42.8824010" lon="-8.4311530">
        <ele>415.2</ele>
        <time>2021-03-03T12:05:04Z</time>
      </trkpt>
      <trkpt lat="42.8824080" lon="-8.4311710">
        <ele>415.6</ele>
        <time>2021-03-03T12:05:05Z</time>
      </trkpt>
      <trkpt lat="42.8824140" lon="-8.4311910">
        <ele>415.8</ele>
        <time>2021-03-03T12:05:06Z</time>
      </trkpt>
      <trkpt lat="42.8824210" lon="-8.4312130">
        <ele>415.8</ele>
        <time>2021-03-03T12:05:07Z</time>
      </trkpt>
      <trkpt lat="42.8824280" lon="-8.4312350">
        <ele>415.8</ele>
        <time>2021-03-03T12:05:08Z</time>
      </trkpt>
      <trkpt lat="42.8824370" lon="-8.4312600">
        <ele>416.0</ele>
        <time>2021-03-03T12:05:09Z</time>
      </trkpt>
      <trkpt lat="42.8824460" lon="-8.4312840">
        <ele>416.4</ele>
        <time>2021-03-03T12:05:10Z</time>
      </trkpt>
      <trkpt lat="42.8824560" lon="-8.4313070">
        <ele>416.6</ele>
        <time>2021-03-03T12:05:11Z</time>
      </trkpt>
      <trkpt lat="42.8824640" lon="-8.4313280">
        <ele>416.6</ele>
        <time>2021-03-03T12:05:12Z</time>
      </trkpt>
      <trkpt lat="42.8824730" lon="-8.4313480">
        <ele>416.6</ele>
        <time>2021-03-03T12:05:13Z</time>
      </trkpt>
      <trkpt lat="42.8824790" lon="-8.4313710">
        <ele>416.8</ele>
        <time>2021-03-03T12:05:14Z</time>
      </trkpt>
      <trkpt lat="42.8824850" lon="-8.4313910">
        <ele>417.0</ele>
        <time>2021-03-03T12:05:15Z</time>
      </trkpt>
      <trkpt lat="42.8824920" lon="-8.4314120">
        <ele>417.2</ele>
        <time>2021-03-03T12:05:16Z</time>
      </trkpt>
      <trkpt lat="42.8824990" lon="-8.4314330">
        <ele>417.6</ele>
        <time>2021-03-03T12:05:17Z</time>
      </trkpt>
      <trkpt lat="42.8825070" lon="-8.4314550">
        <ele>417.8</ele>
        <time>2021-03-03T12:05:18Z</time>
      </trkpt>
      <trkpt lat="42.8825150" lon="-8.4314790">
        <ele>417.8</ele>
        <time>2021-03-03T12:05:19Z</time>
      </trkpt>
      <trkpt lat="42.8825210" lon="-8.4314990">
        <ele>417.8</ele>
        <time>2021-03-03T12:05:20Z</time>
      </trkpt>
      <trkpt lat="42.8825280" lon="-8.4315230">
        <ele>418.0</ele>
        <time>2021-03-03T12:05:21Z</time>
      </trkpt>
      <trkpt lat="42.8825340" lon="-8.4315440">
        <ele>418.2</ele>
        <time>2021-03-03T12:05:22Z</time>
      </trkpt>
      <trkpt lat="42.8825400" lon="-8.4315690">
        <ele>418.4</ele>
        <time>2021-03-03T12:05:23Z</time>
      </trkpt>
      <trkpt lat="42.8825470" lon="-8.4315900">
        <ele>418.6</ele>
        <time>2021-03-03T12:05:24Z</time>
      </trkpt>
      <trkpt lat="42.8825530" lon="-8.4316090">
        <ele>418.6</ele>
        <time>2021-03-03T12:05:25Z</time>
      </trkpt>
      <trkpt lat="42.8825570" lon="-8.4316290">
        <ele>418.6</ele>
        <time>2021-03-03T12:05:26Z</time>
      </trkpt>
      <trkpt lat="42.8825640" lon="-8.4316540">
        <ele>418.8</ele>
        <time>2021-03-03T12:05:27Z</time>
      </trkpt>
      <trkpt lat="42.8825690" lon="-8.4316690">
        <ele>419.2</ele>
        <time>2021-03-03T12:05:28Z</time>
      </trkpt>
      <trkpt lat="42.8825750" lon="-8.4316890">
        <ele>419.4</ele>
        <time>2021-03-03T12:05:29Z</time>
      </trkpt>
      <trkpt lat="42.8825770" lon="-8.4317090">
        <ele>419.4</ele>
        <time>2021-03-03T12:05:30Z</time>
      </trkpt>
      <trkpt lat="42.8825810" lon="-8.4317290">
        <ele>419.6</ele>
        <time>2021-03-03T12:05:31Z</time>
      </trkpt>
      <trkpt lat="42.8825860" lon="-8.4317540">
        <ele>419.8</ele>
        <time>2021-03-03T12:05:32Z</time>
      </trkpt>
      <trkpt lat="42.8825960" lon="-8.4317750">
        <ele>419.8</ele>
        <time>2021-03-03T12:05:33Z</time>
      </trkpt>
      <trkpt lat="42.8826060" lon="-8.4317970">
        <ele>420.0</ele>
        <time>2021-03-03T12:05:34Z</time>
      </trkpt>
      <trkpt lat="42.8826140" lon="-8.4318180">
        <ele>420.2</ele>
        <time>2021-03-03T12:05:35Z</time>
      </trkpt>
      <trkpt lat="42.8826220" lon="-8.4318420">
        <ele>420.4</ele>
        <time>2021-03-03T12:05:36Z</time>
      </trkpt>
      <trkpt lat="42.8826300" lon="-8.4318640">
        <ele>420.4</ele>
        <time>2021-03-03T12:05:37Z</time>
      </trkpt>
      <trkpt lat="42.8826390" lon="-8.4318840">
        <ele>420.4</ele>
        <time>2021-03-03T12:05:38Z</time>
      </trkpt>
      <trkpt lat="42.8826490" lon="-8.4319040">
        <ele>420.6</ele>
        <time>2021-03-03T12:05:39Z</time>
      </trkpt>
      <trkpt lat="42.8826550" lon="-8.4319260">
        <ele>420.8</ele>
        <time>2021-03-03T12:05:40Z</time>
      </trkpt>
      <trkpt lat="42.8826630" lon="-8.4319450">
        <ele>421.0</ele>
        <time>2021-03-03T12:05:41Z</time>
      </trkpt>
      <trkpt lat="42.8826730" lon="-8.4319650">
        <ele>421.0</ele>
        <time>2021-03-03T12:05:42Z</time>
      </trkpt>
      <trkpt lat="42.8826800" lon="-8.4319880">
        <ele>421.2</ele>
        <time>2021-03-03T12:05:43Z</time>
      </trkpt>
      <trkpt lat="42.8826870" lon="-8.4320130">
        <ele>421.4</ele>
        <time>2021-03-03T12:05:44Z</time>
      </trkpt>
      <trkpt lat="42.8826990" lon="-8.4320350">
        <ele>421.6</ele>
        <time>2021-03-03T12:05:45Z</time>
      </trkpt>
      <trkpt lat="42.8827070" lon="-8.4320580">
        <ele>421.8</ele>
        <time>2021-03-03T12:05:46Z</time>
      </trkpt>
      <trkpt lat="42.8827110" lon="-8.4320840">
        <ele>421.8</ele>
        <time>2021-03-03T12:05:47Z</time>
      </trkpt>
      <trkpt lat="42.8827180" lon="-8.4321040">
        <ele>421.8</ele>
        <time>2021-03-03T12:05:48Z</time>
      </trkpt>
      <trkpt lat="42.8827300" lon="-8.4321210">
        <ele>422.0</ele>
        <time>2021-03-03T12:05:49Z</time>
      </trkpt>
      <trkpt lat="42.8827390" lon="-8.4321430">
        <ele>422.0</ele>
        <time>2021-03-03T12:05:50Z</time>
      </trkpt>
      <trkpt lat="42.8827500" lon="-8.4321580">
        <ele>422.2</ele>
        <time>2021-03-03T12:05:51Z</time>
      </trkpt>
      <trkpt lat="42.8827610" lon="-8.4321780">
        <ele>422.4</ele>
        <time>2021-03-03T12:05:52Z</time>
      </trkpt>
      <trkpt lat="42.8827690" lon="-8.4322010">
        <ele>422.4</ele>
        <time>2021-03-03T12:05:53Z</time>
      </trkpt>
      <trkpt lat="42.8827750" lon="-8.4322250">
        <ele>422.6</ele>
        <time>2021-03-03T12:05:54Z</time>
      </trkpt>
      <trkpt lat="42.8827840" lon="-8.4322500">
        <ele>422.8</ele>
        <time>2021-03-03T12:05:55Z</time>
      </trkpt>
      <trkpt lat="42.8827920" lon="-8.4322760">
        <ele>422.8</ele>
        <time>2021-03-03T12:05:56Z</time>
      </trkpt>
      <trkpt lat="42.8827990" lon="-8.4322990">
        <ele>422.8</ele>
        <time>2021-03-03T12:05:57Z</time>
      </trkpt>
      <trkpt lat="42.8828080" lon="-8.4323210">
        <ele>423.0</ele>
        <time>2021-03-03T12:05:58Z</time>
      </trkpt>
      <trkpt lat="42.8828150" lon="-8.4323430">
        <ele>423.0</ele>
        <time>2021-03-03T12:05:59Z</time>
      </trkpt>
      <trkpt lat="42.8828230" lon="-8.4323610">
        <ele>423.2</ele>
        <time>2021-03-03T12:06:00Z</time>
      </trkpt>
      <trkpt lat="42.8828290" lon="-8.4323780">
        <ele>423.2</ele>
        <time>2021-03-03T12:06:01Z</time>
      </trkpt>
      <trkpt lat="42.8828370" lon="-8.4324040">
        <ele>423.4</ele>
        <time>2021-03-03T12:06:02Z</time>
      </trkpt>
      <trkpt lat="42.8828430" lon="-8.4324200">
        <ele>423.6</ele>
        <time>2021-03-03T12:06:03Z</time>
      </trkpt>
      <trkpt lat="42.8828530" lon="-8.4324440">
        <ele>423.6</ele>
        <time>2021-03-03T12:06:04Z</time>
      </trkpt>
      <trkpt lat="42.8828610" lon="-8.4324650">
        <ele>423.6</ele>
        <time>2021-03-03T12:06:05Z</time>
      </trkpt>
      <trkpt lat="42.8828690" lon="-8.4324890">
        <ele>423.6</ele>
        <time>2021-03-03T12:06:06Z</time>
      </trkpt>
      <trkpt lat="42.8828740" lon="-8.4325150">
        <ele>423.6</ele>
        <time>2021-03-03T12:06:07Z</time>
      </trkpt>
      <trkpt lat="42.8828790" lon="-8.4325400">
        <ele>423.8</ele>
        <time>2021-03-03T12:06:08Z</time>
      </trkpt>
      <trkpt lat="42.8828840" lon="-8.4325630">
        <ele>423.8</ele>
        <time>2021-03-03T12:06:09Z</time>
      </trkpt>
      <trkpt lat="42.8828900" lon="-8.4325870">
        <ele>423.8</ele>
        <time>2021-03-03T12:06:10Z</time>
      </trkpt>
      <trkpt lat="42.8828970" lon="-8.4326070">
        <ele>423.8</ele>
        <time>2021-03-03T12:06:11Z</time>
      </trkpt>
      <trkpt lat="42.8829040" lon="-8.4326280">
        <ele>423.8</ele>
        <time>2021-03-03T12:06:12Z</time>
      </trkpt>
      <trkpt lat="42.8829100" lon="-8.4326510">
        <ele>424.0</ele>
        <time>2021-03-03T12:06:13Z</time>
      </trkpt>
      <trkpt lat="42.8829180" lon="-8.4326760">
        <ele>424.0</ele>
        <time>2021-03-03T12:06:14Z</time>
      </trkpt>
      <trkpt lat="42.8829270" lon="-8.4327030">
        <ele>423.8</ele>
        <time>2021-03-03T12:06:15Z</time>
      </trkpt>
      <trkpt lat="42.8829360" lon="-8.4327320">
        <ele>423.8</ele>
        <time>2021-03-03T12:06:16Z</time>
      </trkpt>
      <trkpt lat="42.8829450" lon="-8.4327610">
        <ele>423.8</ele>
        <time>2021-03-03T12:06:17Z</time>
      </trkpt>
      <trkpt lat="42.8829570" lon="-8.4327910">
        <ele>423.8</ele>
        <time>2021-03-03T12:06:18Z</time>
      </trkpt>
      <trkpt lat="42.8829690" lon="-8.4328220">
        <ele>423.8</ele>
        <time>2021-03-03T12:06:19Z</time>
      </trkpt>
      <trkpt lat="42.8829790" lon="-8.4328540">
        <ele>423.8</ele>
        <time>2021-03-03T12:06:20Z</time>
      </trkpt>
      <trkpt lat="42.8829890" lon="-8.4328870">
        <ele>423.6</ele>
        <time>2021-03-03T12:06:21Z</time>
      </trkpt>
      <trkpt lat="42.8829980" lon="-8.4329160">
        <ele>423.6</ele>
        <time>2021-03-03T12:06:22Z</time>
      </trkpt>
      <trkpt lat="42.8830080" lon="-8.4329440">
        <ele>423.4</ele>
        <time>2021-03-03T12:06:23Z</time>
      </trkpt>
      <trkpt lat="42.8830160" lon="-8.4329790">
        <ele>423.2</ele>
        <time>2021-03-03T12:06:24Z</time>
      </trkpt>
      <trkpt lat="42.8830240" lon="-8.4330130">
        <ele>423.0</ele>
        <time>2021-03-03T12:06:25Z</time>
      </trkpt>
      <trkpt lat="42.8830340" lon="-8.4330450">
        <ele>422.8</ele>
        <time>2021-03-03T12:06:26Z</time>
      </trkpt>
      <trkpt lat="42.8830390" lon="-8.4330790">
        <ele>422.8</ele>
        <time>2021-03-03T12:06:27Z</time>
      </trkpt>
      <trkpt lat="42.8830480" lon="-8.4331130">
        <ele>422.6</ele>
        <time>2021-03-03T12:06:28Z</time>
      </trkpt>
      <trkpt lat="42.8830610" lon="-8.4331480">
        <ele>422.2</ele>
        <time>2021-03-03T12:06:29Z</time>
      </trkpt>
      <trkpt lat="42.8830760" lon="-8.4331830">
        <ele>421.8</ele>
        <time>2021-03-03T12:06:30Z</time>
      </trkpt>
      <trkpt lat="42.8830900" lon="-8.4332180">
        <ele>421.6</ele>
        <time>2021-03-03T12:06:31Z</time>
      </trkpt>
      <trkpt lat="42.8831030" lon="-8.4332520">
        <ele>421.4</ele>
        <time>2021-03-03T12:06:32Z</time>
      </trkpt>
      <trkpt lat="42.8831170" lon="-8.4332870">
        <ele>421.2</ele>
        <time>2021-03-03T12:06:33Z</time>
      </trkpt>
      <trkpt lat="42.8831320" lon="-8.4333200">
        <ele>421.0</ele>
        <time>2021-03-03T12:06:34Z</time>
      </trkpt>
      <trkpt lat="42.8831420" lon="-8.4333550">
        <ele>420.8</ele>
        <time>2021-03-03T12:06:35Z</time>
      </trkpt>
      <trkpt lat="42.8831530" lon="-8.4333950">
        <ele>420.4</ele>
        <time>2021-03-03T12:06:36Z</time>
      </trkpt>
      <trkpt lat="42.8831650" lon="-8.4334370">
        <ele>420.0</ele>
        <time>2021-03-03T12:06:37Z</time>
      </trkpt>
      <trkpt lat="42.8831800" lon="-8.4334780">
        <ele>419.8</ele>
        <time>2021-03-03T12:06:38Z</time>
      </trkpt>
      <trkpt lat="42.8831940" lon="-8.4335210">
        <ele>419.6</ele>
        <time>2021-03-03T12:06:39Z</time>
      </trkpt>
      <trkpt lat="42.8832060" lon="-8.4335610">
        <ele>419.2</ele>
        <time>2021-03-03T12:06:40Z</time>
      </trkpt>
      <trkpt lat="42.8832200" lon="-8.4336000">
        <ele>418.8</ele>
        <time>2021-03-03T12:06:41Z</time>
      </trkpt>
      <trkpt lat="42.8832350" lon="-8.4336400">
        <ele>418.6</ele>
        <time>2021-03-03T12:06:42Z</time>
      </trkpt>
      <trkpt lat="42.8832480" lon="-8.4336780">
        <ele>418.4</ele>
        <time>2021-03-03T12:06:43Z</time>
      </trkpt>
      <trkpt lat="42.8832590" lon="-8.4337190">
        <ele>418.2</ele>
        <time>2021-03-03T12:06:44Z</time>
      </trkpt>
      <trkpt lat="42.8832670" lon="-8.4337590">
        <ele>417.8</ele>
        <time>2021-03-03T12:06:45Z</time>
      </trkpt>
      <trkpt lat="42.8832780" lon="-8.4337950">
        <ele>417.6</ele>
        <time>2021-03-03T12:06:46Z</time>
      </trkpt>
      <trkpt lat="42.8832890" lon="-8.4338380">
        <ele>417.4</ele>
        <time>2021-03-03T12:06:47Z</time>
      </trkpt>
      <trkpt lat="42.8832990" lon="-8.4338830">
        <ele>417.2</ele>
        <time>2021-03-03T12:06:48Z</time>
      </trkpt>
      <trkpt lat="42.8833090" lon="-8.4339260">
        <ele>416.6</ele>
        <time>2021-03-03T12:06:49Z</time>
      </trkpt>
      <trkpt lat="42.8833180" lon="-8.4339690">
        <ele>416.4</ele>
        <time>2021-03-03T12:06:50Z</time>
      </trkpt>
      <trkpt lat="42.8833330" lon="-8.4340100">
        <ele>416.2</ele>
        <time>2021-03-03T12:06:51Z</time>
      </trkpt>
      <trkpt lat="42.8833460" lon="-8.4340510">
        <ele>415.8</ele>
        <time>2021-03-03T12:06:52Z</time>
      </trkpt>
      <trkpt lat="42.8833580" lon="-8.4340930">
        <ele>415.6</ele>
        <time>2021-03-03T12:06:53Z</time>
      </trkpt>
      <trkpt lat="42.8833750" lon="-8.4341370">
        <ele>415.2</ele>
        <time>2021-03-03T12:06:54Z</time>
      </trkpt>
      <trkpt lat="42.8833940" lon="-8.4341780">
        <ele>414.8</ele>
        <time>2021-03-03T12:06:55Z</time>
      </trkpt>
      <trkpt lat="42.8834090" lon="-8.4342190">
        <ele>414.6</ele>
        <time>2021-03-03T12:06:56Z</time>
      </trkpt>
      <trkpt lat="42.8834250" lon="-8.4342620">
        <ele>414.2</ele>
        <time>2021-03-03T12:06:57Z</time>
      </trkpt>
      <trkpt lat="42.8834380" lon="-8.4343010">
        <ele>413.8</ele>
        <time>2021-03-03T12:06:58Z</time>
      </trkpt>
      <trkpt lat="42.8834510" lon="-8.4343430">
        <ele>413.4</ele>
        <time>2021-03-03T12:06:59Z</time>
      </trkpt>
      <trkpt lat="42.8834690" lon="-8.4343850">
        <ele>413.0</ele>
        <time>2021-03-03T12:07:00Z</time>
      </trkpt>
      <trkpt lat="42.8834820" lon="-8.4344290">
        <ele>412.6</ele>
        <time>2021-03-03T12:07:01Z</time>
      </trkpt>
      <trkpt lat="42.8834930" lon="-8.4344740">
        <ele>412.2</ele>
        <time>2021-03-03T12:07:02Z</time>
      </trkpt>
      <trkpt lat="42.8835070" lon="-8.4345150">
        <ele>411.8</ele>
        <time>2021-03-03T12:07:03Z</time>
      </trkpt>
      <trkpt lat="42.8835150" lon="-8.4345580">
        <ele>411.6</ele>
        <time>2021-03-03T12:07:04Z</time>
      </trkpt>
      <trkpt lat="42.8835240" lon="-8.4345990">
        <ele>411.2</ele>
        <time>2021-03-03T12:07:05Z</time>
      </trkpt>
      <trkpt lat="42.8835350" lon="-8.4346400">
        <ele>411.0</ele>
        <time>2021-03-03T12:07:06Z</time>
      </trkpt>
      <trkpt lat="42.8835460" lon="-8.4346870">
        <ele>410.6</ele>
        <time>2021-03-03T12:07:07Z</time>
      </trkpt>
      <trkpt lat="42.8835580" lon="-8.4347290">
        <ele>410.2</ele>
        <time>2021-03-03T12:07:08Z</time>
      </trkpt>
      <trkpt lat="42.8835710" lon="-8.4347740">
        <ele>409.8</ele>
        <time>2021-03-03T12:07:09Z</time>
      </trkpt>
      <trkpt lat="42.8835850" lon="-8.4348170">
        <ele>409.6</ele>
        <time>2021-03-03T12:07:10Z</time>
      </trkpt>
      <trkpt lat="42.8835970" lon="-8.4348620">
        <ele>409.4</ele>
        <time>2021-03-03T12:07:11Z</time>
      </trkpt>
      <trkpt lat="42.8836130" lon="-8.4349090">
        <ele>409.2</ele>
        <time>2021-03-03T12:07:12Z</time>
      </trkpt>
      <trkpt lat="42.8836290" lon="-8.4349530">
        <ele>408.8</ele>
        <time>2021-03-03T12:07:13Z</time>
      </trkpt>
      <trkpt lat="42.8836610" lon="-8.4350010">
        <ele>408.6</ele>
        <time>2021-03-03T12:07:14Z</time>
      </trkpt>
      <trkpt lat="42.8836790" lon="-8.4350470">
        <ele>408.2</ele>
        <time>2021-03-03T12:07:15Z</time>
      </trkpt>
      <trkpt lat="42.8836900" lon="-8.4350970">
        <ele>408.0</ele>
        <time>2021-03-03T12:07:16Z</time>
      </trkpt>
      <trkpt lat="42.8837050" lon="-8.4351450">
        <ele>407.6</ele>
        <time>2021-03-03T12:07:17Z</time>
      </trkpt>
      <trkpt lat="42.8837190" lon="-8.4351880">
        <ele>407.6</ele>
        <time>2021-03-03T12:07:18Z</time>
      </trkpt>
      <trkpt lat="42.8837310" lon="-8.4352350">
        <ele>407.2</ele>
        <time>2021-03-03T12:07:19Z</time>
      </trkpt>
      <trkpt lat="42.8837390" lon="-8.4352800">
        <ele>407.2</ele>
        <time>2021-03-03T12:07:20Z</time>
      </trkpt>
      <trkpt lat="42.8837530" lon="-8.4353270">
        <ele>407.0</ele>
        <time>2021-03-03T12:07:21Z</time>
      </trkpt>
      <trkpt lat="42.8837680" lon="-8.4353800">
        <ele>407.0</ele>
        <time>2021-03-03T12:07:22Z</time>
      </trkpt>
      <trkpt lat="42.8837790" lon="-8.4354300">
        <ele>406.8</ele>
        <time>2021-03-03T12:07:23Z</time>
      </trkpt>
      <trkpt lat="42.8837920" lon="-8.4354740">
        <ele>406.6</ele>
        <time>2021-03-03T12:07:24Z</time>
      </trkpt>
      <trkpt lat="42.8838050" lon="-8.4355160">
        <ele>406.4</ele>
        <time>2021-03-03T12:07:25Z</time>
      </trkpt>
      <trkpt lat="42.8838170" lon="-8.4355590">
        <ele>406.2</ele>
        <time>2021-03-03T12:07:26Z</time>
      </trkpt>
      <trkpt lat="42.8838300" lon="-8.4356020">
        <ele>406.0</ele>
        <time>2021-03-03T12:07:27Z</time>
      </trkpt>
      <trkpt lat="42.8838440" lon="-8.4356440">
        <ele>406.0</ele>
        <time>2021-03-03T12:07:28Z</time>
      </trkpt>
      <trkpt lat="42.8838570" lon="-8.4356850">
        <ele>406.0</ele>
        <time>2021-03-03T12:07:29Z</time>
      </trkpt>
      <trkpt lat="42.8838730" lon="-8.4357230">
        <ele>405.8</ele>
        <time>2021-03-03T12:07:30Z</time>
      </trkpt>
      <trkpt lat="42.8838890" lon="-8.4357650">
        <ele>405.8</ele>
        <time>2021-03-03T12:07:31Z</time>
      </trkpt>
      <trkpt lat="42.8839020" lon="-8.4358050">
        <ele>405.8</ele>
        <time>2021-03-03T12:07:32Z</time>
      </trkpt>
      <trkpt lat="42.8839160" lon="-8.4358440">
        <ele>405.8</ele>
        <time>2021-03-03T12:07:33Z</time>
      </trkpt>
      <trkpt lat="42.8839290" lon="-8.4358850">
        <ele>405.8</ele>
        <time>2021-03-03T12:07:34Z</time>
      </trkpt>
      <trkpt lat="42.8839450" lon="-8.4359260">
        <ele>405.6</ele>
        <time>2021-03-03T12:07:35Z</time>
      </trkpt>
      <trkpt lat="42.8839610" lon="-8.4359630">
        <ele>405.4</ele>
        <time>2021-03-03T12:07:36Z</time>
      </trkpt>
      <trkpt lat="42.8839760" lon="-8.4360030">
        <ele>405.4</ele>
        <time>2021-03-03T12:07:37Z</time>
      </trkpt>
      <trkpt lat="42.8839880" lon="-8.4360450">
        <ele>405.2</ele>
        <time>2021-03-03T12:07:38Z</time>
      </trkpt>
      <trkpt lat="42.8839990" lon="-8.4360870">
        <ele>405.2</ele>
        <time>2021-03-03T12:07:39Z</time>
      </trkpt>
      <trkpt lat="42.8840110" lon="-8.4361250">
        <ele>405.2</ele>
        <time>2021-03-03T12:07:40Z</time>
      </trkpt>
      <trkpt lat="42.8840210" lon="-8.4361670">
        <ele>405.2</ele>
        <time>2021-03-03T12:07:41Z</time>
      </trkpt>
      <trkpt lat="42.8840340" lon="-8.4362090">
        <ele>405.0</ele>
        <time>2021-03-03T12:07:42Z</time>
      </trkpt>
      <trkpt lat="42.8840480" lon="-8.4362470">
        <ele>404.8</ele>
        <time>2021-03-03T12:07:43Z</time>
      </trkpt>
      <trkpt lat="42.8840640" lon="-8.4362830">
        <ele>404.6</ele>
        <time>2021-03-03T12:07:44Z</time>
      </trkpt>
      <trkpt lat="42.8840800" lon="-8.4363240">
        <ele>404.4</ele>
        <time>2021-03-03T12:07:45Z</time>
      </trkpt>
      <trkpt lat="42.8840940" lon="-8.4363650">
        <ele>404.4</ele>
        <time>2021-03-03T12:07:46Z</time>
      </trkpt>
      <trkpt lat="42.8841080" lon="-8.4364060">
        <ele>404.2</ele>
        <time>2021-03-03T12:07:47Z</time>
      </trkpt>
      <trkpt lat="42.8841230" lon="-8.4364500">
        <ele>404.2</ele>
        <time>2021-03-03T12:07:48Z</time>
      </trkpt>
      <trkpt lat="42.8841350" lon="-8.4364880">
        <ele>404.0</ele>
        <time>2021-03-03T12:07:49Z</time>
      </trkpt>
      <trkpt lat="42.8841480" lon="-8.4365230">
        <ele>403.8</ele>
        <time>2021-03-03T12:07:50Z</time>
      </trkpt>
      <trkpt lat="42.8841610" lon="-8.4365620">
        <ele>403.2</ele>
        <time>2021-03-03T12:07:51Z</time>
      </trkpt>
      <trkpt lat="42.8841750" lon="-8.4366020">
        <ele>403.0</ele>
        <time>2021-03-03T12:07:52Z</time>
      </trkpt>
      <trkpt lat="42.8841900" lon="-8.4366420">
        <ele>402.6</ele>
        <time>2021-03-03T12:07:53Z</time>
      </trkpt>
      <trkpt lat="42.8842030" lon="-8.4366830">
        <ele>402.4</ele>
        <time>2021-03-03T12:07:54Z</time>
      </trkpt>
      <trkpt lat="42.8842150" lon="-8.4367260">
        <ele>402.0</ele>
        <time>2021-03-03T12:07:55Z</time>
      </trkpt>
      <trkpt lat="42.8842260" lon="-8.4367680">
        <ele>401.8</ele>
        <time>2021-03-03T12:07:56Z</time>
      </trkpt>
      <trkpt lat="42.8842340" lon="-8.4368140">
        <ele>401.2</ele>
        <time>2021-03-03T12:07:57Z</time>
      </trkpt>
      <trkpt lat="42.8842370" lon="-8.4368590">
        <ele>400.8</ele>
        <time>2021-03-03T12:07:58Z</time>
      </trkpt>
      <trkpt lat="42.8842300" lon="-8.4368970">
        <ele>400.6</ele>
        <time>2021-03-03T12:07:59Z</time>
      </trkpt>
      <trkpt lat="42.8842180" lon="-8.4369310">
        <ele>400.2</ele>
        <time>2021-03-03T12:08:00Z</time>
      </trkpt>
      <trkpt lat="42.8842010" lon="-8.4369510">
        <ele>400.0</ele>
        <time>2021-03-03T12:08:01Z</time>
      </trkpt>
      <trkpt lat="42.8841800" lon="-8.4369560">
        <ele>400.0</ele>
        <time>2021-03-03T12:08:02Z</time>
      </trkpt>
      <trkpt lat="42.8841590" lon="-8.4369610">
        <ele>400.0</ele>
        <time>2021-03-03T12:08:03Z</time>
      </trkpt>
      <trkpt lat="42.8841350" lon="-8.4369670">
        <ele>400.0</ele>
        <time>2021-03-03T12:08:04Z</time>
      </trkpt>
      <trkpt lat="42.8841180" lon="-8.4369680">
        <ele>400.2</ele>
        <time>2021-03-03T12:08:05Z</time>
      </trkpt>
      <trkpt lat="42.8841010" lon="-8.4369650">
        <ele>400.4</ele>
        <time>2021-03-03T12:08:06Z</time>
      </trkpt>
      <trkpt lat="42.8840830" lon="-8.4369640">
        <ele>400.4</ele>
        <time>2021-03-03T12:08:07Z</time>
      </trkpt>
      <trkpt lat="42.8840650" lon="-8.4369640">
        <ele>400.8</ele>
        <time>2021-03-03T12:08:08Z</time>
      </trkpt>
      <trkpt lat="42.8840420" lon="-8.4369590">
        <ele>400.8</ele>
        <time>2021-03-03T12:08:09Z</time>
      </trkpt>
      <trkpt lat="42.8840220" lon="-8.4369600">
        <ele>401.0</ele>
        <time>2021-03-03T12:08:10Z</time>
      </trkpt>
      <trkpt lat="42.8840020" lon="-8.4369520">
        <ele>401.2</ele>
        <time>2021-03-03T12:08:11Z</time>
      </trkpt>
      <trkpt lat="42.8839850" lon="-8.4369440">
        <ele>401.4</ele>
        <time>2021-03-03T12:08:12Z</time>
      </trkpt>
      <trkpt lat="42.8839690" lon="-8.4369380">
        <ele>402.0</ele>
        <time>2021-03-03T12:08:13Z</time>
      </trkpt>
      <trkpt lat="42.8839540" lon="-8.4369370">
        <ele>402.4</ele>
        <time>2021-03-03T12:08:14Z</time>
      </trkpt>
      <trkpt lat="42.8839380" lon="-8.4369420">
        <ele>402.6</ele>
        <time>2021-03-03T12:08:15Z</time>
      </trkpt>
      <trkpt lat="42.8839210" lon="-8.4369510">
        <ele>402.8</ele>
        <time>2021-03-03T12:08:16Z</time>
      </trkpt>
      <trkpt lat="42.8839020" lon="-8.4369580">
        <ele>403.0</ele>
        <time>2021-03-03T12:08:17Z</time>
      </trkpt>
      <trkpt lat="42.8838850" lon="-8.4369600">
        <ele>403.4</ele>
        <time>2021-03-03T12:08:18Z</time>
      </trkpt>
      <trkpt lat="42.8838670" lon="-8.4369600">
        <ele>403.6</ele>
        <time>2021-03-03T12:08:19Z</time>
      </trkpt>
      <trkpt lat="42.8838480" lon="-8.4369590">
        <ele>403.8</ele>
        <time>2021-03-03T12:08:20Z</time>
      </trkpt>
      <trkpt lat="42.8838260" lon="-8.4369550">
        <ele>404.0</ele>
        <time>2021-03-03T12:08:21Z</time>
      </trkpt>
      <trkpt lat="42.8838050" lon="-8.4369580">
        <ele>404.2</ele>
        <time>2021-03-03T12:08:22Z</time>
      </trkpt>
      <trkpt lat="42.8837910" lon="-8.4369590">
        <ele>404.4</ele>
        <time>2021-03-03T12:08:23Z</time>
      </trkpt>
      <trkpt lat="42.8837740" lon="-8.4369630">
        <ele>404.6</ele>
        <time>2021-03-03T12:08:24Z</time>
      </trkpt>
      <trkpt lat="42.8837590" lon="-8.4369660">
        <ele>404.8</ele>
        <time>2021-03-03T12:08:25Z</time>
      </trkpt>
      <trkpt lat="42.8837430" lon="-8.4369710">
        <ele>404.8</ele>
        <time>2021-03-03T12:08:26Z</time>
      </trkpt>
      <trkpt lat="42.8837300" lon="-8.4369720">
        <ele>405.0</ele>
        <time>2021-03-03T12:08:27Z</time>
      </trkpt>
      <trkpt lat="42.8837130" lon="-8.4369730">
        <ele>405.2</ele>
        <time>2021-03-03T12:08:28Z</time>
      </trkpt>
      <trkpt lat="42.8836930" lon="-8.4369700">
        <ele>405.2</ele>
        <time>2021-03-03T12:08:29Z</time>
      </trkpt>
      <trkpt lat="42.8836730" lon="-8.4369690">
        <ele>405.4</ele>
        <time>2021-03-03T12:08:30Z</time>
      </trkpt>
      <trkpt lat="42.8836510" lon="-8.4369660">
        <ele>405.4</ele>
        <time>2021-03-03T12:08:31Z</time>
      </trkpt>
      <trkpt lat="42.8836360" lon="-8.4369640">
        <ele>405.6</ele>
        <time>2021-03-03T12:08:32Z</time>
      </trkpt>
      <trkpt lat="42.8836160" lon="-8.4369640">
        <ele>405.8</ele>
        <time>2021-03-03T12:08:33Z</time>
      </trkpt>
      <trkpt lat="42.8836000" lon="-8.4369650">
        <ele>406.0</ele>
        <time>2021-03-03T12:08:34Z</time>
      </trkpt>
      <trkpt lat="42.8835810" lon="-8.4369690">
        <ele>406.0</ele>
        <time>2021-03-03T12:08:35Z</time>
      </trkpt>
      <trkpt lat="42.8835620" lon="-8.4369710">
        <ele>406.2</ele>
        <time>2021-03-03T12:08:36Z</time>
      </trkpt>
      <trkpt lat="42.8835420" lon="-8.4369750">
        <ele>406.4</ele>
        <time>2021-03-03T12:08:37Z</time>
      </trkpt>
      <trkpt lat="42.8835220" lon="-8.4369780">
        <ele>406.6</ele>
        <time>2021-03-03T12:08:38Z</time>
      </trkpt>
      <trkpt lat="42.8835030" lon="-8.4369790">
        <ele>406.6</ele>
        <time>2021-03-03T12:08:39Z</time>
      </trkpt>
      <trkpt lat="42.8834850" lon="-8.4369810">
        <ele>406.8</ele>
        <time>2021-03-03T12:08:40Z</time>
      </trkpt>
      <trkpt lat="42.8834660" lon="-8.4369830">
        <ele>406.8</ele>
        <time>2021-03-03T12:08:41Z</time>
      </trkpt>
      <trkpt lat="42.8834480" lon="-8.4369860">
        <ele>406.8</ele>
        <time>2021-03-03T12:08:42Z</time>
      </trkpt>
      <trkpt lat="42.8834290" lon="-8.4369890">
        <ele>407.0</ele>
        <time>2021-03-03T12:08:43Z</time>
      </trkpt>
      <trkpt lat="42.8834090" lon="-8.4369930">
        <ele>407.2</ele>
        <time>2021-03-03T12:08:44Z</time>
      </trkpt>
      <trkpt lat="42.8833870" lon="-8.4369960">
        <ele>407.2</ele>
        <time>2021-03-03T12:08:45Z</time>
      </trkpt>
      <trkpt lat="42.8833670" lon="-8.4369980">
        <ele>407.4</ele>
        <time>2021-03-03T12:08:46Z</time>
      </trkpt>
      <trkpt lat="42.8833510" lon="-8.4369970">
        <ele>407.4</ele>
        <time>2021-03-03T12:08:47Z</time>
      </trkpt>
      <trkpt lat="42.8833350" lon="-8.4369970">
        <ele>407.4</ele>
        <time>2021-03-03T12:08:48Z</time>
      </trkpt>
      <trkpt lat="42.8833160" lon="-8.4369990">
        <ele>407.4</ele>
        <time>2021-03-03T12:08:49Z</time>
      </trkpt>
      <trkpt lat="42.8832970" lon="-8.4370080">
        <ele>407.6</ele>
        <time>2021-03-03T12:08:50Z</time>
      </trkpt>
      <trkpt lat="42.8832790" lon="-8.4370170">
        <ele>407.6</ele>
        <time>2021-03-03T12:08:51Z</time>
      </trkpt>
      <trkpt lat="42.8832590" lon="-8.4370240">
        <ele>407.8</ele>
        <time>2021-03-03T12:08:52Z</time>
      </trkpt>
      <trkpt lat="42.8832360" lon="-8.4370260">
        <ele>407.8</ele>
        <time>2021-03-03T12:08:53Z</time>
      </trkpt>
      <trkpt lat="42.8832170" lon="-8.4370270">
        <ele>408.0</ele>
        <time>2021-03-03T12:08:54Z</time>
      </trkpt>
      <trkpt lat="42.8831930" lon="-8.4370280">
        <ele>408.0</ele>
        <time>2021-03-03T12:08:55Z</time>
      </trkpt>
      <trkpt lat="42.8831700" lon="-8.4370280">
        <ele>408.0</ele>
        <time>2021-03-03T12:08:56Z</time>
      </trkpt>
      <trkpt lat="42.8831450" lon="-8.4370290">
        <ele>408.0</ele>
        <time>2021-03-03T12:08:57Z</time>
      </trkpt>
      <trkpt lat="42.8831190" lon="-8.4370320">
        <ele>408.0</ele>
        <time>2021-03-03T12:08:58Z</time>
      </trkpt>
      <trkpt lat="42.8830940" lon="-8.4370360">
        <ele>408.0</ele>
        <time>2021-03-03T12:08:59Z</time>
      </trkpt>
      <trkpt lat="42.8830690" lon="-8.4370380">
        <ele>408.2</ele>
        <time>2021-03-03T12:09:00Z</time>
      </trkpt>
      <trkpt lat="42.8830420" lon="-8.4370420">
        <ele>408.4</ele>
        <time>2021-03-03T12:09:01Z</time>
      </trkpt>
      <trkpt lat="42.8830160" lon="-8.4370470">
        <ele>408.4</ele>
        <time>2021-03-03T12:09:02Z</time>
      </trkpt>
      <trkpt lat="42.8829900" lon="-8.4370490">
        <ele>408.8</ele>
        <time>2021-03-03T12:09:03Z</time>
      </trkpt>
      <trkpt lat="42.8829640" lon="-8.4370490">
        <ele>408.8</ele>
        <time>2021-03-03T12:09:04Z</time>
      </trkpt>
      <trkpt lat="42.8829370" lon="-8.4370500">
        <ele>409.0</ele>
        <time>2021-03-03T12:09:05Z</time>
      </trkpt>
      <trkpt lat="42.8829110" lon="-8.4370530">
        <ele>409.0</ele>
        <time>2021-03-03T12:09:06Z</time>
      </trkpt>
      <trkpt lat="42.8828820" lon="-8.4370560">
        <ele>409.2</ele>
        <time>2021-03-03T12:09:07Z</time>
      </trkpt>
      <trkpt lat="42.8828530" lon="-8.4370590">
        <ele>409.2</ele>
        <time>2021-03-03T12:09:08Z</time>
      </trkpt>
      <trkpt lat="42.8828250" lon="-8.4370660">
        <ele>409.4</ele>
        <time>2021-03-03T12:09:09Z</time>
      </trkpt>
      <trkpt lat="42.8827960" lon="-8.4370690">
        <ele>409.4</ele>
        <time>2021-03-03T12:09:10Z</time>
      </trkpt>
      <trkpt lat="42.8827680" lon="-8.4370660">
        <ele>409.4</ele>
        <time>2021-03-03T12:09:11Z</time>
      </trkpt>
      <trkpt lat="42.8827410" lon="-8.4370680">
        <ele>409.4</ele>
        <time>2021-03-03T12:09:12Z</time>
      </trkpt>
      <trkpt lat="42.8827120" lon="-8.4370710">
        <ele>409.4</ele>
        <time>2021-03-03T12:09:13Z</time>
      </trkpt>
      <trkpt lat="42.8826850" lon="-8.4370740">
        <ele>409.6</ele>
        <time>2021-03-03T12:09:14Z</time>
      </trkpt>
      <trkpt lat="42.8826570" lon="-8.4370760">
        <ele>409.6</ele>
        <time>2021-03-03T12:09:15Z</time>
      </trkpt>
      <trkpt lat="42.8826290" lon="-8.4370810">
        <ele>409.6</ele>
        <time>2021-03-03T12:09:16Z</time>
      </trkpt>
      <trkpt lat="42.8826030" lon="-8.4370850">
        <ele>409.6</ele>
        <time>2021-03-03T12:09:17Z</time>
      </trkpt>
      <trkpt lat="42.8825770" lon="-8.4370900">
        <ele>409.6</ele>
        <time>2021-03-03T12:09:18Z</time>
      </trkpt>
      <trkpt lat="42.8825510" lon="-8.4370870">
        <ele>409.8</ele>
        <time>2021-03-03T12:09:19Z</time>
      </trkpt>
      <trkpt lat="42.8825270" lon="-8.4370860">
        <ele>409.8</ele>
        <time>2021-03-03T12:09:20Z</time>
      </trkpt>
      <trkpt lat="42.8824990" lon="-8.4370860">
        <ele>410.0</ele>
        <time>2021-03-03T12:09:21Z</time>
      </trkpt>
      <trkpt lat="42.8824720" lon="-8.4370860">
        <ele>410.2</ele>
        <time>2021-03-03T12:09:22Z</time>
      </trkpt>
      <trkpt lat="42.8824460" lon="-8.4370900">
        <ele>410.4</ele>
        <time>2021-03-03T12:09:23Z</time>
      </trkpt>
      <trkpt lat="42.8824180" lon="-8.4370930">
        <ele>410.4</ele>
        <time>2021-03-03T12:09:24Z</time>
      </trkpt>
      <trkpt lat="42.8823940" lon="-8.4370960">
        <ele>410.6</ele>
        <time>2021-03-03T12:09:25Z</time>
      </trkpt>
      <trkpt lat="42.8823700" lon="-8.4370970">
        <ele>410.6</ele>
        <time>2021-03-03T12:09:26Z</time>
      </trkpt>
      <trkpt lat="42.8823440" lon="-8.4370970">
        <ele>410.6</ele>
        <time>2021-03-03T12:09:27Z</time>
      </trkpt>
      <trkpt lat="42.8823150" lon="-8.4370980">
        <ele>410.6</ele>
        <time>2021-03-03T12:09:28Z</time>
      </trkpt>
      <trkpt lat="42.8822870" lon="-8.4370980">
        <ele>410.8</ele>
        <time>2021-03-03T12:09:29Z</time>
      </trkpt>
      <trkpt lat="42.8822570" lon="-8.4371010">
        <ele>410.8</ele>
        <time>2021-03-03T12:09:30Z</time>
      </trkpt>
      <trkpt lat="42.8822280" lon="-8.4371050">
        <ele>411.0</ele>
        <time>2021-03-03T12:09:31Z</time>
      </trkpt>
      <trkpt lat="42.8822000" lon="-8.4371080">
        <ele>411.4</ele>
        <time>2021-03-03T12:09:32Z</time>
      </trkpt>
      <trkpt lat="42.8821690" lon="-8.4371110">
        <ele>411.2</ele>
        <time>2021-03-03T12:09:33Z</time>
      </trkpt>
      <trkpt lat="42.8821400" lon="-8.4371100">
        <ele>411.6</ele>
        <time>2021-03-03T12:09:34Z</time>
      </trkpt>
      <trkpt lat="42.8821110" lon="-8.4371010">
        <ele>411.8</ele>
        <time>2021-03-03T12:09:35Z</time>
      </trkpt>
      <trkpt lat="42.8820830" lon="-8.4370920">
        <ele>411.8</ele>
        <time>2021-03-03T12:09:36Z</time>
      </trkpt>
      <trkpt lat="42.8820540" lon="-8.4370950">
        <ele>411.8</ele>
        <time>2021-03-03T12:09:37Z</time>
      </trkpt>
      <trkpt lat="42.8820220" lon="-8.4371000">
        <ele>411.8</ele>
        <time>2021-03-03T12:09:38Z</time>
      </trkpt>
      <trkpt lat="42.8819900" lon="-8.4371020">
        <ele>411.8</ele>
        <time>2021-03-03T12:09:39Z</time>
      </trkpt>
      <trkpt lat="42.8819560" lon="-8.4371110">
        <ele>411.8</ele>
        <time>2021-03-03T12:09:40Z</time>
      </trkpt>
      <trkpt lat="42.8819240" lon="-8.4371140">
        <ele>411.8</ele>
        <time>2021-03-03T12:09:41Z</time>
      </trkpt>
      <trkpt lat="42.8818930" lon="-8.4371160">
        <ele>412.0</ele>
        <time>2021-03-03T12:09:42Z</time>
      </trkpt>
      <trkpt lat="42.8818650" lon="-8.4371250">
        <ele>412.2</ele>
        <time>2021-03-03T12:09:43Z</time>
      </trkpt>
      <trkpt lat="42.8818320" lon="-8.4371250">
        <ele>412.2</ele>
        <time>2021-03-03T12:09:44Z</time>
      </trkpt>
      <trkpt lat="42.8818000" lon="-8.4371240">
        <ele>412.2</ele>
        <time>2021-03-03T12:09:45Z</time>
      </trkpt>
      <trkpt lat="42.8817710" lon="-8.4371290">
        <ele>412.2</ele>
        <time>2021-03-03T12:09:46Z</time>
      </trkpt>
      <trkpt lat="42.8817430" lon="-8.4371310">
        <ele>412.2</ele>
        <time>2021-03-03T12:09:47Z</time>
      </trkpt>
      <trkpt lat="42.8817150" lon="-8.4371340">
        <ele>412.2</ele>
        <time>2021-03-03T12:09:48Z</time>
      </trkpt>
      <trkpt lat="42.8816870" lon="-8.4371380">
        <ele>412.2</ele>
        <time>2021-03-03T12:09:49Z</time>
      </trkpt>
      <trkpt lat="42.8816600" lon="-8.4371420">
        <ele>412.4</ele>
        <time>2021-03-03T12:09:50Z</time>
      </trkpt>
      <trkpt lat="42.8816310" lon="-8.4371470">
        <ele>412.4</ele>
        <time>2021-03-03T12:09:51Z</time>
      </trkpt>
      <trkpt lat="42.8816030" lon="-8.4371490">
        <ele>412.6</ele>
        <time>2021-03-03T12:09:52Z</time>
      </trkpt>
      <trkpt lat="42.8815760" lon="-8.4371580">
        <ele>412.6</ele>
        <time>2021-03-03T12:09:53Z</time>
      </trkpt>
      <trkpt lat="42.8815500" lon="-8.4371660">
        <ele>412.8</ele>
        <time>2021-03-03T12:09:54Z</time>
      </trkpt>
      <trkpt lat="42.8815240" lon="-8.4371700">
        <ele>412.8</ele>
        <time>2021-03-03T12:09:55Z</time>
      </trkpt>
      <trkpt lat="42.8814990" lon="-8.4371710">
        <ele>412.8</ele>
        <time>2021-03-03T12:09:56Z</time>
      </trkpt>
      <trkpt lat="42.8814740" lon="-8.4371740">
        <ele>412.8</ele>
        <time>2021-03-03T12:09:57Z</time>
      </trkpt>
      <trkpt lat="42.8814460" lon="-8.4371750">
        <ele>412.6</ele>
        <time>2021-03-03T12:09:58Z</time>
      </trkpt>
      <trkpt lat="42.8814170" lon="-8.4371820">
        <ele>412.8</ele>
        <time>2021-03-03T12:09:59Z</time>
      </trkpt>
      <trkpt lat="42.8813890" lon="-8.4371850">
        <ele>412.8</ele>
        <time>2021-03-03T12:10:00Z</time>
      </trkpt>
      <trkpt lat="42.8813610" lon="-8.4371880">
        <ele>412.6</ele>
        <time>2021-03-03T12:10:01Z</time>
      </trkpt>
      <trkpt lat="42.8813290" lon="-8.4371930">
        <ele>412.6</ele>
        <time>2021-03-03T12:10:02Z</time>
      </trkpt>
      <trkpt lat="42.8812990" lon="-8.4371940">
        <ele>412.6</ele>
        <time>2021-03-03T12:10:03Z</time>
      </trkpt>
      <trkpt lat="42.8812710" lon="-8.4371970">
        <ele>412.8</ele>
        <time>2021-03-03T12:10:04Z</time>
      </trkpt>
      <trkpt lat="42.8812440" lon="-8.4372040">
        <ele>412.8</ele>
        <time>2021-03-03T12:10:05Z</time>
      </trkpt>
      <trkpt lat="42.8812180" lon="-8.4372080">
        <ele>412.8</ele>
        <time>2021-03-03T12:10:06Z</time>
      </trkpt>
      <trkpt lat="42.8811910" lon="-8.4372170">
        <ele>412.8</ele>
        <time>2021-03-03T12:10:07Z</time>
      </trkpt>
      <trkpt lat="42.8811640" lon="-8.4372290">
        <ele>413.0</ele>
        <time>2021-03-03T12:10:08Z</time>
      </trkpt>
      <trkpt lat="42.8811340" lon="-8.4372350">
        <ele>413.0</ele>
        <time>2021-03-03T12:10:09Z</time>
      </trkpt>
      <trkpt lat="42.8811040" lon="-8.4372380">
        <ele>413.0</ele>
        <time>2021-03-03T12:10:10Z</time>
      </trkpt>
      <trkpt lat="42.8810750" lon="-8.4372370">
        <ele>413.0</ele>
        <time>2021-03-03T12:10:11Z</time>
      </trkpt>
      <trkpt lat="42.8810510" lon="-8.4372340">
        <ele>413.2</ele>
        <time>2021-03-03T12:10:12Z</time>
      </trkpt>
      <trkpt lat="42.8810260" lon="-8.4372390">
        <ele>413.2</ele>
        <time>2021-03-03T12:10:13Z</time>
      </trkpt>
      <trkpt lat="42.8810000" lon="-8.4372410">
        <ele>413.2</ele>
        <time>2021-03-03T12:10:14Z</time>
      </trkpt>
      <trkpt lat="42.8809740" lon="-8.4372460">
        <ele>413.4</ele>
        <time>2021-03-03T12:10:15Z</time>
      </trkpt>
      <trkpt lat="42.8809450" lon="-8.4372470">
        <ele>413.4</ele>
        <time>2021-03-03T12:10:16Z</time>
      </trkpt>
      <trkpt lat="42.8809190" lon="-8.4372480">
        <ele>413.4</ele>
        <time>2021-03-03T12:10:17Z</time>
      </trkpt>
      <trkpt lat="42.8808920" lon="-8.4372560">
        <ele>413.4</ele>
        <time>2021-03-03T12:10:18Z</time>
      </trkpt>
      <trkpt lat="42.8808670" lon="-8.4372620">
        <ele>413.6</ele>
        <time>2021-03-03T12:10:19Z</time>
      </trkpt>
      <trkpt lat="42.8808380" lon="-8.4372660">
        <ele>413.6</ele>
        <time>2021-03-03T12:10:20Z</time>
      </trkpt>
      <trkpt lat="42.8808100" lon="-8.4372680">
        <ele>413.6</ele>
        <time>2021-03-03T12:10:21Z</time>
      </trkpt>
      <trkpt lat="42.8807900" lon="-8.4372750">
        <ele>413.8</ele>
        <time>2021-03-03T12:10:22Z</time>
      </trkpt>
      <trkpt lat="42.8807670" lon="-8.4372880">
        <ele>414.0</ele>
        <time>2021-03-03T12:10:23Z</time>
      </trkpt>
      <trkpt lat="42.8807390" lon="-8.4372940">
        <ele>414.0</ele>
        <time>2021-03-03T12:10:24Z</time>
      </trkpt>
      <trkpt lat="42.8807150" lon="-8.4372950">
        <ele>414.2</ele>
        <time>2021-03-03T12:10:25Z</time>
      </trkpt>
      <trkpt lat="42.8806890" lon="-8.4372960">
        <ele>414.2</ele>
        <time>2021-03-03T12:10:26Z</time>
      </trkpt>
      <trkpt lat="42.8806620" lon="-8.4372980">
        <ele>414.4</ele>
        <time>2021-03-03T12:10:27Z</time>
      </trkpt>
      <trkpt lat="42.8806340" lon="-8.4373000">
        <ele>414.4</ele>
        <time>2021-03-03T12:10:28Z</time>
      </trkpt>
      <trkpt lat="42.8806080" lon="-8.4373070">
        <ele>414.4</ele>
        <time>2021-03-03T12:10:29Z</time>
      </trkpt>
      <trkpt lat="42.8805720" lon="-8.4373170">
        <ele>414.4</ele>
        <time>2021-03-03T12:10:30Z</time>
      </trkpt>
      <trkpt lat="42.8805430" lon="-8.4373270">
        <ele>414.4</ele>
        <time>2021-03-03T12:10:31Z</time>
      </trkpt>
      <trkpt lat="42.8805190" lon="-8.4373360">
        <ele>414.4</ele>
        <time>2021-03-03T12:10:32Z</time>
      </trkpt>
      <trkpt lat="42.8804950" lon="-8.4373480">
        <ele>414.4</ele>
        <time>2021-03-03T12:10:33Z</time>
      </trkpt>
      <trkpt lat="42.8804750" lon="-8.4373730">
        <ele>414.6</ele>
        <time>2021-03-03T12:10:34Z</time>
      </trkpt>
      <trkpt lat="42.8804560" lon="-8.4374040">
        <ele>414.6</ele>
        <time>2021-03-03T12:10:35Z</time>
      </trkpt>
      <trkpt lat="42.8804450" lon="-8.4374480">
        <ele>414.6</ele>
        <time>2021-03-03T12:10:36Z</time>
      </trkpt>
      <trkpt lat="42.8804350" lon="-8.4374900">
        <ele>414.8</ele>
        <time>2021-03-03T12:10:37Z</time>
      </trkpt>
      <trkpt lat="42.8804300" lon="-8.4375320">
        <ele>414.8</ele>
        <time>2021-03-03T12:10:38Z</time>
      </trkpt>
      <trkpt lat="42.8804300" lon="-8.4375700">
        <ele>414.6</ele>
        <time>2021-03-03T12:10:39Z</time>
      </trkpt>
      <trkpt lat="42.8804350" lon="-8.4376070">
        <ele>414.6</ele>
        <time>2021-03-03T12:10:40Z</time>
      </trkpt>
      <trkpt lat="42.8804430" lon="-8.4376450">
        <ele>414.6</ele>
        <time>2021-03-03T12:10:41Z</time>
      </trkpt>
      <trkpt lat="42.8804530" lon="-8.4376810">
        <ele>414.6</ele>
        <time>2021-03-03T12:10:42Z</time>
      </trkpt>
      <trkpt lat="42.8804610" lon="-8.4377200">
        <ele>414.6</ele>
        <time>2021-03-03T12:10:43Z</time>
      </trkpt>
      <trkpt lat="42.8804660" lon="-8.4377630">
        <ele>414.6</ele>
        <time>2021-03-03T12:10:44Z</time>
      </trkpt>
      <trkpt lat="42.8804750" lon="-8.4378090">
        <ele>414.4</ele>
        <time>2021-03-03T12:10:45Z</time>
      </trkpt>
      <trkpt lat="42.8804810" lon="-8.4378520">
        <ele>414.4</ele>
        <time>2021-03-03T12:10:46Z</time>
      </trkpt>
      <trkpt lat="42.8804830" lon="-8.4378930">
        <ele>414.4</ele>
        <time>2021-03-03T12:10:47Z</time>
      </trkpt>
      <trkpt lat="42.8804790" lon="-8.4379360">
        <ele>414.4</ele>
        <time>2021-03-03T12:10:48Z</time>
      </trkpt>
      <trkpt lat="42.8804780" lon="-8.4379790">
        <ele>414.2</ele>
        <time>2021-03-03T12:10:49Z</time>
      </trkpt>
      <trkpt lat="42.8804800" lon="-8.4380230">
        <ele>414.2</ele>
        <time>2021-03-03T12:10:50Z</time>
      </trkpt>
      <trkpt lat="42.8804850" lon="-8.4380660">
        <ele>414.2</ele>
        <time>2021-03-03T12:10:51Z</time>
      </trkpt>
      <trkpt lat="42.8804910" lon="-8.4381100">
        <ele>414.2</ele>
        <time>2021-03-03T12:10:52Z</time>
      </trkpt>
      <trkpt lat="42.8804960" lon="-8.4381520">
        <ele>414.2</ele>
        <time>2021-03-03T12:10:53Z</time>
      </trkpt>
      <trkpt lat="42.8804980" lon="-8.4381930">
        <ele>414.2</ele>
        <time>2021-03-03T12:10:54Z</time>
      </trkpt>
      <trkpt lat="42.8805040" lon="-8.4382360">
        <ele>414.2</ele>
        <time>2021-03-03T12:10:55Z</time>
      </trkpt>
      <trkpt lat="42.8805150" lon="-8.4382790">
        <ele>414.2</ele>
        <time>2021-03-03T12:10:56Z</time>
      </trkpt>
      <trkpt lat="42.8805190" lon="-8.4383230">
        <ele>414.2</ele>
        <time>2021-03-03T12:10:57Z</time>
      </trkpt>
      <trkpt lat="42.8805210" lon="-8.4383620">
        <ele>414.2</ele>
        <time>2021-03-03T12:10:58Z</time>
      </trkpt>
      <trkpt lat="42.8805280" lon="-8.4384020">
        <ele>414.2</ele>
        <time>2021-03-03T12:10:59Z</time>
      </trkpt>
      <trkpt lat="42.8805350" lon="-8.4384420">
        <ele>414.4</ele>
        <time>2021-03-03T12:11:00Z</time>
      </trkpt>
      <trkpt lat="42.8805400" lon="-8.4384820">
        <ele>414.4</ele>
        <time>2021-03-03T12:11:01Z</time>
      </trkpt>
      <trkpt lat="42.8805450" lon="-8.4385250">
        <ele>414.4</ele>
        <time>2021-03-03T12:11:02Z</time>
      </trkpt>
      <trkpt lat="42.8805520" lon="-8.4385650">
        <ele>414.4</ele>
        <time>2021-03-03T12:11:03Z</time>
      </trkpt>
      <trkpt lat="42.8805520" lon="-8.4385990">
        <ele>414.4</ele>
        <time>2021-03-03T12:11:04Z</time>
      </trkpt>
      <trkpt lat="42.8805400" lon="-8.4386310">
        <ele>414.4</ele>
        <time>2021-03-03T12:11:05Z</time>
      </trkpt>
      <trkpt lat="42.8805250" lon="-8.4386520">
        <ele>414.4</ele>
        <time>2021-03-03T12:11:06Z</time>
      </trkpt>
      <trkpt lat="42.8805110" lon="-8.4386650">
        <ele>414.4</ele>
        <time>2021-03-03T12:11:07Z</time>
      </trkpt>
      <trkpt lat="42.8804930" lon="-8.4386680">
        <ele>414.4</ele>
        <time>2021-03-03T12:11:08Z</time>
      </trkpt>
      <trkpt lat="42.8804760" lon="-8.4386490">
        <ele>414.2</ele>
        <time>2021-03-03T12:11:09Z</time>
      </trkpt>
      <trkpt lat="42.8804520" lon="-8.4386360">
        <ele>414.2</ele>
        <time>2021-03-03T12:11:10Z</time>
      </trkpt>
      <trkpt lat="42.8804270" lon="-8.4386240">
        <ele>414.2</ele>
        <time>2021-03-03T12:11:11Z</time>
      </trkpt>
      <trkpt lat="42.8803960" lon="-8.4386070">
        <ele>414.2</ele>
        <time>2021-03-03T12:11:12Z</time>
      </trkpt>
      <trkpt lat="42.8803670" lon="-8.4385940">
        <ele>414.2</ele>
        <time>2021-03-03T12:11:13Z</time>
      </trkpt>
      <trkpt lat="42.8803400" lon="-8.4385780">
        <ele>414.2</ele>
        <time>2021-03-03T12:11:14Z</time>
      </trkpt>
      <trkpt lat="42.8803150" lon="-8.4385670">
        <ele>414.2</ele>
        <time>2021-03-03T12:11:15Z</time>
      </trkpt>
      <trkpt lat="42.8802890" lon="-8.4385580">
        <ele>414.2</ele>
        <time>2021-03-03T12:11:16Z</time>
      </trkpt>
      <trkpt lat="42.8802630" lon="-8.4385460">
        <ele>414.2</ele>
        <time>2021-03-03T12:11:17Z</time>
      </trkpt>
      <trkpt lat="42.8802350" lon="-8.4385340">
        <ele>414.4</ele>
        <time>2021-03-03T12:11:18Z</time>
      </trkpt>
      <trkpt lat="42.8802040" lon="-8.4385290">
        <ele>414.4</ele>
        <time>2021-03-03T12:11:19Z</time>
      </trkpt>
      <trkpt lat="42.8801740" lon="-8.4385290">
        <ele>414.4</ele>
        <time>2021-03-03T12:11:20Z</time>
      </trkpt>
      <trkpt lat="42.8801440" lon="-8.4385250">
        <ele>414.6</ele>
        <time>2021-03-03T12:11:21Z</time>
      </trkpt>
      <trkpt lat="42.8801170" lon="-8.4385180">
        <ele>414.6</ele>
        <time>2021-03-03T12:11:22Z</time>
      </trkpt>
      <trkpt lat="42.8800950" lon="-8.4385150">
        <ele>414.8</ele>
        <time>2021-03-03T12:11:23Z</time>
      </trkpt>
      <trkpt lat="42.8800710" lon="-8.4385110">
        <ele>414.8</ele>
        <time>2021-03-03T12:11:24Z</time>
      </trkpt>
      <trkpt lat="42.8800380" lon="-8.4385060">
        <ele>415.0</ele>
        <time>2021-03-03T12:11:25Z</time>
      </trkpt>
      <trkpt lat="42.8800130" lon="-8.4385050">
        <ele>415.0</ele>
        <time>2021-03-03T12:11:26Z</time>
      </trkpt>
      <trkpt lat="42.8799840" lon="-8.4385050">
        <ele>415.2</ele>
        <time>2021-03-03T12:11:27Z</time>
      </trkpt>
      <trkpt lat="42.8799520" lon="-8.4385040">
        <ele>415.2</ele>
        <time>2021-03-03T12:11:28Z</time>
      </trkpt>
      <trkpt lat="42.8799250" lon="-8.4385020">
        <ele>415.2</ele>
        <time>2021-03-03T12:11:29Z</time>
      </trkpt>
      <trkpt lat="42.8798940" lon="-8.4385060">
        <ele>415.2</ele>
        <time>2021-03-03T12:11:30Z</time>
      </trkpt>
      <trkpt lat="42.8798640" lon="-8.4385050">
        <ele>415.2</ele>
        <time>2021-03-03T12:11:31Z</time>
      </trkpt>
      <trkpt lat="42.8798440" lon="-8.4385020">
        <ele>415.2</ele>
        <time>2021-03-03T12:11:32Z</time>
      </trkpt>
      <trkpt lat="42.8798170" lon="-8.4385050">
        <ele>415.2</ele>
        <time>2021-03-03T12:11:33Z</time>
      </trkpt>
      <trkpt lat="42.8797880" lon="-8.4385070">
        <ele>415.4</ele>
        <time>2021-03-03T12:11:34Z</time>
      </trkpt>
      <trkpt lat="42.8797620" lon="-8.4385020">
        <ele>415.4</ele>
        <time>2021-03-03T12:11:35Z</time>
      </trkpt>
      <trkpt lat="42.8797340" lon="-8.4384990">
        <ele>415.4</ele>
        <time>2021-03-03T12:11:36Z</time>
      </trkpt>
      <trkpt lat="42.8797050" lon="-8.4385010">
        <ele>415.6</ele>
        <time>2021-03-03T12:11:37Z</time>
      </trkpt>
      <trkpt lat="42.8796750" lon="-8.4385040">
        <ele>415.6</ele>
        <time>2021-03-03T12:11:38Z</time>
      </trkpt>
      <trkpt lat="42.8796460" lon="-8.4385010">
        <ele>415.8</ele>
        <time>2021-03-03T12:11:39Z</time>
      </trkpt>
      <trkpt lat="42.8796170" lon="-8.4384970">
        <ele>415.8</ele>
        <time>2021-03-03T12:11:40Z</time>
      </trkpt>
      <trkpt lat="42.8795900" lon="-8.4384960">
        <ele>415.6</ele>
        <time>2021-03-03T12:11:41Z</time>
      </trkpt>
      <trkpt lat="42.8795610" lon="-8.4384980">
        <ele>415.8</ele>
        <time>2021-03-03T12:11:42Z</time>
      </trkpt>
      <trkpt lat="42.8795310" lon="-8.4385080">
        <ele>415.6</ele>
        <time>2021-03-03T12:11:43Z</time>
      </trkpt>
      <trkpt lat="42.8795020" lon="-8.4385140">
        <ele>415.6</ele>
        <time>2021-03-03T12:11:44Z</time>
      </trkpt>
      <trkpt lat="42.8794710" lon="-8.4385180">
        <ele>415.8</ele>
        <time>2021-03-03T12:11:45Z</time>
      </trkpt>
      <trkpt lat="42.8794490" lon="-8.4385310">
        <ele>415.8</ele>
        <time>2021-03-03T12:11:46Z</time>
      </trkpt>
      <trkpt lat="42.8794230" lon="-8.4385400">
        <ele>415.8</ele>
        <time>2021-03-03T12:11:47Z</time>
      </trkpt>
      <trkpt lat="42.8793950" lon="-8.4385440">
        <ele>415.8</ele>
        <time>2021-03-03T12:11:48Z</time>
      </trkpt>
      <trkpt lat="42.8793660" lon="-8.4385460">
        <ele>416.0</ele>
        <time>2021-03-03T12:11:49Z</time>
      </trkpt>
      <trkpt lat="42.8793320" lon="-8.4385540">
        <ele>416.0</ele>
        <time>2021-03-03T12:11:50Z</time>
      </trkpt>
      <trkpt lat="42.8793030" lon="-8.4385600">
        <ele>416.0</ele>
        <time>2021-03-03T12:11:51Z</time>
      </trkpt>
      <trkpt lat="42.8792770" lon="-8.4385570">
        <ele>416.0</ele>
        <time>2021-03-03T12:11:52Z</time>
      </trkpt>
      <trkpt lat="42.8792500" lon="-8.4385570">
        <ele>416.0</ele>
        <time>2021-03-03T12:11:53Z</time>
      </trkpt>
      <trkpt lat="42.8792230" lon="-8.4385550">
        <ele>416.0</ele>
        <time>2021-03-03T12:11:54Z</time>
      </trkpt>
      <trkpt lat="42.8791940" lon="-8.4385480">
        <ele>416.0</ele>
        <time>2021-03-03T12:11:55Z</time>
      </trkpt>
      <trkpt lat="42.8791630" lon="-8.4385420">
        <ele>416.0</ele>
        <time>2021-03-03T12:11:56Z</time>
      </trkpt>
      <trkpt lat="42.8791340" lon="-8.4385420">
        <ele>415.8</ele>
        <time>2021-03-03T12:11:57Z</time>
      </trkpt>
      <trkpt lat="42.8791070" lon="-8.4385440">
        <ele>416.0</ele>
        <time>2021-03-03T12:11:58Z</time>
      </trkpt>
      <trkpt lat="42.8790770" lon="-8.4385490">
        <ele>416.0</ele>
        <time>2021-03-03T12:11:59Z</time>
      </trkpt>
      <trkpt lat="42.8790480" lon="-8.4385540">
        <ele>416.0</ele>
        <time>2021-03-03T12:12:00Z</time>
      </trkpt>
      <trkpt lat="42.8790180" lon="-8.4385560">
        <ele>416.0</ele>
        <time>2021-03-03T12:12:01Z</time>
      </trkpt>
      <trkpt lat="42.8789870" lon="-8.4385580">
        <ele>416.0</ele>
        <time>2021-03-03T12:12:02Z</time>
      </trkpt>
      <trkpt lat="42.8789600" lon="-8.4385610">
        <ele>415.8</ele>
        <time>2021-03-03T12:12:03Z</time>
      </trkpt>
      <trkpt lat="42.8789340" lon="-8.4385650">
        <ele>415.8</ele>
        <time>2021-03-03T12:12:04Z</time>
      </trkpt>
      <trkpt lat="42.8789050" lon="-8.4385660">
        <ele>415.8</ele>
        <time>2021-03-03T12:12:05Z</time>
      </trkpt>
      <trkpt lat="42.8788770" lon="-8.4385650">
        <ele>415.8</ele>
        <time>2021-03-03T12:12:06Z</time>
      </trkpt>
      <trkpt lat="42.8788460" lon="-8.4385710">
        <ele>415.8</ele>
        <time>2021-03-03T12:12:07Z</time>
      </trkpt>
      <trkpt lat="42.8788160" lon="-8.4385780">
        <ele>415.8</ele>
        <time>2021-03-03T12:12:08Z</time>
      </trkpt>
      <trkpt lat="42.8787860" lon="-8.4385850">
        <ele>415.6</ele>
        <time>2021-03-03T12:12:09Z</time>
      </trkpt>
      <trkpt lat="42.8787540" lon="-8.4385920">
        <ele>415.8</ele>
        <time>2021-03-03T12:12:10Z</time>
      </trkpt>
      <trkpt lat="42.8787260" lon="-8.4385960">
        <ele>415.8</ele>
        <time>2021-03-03T12:12:11Z</time>
      </trkpt>
      <trkpt lat="42.8787000" lon="-8.4385970">
        <ele>415.8</ele>
        <time>2021-03-03T12:12:12Z</time>
      </trkpt>
      <trkpt lat="42.8786730" lon="-8.4386000">
        <ele>415.8</ele>
        <time>2021-03-03T12:12:13Z</time>
      </trkpt>
      <trkpt lat="42.8786440" lon="-8.4386010">
        <ele>415.8</ele>
        <time>2021-03-03T12:12:14Z</time>
      </trkpt>
      <trkpt lat="42.8786150" lon="-8.4386040">
        <ele>415.8</ele>
        <time>2021-03-03T12:12:15Z</time>
      </trkpt>
      <trkpt lat="42.8785830" lon="-8.4386100">
        <ele>415.8</ele>
        <time>2021-03-03T12:12:16Z</time>
      </trkpt>
      <trkpt lat="42.8785660" lon="-8.4386130">
        <ele>416.0</ele>
        <time>2021-03-03T12:12:17Z</time>
      </trkpt>
      <trkpt lat="42.8785310" lon="-8.4386180">
        <ele>416.0</ele>
        <time>2021-03-03T12:12:18Z</time>
      </trkpt>
      <trkpt lat="42.8785010" lon="-8.4386250">
        <ele>416.0</ele>
        <time>2021-03-03T12:12:19Z</time>
      </trkpt>
      <trkpt lat="42.8784740" lon="-8.4386310">
        <ele>416.0</ele>
        <time>2021-03-03T12:12:20Z</time>
      </trkpt>
      <trkpt lat="42.8784480" lon="-8.4386390">
        <ele>416.2</ele>
        <time>2021-03-03T12:12:21Z</time>
      </trkpt>
      <trkpt lat="42.8784230" lon="-8.4386450">
        <ele>416.4</ele>
        <time>2021-03-03T12:12:22Z</time>
      </trkpt>
      <trkpt lat="42.8783970" lon="-8.4386530">
        <ele>416.6</ele>
        <time>2021-03-03T12:12:23Z</time>
      </trkpt>
      <trkpt lat="42.8783710" lon="-8.4386590">
        <ele>416.6</ele>
        <time>2021-03-03T12:12:24Z</time>
      </trkpt>
      <trkpt lat="42.8783450" lon="-8.4386660">
        <ele>416.6</ele>
        <time>2021-03-03T12:12:25Z</time>
      </trkpt>
      <trkpt lat="42.8783180" lon="-8.4386720">
        <ele>416.8</ele>
        <time>2021-03-03T12:12:26Z</time>
      </trkpt>
      <trkpt lat="42.8782910" lon="-8.4386790">
        <ele>417.0</ele>
        <time>2021-03-03T12:12:27Z</time>
      </trkpt>
      <trkpt lat="42.8782630" lon="-8.4386870">
        <ele>417.0</ele>
        <time>2021-03-03T12:12:28Z</time>
      </trkpt>
      <trkpt lat="42.8782350" lon="-8.4386970">
        <ele>417.0</ele>
        <time>2021-03-03T12:12:29Z</time>
      </trkpt>
      <trkpt lat="42.8782060" lon="-8.4387110">
        <ele>417.2</ele>
        <time>2021-03-03T12:12:30Z</time>
      </trkpt>
      <trkpt lat="42.8781780" lon="-8.4387210">
        <ele>417.0</ele>
        <time>2021-03-03T12:12:31Z</time>
      </trkpt>
      <trkpt lat="42.8781530" lon="-8.4387280">
        <ele>417.2</ele>
        <time>2021-03-03T12:12:32Z</time>
      </trkpt>
      <trkpt lat="42.8781240" lon="-8.4387370">
        <ele>417.2</ele>
        <time>2021-03-03T12:12:33Z</time>
      </trkpt>
      <trkpt lat="42.8780940" lon="-8.4387460">
        <ele>417.2</ele>
        <time>2021-03-03T12:12:34Z</time>
      </trkpt>
      <trkpt lat="42.8780660" lon="-8.4387580">
        <ele>417.4</ele>
        <time>2021-03-03T12:12:35Z</time>
      </trkpt>
      <trkpt lat="42.8780360" lon="-8.4387690">
        <ele>417.4</ele>
        <time>2021-03-03T12:12:36Z</time>
      </trkpt>
      <trkpt lat="42.8780070" lon="-8.4387810">
        <ele>417.6</ele>
        <time>2021-03-03T12:12:37Z</time>
      </trkpt>
      <trkpt lat="42.8779790" lon="-8.4387940">
        <ele>417.8</ele>
        <time>2021-03-03T12:12:38Z</time>
      </trkpt>
      <trkpt lat="42.8779510" lon="-8.4388080">
        <ele>417.8</ele>
        <time>2021-03-03T12:12:39Z</time>
      </trkpt>
      <trkpt lat="42.8779230" lon="-8.4388190">
        <ele>418.0</ele>
        <time>2021-03-03T12:12:40Z</time>
      </trkpt>
      <trkpt lat="42.8778980" lon="-8.4388300">
        <ele>418.0</ele>
        <time>2021-03-03T12:12:41Z</time>
      </trkpt>
      <trkpt lat="42.8778720" lon="-8.4388380">
        <ele>418.0</ele>
        <time>2021-03-03T12:12:42Z</time>
      </trkpt>
      <trkpt lat="42.8778450" lon="-8.4388460">
        <ele>418.2</ele>
        <time>2021-03-03T12:12:43Z</time>
      </trkpt>
      <trkpt lat="42.8778190" lon="-8.4388550">
        <ele>418.2</ele>
        <time>2021-03-03T12:12:44Z</time>
      </trkpt>
      <trkpt lat="42.8777940" lon="-8.4388610">
        <ele>418.2</ele>
        <time>2021-03-03T12:12:45Z</time>
      </trkpt>
      <trkpt lat="42.8777670" lon="-8.4388650">
        <ele>418.2</ele>
        <time>2021-03-03T12:12:46Z</time>
      </trkpt>
      <trkpt lat="42.8777370" lon="-8.4388690">
        <ele>418.2</ele>
        <time>2021-03-03T12:12:47Z</time>
      </trkpt>
      <trkpt lat="42.8777050" lon="-8.4388710">
        <ele>418.2</ele>
        <time>2021-03-03T12:12:48Z</time>
      </trkpt>
      <trkpt lat="42.8776760" lon="-8.4388750">
        <ele>418.2</ele>
        <time>2021-03-03T12:12:49Z</time>
      </trkpt>
      <trkpt lat="42.8776490" lon="-8.4388790">
        <ele>418.2</ele>
        <time>2021-03-03T12:12:50Z</time>
      </trkpt>
      <trkpt lat="42.8776220" lon="-8.4388840">
        <ele>418.0</ele>
        <time>2021-03-03T12:12:51Z</time>
      </trkpt>
      <trkpt lat="42.8775970" lon="-8.4388950">
        <ele>418.0</ele>
        <time>2021-03-03T12:12:52Z</time>
      </trkpt>
      <trkpt lat="42.8775710" lon="-8.4389050">
        <ele>418.0</ele>
        <time>2021-03-03T12:12:53Z</time>
      </trkpt>
      <trkpt lat="42.8775360" lon="-8.4389080">
        <ele>418.0</ele>
        <time>2021-03-03T12:12:54Z</time>
      </trkpt>
      <trkpt lat="42.8775160" lon="-8.4389140">
        <ele>418.0</ele>
        <time>2021-03-03T12:12:55Z</time>
      </trkpt>
      <trkpt lat="42.8774860" lon="-8.4389220">
        <ele>418.0</ele>
        <time>2021-03-03T12:12:56Z</time>
      </trkpt>
      <trkpt lat="42.8774560" lon="-8.4389270">
        <ele>418.0</ele>
        <time>2021-03-03T12:12:57Z</time>
      </trkpt>
      <trkpt lat="42.8774250" lon="-8.4389330">
        <ele>418.0</ele>
        <time>2021-03-03T12:12:58Z</time>
      </trkpt>
      <trkpt lat="42.8773910" lon="-8.4389400">
        <ele>418.0</ele>
        <time>2021-03-03T12:12:59Z</time>
      </trkpt>
      <trkpt lat="42.8773630" lon="-8.4389450">
        <ele>418.0</ele>
        <time>2021-03-03T12:13:00Z</time>
      </trkpt>
      <trkpt lat="42.8773340" lon="-8.4389480">
        <ele>418.0</ele>
        <time>2021-03-03T12:13:01Z</time>
      </trkpt>
      <trkpt lat="42.8773130" lon="-8.4389540">
        <ele>418.0</ele>
        <time>2021-03-03T12:13:02Z</time>
      </trkpt>
      <trkpt lat="42.8772870" lon="-8.4389590">
        <ele>418.0</ele>
        <time>2021-03-03T12:13:03Z</time>
      </trkpt>
      <trkpt lat="42.8772580" lon="-8.4389620">
        <ele>418.2</ele>
        <time>2021-03-03T12:13:04Z</time>
      </trkpt>
      <trkpt lat="42.8772310" lon="-8.4389670">
        <ele>418.2</ele>
        <time>2021-03-03T12:13:05Z</time>
      </trkpt>
      <trkpt lat="42.8772030" lon="-8.4389710">
        <ele>418.2</ele>
        <time>2021-03-03T12:13:06Z</time>
      </trkpt>
      <trkpt lat="42.8771770" lon="-8.4389690">
        <ele>418.2</ele>
        <time>2021-03-03T12:13:07Z</time>
      </trkpt>
      <trkpt lat="42.8771520" lon="-8.4389680">
        <ele>418.2</ele>
        <time>2021-03-03T12:13:08Z</time>
      </trkpt>
      <trkpt lat="42.8771240" lon="-8.4389650">
        <ele>418.2</ele>
        <time>2021-03-03T12:13:09Z</time>
      </trkpt>
      <trkpt lat="42.8770950" lon="-8.4389640">
        <ele>418.2</ele>
        <time>2021-03-03T12:13:10Z</time>
      </trkpt>
      <trkpt lat="42.8770650" lon="-8.4389620">
        <ele>418.2</ele>
        <time>2021-03-03T12:13:11Z</time>
      </trkpt>
      <trkpt lat="42.8770340" lon="-8.4389630">
        <ele>418.4</ele>
        <time>2021-03-03T12:13:12Z</time>
      </trkpt>
      <trkpt lat="42.8770050" lon="-8.4389660">
        <ele>418.2</ele>
        <time>2021-03-03T12:13:13Z</time>
      </trkpt>
      <trkpt lat="42.8769730" lon="-8.4389690">
        <ele>418.4</ele>
        <time>2021-03-03T12:13:14Z</time>
      </trkpt>
      <trkpt lat="42.8769430" lon="-8.4389760">
        <ele>418.6</ele>
        <time>2021-03-03T12:13:15Z</time>
      </trkpt>
      <trkpt lat="42.8769120" lon="-8.4389860">
        <ele>418.6</ele>
        <time>2021-03-03T12:13:16Z</time>
      </trkpt>
      <trkpt lat="42.8768830" lon="-8.4389970">
        <ele>418.6</ele>
        <time>2021-03-03T12:13:17Z</time>
      </trkpt>
      <trkpt lat="42.8768550" lon="-8.4390090">
        <ele>418.6</ele>
        <time>2021-03-03T12:13:18Z</time>
      </trkpt>
      <trkpt lat="42.8768260" lon="-8.4390160">
        <ele>418.6</ele>
        <time>2021-03-03T12:13:19Z</time>
      </trkpt>
      <trkpt lat="42.8768010" lon="-8.4390240">
        <ele>418.4</ele>
        <time>2021-03-03T12:13:20Z</time>
      </trkpt>
      <trkpt lat="42.8767750" lon="-8.4390380">
        <ele>418.4</ele>
        <time>2021-03-03T12:13:21Z</time>
      </trkpt>
      <trkpt lat="42.8767490" lon="-8.4390520">
        <ele>418.4</ele>
        <time>2021-03-03T12:13:22Z</time>
      </trkpt>
      <trkpt lat="42.8767230" lon="-8.4390650">
        <ele>418.2</ele>
        <time>2021-03-03T12:13:23Z</time>
      </trkpt>
      <trkpt lat="42.8766940" lon="-8.4390770">
        <ele>418.2</ele>
        <time>2021-03-03T12:13:24Z</time>
      </trkpt>
      <trkpt lat="42.8766650" lon="-8.4390930">
        <ele>418.2</ele>
        <time>2021-03-03T12:13:25Z</time>
      </trkpt>
      <trkpt lat="42.8766400" lon="-8.4391110">
        <ele>418.2</ele>
        <time>2021-03-03T12:13:26Z</time>
      </trkpt>
      <trkpt lat="42.8766150" lon="-8.4391310">
        <ele>418.2</ele>
        <time>2021-03-03T12:13:27Z</time>
      </trkpt>
      <trkpt lat="42.8765890" lon="-8.4391460">
        <ele>418.0</ele>
        <time>2021-03-03T12:13:28Z</time>
      </trkpt>
      <trkpt lat="42.8765650" lon="-8.4391650">
        <ele>417.8</ele>
        <time>2021-03-03T12:13:29Z</time>
      </trkpt>
      <trkpt lat="42.8765400" lon="-8.4391810">
        <ele>417.6</ele>
        <time>2021-03-03T12:13:30Z</time>
      </trkpt>
      <trkpt lat="42.8765130" lon="-8.4391960">
        <ele>417.6</ele>
        <time>2021-03-03T12:13:31Z</time>
      </trkpt>
      <trkpt lat="42.8764900" lon="-8.4392150">
        <ele>417.4</ele>
        <time>2021-03-03T12:13:32Z</time>
      </trkpt>
      <trkpt lat="42.8764680" lon="-8.4392320">
        <ele>417.4</ele>
        <time>2021-03-03T12:13:33Z</time>
      </trkpt>
      <trkpt lat="42.8764470" lon="-8.4392480">
        <ele>417.2</ele>
        <time>2021-03-03T12:13:34Z</time>
      </trkpt>
      <trkpt lat="42.8764240" lon="-8.4392640">
        <ele>417.2</ele>
        <time>2021-03-03T12:13:35Z</time>
      </trkpt>
      <trkpt lat="42.8764000" lon="-8.4392810">
        <ele>417.0</ele>
        <time>2021-03-03T12:13:36Z</time>
      </trkpt>
      <trkpt lat="42.8763770" lon="-8.4392970">
        <ele>416.8</ele>
        <time>2021-03-03T12:13:37Z</time>
      </trkpt>
      <trkpt lat="42.8763530" lon="-8.4393060">
        <ele>416.6</ele>
        <time>2021-03-03T12:13:38Z</time>
      </trkpt>
      <trkpt lat="42.8763250" lon="-8.4393250">
        <ele>416.6</ele>
        <time>2021-03-03T12:13:39Z</time>
      </trkpt>
      <trkpt lat="42.8762950" lon="-8.4393500">
        <ele>416.6</ele>
        <time>2021-03-03T12:13:40Z</time>
      </trkpt>
      <trkpt lat="42.8762660" lon="-8.4393760">
        <ele>416.6</ele>
        <time>2021-03-03T12:13:41Z</time>
      </trkpt>
      <trkpt lat="42.8762360" lon="-8.4394030">
        <ele>416.4</ele>
        <time>2021-03-03T12:13:42Z</time>
      </trkpt>
      <trkpt lat="42.8762070" lon="-8.4394210">
        <ele>416.2</ele>
        <time>2021-03-03T12:13:43Z</time>
      </trkpt>
      <trkpt lat="42.8761850" lon="-8.4394410">
        <ele>416.0</ele>
        <time>2021-03-03T12:13:44Z</time>
      </trkpt>
      <trkpt lat="42.8761600" lon="-8.4394680">
        <ele>415.6</ele>
        <time>2021-03-03T12:13:45Z</time>
      </trkpt>
      <trkpt lat="42.8761360" lon="-8.4394840">
        <ele>415.4</ele>
        <time>2021-03-03T12:13:46Z</time>
      </trkpt>
      <trkpt lat="42.8761140" lon="-8.4395050">
        <ele>415.4</ele>
        <time>2021-03-03T12:13:47Z</time>
      </trkpt>
      <trkpt lat="42.8760850" lon="-8.4395190">
        <ele>415.2</ele>
        <time>2021-03-03T12:13:48Z</time>
      </trkpt>
      <trkpt lat="42.8760620" lon="-8.4395340">
        <ele>415.0</ele>
        <time>2021-03-03T12:13:49Z</time>
      </trkpt>
      <trkpt lat="42.8760370" lon="-8.4395530">
        <ele>414.8</ele>
        <time>2021-03-03T12:13:50Z</time>
      </trkpt>
      <trkpt lat="42.8760080" lon="-8.4395770">
        <ele>414.8</ele>
        <time>2021-03-03T12:13:51Z</time>
      </trkpt>
      <trkpt lat="42.8759790" lon="-8.4395990">
        <ele>414.8</ele>
        <time>2021-03-03T12:13:52Z</time>
      </trkpt>
      <trkpt lat="42.8759490" lon="-8.4396160">
        <ele>414.6</ele>
        <time>2021-03-03T12:13:53Z</time>
      </trkpt>
      <trkpt lat="42.8759210" lon="-8.4396320">
        <ele>414.4</ele>
        <time>2021-03-03T12:13:54Z</time>
      </trkpt>
      <trkpt lat="42.8758930" lon="-8.4396450">
        <ele>414.6</ele>
        <time>2021-03-03T12:13:55Z</time>
      </trkpt>
      <trkpt lat="42.8758700" lon="-8.4396600">
        <ele>414.6</ele>
        <time>2021-03-03T12:13:56Z</time>
      </trkpt>
      <trkpt lat="42.8758480" lon="-8.4396710">
        <ele>414.6</ele>
        <time>2021-03-03T12:13:57Z</time>
      </trkpt>
      <trkpt lat="42.8758220" lon="-8.4396770">
        <ele>414.6</ele>
        <time>2021-03-03T12:13:58Z</time>
      </trkpt>
      <trkpt lat="42.8757950" lon="-8.4396810">
        <ele>414.4</ele>
        <time>2021-03-03T12:13:59Z</time>
      </trkpt>
      <trkpt lat="42.8757640" lon="-8.4396890">
        <ele>414.4</ele>
        <time>2021-03-03T12:14:00Z</time>
      </trkpt>
      <trkpt lat="42.8757340" lon="-8.4397050">
        <ele>414.4</ele>
        <time>2021-03-03T12:14:01Z</time>
      </trkpt>
      <trkpt lat="42.8757070" lon="-8.4397190">
        <ele>414.2</ele>
        <time>2021-03-03T12:14:02Z</time>
      </trkpt>
      <trkpt lat="42.8756820" lon="-8.4397360">
        <ele>414.2</ele>
        <time>2021-03-03T12:14:03Z</time>
      </trkpt>
      <trkpt lat="42.8756600" lon="-8.4397550">
        <ele>414.2</ele>
        <time>2021-03-03T12:14:04Z</time>
      </trkpt>
      <trkpt lat="42.8756310" lon="-8.4397670">
        <ele>414.2</ele>
        <time>2021-03-03T12:14:05Z</time>
      </trkpt>
      <trkpt lat="42.8756060" lon="-8.4397650">
        <ele>414.0</ele>
        <time>2021-03-03T12:14:06Z</time>
      </trkpt>
      <trkpt lat="42.8755860" lon="-8.4397530">
        <ele>414.0</ele>
        <time>2021-03-03T12:14:07Z</time>
      </trkpt>
      <trkpt lat="42.8755660" lon="-8.4397260">
        <ele>414.0</ele>
        <time>2021-03-03T12:14:08Z</time>
      </trkpt>
      <trkpt lat="42.8755500" lon="-8.4396980">
        <ele>414.0</ele>
        <time>2021-03-03T12:14:09Z</time>
      </trkpt>
      <trkpt lat="42.8755360" lon="-8.4396690">
        <ele>414.0</ele>
        <time>2021-03-03T12:14:10Z</time>
      </trkpt>
      <trkpt lat="42.8755210" lon="-8.4396330">
        <ele>414.0</ele>
        <time>2021-03-03T12:14:11Z</time>
      </trkpt>
      <trkpt lat="42.8755130" lon="-8.4396010">
        <ele>413.8</ele>
        <time>2021-03-03T12:14:12Z</time>
      </trkpt>
      <trkpt lat="42.8755030" lon="-8.4395680">
        <ele>413.6</ele>
        <time>2021-03-03T12:14:13Z</time>
      </trkpt>
      <trkpt lat="42.8754880" lon="-8.4395330">
        <ele>413.6</ele>
        <time>2021-03-03T12:14:14Z</time>
      </trkpt>
      <trkpt lat="42.8754740" lon="-8.4395010">
        <ele>413.4</ele>
        <time>2021-03-03T12:14:15Z</time>
      </trkpt>
      <trkpt lat="42.8754590" lon="-8.4394690">
        <ele>413.2</ele>
        <time>2021-03-03T12:14:16Z</time>
      </trkpt>
      <trkpt lat="42.8754410" lon="-8.4394350">
        <ele>412.8</ele>
        <time>2021-03-03T12:14:17Z</time>
      </trkpt>
      <trkpt lat="42.8754240" lon="-8.4394010">
        <ele>412.6</ele>
        <time>2021-03-03T12:14:18Z</time>
      </trkpt>
      <trkpt lat="42.8754110" lon="-8.4393660">
        <ele>412.4</ele>
        <time>2021-03-03T12:14:19Z</time>
      </trkpt>
      <trkpt lat="42.8753970" lon="-8.4393310">
        <ele>411.8</ele>
        <time>2021-03-03T12:14:20Z</time>
      </trkpt>
      <trkpt lat="42.8753840" lon="-8.4392960">
        <ele>411.6</ele>
        <time>2021-03-03T12:14:21Z</time>
      </trkpt>
      <trkpt lat="42.8753720" lon="-8.4392620">
        <ele>411.6</ele>
        <time>2021-03-03T12:14:22Z</time>
      </trkpt>
      <trkpt lat="42.8753550" lon="-8.4392260">
        <ele>411.4</ele>
        <time>2021-03-03T12:14:23Z</time>
      </trkpt>
      <trkpt lat="42.8753400" lon="-8.4391940">
        <ele>411.0</ele>
        <time>2021-03-03T12:14:24Z</time>
      </trkpt>
      <trkpt lat="42.8753190" lon="-8.4391600">
        <ele>410.8</ele>
        <time>2021-03-03T12:14:25Z</time>
      </trkpt>
      <trkpt lat="42.8752940" lon="-8.4391290">
        <ele>410.4</ele>
        <time>2021-03-03T12:14:26Z</time>
      </trkpt>
      <trkpt lat="42.8752740" lon="-8.4390960">
        <ele>410.0</ele>
        <time>2021-03-03T12:14:27Z</time>
      </trkpt>
      <trkpt lat="42.8752550" lon="-8.4390620">
        <ele>409.6</ele>
        <time>2021-03-03T12:14:28Z</time>
      </trkpt>
      <trkpt lat="42.8752350" lon="-8.4390240">
        <ele>409.2</ele>
        <time>2021-03-03T12:14:29Z</time>
      </trkpt>
      <trkpt lat="42.8752160" lon="-8.4389860">
        <ele>408.8</ele>
        <time>2021-03-03T12:14:30Z</time>
      </trkpt>
      <trkpt lat="42.8751980" lon="-8.4389510">
        <ele>408.4</ele>
        <time>2021-03-03T12:14:31Z</time>
      </trkpt>
      <trkpt lat="42.8751810" lon="-8.4389130">
        <ele>408.0</ele>
        <time>2021-03-03T12:14:32Z</time>
      </trkpt>
      <trkpt lat="42.8751630" lon="-8.4388770">
        <ele>407.6</ele>
        <time>2021-03-03T12:14:33Z</time>
      </trkpt>
      <trkpt lat="42.8751420" lon="-8.4388450">
        <ele>407.0</ele>
        <time>2021-03-03T12:14:34Z</time>
      </trkpt>
      <trkpt lat="42.8751170" lon="-8.4388110">
        <ele>406.8</ele>
        <time>2021-03-03T12:14:35Z</time>
      </trkpt>
      <trkpt lat="42.8750890" lon="-8.4387850">
        <ele>406.4</ele>
        <time>2021-03-03T12:14:36Z</time>
      </trkpt>
      <trkpt lat="42.8750570" lon="-8.4387680">
        <ele>406.2</ele>
        <time>2021-03-03T12:14:37Z</time>
      </trkpt>
      <trkpt lat="42.8750200" lon="-8.4387530">
        <ele>405.8</ele>
        <time>2021-03-03T12:14:38Z</time>
      </trkpt>
      <trkpt lat="42.8749870" lon="-8.4387400">
        <ele>405.6</ele>
        <time>2021-03-03T12:14:39Z</time>
      </trkpt>
      <trkpt lat="42.8749560" lon="-8.4387310">
        <ele>405.6</ele>
        <time>2021-03-03T12:14:40Z</time>
      </trkpt>
      <trkpt lat="42.8749240" lon="-8.4387280">
        <ele>405.4</ele>
        <time>2021-03-03T12:14:41Z</time>
      </trkpt>
      <trkpt lat="42.8748930" lon="-8.4387310">
        <ele>405.4</ele>
        <time>2021-03-03T12:14:42Z</time>
      </trkpt>
      <trkpt lat="42.8748540" lon="-8.4387270">
        <ele>405.4</ele>
        <time>2021-03-03T12:14:43Z</time>
      </trkpt>
      <trkpt lat="42.8748200" lon="-8.4387200">
        <ele>405.4</ele>
        <time>2021-03-03T12:14:44Z</time>
      </trkpt>
      <trkpt lat="42.8747870" lon="-8.4387120">
        <ele>405.4</ele>
        <time>2021-03-03T12:14:45Z</time>
      </trkpt>
      <trkpt lat="42.8747490" lon="-8.4387040">
        <ele>405.4</ele>
        <time>2021-03-03T12:14:46Z</time>
      </trkpt>
      <trkpt lat="42.8747210" lon="-8.4386980">
        <ele>405.2</ele>
        <time>2021-03-03T12:14:47Z</time>
      </trkpt>
      <trkpt lat="42.8746940" lon="-8.4386900">
        <ele>405.2</ele>
        <time>2021-03-03T12:14:48Z</time>
      </trkpt>
      <trkpt lat="42.8746650" lon="-8.4386840">
        <ele>405.2</ele>
        <time>2021-03-03T12:14:49Z</time>
      </trkpt>
      <trkpt lat="42.8746360" lon="-8.4386760">
        <ele>405.0</ele>
        <time>2021-03-03T12:14:50Z</time>
      </trkpt>
      <trkpt lat="42.8746100" lon="-8.4386700">
        <ele>405.0</ele>
        <time>2021-03-03T12:14:51Z</time>
      </trkpt>
      <trkpt lat="42.8745800" lon="-8.4386660">
        <ele>405.0</ele>
        <time>2021-03-03T12:14:52Z</time>
      </trkpt>
      <trkpt lat="42.8745480" lon="-8.4386670">
        <ele>405.0</ele>
        <time>2021-03-03T12:14:53Z</time>
      </trkpt>
      <trkpt lat="42.8745170" lon="-8.4386650">
        <ele>404.8</ele>
        <time>2021-03-03T12:14:54Z</time>
      </trkpt>
      <trkpt lat="42.8744880" lon="-8.4386600">
        <ele>404.8</ele>
        <time>2021-03-03T12:14:55Z</time>
      </trkpt>
      <trkpt lat="42.8744600" lon="-8.4386520">
        <ele>404.8</ele>
        <time>2021-03-03T12:14:56Z</time>
      </trkpt>
      <trkpt lat="42.8744280" lon="-8.4386410">
        <ele>404.8</ele>
        <time>2021-03-03T12:14:57Z</time>
      </trkpt>
      <trkpt lat="42.8743980" lon="-8.4386320">
        <ele>404.6</ele>
        <time>2021-03-03T12:14:58Z</time>
      </trkpt>
      <trkpt lat="42.8743660" lon="-8.4386210">
        <ele>404.4</ele>
        <time>2021-03-03T12:14:59Z</time>
      </trkpt>
      <trkpt lat="42.8743350" lon="-8.4386110">
        <ele>404.2</ele>
        <time>2021-03-03T12:15:00Z</time>
      </trkpt>
      <trkpt lat="42.8743040" lon="-8.4386020">
        <ele>404.0</ele>
        <time>2021-03-03T12:15:01Z</time>
      </trkpt>
      <trkpt lat="42.8742750" lon="-8.4385960">
        <ele>404.0</ele>
        <time>2021-03-03T12:15:02Z</time>
      </trkpt>
      <trkpt lat="42.8742490" lon="-8.4385900">
        <ele>403.8</ele>
        <time>2021-03-03T12:15:03Z</time>
      </trkpt>
      <trkpt lat="42.8742200" lon="-8.4385840">
        <ele>403.6</ele>
        <time>2021-03-03T12:15:04Z</time>
      </trkpt>
      <trkpt lat="42.8741920" lon="-8.4385770">
        <ele>403.4</ele>
        <time>2021-03-03T12:15:05Z</time>
      </trkpt>
      <trkpt lat="42.8741670" lon="-8.4385700">
        <ele>403.2</ele>
        <time>2021-03-03T12:15:06Z</time>
      </trkpt>
      <trkpt lat="42.8741410" lon="-8.4385680">
        <ele>403.0</ele>
        <time>2021-03-03T12:15:07Z</time>
      </trkpt>
      <trkpt lat="42.8741140" lon="-8.4385640">
        <ele>402.8</ele>
        <time>2021-03-03T12:15:08Z</time>
      </trkpt>
      <trkpt lat="42.8740860" lon="-8.4385540">
        <ele>402.8</ele>
        <time>2021-03-03T12:15:09Z</time>
      </trkpt>
      <trkpt lat="42.8740560" lon="-8.4385430">
        <ele>402.6</ele>
        <time>2021-03-03T12:15:10Z</time>
      </trkpt>
      <trkpt lat="42.8740210" lon="-8.4385320">
        <ele>402.4</ele>
        <time>2021-03-03T12:15:11Z</time>
      </trkpt>
      <trkpt lat="42.8739880" lon="-8.4385220">
        <ele>402.2</ele>
        <time>2021-03-03T12:15:12Z</time>
      </trkpt>
      <trkpt lat="42.8739580" lon="-8.4385180">
        <ele>402.0</ele>
        <time>2021-03-03T12:15:13Z</time>
      </trkpt>
      <trkpt lat="42.8739210" lon="-8.4385070">
        <ele>401.8</ele>
        <time>2021-03-03T12:15:14Z</time>
      </trkpt>
      <trkpt lat="42.8738830" lon="-8.4384990">
        <ele>401.4</ele>
        <time>2021-03-03T12:15:15Z</time>
      </trkpt>
      <trkpt lat="42.8738480" lon="-8.4384900">
        <ele>401.2</ele>
        <time>2021-03-03T12:15:16Z</time>
      </trkpt>
      <trkpt lat="42.8738100" lon="-8.4384790">
        <ele>401.0</ele>
        <time>2021-03-03T12:15:17Z</time>
      </trkpt>
      <trkpt lat="42.8737780" lon="-8.4384700">
        <ele>400.8</ele>
        <time>2021-03-03T12:15:18Z</time>
      </trkpt>
      <trkpt lat="42.8737450" lon="-8.4384660">
        <ele>400.6</ele>
        <time>2021-03-03T12:15:19Z</time>
      </trkpt>
      <trkpt lat="42.8737160" lon="-8.4384680">
        <ele>400.4</ele>
        <time>2021-03-03T12:15:20Z</time>
      </trkpt>
      <trkpt lat="42.8736850" lon="-8.4384710">
        <ele>400.2</ele>
        <time>2021-03-03T12:15:21Z</time>
      </trkpt>
      <trkpt lat="42.8736530" lon="-8.4384660">
        <ele>400.0</ele>
        <time>2021-03-03T12:15:22Z</time>
      </trkpt>
      <trkpt lat="42.8736260" lon="-8.4384560">
        <ele>400.0</ele>
        <time>2021-03-03T12:15:23Z</time>
      </trkpt>
      <trkpt lat="42.8735920" lon="-8.4384480">
        <ele>399.8</ele>
        <time>2021-03-03T12:15:24Z</time>
      </trkpt>
      <trkpt lat="42.8735610" lon="-8.4384450">
        <ele>399.8</ele>
        <time>2021-03-03T12:15:25Z</time>
      </trkpt>
      <trkpt lat="42.8735320" lon="-8.4384430">
        <ele>399.6</ele>
        <time>2021-03-03T12:15:26Z</time>
      </trkpt>
      <trkpt lat="42.8735030" lon="-8.4384420">
        <ele>399.6</ele>
        <time>2021-03-03T12:15:27Z</time>
      </trkpt>
      <trkpt lat="42.8734760" lon="-8.4384420">
        <ele>399.6</ele>
        <time>2021-03-03T12:15:28Z</time>
      </trkpt>
      <trkpt lat="42.8734470" lon="-8.4384360">
        <ele>399.6</ele>
        <time>2021-03-03T12:15:29Z</time>
      </trkpt>
      <trkpt lat="42.8734170" lon="-8.4384270">
        <ele>399.6</ele>
        <time>2021-03-03T12:15:30Z</time>
      </trkpt>
      <trkpt lat="42.8733890" lon="-8.4384230">
        <ele>399.6</ele>
        <time>2021-03-03T12:15:31Z</time>
      </trkpt>
      <trkpt lat="42.8733560" lon="-8.4384230">
        <ele>399.4</ele>
        <time>2021-03-03T12:15:32Z</time>
      </trkpt>
      <trkpt lat="42.8733270" lon="-8.4384260">
        <ele>399.4</ele>
        <time>2021-03-03T12:15:33Z</time>
      </trkpt>
      <trkpt lat="42.8732960" lon="-8.4384270">
        <ele>399.4</ele>
        <time>2021-03-03T12:15:34Z</time>
      </trkpt>
      <trkpt lat="42.8732630" lon="-8.4384270">
        <ele>399.2</ele>
        <time>2021-03-03T12:15:35Z</time>
      </trkpt>
      <trkpt lat="42.8732330" lon="-8.4384270">
        <ele>399.2</ele>
        <time>2021-03-03T12:15:36Z</time>
      </trkpt>
      <trkpt lat="42.8732050" lon="-8.4384320">
        <ele>399.0</ele>
        <time>2021-03-03T12:15:37Z</time>
      </trkpt>
      <trkpt lat="42.8731760" lon="-8.4384320">
        <ele>399.0</ele>
        <time>2021-03-03T12:15:38Z</time>
      </trkpt>
      <trkpt lat="42.8731440" lon="-8.4384330">
        <ele>399.0</ele>
        <time>2021-03-03T12:15:39Z</time>
      </trkpt>
      <trkpt lat="42.8731080" lon="-8.4384330">
        <ele>399.0</ele>
        <time>2021-03-03T12:15:40Z</time>
      </trkpt>
      <trkpt lat="42.8730760" lon="-8.4384260">
        <ele>399.0</ele>
        <time>2021-03-03T12:15:41Z</time>
      </trkpt>
      <trkpt lat="42.8730470" lon="-8.4384140">
        <ele>399.0</ele>
        <time>2021-03-03T12:15:42Z</time>
      </trkpt>
      <trkpt lat="42.8730230" lon="-8.4384090">
        <ele>398.8</ele>
        <time>2021-03-03T12:15:43Z</time>
      </trkpt>
      <trkpt lat="42.8729960" lon="-8.4384050">
        <ele>398.6</ele>
        <time>2021-03-03T12:15:44Z</time>
      </trkpt>
      <trkpt lat="42.8729630" lon="-8.4383970">
        <ele>398.4</ele>
        <time>2021-03-03T12:15:45Z</time>
      </trkpt>
      <trkpt lat="42.8729290" lon="-8.4383930">
        <ele>398.4</ele>
        <time>2021-03-03T12:15:46Z</time>
      </trkpt>
      <trkpt lat="42.8729020" lon="-8.4383920">
        <ele>398.2</ele>
        <time>2021-03-03T12:15:47Z</time>
      </trkpt>
      <trkpt lat="42.8728680" lon="-8.4383850">
        <ele>398.0</ele>
        <time>2021-03-03T12:15:48Z</time>
      </trkpt>
      <trkpt lat="42.8728250" lon="-8.4383810">
        <ele>398.0</ele>
        <time>2021-03-03T12:15:49Z</time>
      </trkpt>
      <trkpt lat="42.8727890" lon="-8.4383750">
        <ele>398.0</ele>
        <time>2021-03-03T12:15:50Z</time>
      </trkpt>
      <trkpt lat="42.8727610" lon="-8.4383700">
        <ele>397.8</ele>
        <time>2021-03-03T12:15:51Z</time>
      </trkpt>
      <trkpt lat="42.8727330" lon="-8.4383710">
        <ele>397.8</ele>
        <time>2021-03-03T12:15:52Z</time>
      </trkpt>
      <trkpt lat="42.8726940" lon="-8.4383740">
        <ele>397.6</ele>
        <time>2021-03-03T12:15:53Z</time>
      </trkpt>
      <trkpt lat="42.8726670" lon="-8.4383730">
        <ele>397.6</ele>
        <time>2021-03-03T12:15:54Z</time>
      </trkpt>
      <trkpt lat="42.8726360" lon="-8.4383720">
        <ele>397.6</ele>
        <time>2021-03-03T12:15:55Z</time>
      </trkpt>
      <trkpt lat="42.8726040" lon="-8.4383760">
        <ele>397.4</ele>
        <time>2021-03-03T12:15:56Z</time>
      </trkpt>
      <trkpt lat="42.8725660" lon="-8.4383690">
        <ele>397.4</ele>
        <time>2021-03-03T12:15:57Z</time>
      </trkpt>
      <trkpt lat="42.8725320" lon="-8.4383620">
        <ele>397.2</ele>
        <time>2021-03-03T12:15:58Z</time>
      </trkpt>
      <trkpt lat="42.8725010" lon="-8.4383540">
        <ele>397.2</ele>
        <time>2021-03-03T12:15:59Z</time>
      </trkpt>
      <trkpt lat="42.8724780" lon="-8.4383510">
        <ele>397.0</ele>
        <time>2021-03-03T12:16:00Z</time>
      </trkpt>
      <trkpt lat="42.8724470" lon="-8.4383450">
        <ele>397.0</ele>
        <time>2021-03-03T12:16:01Z</time>
      </trkpt>
      <trkpt lat="42.8724150" lon="-8.4383400">
        <ele>396.8</ele>
        <time>2021-03-03T12:16:02Z</time>
      </trkpt>
      <trkpt lat="42.8723850" lon="-8.4383380">
        <ele>396.8</ele>
        <time>2021-03-03T12:16:03Z</time>
      </trkpt>
      <trkpt lat="42.8723540" lon="-8.4383330">
        <ele>396.4</ele>
        <time>2021-03-03T12:16:04Z</time>
      </trkpt>
      <trkpt lat="42.8723260" lon="-8.4383220">
        <ele>396.4</ele>
        <time>2021-03-03T12:16:05Z</time>
      </trkpt>
      <trkpt lat="42.8722970" lon="-8.4383150">
        <ele>396.2</ele>
        <time>2021-03-03T12:16:06Z</time>
      </trkpt>
      <trkpt lat="42.8722660" lon="-8.4383060">
        <ele>395.8</ele>
        <time>2021-03-03T12:16:07Z</time>
      </trkpt>
      <trkpt lat="42.8722360" lon="-8.4382920">
        <ele>395.2</ele>
        <time>2021-03-03T12:16:08Z</time>
      </trkpt>
      <trkpt lat="42.8722070" lon="-8.4382750">
        <ele>395.0</ele>
        <time>2021-03-03T12:16:09Z</time>
      </trkpt>
      <trkpt lat="42.8721730" lon="-8.4382510">
        <ele>394.6</ele>
        <time>2021-03-03T12:16:10Z</time>
      </trkpt>
      <trkpt lat="42.8721500" lon="-8.4382280">
        <ele>394.4</ele>
        <time>2021-03-03T12:16:11Z</time>
      </trkpt>
      <trkpt lat="42.8721190" lon="-8.4382020">
        <ele>394.0</ele>
        <time>2021-03-03T12:16:12Z</time>
      </trkpt>
      <trkpt lat="42.8720870" lon="-8.4381800">
        <ele>393.8</ele>
        <time>2021-03-03T12:16:13Z</time>
      </trkpt>
      <trkpt lat="42.8720580" lon="-8.4381610">
        <ele>393.6</ele>
        <time>2021-03-03T12:16:14Z</time>
      </trkpt>
      <trkpt lat="42.8720250" lon="-8.4381430">
        <ele>393.6</ele>
        <time>2021-03-03T12:16:15Z</time>
      </trkpt>
      <trkpt lat="42.8719950" lon="-8.4381280">
        <ele>393.6</ele>
        <time>2021-03-03T12:16:16Z</time>
      </trkpt>
      <trkpt lat="42.8719620" lon="-8.4381120">
        <ele>393.6</ele>
        <time>2021-03-03T12:16:17Z</time>
      </trkpt>
      <trkpt lat="42.8719270" lon="-8.4380960">
        <ele>393.2</ele>
        <time>2021-03-03T12:16:18Z</time>
      </trkpt>
      <trkpt lat="42.8718950" lon="-8.4380850">
        <ele>392.8</ele>
        <time>2021-03-03T12:16:19Z</time>
      </trkpt>
      <trkpt lat="42.8718560" lon="-8.4380780">
        <ele>392.6</ele>
        <time>2021-03-03T12:16:20Z</time>
      </trkpt>
      <trkpt lat="42.8718280" lon="-8.4380670">
        <ele>392.2</ele>
        <time>2021-03-03T12:16:21Z</time>
      </trkpt>
      <trkpt lat="42.8717950" lon="-8.4380630">
        <ele>391.8</ele>
        <time>2021-03-03T12:16:22Z</time>
      </trkpt>
      <trkpt lat="42.8717550" lon="-8.4380530">
        <ele>391.6</ele>
        <time>2021-03-03T12:16:23Z</time>
      </trkpt>
      <trkpt lat="42.8717180" lon="-8.4380420">
        <ele>391.0</ele>
        <time>2021-03-03T12:16:24Z</time>
      </trkpt>
      <trkpt lat="42.8716880" lon="-8.4380300">
        <ele>390.8</ele>
        <time>2021-03-03T12:16:25Z</time>
      </trkpt>
      <trkpt lat="42.8716600" lon="-8.4380200">
        <ele>390.4</ele>
        <time>2021-03-03T12:16:26Z</time>
      </trkpt>
      <trkpt lat="42.8716280" lon="-8.4380110">
        <ele>389.8</ele>
        <time>2021-03-03T12:16:27Z</time>
      </trkpt>
      <trkpt lat="42.8715960" lon="-8.4380060">
        <ele>389.6</ele>
        <time>2021-03-03T12:16:28Z</time>
      </trkpt>
      <trkpt lat="42.8715630" lon="-8.4380030">
        <ele>389.4</ele>
        <time>2021-03-03T12:16:29Z</time>
      </trkpt>
      <trkpt lat="42.8715310" lon="-8.4380020">
        <ele>388.8</ele>
        <time>2021-03-03T12:16:30Z</time>
      </trkpt>
      <trkpt lat="42.8715000" lon="-8.4379930">
        <ele>388.4</ele>
        <time>2021-03-03T12:16:31Z</time>
      </trkpt>
      <trkpt lat="42.8714680" lon="-8.4379830">
        <ele>388.2</ele>
        <time>2021-03-03T12:16:32Z</time>
      </trkpt>
      <trkpt lat="42.8714360" lon="-8.4379730">
        <ele>388.0</ele>
        <time>2021-03-03T12:16:33Z</time>
      </trkpt>
      <trkpt lat="42.8714030" lon="-8.4379730">
        <ele>388.0</ele>
        <time>2021-03-03T12:16:34Z</time>
      </trkpt>
      <trkpt lat="42.8713710" lon="-8.4379720">
        <ele>387.4</ele>
        <time>2021-03-03T12:16:35Z</time>
      </trkpt>
      <trkpt lat="42.8713400" lon="-8.4379720">
        <ele>387.0</ele>
        <time>2021-03-03T12:16:36Z</time>
      </trkpt>
      <trkpt lat="42.8713080" lon="-8.4379740">
        <ele>386.8</ele>
        <time>2021-03-03T12:16:37Z</time>
      </trkpt>
      <trkpt lat="42.8712700" lon="-8.4379770">
        <ele>386.6</ele>
        <time>2021-03-03T12:16:38Z</time>
      </trkpt>
      <trkpt lat="42.8712450" lon="-8.4379810">
        <ele>386.2</ele>
        <time>2021-03-03T12:16:39Z</time>
      </trkpt>
      <trkpt lat="42.8712120" lon="-8.4379850">
        <ele>386.0</ele>
        <time>2021-03-03T12:16:40Z</time>
      </trkpt>
      <trkpt lat="42.8711790" lon="-8.4379920">
        <ele>385.8</ele>
        <time>2021-03-03T12:16:41Z</time>
      </trkpt>
      <trkpt lat="42.8711470" lon="-8.4380010">
        <ele>385.6</ele>
        <time>2021-03-03T12:16:42Z</time>
      </trkpt>
      <trkpt lat="42.8711150" lon="-8.4380130">
        <ele>385.6</ele>
        <time>2021-03-03T12:16:43Z</time>
      </trkpt>
      <trkpt lat="42.8710850" lon="-8.4380250">
        <ele>385.2</ele>
        <time>2021-03-03T12:16:44Z</time>
      </trkpt>
      <trkpt lat="42.8710530" lon="-8.4380350">
        <ele>384.8</ele>
        <time>2021-03-03T12:16:45Z</time>
      </trkpt>
      <trkpt lat="42.8710210" lon="-8.4380490">
        <ele>384.6</ele>
        <time>2021-03-03T12:16:46Z</time>
      </trkpt>
      <trkpt lat="42.8709920" lon="-8.4380610">
        <ele>384.4</ele>
        <time>2021-03-03T12:16:47Z</time>
      </trkpt>
      <trkpt lat="42.8709640" lon="-8.4380720">
        <ele>384.2</ele>
        <time>2021-03-03T12:16:48Z</time>
      </trkpt>
      <trkpt lat="42.8709330" lon="-8.4380860">
        <ele>384.0</ele>
        <time>2021-03-03T12:16:49Z</time>
      </trkpt>
      <trkpt lat="42.8709020" lon="-8.4381010">
        <ele>383.4</ele>
        <time>2021-03-03T12:16:50Z</time>
      </trkpt>
      <trkpt lat="42.8708690" lon="-8.4381130">
        <ele>383.0</ele>
        <time>2021-03-03T12:16:51Z</time>
      </trkpt>
      <trkpt lat="42.8708310" lon="-8.4381340">
        <ele>382.8</ele>
        <time>2021-03-03T12:16:52Z</time>
      </trkpt>
      <trkpt lat="42.8708010" lon="-8.4381480">
        <ele>382.4</ele>
        <time>2021-03-03T12:16:53Z</time>
      </trkpt>
      <trkpt lat="42.8707700" lon="-8.4381700">
        <ele>381.6</ele>
        <time>2021-03-03T12:16:54Z</time>
      </trkpt>
      <trkpt lat="42.8707520" lon="-8.4381960">
        <ele>381.2</ele>
        <time>2021-03-03T12:16:55Z</time>
      </trkpt>
      <trkpt lat="42.8707230" lon="-8.4382230">
        <ele>381.0</ele>
        <time>2021-03-03T12:16:56Z</time>
      </trkpt>
      <trkpt lat="42.8706980" lon="-8.4382440">
        <ele>380.4</ele>
        <time>2021-03-03T12:16:57Z</time>
      </trkpt>
      <trkpt lat="42.8706720" lon="-8.4382680">
        <ele>380.2</ele>
        <time>2021-03-03T12:16:58Z</time>
      </trkpt>
      <trkpt lat="42.8706480" lon="-8.4382890">
        <ele>379.8</ele>
        <time>2021-03-03T12:16:59Z</time>
      </trkpt>
      <trkpt lat="42.8706200" lon="-8.4383110">
        <ele>379.6</ele>
        <time>2021-03-03T12:17:00Z</time>
      </trkpt>
      <trkpt lat="42.8705910" lon="-8.4383290">
        <ele>379.4</ele>
        <time>2021-03-03T12:17:01Z</time>
      </trkpt>
      <trkpt lat="42.8705630" lon="-8.4383450">
        <ele>379.2</ele>
        <time>2021-03-03T12:17:02Z</time>
      </trkpt>
      <trkpt lat="42.8705420" lon="-8.4383600">
        <ele>379.0</ele>
        <time>2021-03-03T12:17:03Z</time>
      </trkpt>
      <trkpt lat="42.8705220" lon="-8.4383790">
        <ele>378.8</ele>
        <time>2021-03-03T12:17:04Z</time>
      </trkpt>
      <trkpt lat="42.8704940" lon="-8.4383880">
        <ele>378.8</ele>
        <time>2021-03-03T12:17:05Z</time>
      </trkpt>
      <trkpt lat="42.8704670" lon="-8.4383920">
        <ele>378.6</ele>
        <time>2021-03-03T12:17:06Z</time>
      </trkpt>
      <trkpt lat="42.8704450" lon="-8.4383900">
        <ele>378.6</ele>
        <time>2021-03-03T12:17:07Z</time>
      </trkpt>
      <trkpt lat="42.8704220" lon="-8.4383890">
        <ele>378.6</ele>
        <time>2021-03-03T12:17:08Z</time>
      </trkpt>
      <trkpt lat="42.8703980" lon="-8.4383850">
        <ele>378.4</ele>
        <time>2021-03-03T12:17:09Z</time>
      </trkpt>
      <trkpt lat="42.8703760" lon="-8.4383710">
        <ele>378.4</ele>
        <time>2021-03-03T12:17:10Z</time>
      </trkpt>
      <trkpt lat="42.8703550" lon="-8.4383550">
        <ele>378.6</ele>
        <time>2021-03-03T12:17:11Z</time>
      </trkpt>
      <trkpt lat="42.8703320" lon="-8.4383440">
        <ele>378.6</ele>
        <time>2021-03-03T12:17:12Z</time>
      </trkpt>
      <trkpt lat="42.8703090" lon="-8.4383320">
        <ele>378.8</ele>
        <time>2021-03-03T12:17:13Z</time>
      </trkpt>
      <trkpt lat="42.8702830" lon="-8.4383240">
        <ele>379.0</ele>
        <time>2021-03-03T12:17:14Z</time>
      </trkpt>
      <trkpt lat="42.8702520" lon="-8.4383150">
        <ele>379.0</ele>
        <time>2021-03-03T12:17:15Z</time>
      </trkpt>
      <trkpt lat="42.8702220" lon="-8.4383010">
        <ele>379.2</ele>
        <time>2021-03-03T12:17:16Z</time>
      </trkpt>
      <trkpt lat="42.8701960" lon="-8.4382910">
        <ele>379.4</ele>
        <time>2021-03-03T12:17:17Z</time>
      </trkpt>
      <trkpt lat="42.8701710" lon="-8.4382800">
        <ele>379.4</ele>
        <time>2021-03-03T12:17:18Z</time>
      </trkpt>
      <trkpt lat="42.8701540" lon="-8.4382680">
        <ele>379.6</ele>
        <time>2021-03-03T12:17:19Z</time>
      </trkpt>
      <trkpt lat="42.8701230" lon="-8.4382550">
        <ele>379.8</ele>
        <time>2021-03-03T12:17:20Z</time>
      </trkpt>
      <trkpt lat="42.8701010" lon="-8.4382430">
        <ele>380.0</ele>
        <time>2021-03-03T12:17:21Z</time>
      </trkpt>
      <trkpt lat="42.8700630" lon="-8.4382310">
        <ele>380.0</ele>
        <time>2021-03-03T12:17:22Z</time>
      </trkpt>
      <trkpt lat="42.8700260" lon="-8.4382220">
        <ele>380.2</ele>
        <time>2021-03-03T12:17:23Z</time>
      </trkpt>
      <trkpt lat="42.8699930" lon="-8.4382130">
        <ele>380.4</ele>
        <time>2021-03-03T12:17:24Z</time>
      </trkpt>
      <trkpt lat="42.8699530" lon="-8.4382110">
        <ele>380.4</ele>
        <time>2021-03-03T12:17:25Z</time>
      </trkpt>
      <trkpt lat="42.8699180" lon="-8.4382090">
        <ele>380.4</ele>
        <time>2021-03-03T12:17:26Z</time>
      </trkpt>
      <trkpt lat="42.8698890" lon="-8.4382150">
        <ele>380.6</ele>
        <time>2021-03-03T12:17:27Z</time>
      </trkpt>
      <trkpt lat="42.8698550" lon="-8.4382240">
        <ele>380.6</ele>
        <time>2021-03-03T12:17:28Z</time>
      </trkpt>
      <trkpt lat="42.8698230" lon="-8.4382290">
        <ele>380.6</ele>
        <time>2021-03-03T12:17:29Z</time>
      </trkpt>
      <trkpt lat="42.8698010" lon="-8.4382340">
        <ele>380.6</ele>
        <time>2021-03-03T12:17:30Z</time>
      </trkpt>
      <trkpt lat="42.8697670" lon="-8.4382420">
        <ele>380.4</ele>
        <time>2021-03-03T12:17:31Z</time>
      </trkpt>
      <trkpt lat="42.8697330" lon="-8.4382510">
        <ele>380.2</ele>
        <time>2021-03-03T12:17:32Z</time>
      </trkpt>
      <trkpt lat="42.8697030" lon="-8.4382590">
        <ele>380.0</ele>
        <time>2021-03-03T12:17:33Z</time>
      </trkpt>
      <trkpt lat="42.8696770" lon="-8.4382720">
        <ele>380.0</ele>
        <time>2021-03-03T12:17:34Z</time>
      </trkpt>
      <trkpt lat="42.8696570" lon="-8.4382790">
        <ele>379.6</ele>
        <time>2021-03-03T12:17:35Z</time>
      </trkpt>
      <trkpt lat="42.8696260" lon="-8.4382940">
        <ele>379.4</ele>
        <time>2021-03-03T12:17:36Z</time>
      </trkpt>
      <trkpt lat="42.8696040" lon="-8.4383060">
        <ele>379.4</ele>
        <time>2021-03-03T12:17:37Z</time>
      </trkpt>
      <trkpt lat="42.8695800" lon="-8.4383200">
        <ele>379.2</ele>
        <time>2021-03-03T12:17:38Z</time>
      </trkpt>
      <trkpt lat="42.8695620" lon="-8.4383300">
        <ele>379.0</ele>
        <time>2021-03-03T12:17:39Z</time>
      </trkpt>
      <trkpt lat="42.8695360" lon="-8.4383470">
        <ele>378.8</ele>
        <time>2021-03-03T12:17:40Z</time>
      </trkpt>
      <trkpt lat="42.8695170" lon="-8.4383630">
        <ele>378.6</ele>
        <time>2021-03-03T12:17:41Z</time>
      </trkpt>
      <trkpt lat="42.8694830" lon="-8.4383890">
        <ele>378.2</ele>
        <time>2021-03-03T12:17:42Z</time>
      </trkpt>
      <trkpt lat="42.8694550" lon="-8.4384120">
        <ele>378.0</ele>
        <time>2021-03-03T12:17:43Z</time>
      </trkpt>
      <trkpt lat="42.8694350" lon="-8.4384280">
        <ele>377.8</ele>
        <time>2021-03-03T12:17:44Z</time>
      </trkpt>
      <trkpt lat="42.8694120" lon="-8.4384480">
        <ele>377.6</ele>
        <time>2021-03-03T12:17:45Z</time>
      </trkpt>
      <trkpt lat="42.8693840" lon="-8.4384670">
        <ele>377.4</ele>
        <time>2021-03-03T12:17:46Z</time>
      </trkpt>
      <trkpt lat="42.8693660" lon="-8.4384840">
        <ele>377.2</ele>
        <time>2021-03-03T12:17:47Z</time>
      </trkpt>
      <trkpt lat="42.8693340" lon="-8.4384900">
        <ele>377.0</ele>
        <time>2021-03-03T12:17:48Z</time>
      </trkpt>
      <trkpt lat="42.8693150" lon="-8.4385020">
        <ele>376.8</ele>
        <time>2021-03-03T12:17:49Z</time>
      </trkpt>
      <trkpt lat="42.8692880" lon="-8.4385220">
        <ele>376.6</ele>
        <time>2021-03-03T12:17:50Z</time>
      </trkpt>
      <trkpt lat="42.8692710" lon="-8.4385400">
        <ele>376.6</ele>
        <time>2021-03-03T12:17:51Z</time>
      </trkpt>
      <trkpt lat="42.8692510" lon="-8.4385560">
        <ele>376.2</ele>
        <time>2021-03-03T12:17:52Z</time>
      </trkpt>
      <trkpt lat="42.8692270" lon="-8.4385750">
        <ele>376.0</ele>
        <time>2021-03-03T12:17:53Z</time>
      </trkpt>
      <trkpt lat="42.8692030" lon="-8.4385900">
        <ele>376.0</ele>
        <time>2021-03-03T12:17:54Z</time>
      </trkpt>
      <trkpt lat="42.8691740" lon="-8.4386080">
        <ele>375.6</ele>
        <time>2021-03-03T12:17:55Z</time>
      </trkpt>
      <trkpt lat="42.8691490" lon="-8.4386280">
        <ele>375.4</ele>
        <time>2021-03-03T12:17:56Z</time>
      </trkpt>
      <trkpt lat="42.8691160" lon="-8.4386470">
        <ele>375.2</ele>
        <time>2021-03-03T12:17:57Z</time>
      </trkpt>
      <trkpt lat="42.8690870" lon="-8.4386650">
        <ele>375.0</ele>
        <time>2021-03-03T12:17:58Z</time>
      </trkpt>
      <trkpt lat="42.8690680" lon="-8.4386760">
        <ele>374.8</ele>
        <time>2021-03-03T12:17:59Z</time>
      </trkpt>
      <trkpt lat="42.8690440" lon="-8.4386880">
        <ele>374.6</ele>
        <time>2021-03-03T12:18:00Z</time>
      </trkpt>
      <trkpt lat="42.8690190" lon="-8.4386960">
        <ele>374.4</ele>
        <time>2021-03-03T12:18:01Z</time>
      </trkpt>
      <trkpt lat="42.8689790" lon="-8.4387100">
        <ele>374.2</ele>
        <time>2021-03-03T12:18:02Z</time>
      </trkpt>
      <trkpt lat="42.8689420" lon="-8.4387240">
        <ele>373.8</ele>
        <time>2021-03-03T12:18:03Z</time>
      </trkpt>
      <trkpt lat="42.8689140" lon="-8.4387380">
        <ele>373.6</ele>
        <time>2021-03-03T12:18:04Z</time>
      </trkpt>
      <trkpt lat="42.8688880" lon="-8.4387530">
        <ele>373.4</ele>
        <time>2021-03-03T12:18:05Z</time>
      </trkpt>
      <trkpt lat="42.8688630" lon="-8.4387700">
        <ele>372.8</ele>
        <time>2021-03-03T12:18:06Z</time>
      </trkpt>
      <trkpt lat="42.8688360" lon="-8.4387880">
        <ele>372.6</ele>
        <time>2021-03-03T12:18:07Z</time>
      </trkpt>
      <trkpt lat="42.8688040" lon="-8.4388010">
        <ele>372.2</ele>
        <time>2021-03-03T12:18:08Z</time>
      </trkpt>
      <trkpt lat="42.8687780" lon="-8.4388180">
        <ele>372.0</ele>
        <time>2021-03-03T12:18:09Z</time>
      </trkpt>
      <trkpt lat="42.8687480" lon="-8.4388320">
        <ele>371.6</ele>
        <time>2021-03-03T12:18:10Z</time>
      </trkpt>
      <trkpt lat="42.8687270" lon="-8.4388410">
        <ele>371.2</ele>
        <time>2021-03-03T12:18:11Z</time>
      </trkpt>
      <trkpt lat="42.8686900" lon="-8.4388510">
        <ele>370.8</ele>
        <time>2021-03-03T12:18:12Z</time>
      </trkpt>
      <trkpt lat="42.8686560" lon="-8.4388500">
        <ele>370.2</ele>
        <time>2021-03-03T12:18:13Z</time>
      </trkpt>
      <trkpt lat="42.8686220" lon="-8.4388490">
        <ele>369.8</ele>
        <time>2021-03-03T12:18:14Z</time>
      </trkpt>
      <trkpt lat="42.8685930" lon="-8.4388470">
        <ele>369.4</ele>
        <time>2021-03-03T12:18:15Z</time>
      </trkpt>
      <trkpt lat="42.8685620" lon="-8.4388540">
        <ele>368.6</ele>
        <time>2021-03-03T12:18:16Z</time>
      </trkpt>
      <trkpt lat="42.8685330" lon="-8.4388580">
        <ele>368.0</ele>
        <time>2021-03-03T12:18:17Z</time>
      </trkpt>
      <trkpt lat="42.8685010" lon="-8.4388570">
        <ele>367.4</ele>
        <time>2021-03-03T12:18:18Z</time>
      </trkpt>
      <trkpt lat="42.8684770" lon="-8.4388610">
        <ele>367.0</ele>
        <time>2021-03-03T12:18:19Z</time>
      </trkpt>
      <trkpt lat="42.8684550" lon="-8.4388680">
        <ele>366.6</ele>
        <time>2021-03-03T12:18:20Z</time>
      </trkpt>
      <trkpt lat="42.8684240" lon="-8.4388700">
        <ele>366.0</ele>
        <time>2021-03-03T12:18:21Z</time>
      </trkpt>
      <trkpt lat="42.8683920" lon="-8.4388570">
        <ele>365.8</ele>
        <time>2021-03-03T12:18:22Z</time>
      </trkpt>
      <trkpt lat="42.8683480" lon="-8.4388430">
        <ele>365.4</ele>
        <time>2021-03-03T12:18:23Z</time>
      </trkpt>
      <trkpt lat="42.8683110" lon="-8.4388420">
        <ele>365.0</ele>
        <time>2021-03-03T12:18:24Z</time>
      </trkpt>
      <trkpt lat="42.8682890" lon="-8.4388470">
        <ele>364.6</ele>
        <time>2021-03-03T12:18:25Z</time>
      </trkpt>
      <trkpt lat="42.8682630" lon="-8.4388480">
        <ele>364.2</ele>
        <time>2021-03-03T12:18:26Z</time>
      </trkpt>
      <trkpt lat="42.8682360" lon="-8.4388470">
        <ele>363.8</ele>
        <time>2021-03-03T12:18:27Z</time>
      </trkpt>
      <trkpt lat="42.8681970" lon="-8.4388470">
        <ele>363.6</ele>
        <time>2021-03-03T12:18:28Z</time>
      </trkpt>
      <trkpt lat="42.8681660" lon="-8.4388480">
        <ele>363.2</ele>
        <time>2021-03-03T12:18:29Z</time>
      </trkpt>
      <trkpt lat="42.8681380" lon="-8.4388510">
        <ele>363.0</ele>
        <time>2021-03-03T12:18:30Z</time>
      </trkpt>
      <trkpt lat="42.8681140" lon="-8.4388520">
        <ele>362.6</ele>
        <time>2021-03-03T12:18:31Z</time>
      </trkpt>
      <trkpt lat="42.8680790" lon="-8.4388520">
        <ele>362.2</ele>
        <time>2021-03-03T12:18:32Z</time>
      </trkpt>
      <trkpt lat="42.8680400" lon="-8.4388520">
        <ele>362.0</ele>
        <time>2021-03-03T12:18:33Z</time>
      </trkpt>
      <trkpt lat="42.8680060" lon="-8.4388540">
        <ele>361.8</ele>
        <time>2021-03-03T12:18:34Z</time>
      </trkpt>
      <trkpt lat="42.8679790" lon="-8.4388610">
        <ele>361.4</ele>
        <time>2021-03-03T12:18:35Z</time>
      </trkpt>
      <trkpt lat="42.8679500" lon="-8.4388670">
        <ele>361.0</ele>
        <time>2021-03-03T12:18:36Z</time>
      </trkpt>
      <trkpt lat="42.8679090" lon="-8.4388840">
        <ele>360.6</ele>
        <time>2021-03-03T12:18:37Z</time>
      </trkpt>
      <trkpt lat="42.8678740" lon="-8.4388990">
        <ele>360.0</ele>
        <time>2021-03-03T12:18:38Z</time>
      </trkpt>
      <trkpt lat="42.8678410" lon="-8.4389200">
        <ele>359.8</ele>
        <time>2021-03-03T12:18:39Z</time>
      </trkpt>
      <trkpt lat="42.8678160" lon="-8.4389320">
        <ele>359.4</ele>
        <time>2021-03-03T12:18:40Z</time>
      </trkpt>
      <trkpt lat="42.8677890" lon="-8.4389360">
        <ele>359.2</ele>
        <time>2021-03-03T12:18:41Z</time>
      </trkpt>
      <trkpt lat="42.8677490" lon="-8.4389430">
        <ele>359.2</ele>
        <time>2021-03-03T12:18:42Z</time>
      </trkpt>
      <trkpt lat="42.8677190" lon="-8.4389460">
        <ele>358.8</ele>
        <time>2021-03-03T12:18:43Z</time>
      </trkpt>
      <trkpt lat="42.8676810" lon="-8.4389530">
        <ele>358.6</ele>
        <time>2021-03-03T12:18:44Z</time>
      </trkpt>
      <trkpt lat="42.8676440" lon="-8.4389660">
        <ele>358.4</ele>
        <time>2021-03-03T12:18:45Z</time>
      </trkpt>
      <trkpt lat="42.8676130" lon="-8.4389740">
        <ele>358.2</ele>
        <time>2021-03-03T12:18:46Z</time>
      </trkpt>
      <trkpt lat="42.8675740" lon="-8.4389820">
        <ele>357.8</ele>
        <time>2021-03-03T12:18:47Z</time>
      </trkpt>
      <trkpt lat="42.8675440" lon="-8.4389920">
        <ele>357.4</ele>
        <time>2021-03-03T12:18:48Z</time>
      </trkpt>
      <trkpt lat="42.8675140" lon="-8.4390030">
        <ele>357.2</ele>
        <time>2021-03-03T12:18:49Z</time>
      </trkpt>
      <trkpt lat="42.8674750" lon="-8.4390080">
        <ele>357.0</ele>
        <time>2021-03-03T12:18:50Z</time>
      </trkpt>
      <trkpt lat="42.8674460" lon="-8.4390080">
        <ele>356.8</ele>
        <time>2021-03-03T12:18:51Z</time>
      </trkpt>
      <trkpt lat="42.8674100" lon="-8.4390100">
        <ele>356.8</ele>
        <time>2021-03-03T12:18:52Z</time>
      </trkpt>
      <trkpt lat="42.8673770" lon="-8.4390120">
        <ele>356.4</ele>
        <time>2021-03-03T12:18:53Z</time>
      </trkpt>
      <trkpt lat="42.8673440" lon="-8.4390110">
        <ele>355.8</ele>
        <time>2021-03-03T12:18:54Z</time>
      </trkpt>
      <trkpt lat="42.8673220" lon="-8.4390120">
        <ele>355.6</ele>
        <time>2021-03-03T12:18:55Z</time>
      </trkpt>
      <trkpt lat="42.8672880" lon="-8.4390090">
        <ele>355.4</ele>
        <time>2021-03-03T12:18:56Z</time>
      </trkpt>
      <trkpt lat="42.8672470" lon="-8.4390190">
        <ele>355.2</ele>
        <time>2021-03-03T12:18:57Z</time>
      </trkpt>
      <trkpt lat="42.8672030" lon="-8.4390230">
        <ele>355.0</ele>
        <time>2021-03-03T12:18:58Z</time>
      </trkpt>
      <trkpt lat="42.8671740" lon="-8.4390230">
        <ele>355.0</ele>
        <time>2021-03-03T12:18:59Z</time>
      </trkpt>
      <trkpt lat="42.8671370" lon="-8.4390250">
        <ele>354.8</ele>
        <time>2021-03-03T12:19:00Z</time>
      </trkpt>
      <trkpt lat="42.8671130" lon="-8.4390250">
        <ele>354.8</ele>
        <time>2021-03-03T12:19:01Z</time>
      </trkpt>
      <trkpt lat="42.8670860" lon="-8.4390200">
        <ele>354.6</ele>
        <time>2021-03-03T12:19:02Z</time>
      </trkpt>
      <trkpt lat="42.8670500" lon="-8.4390210">
        <ele>354.4</ele>
        <time>2021-03-03T12:19:03Z</time>
      </trkpt>
      <trkpt lat="42.8670160" lon="-8.4390240">
        <ele>354.2</ele>
        <time>2021-03-03T12:19:04Z</time>
      </trkpt>
      <trkpt lat="42.8669910" lon="-8.4390280">
        <ele>353.8</ele>
        <time>2021-03-03T12:19:05Z</time>
      </trkpt>
      <trkpt lat="42.8669590" lon="-8.4390280">
        <ele>353.6</ele>
        <time>2021-03-03T12:19:06Z</time>
      </trkpt>
      <trkpt lat="42.8669310" lon="-8.4390290">
        <ele>353.4</ele>
        <time>2021-03-03T12:19:07Z</time>
      </trkpt>
      <trkpt lat="42.8669010" lon="-8.4390240">
        <ele>352.8</ele>
        <time>2021-03-03T12:19:08Z</time>
      </trkpt>
      <trkpt lat="42.8668630" lon="-8.4390190">
        <ele>352.4</ele>
        <time>2021-03-03T12:19:09Z</time>
      </trkpt>
      <trkpt lat="42.8668280" lon="-8.4390130">
        <ele>352.0</ele>
        <time>2021-03-03T12:19:10Z</time>
      </trkpt>
      <trkpt lat="42.8668000" lon="-8.4390030">
        <ele>351.8</ele>
        <time>2021-03-03T12:19:11Z</time>
      </trkpt>
      <trkpt lat="42.8667680" lon="-8.4389940">
        <ele>351.2</ele>
        <time>2021-03-03T12:19:12Z</time>
      </trkpt>
      <trkpt lat="42.8667320" lon="-8.4389820">
        <ele>350.8</ele>
        <time>2021-03-03T12:19:13Z</time>
      </trkpt>
      <trkpt lat="42.8667020" lon="-8.4389670">
        <ele>350.4</ele>
        <time>2021-03-03T12:19:14Z</time>
      </trkpt>
      <trkpt lat="42.8666790" lon="-8.4389550">
        <ele>349.8</ele>
        <time>2021-03-03T12:19:15Z</time>
      </trkpt>
      <trkpt lat="42.8666530" lon="-8.4389410">
        <ele>349.4</ele>
        <time>2021-03-03T12:19:16Z</time>
      </trkpt>
      <trkpt lat="42.8666280" lon="-8.4389260">
        <ele>349.0</ele>
        <time>2021-03-03T12:19:17Z</time>
      </trkpt>
      <trkpt lat="42.8666020" lon="-8.4389120">
        <ele>348.6</ele>
        <time>2021-03-03T12:19:18Z</time>
      </trkpt>
      <trkpt lat="42.8665760" lon="-8.4388980">
        <ele>348.4</ele>
        <time>2021-03-03T12:19:19Z</time>
      </trkpt>
      <trkpt lat="42.8665510" lon="-8.4388780">
        <ele>347.8</ele>
        <time>2021-03-03T12:19:20Z</time>
      </trkpt>
      <trkpt lat="42.8665270" lon="-8.4388540">
        <ele>347.2</ele>
        <time>2021-03-03T12:19:21Z</time>
      </trkpt>
      <trkpt lat="42.8665040" lon="-8.4388270">
        <ele>346.8</ele>
        <time>2021-03-03T12:19:22Z</time>
      </trkpt>
      <trkpt lat="42.8665040" lon="-8.4388270">
        <ele>346.2</ele>
        <time>2021-03-03T12:19:23Z</time>
      </trkpt>
      <trkpt lat="42.8664660" lon="-8.4387680">
        <ele>345.8</ele>
        <time>2021-03-03T12:19:24Z</time>
      </trkpt>
      <trkpt lat="42.8664480" lon="-8.4387360">
        <ele>345.6</ele>
        <time>2021-03-03T12:19:25Z</time>
      </trkpt>
      <trkpt lat="42.8664480" lon="-8.4387360">
        <ele>345.0</ele>
        <time>2021-03-03T12:19:26Z</time>
      </trkpt>
      <trkpt lat="42.8664070" lon="-8.4386970">
        <ele>344.6</ele>
        <time>2021-03-03T12:19:27Z</time>
      </trkpt>
      <trkpt lat="42.8663880" lon="-8.4387070">
        <ele>344.2</ele>
        <time>2021-03-03T12:19:28Z</time>
      </trkpt>
      <trkpt lat="42.8663730" lon="-8.4387320">
        <ele>344.0</ele>
        <time>2021-03-03T12:19:29Z</time>
      </trkpt>
      <trkpt lat="42.8663620" lon="-8.4387600">
        <ele>343.8</ele>
        <time>2021-03-03T12:19:30Z</time>
      </trkpt>
      <trkpt lat="42.8663550" lon="-8.4387840">
        <ele>343.6</ele>
        <time>2021-03-03T12:19:31Z</time>
      </trkpt>
      <trkpt lat="42.8663450" lon="-8.4388100">
        <ele>343.6</ele>
        <time>2021-03-03T12:19:32Z</time>
      </trkpt>
      <trkpt lat="42.8663360" lon="-8.4388280">
        <ele>343.4</ele>
        <time>2021-03-03T12:19:33Z</time>
      </trkpt>
      <trkpt lat="42.8663300" lon="-8.4388460">
        <ele>343.4</ele>
        <time>2021-03-03T12:19:34Z</time>
      </trkpt>
      <trkpt lat="42.8663240" lon="-8.4388610">
        <ele>343.4</ele>
        <time>2021-03-03T12:19:35Z</time>
      </trkpt>
      <trkpt lat="42.8663210" lon="-8.4388760">
        <ele>343.4</ele>
        <time>2021-03-03T12:19:36Z</time>
      </trkpt>
      <trkpt lat="42.8663190" lon="-8.4388890">
        <ele>343.6</ele>
        <time>2021-03-03T12:19:37Z</time>
      </trkpt>
      <trkpt lat="42.8663180" lon="-8.4389040">
        <ele>343.8</ele>
        <time>2021-03-03T12:19:38Z</time>
      </trkpt>
      <trkpt lat="42.8663180" lon="-8.4389210">
        <ele>344.0</ele>
        <time>2021-03-03T12:19:39Z</time>
      </trkpt>
      <trkpt lat="42.8663150" lon="-8.4389360">
        <ele>344.0</ele>
        <time>2021-03-03T12:19:40Z</time>
      </trkpt>
      <trkpt lat="42.8663090" lon="-8.4389520">
        <ele>344.0</ele>
        <time>2021-03-03T12:19:41Z</time>
      </trkpt>
      <trkpt lat="42.8663050" lon="-8.4389680">
        <ele>344.0</ele>
        <time>2021-03-03T12:19:42Z</time>
      </trkpt>
      <trkpt lat="42.8663030" lon="-8.4389840">
        <ele>344.2</ele>
        <time>2021-03-03T12:19:43Z</time>
      </trkpt>
      <trkpt lat="42.8663000" lon="-8.4389990">
        <ele>344.2</ele>
        <time>2021-03-03T12:19:44Z</time>
      </trkpt>
      <trkpt lat="42.8662940" lon="-8.4390130">
        <ele>344.4</ele>
        <time>2021-03-03T12:19:45Z</time>
      </trkpt>
      <trkpt lat="42.8662900" lon="-8.4390320">
        <ele>344.6</ele>
        <time>2021-03-03T12:19:46Z</time>
      </trkpt>
      <trkpt lat="42.8662890" lon="-8.4390450">
        <ele>344.6</ele>
        <time>2021-03-03T12:19:47Z</time>
      </trkpt>
      <trkpt lat="42.8662840" lon="-8.4390600">
        <ele>344.8</ele>
        <time>2021-03-03T12:19:48Z</time>
      </trkpt>
      <trkpt lat="42.8662780" lon="-8.4390760">
        <ele>345.0</ele>
        <time>2021-03-03T12:19:49Z</time>
      </trkpt>
      <trkpt lat="42.8662740" lon="-8.4390930">
        <ele>345.2</ele>
        <time>2021-03-03T12:19:50Z</time>
      </trkpt>
      <trkpt lat="42.8662690" lon="-8.4391100">
        <ele>345.4</ele>
        <time>2021-03-03T12:19:51Z</time>
      </trkpt>
      <trkpt lat="42.8662690" lon="-8.4391100">
        <ele>345.6</ele>
        <time>2021-03-03T12:19:52Z</time>
      </trkpt>
      <trkpt lat="42.8662600" lon="-8.4391430">
        <ele>345.6</ele>
        <time>2021-03-03T12:19:53Z</time>
      </trkpt>
      <trkpt lat="42.8662540" lon="-8.4391620">
        <ele>345.8</ele>
        <time>2021-03-03T12:19:54Z</time>
      </trkpt>
      <trkpt lat="42.8662510" lon="-8.4391830">
        <ele>346.2</ele>
        <time>2021-03-03T12:19:55Z</time>
      </trkpt>
      <trkpt lat="42.8662480" lon="-8.4392010">
        <ele>346.6</ele>
        <time>2021-03-03T12:19:56Z</time>
      </trkpt>
      <trkpt lat="42.8662470" lon="-8.4392240">
        <ele>346.8</ele>
        <time>2021-03-03T12:19:57Z</time>
      </trkpt>
      <trkpt lat="42.8662440" lon="-8.4392440">
        <ele>347.0</ele>
        <time>2021-03-03T12:19:58Z</time>
      </trkpt>
      <trkpt lat="42.8662380" lon="-8.4392560">
        <ele>347.0</ele>
        <time>2021-03-03T12:19:59Z</time>
      </trkpt>
      <trkpt lat="42.8662330" lon="-8.4392690">
        <ele>347.4</ele>
        <time>2021-03-03T12:20:00Z</time>
      </trkpt>
      <trkpt lat="42.8662300" lon="-8.4392800">
        <ele>347.6</ele>
        <time>2021-03-03T12:20:01Z</time>
      </trkpt>
      <trkpt lat="42.8662310" lon="-8.4392930">
        <ele>347.8</ele>
        <time>2021-03-03T12:20:02Z</time>
      </trkpt>
      <trkpt lat="42.8662370" lon="-8.4393050">
        <ele>348.0</ele>
        <time>2021-03-03T12:20:03Z</time>
      </trkpt>
      <trkpt lat="42.8662400" lon="-8.4393210">
        <ele>348.0</ele>
        <time>2021-03-03T12:20:04Z</time>
      </trkpt>
      <trkpt lat="42.8662260" lon="-8.4393460">
        <ele>348.2</ele>
        <time>2021-03-03T12:20:05Z</time>
      </trkpt>
      <trkpt lat="42.8662140" lon="-8.4393630">
        <ele>348.4</ele>
        <time>2021-03-03T12:20:06Z</time>
      </trkpt>
      <trkpt lat="42.8662010" lon="-8.4393810">
        <ele>348.6</ele>
        <time>2021-03-03T12:20:07Z</time>
      </trkpt>
      <trkpt lat="42.8661880" lon="-8.4393940">
        <ele>349.0</ele>
        <time>2021-03-03T12:20:08Z</time>
      </trkpt>
      <trkpt lat="42.8661820" lon="-8.4394060">
        <ele>349.0</ele>
        <time>2021-03-03T12:20:09Z</time>
      </trkpt>
      <trkpt lat="42.8661700" lon="-8.4394260">
        <ele>349.2</ele>
        <time>2021-03-03T12:20:10Z</time>
      </trkpt>
      <trkpt lat="42.8661660" lon="-8.4394470">
        <ele>349.4</ele>
        <time>2021-03-03T12:20:11Z</time>
      </trkpt>
      <trkpt lat="42.8661600" lon="-8.4394660">
        <ele>349.4</ele>
        <time>2021-03-03T12:20:12Z</time>
      </trkpt>
      <trkpt lat="42.8661570" lon="-8.4394780">
        <ele>349.6</ele>
        <time>2021-03-03T12:20:13Z</time>
      </trkpt>
      <trkpt lat="42.8661530" lon="-8.4394890">
        <ele>349.8</ele>
        <time>2021-03-03T12:20:14Z</time>
      </trkpt>
      <trkpt lat="42.8661490" lon="-8.4395010">
        <ele>349.8</ele>
        <time>2021-03-03T12:20:15Z</time>
      </trkpt>
      <trkpt lat="42.8661430" lon="-8.4395110">
        <ele>350.0</ele>
        <time>2021-03-03T12:20:16Z</time>
      </trkpt>
      <trkpt lat="42.8661390" lon="-8.4395190">
        <ele>350.2</ele>
        <time>2021-03-03T12:20:17Z</time>
      </trkpt>
      <trkpt lat="42.8661370" lon="-8.4395320">
        <ele>350.2</ele>
        <time>2021-03-03T12:20:18Z</time>
      </trkpt>
      <trkpt lat="42.8661320" lon="-8.4395460">
        <ele>350.4</ele>
        <time>2021-03-03T12:20:19Z</time>
      </trkpt>
      <trkpt lat="42.8661280" lon="-8.4395590">
        <ele>350.4</ele>
        <time>2021-03-03T12:20:20Z</time>
      </trkpt>
      <trkpt lat="42.8661270" lon="-8.4395740">
        <ele>350.6</ele>
        <time>2021-03-03T12:20:21Z</time>
      </trkpt>
      <trkpt lat="42.8661210" lon="-8.4395860">
        <ele>350.8</ele>
        <time>2021-03-03T12:20:22Z</time>
      </trkpt>
      <trkpt lat="42.8661160" lon="-8.4395950">
        <ele>351.0</ele>
        <time>2021-03-03T12:20:23Z</time>
      </trkpt>
      <trkpt lat="42.8661120" lon="-8.4396070">
        <ele>351.2</ele>
        <time>2021-03-03T12:20:24Z</time>
      </trkpt>
      <trkpt lat="42.8661090" lon="-8.4396150">
        <ele>351.4</ele>
        <time>2021-03-03T12:20:25Z</time>
      </trkpt>
      <trkpt lat="42.8661080" lon="-8.4396270">
        <ele>351.8</ele>
        <time>2021-03-03T12:20:26Z</time>
      </trkpt>
      <trkpt lat="42.8661080" lon="-8.4396270">
        <ele>352.2</ele>
        <time>2021-03-03T12:20:27Z</time>
      </trkpt>
      <trkpt lat="42.8661070" lon="-8.4396580">
        <ele>352.4</ele>
        <time>2021-03-03T12:20:28Z</time>
      </trkpt>
      <trkpt lat="42.8661030" lon="-8.4396680">
        <ele>352.6</ele>
        <time>2021-03-03T12:20:29Z</time>
      </trkpt>
      <trkpt lat="42.8661030" lon="-8.4396680">
        <ele>352.6</ele>
        <time>2021-03-03T12:20:30Z</time>
      </trkpt>
      <trkpt lat="42.8660990" lon="-8.4396950">
        <ele>352.8</ele>
        <time>2021-03-03T12:20:31Z</time>
      </trkpt>
      <trkpt lat="42.8660960" lon="-8.4397090">
        <ele>353.0</ele>
        <time>2021-03-03T12:20:32Z</time>
      </trkpt>
      <trkpt lat="42.8660910" lon="-8.4397240">
        <ele>353.2</ele>
        <time>2021-03-03T12:20:33Z</time>
      </trkpt>
      <trkpt lat="42.8660910" lon="-8.4397380">
        <ele>353.6</ele>
        <time>2021-03-03T12:20:34Z</time>
      </trkpt>
      <trkpt lat="42.8660890" lon="-8.4397540">
        <ele>353.6</ele>
        <time>2021-03-03T12:20:35Z</time>
      </trkpt>
      <trkpt lat="42.8660850" lon="-8.4397710">
        <ele>354.0</ele>
        <time>2021-03-03T12:20:36Z</time>
      </trkpt>
      <trkpt lat="42.8660810" lon="-8.4397900">
        <ele>354.2</ele>
        <time>2021-03-03T12:20:37Z</time>
      </trkpt>
      <trkpt lat="42.8660800" lon="-8.4398060">
        <ele>354.4</ele>
        <time>2021-03-03T12:20:38Z</time>
      </trkpt>
      <trkpt lat="42.8660800" lon="-8.4398060">
        <ele>354.6</ele>
        <time>2021-03-03T12:20:39Z</time>
      </trkpt>
      <trkpt lat="42.8660750" lon="-8.4398290">
        <ele>354.8</ele>
        <time>2021-03-03T12:20:40Z</time>
      </trkpt>
      <trkpt lat="42.8660690" lon="-8.4398400">
        <ele>354.8</ele>
        <time>2021-03-03T12:20:41Z</time>
      </trkpt>
      <trkpt lat="42.8660690" lon="-8.4398510">
        <ele>354.8</ele>
        <time>2021-03-03T12:20:42Z</time>
      </trkpt>
      <trkpt lat="42.8660690" lon="-8.4398620">
        <ele>355.0</ele>
        <time>2021-03-03T12:20:43Z</time>
      </trkpt>
      <trkpt lat="42.8660670" lon="-8.4398700">
        <ele>355.2</ele>
        <time>2021-03-03T12:20:44Z</time>
      </trkpt>
      <trkpt lat="42.8660590" lon="-8.4398710">
        <ele>355.4</ele>
        <time>2021-03-03T12:20:45Z</time>
      </trkpt>
      <trkpt lat="42.8660510" lon="-8.4398740">
        <ele>355.4</ele>
        <time>2021-03-03T12:20:46Z</time>
      </trkpt>
      <trkpt lat="42.8660460" lon="-8.4398830">
        <ele>355.6</ele>
        <time>2021-03-03T12:20:47Z</time>
      </trkpt>
      <trkpt lat="42.8660390" lon="-8.4398940">
        <ele>355.8</ele>
        <time>2021-03-03T12:20:48Z</time>
      </trkpt>
      <trkpt lat="42.8660310" lon="-8.4399030">
        <ele>356.0</ele>
        <time>2021-03-03T12:20:49Z</time>
      </trkpt>
      <trkpt lat="42.8660220" lon="-8.4399090">
        <ele>356.0</ele>
        <time>2021-03-03T12:20:50Z</time>
      </trkpt>
      <trkpt lat="42.8660110" lon="-8.4399230">
        <ele>356.2</ele>
        <time>2021-03-03T12:20:51Z</time>
      </trkpt>
      <trkpt lat="42.8659950" lon="-8.4399420">
        <ele>356.4</ele>
        <time>2021-03-03T12:20:52Z</time>
      </trkpt>
      <trkpt lat="42.8659850" lon="-8.4399620">
        <ele>356.6</ele>
        <time>2021-03-03T12:20:53Z</time>
      </trkpt>
      <trkpt lat="42.8659710" lon="-8.4399840">
        <ele>356.8</ele>
        <time>2021-03-03T12:20:54Z</time>
      </trkpt>
      <trkpt lat="42.8659600" lon="-8.4399910">
        <ele>357.0</ele>
        <time>2021-03-03T12:20:55Z</time>
      </trkpt>
      <trkpt lat="42.8659490" lon="-8.4400010">
        <ele>357.2</ele>
        <time>2021-03-03T12:20:56Z</time>
      </trkpt>
      <trkpt lat="42.8659350" lon="-8.4400130">
        <ele>357.4</ele>
        <time>2021-03-03T12:20:57Z</time>
      </trkpt>
      <trkpt lat="42.8659220" lon="-8.4400280">
        <ele>357.4</ele>
        <time>2021-03-03T12:20:58Z</time>
      </trkpt>
      <trkpt lat="42.8659120" lon="-8.4400490">
        <ele>357.6</ele>
        <time>2021-03-03T12:20:59Z</time>
      </trkpt>
      <trkpt lat="42.8659030" lon="-8.4400680">
        <ele>357.6</ele>
        <time>2021-03-03T12:21:00Z</time>
      </trkpt>
      <trkpt lat="42.8658910" lon="-8.4400930">
        <ele>357.8</ele>
        <time>2021-03-03T12:21:01Z</time>
      </trkpt>
      <trkpt lat="42.8658800" lon="-8.4401070">
        <ele>358.0</ele>
        <time>2021-03-03T12:21:02Z</time>
      </trkpt>
      <trkpt lat="42.8658700" lon="-8.4401230">
        <ele>358.2</ele>
        <time>2021-03-03T12:21:03Z</time>
      </trkpt>
      <trkpt lat="42.8658580" lon="-8.4401320">
        <ele>358.4</ele>
        <time>2021-03-03T12:21:04Z</time>
      </trkpt>
      <trkpt lat="42.8658510" lon="-8.4401450">
        <ele>358.4</ele>
        <time>2021-03-03T12:21:05Z</time>
      </trkpt>
      <trkpt lat="42.8658490" lon="-8.4401620">
        <ele>358.6</ele>
        <time>2021-03-03T12:21:06Z</time>
      </trkpt>
      <trkpt lat="42.8658490" lon="-8.4401790">
        <ele>358.6</ele>
        <time>2021-03-03T12:21:07Z</time>
      </trkpt>
      <trkpt lat="42.8658510" lon="-8.4401930">
        <ele>358.6</ele>
        <time>2021-03-03T12:21:08Z</time>
      </trkpt>
      <trkpt lat="42.8658520" lon="-8.4402070">
        <ele>358.8</ele>
        <time>2021-03-03T12:21:09Z</time>
      </trkpt>
      <trkpt lat="42.8658420" lon="-8.4402320">
        <ele>359.0</ele>
        <time>2021-03-03T12:21:10Z</time>
      </trkpt>
      <trkpt lat="42.8658300" lon="-8.4402430">
        <ele>359.0</ele>
        <time>2021-03-03T12:21:11Z</time>
      </trkpt>
      <trkpt lat="42.8658190" lon="-8.4402480">
        <ele>359.2</ele>
        <time>2021-03-03T12:21:12Z</time>
      </trkpt>
      <trkpt lat="42.8658130" lon="-8.4402560">
        <ele>359.2</ele>
        <time>2021-03-03T12:21:13Z</time>
      </trkpt>
      <trkpt lat="42.8658130" lon="-8.4402680">
        <ele>359.2</ele>
        <time>2021-03-03T12:21:14Z</time>
      </trkpt>
      <trkpt lat="42.8658120" lon="-8.4402860">
        <ele>359.2</ele>
        <time>2021-03-03T12:21:15Z</time>
      </trkpt>
      <trkpt lat="42.8658180" lon="-8.4402980">
        <ele>359.2</ele>
        <time>2021-03-03T12:21:16Z</time>
      </trkpt>
      <trkpt lat="42.8658170" lon="-8.4403110">
        <ele>359.4</ele>
        <time>2021-03-03T12:21:17Z</time>
      </trkpt>
      <trkpt lat="42.8658150" lon="-8.4403210">
        <ele>359.6</ele>
        <time>2021-03-03T12:21:18Z</time>
      </trkpt>
      <trkpt lat="42.8658130" lon="-8.4403310">
        <ele>359.6</ele>
        <time>2021-03-03T12:21:19Z</time>
      </trkpt>
      <trkpt lat="42.8658080" lon="-8.4403400">
        <ele>359.8</ele>
        <time>2021-03-03T12:21:20Z</time>
      </trkpt>
      <trkpt lat="42.8658050" lon="-8.4403520">
        <ele>359.8</ele>
        <time>2021-03-03T12:21:21Z</time>
      </trkpt>
      <trkpt lat="42.8658010" lon="-8.4403540">
        <ele>360.0</ele>
        <time>2021-03-03T12:21:22Z</time>
      </trkpt>
      <trkpt lat="42.8657990" lon="-8.4403550">
        <ele>360.0</ele>
        <time>2021-03-03T12:21:23Z</time>
      </trkpt>
      <trkpt lat="42.8657930" lon="-8.4403550">
        <ele>360.2</ele>
        <time>2021-03-03T12:21:24Z</time>
      </trkpt>
      <trkpt lat="42.8657880" lon="-8.4403560">
        <ele>360.2</ele>
        <time>2021-03-03T12:21:25Z</time>
      </trkpt>
      <trkpt lat="42.8657840" lon="-8.4403580">
        <ele>360.2</ele>
        <time>2021-03-03T12:21:26Z</time>
      </trkpt>
      <trkpt lat="42.8657780" lon="-8.4403630">
        <ele>360.2</ele>
        <time>2021-03-03T12:21:27Z</time>
      </trkpt>
      <trkpt lat="42.8657690" lon="-8.4403720">
        <ele>360.2</ele>
        <time>2021-03-03T12:21:28Z</time>
      </trkpt>
      <trkpt lat="42.8657600" lon="-8.4403810">
        <ele>360.2</ele>
        <time>2021-03-03T12:21:29Z</time>
      </trkpt>
      <trkpt lat="42.8657540" lon="-8.4403940">
        <ele>360.2</ele>
        <time>2021-03-03T12:21:30Z</time>
      </trkpt>
      <trkpt lat="42.8657470" lon="-8.4404090">
        <ele>360.4</ele>
        <time>2021-03-03T12:21:31Z</time>
      </trkpt>
      <trkpt lat="42.8657400" lon="-8.4404240">
        <ele>360.6</ele>
        <time>2021-03-03T12:21:32Z</time>
      </trkpt>
      <trkpt lat="42.8657350" lon="-8.4404350">
        <ele>360.6</ele>
        <time>2021-03-03T12:21:33Z</time>
      </trkpt>
      <trkpt lat="42.8657320" lon="-8.4404440">
        <ele>360.6</ele>
        <time>2021-03-03T12:21:34Z</time>
      </trkpt>
      <trkpt lat="42.8657240" lon="-8.4404530">
        <ele>360.8</ele>
        <time>2021-03-03T12:21:35Z</time>
      </trkpt>
      <trkpt lat="42.8657180" lon="-8.4404630">
        <ele>360.8</ele>
        <time>2021-03-03T12:21:36Z</time>
      </trkpt>
      <trkpt lat="42.8657110" lon="-8.4404750">
        <ele>360.8</ele>
        <time>2021-03-03T12:21:37Z</time>
      </trkpt>
      <trkpt lat="42.8657020" lon="-8.4404900">
        <ele>360.8</ele>
        <time>2021-03-03T12:21:38Z</time>
      </trkpt>
      <trkpt lat="42.8656920" lon="-8.4405070">
        <ele>361.0</ele>
        <time>2021-03-03T12:21:39Z</time>
      </trkpt>
      <trkpt lat="42.8656870" lon="-8.4405270">
        <ele>361.0</ele>
        <time>2021-03-03T12:21:40Z</time>
      </trkpt>
      <trkpt lat="42.8656820" lon="-8.4405490">
        <ele>361.2</ele>
        <time>2021-03-03T12:21:41Z</time>
      </trkpt>
      <trkpt lat="42.8656740" lon="-8.4405690">
        <ele>361.2</ele>
        <time>2021-03-03T12:21:42Z</time>
      </trkpt>
      <trkpt lat="42.8656670" lon="-8.4405900">
        <ele>361.2</ele>
        <time>2021-03-03T12:21:43Z</time>
      </trkpt>
      <trkpt lat="42.8656610" lon="-8.4406130">
        <ele>361.4</ele>
        <time>2021-03-03T12:21:44Z</time>
      </trkpt>
      <trkpt lat="42.8656520" lon="-8.4406370">
        <ele>361.4</ele>
        <time>2021-03-03T12:21:45Z</time>
      </trkpt>
      <trkpt lat="42.8656440" lon="-8.4406620">
        <ele>361.4</ele>
        <time>2021-03-03T12:21:46Z</time>
      </trkpt>
      <trkpt lat="42.8656400" lon="-8.4406850">
        <ele>361.4</ele>
        <time>2021-03-03T12:21:47Z</time>
      </trkpt>
      <trkpt lat="42.8656330" lon="-8.4407090">
        <ele>361.6</ele>
        <time>2021-03-03T12:21:48Z</time>
      </trkpt>
      <trkpt lat="42.8656240" lon="-8.4407310">
        <ele>361.6</ele>
        <time>2021-03-03T12:21:49Z</time>
      </trkpt>
      <trkpt lat="42.8656180" lon="-8.4407490">
        <ele>361.8</ele>
        <time>2021-03-03T12:21:50Z</time>
      </trkpt>
      <trkpt lat="42.8656110" lon="-8.4407750">
        <ele>362.0</ele>
        <time>2021-03-03T12:21:51Z</time>
      </trkpt>
      <trkpt lat="42.8656000" lon="-8.4407980">
        <ele>362.0</ele>
        <time>2021-03-03T12:21:52Z</time>
      </trkpt>
      <trkpt lat="42.8655890" lon="-8.4408160">
        <ele>362.2</ele>
        <time>2021-03-03T12:21:53Z</time>
      </trkpt>
      <trkpt lat="42.8655800" lon="-8.4408390">
        <ele>362.4</ele>
        <time>2021-03-03T12:21:54Z</time>
      </trkpt>
      <trkpt lat="42.8655740" lon="-8.4408660">
        <ele>362.6</ele>
        <time>2021-03-03T12:21:55Z</time>
      </trkpt>
      <trkpt lat="42.8655650" lon="-8.4408930">
        <ele>362.8</ele>
        <time>2021-03-03T12:21:56Z</time>
      </trkpt>
      <trkpt lat="42.8655590" lon="-8.4409210">
        <ele>363.0</ele>
        <time>2021-03-03T12:21:57Z</time>
      </trkpt>
      <trkpt lat="42.8655540" lon="-8.4409440">
        <ele>363.2</ele>
        <time>2021-03-03T12:21:58Z</time>
      </trkpt>
      <trkpt lat="42.8655490" lon="-8.4409670">
        <ele>363.4</ele>
        <time>2021-03-03T12:21:59Z</time>
      </trkpt>
      <trkpt lat="42.8655410" lon="-8.4409860">
        <ele>363.4</ele>
        <time>2021-03-03T12:22:00Z</time>
      </trkpt>
      <trkpt lat="42.8655320" lon="-8.4410030">
        <ele>363.6</ele>
        <time>2021-03-03T12:22:01Z</time>
      </trkpt>
      <trkpt lat="42.8655220" lon="-8.4410190">
        <ele>363.8</ele>
        <time>2021-03-03T12:22:02Z</time>
      </trkpt>
      <trkpt lat="42.8655100" lon="-8.4410370">
        <ele>363.8</ele>
        <time>2021-03-03T12:22:03Z</time>
      </trkpt>
      <trkpt lat="42.8655010" lon="-8.4410560">
        <ele>364.2</ele>
        <time>2021-03-03T12:22:04Z</time>
      </trkpt>
      <trkpt lat="42.8654930" lon="-8.4410750">
        <ele>364.2</ele>
        <time>2021-03-03T12:22:05Z</time>
      </trkpt>
      <trkpt lat="42.8654840" lon="-8.4410940">
        <ele>364.4</ele>
        <time>2021-03-03T12:22:06Z</time>
      </trkpt>
      <trkpt lat="42.8654790" lon="-8.4411150">
        <ele>364.6</ele>
        <time>2021-03-03T12:22:07Z</time>
      </trkpt>
      <trkpt lat="42.8654790" lon="-8.4411330">
        <ele>364.6</ele>
        <time>2021-03-03T12:22:08Z</time>
      </trkpt>
      <trkpt lat="42.8654760" lon="-8.4411450">
        <ele>364.8</ele>
        <time>2021-03-03T12:22:09Z</time>
      </trkpt>
      <trkpt lat="42.8654680" lon="-8.4411600">
        <ele>365.0</ele>
        <time>2021-03-03T12:22:10Z</time>
      </trkpt>
      <trkpt lat="42.8654610" lon="-8.4411750">
        <ele>365.4</ele>
        <time>2021-03-03T12:22:11Z</time>
      </trkpt>
      <trkpt lat="42.8654490" lon="-8.4411880">
        <ele>365.6</ele>
        <time>2021-03-03T12:22:12Z</time>
      </trkpt>
      <trkpt lat="42.8654410" lon="-8.4412080">
        <ele>365.8</ele>
        <time>2021-03-03T12:22:13Z</time>
      </trkpt>
      <trkpt lat="42.8654270" lon="-8.4412300">
        <ele>366.0</ele>
        <time>2021-03-03T12:22:14Z</time>
      </trkpt>
      <trkpt lat="42.8654140" lon="-8.4412560">
        <ele>366.2</ele>
        <time>2021-03-03T12:22:15Z</time>
      </trkpt>
      <trkpt lat="42.8654030" lon="-8.4412790">
        <ele>366.2</ele>
        <time>2021-03-03T12:22:16Z</time>
      </trkpt>
      <trkpt lat="42.8654020" lon="-8.4413000">
        <ele>366.4</ele>
        <time>2021-03-03T12:22:17Z</time>
      </trkpt>
      <trkpt lat="42.8654000" lon="-8.4413220">
        <ele>366.6</ele>
        <time>2021-03-03T12:22:18Z</time>
      </trkpt>
      <trkpt lat="42.8653950" lon="-8.4413420">
        <ele>366.8</ele>
        <time>2021-03-03T12:22:19Z</time>
      </trkpt>
      <trkpt lat="42.8653910" lon="-8.4413600">
        <ele>367.0</ele>
        <time>2021-03-03T12:22:20Z</time>
      </trkpt>
      <trkpt lat="42.8653900" lon="-8.4413760">
        <ele>367.2</ele>
        <time>2021-03-03T12:22:21Z</time>
      </trkpt>
      <trkpt lat="42.8653900" lon="-8.4413940">
        <ele>367.6</ele>
        <time>2021-03-03T12:22:22Z</time>
      </trkpt>
      <trkpt lat="42.8653900" lon="-8.4414100">
        <ele>368.0</ele>
        <time>2021-03-03T12:22:23Z</time>
      </trkpt>
      <trkpt lat="42.8653890" lon="-8.4414230">
        <ele>368.2</ele>
        <time>2021-03-03T12:22:24Z</time>
      </trkpt>
      <trkpt lat="42.8653860" lon="-8.4414350">
        <ele>368.6</ele>
        <time>2021-03-03T12:22:25Z</time>
      </trkpt>
      <trkpt lat="42.8653820" lon="-8.4414540">
        <ele>368.8</ele>
        <time>2021-03-03T12:22:26Z</time>
      </trkpt>
      <trkpt lat="42.8653820" lon="-8.4414740">
        <ele>369.0</ele>
        <time>2021-03-03T12:22:27Z</time>
      </trkpt>
      <trkpt lat="42.8653770" lon="-8.4414920">
        <ele>369.2</ele>
        <time>2021-03-03T12:22:28Z</time>
      </trkpt>
      <trkpt lat="42.8653750" lon="-8.4415030">
        <ele>369.2</ele>
        <time>2021-03-03T12:22:29Z</time>
      </trkpt>
      <trkpt lat="42.8653670" lon="-8.4415140">
        <ele>369.4</ele>
        <time>2021-03-03T12:22:30Z</time>
      </trkpt>
      <trkpt lat="42.8653510" lon="-8.4415300">
        <ele>369.6</ele>
        <time>2021-03-03T12:22:31Z</time>
      </trkpt>
      <trkpt lat="42.8653420" lon="-8.4415420">
        <ele>369.8</ele>
        <time>2021-03-03T12:22:32Z</time>
      </trkpt>
      <trkpt lat="42.8653260" lon="-8.4415410">
        <ele>369.8</ele>
        <time>2021-03-03T12:22:33Z</time>
      </trkpt>
      <trkpt lat="42.8653050" lon="-8.4415430">
        <ele>369.8</ele>
        <time>2021-03-03T12:22:34Z</time>
      </trkpt>
      <trkpt lat="42.8652900" lon="-8.4415420">
        <ele>369.8</ele>
        <time>2021-03-03T12:22:35Z</time>
      </trkpt>
      <trkpt lat="42.8652740" lon="-8.4415510">
        <ele>369.8</ele>
        <time>2021-03-03T12:22:36Z</time>
      </trkpt>
      <trkpt lat="42.8652570" lon="-8.4415680">
        <ele>370.0</ele>
        <time>2021-03-03T12:22:37Z</time>
      </trkpt>
      <trkpt lat="42.8652400" lon="-8.4415880">
        <ele>370.2</ele>
        <time>2021-03-03T12:22:38Z</time>
      </trkpt>
      <trkpt lat="42.8652140" lon="-8.4416060">
        <ele>370.2</ele>
        <time>2021-03-03T12:22:39Z</time>
      </trkpt>
      <trkpt lat="42.8651970" lon="-8.4416090">
        <ele>370.4</ele>
        <time>2021-03-03T12:22:40Z</time>
      </trkpt>
      <trkpt lat="42.8651870" lon="-8.4416220">
        <ele>370.4</ele>
        <time>2021-03-03T12:22:41Z</time>
      </trkpt>
      <trkpt lat="42.8651760" lon="-8.4416340">
        <ele>370.4</ele>
        <time>2021-03-03T12:22:42Z</time>
      </trkpt>
      <trkpt lat="42.8651640" lon="-8.4416470">
        <ele>370.6</ele>
        <time>2021-03-03T12:22:43Z</time>
      </trkpt>
      <trkpt lat="42.8651530" lon="-8.4416630">
        <ele>370.8</ele>
        <time>2021-03-03T12:22:44Z</time>
      </trkpt>
      <trkpt lat="42.8651410" lon="-8.4416760">
        <ele>371.0</ele>
        <time>2021-03-03T12:22:45Z</time>
      </trkpt>
      <trkpt lat="42.8651230" lon="-8.4416880">
        <ele>371.2</ele>
        <time>2021-03-03T12:22:46Z</time>
      </trkpt>
      <trkpt lat="42.8650960" lon="-8.4417030">
        <ele>371.4</ele>
        <time>2021-03-03T12:22:47Z</time>
      </trkpt>
      <trkpt lat="42.8650720" lon="-8.4417220">
        <ele>371.6</ele>
        <time>2021-03-03T12:22:48Z</time>
      </trkpt>
      <trkpt lat="42.8650500" lon="-8.4417370">
        <ele>371.8</ele>
        <time>2021-03-03T12:22:49Z</time>
      </trkpt>
      <trkpt lat="42.8650270" lon="-8.4417610">
        <ele>372.0</ele>
        <time>2021-03-03T12:22:50Z</time>
      </trkpt>
      <trkpt lat="42.8650090" lon="-8.4417910">
        <ele>372.0</ele>
        <time>2021-03-03T12:22:51Z</time>
      </trkpt>
      <trkpt lat="42.8649940" lon="-8.4418190">
        <ele>372.2</ele>
        <time>2021-03-03T12:22:52Z</time>
      </trkpt>
      <trkpt lat="42.8649770" lon="-8.4418430">
        <ele>372.2</ele>
        <time>2021-03-03T12:22:53Z</time>
      </trkpt>
      <trkpt lat="42.8649620" lon="-8.4418690">
        <ele>372.6</ele>
        <time>2021-03-03T12:22:54Z</time>
      </trkpt>
      <trkpt lat="42.8649510" lon="-8.4418910">
        <ele>372.8</ele>
        <time>2021-03-03T12:22:55Z</time>
      </trkpt>
      <trkpt lat="42.8649420" lon="-8.4419080">
        <ele>373.0</ele>
        <time>2021-03-03T12:22:56Z</time>
      </trkpt>
      <trkpt lat="42.8649290" lon="-8.4419220">
        <ele>373.4</ele>
        <time>2021-03-03T12:22:57Z</time>
      </trkpt>
      <trkpt lat="42.8649140" lon="-8.4419350">
        <ele>373.6</ele>
        <time>2021-03-03T12:22:58Z</time>
      </trkpt>
      <trkpt lat="42.8649000" lon="-8.4419500">
        <ele>373.8</ele>
        <time>2021-03-03T12:22:59Z</time>
      </trkpt>
      <trkpt lat="42.8648890" lon="-8.4419650">
        <ele>374.0</ele>
        <time>2021-03-03T12:23:00Z</time>
      </trkpt>
      <trkpt lat="42.8648730" lon="-8.4419830">
        <ele>374.2</ele>
        <time>2021-03-03T12:23:01Z</time>
      </trkpt>
      <trkpt lat="42.8648550" lon="-8.4420000">
        <ele>374.4</ele>
        <time>2021-03-03T12:23:02Z</time>
      </trkpt>
      <trkpt lat="42.8648390" lon="-8.4420170">
        <ele>374.6</ele>
        <time>2021-03-03T12:23:03Z</time>
      </trkpt>
      <trkpt lat="42.8648290" lon="-8.4420360">
        <ele>374.6</ele>
        <time>2021-03-03T12:23:04Z</time>
      </trkpt>
      <trkpt lat="42.8648250" lon="-8.4420590">
        <ele>374.8</ele>
        <time>2021-03-03T12:23:05Z</time>
      </trkpt>
      <trkpt lat="42.8648150" lon="-8.4420740">
        <ele>375.0</ele>
        <time>2021-03-03T12:23:06Z</time>
      </trkpt>
      <trkpt lat="42.8648040" lon="-8.4420870">
        <ele>375.0</ele>
        <time>2021-03-03T12:23:07Z</time>
      </trkpt>
      <trkpt lat="42.8648040" lon="-8.4420870">
        <ele>375.2</ele>
        <time>2021-03-03T12:23:08Z</time>
      </trkpt>
      <trkpt lat="42.8647750" lon="-8.4421030">
        <ele>375.4</ele>
        <time>2021-03-03T12:23:09Z</time>
      </trkpt>
      <trkpt lat="42.8647600" lon="-8.4421090">
        <ele>375.8</ele>
        <time>2021-03-03T12:23:10Z</time>
      </trkpt>
      <trkpt lat="42.8647480" lon="-8.4421130">
        <ele>376.0</ele>
        <time>2021-03-03T12:23:11Z</time>
      </trkpt>
      <trkpt lat="42.8647340" lon="-8.4421140">
        <ele>376.0</ele>
        <time>2021-03-03T12:23:12Z</time>
      </trkpt>
      <trkpt lat="42.8647150" lon="-8.4421150">
        <ele>376.4</ele>
        <time>2021-03-03T12:23:13Z</time>
      </trkpt>
      <trkpt lat="42.8646930" lon="-8.4421190">
        <ele>376.6</ele>
        <time>2021-03-03T12:23:14Z</time>
      </trkpt>
      <trkpt lat="42.8646690" lon="-8.4421220">
        <ele>376.8</ele>
        <time>2021-03-03T12:23:15Z</time>
      </trkpt>
      <trkpt lat="42.8646520" lon="-8.4421160">
        <ele>377.0</ele>
        <time>2021-03-03T12:23:16Z</time>
      </trkpt>
      <trkpt lat="42.8646350" lon="-8.4421090">
        <ele>377.0</ele>
        <time>2021-03-03T12:23:17Z</time>
      </trkpt>
      <trkpt lat="42.8646190" lon="-8.4421010">
        <ele>377.0</ele>
        <time>2021-03-03T12:23:18Z</time>
      </trkpt>
      <trkpt lat="42.8646000" lon="-8.4420930">
        <ele>377.0</ele>
        <time>2021-03-03T12:23:19Z</time>
      </trkpt>
      <trkpt lat="42.8645780" lon="-8.4420780">
        <ele>377.4</ele>
        <time>2021-03-03T12:23:20Z</time>
      </trkpt>
      <trkpt lat="42.8645630" lon="-8.4420680">
        <ele>377.6</ele>
        <time>2021-03-03T12:23:21Z</time>
      </trkpt>
      <trkpt lat="42.8645480" lon="-8.4420600">
        <ele>377.6</ele>
        <time>2021-03-03T12:23:22Z</time>
      </trkpt>
      <trkpt lat="42.8645320" lon="-8.4420470">
        <ele>377.8</ele>
        <time>2021-03-03T12:23:23Z</time>
      </trkpt>
      <trkpt lat="42.8645110" lon="-8.4420380">
        <ele>377.8</ele>
        <time>2021-03-03T12:23:24Z</time>
      </trkpt>
      <trkpt lat="42.8644900" lon="-8.4420270">
        <ele>378.0</ele>
        <time>2021-03-03T12:23:25Z</time>
      </trkpt>
      <trkpt lat="42.8644660" lon="-8.4420200">
        <ele>378.0</ele>
        <time>2021-03-03T12:23:26Z</time>
      </trkpt>
      <trkpt lat="42.8644360" lon="-8.4420120">
        <ele>378.2</ele>
        <time>2021-03-03T12:23:27Z</time>
      </trkpt>
      <trkpt lat="42.8644120" lon="-8.4420120">
        <ele>378.4</ele>
        <time>2021-03-03T12:23:28Z</time>
      </trkpt>
      <trkpt lat="42.8643950" lon="-8.4420110">
        <ele>378.6</ele>
        <time>2021-03-03T12:23:29Z</time>
      </trkpt>
      <trkpt lat="42.8643770" lon="-8.4420080">
        <ele>378.8</ele>
        <time>2021-03-03T12:23:30Z</time>
      </trkpt>
      <trkpt lat="42.8643540" lon="-8.4420010">
        <ele>379.0</ele>
        <time>2021-03-03T12:23:31Z</time>
      </trkpt>
      <trkpt lat="42.8643380" lon="-8.4419960">
        <ele>379.6</ele>
        <time>2021-03-03T12:23:32Z</time>
      </trkpt>
      <trkpt lat="42.8643150" lon="-8.4419920">
        <ele>379.8</ele>
        <time>2021-03-03T12:23:33Z</time>
      </trkpt>
      <trkpt lat="42.8642940" lon="-8.4419910">
        <ele>380.2</ele>
        <time>2021-03-03T12:23:34Z</time>
      </trkpt>
      <trkpt lat="42.8642940" lon="-8.4419910">
        <ele>380.4</ele>
        <time>2021-03-03T12:23:35Z</time>
      </trkpt>
      <trkpt lat="42.8642520" lon="-8.4419800">
        <ele>380.4</ele>
        <time>2021-03-03T12:23:36Z</time>
      </trkpt>
      <trkpt lat="42.8642300" lon="-8.4419780">
        <ele>380.8</ele>
        <time>2021-03-03T12:23:37Z</time>
      </trkpt>
      <trkpt lat="42.8642300" lon="-8.4419780">
        <ele>381.0</ele>
        <time>2021-03-03T12:23:38Z</time>
      </trkpt>
      <trkpt lat="42.8641860" lon="-8.4419800">
        <ele>381.2</ele>
        <time>2021-03-03T12:23:39Z</time>
      </trkpt>
      <trkpt lat="42.8641640" lon="-8.4419870">
        <ele>381.4</ele>
        <time>2021-03-03T12:23:40Z</time>
      </trkpt>
      <trkpt lat="42.8641510" lon="-8.4419870">
        <ele>381.6</ele>
        <time>2021-03-03T12:23:41Z</time>
      </trkpt>
      <trkpt lat="42.8641340" lon="-8.4419870">
        <ele>381.6</ele>
        <time>2021-03-03T12:23:42Z</time>
      </trkpt>
      <trkpt lat="42.8641140" lon="-8.4419900">
        <ele>381.8</ele>
        <time>2021-03-03T12:23:43Z</time>
      </trkpt>
      <trkpt lat="42.8640890" lon="-8.4419920">
        <ele>382.2</ele>
        <time>2021-03-03T12:23:44Z</time>
      </trkpt>
      <trkpt lat="42.8640630" lon="-8.4419950">
        <ele>382.4</ele>
        <time>2021-03-03T12:23:45Z</time>
      </trkpt>
      <trkpt lat="42.8640420" lon="-8.4420010">
        <ele>382.6</ele>
        <time>2021-03-03T12:23:46Z</time>
      </trkpt>
      <trkpt lat="42.8640170" lon="-8.4420050">
        <ele>382.8</ele>
        <time>2021-03-03T12:23:47Z</time>
      </trkpt>
      <trkpt lat="42.8639980" lon="-8.4420040">
        <ele>382.8</ele>
        <time>2021-03-03T12:23:48Z</time>
      </trkpt>
      <trkpt lat="42.8639730" lon="-8.4420030">
        <ele>383.0</ele>
        <time>2021-03-03T12:23:49Z</time>
      </trkpt>
      <trkpt lat="42.8639490" lon="-8.4420060">
        <ele>383.2</ele>
        <time>2021-03-03T12:23:50Z</time>
      </trkpt>
      <trkpt lat="42.8639250" lon="-8.4420040">
        <ele>383.4</ele>
        <time>2021-03-03T12:23:51Z</time>
      </trkpt>
      <trkpt lat="42.8639250" lon="-8.4420040">
        <ele>383.6</ele>
        <time>2021-03-03T12:23:52Z</time>
      </trkpt>
      <trkpt lat="42.8638960" lon="-8.4420010">
        <ele>383.6</ele>
        <time>2021-03-03T12:23:53Z</time>
      </trkpt>
      <trkpt lat="42.8638570" lon="-8.4420100">
        <ele>383.8</ele>
        <time>2021-03-03T12:23:54Z</time>
      </trkpt>
      <trkpt lat="42.8638370" lon="-8.4420240">
        <ele>384.0</ele>
        <time>2021-03-03T12:23:55Z</time>
      </trkpt>
      <trkpt lat="42.8638160" lon="-8.4420370">
        <ele>384.2</ele>
        <time>2021-03-03T12:23:56Z</time>
      </trkpt>
      <trkpt lat="42.8637940" lon="-8.4420510">
        <ele>384.4</ele>
        <time>2021-03-03T12:23:57Z</time>
      </trkpt>
      <trkpt lat="42.8637740" lon="-8.4420680">
        <ele>384.6</ele>
        <time>2021-03-03T12:23:58Z</time>
      </trkpt>
      <trkpt lat="42.8637490" lon="-8.4420820">
        <ele>384.8</ele>
        <time>2021-03-03T12:23:59Z</time>
      </trkpt>
      <trkpt lat="42.8637320" lon="-8.4420930">
        <ele>385.2</ele>
        <time>2021-03-03T12:24:00Z</time>
      </trkpt>
      <trkpt lat="42.8637160" lon="-8.4421070">
        <ele>385.4</ele>
        <time>2021-03-03T12:24:01Z</time>
      </trkpt>
      <trkpt lat="42.8637010" lon="-8.4421140">
        <ele>385.4</ele>
        <time>2021-03-03T12:24:02Z</time>
      </trkpt>
      <trkpt lat="42.8636840" lon="-8.4421320">
        <ele>385.6</ele>
        <time>2021-03-03T12:24:03Z</time>
      </trkpt>
      <trkpt lat="42.8636670" lon="-8.4421440">
        <ele>385.8</ele>
        <time>2021-03-03T12:24:04Z</time>
      </trkpt>
      <trkpt lat="42.8636450" lon="-8.4421580">
        <ele>386.0</ele>
        <time>2021-03-03T12:24:05Z</time>
      </trkpt>
      <trkpt lat="42.8636450" lon="-8.4421580">
        <ele>386.2</ele>
        <time>2021-03-03T12:24:06Z</time>
      </trkpt>
      <trkpt lat="42.8636030" lon="-8.4421890">
        <ele>386.4</ele>
        <time>2021-03-03T12:24:07Z</time>
      </trkpt>
      <trkpt lat="42.8635870" lon="-8.4422060">
        <ele>386.6</ele>
        <time>2021-03-03T12:24:08Z</time>
      </trkpt>
      <trkpt lat="42.8635720" lon="-8.4422220">
        <ele>386.8</ele>
        <time>2021-03-03T12:24:09Z</time>
      </trkpt>
      <trkpt lat="42.8635550" lon="-8.4422380">
        <ele>387.0</ele>
        <time>2021-03-03T12:24:10Z</time>
      </trkpt>
      <trkpt lat="42.8635400" lon="-8.4422520">
        <ele>387.2</ele>
        <time>2021-03-03T12:24:11Z</time>
      </trkpt>
      <trkpt lat="42.8635210" lon="-8.4422670">
        <ele>387.4</ele>
        <time>2021-03-03T12:24:12Z</time>
      </trkpt>
      <trkpt lat="42.8635060" lon="-8.4422820">
        <ele>387.8</ele>
        <time>2021-03-03T12:24:13Z</time>
      </trkpt>
      <trkpt lat="42.8634890" lon="-8.4422980">
        <ele>388.0</ele>
        <time>2021-03-03T12:24:14Z</time>
      </trkpt>
      <trkpt lat="42.8634740" lon="-8.4423130">
        <ele>388.2</ele>
        <time>2021-03-03T12:24:15Z</time>
      </trkpt>
      <trkpt lat="42.8634580" lon="-8.4423310">
        <ele>388.4</ele>
        <time>2021-03-03T12:24:16Z</time>
      </trkpt>
      <trkpt lat="42.8634390" lon="-8.4423480">
        <ele>388.6</ele>
        <time>2021-03-03T12:24:17Z</time>
      </trkpt>
      <trkpt lat="42.8634180" lon="-8.4423710">
        <ele>388.8</ele>
        <time>2021-03-03T12:24:18Z</time>
      </trkpt>
      <trkpt lat="42.8634040" lon="-8.4423870">
        <ele>389.0</ele>
        <time>2021-03-03T12:24:19Z</time>
      </trkpt>
      <trkpt lat="42.8633860" lon="-8.4424030">
        <ele>389.4</ele>
        <time>2021-03-03T12:24:20Z</time>
      </trkpt>
      <trkpt lat="42.8633690" lon="-8.4424190">
        <ele>389.8</ele>
        <time>2021-03-03T12:24:21Z</time>
      </trkpt>
      <trkpt lat="42.8633690" lon="-8.4424190">
        <ele>390.0</ele>
        <time>2021-03-03T12:24:22Z</time>
      </trkpt>
      <trkpt lat="42.8633360" lon="-8.4424540">
        <ele>390.0</ele>
        <time>2021-03-03T12:24:23Z</time>
      </trkpt>
      <trkpt lat="42.8633240" lon="-8.4424700">
        <ele>390.2</ele>
        <time>2021-03-03T12:24:24Z</time>
      </trkpt>
      <trkpt lat="42.8633060" lon="-8.4424940">
        <ele>390.4</ele>
        <time>2021-03-03T12:24:25Z</time>
      </trkpt>
      <trkpt lat="42.8632890" lon="-8.4425190">
        <ele>390.4</ele>
        <time>2021-03-03T12:24:26Z</time>
      </trkpt>
      <trkpt lat="42.8632740" lon="-8.4425460">
        <ele>390.6</ele>
        <time>2021-03-03T12:24:27Z</time>
      </trkpt>
      <trkpt lat="42.8632600" lon="-8.4425750">
        <ele>390.6</ele>
        <time>2021-03-03T12:24:28Z</time>
      </trkpt>
      <trkpt lat="42.8632520" lon="-8.4426050">
        <ele>390.8</ele>
        <time>2021-03-03T12:24:29Z</time>
      </trkpt>
      <trkpt lat="42.8632560" lon="-8.4426450">
        <ele>391.0</ele>
        <time>2021-03-03T12:24:30Z</time>
      </trkpt>
      <trkpt lat="42.8632690" lon="-8.4426740">
        <ele>391.2</ele>
        <time>2021-03-03T12:24:31Z</time>
      </trkpt>
      <trkpt lat="42.8632880" lon="-8.4427000">
        <ele>391.4</ele>
        <time>2021-03-03T12:24:32Z</time>
      </trkpt>
      <trkpt lat="42.8633120" lon="-8.4427210">
        <ele>391.6</ele>
        <time>2021-03-03T12:24:33Z</time>
      </trkpt>
      <trkpt lat="42.8633330" lon="-8.4427370">
        <ele>391.8</ele>
        <time>2021-03-03T12:24:34Z</time>
      </trkpt>
      <trkpt lat="42.8633520" lon="-8.4427500">
        <ele>392.0</ele>
        <time>2021-03-03T12:24:35Z</time>
      </trkpt>
      <trkpt lat="42.8633720" lon="-8.4427590">
        <ele>392.4</ele>
        <time>2021-03-03T12:24:36Z</time>
      </trkpt>
      <trkpt lat="42.8633910" lon="-8.4427670">
        <ele>392.6</ele>
        <time>2021-03-03T12:24:37Z</time>
      </trkpt>
      <trkpt lat="42.8634110" lon="-8.4427800">
        <ele>392.8</ele>
        <time>2021-03-03T12:24:38Z</time>
      </trkpt>
      <trkpt lat="42.8634340" lon="-8.4427920">
        <ele>393.0</ele>
        <time>2021-03-03T12:24:39Z</time>
      </trkpt>
      <trkpt lat="42.8634450" lon="-8.4427980">
        <ele>393.2</ele>
        <time>2021-03-03T12:24:40Z</time>
      </trkpt>
      <trkpt lat="42.8634610" lon="-8.4428060">
        <ele>393.4</ele>
        <time>2021-03-03T12:24:41Z</time>
      </trkpt>
      <trkpt lat="42.8634790" lon="-8.4428180">
        <ele>393.6</ele>
        <time>2021-03-03T12:24:42Z</time>
      </trkpt>
      <trkpt lat="42.8635020" lon="-8.4428310">
        <ele>393.6</ele>
        <time>2021-03-03T12:24:43Z</time>
      </trkpt>
      <trkpt lat="42.8635270" lon="-8.4428460">
        <ele>393.8</ele>
        <time>2021-03-03T12:24:44Z</time>
      </trkpt>
      <trkpt lat="42.8635430" lon="-8.4428630">
        <ele>394.0</ele>
        <time>2021-03-03T12:24:45Z</time>
      </trkpt>
      <trkpt lat="42.8635630" lon="-8.4428730">
        <ele>394.0</ele>
        <time>2021-03-03T12:24:46Z</time>
      </trkpt>
      <trkpt lat="42.8635840" lon="-8.4428820">
        <ele>394.0</ele>
        <time>2021-03-03T12:24:47Z</time>
      </trkpt>
      <trkpt lat="42.8636030" lon="-8.4428880">
        <ele>394.2</ele>
        <time>2021-03-03T12:24:48Z</time>
      </trkpt>
      <trkpt lat="42.8636260" lon="-8.4428990">
        <ele>394.4</ele>
        <time>2021-03-03T12:24:49Z</time>
      </trkpt>
      <trkpt lat="42.8636510" lon="-8.4429090">
        <ele>394.4</ele>
        <time>2021-03-03T12:24:50Z</time>
      </trkpt>
      <trkpt lat="42.8636740" lon="-8.4429210">
        <ele>394.4</ele>
        <time>2021-03-03T12:24:51Z</time>
      </trkpt>
      <trkpt lat="42.8636980" lon="-8.4429340">
        <ele>394.4</ele>
        <time>2021-03-03T12:24:52Z</time>
      </trkpt>
      <trkpt lat="42.8637210" lon="-8.4429490">
        <ele>394.6</ele>
        <time>2021-03-03T12:24:53Z</time>
      </trkpt>
      <trkpt lat="42.8637460" lon="-8.4429640">
        <ele>394.8</ele>
        <time>2021-03-03T12:24:54Z</time>
      </trkpt>
      <trkpt lat="42.8637700" lon="-8.4429800">
        <ele>395.0</ele>
        <time>2021-03-03T12:24:55Z</time>
      </trkpt>
      <trkpt lat="42.8638070" lon="-8.4429990">
        <ele>395.0</ele>
        <time>2021-03-03T12:24:56Z</time>
      </trkpt>
      <trkpt lat="42.8638350" lon="-8.4430330">
        <ele>395.2</ele>
        <time>2021-03-03T12:24:57Z</time>
      </trkpt>
      <trkpt lat="42.8638540" lon="-8.4430670">
        <ele>395.4</ele>
        <time>2021-03-03T12:24:58Z</time>
      </trkpt>
      <trkpt lat="42.8638690" lon="-8.4430840">
        <ele>395.6</ele>
        <time>2021-03-03T12:24:59Z</time>
      </trkpt>
      <trkpt lat="42.8638870" lon="-8.4431040">
        <ele>395.8</ele>
        <time>2021-03-03T12:25:00Z</time>
      </trkpt>
      <trkpt lat="42.8639130" lon="-8.4431190">
        <ele>396.0</ele>
        <time>2021-03-03T12:25:01Z</time>
      </trkpt>
      <trkpt lat="42.8639380" lon="-8.4431400">
        <ele>396.2</ele>
        <time>2021-03-03T12:25:02Z</time>
      </trkpt>
      <trkpt lat="42.8639590" lon="-8.4431680">
        <ele>396.4</ele>
        <time>2021-03-03T12:25:03Z</time>
      </trkpt>
      <trkpt lat="42.8639830" lon="-8.4431960">
        <ele>396.6</ele>
        <time>2021-03-03T12:25:04Z</time>
      </trkpt>
      <trkpt lat="42.8640010" lon="-8.4432170">
        <ele>396.6</ele>
        <time>2021-03-03T12:25:05Z</time>
      </trkpt>
      <trkpt lat="42.8640180" lon="-8.4432350">
        <ele>396.6</ele>
        <time>2021-03-03T12:25:06Z</time>
      </trkpt>
      <trkpt lat="42.8640420" lon="-8.4432470">
        <ele>396.8</ele>
        <time>2021-03-03T12:25:07Z</time>
      </trkpt>
      <trkpt lat="42.8640600" lon="-8.4432630">
        <ele>397.0</ele>
        <time>2021-03-03T12:25:08Z</time>
      </trkpt>
      <trkpt lat="42.8640780" lon="-8.4432820">
        <ele>397.0</ele>
        <time>2021-03-03T12:25:09Z</time>
      </trkpt>
      <trkpt lat="42.8640990" lon="-8.4433020">
        <ele>397.2</ele>
        <time>2021-03-03T12:25:10Z</time>
      </trkpt>
      <trkpt lat="42.8641180" lon="-8.4433200">
        <ele>397.4</ele>
        <time>2021-03-03T12:25:11Z</time>
      </trkpt>
      <trkpt lat="42.8641180" lon="-8.4433200">
        <ele>397.6</ele>
        <time>2021-03-03T12:25:12Z</time>
      </trkpt>
      <trkpt lat="42.8641490" lon="-8.4433410">
        <ele>397.8</ele>
        <time>2021-03-03T12:25:13Z</time>
      </trkpt>
      <trkpt lat="42.8641630" lon="-8.4433500">
        <ele>398.0</ele>
        <time>2021-03-03T12:25:14Z</time>
      </trkpt>
      <trkpt lat="42.8641750" lon="-8.4433580">
        <ele>398.2</ele>
        <time>2021-03-03T12:25:15Z</time>
      </trkpt>
      <trkpt lat="42.8641750" lon="-8.4433580">
        <ele>398.4</ele>
        <time>2021-03-03T12:25:16Z</time>
      </trkpt>
      <trkpt lat="42.8642030" lon="-8.4433730">
        <ele>398.6</ele>
        <time>2021-03-03T12:25:17Z</time>
      </trkpt>
      <trkpt lat="42.8642160" lon="-8.4433820">
        <ele>398.6</ele>
        <time>2021-03-03T12:25:18Z</time>
      </trkpt>
      <trkpt lat="42.8642310" lon="-8.4433930">
        <ele>398.6</ele>
        <time>2021-03-03T12:25:19Z</time>
      </trkpt>
      <trkpt lat="42.8642450" lon="-8.4434050">
        <ele>398.8</ele>
        <time>2021-03-03T12:25:20Z</time>
      </trkpt>
      <trkpt lat="42.8642580" lon="-8.4434180">
        <ele>398.8</ele>
        <time>2021-03-03T12:25:21Z</time>
      </trkpt>
      <trkpt lat="42.8642650" lon="-8.4434260">
        <ele>399.2</ele>
        <time>2021-03-03T12:25:22Z</time>
      </trkpt>
      <trkpt lat="42.8642770" lon="-8.4434330">
        <ele>399.4</ele>
        <time>2021-03-03T12:25:23Z</time>
      </trkpt>
      <trkpt lat="42.8642880" lon="-8.4434420">
        <ele>399.6</ele>
        <time>2021-03-03T12:25:24Z</time>
      </trkpt>
      <trkpt lat="42.8643020" lon="-8.4434480">
        <ele>399.8</ele>
        <time>2021-03-03T12:25:25Z</time>
      </trkpt>
      <trkpt lat="42.8643150" lon="-8.4434590">
        <ele>400.0</ele>
        <time>2021-03-03T12:25:26Z</time>
      </trkpt>
      <trkpt lat="42.8643260" lon="-8.4434660">
        <ele>400.2</ele>
        <time>2021-03-03T12:25:27Z</time>
      </trkpt>
      <trkpt lat="42.8643400" lon="-8.4434740">
        <ele>400.4</ele>
        <time>2021-03-03T12:25:28Z</time>
      </trkpt>
      <trkpt lat="42.8643620" lon="-8.4434930">
        <ele>400.6</ele>
        <time>2021-03-03T12:25:29Z</time>
      </trkpt>
      <trkpt lat="42.8643780" lon="-8.4435110">
        <ele>400.6</ele>
        <time>2021-03-03T12:25:30Z</time>
      </trkpt>
      <trkpt lat="42.8643900" lon="-8.4435170">
        <ele>401.0</ele>
        <time>2021-03-03T12:25:31Z</time>
      </trkpt>
      <trkpt lat="42.8643960" lon="-8.4435210">
        <ele>401.2</ele>
        <time>2021-03-03T12:25:32Z</time>
      </trkpt>
      <trkpt lat="42.8643970" lon="-8.4435220">
        <ele>401.4</ele>
        <time>2021-03-03T12:25:33Z</time>
      </trkpt>
      <trkpt lat="42.8644100" lon="-8.4435310">
        <ele>401.4</ele>
        <time>2021-03-03T12:25:34Z</time>
      </trkpt>
      <trkpt lat="42.8644300" lon="-8.4435420">
        <ele>401.6</ele>
        <time>2021-03-03T12:25:35Z</time>
      </trkpt>
      <trkpt lat="42.8644490" lon="-8.4435520">
        <ele>401.6</ele>
        <time>2021-03-03T12:25:36Z</time>
      </trkpt>
      <trkpt lat="42.8644630" lon="-8.4435620">
        <ele>401.8</ele>
        <time>2021-03-03T12:25:37Z</time>
      </trkpt>
      <trkpt lat="42.8644890" lon="-8.4435730">
        <ele>402.0</ele>
        <time>2021-03-03T12:25:38Z</time>
      </trkpt>
      <trkpt lat="42.8645100" lon="-8.4435870">
        <ele>402.2</ele>
        <time>2021-03-03T12:25:39Z</time>
      </trkpt>
      <trkpt lat="42.8645220" lon="-8.4435980">
        <ele>402.4</ele>
        <time>2021-03-03T12:25:40Z</time>
      </trkpt>
      <trkpt lat="42.8645370" lon="-8.4436090">
        <ele>402.4</ele>
        <time>2021-03-03T12:25:41Z</time>
      </trkpt>
      <trkpt lat="42.8645570" lon="-8.4436120">
        <ele>402.6</ele>
        <time>2021-03-03T12:25:42Z</time>
      </trkpt>
      <trkpt lat="42.8645690" lon="-8.4436260">
        <ele>402.6</ele>
        <time>2021-03-03T12:25:43Z</time>
      </trkpt>
      <trkpt lat="42.8645840" lon="-8.4436370">
        <ele>402.8</ele>
        <time>2021-03-03T12:25:44Z</time>
      </trkpt>
      <trkpt lat="42.8646010" lon="-8.4436460">
        <ele>403.0</ele>
        <time>2021-03-03T12:25:45Z</time>
      </trkpt>
      <trkpt lat="42.8646150" lon="-8.4436570">
        <ele>403.4</ele>
        <time>2021-03-03T12:25:46Z</time>
      </trkpt>
      <trkpt lat="42.8646350" lon="-8.4436660">
        <ele>403.6</ele>
        <time>2021-03-03T12:25:47Z</time>
      </trkpt>
      <trkpt lat="42.8646470" lon="-8.4436760">
        <ele>403.8</ele>
        <time>2021-03-03T12:25:48Z</time>
      </trkpt>
      <trkpt lat="42.8646560" lon="-8.4436830">
        <ele>404.2</ele>
        <time>2021-03-03T12:25:49Z</time>
      </trkpt>
      <trkpt lat="42.8646640" lon="-8.4436920">
        <ele>404.4</ele>
        <time>2021-03-03T12:25:50Z</time>
      </trkpt>
      <trkpt lat="42.8646730" lon="-8.4437050">
        <ele>404.4</ele>
        <time>2021-03-03T12:25:51Z</time>
      </trkpt>
      <trkpt lat="42.8646780" lon="-8.4437070">
        <ele>404.6</ele>
        <time>2021-03-03T12:25:52Z</time>
      </trkpt>
      <trkpt lat="42.8646810" lon="-8.4437070">
        <ele>405.0</ele>
        <time>2021-03-03T12:25:53Z</time>
      </trkpt>
      <trkpt lat="42.8646940" lon="-8.4437140">
        <ele>405.2</ele>
        <time>2021-03-03T12:25:54Z</time>
      </trkpt>
      <trkpt lat="42.8647040" lon="-8.4437230">
        <ele>405.4</ele>
        <time>2021-03-03T12:25:55Z</time>
      </trkpt>
      <trkpt lat="42.8647160" lon="-8.4437330">
        <ele>405.4</ele>
        <time>2021-03-03T12:25:56Z</time>
      </trkpt>
      <trkpt lat="42.8647340" lon="-8.4437390">
        <ele>405.8</ele>
        <time>2021-03-03T12:25:57Z</time>
      </trkpt>
      <trkpt lat="42.8647430" lon="-8.4437500">
        <ele>406.0</ele>
        <time>2021-03-03T12:25:58Z</time>
      </trkpt>
      <trkpt lat="42.8647480" lon="-8.4437600">
        <ele>406.2</ele>
        <time>2021-03-03T12:25:59Z</time>
      </trkpt>
      <trkpt lat="42.8647530" lon="-8.4437690">
        <ele>406.2</ele>
        <time>2021-03-03T12:26:00Z</time>
      </trkpt>
      <trkpt lat="42.8647640" lon="-8.4437820">
        <ele>406.6</ele>
        <time>2021-03-03T12:26:01Z</time>
      </trkpt>
      <trkpt lat="42.8647810" lon="-8.4437940">
        <ele>406.8</ele>
        <time>2021-03-03T12:26:02Z</time>
      </trkpt>
      <trkpt lat="42.8647980" lon="-8.4438040">
        <ele>407.2</ele>
        <time>2021-03-03T12:26:03Z</time>
      </trkpt>
      <trkpt lat="42.8648180" lon="-8.4438160">
        <ele>407.4</ele>
        <time>2021-03-03T12:26:04Z</time>
      </trkpt>
      <trkpt lat="42.8648340" lon="-8.4438230">
        <ele>407.6</ele>
        <time>2021-03-03T12:26:05Z</time>
      </trkpt>
      <trkpt lat="42.8648470" lon="-8.4438310">
        <ele>408.0</ele>
        <time>2021-03-03T12:26:06Z</time>
      </trkpt>
      <trkpt lat="42.8648620" lon="-8.4438440">
        <ele>408.4</ele>
        <time>2021-03-03T12:26:07Z</time>
      </trkpt>
      <trkpt lat="42.8648830" lon="-8.4438630">
        <ele>408.6</ele>
        <time>2021-03-03T12:26:08Z</time>
      </trkpt>
      <trkpt lat="42.8648980" lon="-8.4438740">
        <ele>408.6</ele>
        <time>2021-03-03T12:26:09Z</time>
      </trkpt>
      <trkpt lat="42.8649190" lon="-8.4438900">
        <ele>408.8</ele>
        <time>2021-03-03T12:26:10Z</time>
      </trkpt>
      <trkpt lat="42.8649400" lon="-8.4439090">
        <ele>409.0</ele>
        <time>2021-03-03T12:26:11Z</time>
      </trkpt>
      <trkpt lat="42.8649620" lon="-8.4439240">
        <ele>409.2</ele>
        <time>2021-03-03T12:26:12Z</time>
      </trkpt>
      <trkpt lat="42.8649800" lon="-8.4439340">
        <ele>409.2</ele>
        <time>2021-03-03T12:26:13Z</time>
      </trkpt>
      <trkpt lat="42.8649970" lon="-8.4439430">
        <ele>409.6</ele>
        <time>2021-03-03T12:26:14Z</time>
      </trkpt>
      <trkpt lat="42.8650170" lon="-8.4439520">
        <ele>409.8</ele>
        <time>2021-03-03T12:26:15Z</time>
      </trkpt>
      <trkpt lat="42.8650350" lon="-8.4439600">
        <ele>410.0</ele>
        <time>2021-03-03T12:26:16Z</time>
      </trkpt>
      <trkpt lat="42.8650550" lon="-8.4439680">
        <ele>410.2</ele>
        <time>2021-03-03T12:26:17Z</time>
      </trkpt>
      <trkpt lat="42.8650730" lon="-8.4439780">
        <ele>410.2</ele>
        <time>2021-03-03T12:26:18Z</time>
      </trkpt>
      <trkpt lat="42.8650910" lon="-8.4439880">
        <ele>410.4</ele>
        <time>2021-03-03T12:26:19Z</time>
      </trkpt>
      <trkpt lat="42.8651100" lon="-8.4439980">
        <ele>410.6</ele>
        <time>2021-03-03T12:26:20Z</time>
      </trkpt>
      <trkpt lat="42.8651320" lon="-8.4440080">
        <ele>410.8</ele>
        <time>2021-03-03T12:26:21Z</time>
      </trkpt>
      <trkpt lat="42.8651520" lon="-8.4440190">
        <ele>411.0</ele>
        <time>2021-03-03T12:26:22Z</time>
      </trkpt>
      <trkpt lat="42.8651740" lon="-8.4440350">
        <ele>411.2</ele>
        <time>2021-03-03T12:26:23Z</time>
      </trkpt>
      <trkpt lat="42.8651900" lon="-8.4440440">
        <ele>411.4</ele>
        <time>2021-03-03T12:26:24Z</time>
      </trkpt>
      <trkpt lat="42.8652050" lon="-8.4440540">
        <ele>411.6</ele>
        <time>2021-03-03T12:26:25Z</time>
      </trkpt>
      <trkpt lat="42.8652250" lon="-8.4440670">
        <ele>411.6</ele>
        <time>2021-03-03T12:26:26Z</time>
      </trkpt>
      <trkpt lat="42.8652430" lon="-8.4440810">
        <ele>411.8</ele>
        <time>2021-03-03T12:26:27Z</time>
      </trkpt>
      <trkpt lat="42.8652610" lon="-8.4440960">
        <ele>412.0</ele>
        <time>2021-03-03T12:26:28Z</time>
      </trkpt>
      <trkpt lat="42.8652860" lon="-8.4441140">
        <ele>412.2</ele>
        <time>2021-03-03T12:26:29Z</time>
      </trkpt>
      <trkpt lat="42.8653020" lon="-8.4441270">
        <ele>412.2</ele>
        <time>2021-03-03T12:26:30Z</time>
      </trkpt>
      <trkpt lat="42.8653250" lon="-8.4441410">
        <ele>412.6</ele>
        <time>2021-03-03T12:26:31Z</time>
      </trkpt>
      <trkpt lat="42.8653460" lon="-8.4441550">
        <ele>412.6</ele>
        <time>2021-03-03T12:26:32Z</time>
      </trkpt>
      <trkpt lat="42.8653670" lon="-8.4441690">
        <ele>412.8</ele>
        <time>2021-03-03T12:26:33Z</time>
      </trkpt>
      <trkpt lat="42.8653880" lon="-8.4441840">
        <ele>412.8</ele>
        <time>2021-03-03T12:26:34Z</time>
      </trkpt>
      <trkpt lat="42.8654070" lon="-8.4441990">
        <ele>413.0</ele>
        <time>2021-03-03T12:26:35Z</time>
      </trkpt>
      <trkpt lat="42.8654290" lon="-8.4442120">
        <ele>413.0</ele>
        <time>2021-03-03T12:26:36Z</time>
      </trkpt>
      <trkpt lat="42.8654560" lon="-8.4442340">
        <ele>413.2</ele>
        <time>2021-03-03T12:26:37Z</time>
      </trkpt>
      <trkpt lat="42.8654850" lon="-8.4442510">
        <ele>413.4</ele>
        <time>2021-03-03T12:26:38Z</time>
      </trkpt>
      <trkpt lat="42.8655100" lon="-8.4442700">
        <ele>413.8</ele>
        <time>2021-03-03T12:26:39Z</time>
      </trkpt>
      <trkpt lat="42.8655360" lon="-8.4442880">
        <ele>414.0</ele>
        <time>2021-03-03T12:26:40Z</time>
      </trkpt>
      <trkpt lat="42.8655550" lon="-8.4443110">
        <ele>414.2</ele>
        <time>2021-03-03T12:26:41Z</time>
      </trkpt>
      <trkpt lat="42.8655760" lon="-8.4443230">
        <ele>414.2</ele>
        <time>2021-03-03T12:26:42Z</time>
      </trkpt>
      <trkpt lat="42.8655970" lon="-8.4443330">
        <ele>414.4</ele>
        <time>2021-03-03T12:26:43Z</time>
      </trkpt>
      <trkpt lat="42.8656210" lon="-8.4443450">
        <ele>414.8</ele>
        <time>2021-03-03T12:26:44Z</time>
      </trkpt>
      <trkpt lat="42.8656420" lon="-8.4443570">
        <ele>415.2</ele>
        <time>2021-03-03T12:26:45Z</time>
      </trkpt>
      <trkpt lat="42.8656640" lon="-8.4443700">
        <ele>415.4</ele>
        <time>2021-03-03T12:26:46Z</time>
      </trkpt>
      <trkpt lat="42.8656860" lon="-8.4443800">
        <ele>415.4</ele>
        <time>2021-03-03T12:26:47Z</time>
      </trkpt>
      <trkpt lat="42.8657060" lon="-8.4443900">
        <ele>415.6</ele>
        <time>2021-03-03T12:26:48Z</time>
      </trkpt>
      <trkpt lat="42.8657300" lon="-8.4444010">
        <ele>415.8</ele>
        <time>2021-03-03T12:26:49Z</time>
      </trkpt>
      <trkpt lat="42.8657510" lon="-8.4444100">
        <ele>416.0</ele>
        <time>2021-03-03T12:26:50Z</time>
      </trkpt>
      <trkpt lat="42.8657720" lon="-8.4444230">
        <ele>416.2</ele>
        <time>2021-03-03T12:26:51Z</time>
      </trkpt>
      <trkpt lat="42.8657950" lon="-8.4444380">
        <ele>416.4</ele>
        <time>2021-03-03T12:26:52Z</time>
      </trkpt>
      <trkpt lat="42.8658210" lon="-8.4444490">
        <ele>416.4</ele>
        <time>2021-03-03T12:26:53Z</time>
      </trkpt>
      <trkpt lat="42.8658480" lon="-8.4444590">
        <ele>416.4</ele>
        <time>2021-03-03T12:26:54Z</time>
      </trkpt>
      <trkpt lat="42.8658720" lon="-8.4444670">
        <ele>416.6</ele>
        <time>2021-03-03T12:26:55Z</time>
      </trkpt>
      <trkpt lat="42.8659000" lon="-8.4444720">
        <ele>416.6</ele>
        <time>2021-03-03T12:26:56Z</time>
      </trkpt>
      <trkpt lat="42.8659290" lon="-8.4444770">
        <ele>416.6</ele>
        <time>2021-03-03T12:26:57Z</time>
      </trkpt>
      <trkpt lat="42.8659570" lon="-8.4444830">
        <ele>416.6</ele>
        <time>2021-03-03T12:26:58Z</time>
      </trkpt>
      <trkpt lat="42.8659840" lon="-8.4444840">
        <ele>416.8</ele>
        <time>2021-03-03T12:26:59Z</time>
      </trkpt>
      <trkpt lat="42.8660120" lon="-8.4444820">
        <ele>416.8</ele>
        <time>2021-03-03T12:27:00Z</time>
      </trkpt>
      <trkpt lat="42.8660390" lon="-8.4444840">
        <ele>416.8</ele>
        <time>2021-03-03T12:27:01Z</time>
      </trkpt>
      <trkpt lat="42.8660670" lon="-8.4444890">
        <ele>416.8</ele>
        <time>2021-03-03T12:27:02Z</time>
      </trkpt>
      <trkpt lat="42.8660900" lon="-8.4444900">
        <ele>416.6</ele>
        <time>2021-03-03T12:27:03Z</time>
      </trkpt>
      <trkpt lat="42.8661150" lon="-8.4445000">
        <ele>416.6</ele>
        <time>2021-03-03T12:27:04Z</time>
      </trkpt>
      <trkpt lat="42.8661410" lon="-8.4445160">
        <ele>416.6</ele>
        <time>2021-03-03T12:27:05Z</time>
      </trkpt>
      <trkpt lat="42.8661670" lon="-8.4445320">
        <ele>416.6</ele>
        <time>2021-03-03T12:27:06Z</time>
      </trkpt>
      <trkpt lat="42.8661940" lon="-8.4445430">
        <ele>416.6</ele>
        <time>2021-03-03T12:27:07Z</time>
      </trkpt>
      <trkpt lat="42.8662190" lon="-8.4445560">
        <ele>416.6</ele>
        <time>2021-03-03T12:27:08Z</time>
      </trkpt>
      <trkpt lat="42.8662430" lon="-8.4445710">
        <ele>416.6</ele>
        <time>2021-03-03T12:27:09Z</time>
      </trkpt>
      <trkpt lat="42.8662690" lon="-8.4445880">
        <ele>416.6</ele>
        <time>2021-03-03T12:27:10Z</time>
      </trkpt>
      <trkpt lat="42.8663000" lon="-8.4446200">
        <ele>416.6</ele>
        <time>2021-03-03T12:27:11Z</time>
      </trkpt>
      <trkpt lat="42.8663240" lon="-8.4446450">
        <ele>416.8</ele>
        <time>2021-03-03T12:27:12Z</time>
      </trkpt>
      <trkpt lat="42.8663470" lon="-8.4446700">
        <ele>416.6</ele>
        <time>2021-03-03T12:27:13Z</time>
      </trkpt>
      <trkpt lat="42.8663740" lon="-8.4446800">
        <ele>416.8</ele>
        <time>2021-03-03T12:27:14Z</time>
      </trkpt>
      <trkpt lat="42.8664030" lon="-8.4446900">
        <ele>416.8</ele>
        <time>2021-03-03T12:27:15Z</time>
      </trkpt>
      <trkpt lat="42.8664330" lon="-8.4446960">
        <ele>416.8</ele>
        <time>2021-03-03T12:27:16Z</time>
      </trkpt>
      <trkpt lat="42.8664640" lon="-8.4446940">
        <ele>417.0</ele>
        <time>2021-03-03T12:27:17Z</time>
      </trkpt>
      <trkpt lat="42.8664940" lon="-8.4446950">
        <ele>417.2</ele>
        <time>2021-03-03T12:27:18Z</time>
      </trkpt>
      <trkpt lat="42.8665220" lon="-8.4446960">
        <ele>417.2</ele>
        <time>2021-03-03T12:27:19Z</time>
      </trkpt>
      <trkpt lat="42.8665460" lon="-8.4446930">
        <ele>417.2</ele>
        <time>2021-03-03T12:27:20Z</time>
      </trkpt>
      <trkpt lat="42.8665760" lon="-8.4446880">
        <ele>417.2</ele>
        <time>2021-03-03T12:27:21Z</time>
      </trkpt>
      <trkpt lat="42.8665980" lon="-8.4446890">
        <ele>417.2</ele>
        <time>2021-03-03T12:27:22Z</time>
      </trkpt>
      <trkpt lat="42.8666230" lon="-8.4446870">
        <ele>417.2</ele>
        <time>2021-03-03T12:27:23Z</time>
      </trkpt>
      <trkpt lat="42.8666490" lon="-8.4446850">
        <ele>417.4</ele>
        <time>2021-03-03T12:27:24Z</time>
      </trkpt>
      <trkpt lat="42.8666750" lon="-8.4446850">
        <ele>417.6</ele>
        <time>2021-03-03T12:27:25Z</time>
      </trkpt>
      <trkpt lat="42.8666990" lon="-8.4446850">
        <ele>417.6</ele>
        <time>2021-03-03T12:27:26Z</time>
      </trkpt>
      <trkpt lat="42.8667260" lon="-8.4446830">
        <ele>417.8</ele>
        <time>2021-03-03T12:27:27Z</time>
      </trkpt>
      <trkpt lat="42.8667520" lon="-8.4446770">
        <ele>417.8</ele>
        <time>2021-03-03T12:27:28Z</time>
      </trkpt>
      <trkpt lat="42.8667810" lon="-8.4446750">
        <ele>418.0</ele>
        <time>2021-03-03T12:27:29Z</time>
      </trkpt>
      <trkpt lat="42.8668070" lon="-8.4446750">
        <ele>418.0</ele>
        <time>2021-03-03T12:27:30Z</time>
      </trkpt>
      <trkpt lat="42.8668340" lon="-8.4446730">
        <ele>418.2</ele>
        <time>2021-03-03T12:27:31Z</time>
      </trkpt>
      <trkpt lat="42.8668610" lon="-8.4446720">
        <ele>418.2</ele>
        <time>2021-03-03T12:27:32Z</time>
      </trkpt>
      <trkpt lat="42.8668860" lon="-8.4446690">
        <ele>418.4</ele>
        <time>2021-03-03T12:27:33Z</time>
      </trkpt>
      <trkpt lat="42.8669100" lon="-8.4446630">
        <ele>418.6</ele>
        <time>2021-03-03T12:27:34Z</time>
      </trkpt>
      <trkpt lat="42.8669370" lon="-8.4446580">
        <ele>418.6</ele>
        <time>2021-03-03T12:27:35Z</time>
      </trkpt>
      <trkpt lat="42.8669660" lon="-8.4446530">
        <ele>418.6</ele>
        <time>2021-03-03T12:27:36Z</time>
      </trkpt>
      <trkpt lat="42.8669930" lon="-8.4446490">
        <ele>418.6</ele>
        <time>2021-03-03T12:27:37Z</time>
      </trkpt>
      <trkpt lat="42.8670190" lon="-8.4446460">
        <ele>418.6</ele>
        <time>2021-03-03T12:27:38Z</time>
      </trkpt>
      <trkpt lat="42.8670190" lon="-8.4446460">
        <ele>418.4</ele>
        <time>2021-03-03T12:27:39Z</time>
      </trkpt>
      <trkpt lat="42.8670740" lon="-8.4446420">
        <ele>418.4</ele>
        <time>2021-03-03T12:27:40Z</time>
      </trkpt>
      <trkpt lat="42.8670740" lon="-8.4446420">
        <ele>418.4</ele>
        <time>2021-03-03T12:27:41Z</time>
      </trkpt>
      <trkpt lat="42.8671270" lon="-8.4446410">
        <ele>418.2</ele>
        <time>2021-03-03T12:27:42Z</time>
      </trkpt>
      <trkpt lat="42.8671520" lon="-8.4446390">
        <ele>418.2</ele>
        <time>2021-03-03T12:27:43Z</time>
      </trkpt>
      <trkpt lat="42.8671750" lon="-8.4446320">
        <ele>418.4</ele>
        <time>2021-03-03T12:27:44Z</time>
      </trkpt>
      <trkpt lat="42.8671960" lon="-8.4446190">
        <ele>418.2</ele>
        <time>2021-03-03T12:27:45Z</time>
      </trkpt>
      <trkpt lat="42.8672190" lon="-8.4446070">
        <ele>418.2</ele>
        <time>2021-03-03T12:27:46Z</time>
      </trkpt>
      <trkpt lat="42.8672450" lon="-8.4445990">
        <ele>418.2</ele>
        <time>2021-03-03T12:27:47Z</time>
      </trkpt>
      <trkpt lat="42.8672720" lon="-8.4445970">
        <ele>418.4</ele>
        <time>2021-03-03T12:27:48Z</time>
      </trkpt>
      <trkpt lat="42.8672980" lon="-8.4445960">
        <ele>418.4</ele>
        <time>2021-03-03T12:27:49Z</time>
      </trkpt>
      <trkpt lat="42.8673230" lon="-8.4445980">
        <ele>418.4</ele>
        <time>2021-03-03T12:27:50Z</time>
      </trkpt>
      <trkpt lat="42.8673520" lon="-8.4446010">
        <ele>418.4</ele>
        <time>2021-03-03T12:27:51Z</time>
      </trkpt>
      <trkpt lat="42.8673770" lon="-8.4445990">
        <ele>418.4</ele>
        <time>2021-03-03T12:27:52Z</time>
      </trkpt>
      <trkpt lat="42.8674040" lon="-8.4445960">
        <ele>418.4</ele>
        <time>2021-03-03T12:27:53Z</time>
      </trkpt>
      <trkpt lat="42.8674330" lon="-8.4445900">
        <ele>418.2</ele>
        <time>2021-03-03T12:27:54Z</time>
      </trkpt>
      <trkpt lat="42.8674610" lon="-8.4445800">
        <ele>418.4</ele>
        <time>2021-03-03T12:27:55Z</time>
      </trkpt>
      <trkpt lat="42.8674880" lon="-8.4445730">
        <ele>418.4</ele>
        <time>2021-03-03T12:27:56Z</time>
      </trkpt>
      <trkpt lat="42.8675170" lon="-8.4445660">
        <ele>418.4</ele>
        <time>2021-03-03T12:27:57Z</time>
      </trkpt>
      <trkpt lat="42.8675500" lon="-8.4445560">
        <ele>418.4</ele>
        <time>2021-03-03T12:27:58Z</time>
      </trkpt>
      <trkpt lat="42.8675710" lon="-8.4445520">
        <ele>418.6</ele>
        <time>2021-03-03T12:27:59Z</time>
      </trkpt>
      <trkpt lat="42.8676020" lon="-8.4445430">
        <ele>418.6</ele>
        <time>2021-03-03T12:28:00Z</time>
      </trkpt>
      <trkpt lat="42.8676300" lon="-8.4445370">
        <ele>418.6</ele>
        <time>2021-03-03T12:28:01Z</time>
      </trkpt>
      <trkpt lat="42.8676580" lon="-8.4445290">
        <ele>418.8</ele>
        <time>2021-03-03T12:28:02Z</time>
      </trkpt>
      <trkpt lat="42.8676840" lon="-8.4445200">
        <ele>419.0</ele>
        <time>2021-03-03T12:28:03Z</time>
      </trkpt>
      <trkpt lat="42.8677090" lon="-8.4445100">
        <ele>419.0</ele>
        <time>2021-03-03T12:28:04Z</time>
      </trkpt>
      <trkpt lat="42.8677340" lon="-8.4444980">
        <ele>419.0</ele>
        <time>2021-03-03T12:28:05Z</time>
      </trkpt>
      <trkpt lat="42.8677610" lon="-8.4444810">
        <ele>419.0</ele>
        <time>2021-03-03T12:28:06Z</time>
      </trkpt>
      <trkpt lat="42.8677880" lon="-8.4444640">
        <ele>419.2</ele>
        <time>2021-03-03T12:28:07Z</time>
      </trkpt>
      <trkpt lat="42.8678120" lon="-8.4444420">
        <ele>419.4</ele>
        <time>2021-03-03T12:28:08Z</time>
      </trkpt>
      <trkpt lat="42.8678340" lon="-8.4444240">
        <ele>419.6</ele>
        <time>2021-03-03T12:28:09Z</time>
      </trkpt>
      <trkpt lat="42.8678490" lon="-8.4444130">
        <ele>419.8</ele>
        <time>2021-03-03T12:28:10Z</time>
      </trkpt>
      <trkpt lat="42.8678660" lon="-8.4443960">
        <ele>419.8</ele>
        <time>2021-03-03T12:28:11Z</time>
      </trkpt>
      <trkpt lat="42.8678660" lon="-8.4443960">
        <ele>420.0</ele>
        <time>2021-03-03T12:28:12Z</time>
      </trkpt>
      <trkpt lat="42.8679000" lon="-8.4443530">
        <ele>420.2</ele>
        <time>2021-03-03T12:28:13Z</time>
      </trkpt>
      <trkpt lat="42.8679150" lon="-8.4443260">
        <ele>420.2</ele>
        <time>2021-03-03T12:28:14Z</time>
      </trkpt>
      <trkpt lat="42.8679250" lon="-8.4443010">
        <ele>420.4</ele>
        <time>2021-03-03T12:28:15Z</time>
      </trkpt>
      <trkpt lat="42.8679430" lon="-8.4442800">
        <ele>420.4</ele>
        <time>2021-03-03T12:28:16Z</time>
      </trkpt>
      <trkpt lat="42.8679680" lon="-8.4442600">
        <ele>420.8</ele>
        <time>2021-03-03T12:28:17Z</time>
      </trkpt>
      <trkpt lat="42.8679920" lon="-8.4442420">
        <ele>421.0</ele>
        <time>2021-03-03T12:28:18Z</time>
      </trkpt>
      <trkpt lat="42.8680190" lon="-8.4442210">
        <ele>421.2</ele>
        <time>2021-03-03T12:28:19Z</time>
      </trkpt>
      <trkpt lat="42.8680450" lon="-8.4442060">
        <ele>421.2</ele>
        <time>2021-03-03T12:28:20Z</time>
      </trkpt>
      <trkpt lat="42.8680660" lon="-8.4441840">
        <ele>421.2</ele>
        <time>2021-03-03T12:28:21Z</time>
      </trkpt>
      <trkpt lat="42.8680840" lon="-8.4441590">
        <ele>421.4</ele>
        <time>2021-03-03T12:28:22Z</time>
      </trkpt>
      <trkpt lat="42.8681080" lon="-8.4441370">
        <ele>421.4</ele>
        <time>2021-03-03T12:28:23Z</time>
      </trkpt>
      <trkpt lat="42.8681240" lon="-8.4441140">
        <ele>421.4</ele>
        <time>2021-03-03T12:28:24Z</time>
      </trkpt>
      <trkpt lat="42.8681390" lon="-8.4440910">
        <ele>421.4</ele>
        <time>2021-03-03T12:28:25Z</time>
      </trkpt>
      <trkpt lat="42.8681530" lon="-8.4440550">
        <ele>421.4</ele>
        <time>2021-03-03T12:28:26Z</time>
      </trkpt>
      <trkpt lat="42.8681690" lon="-8.4440210">
        <ele>421.4</ele>
        <time>2021-03-03T12:28:27Z</time>
      </trkpt>
      <trkpt lat="42.8681850" lon="-8.4439900">
        <ele>421.4</ele>
        <time>2021-03-03T12:28:28Z</time>
      </trkpt>
      <trkpt lat="42.8681980" lon="-8.4439580">
        <ele>421.4</ele>
        <time>2021-03-03T12:28:29Z</time>
      </trkpt>
      <trkpt lat="42.8682100" lon="-8.4439280">
        <ele>421.4</ele>
        <time>2021-03-03T12:28:30Z</time>
      </trkpt>
      <trkpt lat="42.8682260" lon="-8.4439020">
        <ele>421.4</ele>
        <time>2021-03-03T12:28:31Z</time>
      </trkpt>
      <trkpt lat="42.8682420" lon="-8.4438760">
        <ele>421.4</ele>
        <time>2021-03-03T12:28:32Z</time>
      </trkpt>
      <trkpt lat="42.8682580" lon="-8.4438510">
        <ele>421.4</ele>
        <time>2021-03-03T12:28:33Z</time>
      </trkpt>
      <trkpt lat="42.8682790" lon="-8.4438260">
        <ele>421.4</ele>
        <time>2021-03-03T12:28:34Z</time>
      </trkpt>
      <trkpt lat="42.8682960" lon="-8.4437990">
        <ele>421.4</ele>
        <time>2021-03-03T12:28:35Z</time>
      </trkpt>
      <trkpt lat="42.8683110" lon="-8.4437760">
        <ele>421.4</ele>
        <time>2021-03-03T12:28:36Z</time>
      </trkpt>
      <trkpt lat="42.8683260" lon="-8.4437500">
        <ele>421.6</ele>
        <time>2021-03-03T12:28:37Z</time>
      </trkpt>
      <trkpt lat="42.8683470" lon="-8.4437250">
        <ele>421.6</ele>
        <time>2021-03-03T12:28:38Z</time>
      </trkpt>
      <trkpt lat="42.8683470" lon="-8.4437250">
        <ele>421.8</ele>
        <time>2021-03-03T12:28:39Z</time>
      </trkpt>
      <trkpt lat="42.8684060" lon="-8.4436800">
        <ele>421.8</ele>
        <time>2021-03-03T12:28:40Z</time>
      </trkpt>
      <trkpt lat="42.8684250" lon="-8.4436540">
        <ele>422.0</ele>
        <time>2021-03-03T12:28:41Z</time>
      </trkpt>
      <trkpt lat="42.8684370" lon="-8.4436330">
        <ele>422.0</ele>
        <time>2021-03-03T12:28:42Z</time>
      </trkpt>
      <trkpt lat="42.8684590" lon="-8.4436110">
        <ele>422.0</ele>
        <time>2021-03-03T12:28:43Z</time>
      </trkpt>
      <trkpt lat="42.8684860" lon="-8.4435870">
        <ele>422.0</ele>
        <time>2021-03-03T12:28:44Z</time>
      </trkpt>
      <trkpt lat="42.8685070" lon="-8.4435620">
        <ele>422.0</ele>
        <time>2021-03-03T12:28:45Z</time>
      </trkpt>
      <trkpt lat="42.8685250" lon="-8.4435340">
        <ele>422.0</ele>
        <time>2021-03-03T12:28:46Z</time>
      </trkpt>
      <trkpt lat="42.8685410" lon="-8.4435030">
        <ele>421.8</ele>
        <time>2021-03-03T12:28:47Z</time>
      </trkpt>
      <trkpt lat="42.8685670" lon="-8.4434740">
        <ele>422.0</ele>
        <time>2021-03-03T12:28:48Z</time>
      </trkpt>
      <trkpt lat="42.8685970" lon="-8.4434440">
        <ele>422.0</ele>
        <time>2021-03-03T12:28:49Z</time>
      </trkpt>
      <trkpt lat="42.8686220" lon="-8.4434190">
        <ele>422.0</ele>
        <time>2021-03-03T12:28:50Z</time>
      </trkpt>
      <trkpt lat="42.8686430" lon="-8.4433880">
        <ele>422.0</ele>
        <time>2021-03-03T12:28:51Z</time>
      </trkpt>
      <trkpt lat="42.8686660" lon="-8.4433520">
        <ele>422.0</ele>
        <time>2021-03-03T12:28:52Z</time>
      </trkpt>
      <trkpt lat="42.8686900" lon="-8.4433280">
        <ele>422.0</ele>
        <time>2021-03-03T12:28:53Z</time>
      </trkpt>
      <trkpt lat="42.8687140" lon="-8.4433080">
        <ele>421.8</ele>
        <time>2021-03-03T12:28:54Z</time>
      </trkpt>
      <trkpt lat="42.8687400" lon="-8.4432930">
        <ele>421.8</ele>
        <time>2021-03-03T12:28:55Z</time>
      </trkpt>
      <trkpt lat="42.8687860" lon="-8.4432640">
        <ele>421.8</ele>
        <time>2021-03-03T12:28:56Z</time>
      </trkpt>
      <trkpt lat="42.8688100" lon="-8.4432440">
        <ele>421.8</ele>
        <time>2021-03-03T12:28:57Z</time>
      </trkpt>
      <trkpt lat="42.8688370" lon="-8.4432160">
        <ele>421.8</ele>
        <time>2021-03-03T12:28:58Z</time>
      </trkpt>
      <trkpt lat="42.8688610" lon="-8.4431900">
        <ele>421.8</ele>
        <time>2021-03-03T12:28:59Z</time>
      </trkpt>
      <trkpt lat="42.8688810" lon="-8.4431660">
        <ele>421.8</ele>
        <time>2021-03-03T12:29:00Z</time>
      </trkpt>
      <trkpt lat="42.8689070" lon="-8.4431440">
        <ele>421.8</ele>
        <time>2021-03-03T12:29:01Z</time>
      </trkpt>
      <trkpt lat="42.8689370" lon="-8.4431170">
        <ele>421.8</ele>
        <time>2021-03-03T12:29:02Z</time>
      </trkpt>
      <trkpt lat="42.8689600" lon="-8.4430890">
        <ele>421.8</ele>
        <time>2021-03-03T12:29:03Z</time>
      </trkpt>
      <trkpt lat="42.8689810" lon="-8.4430640">
        <ele>421.8</ele>
        <time>2021-03-03T12:29:04Z</time>
      </trkpt>
      <trkpt lat="42.8690080" lon="-8.4430470">
        <ele>421.8</ele>
        <time>2021-03-03T12:29:05Z</time>
      </trkpt>
      <trkpt lat="42.8690310" lon="-8.4430250">
        <ele>421.8</ele>
        <time>2021-03-03T12:29:06Z</time>
      </trkpt>
      <trkpt lat="42.8690530" lon="-8.4430020">
        <ele>421.8</ele>
        <time>2021-03-03T12:29:07Z</time>
      </trkpt>
      <trkpt lat="42.8690750" lon="-8.4429790">
        <ele>422.0</ele>
        <time>2021-03-03T12:29:08Z</time>
      </trkpt>
      <trkpt lat="42.8691000" lon="-8.4429580">
        <ele>422.0</ele>
        <time>2021-03-03T12:29:09Z</time>
      </trkpt>
      <trkpt lat="42.8691280" lon="-8.4429400">
        <ele>422.2</ele>
        <time>2021-03-03T12:29:10Z</time>
      </trkpt>
      <trkpt lat="42.8691540" lon="-8.4429230">
        <ele>422.2</ele>
        <time>2021-03-03T12:29:11Z</time>
      </trkpt>
      <trkpt lat="42.8691820" lon="-8.4429100">
        <ele>422.4</ele>
        <time>2021-03-03T12:29:12Z</time>
      </trkpt>
      <trkpt lat="42.8692090" lon="-8.4428980">
        <ele>422.6</ele>
        <time>2021-03-03T12:29:13Z</time>
      </trkpt>
      <trkpt lat="42.8692350" lon="-8.4428890">
        <ele>422.6</ele>
        <time>2021-03-03T12:29:14Z</time>
      </trkpt>
      <trkpt lat="42.8692600" lon="-8.4428810">
        <ele>422.8</ele>
        <time>2021-03-03T12:29:15Z</time>
      </trkpt>
      <trkpt lat="42.8692890" lon="-8.4428740">
        <ele>422.8</ele>
        <time>2021-03-03T12:29:16Z</time>
      </trkpt>
      <trkpt lat="42.8693130" lon="-8.4428710">
        <ele>423.0</ele>
        <time>2021-03-03T12:29:17Z</time>
      </trkpt>
      <trkpt lat="42.8693370" lon="-8.4428720">
        <ele>423.2</ele>
        <time>2021-03-03T12:29:18Z</time>
      </trkpt>
      <trkpt lat="42.8693620" lon="-8.4428630">
        <ele>423.2</ele>
        <time>2021-03-03T12:29:19Z</time>
      </trkpt>
      <trkpt lat="42.8693850" lon="-8.4428570">
        <ele>423.4</ele>
        <time>2021-03-03T12:29:20Z</time>
      </trkpt>
      <trkpt lat="42.8694150" lon="-8.4428500">
        <ele>423.6</ele>
        <time>2021-03-03T12:29:21Z</time>
      </trkpt>
      <trkpt lat="42.8694430" lon="-8.4428480">
        <ele>423.6</ele>
        <time>2021-03-03T12:29:22Z</time>
      </trkpt>
      <trkpt lat="42.8694700" lon="-8.4428420">
        <ele>424.0</ele>
        <time>2021-03-03T12:29:23Z</time>
      </trkpt>
      <trkpt lat="42.8694970" lon="-8.4428390">
        <ele>424.0</ele>
        <time>2021-03-03T12:29:24Z</time>
      </trkpt>
      <trkpt lat="42.8695280" lon="-8.4428420">
        <ele>424.2</ele>
        <time>2021-03-03T12:29:25Z</time>
      </trkpt>
      <trkpt lat="42.8695560" lon="-8.4428480">
        <ele>424.4</ele>
        <time>2021-03-03T12:29:26Z</time>
      </trkpt>
      <trkpt lat="42.8695800" lon="-8.4428490">
        <ele>424.6</ele>
        <time>2021-03-03T12:29:27Z</time>
      </trkpt>
      <trkpt lat="42.8695990" lon="-8.4428540">
        <ele>424.8</ele>
        <time>2021-03-03T12:29:28Z</time>
      </trkpt>
      <trkpt lat="42.8696230" lon="-8.4428590">
        <ele>424.8</ele>
        <time>2021-03-03T12:29:29Z</time>
      </trkpt>
      <trkpt lat="42.8696480" lon="-8.4428610">
        <ele>424.8</ele>
        <time>2021-03-03T12:29:30Z</time>
      </trkpt>
      <trkpt lat="42.8696770" lon="-8.4428580">
        <ele>425.0</ele>
        <time>2021-03-03T12:29:31Z</time>
      </trkpt>
      <trkpt lat="42.8697030" lon="-8.4428680">
        <ele>425.2</ele>
        <time>2021-03-03T12:29:32Z</time>
      </trkpt>
      <trkpt lat="42.8697400" lon="-8.4428740">
        <ele>425.2</ele>
        <time>2021-03-03T12:29:33Z</time>
      </trkpt>
      <trkpt lat="42.8697680" lon="-8.4428780">
        <ele>425.2</ele>
        <time>2021-03-03T12:29:34Z</time>
      </trkpt>
      <trkpt lat="42.8697950" lon="-8.4428780">
        <ele>425.4</ele>
        <time>2021-03-03T12:29:35Z</time>
      </trkpt>
      <trkpt lat="42.8698210" lon="-8.4428750">
        <ele>425.4</ele>
        <time>2021-03-03T12:29:36Z</time>
      </trkpt>
      <trkpt lat="42.8698480" lon="-8.4428730">
        <ele>425.4</ele>
        <time>2021-03-03T12:29:37Z</time>
      </trkpt>
      <trkpt lat="42.8698720" lon="-8.4428660">
        <ele>425.4</ele>
        <time>2021-03-03T12:29:38Z</time>
      </trkpt>
      <trkpt lat="42.8698930" lon="-8.4428610">
        <ele>425.4</ele>
        <time>2021-03-03T12:29:39Z</time>
      </trkpt>
      <trkpt lat="42.8699200" lon="-8.4428600">
        <ele>425.6</ele>
        <time>2021-03-03T12:29:40Z</time>
      </trkpt>
      <trkpt lat="42.8699470" lon="-8.4428610">
        <ele>425.6</ele>
        <time>2021-03-03T12:29:41Z</time>
      </trkpt>
      <trkpt lat="42.8699770" lon="-8.4428620">
        <ele>425.6</ele>
        <time>2021-03-03T12:29:42Z</time>
      </trkpt>
      <trkpt lat="42.8700000" lon="-8.4428650">
        <ele>425.6</ele>
        <time>2021-03-03T12:29:43Z</time>
      </trkpt>
      <trkpt lat="42.8700220" lon="-8.4428650">
        <ele>425.8</ele>
        <time>2021-03-03T12:29:44Z</time>
      </trkpt>
      <trkpt lat="42.8700420" lon="-8.4428670">
        <ele>426.0</ele>
        <time>2021-03-03T12:29:45Z</time>
      </trkpt>
      <trkpt lat="42.8700690" lon="-8.4428700">
        <ele>426.0</ele>
        <time>2021-03-03T12:29:46Z</time>
      </trkpt>
      <trkpt lat="42.8700930" lon="-8.4428750">
        <ele>426.2</ele>
        <time>2021-03-03T12:29:47Z</time>
      </trkpt>
      <trkpt lat="42.8700930" lon="-8.4428750">
        <ele>426.2</ele>
        <time>2021-03-03T12:29:48Z</time>
      </trkpt>
      <trkpt lat="42.8701220" lon="-8.4428770">
        <ele>426.2</ele>
        <time>2021-03-03T12:29:49Z</time>
      </trkpt>
      <trkpt lat="42.8701680" lon="-8.4428760">
        <ele>426.4</ele>
        <time>2021-03-03T12:29:50Z</time>
      </trkpt>
      <trkpt lat="42.8701920" lon="-8.4428730">
        <ele>426.4</ele>
        <time>2021-03-03T12:29:51Z</time>
      </trkpt>
      <trkpt lat="42.8702130" lon="-8.4428700">
        <ele>426.4</ele>
        <time>2021-03-03T12:29:52Z</time>
      </trkpt>
      <trkpt lat="42.8702410" lon="-8.4428710">
        <ele>426.6</ele>
        <time>2021-03-03T12:29:53Z</time>
      </trkpt>
      <trkpt lat="42.8702700" lon="-8.4428740">
        <ele>426.4</ele>
        <time>2021-03-03T12:29:54Z</time>
      </trkpt>
      <trkpt lat="42.8702970" lon="-8.4428770">
        <ele>426.6</ele>
        <time>2021-03-03T12:29:55Z</time>
      </trkpt>
      <trkpt lat="42.8703200" lon="-8.4428760">
        <ele>426.4</ele>
        <time>2021-03-03T12:29:56Z</time>
      </trkpt>
      <trkpt lat="42.8703460" lon="-8.4428800">
        <ele>426.4</ele>
        <time>2021-03-03T12:29:57Z</time>
      </trkpt>
      <trkpt lat="42.8703750" lon="-8.4428790">
        <ele>426.4</ele>
        <time>2021-03-03T12:29:58Z</time>
      </trkpt>
      <trkpt lat="42.8703980" lon="-8.4428760">
        <ele>426.4</ele>
        <time>2021-03-03T12:29:59Z</time>
      </trkpt>
      <trkpt lat="42.8704250" lon="-8.4428740">
        <ele>426.2</ele>
        <time>2021-03-03T12:30:00Z</time>
      </trkpt>
      <trkpt lat="42.8704540" lon="-8.4428720">
        <ele>426.2</ele>
        <time>2021-03-03T12:30:01Z</time>
      </trkpt>
      <trkpt lat="42.8704820" lon="-8.4428810">
        <ele>426.2</ele>
        <time>2021-03-03T12:30:02Z</time>
      </trkpt>
      <trkpt lat="42.8705070" lon="-8.4428920">
        <ele>426.0</ele>
        <time>2021-03-03T12:30:03Z</time>
      </trkpt>
      <trkpt lat="42.8705420" lon="-8.4429050">
        <ele>426.0</ele>
        <time>2021-03-03T12:30:04Z</time>
      </trkpt>
      <trkpt lat="42.8705610" lon="-8.4429130">
        <ele>425.8</ele>
        <time>2021-03-03T12:30:05Z</time>
      </trkpt>
      <trkpt lat="42.8705840" lon="-8.4429220">
        <ele>425.8</ele>
        <time>2021-03-03T12:30:06Z</time>
      </trkpt>
      <trkpt lat="42.8706100" lon="-8.4429260">
        <ele>425.8</ele>
        <time>2021-03-03T12:30:07Z</time>
      </trkpt>
      <trkpt lat="42.8706300" lon="-8.4429360">
        <ele>425.8</ele>
        <time>2021-03-03T12:30:08Z</time>
      </trkpt>
      <trkpt lat="42.8706520" lon="-8.4429530">
        <ele>425.8</ele>
        <time>2021-03-03T12:30:09Z</time>
      </trkpt>
      <trkpt lat="42.8706800" lon="-8.4429660">
        <ele>425.8</ele>
        <time>2021-03-03T12:30:10Z</time>
      </trkpt>
      <trkpt lat="42.8707080" lon="-8.4429740">
        <ele>426.0</ele>
        <time>2021-03-03T12:30:11Z</time>
      </trkpt>
      <trkpt lat="42.8707370" lon="-8.4429900">
        <ele>426.0</ele>
        <time>2021-03-03T12:30:12Z</time>
      </trkpt>
      <trkpt lat="42.8707660" lon="-8.4430030">
        <ele>426.0</ele>
        <time>2021-03-03T12:30:13Z</time>
      </trkpt>
      <trkpt lat="42.8707890" lon="-8.4430350">
        <ele>426.0</ele>
        <time>2021-03-03T12:30:14Z</time>
      </trkpt>
      <trkpt lat="42.8708180" lon="-8.4430400">
        <ele>426.0</ele>
        <time>2021-03-03T12:30:15Z</time>
      </trkpt>
      <trkpt lat="42.8708440" lon="-8.4430430">
        <ele>426.0</ele>
        <time>2021-03-03T12:30:16Z</time>
      </trkpt>
      <trkpt lat="42.8708440" lon="-8.4430430">
        <ele>426.2</ele>
        <time>2021-03-03T12:30:17Z</time>
      </trkpt>
      <trkpt lat="42.8708970" lon="-8.4430570">
        <ele>426.0</ele>
        <time>2021-03-03T12:30:18Z</time>
      </trkpt>
      <trkpt lat="42.8709420" lon="-8.4430670">
        <ele>426.2</ele>
        <time>2021-03-03T12:30:19Z</time>
      </trkpt>
      <trkpt lat="42.8709800" lon="-8.4430560">
        <ele>426.2</ele>
        <time>2021-03-03T12:30:20Z</time>
      </trkpt>
      <trkpt lat="42.8710150" lon="-8.4430580">
        <ele>426.2</ele>
        <time>2021-03-03T12:30:21Z</time>
      </trkpt>
      <trkpt lat="42.8710480" lon="-8.4430630">
        <ele>426.2</ele>
        <time>2021-03-03T12:30:22Z</time>
      </trkpt>
      <trkpt lat="42.8710720" lon="-8.4430710">
        <ele>426.2</ele>
        <time>2021-03-03T12:30:23Z</time>
      </trkpt>
      <trkpt lat="42.8711030" lon="-8.4430730">
        <ele>426.2</ele>
        <time>2021-03-03T12:30:24Z</time>
      </trkpt>
      <trkpt lat="42.8711420" lon="-8.4430800">
        <ele>426.2</ele>
        <time>2021-03-03T12:30:25Z</time>
      </trkpt>
      <trkpt lat="42.8711670" lon="-8.4430770">
        <ele>426.4</ele>
        <time>2021-03-03T12:30:26Z</time>
      </trkpt>
      <trkpt lat="42.8711920" lon="-8.4430710">
        <ele>426.4</ele>
        <time>2021-03-03T12:30:27Z</time>
      </trkpt>
      <trkpt lat="42.8712160" lon="-8.4430710">
        <ele>426.4</ele>
        <time>2021-03-03T12:30:28Z</time>
      </trkpt>
      <trkpt lat="42.8712440" lon="-8.4430740">
        <ele>426.4</ele>
        <time>2021-03-03T12:30:29Z</time>
      </trkpt>
      <trkpt lat="42.8712780" lon="-8.4430820">
        <ele>426.4</ele>
        <time>2021-03-03T12:30:30Z</time>
      </trkpt>
      <trkpt lat="42.8713120" lon="-8.4430860">
        <ele>426.6</ele>
        <time>2021-03-03T12:30:31Z</time>
      </trkpt>
      <trkpt lat="42.8713350" lon="-8.4430870">
        <ele>426.6</ele>
        <time>2021-03-03T12:30:32Z</time>
      </trkpt>
      <trkpt lat="42.8713650" lon="-8.4430820">
        <ele>426.6</ele>
        <time>2021-03-03T12:30:33Z</time>
      </trkpt>
      <trkpt lat="42.8714000" lon="-8.4430740">
        <ele>426.6</ele>
        <time>2021-03-03T12:30:34Z</time>
      </trkpt>
      <trkpt lat="42.8714290" lon="-8.4430740">
        <ele>426.6</ele>
        <time>2021-03-03T12:30:35Z</time>
      </trkpt>
      <trkpt lat="42.8714560" lon="-8.4430790">
        <ele>426.6</ele>
        <time>2021-03-03T12:30:36Z</time>
      </trkpt>
      <trkpt lat="42.8714800" lon="-8.4430820">
        <ele>426.6</ele>
        <time>2021-03-03T12:30:37Z</time>
      </trkpt>
      <trkpt lat="42.8715100" lon="-8.4430840">
        <ele>426.6</ele>
        <time>2021-03-03T12:30:38Z</time>
      </trkpt>
      <trkpt lat="42.8715420" lon="-8.4430880">
        <ele>426.8</ele>
        <time>2021-03-03T12:30:39Z</time>
      </trkpt>
      <trkpt lat="42.8715720" lon="-8.4430890">
        <ele>426.8</ele>
        <time>2021-03-03T12:30:40Z</time>
      </trkpt>
      <trkpt lat="42.8716040" lon="-8.4430830">
        <ele>426.8</ele>
        <time>2021-03-03T12:30:41Z</time>
      </trkpt>
      <trkpt lat="42.8716310" lon="-8.4430690">
        <ele>426.8</ele>
        <time>2021-03-03T12:30:42Z</time>
      </trkpt>
      <trkpt lat="42.8716630" lon="-8.4430500">
        <ele>426.8</ele>
        <time>2021-03-03T12:30:43Z</time>
      </trkpt>
      <trkpt lat="42.8716880" lon="-8.4430390">
        <ele>426.8</ele>
        <time>2021-03-03T12:30:44Z</time>
      </trkpt>
      <trkpt lat="42.8717140" lon="-8.4430260">
        <ele>426.8</ele>
        <time>2021-03-03T12:30:45Z</time>
      </trkpt>
      <trkpt lat="42.8717460" lon="-8.4430090">
        <ele>427.0</ele>
        <time>2021-03-03T12:30:46Z</time>
      </trkpt>
      <trkpt lat="42.8717690" lon="-8.4429960">
        <ele>427.0</ele>
        <time>2021-03-03T12:30:47Z</time>
      </trkpt>
      <trkpt lat="42.8718010" lon="-8.4429770">
        <ele>427.0</ele>
        <time>2021-03-03T12:30:48Z</time>
      </trkpt>
      <trkpt lat="42.8718290" lon="-8.4429610">
        <ele>427.2</ele>
        <time>2021-03-03T12:30:49Z</time>
      </trkpt>
      <trkpt lat="42.8718530" lon="-8.4429440">
        <ele>427.2</ele>
        <time>2021-03-03T12:30:50Z</time>
      </trkpt>
      <trkpt lat="42.8718790" lon="-8.4429260">
        <ele>427.2</ele>
        <time>2021-03-03T12:30:51Z</time>
      </trkpt>
      <trkpt lat="42.8719070" lon="-8.4429070">
        <ele>427.2</ele>
        <time>2021-03-03T12:30:52Z</time>
      </trkpt>
      <trkpt lat="42.8719330" lon="-8.4428880">
        <ele>427.2</ele>
        <time>2021-03-03T12:30:53Z</time>
      </trkpt>
      <trkpt lat="42.8719590" lon="-8.4428700">
        <ele>427.2</ele>
        <time>2021-03-03T12:30:54Z</time>
      </trkpt>
      <trkpt lat="42.8719860" lon="-8.4428530">
        <ele>427.4</ele>
        <time>2021-03-03T12:30:55Z</time>
      </trkpt>
      <trkpt lat="42.8720140" lon="-8.4428370">
        <ele>427.4</ele>
        <time>2021-03-03T12:30:56Z</time>
      </trkpt>
      <trkpt lat="42.8720420" lon="-8.4428220">
        <ele>427.4</ele>
        <time>2021-03-03T12:30:57Z</time>
      </trkpt>
      <trkpt lat="42.8720690" lon="-8.4428060">
        <ele>427.4</ele>
        <time>2021-03-03T12:30:58Z</time>
      </trkpt>
      <trkpt lat="42.8720970" lon="-8.4427940">
        <ele>427.4</ele>
        <time>2021-03-03T12:30:59Z</time>
      </trkpt>
      <trkpt lat="42.8720970" lon="-8.4427940">
        <ele>427.4</ele>
        <time>2021-03-03T12:31:00Z</time>
      </trkpt>
      <trkpt lat="42.8721520" lon="-8.4427600">
        <ele>427.4</ele>
        <time>2021-03-03T12:31:01Z</time>
      </trkpt>
      <trkpt lat="42.8721800" lon="-8.4427430">
        <ele>427.4</ele>
        <time>2021-03-03T12:31:02Z</time>
      </trkpt>
      <trkpt lat="42.8722070" lon="-8.4427250">
        <ele>427.4</ele>
        <time>2021-03-03T12:31:03Z</time>
      </trkpt>
      <trkpt lat="42.8722330" lon="-8.4427080">
        <ele>427.4</ele>
        <time>2021-03-03T12:31:04Z</time>
      </trkpt>
      <trkpt lat="42.8722580" lon="-8.4426900">
        <ele>427.4</ele>
        <time>2021-03-03T12:31:05Z</time>
      </trkpt>
      <trkpt lat="42.8722860" lon="-8.4426690">
        <ele>427.4</ele>
        <time>2021-03-03T12:31:06Z</time>
      </trkpt>
      <trkpt lat="42.8723170" lon="-8.4426410">
        <ele>427.4</ele>
        <time>2021-03-03T12:31:07Z</time>
      </trkpt>
      <trkpt lat="42.8723350" lon="-8.4426230">
        <ele>427.6</ele>
        <time>2021-03-03T12:31:08Z</time>
      </trkpt>
      <trkpt lat="42.8723580" lon="-8.4426020">
        <ele>427.6</ele>
        <time>2021-03-03T12:31:09Z</time>
      </trkpt>
      <trkpt lat="42.8723840" lon="-8.4425820">
        <ele>427.4</ele>
        <time>2021-03-03T12:31:10Z</time>
      </trkpt>
      <trkpt lat="42.8724080" lon="-8.4425630">
        <ele>427.6</ele>
        <time>2021-03-03T12:31:11Z</time>
      </trkpt>
      <trkpt lat="42.8724350" lon="-8.4425430">
        <ele>427.6</ele>
        <time>2021-03-03T12:31:12Z</time>
      </trkpt>
      <trkpt lat="42.8724600" lon="-8.4425220">
        <ele>427.4</ele>
        <time>2021-03-03T12:31:13Z</time>
      </trkpt>
      <trkpt lat="42.8724860" lon="-8.4425050">
        <ele>427.4</ele>
        <time>2021-03-03T12:31:14Z</time>
      </trkpt>
      <trkpt lat="42.8725110" lon="-8.4424880">
        <ele>427.4</ele>
        <time>2021-03-03T12:31:15Z</time>
      </trkpt>
      <trkpt lat="42.8725360" lon="-8.4424690">
        <ele>427.4</ele>
        <time>2021-03-03T12:31:16Z</time>
      </trkpt>
      <trkpt lat="42.8725580" lon="-8.4424500">
        <ele>427.6</ele>
        <time>2021-03-03T12:31:17Z</time>
      </trkpt>
      <trkpt lat="42.8725840" lon="-8.4424300">
        <ele>427.6</ele>
        <time>2021-03-03T12:31:18Z</time>
      </trkpt>
      <trkpt lat="42.8726100" lon="-8.4424130">
        <ele>427.6</ele>
        <time>2021-03-03T12:31:19Z</time>
      </trkpt>
      <trkpt lat="42.8726360" lon="-8.4423940">
        <ele>427.8</ele>
        <time>2021-03-03T12:31:20Z</time>
      </trkpt>
      <trkpt lat="42.8726620" lon="-8.4423750">
        <ele>427.8</ele>
        <time>2021-03-03T12:31:21Z</time>
      </trkpt>
      <trkpt lat="42.8726900" lon="-8.4423530">
        <ele>427.8</ele>
        <time>2021-03-03T12:31:22Z</time>
      </trkpt>
      <trkpt lat="42.8727170" lon="-8.4423340">
        <ele>427.8</ele>
        <time>2021-03-03T12:31:23Z</time>
      </trkpt>
      <trkpt lat="42.8727400" lon="-8.4423160">
        <ele>427.8</ele>
        <time>2021-03-03T12:31:24Z</time>
      </trkpt>
      <trkpt lat="42.8727690" lon="-8.4422990">
        <ele>427.8</ele>
        <time>2021-03-03T12:31:25Z</time>
      </trkpt>
      <trkpt lat="42.8727950" lon="-8.4422820">
        <ele>427.8</ele>
        <time>2021-03-03T12:31:26Z</time>
      </trkpt>
      <trkpt lat="42.8728240" lon="-8.4422620">
        <ele>427.8</ele>
        <time>2021-03-03T12:31:27Z</time>
      </trkpt>
      <trkpt lat="42.8728550" lon="-8.4422400">
        <ele>427.8</ele>
        <time>2021-03-03T12:31:28Z</time>
      </trkpt>
      <trkpt lat="42.8728730" lon="-8.4422270">
        <ele>427.8</ele>
        <time>2021-03-03T12:31:29Z</time>
      </trkpt>
      <trkpt lat="42.8728980" lon="-8.4422100">
        <ele>427.8</ele>
        <time>2021-03-03T12:31:30Z</time>
      </trkpt>
      <trkpt lat="42.8729230" lon="-8.4421890">
        <ele>427.6</ele>
        <time>2021-03-03T12:31:31Z</time>
      </trkpt>
      <trkpt lat="42.8729490" lon="-8.4421650">
        <ele>427.8</ele>
        <time>2021-03-03T12:31:32Z</time>
      </trkpt>
      <trkpt lat="42.8729700" lon="-8.4421520">
        <ele>427.6</ele>
        <time>2021-03-03T12:31:33Z</time>
      </trkpt>
      <trkpt lat="42.8730030" lon="-8.4421330">
        <ele>427.6</ele>
        <time>2021-03-03T12:31:34Z</time>
      </trkpt>
      <trkpt lat="42.8730240" lon="-8.4421210">
        <ele>427.4</ele>
        <time>2021-03-03T12:31:35Z</time>
      </trkpt>
      <trkpt lat="42.8730550" lon="-8.4421000">
        <ele>427.4</ele>
        <time>2021-03-03T12:31:36Z</time>
      </trkpt>
      <trkpt lat="42.8730770" lon="-8.4420850">
        <ele>427.4</ele>
        <time>2021-03-03T12:31:37Z</time>
      </trkpt>
      <trkpt lat="42.8731010" lon="-8.4420650">
        <ele>427.4</ele>
        <time>2021-03-03T12:31:38Z</time>
      </trkpt>
      <trkpt lat="42.8731230" lon="-8.4420430">
        <ele>427.4</ele>
        <time>2021-03-03T12:31:39Z</time>
      </trkpt>
      <trkpt lat="42.8731430" lon="-8.4420210">
        <ele>427.4</ele>
        <time>2021-03-03T12:31:40Z</time>
      </trkpt>
      <trkpt lat="42.8731700" lon="-8.4420090">
        <ele>427.4</ele>
        <time>2021-03-03T12:31:41Z</time>
      </trkpt>
      <trkpt lat="42.8731960" lon="-8.4420040">
        <ele>427.4</ele>
        <time>2021-03-03T12:31:42Z</time>
      </trkpt>
      <trkpt lat="42.8732260" lon="-8.4419960">
        <ele>427.4</ele>
        <time>2021-03-03T12:31:43Z</time>
      </trkpt>
      <trkpt lat="42.8732600" lon="-8.4419840">
        <ele>427.4</ele>
        <time>2021-03-03T12:31:44Z</time>
      </trkpt>
      <trkpt lat="42.8732870" lon="-8.4419740">
        <ele>427.4</ele>
        <time>2021-03-03T12:31:45Z</time>
      </trkpt>
      <trkpt lat="42.8733020" lon="-8.4419590">
        <ele>429.2</ele>
        <time>2021-03-03T12:47:38Z</time>
      </trkpt>
      <trkpt lat="42.8733070" lon="-8.4419860">
        <ele>429.4</ele>
        <time>2021-03-03T12:47:39Z</time>
      </trkpt>
      <trkpt lat="42.8733090" lon="-8.4420150">
        <ele>429.6</ele>
        <time>2021-03-03T12:47:40Z</time>
      </trkpt>
      <trkpt lat="42.8733120" lon="-8.4420460">
        <ele>429.6</ele>
        <time>2021-03-03T12:47:41Z</time>
      </trkpt>
      <trkpt lat="42.8733120" lon="-8.4420710">
        <ele>429.8</ele>
        <time>2021-03-03T12:47:42Z</time>
      </trkpt>
      <trkpt lat="42.8733130" lon="-8.4420930">
        <ele>429.8</ele>
        <time>2021-03-03T12:47:43Z</time>
      </trkpt>
      <trkpt lat="42.8733100" lon="-8.4421150">
        <ele>430.0</ele>
        <time>2021-03-03T12:47:44Z</time>
      </trkpt>
      <trkpt lat="42.8733050" lon="-8.4421410">
        <ele>430.0</ele>
        <time>2021-03-03T12:47:45Z</time>
      </trkpt>
      <trkpt lat="42.8732950" lon="-8.4421720">
        <ele>430.2</ele>
        <time>2021-03-03T12:47:46Z</time>
      </trkpt>
      <trkpt lat="42.8732920" lon="-8.4422020">
        <ele>430.4</ele>
        <time>2021-03-03T12:47:47Z</time>
      </trkpt>
      <trkpt lat="42.8732890" lon="-8.4422340">
        <ele>430.4</ele>
        <time>2021-03-03T12:47:48Z</time>
      </trkpt>
      <trkpt lat="42.8732860" lon="-8.4422650">
        <ele>430.6</ele>
        <time>2021-03-03T12:47:49Z</time>
      </trkpt>
      <trkpt lat="42.8732780" lon="-8.4422910">
        <ele>430.8</ele>
        <time>2021-03-03T12:47:50Z</time>
      </trkpt>
      <trkpt lat="42.8732730" lon="-8.4423160">
        <ele>430.8</ele>
        <time>2021-03-03T12:47:51Z</time>
      </trkpt>
      <trkpt lat="42.8732700" lon="-8.4423420">
        <ele>431.0</ele>
        <time>2021-03-03T12:47:52Z</time>
      </trkpt>
      <trkpt lat="42.8732680" lon="-8.4423680">
        <ele>431.4</ele>
        <time>2021-03-03T12:47:53Z</time>
      </trkpt>
      <trkpt lat="42.8732620" lon="-8.4423930">
        <ele>431.6</ele>
        <time>2021-03-03T12:47:54Z</time>
      </trkpt>
      <trkpt lat="42.8732550" lon="-8.4424160">
        <ele>431.8</ele>
        <time>2021-03-03T12:47:55Z</time>
      </trkpt>
      <trkpt lat="42.8732520" lon="-8.4424430">
        <ele>432.0</ele>
        <time>2021-03-03T12:47:56Z</time>
      </trkpt>
      <trkpt lat="42.8732490" lon="-8.4424700">
        <ele>432.2</ele>
        <time>2021-03-03T12:47:57Z</time>
      </trkpt>
      <trkpt lat="42.8732490" lon="-8.4424990">
        <ele>432.2</ele>
        <time>2021-03-03T12:47:58Z</time>
      </trkpt>
      <trkpt lat="42.8732460" lon="-8.4425240">
        <ele>432.4</ele>
        <time>2021-03-03T12:47:59Z</time>
      </trkpt>
      <trkpt lat="42.8732410" lon="-8.4425480">
        <ele>432.6</ele>
        <time>2021-03-03T12:48:00Z</time>
      </trkpt>
      <trkpt lat="42.8732350" lon="-8.4425770">
        <ele>432.8</ele>
        <time>2021-03-03T12:48:01Z</time>
      </trkpt>
      <trkpt lat="42.8732280" lon="-8.4426090">
        <ele>433.0</ele>
        <time>2021-03-03T12:48:02Z</time>
      </trkpt>
      <trkpt lat="42.8732230" lon="-8.4426350">
        <ele>433.2</ele>
        <time>2021-03-03T12:48:03Z</time>
      </trkpt>
      <trkpt lat="42.8732200" lon="-8.4426650">
        <ele>433.4</ele>
        <time>2021-03-03T12:48:04Z</time>
      </trkpt>
      <trkpt lat="42.8732170" lon="-8.4426900">
        <ele>433.6</ele>
        <time>2021-03-03T12:48:05Z</time>
      </trkpt>
      <trkpt lat="42.8732160" lon="-8.4427180">
        <ele>433.8</ele>
        <time>2021-03-03T12:48:06Z</time>
      </trkpt>
      <trkpt lat="42.8732150" lon="-8.4427480">
        <ele>434.2</ele>
        <time>2021-03-03T12:48:07Z</time>
      </trkpt>
      <trkpt lat="42.8732160" lon="-8.4427760">
        <ele>434.4</ele>
        <time>2021-03-03T12:48:08Z</time>
      </trkpt>
      <trkpt lat="42.8732160" lon="-8.4428050">
        <ele>434.6</ele>
        <time>2021-03-03T12:48:09Z</time>
      </trkpt>
      <trkpt lat="42.8732140" lon="-8.4428320">
        <ele>434.8</ele>
        <time>2021-03-03T12:48:10Z</time>
      </trkpt>
      <trkpt lat="42.8732080" lon="-8.4428570">
        <ele>435.0</ele>
        <time>2021-03-03T12:48:11Z</time>
      </trkpt>
      <trkpt lat="42.8732070" lon="-8.4428840">
        <ele>435.2</ele>
        <time>2021-03-03T12:48:12Z</time>
      </trkpt>
      <trkpt lat="42.8732060" lon="-8.4429110">
        <ele>435.4</ele>
        <time>2021-03-03T12:48:13Z</time>
      </trkpt>
      <trkpt lat="42.8732020" lon="-8.4429360">
        <ele>435.6</ele>
        <time>2021-03-03T12:48:14Z</time>
      </trkpt>
      <trkpt lat="42.8731940" lon="-8.4429660">
        <ele>435.8</ele>
        <time>2021-03-03T12:48:15Z</time>
      </trkpt>
      <trkpt lat="42.8731900" lon="-8.4429970">
        <ele>436.0</ele>
        <time>2021-03-03T12:48:16Z</time>
      </trkpt>
      <trkpt lat="42.8731860" lon="-8.4430240">
        <ele>436.2</ele>
        <time>2021-03-03T12:48:17Z</time>
      </trkpt>
      <trkpt lat="42.8731820" lon="-8.4430520">
        <ele>436.4</ele>
        <time>2021-03-03T12:48:18Z</time>
      </trkpt>
      <trkpt lat="42.8731750" lon="-8.4430780">
        <ele>436.6</ele>
        <time>2021-03-03T12:48:19Z</time>
      </trkpt>
      <trkpt lat="42.8731690" lon="-8.4431140">
        <ele>436.8</ele>
        <time>2021-03-03T12:48:20Z</time>
      </trkpt>
      <trkpt lat="42.8731610" lon="-8.4431360">
        <ele>437.0</ele>
        <time>2021-03-03T12:48:21Z</time>
      </trkpt>
      <trkpt lat="42.8731560" lon="-8.4431620">
        <ele>437.2</ele>
        <time>2021-03-03T12:48:22Z</time>
      </trkpt>
      <trkpt lat="42.8731480" lon="-8.4431840">
        <ele>437.6</ele>
        <time>2021-03-03T12:48:23Z</time>
      </trkpt>
      <trkpt lat="42.8731420" lon="-8.4432040">
        <ele>437.8</ele>
        <time>2021-03-03T12:48:24Z</time>
      </trkpt>
      <trkpt lat="42.8731390" lon="-8.4432250">
        <ele>437.8</ele>
        <time>2021-03-03T12:48:25Z</time>
      </trkpt>
      <trkpt lat="42.8731380" lon="-8.4432490">
        <ele>438.0</ele>
        <time>2021-03-03T12:48:26Z</time>
      </trkpt>
      <trkpt lat="42.8731320" lon="-8.4432700">
        <ele>438.0</ele>
        <time>2021-03-03T12:48:27Z</time>
      </trkpt>
      <trkpt lat="42.8731340" lon="-8.4432860">
        <ele>438.2</ele>
        <time>2021-03-03T12:48:28Z</time>
      </trkpt>
      <trkpt lat="42.8731280" lon="-8.4433030">
        <ele>438.6</ele>
        <time>2021-03-03T12:48:29Z</time>
      </trkpt>
      <trkpt lat="42.8731240" lon="-8.4433270">
        <ele>439.0</ele>
        <time>2021-03-03T12:48:30Z</time>
      </trkpt>
      <trkpt lat="42.8731210" lon="-8.4433520">
        <ele>439.2</ele>
        <time>2021-03-03T12:48:31Z</time>
      </trkpt>
      <trkpt lat="42.8731150" lon="-8.4433750">
        <ele>439.2</ele>
        <time>2021-03-03T12:48:32Z</time>
      </trkpt>
      <trkpt lat="42.8731100" lon="-8.4433940">
        <ele>439.4</ele>
        <time>2021-03-03T12:48:33Z</time>
      </trkpt>
      <trkpt lat="42.8731050" lon="-8.4434070">
        <ele>439.4</ele>
        <time>2021-03-03T12:48:34Z</time>
      </trkpt>
      <trkpt lat="42.8731000" lon="-8.4434210">
        <ele>439.6</ele>
        <time>2021-03-03T12:48:35Z</time>
      </trkpt>
      <trkpt lat="42.8730970" lon="-8.4434350">
        <ele>440.0</ele>
        <time>2021-03-03T12:48:36Z</time>
      </trkpt>
      <trkpt lat="42.8730910" lon="-8.4434470">
        <ele>440.2</ele>
        <time>2021-03-03T12:48:37Z</time>
      </trkpt>
      <trkpt lat="42.8730840" lon="-8.4434650">
        <ele>440.4</ele>
        <time>2021-03-03T12:48:38Z</time>
      </trkpt>
      <trkpt lat="42.8730840" lon="-8.4435000">
        <ele>440.8</ele>
        <time>2021-03-03T12:48:39Z</time>
      </trkpt>
      <trkpt lat="42.8730850" lon="-8.4435360">
        <ele>441.2</ele>
        <time>2021-03-03T12:48:40Z</time>
      </trkpt>
      <trkpt lat="42.8730850" lon="-8.4435570">
        <ele>441.4</ele>
        <time>2021-03-03T12:48:41Z</time>
      </trkpt>
      <trkpt lat="42.8730830" lon="-8.4435740">
        <ele>441.4</ele>
        <time>2021-03-03T12:48:42Z</time>
      </trkpt>
      <trkpt lat="42.8730800" lon="-8.4435900">
        <ele>441.8</ele>
        <time>2021-03-03T12:48:43Z</time>
      </trkpt>
      <trkpt lat="42.8730730" lon="-8.4436070">
        <ele>442.0</ele>
        <time>2021-03-03T12:48:44Z</time>
      </trkpt>
      <trkpt lat="42.8730700" lon="-8.4436260">
        <ele>442.2</ele>
        <time>2021-03-03T12:48:45Z</time>
      </trkpt>
      <trkpt lat="42.8730670" lon="-8.4436470">
        <ele>442.4</ele>
        <time>2021-03-03T12:48:46Z</time>
      </trkpt>
      <trkpt lat="42.8730610" lon="-8.4436680">
        <ele>442.8</ele>
        <time>2021-03-03T12:48:47Z</time>
      </trkpt>
      <trkpt lat="42.8730520" lon="-8.4436840">
        <ele>443.0</ele>
        <time>2021-03-03T12:48:48Z</time>
      </trkpt>
      <trkpt lat="42.8730450" lon="-8.4436970">
        <ele>443.2</ele>
        <time>2021-03-03T12:48:49Z</time>
      </trkpt>
      <trkpt lat="42.8730430" lon="-8.4437090">
        <ele>443.4</ele>
        <time>2021-03-03T12:48:50Z</time>
      </trkpt>
      <trkpt lat="42.8730450" lon="-8.4437180">
        <ele>443.6</ele>
        <time>2021-03-03T12:48:51Z</time>
      </trkpt>
      <trkpt lat="42.8730390" lon="-8.4437260">
        <ele>444.0</ele>
        <time>2021-03-03T12:48:52Z</time>
      </trkpt>
      <trkpt lat="42.8730290" lon="-8.4437310">
        <ele>444.2</ele>
        <time>2021-03-03T12:48:53Z</time>
      </trkpt>
      <trkpt lat="42.8730260" lon="-8.4437400">
        <ele>444.6</ele>
        <time>2021-03-03T12:48:54Z</time>
      </trkpt>
      <trkpt lat="42.8730280" lon="-8.4437530">
        <ele>444.8</ele>
        <time>2021-03-03T12:48:55Z</time>
      </trkpt>
      <trkpt lat="42.8730330" lon="-8.4437660">
        <ele>444.8</ele>
        <time>2021-03-03T12:48:56Z</time>
      </trkpt>
      <trkpt lat="42.8730340" lon="-8.4437770">
        <ele>445.0</ele>
        <time>2021-03-03T12:48:57Z</time>
      </trkpt>
      <trkpt lat="42.8730350" lon="-8.4437900">
        <ele>445.2</ele>
        <time>2021-03-03T12:48:58Z</time>
      </trkpt>
      <trkpt lat="42.8730370" lon="-8.4438060">
        <ele>445.2</ele>
        <time>2021-03-03T12:48:59Z</time>
      </trkpt>
      <trkpt lat="42.8730450" lon="-8.4438230">
        <ele>445.4</ele>
        <time>2021-03-03T12:49:00Z</time>
      </trkpt>
      <trkpt lat="42.8730450" lon="-8.4438450">
        <ele>445.6</ele>
        <time>2021-03-03T12:49:01Z</time>
      </trkpt>
      <trkpt lat="42.8730410" lon="-8.4438570">
        <ele>446.0</ele>
        <time>2021-03-03T12:49:02Z</time>
      </trkpt>
      <trkpt lat="42.8730360" lon="-8.4438770">
        <ele>446.0</ele>
        <time>2021-03-03T12:49:03Z</time>
      </trkpt>
      <trkpt lat="42.8730310" lon="-8.4438940">
        <ele>446.2</ele>
        <time>2021-03-03T12:49:04Z</time>
      </trkpt>
      <trkpt lat="42.8730270" lon="-8.4439140">
        <ele>446.4</ele>
        <time>2021-03-03T12:49:05Z</time>
      </trkpt>
      <trkpt lat="42.8730300" lon="-8.4439340">
        <ele>446.8</ele>
        <time>2021-03-03T12:49:06Z</time>
      </trkpt>
      <trkpt lat="42.8730370" lon="-8.4439480">
        <ele>447.0</ele>
        <time>2021-03-03T12:49:07Z</time>
      </trkpt>
      <trkpt lat="42.8730440" lon="-8.4439610">
        <ele>447.2</ele>
        <time>2021-03-03T12:49:08Z</time>
      </trkpt>
      <trkpt lat="42.8730480" lon="-8.4439740">
        <ele>447.4</ele>
        <time>2021-03-03T12:49:09Z</time>
      </trkpt>
      <trkpt lat="42.8730520" lon="-8.4439880">
        <ele>447.8</ele>
        <time>2021-03-03T12:49:10Z</time>
      </trkpt>
      <trkpt lat="42.8730550" lon="-8.4440040">
        <ele>448.4</ele>
        <time>2021-03-03T12:49:11Z</time>
      </trkpt>
      <trkpt lat="42.8730570" lon="-8.4440180">
        <ele>448.6</ele>
        <time>2021-03-03T12:49:12Z</time>
      </trkpt>
      <trkpt lat="42.8730580" lon="-8.4440350">
        <ele>448.8</ele>
        <time>2021-03-03T12:49:13Z</time>
      </trkpt>
      <trkpt lat="42.8730600" lon="-8.4440450">
        <ele>449.0</ele>
        <time>2021-03-03T12:49:14Z</time>
      </trkpt>
      <trkpt lat="42.8730670" lon="-8.4440560">
        <ele>449.4</ele>
        <time>2021-03-03T12:49:15Z</time>
      </trkpt>
      <trkpt lat="42.8730730" lon="-8.4440660">
        <ele>449.6</ele>
        <time>2021-03-03T12:49:16Z</time>
      </trkpt>
      <trkpt lat="42.8730770" lon="-8.4440770">
        <ele>449.8</ele>
        <time>2021-03-03T12:49:17Z</time>
      </trkpt>
      <trkpt lat="42.8730750" lon="-8.4440990">
        <ele>450.2</ele>
        <time>2021-03-03T12:49:18Z</time>
      </trkpt>
      <trkpt lat="42.8730690" lon="-8.4441210">
        <ele>450.4</ele>
        <time>2021-03-03T12:49:19Z</time>
      </trkpt>
      <trkpt lat="42.8730680" lon="-8.4441470">
        <ele>450.6</ele>
        <time>2021-03-03T12:49:20Z</time>
      </trkpt>
      <trkpt lat="42.8730700" lon="-8.4441650">
        <ele>450.8</ele>
        <time>2021-03-03T12:49:21Z</time>
      </trkpt>
      <trkpt lat="42.8730750" lon="-8.4441880">
        <ele>451.2</ele>
        <time>2021-03-03T12:49:22Z</time>
      </trkpt>
      <trkpt lat="42.8730780" lon="-8.4442050">
        <ele>451.6</ele>
        <time>2021-03-03T12:49:23Z</time>
      </trkpt>
      <trkpt lat="42.8730800" lon="-8.4442250">
        <ele>451.8</ele>
        <time>2021-03-03T12:49:24Z</time>
      </trkpt>
      <trkpt lat="42.8730790" lon="-8.4442380">
        <ele>451.8</ele>
        <time>2021-03-03T12:49:25Z</time>
      </trkpt>
      <trkpt lat="42.8730770" lon="-8.4442520">
        <ele>452.0</ele>
        <time>2021-03-03T12:49:26Z</time>
      </trkpt>
      <trkpt lat="42.8730730" lon="-8.4442700">
        <ele>452.4</ele>
        <time>2021-03-03T12:49:27Z</time>
      </trkpt>
      <trkpt lat="42.8730740" lon="-8.4442860">
        <ele>452.4</ele>
        <time>2021-03-03T12:49:28Z</time>
      </trkpt>
      <trkpt lat="42.8730780" lon="-8.4443050">
        <ele>452.6</ele>
        <time>2021-03-03T12:49:29Z</time>
      </trkpt>
      <trkpt lat="42.8730790" lon="-8.4443200">
        <ele>452.8</ele>
        <time>2021-03-03T12:49:30Z</time>
      </trkpt>
      <trkpt lat="42.8730820" lon="-8.4443310">
        <ele>453.0</ele>
        <time>2021-03-03T12:49:31Z</time>
      </trkpt>
      <trkpt lat="42.8730830" lon="-8.4443490">
        <ele>453.2</ele>
        <time>2021-03-03T12:49:32Z</time>
      </trkpt>
      <trkpt lat="42.8730850" lon="-8.4443630">
        <ele>453.4</ele>
        <time>2021-03-03T12:49:33Z</time>
      </trkpt>
      <trkpt lat="42.8730830" lon="-8.4443810">
        <ele>453.8</ele>
        <time>2021-03-03T12:49:34Z</time>
      </trkpt>
      <trkpt lat="42.8730850" lon="-8.4443950">
        <ele>454.0</ele>
        <time>2021-03-03T12:49:35Z</time>
      </trkpt>
      <trkpt lat="42.8730870" lon="-8.4444100">
        <ele>454.4</ele>
        <time>2021-03-03T12:49:36Z</time>
      </trkpt>
      <trkpt lat="42.8730890" lon="-8.4444230">
        <ele>454.6</ele>
        <time>2021-03-03T12:49:37Z</time>
      </trkpt>
      <trkpt lat="42.8730910" lon="-8.4444340">
        <ele>455.0</ele>
        <time>2021-03-03T12:49:38Z</time>
      </trkpt>
      <trkpt lat="42.8730910" lon="-8.4444520">
        <ele>455.2</ele>
        <time>2021-03-03T12:49:39Z</time>
      </trkpt>
      <trkpt lat="42.8730920" lon="-8.4444750">
        <ele>455.4</ele>
        <time>2021-03-03T12:49:40Z</time>
      </trkpt>
      <trkpt lat="42.8730930" lon="-8.4444940">
        <ele>455.6</ele>
        <time>2021-03-03T12:49:41Z</time>
      </trkpt>
      <trkpt lat="42.8730920" lon="-8.4445100">
        <ele>455.8</ele>
        <time>2021-03-03T12:49:42Z</time>
      </trkpt>
      <trkpt lat="42.8730930" lon="-8.4445230">
        <ele>456.0</ele>
        <time>2021-03-03T12:49:43Z</time>
      </trkpt>
      <trkpt lat="42.8730970" lon="-8.4445360">
        <ele>456.2</ele>
        <time>2021-03-03T12:49:44Z</time>
      </trkpt>
      <trkpt lat="42.8730990" lon="-8.4445500">
        <ele>456.6</ele>
        <time>2021-03-03T12:49:45Z</time>
      </trkpt>
      <trkpt lat="42.8731030" lon="-8.4445670">
        <ele>456.8</ele>
        <time>2021-03-03T12:49:46Z</time>
      </trkpt>
      <trkpt lat="42.8731070" lon="-8.4445790">
        <ele>457.0</ele>
        <time>2021-03-03T12:49:47Z</time>
      </trkpt>
      <trkpt lat="42.8731070" lon="-8.4445890">
        <ele>457.4</ele>
        <time>2021-03-03T12:49:48Z</time>
      </trkpt>
      <trkpt lat="42.8731060" lon="-8.4446000">
        <ele>457.6</ele>
        <time>2021-03-03T12:49:49Z</time>
      </trkpt>
      <trkpt lat="42.8731070" lon="-8.4446140">
        <ele>457.8</ele>
        <time>2021-03-03T12:49:50Z</time>
      </trkpt>
      <trkpt lat="42.8731120" lon="-8.4446280">
        <ele>458.2</ele>
        <time>2021-03-03T12:49:51Z</time>
      </trkpt>
      <trkpt lat="42.8731160" lon="-8.4446380">
        <ele>458.4</ele>
        <time>2021-03-03T12:49:52Z</time>
      </trkpt>
      <trkpt lat="42.8731170" lon="-8.4446490">
        <ele>458.6</ele>
        <time>2021-03-03T12:49:53Z</time>
      </trkpt>
      <trkpt lat="42.8731180" lon="-8.4446630">
        <ele>459.0</ele>
        <time>2021-03-03T12:49:54Z</time>
      </trkpt>
      <trkpt lat="42.8731210" lon="-8.4446800">
        <ele>459.2</ele>
        <time>2021-03-03T12:49:55Z</time>
      </trkpt>
      <trkpt lat="42.8731230" lon="-8.4446960">
        <ele>459.4</ele>
        <time>2021-03-03T12:49:56Z</time>
      </trkpt>
      <trkpt lat="42.8731250" lon="-8.4447090">
        <ele>459.6</ele>
        <time>2021-03-03T12:49:57Z</time>
      </trkpt>
      <trkpt lat="42.8731280" lon="-8.4447180">
        <ele>459.8</ele>
        <time>2021-03-03T12:49:58Z</time>
      </trkpt>
      <trkpt lat="42.8731290" lon="-8.4447300">
        <ele>460.2</ele>
        <time>2021-03-03T12:49:59Z</time>
      </trkpt>
      <trkpt lat="42.8731290" lon="-8.4447430">
        <ele>460.4</ele>
        <time>2021-03-03T12:50:00Z</time>
      </trkpt>
      <trkpt lat="42.8731300" lon="-8.4447540">
        <ele>460.6</ele>
        <time>2021-03-03T12:50:01Z</time>
      </trkpt>
      <trkpt lat="42.8731330" lon="-8.4447710">
        <ele>461.0</ele>
        <time>2021-03-03T12:50:02Z</time>
      </trkpt>
      <trkpt lat="42.8731320" lon="-8.4447800">
        <ele>461.2</ele>
        <time>2021-03-03T12:50:03Z</time>
      </trkpt>
      <trkpt lat="42.8731340" lon="-8.4447940">
        <ele>461.4</ele>
        <time>2021-03-03T12:50:04Z</time>
      </trkpt>
      <trkpt lat="42.8731340" lon="-8.4448030">
        <ele>461.8</ele>
        <time>2021-03-03T12:50:05Z</time>
      </trkpt>
      <trkpt lat="42.8731330" lon="-8.4448160">
        <ele>462.0</ele>
        <time>2021-03-03T12:50:06Z</time>
      </trkpt>
      <trkpt lat="42.8731320" lon="-8.4448270">
        <ele>462.2</ele>
        <time>2021-03-03T12:50:07Z</time>
      </trkpt>
      <trkpt lat="42.8731320" lon="-8.4448380">
        <ele>462.6</ele>
        <time>2021-03-03T12:50:08Z</time>
      </trkpt>
      <trkpt lat="42.8731310" lon="-8.4448480">
        <ele>462.8</ele>
        <time>2021-03-03T12:50:09Z</time>
      </trkpt>
      <trkpt lat="42.8731300" lon="-8.4448610">
        <ele>463.2</ele>
        <time>2021-03-03T12:50:10Z</time>
      </trkpt>
      <trkpt lat="42.8731320" lon="-8.4448780">
        <ele>463.4</ele>
        <time>2021-03-03T12:50:11Z</time>
      </trkpt>
      <trkpt lat="42.8731360" lon="-8.4448900">
        <ele>463.6</ele>
        <time>2021-03-03T12:50:12Z</time>
      </trkpt>
      <trkpt lat="42.8731380" lon="-8.4449020">
        <ele>463.8</ele>
        <time>2021-03-03T12:50:13Z</time>
      </trkpt>
      <trkpt lat="42.8731380" lon="-8.4449140">
        <ele>464.0</ele>
        <time>2021-03-03T12:50:14Z</time>
      </trkpt>
      <trkpt lat="42.8731370" lon="-8.4449280">
        <ele>464.4</ele>
        <time>2021-03-03T12:50:15Z</time>
      </trkpt>
      <trkpt lat="42.8731370" lon="-8.4449460">
        <ele>464.6</ele>
        <time>2021-03-03T12:50:16Z</time>
      </trkpt>
      <trkpt lat="42.8731380" lon="-8.4449610">
        <ele>464.8</ele>
        <time>2021-03-03T12:50:17Z</time>
      </trkpt>
      <trkpt lat="42.8731380" lon="-8.4449730">
        <ele>465.0</ele>
        <time>2021-03-03T12:50:18Z</time>
      </trkpt>
      <trkpt lat="42.8731380" lon="-8.4449890">
        <ele>465.4</ele>
        <time>2021-03-03T12:50:19Z</time>
      </trkpt>
      <trkpt lat="42.8731410" lon="-8.4450040">
        <ele>465.6</ele>
        <time>2021-03-03T12:50:20Z</time>
      </trkpt>
      <trkpt lat="42.8731470" lon="-8.4450160">
        <ele>466.0</ele>
        <time>2021-03-03T12:50:21Z</time>
      </trkpt>
      <trkpt lat="42.8731490" lon="-8.4450260">
        <ele>466.2</ele>
        <time>2021-03-03T12:50:22Z</time>
      </trkpt>
      <trkpt lat="42.8731460" lon="-8.4450370">
        <ele>466.6</ele>
        <time>2021-03-03T12:50:23Z</time>
      </trkpt>
      <trkpt lat="42.8731430" lon="-8.4450510">
        <ele>466.8</ele>
        <time>2021-03-03T12:50:24Z</time>
      </trkpt>
      <trkpt lat="42.8731430" lon="-8.4450610">
        <ele>467.0</ele>
        <time>2021-03-03T12:50:25Z</time>
      </trkpt>
      <trkpt lat="42.8731410" lon="-8.4450700">
        <ele>467.4</ele>
        <time>2021-03-03T12:50:26Z</time>
      </trkpt>
      <trkpt lat="42.8731370" lon="-8.4450820">
        <ele>467.6</ele>
        <time>2021-03-03T12:50:27Z</time>
      </trkpt>
      <trkpt lat="42.8731380" lon="-8.4450940">
        <ele>467.8</ele>
        <time>2021-03-03T12:50:28Z</time>
      </trkpt>
      <trkpt lat="42.8731390" lon="-8.4451060">
        <ele>468.0</ele>
        <time>2021-03-03T12:50:29Z</time>
      </trkpt>
      <trkpt lat="42.8731400" lon="-8.4451230">
        <ele>468.2</ele>
        <time>2021-03-03T12:50:30Z</time>
      </trkpt>
      <trkpt lat="42.8731390" lon="-8.4451370">
        <ele>468.4</ele>
        <time>2021-03-03T12:50:31Z</time>
      </trkpt>
      <trkpt lat="42.8731390" lon="-8.4451570">
        <ele>468.8</ele>
        <time>2021-03-03T12:50:32Z</time>
      </trkpt>
      <trkpt lat="42.8731400" lon="-8.4451770">
        <ele>469.0</ele>
        <time>2021-03-03T12:50:33Z</time>
      </trkpt>
      <trkpt lat="42.8731390" lon="-8.4451920">
        <ele>469.2</ele>
        <time>2021-03-03T12:50:34Z</time>
      </trkpt>
      <trkpt lat="42.8731410" lon="-8.4452050">
        <ele>469.4</ele>
        <time>2021-03-03T12:50:35Z</time>
      </trkpt>
      <trkpt lat="42.8731400" lon="-8.4452180">
        <ele>469.8</ele>
        <time>2021-03-03T12:50:36Z</time>
      </trkpt>
      <trkpt lat="42.8731430" lon="-8.4452290">
        <ele>470.0</ele>
        <time>2021-03-03T12:50:37Z</time>
      </trkpt>
      <trkpt lat="42.8731460" lon="-8.4452410">
        <ele>470.2</ele>
        <time>2021-03-03T12:50:38Z</time>
      </trkpt>
      <trkpt lat="42.8731500" lon="-8.4452560">
        <ele>470.6</ele>
        <time>2021-03-03T12:50:39Z</time>
      </trkpt>
      <trkpt lat="42.8731520" lon="-8.4452680">
        <ele>470.8</ele>
        <time>2021-03-03T12:50:40Z</time>
      </trkpt>
      <trkpt lat="42.8731530" lon="-8.4452800">
        <ele>470.8</ele>
        <time>2021-03-03T12:50:41Z</time>
      </trkpt>
      <trkpt lat="42.8731530" lon="-8.4452880">
        <ele>471.2</ele>
        <time>2021-03-03T12:50:42Z</time>
      </trkpt>
      <trkpt lat="42.8731500" lon="-8.4452970">
        <ele>471.6</ele>
        <time>2021-03-03T12:50:43Z</time>
      </trkpt>
      <trkpt lat="42.8731530" lon="-8.4453090">
        <ele>471.8</ele>
        <time>2021-03-03T12:50:44Z</time>
      </trkpt>
      <trkpt lat="42.8731530" lon="-8.4453210">
        <ele>472.0</ele>
        <time>2021-03-03T12:50:45Z</time>
      </trkpt>
      <trkpt lat="42.8731540" lon="-8.4453320">
        <ele>472.4</ele>
        <time>2021-03-03T12:50:46Z</time>
      </trkpt>
      <trkpt lat="42.8731580" lon="-8.4453510">
        <ele>472.6</ele>
        <time>2021-03-03T12:50:47Z</time>
      </trkpt>
      <trkpt lat="42.8731600" lon="-8.4453640">
        <ele>472.8</ele>
        <time>2021-03-03T12:50:48Z</time>
      </trkpt>
      <trkpt lat="42.8731630" lon="-8.4453720">
        <ele>473.0</ele>
        <time>2021-03-03T12:50:49Z</time>
      </trkpt>
      <trkpt lat="42.8731660" lon="-8.4453820">
        <ele>473.2</ele>
        <time>2021-03-03T12:50:50Z</time>
      </trkpt>
      <trkpt lat="42.8731670" lon="-8.4453930">
        <ele>473.4</ele>
        <time>2021-03-03T12:50:51Z</time>
      </trkpt>
      <trkpt lat="42.8731670" lon="-8.4454040">
        <ele>473.8</ele>
        <time>2021-03-03T12:50:52Z</time>
      </trkpt>
      <trkpt lat="42.8731700" lon="-8.4454170">
        <ele>474.0</ele>
        <time>2021-03-03T12:50:53Z</time>
      </trkpt>
      <trkpt lat="42.8731720" lon="-8.4454290">
        <ele>474.4</ele>
        <time>2021-03-03T12:50:54Z</time>
      </trkpt>
      <trkpt lat="42.8731730" lon="-8.4454440">
        <ele>474.6</ele>
        <time>2021-03-03T12:50:55Z</time>
      </trkpt>
      <trkpt lat="42.8731710" lon="-8.4454590">
        <ele>474.8</ele>
        <time>2021-03-03T12:50:56Z</time>
      </trkpt>
      <trkpt lat="42.8731690" lon="-8.4454750">
        <ele>475.0</ele>
        <time>2021-03-03T12:50:57Z</time>
      </trkpt>
      <trkpt lat="42.8731730" lon="-8.4454880">
        <ele>475.2</ele>
        <time>2021-03-03T12:50:58Z</time>
      </trkpt>
      <trkpt lat="42.8731750" lon="-8.4455000">
        <ele>475.6</ele>
        <time>2021-03-03T12:50:59Z</time>
      </trkpt>
      <trkpt lat="42.8731720" lon="-8.4455120">
        <ele>475.8</ele>
        <time>2021-03-03T12:51:00Z</time>
      </trkpt>
      <trkpt lat="42.8731700" lon="-8.4455260">
        <ele>476.2</ele>
        <time>2021-03-03T12:51:01Z</time>
      </trkpt>
      <trkpt lat="42.8731720" lon="-8.4455430">
        <ele>476.4</ele>
        <time>2021-03-03T12:51:02Z</time>
      </trkpt>
      <trkpt lat="42.8731750" lon="-8.4455550">
        <ele>476.6</ele>
        <time>2021-03-03T12:51:03Z</time>
      </trkpt>
      <trkpt lat="42.8731780" lon="-8.4455630">
        <ele>479.4</ele>
        <time>2021-03-03T12:51:04Z</time>
      </trkpt>
      <trkpt lat="42.8731800" lon="-8.4455730">
        <ele>479.4</ele>
        <time>2021-03-03T12:51:05Z</time>
      </trkpt>
      <trkpt lat="42.8731790" lon="-8.4455840">
        <ele>479.4</ele>
        <time>2021-03-03T12:51:06Z</time>
      </trkpt>
      <trkpt lat="42.8731770" lon="-8.4455970">
        <ele>479.6</ele>
        <time>2021-03-03T12:51:07Z</time>
      </trkpt>
      <trkpt lat="42.8731730" lon="-8.4456090">
        <ele>479.6</ele>
        <time>2021-03-03T12:51:08Z</time>
      </trkpt>
      <trkpt lat="42.8731670" lon="-8.4456220">
        <ele>480.0</ele>
        <time>2021-03-03T12:51:09Z</time>
      </trkpt>
      <trkpt lat="42.8731630" lon="-8.4456350">
        <ele>480.2</ele>
        <time>2021-03-03T12:51:10Z</time>
      </trkpt>
      <trkpt lat="42.8731640" lon="-8.4456500">
        <ele>480.4</ele>
        <time>2021-03-03T12:51:11Z</time>
      </trkpt>
      <trkpt lat="42.8731670" lon="-8.4456640">
        <ele>480.4</ele>
        <time>2021-03-03T12:51:12Z</time>
      </trkpt>
      <trkpt lat="42.8731710" lon="-8.4456770">
        <ele>480.8</ele>
        <time>2021-03-03T12:51:13Z</time>
      </trkpt>
      <trkpt lat="42.8731730" lon="-8.4456860">
        <ele>481.0</ele>
        <time>2021-03-03T12:51:14Z</time>
      </trkpt>
      <trkpt lat="42.8731720" lon="-8.4456990">
        <ele>481.4</ele>
        <time>2021-03-03T12:51:15Z</time>
      </trkpt>
      <trkpt lat="42.8731730" lon="-8.4457140">
        <ele>481.6</ele>
        <time>2021-03-03T12:51:16Z</time>
      </trkpt>
      <trkpt lat="42.8731760" lon="-8.4457300">
        <ele>481.8</ele>
        <time>2021-03-03T12:51:17Z</time>
      </trkpt>
      <trkpt lat="42.8731780" lon="-8.4457400">
        <ele>482.0</ele>
        <time>2021-03-03T12:51:18Z</time>
      </trkpt>
      <trkpt lat="42.8731790" lon="-8.4457530">
        <ele>482.4</ele>
        <time>2021-03-03T12:51:19Z</time>
      </trkpt>
      <trkpt lat="42.8731800" lon="-8.4457680">
        <ele>482.8</ele>
        <time>2021-03-03T12:51:20Z</time>
      </trkpt>
      <trkpt lat="42.8731790" lon="-8.4457820">
        <ele>483.0</ele>
        <time>2021-03-03T12:51:21Z</time>
      </trkpt>
      <trkpt lat="42.8731760" lon="-8.4457930">
        <ele>483.2</ele>
        <time>2021-03-03T12:51:22Z</time>
      </trkpt>
      <trkpt lat="42.8731680" lon="-8.4458100">
        <ele>483.2</ele>
        <time>2021-03-03T12:51:23Z</time>
      </trkpt>
      <trkpt lat="42.8731590" lon="-8.4458350">
        <ele>483.4</ele>
        <time>2021-03-03T12:51:24Z</time>
      </trkpt>
      <trkpt lat="42.8731510" lon="-8.4458580">
        <ele>483.6</ele>
        <time>2021-03-03T12:51:25Z</time>
      </trkpt>
      <trkpt lat="42.8731420" lon="-8.4458730">
        <ele>484.0</ele>
        <time>2021-03-03T12:51:26Z</time>
      </trkpt>
      <trkpt lat="42.8731310" lon="-8.4458920">
        <ele>484.4</ele>
        <time>2021-03-03T12:51:27Z</time>
      </trkpt>
      <trkpt lat="42.8731200" lon="-8.4459130">
        <ele>484.4</ele>
        <time>2021-03-03T12:51:28Z</time>
      </trkpt>
      <trkpt lat="42.8731050" lon="-8.4459350">
        <ele>484.8</ele>
        <time>2021-03-03T12:51:29Z</time>
      </trkpt>
      <trkpt lat="42.8730900" lon="-8.4459540">
        <ele>485.0</ele>
        <time>2021-03-03T12:51:30Z</time>
      </trkpt>
      <trkpt lat="42.8730750" lon="-8.4459770">
        <ele>485.0</ele>
        <time>2021-03-03T12:51:31Z</time>
      </trkpt>
      <trkpt lat="42.8730640" lon="-8.4459950">
        <ele>485.2</ele>
        <time>2021-03-03T12:51:32Z</time>
      </trkpt>
      <trkpt lat="42.8730510" lon="-8.4460140">
        <ele>485.4</ele>
        <time>2021-03-03T12:51:33Z</time>
      </trkpt>
      <trkpt lat="42.8730390" lon="-8.4460320">
        <ele>485.6</ele>
        <time>2021-03-03T12:51:34Z</time>
      </trkpt>
      <trkpt lat="42.8730250" lon="-8.4460520">
        <ele>485.6</ele>
        <time>2021-03-03T12:51:35Z</time>
      </trkpt>
      <trkpt lat="42.8730130" lon="-8.4460720">
        <ele>485.8</ele>
        <time>2021-03-03T12:51:36Z</time>
      </trkpt>
      <trkpt lat="42.8730000" lon="-8.4460930">
        <ele>485.8</ele>
        <time>2021-03-03T12:51:37Z</time>
      </trkpt>
      <trkpt lat="42.8729820" lon="-8.4461140">
        <ele>485.8</ele>
        <time>2021-03-03T12:51:38Z</time>
      </trkpt>
      <trkpt lat="42.8729670" lon="-8.4461320">
        <ele>485.8</ele>
        <time>2021-03-03T12:51:39Z</time>
      </trkpt>
      <trkpt lat="42.8729510" lon="-8.4461500">
        <ele>486.0</ele>
        <time>2021-03-03T12:51:40Z</time>
      </trkpt>
      <trkpt lat="42.8729360" lon="-8.4461630">
        <ele>486.0</ele>
        <time>2021-03-03T12:51:41Z</time>
      </trkpt>
      <trkpt lat="42.8729160" lon="-8.4461800">
        <ele>486.0</ele>
        <time>2021-03-03T12:51:42Z</time>
      </trkpt>
      <trkpt lat="42.8728980" lon="-8.4462040">
        <ele>486.2</ele>
        <time>2021-03-03T12:51:43Z</time>
      </trkpt>
      <trkpt lat="42.8728880" lon="-8.4462250">
        <ele>486.2</ele>
        <time>2021-03-03T12:51:44Z</time>
      </trkpt>
      <trkpt lat="42.8728820" lon="-8.4462530">
        <ele>486.2</ele>
        <time>2021-03-03T12:51:45Z</time>
      </trkpt>
      <trkpt lat="42.8728760" lon="-8.4462760">
        <ele>486.2</ele>
        <time>2021-03-03T12:51:46Z</time>
      </trkpt>
      <trkpt lat="42.8728700" lon="-8.4463030">
        <ele>486.2</ele>
        <time>2021-03-03T12:51:47Z</time>
      </trkpt>
      <trkpt lat="42.8728700" lon="-8.4463260">
        <ele>486.6</ele>
        <time>2021-03-03T12:51:48Z</time>
      </trkpt>
      <trkpt lat="42.8728710" lon="-8.4463460">
        <ele>487.0</ele>
        <time>2021-03-03T12:51:49Z</time>
      </trkpt>
      <trkpt lat="42.8728720" lon="-8.4463600">
        <ele>487.4</ele>
        <time>2021-03-03T12:51:50Z</time>
      </trkpt>
      <trkpt lat="42.8728690" lon="-8.4463730">
        <ele>487.6</ele>
        <time>2021-03-03T12:51:51Z</time>
      </trkpt>
      <trkpt lat="42.8728660" lon="-8.4463860">
        <ele>487.8</ele>
        <time>2021-03-03T12:51:52Z</time>
      </trkpt>
      <trkpt lat="42.8728680" lon="-8.4463980">
        <ele>488.0</ele>
        <time>2021-03-03T12:51:53Z</time>
      </trkpt>
      <trkpt lat="42.8728720" lon="-8.4464160">
        <ele>488.4</ele>
        <time>2021-03-03T12:51:54Z</time>
      </trkpt>
      <trkpt lat="42.8728800" lon="-8.4464260">
        <ele>488.8</ele>
        <time>2021-03-03T12:51:55Z</time>
      </trkpt>
      <trkpt lat="42.8728860" lon="-8.4464380">
        <ele>489.2</ele>
        <time>2021-03-03T12:51:56Z</time>
      </trkpt>
      <trkpt lat="42.8728900" lon="-8.4464500">
        <ele>489.4</ele>
        <time>2021-03-03T12:51:57Z</time>
      </trkpt>
      <trkpt lat="42.8728960" lon="-8.4464600">
        <ele>489.6</ele>
        <time>2021-03-03T12:51:58Z</time>
      </trkpt>
      <trkpt lat="42.8728960" lon="-8.4464680">
        <ele>489.8</ele>
        <time>2021-03-03T12:51:59Z</time>
      </trkpt>
      <trkpt lat="42.8728950" lon="-8.4464780">
        <ele>490.0</ele>
        <time>2021-03-03T12:52:00Z</time>
      </trkpt>
      <trkpt lat="42.8728970" lon="-8.4464940">
        <ele>490.4</ele>
        <time>2021-03-03T12:52:01Z</time>
      </trkpt>
      <trkpt lat="42.8729000" lon="-8.4465100">
        <ele>490.6</ele>
        <time>2021-03-03T12:52:02Z</time>
      </trkpt>
      <trkpt lat="42.8729020" lon="-8.4465300">
        <ele>491.0</ele>
        <time>2021-03-03T12:52:03Z</time>
      </trkpt>
      <trkpt lat="42.8729030" lon="-8.4465460">
        <ele>491.2</ele>
        <time>2021-03-03T12:52:04Z</time>
      </trkpt>
      <trkpt lat="42.8729030" lon="-8.4465570">
        <ele>491.4</ele>
        <time>2021-03-03T12:52:05Z</time>
      </trkpt>
      <trkpt lat="42.8729060" lon="-8.4465710">
        <ele>491.6</ele>
        <time>2021-03-03T12:52:06Z</time>
      </trkpt>
      <trkpt lat="42.8729100" lon="-8.4465810">
        <ele>492.0</ele>
        <time>2021-03-03T12:52:07Z</time>
      </trkpt>
      <trkpt lat="42.8729130" lon="-8.4465970">
        <ele>492.2</ele>
        <time>2021-03-03T12:52:08Z</time>
      </trkpt>
      <trkpt lat="42.8729180" lon="-8.4466280">
        <ele>492.8</ele>
        <time>2021-03-03T12:52:10Z</time>
      </trkpt>
      <trkpt lat="42.8729210" lon="-8.4466440">
        <ele>493.0</ele>
        <time>2021-03-03T12:52:11Z</time>
      </trkpt>
      <trkpt lat="42.8729230" lon="-8.4466540">
        <ele>493.2</ele>
        <time>2021-03-03T12:52:12Z</time>
      </trkpt>
      <trkpt lat="42.8729260" lon="-8.4466680">
        <ele>493.6</ele>
        <time>2021-03-03T12:52:13Z</time>
      </trkpt>
      <trkpt lat="42.8729280" lon="-8.4466870">
        <ele>494.0</ele>
        <time>2021-03-03T12:52:14Z</time>
      </trkpt>
      <trkpt lat="42.8729340" lon="-8.4467040">
        <ele>494.2</ele>
        <time>2021-03-03T12:52:15Z</time>
      </trkpt>
      <trkpt lat="42.8729420" lon="-8.4467210">
        <ele>494.6</ele>
        <time>2021-03-03T12:52:16Z</time>
      </trkpt>
      <trkpt lat="42.8729520" lon="-8.4467390">
        <ele>495.0</ele>
        <time>2021-03-03T12:52:17Z</time>
      </trkpt>
      <trkpt lat="42.8729560" lon="-8.4467480">
        <ele>495.2</ele>
        <time>2021-03-03T12:52:18Z</time>
      </trkpt>
      <trkpt lat="42.8729620" lon="-8.4467620">
        <ele>495.2</ele>
        <time>2021-03-03T12:52:19Z</time>
      </trkpt>
      <trkpt lat="42.8729650" lon="-8.4467750">
        <ele>495.6</ele>
        <time>2021-03-03T12:52:20Z</time>
      </trkpt>
      <trkpt lat="42.8729700" lon="-8.4467880">
        <ele>496.0</ele>
        <time>2021-03-03T12:52:21Z</time>
      </trkpt>
      <trkpt lat="42.8729760" lon="-8.4468000">
        <ele>496.2</ele>
        <time>2021-03-03T12:52:22Z</time>
      </trkpt>
      <trkpt lat="42.8729830" lon="-8.4468100">
        <ele>496.4</ele>
        <time>2021-03-03T12:52:23Z</time>
      </trkpt>
      <trkpt lat="42.8729920" lon="-8.4468200">
        <ele>496.8</ele>
        <time>2021-03-03T12:52:24Z</time>
      </trkpt>
      <trkpt lat="42.8730060" lon="-8.4468310">
        <ele>497.2</ele>
        <time>2021-03-03T12:52:25Z</time>
      </trkpt>
      <trkpt lat="42.8730140" lon="-8.4468370">
        <ele>497.6</ele>
        <time>2021-03-03T12:52:26Z</time>
      </trkpt>
      <trkpt lat="42.8730270" lon="-8.4468470">
        <ele>497.8</ele>
        <time>2021-03-03T12:52:27Z</time>
      </trkpt>
      <trkpt lat="42.8730340" lon="-8.4468540">
        <ele>498.0</ele>
        <time>2021-03-03T12:52:28Z</time>
      </trkpt>
      <trkpt lat="42.8730390" lon="-8.4468630">
        <ele>498.4</ele>
        <time>2021-03-03T12:52:29Z</time>
      </trkpt>
      <trkpt lat="42.8730470" lon="-8.4468730">
        <ele>498.8</ele>
        <time>2021-03-03T12:52:30Z</time>
      </trkpt>
      <trkpt lat="42.8730540" lon="-8.4468840">
        <ele>499.0</ele>
        <time>2021-03-03T12:52:31Z</time>
      </trkpt>
      <trkpt lat="42.8730620" lon="-8.4468920">
        <ele>499.2</ele>
        <time>2021-03-03T12:52:32Z</time>
      </trkpt>
      <trkpt lat="42.8730720" lon="-8.4469030">
        <ele>499.6</ele>
        <time>2021-03-03T12:52:33Z</time>
      </trkpt>
      <trkpt lat="42.8730830" lon="-8.4469130">
        <ele>500.0</ele>
        <time>2021-03-03T12:52:34Z</time>
      </trkpt>
      <trkpt lat="42.8730960" lon="-8.4469240">
        <ele>500.4</ele>
        <time>2021-03-03T12:52:35Z</time>
      </trkpt>
      <trkpt lat="42.8731080" lon="-8.4469310">
        <ele>500.8</ele>
        <time>2021-03-03T12:52:36Z</time>
      </trkpt>
      <trkpt lat="42.8731180" lon="-8.4469410">
        <ele>501.0</ele>
        <time>2021-03-03T12:52:37Z</time>
      </trkpt>
      <trkpt lat="42.8731260" lon="-8.4469500">
        <ele>501.0</ele>
        <time>2021-03-03T12:52:38Z</time>
      </trkpt>
      <trkpt lat="42.8731330" lon="-8.4469590">
        <ele>501.4</ele>
        <time>2021-03-03T12:52:39Z</time>
      </trkpt>
      <trkpt lat="42.8731430" lon="-8.4469670">
        <ele>501.6</ele>
        <time>2021-03-03T12:52:40Z</time>
      </trkpt>
      <trkpt lat="42.8731560" lon="-8.4469780">
        <ele>502.0</ele>
        <time>2021-03-03T12:52:41Z</time>
      </trkpt>
      <trkpt lat="42.8731650" lon="-8.4469890">
        <ele>502.0</ele>
        <time>2021-03-03T12:52:42Z</time>
      </trkpt>
      <trkpt lat="42.8731730" lon="-8.4470010">
        <ele>502.2</ele>
        <time>2021-03-03T12:52:43Z</time>
      </trkpt>
      <trkpt lat="42.8731860" lon="-8.4470140">
        <ele>502.6</ele>
        <time>2021-03-03T12:52:44Z</time>
      </trkpt>
      <trkpt lat="42.8731970" lon="-8.4470260">
        <ele>502.8</ele>
        <time>2021-03-03T12:52:45Z</time>
      </trkpt>
      <trkpt lat="42.8732070" lon="-8.4470370">
        <ele>503.0</ele>
        <time>2021-03-03T12:52:46Z</time>
      </trkpt>
      <trkpt lat="42.8732170" lon="-8.4470480">
        <ele>503.2</ele>
        <time>2021-03-03T12:52:47Z</time>
      </trkpt>
      <trkpt lat="42.8732240" lon="-8.4470610">
        <ele>503.6</ele>
        <time>2021-03-03T12:52:48Z</time>
      </trkpt>
      <trkpt lat="42.8732330" lon="-8.4470800">
        <ele>503.6</ele>
        <time>2021-03-03T12:52:49Z</time>
      </trkpt>
      <trkpt lat="42.8732360" lon="-8.4470940">
        <ele>504.0</ele>
        <time>2021-03-03T12:52:50Z</time>
      </trkpt>
      <trkpt lat="42.8732420" lon="-8.4471080">
        <ele>504.4</ele>
        <time>2021-03-03T12:52:51Z</time>
      </trkpt>
      <trkpt lat="42.8732490" lon="-8.4471230">
        <ele>504.6</ele>
        <time>2021-03-03T12:52:52Z</time>
      </trkpt>
      <trkpt lat="42.8732530" lon="-8.4471400">
        <ele>504.6</ele>
        <time>2021-03-03T12:52:53Z</time>
      </trkpt>
      <trkpt lat="42.8732550" lon="-8.4471590">
        <ele>504.8</ele>
        <time>2021-03-03T12:52:54Z</time>
      </trkpt>
      <trkpt lat="42.8732600" lon="-8.4471800">
        <ele>505.0</ele>
        <time>2021-03-03T12:52:55Z</time>
      </trkpt>
      <trkpt lat="42.8732630" lon="-8.4471990">
        <ele>505.2</ele>
        <time>2021-03-03T12:52:56Z</time>
      </trkpt>
      <trkpt lat="42.8732650" lon="-8.4472170">
        <ele>505.2</ele>
        <time>2021-03-03T12:52:57Z</time>
      </trkpt>
      <trkpt lat="42.8732650" lon="-8.4472360">
        <ele>505.2</ele>
        <time>2021-03-03T12:52:58Z</time>
      </trkpt>
      <trkpt lat="42.8732660" lon="-8.4472560">
        <ele>505.2</ele>
        <time>2021-03-03T12:52:59Z</time>
      </trkpt>
      <trkpt lat="42.8732690" lon="-8.4472750">
        <ele>505.2</ele>
        <time>2021-03-03T12:53:00Z</time>
      </trkpt>
      <trkpt lat="42.8732750" lon="-8.4472960">
        <ele>505.2</ele>
        <time>2021-03-03T12:53:01Z</time>
      </trkpt>
      <trkpt lat="42.8732790" lon="-8.4473150">
        <ele>505.2</ele>
        <time>2021-03-03T12:53:02Z</time>
      </trkpt>
      <trkpt lat="42.8732800" lon="-8.4473330">
        <ele>505.2</ele>
        <time>2021-03-03T12:53:03Z</time>
      </trkpt>
      <trkpt lat="42.8732820" lon="-8.4473520">
        <ele>505.0</ele>
        <time>2021-03-03T12:53:04Z</time>
      </trkpt>
      <trkpt lat="42.8732830" lon="-8.4473690">
        <ele>505.0</ele>
        <time>2021-03-03T12:53:05Z</time>
      </trkpt>
      <trkpt lat="42.8732860" lon="-8.4473860">
        <ele>505.0</ele>
        <time>2021-03-03T12:53:06Z</time>
      </trkpt>
      <trkpt lat="42.8732870" lon="-8.4474140">
        <ele>504.8</ele>
        <time>2021-03-03T12:53:07Z</time>
      </trkpt>
      <trkpt lat="42.8732860" lon="-8.4474460">
        <ele>504.8</ele>
        <time>2021-03-03T12:53:08Z</time>
      </trkpt>
      <trkpt lat="42.8732840" lon="-8.4474840">
        <ele>504.6</ele>
        <time>2021-03-03T12:53:09Z</time>
      </trkpt>
      <trkpt lat="42.8732810" lon="-8.4475230">
        <ele>503.8</ele>
        <time>2021-03-03T12:53:10Z</time>
      </trkpt>
      <trkpt lat="42.8732730" lon="-8.4475600">
        <ele>503.4</ele>
        <time>2021-03-03T12:53:11Z</time>
      </trkpt>
      <trkpt lat="42.8732640" lon="-8.4475960">
        <ele>503.2</ele>
        <time>2021-03-03T12:53:12Z</time>
      </trkpt>
      <trkpt lat="42.8732580" lon="-8.4476320">
        <ele>502.6</ele>
        <time>2021-03-03T12:53:13Z</time>
      </trkpt>
      <trkpt lat="42.8732480" lon="-8.4476790">
        <ele>502.4</ele>
        <time>2021-03-03T12:53:14Z</time>
      </trkpt>
      <trkpt lat="42.8732440" lon="-8.4477180">
        <ele>502.0</ele>
        <time>2021-03-03T12:53:15Z</time>
      </trkpt>
      <trkpt lat="42.8732430" lon="-8.4477460">
        <ele>501.6</ele>
        <time>2021-03-03T12:53:16Z</time>
      </trkpt>
      <trkpt lat="42.8732410" lon="-8.4477790">
        <ele>501.4</ele>
        <time>2021-03-03T12:53:17Z</time>
      </trkpt>
      <trkpt lat="42.8732370" lon="-8.4478120">
        <ele>501.0</ele>
        <time>2021-03-03T12:53:18Z</time>
      </trkpt>
      <trkpt lat="42.8732310" lon="-8.4478520">
        <ele>500.8</ele>
        <time>2021-03-03T12:53:19Z</time>
      </trkpt>
      <trkpt lat="42.8732280" lon="-8.4478780">
        <ele>500.4</ele>
        <time>2021-03-03T12:53:20Z</time>
      </trkpt>
      <trkpt lat="42.8732230" lon="-8.4479090">
        <ele>500.2</ele>
        <time>2021-03-03T12:53:21Z</time>
      </trkpt>
      <trkpt lat="42.8732160" lon="-8.4479400">
        <ele>499.8</ele>
        <time>2021-03-03T12:53:22Z</time>
      </trkpt>
      <trkpt lat="42.8732070" lon="-8.4479720">
        <ele>499.4</ele>
        <time>2021-03-03T12:53:23Z</time>
      </trkpt>
      <trkpt lat="42.8731920" lon="-8.4480110">
        <ele>499.2</ele>
        <time>2021-03-03T12:53:24Z</time>
      </trkpt>
      <trkpt lat="42.8731870" lon="-8.4480390">
        <ele>498.6</ele>
        <time>2021-03-03T12:53:25Z</time>
      </trkpt>
      <trkpt lat="42.8731810" lon="-8.4480780">
        <ele>498.2</ele>
        <time>2021-03-03T12:53:26Z</time>
      </trkpt>
      <trkpt lat="42.8731720" lon="-8.4481200">
        <ele>497.8</ele>
        <time>2021-03-03T12:53:27Z</time>
      </trkpt>
      <trkpt lat="42.8731650" lon="-8.4481470">
        <ele>497.0</ele>
        <time>2021-03-03T12:53:28Z</time>
      </trkpt>
      <trkpt lat="42.8731570" lon="-8.4481880">
        <ele>496.6</ele>
        <time>2021-03-03T12:53:29Z</time>
      </trkpt>
      <trkpt lat="42.8731600" lon="-8.4482130">
        <ele>496.2</ele>
        <time>2021-03-03T12:53:30Z</time>
      </trkpt>
      <trkpt lat="42.8731600" lon="-8.4482400">
        <ele>495.8</ele>
        <time>2021-03-03T12:53:31Z</time>
      </trkpt>
      <trkpt lat="42.8731580" lon="-8.4482760">
        <ele>495.4</ele>
        <time>2021-03-03T12:53:32Z</time>
      </trkpt>
      <trkpt lat="42.8731550" lon="-8.4483070">
        <ele>495.2</ele>
        <time>2021-03-03T12:53:33Z</time>
      </trkpt>
      <trkpt lat="42.8731470" lon="-8.4483370">
        <ele>495.0</ele>
        <time>2021-03-03T12:53:34Z</time>
      </trkpt>
      <trkpt lat="42.8731410" lon="-8.4483570">
        <ele>494.6</ele>
        <time>2021-03-03T12:53:35Z</time>
      </trkpt>
      <trkpt lat="42.8731340" lon="-8.4483930">
        <ele>494.0</ele>
        <time>2021-03-03T12:53:36Z</time>
      </trkpt>
      <trkpt lat="42.8731250" lon="-8.4484270">
        <ele>493.6</ele>
        <time>2021-03-03T12:53:37Z</time>
      </trkpt>
      <trkpt lat="42.8731060" lon="-8.4484570">
        <ele>493.4</ele>
        <time>2021-03-03T12:53:38Z</time>
      </trkpt>
      <trkpt lat="42.8730900" lon="-8.4484770">
        <ele>492.6</ele>
        <time>2021-03-03T12:53:39Z</time>
      </trkpt>
      <trkpt lat="42.8730630" lon="-8.4485000">
        <ele>491.8</ele>
        <time>2021-03-03T12:53:40Z</time>
      </trkpt>
      <trkpt lat="42.8730360" lon="-8.4485120">
        <ele>491.4</ele>
        <time>2021-03-03T12:53:41Z</time>
      </trkpt>
      <trkpt lat="42.8730140" lon="-8.4485240">
        <ele>491.0</ele>
        <time>2021-03-03T12:53:42Z</time>
      </trkpt>
      <trkpt lat="42.8729880" lon="-8.4485400">
        <ele>490.6</ele>
        <time>2021-03-03T12:53:43Z</time>
      </trkpt>
      <trkpt lat="42.8729640" lon="-8.4485530">
        <ele>490.4</ele>
        <time>2021-03-03T12:53:44Z</time>
      </trkpt>
      <trkpt lat="42.8729320" lon="-8.4485750">
        <ele>490.0</ele>
        <time>2021-03-03T12:53:45Z</time>
      </trkpt>
      <trkpt lat="42.8729040" lon="-8.4485900">
        <ele>489.8</ele>
        <time>2021-03-03T12:53:46Z</time>
      </trkpt>
      <trkpt lat="42.8728750" lon="-8.4486040">
        <ele>489.2</ele>
        <time>2021-03-03T12:53:47Z</time>
      </trkpt>
      <trkpt lat="42.8728490" lon="-8.4486200">
        <ele>488.8</ele>
        <time>2021-03-03T12:53:48Z</time>
      </trkpt>
      <trkpt lat="42.8728220" lon="-8.4486250">
        <ele>488.6</ele>
        <time>2021-03-03T12:53:49Z</time>
      </trkpt>
      <trkpt lat="42.8727840" lon="-8.4486360">
        <ele>488.2</ele>
        <time>2021-03-03T12:53:50Z</time>
      </trkpt>
      <trkpt lat="42.8727540" lon="-8.4486520">
        <ele>487.4</ele>
        <time>2021-03-03T12:53:51Z</time>
      </trkpt>
      <trkpt lat="42.8727290" lon="-8.4486710">
        <ele>487.0</ele>
        <time>2021-03-03T12:53:52Z</time>
      </trkpt>
      <trkpt lat="42.8727070" lon="-8.4486890">
        <ele>486.8</ele>
        <time>2021-03-03T12:53:53Z</time>
      </trkpt>
      <trkpt lat="42.8726770" lon="-8.4487030">
        <ele>486.2</ele>
        <time>2021-03-03T12:53:54Z</time>
      </trkpt>
      <trkpt lat="42.8726430" lon="-8.4487230">
        <ele>485.8</ele>
        <time>2021-03-03T12:53:55Z</time>
      </trkpt>
      <trkpt lat="42.8726120" lon="-8.4487460">
        <ele>485.2</ele>
        <time>2021-03-03T12:53:56Z</time>
      </trkpt>
      <trkpt lat="42.8725810" lon="-8.4487670">
        <ele>485.0</ele>
        <time>2021-03-03T12:53:57Z</time>
      </trkpt>
      <trkpt lat="42.8725580" lon="-8.4487820">
        <ele>484.6</ele>
        <time>2021-03-03T12:53:58Z</time>
      </trkpt>
      <trkpt lat="42.8725220" lon="-8.4488010">
        <ele>484.0</ele>
        <time>2021-03-03T12:53:59Z</time>
      </trkpt>
      <trkpt lat="42.8724990" lon="-8.4488140">
        <ele>483.6</ele>
        <time>2021-03-03T12:54:00Z</time>
      </trkpt>
      <trkpt lat="42.8724660" lon="-8.4488410">
        <ele>483.4</ele>
        <time>2021-03-03T12:54:01Z</time>
      </trkpt>
      <trkpt lat="42.8724370" lon="-8.4488680">
        <ele>483.2</ele>
        <time>2021-03-03T12:54:02Z</time>
      </trkpt>
      <trkpt lat="42.8724150" lon="-8.4488880">
        <ele>482.6</ele>
        <time>2021-03-03T12:54:03Z</time>
      </trkpt>
      <trkpt lat="42.8723830" lon="-8.4489130">
        <ele>482.4</ele>
        <time>2021-03-03T12:54:04Z</time>
      </trkpt>
      <trkpt lat="42.8723600" lon="-8.4489310">
        <ele>481.6</ele>
        <time>2021-03-03T12:54:05Z</time>
      </trkpt>
      <trkpt lat="42.8723390" lon="-8.4489460">
        <ele>481.2</ele>
        <time>2021-03-03T12:54:06Z</time>
      </trkpt>
      <trkpt lat="42.8723150" lon="-8.4489670">
        <ele>481.0</ele>
        <time>2021-03-03T12:54:07Z</time>
      </trkpt>
      <trkpt lat="42.8722850" lon="-8.4489870">
        <ele>480.6</ele>
        <time>2021-03-03T12:54:08Z</time>
      </trkpt>
      <trkpt lat="42.8722590" lon="-8.4490010">
        <ele>480.4</ele>
        <time>2021-03-03T12:54:09Z</time>
      </trkpt>
      <trkpt lat="42.8722340" lon="-8.4490200">
        <ele>480.2</ele>
        <time>2021-03-03T12:54:10Z</time>
      </trkpt>
      <trkpt lat="42.8722100" lon="-8.4490410">
        <ele>479.8</ele>
        <time>2021-03-03T12:54:11Z</time>
      </trkpt>
      <trkpt lat="42.8721880" lon="-8.4490570">
        <ele>479.4</ele>
        <time>2021-03-03T12:54:12Z</time>
      </trkpt>
      <trkpt lat="42.8721570" lon="-8.4490830">
        <ele>479.0</ele>
        <time>2021-03-03T12:54:13Z</time>
      </trkpt>
      <trkpt lat="42.8721300" lon="-8.4491050">
        <ele>479.0</ele>
        <time>2021-03-03T12:54:14Z</time>
      </trkpt>
      <trkpt lat="42.8721090" lon="-8.4491240">
        <ele>478.8</ele>
        <time>2021-03-03T12:54:15Z</time>
      </trkpt>
      <trkpt lat="42.8720880" lon="-8.4491360">
        <ele>478.6</ele>
        <time>2021-03-03T12:54:16Z</time>
      </trkpt>
      <trkpt lat="42.8720590" lon="-8.4491560">
        <ele>478.6</ele>
        <time>2021-03-03T12:54:17Z</time>
      </trkpt>
      <trkpt lat="42.8720240" lon="-8.4491790">
        <ele>478.4</ele>
        <time>2021-03-03T12:54:18Z</time>
      </trkpt>
      <trkpt lat="42.8719810" lon="-8.4491940">
        <ele>478.4</ele>
        <time>2021-03-03T12:54:19Z</time>
      </trkpt>
      <trkpt lat="42.8719520" lon="-8.4492110">
        <ele>478.4</ele>
        <time>2021-03-03T12:54:20Z</time>
      </trkpt>
      <trkpt lat="42.8719270" lon="-8.4492220">
        <ele>478.2</ele>
        <time>2021-03-03T12:54:21Z</time>
      </trkpt>
      <trkpt lat="42.8718970" lon="-8.4492410">
        <ele>478.0</ele>
        <time>2021-03-03T12:54:22Z</time>
      </trkpt>
      <trkpt lat="42.8718620" lon="-8.4492650">
        <ele>478.0</ele>
        <time>2021-03-03T12:54:23Z</time>
      </trkpt>
      <trkpt lat="42.8718340" lon="-8.4492820">
        <ele>477.8</ele>
        <time>2021-03-03T12:54:24Z</time>
      </trkpt>
      <trkpt lat="42.8718080" lon="-8.4493020">
        <ele>477.6</ele>
        <time>2021-03-03T12:54:25Z</time>
      </trkpt>
      <trkpt lat="42.8717810" lon="-8.4493200">
        <ele>477.4</ele>
        <time>2021-03-03T12:54:26Z</time>
      </trkpt>
      <trkpt lat="42.8717560" lon="-8.4493360">
        <ele>477.4</ele>
        <time>2021-03-03T12:54:27Z</time>
      </trkpt>
      <trkpt lat="42.8717270" lon="-8.4493550">
        <ele>477.2</ele>
        <time>2021-03-03T12:54:28Z</time>
      </trkpt>
      <trkpt lat="42.8717000" lon="-8.4493750">
        <ele>477.2</ele>
        <time>2021-03-03T12:54:29Z</time>
      </trkpt>
      <trkpt lat="42.8716780" lon="-8.4493930">
        <ele>477.0</ele>
        <time>2021-03-03T12:54:30Z</time>
      </trkpt>
      <trkpt lat="42.8716550" lon="-8.4494130">
        <ele>476.8</ele>
        <time>2021-03-03T12:54:31Z</time>
      </trkpt>
      <trkpt lat="42.8716230" lon="-8.4494360">
        <ele>476.6</ele>
        <time>2021-03-03T12:54:32Z</time>
      </trkpt>
      <trkpt lat="42.8715920" lon="-8.4494550">
        <ele>476.6</ele>
        <time>2021-03-03T12:54:33Z</time>
      </trkpt>
      <trkpt lat="42.8715610" lon="-8.4494770">
        <ele>476.4</ele>
        <time>2021-03-03T12:54:34Z</time>
      </trkpt>
      <trkpt lat="42.8715360" lon="-8.4494940">
        <ele>476.4</ele>
        <time>2021-03-03T12:54:35Z</time>
      </trkpt>
      <trkpt lat="42.8715040" lon="-8.4495130">
        <ele>476.4</ele>
        <time>2021-03-03T12:54:36Z</time>
      </trkpt>
      <trkpt lat="42.8714750" lon="-8.4495250">
        <ele>476.4</ele>
        <time>2021-03-03T12:54:37Z</time>
      </trkpt>
      <trkpt lat="42.8714460" lon="-8.4495400">
        <ele>476.4</ele>
        <time>2021-03-03T12:54:38Z</time>
      </trkpt>
      <trkpt lat="42.8714170" lon="-8.4495570">
        <ele>476.2</ele>
        <time>2021-03-03T12:54:39Z</time>
      </trkpt>
      <trkpt lat="42.8713950" lon="-8.4495680">
        <ele>476.2</ele>
        <time>2021-03-03T12:54:40Z</time>
      </trkpt>
      <trkpt lat="42.8713620" lon="-8.4495910">
        <ele>476.4</ele>
        <time>2021-03-03T12:54:41Z</time>
      </trkpt>
      <trkpt lat="42.8713370" lon="-8.4496100">
        <ele>476.2</ele>
        <time>2021-03-03T12:54:42Z</time>
      </trkpt>
      <trkpt lat="42.8713100" lon="-8.4496290">
        <ele>476.4</ele>
        <time>2021-03-03T12:54:43Z</time>
      </trkpt>
      <trkpt lat="42.8712810" lon="-8.4496490">
        <ele>476.4</ele>
        <time>2021-03-03T12:54:44Z</time>
      </trkpt>
      <trkpt lat="42.8712590" lon="-8.4496640">
        <ele>476.4</ele>
        <time>2021-03-03T12:54:45Z</time>
      </trkpt>
      <trkpt lat="42.8712220" lon="-8.4496870">
        <ele>476.4</ele>
        <time>2021-03-03T12:54:46Z</time>
      </trkpt>
      <trkpt lat="42.8711930" lon="-8.4497050">
        <ele>476.4</ele>
        <time>2021-03-03T12:54:47Z</time>
      </trkpt>
      <trkpt lat="42.8711650" lon="-8.4497260">
        <ele>476.2</ele>
        <time>2021-03-03T12:54:48Z</time>
      </trkpt>
      <trkpt lat="42.8711430" lon="-8.4497420">
        <ele>476.2</ele>
        <time>2021-03-03T12:54:49Z</time>
      </trkpt>
      <trkpt lat="42.8711090" lon="-8.4497620">
        <ele>476.2</ele>
        <time>2021-03-03T12:54:50Z</time>
      </trkpt>
      <trkpt lat="42.8710810" lon="-8.4497790">
        <ele>476.0</ele>
        <time>2021-03-03T12:54:51Z</time>
      </trkpt>
      <trkpt lat="42.8710530" lon="-8.4497950">
        <ele>476.2</ele>
        <time>2021-03-03T12:54:52Z</time>
      </trkpt>
      <trkpt lat="42.8710290" lon="-8.4498090">
        <ele>476.2</ele>
        <time>2021-03-03T12:54:53Z</time>
      </trkpt>
      <trkpt lat="42.8710020" lon="-8.4498270">
        <ele>476.2</ele>
        <time>2021-03-03T12:54:54Z</time>
      </trkpt>
      <trkpt lat="42.8709680" lon="-8.4498480">
        <ele>476.2</ele>
        <time>2021-03-03T12:54:55Z</time>
      </trkpt>
      <trkpt lat="42.8709380" lon="-8.4498630">
        <ele>476.2</ele>
        <time>2021-03-03T12:54:56Z</time>
      </trkpt>
      <trkpt lat="42.8709100" lon="-8.4498800">
        <ele>476.0</ele>
        <time>2021-03-03T12:54:57Z</time>
      </trkpt>
      <trkpt lat="42.8708880" lon="-8.4498920">
        <ele>476.0</ele>
        <time>2021-03-03T12:54:58Z</time>
      </trkpt>
      <trkpt lat="42.8708530" lon="-8.4499090">
        <ele>476.0</ele>
        <time>2021-03-03T12:54:59Z</time>
      </trkpt>
      <trkpt lat="42.8708250" lon="-8.4499240">
        <ele>475.8</ele>
        <time>2021-03-03T12:55:00Z</time>
      </trkpt>
      <trkpt lat="42.8707960" lon="-8.4499390">
        <ele>475.6</ele>
        <time>2021-03-03T12:55:01Z</time>
      </trkpt>
      <trkpt lat="42.8707730" lon="-8.4499510">
        <ele>475.6</ele>
        <time>2021-03-03T12:55:02Z</time>
      </trkpt>
      <trkpt lat="42.8707470" lon="-8.4499610">
        <ele>475.6</ele>
        <time>2021-03-03T12:55:03Z</time>
      </trkpt>
      <trkpt lat="42.8707250" lon="-8.4499620">
        <ele>475.6</ele>
        <time>2021-03-03T12:55:04Z</time>
      </trkpt>
      <trkpt lat="42.8707080" lon="-8.4499550">
        <ele>475.8</ele>
        <time>2021-03-03T12:55:05Z</time>
      </trkpt>
      <trkpt lat="42.8706900" lon="-8.4499380">
        <ele>475.8</ele>
        <time>2021-03-03T12:55:06Z</time>
      </trkpt>
      <trkpt lat="42.8706780" lon="-8.4499180">
        <ele>476.0</ele>
        <time>2021-03-03T12:55:07Z</time>
      </trkpt>
      <trkpt lat="42.8706640" lon="-8.4498950">
        <ele>476.0</ele>
        <time>2021-03-03T12:55:08Z</time>
      </trkpt>
      <trkpt lat="42.8706500" lon="-8.4498650">
        <ele>476.4</ele>
        <time>2021-03-03T12:55:09Z</time>
      </trkpt>
      <trkpt lat="42.8706400" lon="-8.4498390">
        <ele>476.6</ele>
        <time>2021-03-03T12:55:10Z</time>
      </trkpt>
      <trkpt lat="42.8706330" lon="-8.4498170">
        <ele>476.8</ele>
        <time>2021-03-03T12:55:11Z</time>
      </trkpt>
      <trkpt lat="42.8706260" lon="-8.4497940">
        <ele>477.0</ele>
        <time>2021-03-03T12:55:12Z</time>
      </trkpt>
      <trkpt lat="42.8706180" lon="-8.4497710">
        <ele>477.0</ele>
        <time>2021-03-03T12:55:13Z</time>
      </trkpt>
      <trkpt lat="42.8706100" lon="-8.4497440">
        <ele>477.2</ele>
        <time>2021-03-03T12:55:14Z</time>
      </trkpt>
      <trkpt lat="42.8706030" lon="-8.4497170">
        <ele>477.4</ele>
        <time>2021-03-03T12:55:15Z</time>
      </trkpt>
      <trkpt lat="42.8705970" lon="-8.4496910">
        <ele>477.6</ele>
        <time>2021-03-03T12:55:16Z</time>
      </trkpt>
      <trkpt lat="42.8705880" lon="-8.4496650">
        <ele>478.0</ele>
        <time>2021-03-03T12:55:17Z</time>
      </trkpt>
      <trkpt lat="42.8705770" lon="-8.4496390">
        <ele>478.2</ele>
        <time>2021-03-03T12:55:18Z</time>
      </trkpt>
      <trkpt lat="42.8705650" lon="-8.4496120">
        <ele>478.4</ele>
        <time>2021-03-03T12:55:19Z</time>
      </trkpt>
      <trkpt lat="42.8705510" lon="-8.4495870">
        <ele>478.6</ele>
        <time>2021-03-03T12:55:20Z</time>
      </trkpt>
      <trkpt lat="42.8705310" lon="-8.4495700">
        <ele>478.8</ele>
        <time>2021-03-03T12:55:21Z</time>
      </trkpt>
      <trkpt lat="42.8705100" lon="-8.4495650">
        <ele>478.8</ele>
        <time>2021-03-03T12:55:22Z</time>
      </trkpt>
      <trkpt lat="42.8704870" lon="-8.4495770">
        <ele>478.8</ele>
        <time>2021-03-03T12:55:23Z</time>
      </trkpt>
      <trkpt lat="42.8704680" lon="-8.4495960">
        <ele>478.6</ele>
        <time>2021-03-03T12:55:24Z</time>
      </trkpt>
      <trkpt lat="42.8704480" lon="-8.4496190">
        <ele>478.4</ele>
        <time>2021-03-03T12:55:25Z</time>
      </trkpt>
      <trkpt lat="42.8704290" lon="-8.4496400">
        <ele>478.0</ele>
        <time>2021-03-03T12:55:26Z</time>
      </trkpt>
      <trkpt lat="42.8704090" lon="-8.4496630">
        <ele>478.0</ele>
        <time>2021-03-03T12:55:27Z</time>
      </trkpt>
      <trkpt lat="42.8703900" lon="-8.4496910">
        <ele>477.8</ele>
        <time>2021-03-03T12:55:28Z</time>
      </trkpt>
      <trkpt lat="42.8703710" lon="-8.4497230">
        <ele>477.6</ele>
        <time>2021-03-03T12:55:29Z</time>
      </trkpt>
      <trkpt lat="42.8703540" lon="-8.4497540">
        <ele>477.6</ele>
        <time>2021-03-03T12:55:30Z</time>
      </trkpt>
      <trkpt lat="42.8703360" lon="-8.4497850">
        <ele>477.4</ele>
        <time>2021-03-03T12:55:31Z</time>
      </trkpt>
      <trkpt lat="42.8703230" lon="-8.4498250">
        <ele>477.2</ele>
        <time>2021-03-03T12:55:32Z</time>
      </trkpt>
      <trkpt lat="42.8703130" lon="-8.4498630">
        <ele>477.0</ele>
        <time>2021-03-03T12:55:33Z</time>
      </trkpt>
      <trkpt lat="42.8703060" lon="-8.4499040">
        <ele>476.6</ele>
        <time>2021-03-03T12:55:34Z</time>
      </trkpt>
      <trkpt lat="42.8702990" lon="-8.4499460">
        <ele>476.2</ele>
        <time>2021-03-03T12:55:35Z</time>
      </trkpt>
      <trkpt lat="42.8702910" lon="-8.4499870">
        <ele>476.0</ele>
        <time>2021-03-03T12:55:36Z</time>
      </trkpt>
      <trkpt lat="42.8702820" lon="-8.4500290">
        <ele>475.6</ele>
        <time>2021-03-03T12:55:37Z</time>
      </trkpt>
      <trkpt lat="42.8702720" lon="-8.4500700">
        <ele>474.8</ele>
        <time>2021-03-03T12:55:38Z</time>
      </trkpt>
      <trkpt lat="42.8702630" lon="-8.4501110">
        <ele>474.4</ele>
        <time>2021-03-03T12:55:39Z</time>
      </trkpt>
      <trkpt lat="42.8702540" lon="-8.4501520">
        <ele>474.0</ele>
        <time>2021-03-03T12:55:40Z</time>
      </trkpt>
      <trkpt lat="42.8702460" lon="-8.4501900">
        <ele>473.6</ele>
        <time>2021-03-03T12:55:41Z</time>
      </trkpt>
      <trkpt lat="42.8702380" lon="-8.4502300">
        <ele>473.2</ele>
        <time>2021-03-03T12:55:42Z</time>
      </trkpt>
      <trkpt lat="42.8702270" lon="-8.4502670">
        <ele>473.0</ele>
        <time>2021-03-03T12:55:43Z</time>
      </trkpt>
      <trkpt lat="42.8702160" lon="-8.4503060">
        <ele>472.6</ele>
        <time>2021-03-03T12:55:44Z</time>
      </trkpt>
      <trkpt lat="42.8702060" lon="-8.4503440">
        <ele>472.2</ele>
        <time>2021-03-03T12:55:45Z</time>
      </trkpt>
      <trkpt lat="42.8701950" lon="-8.4503820">
        <ele>472.0</ele>
        <time>2021-03-03T12:55:46Z</time>
      </trkpt>
      <trkpt lat="42.8701840" lon="-8.4504190">
        <ele>471.8</ele>
        <time>2021-03-03T12:55:47Z</time>
      </trkpt>
      <trkpt lat="42.8701720" lon="-8.4504520">
        <ele>471.2</ele>
        <time>2021-03-03T12:55:48Z</time>
      </trkpt>
      <trkpt lat="42.8701560" lon="-8.4504850">
        <ele>470.8</ele>
        <time>2021-03-03T12:55:49Z</time>
      </trkpt>
      <trkpt lat="42.8701380" lon="-8.4505200">
        <ele>470.4</ele>
        <time>2021-03-03T12:55:50Z</time>
      </trkpt>
      <trkpt lat="42.8701230" lon="-8.4505550">
        <ele>470.2</ele>
        <time>2021-03-03T12:55:51Z</time>
      </trkpt>
      <trkpt lat="42.8701110" lon="-8.4505900">
        <ele>469.8</ele>
        <time>2021-03-03T12:55:52Z</time>
      </trkpt>
      <trkpt lat="42.8700950" lon="-8.4506200">
        <ele>469.4</ele>
        <time>2021-03-03T12:55:53Z</time>
      </trkpt>
      <trkpt lat="42.8700800" lon="-8.4506520">
        <ele>468.6</ele>
        <time>2021-03-03T12:55:54Z</time>
      </trkpt>
      <trkpt lat="42.8700650" lon="-8.4506870">
        <ele>468.0</ele>
        <time>2021-03-03T12:55:55Z</time>
      </trkpt>
      <trkpt lat="42.8700520" lon="-8.4507250">
        <ele>467.8</ele>
        <time>2021-03-03T12:55:56Z</time>
      </trkpt>
      <trkpt lat="42.8700380" lon="-8.4507610">
        <ele>467.0</ele>
        <time>2021-03-03T12:55:57Z</time>
      </trkpt>
      <trkpt lat="42.8700240" lon="-8.4508000">
        <ele>466.4</ele>
        <time>2021-03-03T12:55:58Z</time>
      </trkpt>
      <trkpt lat="42.8700090" lon="-8.4508400">
        <ele>466.0</ele>
        <time>2021-03-03T12:55:59Z</time>
      </trkpt>
      <trkpt lat="42.8699950" lon="-8.4508790">
        <ele>465.6</ele>
        <time>2021-03-03T12:56:00Z</time>
      </trkpt>
      <trkpt lat="42.8699790" lon="-8.4509200">
        <ele>465.0</ele>
        <time>2021-03-03T12:56:01Z</time>
      </trkpt>
      <trkpt lat="42.8699640" lon="-8.4509600">
        <ele>464.6</ele>
        <time>2021-03-03T12:56:02Z</time>
      </trkpt>
      <trkpt lat="42.8699480" lon="-8.4509940">
        <ele>464.2</ele>
        <time>2021-03-03T12:56:03Z</time>
      </trkpt>
      <trkpt lat="42.8699300" lon="-8.4510270">
        <ele>464.0</ele>
        <time>2021-03-03T12:56:04Z</time>
      </trkpt>
      <trkpt lat="42.8699140" lon="-8.4510650">
        <ele>463.6</ele>
        <time>2021-03-03T12:56:05Z</time>
      </trkpt>
      <trkpt lat="42.8698970" lon="-8.4510990">
        <ele>463.2</ele>
        <time>2021-03-03T12:56:06Z</time>
      </trkpt>
      <trkpt lat="42.8698770" lon="-8.4511300">
        <ele>462.8</ele>
        <time>2021-03-03T12:56:07Z</time>
      </trkpt>
      <trkpt lat="42.8698580" lon="-8.4511690">
        <ele>462.2</ele>
        <time>2021-03-03T12:56:08Z</time>
      </trkpt>
      <trkpt lat="42.8698400" lon="-8.4512060">
        <ele>461.8</ele>
        <time>2021-03-03T12:56:09Z</time>
      </trkpt>
      <trkpt lat="42.8698220" lon="-8.4512450">
        <ele>461.2</ele>
        <time>2021-03-03T12:56:10Z</time>
      </trkpt>
      <trkpt lat="42.8698080" lon="-8.4512870">
        <ele>460.8</ele>
        <time>2021-03-03T12:56:11Z</time>
      </trkpt>
      <trkpt lat="42.8697930" lon="-8.4513270">
        <ele>460.2</ele>
        <time>2021-03-03T12:56:12Z</time>
      </trkpt>
      <trkpt lat="42.8697740" lon="-8.4513650">
        <ele>460.0</ele>
        <time>2021-03-03T12:56:13Z</time>
      </trkpt>
      <trkpt lat="42.8697580" lon="-8.4514030">
        <ele>459.6</ele>
        <time>2021-03-03T12:56:14Z</time>
      </trkpt>
      <trkpt lat="42.8697440" lon="-8.4514450">
        <ele>458.6</ele>
        <time>2021-03-03T12:56:15Z</time>
      </trkpt>
      <trkpt lat="42.8697300" lon="-8.4514870">
        <ele>457.8</ele>
        <time>2021-03-03T12:56:16Z</time>
      </trkpt>
      <trkpt lat="42.8697160" lon="-8.4515240">
        <ele>457.2</ele>
        <time>2021-03-03T12:56:17Z</time>
      </trkpt>
      <trkpt lat="42.8697050" lon="-8.4515660">
        <ele>456.8</ele>
        <time>2021-03-03T12:56:18Z</time>
      </trkpt>
      <trkpt lat="42.8696950" lon="-8.4516090">
        <ele>456.8</ele>
        <time>2021-03-03T12:56:19Z</time>
      </trkpt>
      <trkpt lat="42.8696840" lon="-8.4516490">
        <ele>456.4</ele>
        <time>2021-03-03T12:56:20Z</time>
      </trkpt>
      <trkpt lat="42.8696730" lon="-8.4516940">
        <ele>455.8</ele>
        <time>2021-03-03T12:56:21Z</time>
      </trkpt>
      <trkpt lat="42.8696660" lon="-8.4517380">
        <ele>455.6</ele>
        <time>2021-03-03T12:56:22Z</time>
      </trkpt>
      <trkpt lat="42.8696590" lon="-8.4517800">
        <ele>454.8</ele>
        <time>2021-03-03T12:56:23Z</time>
      </trkpt>
      <trkpt lat="42.8696500" lon="-8.4518260">
        <ele>454.2</ele>
        <time>2021-03-03T12:56:24Z</time>
      </trkpt>
      <trkpt lat="42.8696460" lon="-8.4518700">
        <ele>453.8</ele>
        <time>2021-03-03T12:56:25Z</time>
      </trkpt>
      <trkpt lat="42.8696410" lon="-8.4519130">
        <ele>453.4</ele>
        <time>2021-03-03T12:56:26Z</time>
      </trkpt>
      <trkpt lat="42.8696350" lon="-8.4519570">
        <ele>453.0</ele>
        <time>2021-03-03T12:56:27Z</time>
      </trkpt>
      <trkpt lat="42.8696250" lon="-8.4519970">
        <ele>452.8</ele>
        <time>2021-03-03T12:56:28Z</time>
      </trkpt>
      <trkpt lat="42.8696160" lon="-8.4520330">
        <ele>452.6</ele>
        <time>2021-03-03T12:56:29Z</time>
      </trkpt>
      <trkpt lat="42.8696080" lon="-8.4520720">
        <ele>452.2</ele>
        <time>2021-03-03T12:56:30Z</time>
      </trkpt>
      <trkpt lat="42.8695970" lon="-8.4521090">
        <ele>452.2</ele>
        <time>2021-03-03T12:56:31Z</time>
      </trkpt>
      <trkpt lat="42.8695840" lon="-8.4521500">
        <ele>451.8</ele>
        <time>2021-03-03T12:56:32Z</time>
      </trkpt>
      <trkpt lat="42.8695690" lon="-8.4521900">
        <ele>451.6</ele>
        <time>2021-03-03T12:56:33Z</time>
      </trkpt>
      <trkpt lat="42.8695520" lon="-8.4522240">
        <ele>451.0</ele>
        <time>2021-03-03T12:56:34Z</time>
      </trkpt>
      <trkpt lat="42.8695340" lon="-8.4522600">
        <ele>450.4</ele>
        <time>2021-03-03T12:56:35Z</time>
      </trkpt>
      <trkpt lat="42.8695160" lon="-8.4522940">
        <ele>450.2</ele>
        <time>2021-03-03T12:56:36Z</time>
      </trkpt>
      <trkpt lat="42.8695010" lon="-8.4523280">
        <ele>449.8</ele>
        <time>2021-03-03T12:56:37Z</time>
      </trkpt>
      <trkpt lat="42.8694830" lon="-8.4523650">
        <ele>449.4</ele>
        <time>2021-03-03T12:56:38Z</time>
      </trkpt>
      <trkpt lat="42.8694690" lon="-8.4524000">
        <ele>449.0</ele>
        <time>2021-03-03T12:56:39Z</time>
      </trkpt>
      <trkpt lat="42.8694420" lon="-8.4524670">
        <ele>448.2</ele>
        <time>2021-03-03T12:56:41Z</time>
      </trkpt>
      <trkpt lat="42.8694260" lon="-8.4525000">
        <ele>448.0</ele>
        <time>2021-03-03T12:56:42Z</time>
      </trkpt>
      <trkpt lat="42.8694120" lon="-8.4525340">
        <ele>447.4</ele>
        <time>2021-03-03T12:56:43Z</time>
      </trkpt>
      <trkpt lat="42.8693990" lon="-8.4525740">
        <ele>447.2</ele>
        <time>2021-03-03T12:56:44Z</time>
      </trkpt>
      <trkpt lat="42.8693830" lon="-8.4526140">
        <ele>446.4</ele>
        <time>2021-03-03T12:56:45Z</time>
      </trkpt>
      <trkpt lat="42.8693660" lon="-8.4526480">
        <ele>446.0</ele>
        <time>2021-03-03T12:56:46Z</time>
      </trkpt>
      <trkpt lat="42.8693470" lon="-8.4526820">
        <ele>445.8</ele>
        <time>2021-03-03T12:56:47Z</time>
      </trkpt>
      <trkpt lat="42.8693280" lon="-8.4527150">
        <ele>445.6</ele>
        <time>2021-03-03T12:56:48Z</time>
      </trkpt>
      <trkpt lat="42.8693090" lon="-8.4527540">
        <ele>445.6</ele>
        <time>2021-03-03T12:56:49Z</time>
      </trkpt>
      <trkpt lat="42.8692900" lon="-8.4527890">
        <ele>445.4</ele>
        <time>2021-03-03T12:56:50Z</time>
      </trkpt>
      <trkpt lat="42.8692720" lon="-8.4528240">
        <ele>445.4</ele>
        <time>2021-03-03T12:56:51Z</time>
      </trkpt>
      <trkpt lat="42.8692550" lon="-8.4528620">
        <ele>445.4</ele>
        <time>2021-03-03T12:56:52Z</time>
      </trkpt>
      <trkpt lat="42.8692370" lon="-8.4529030">
        <ele>445.4</ele>
        <time>2021-03-03T12:56:53Z</time>
      </trkpt>
      <trkpt lat="42.8692200" lon="-8.4529410">
        <ele>445.2</ele>
        <time>2021-03-03T12:56:54Z</time>
      </trkpt>
      <trkpt lat="42.8692020" lon="-8.4529770">
        <ele>445.2</ele>
        <time>2021-03-03T12:56:55Z</time>
      </trkpt>
      <trkpt lat="42.8691870" lon="-8.4530150">
        <ele>445.0</ele>
        <time>2021-03-03T12:56:56Z</time>
      </trkpt>
      <trkpt lat="42.8691710" lon="-8.4530550">
        <ele>445.0</ele>
        <time>2021-03-03T12:56:57Z</time>
      </trkpt>
      <trkpt lat="42.8691600" lon="-8.4530960">
        <ele>444.8</ele>
        <time>2021-03-03T12:56:58Z</time>
      </trkpt>
      <trkpt lat="42.8691530" lon="-8.4531340">
        <ele>444.6</ele>
        <time>2021-03-03T12:56:59Z</time>
      </trkpt>
      <trkpt lat="42.8691460" lon="-8.4531730">
        <ele>444.4</ele>
        <time>2021-03-03T12:57:00Z</time>
      </trkpt>
      <trkpt lat="42.8691420" lon="-8.4532160">
        <ele>444.4</ele>
        <time>2021-03-03T12:57:01Z</time>
      </trkpt>
      <trkpt lat="42.8691380" lon="-8.4532540">
        <ele>444.2</ele>
        <time>2021-03-03T12:57:02Z</time>
      </trkpt>
      <trkpt lat="42.8691360" lon="-8.4532940">
        <ele>444.0</ele>
        <time>2021-03-03T12:57:03Z</time>
      </trkpt>
      <trkpt lat="42.8691360" lon="-8.4533380">
        <ele>444.0</ele>
        <time>2021-03-03T12:57:04Z</time>
      </trkpt>
      <trkpt lat="42.8691340" lon="-8.4533830">
        <ele>443.8</ele>
        <time>2021-03-03T12:57:05Z</time>
      </trkpt>
      <trkpt lat="42.8691360" lon="-8.4534260">
        <ele>443.8</ele>
        <time>2021-03-03T12:57:06Z</time>
      </trkpt>
      <trkpt lat="42.8691370" lon="-8.4534700">
        <ele>443.8</ele>
        <time>2021-03-03T12:57:07Z</time>
      </trkpt>
      <trkpt lat="42.8691390" lon="-8.4535130">
        <ele>443.6</ele>
        <time>2021-03-03T12:57:08Z</time>
      </trkpt>
      <trkpt lat="42.8691430" lon="-8.4535580">
        <ele>443.6</ele>
        <time>2021-03-03T12:57:09Z</time>
      </trkpt>
      <trkpt lat="42.8691490" lon="-8.4536050">
        <ele>443.8</ele>
        <time>2021-03-03T12:57:10Z</time>
      </trkpt>
      <trkpt lat="42.8691540" lon="-8.4536480">
        <ele>443.6</ele>
        <time>2021-03-03T12:57:11Z</time>
      </trkpt>
      <trkpt lat="42.8691610" lon="-8.4536880">
        <ele>443.4</ele>
        <time>2021-03-03T12:57:12Z</time>
      </trkpt>
      <trkpt lat="42.8691720" lon="-8.4537240">
        <ele>443.4</ele>
        <time>2021-03-03T12:57:13Z</time>
      </trkpt>
      <trkpt lat="42.8691810" lon="-8.4537610">
        <ele>443.0</ele>
        <time>2021-03-03T12:57:14Z</time>
      </trkpt>
      <trkpt lat="42.8691910" lon="-8.4538010">
        <ele>442.6</ele>
        <time>2021-03-03T12:57:15Z</time>
      </trkpt>
      <trkpt lat="42.8692000" lon="-8.4538420">
        <ele>442.6</ele>
        <time>2021-03-03T12:57:16Z</time>
      </trkpt>
      <trkpt lat="42.8692060" lon="-8.4538830">
        <ele>442.0</ele>
        <time>2021-03-03T12:57:17Z</time>
      </trkpt>
      <trkpt lat="42.8692150" lon="-8.4539250">
        <ele>441.8</ele>
        <time>2021-03-03T12:57:18Z</time>
      </trkpt>
      <trkpt lat="42.8692190" lon="-8.4539650">
        <ele>441.8</ele>
        <time>2021-03-03T12:57:19Z</time>
      </trkpt>
      <trkpt lat="42.8692190" lon="-8.4540040">
        <ele>441.6</ele>
        <time>2021-03-03T12:57:20Z</time>
      </trkpt>
      <trkpt lat="42.8692210" lon="-8.4540430">
        <ele>441.6</ele>
        <time>2021-03-03T12:57:21Z</time>
      </trkpt>
      <trkpt lat="42.8692210" lon="-8.4540810">
        <ele>441.6</ele>
        <time>2021-03-03T12:57:22Z</time>
      </trkpt>
      <trkpt lat="42.8692180" lon="-8.4541210">
        <ele>441.6</ele>
        <time>2021-03-03T12:57:23Z</time>
      </trkpt>
      <trkpt lat="42.8692140" lon="-8.4541650">
        <ele>441.4</ele>
        <time>2021-03-03T12:57:24Z</time>
      </trkpt>
      <trkpt lat="42.8692110" lon="-8.4542100">
        <ele>441.2</ele>
        <time>2021-03-03T12:57:25Z</time>
      </trkpt>
      <trkpt lat="42.8692050" lon="-8.4542520">
        <ele>440.8</ele>
        <time>2021-03-03T12:57:26Z</time>
      </trkpt>
      <trkpt lat="42.8691980" lon="-8.4542910">
        <ele>440.6</ele>
        <time>2021-03-03T12:57:27Z</time>
      </trkpt>
      <trkpt lat="42.8691920" lon="-8.4543310">
        <ele>440.4</ele>
        <time>2021-03-03T12:57:28Z</time>
      </trkpt>
      <trkpt lat="42.8691920" lon="-8.4543690">
        <ele>439.6</ele>
        <time>2021-03-03T12:57:29Z</time>
      </trkpt>
      <trkpt lat="42.8691980" lon="-8.4544090">
        <ele>439.0</ele>
        <time>2021-03-03T12:57:30Z</time>
      </trkpt>
      <trkpt lat="42.8692070" lon="-8.4544510">
        <ele>438.8</ele>
        <time>2021-03-03T12:57:31Z</time>
      </trkpt>
      <trkpt lat="42.8692180" lon="-8.4544900">
        <ele>438.4</ele>
        <time>2021-03-03T12:57:32Z</time>
      </trkpt>
      <trkpt lat="42.8692340" lon="-8.4545280">
        <ele>438.0</ele>
        <time>2021-03-03T12:57:33Z</time>
      </trkpt>
      <trkpt lat="42.8692510" lon="-8.4545610">
        <ele>437.4</ele>
        <time>2021-03-03T12:57:34Z</time>
      </trkpt>
      <trkpt lat="42.8692690" lon="-8.4545920">
        <ele>436.8</ele>
        <time>2021-03-03T12:57:35Z</time>
      </trkpt>
      <trkpt lat="42.8692840" lon="-8.4546240">
        <ele>436.4</ele>
        <time>2021-03-03T12:57:36Z</time>
      </trkpt>
      <trkpt lat="42.8692950" lon="-8.4546570">
        <ele>435.8</ele>
        <time>2021-03-03T12:57:37Z</time>
      </trkpt>
      <trkpt lat="42.8693140" lon="-8.4546900">
        <ele>435.6</ele>
        <time>2021-03-03T12:57:38Z</time>
      </trkpt>
      <trkpt lat="42.8693300" lon="-8.4547240">
        <ele>435.0</ele>
        <time>2021-03-03T12:57:39Z</time>
      </trkpt>
      <trkpt lat="42.8693440" lon="-8.4547590">
        <ele>434.2</ele>
        <time>2021-03-03T12:57:40Z</time>
      </trkpt>
      <trkpt lat="42.8693610" lon="-8.4547900">
        <ele>433.6</ele>
        <time>2021-03-03T12:57:41Z</time>
      </trkpt>
      <trkpt lat="42.8693770" lon="-8.4548230">
        <ele>433.4</ele>
        <time>2021-03-03T12:57:42Z</time>
      </trkpt>
      <trkpt lat="42.8693940" lon="-8.4548560">
        <ele>433.2</ele>
        <time>2021-03-03T12:57:43Z</time>
      </trkpt>
      <trkpt lat="42.8694120" lon="-8.4548860">
        <ele>433.0</ele>
        <time>2021-03-03T12:57:44Z</time>
      </trkpt>
      <trkpt lat="42.8694310" lon="-8.4549140">
        <ele>432.6</ele>
        <time>2021-03-03T12:57:45Z</time>
      </trkpt>
      <trkpt lat="42.8694540" lon="-8.4549440">
        <ele>432.0</ele>
        <time>2021-03-03T12:57:46Z</time>
      </trkpt>
      <trkpt lat="42.8694760" lon="-8.4549730">
        <ele>431.4</ele>
        <time>2021-03-03T12:57:47Z</time>
      </trkpt>
      <trkpt lat="42.8694970" lon="-8.4549980">
        <ele>430.8</ele>
        <time>2021-03-03T12:57:48Z</time>
      </trkpt>
      <trkpt lat="42.8695180" lon="-8.4550210">
        <ele>430.4</ele>
        <time>2021-03-03T12:57:49Z</time>
      </trkpt>
      <trkpt lat="42.8695390" lon="-8.4550420">
        <ele>430.0</ele>
        <time>2021-03-03T12:57:50Z</time>
      </trkpt>
      <trkpt lat="42.8695540" lon="-8.4550630">
        <ele>429.6</ele>
        <time>2021-03-03T12:57:51Z</time>
      </trkpt>
      <trkpt lat="42.8695610" lon="-8.4550690">
        <ele>429.2</ele>
        <time>2021-03-03T12:57:52Z</time>
      </trkpt>
      <trkpt lat="42.8695660" lon="-8.4550710">
        <ele>429.0</ele>
        <time>2021-03-03T12:57:53Z</time>
      </trkpt>
      <trkpt lat="42.8695560" lon="-8.4550780">
        <ele>429.0</ele>
        <time>2021-03-03T12:57:54Z</time>
      </trkpt>
      <trkpt lat="42.8695500" lon="-8.4550860">
        <ele>429.0</ele>
        <time>2021-03-03T12:57:55Z</time>
      </trkpt>
      <trkpt lat="42.8695550" lon="-8.4550950">
        <ele>429.0</ele>
        <time>2021-03-03T12:57:56Z</time>
      </trkpt>
      <trkpt lat="42.8695590" lon="-8.4550960">
        <ele>429.0</ele>
        <time>2021-03-03T12:57:57Z</time>
      </trkpt>
      <trkpt lat="42.8695580" lon="-8.4550960">
        <ele>429.0</ele>
        <time>2021-03-03T12:57:58Z</time>
      </trkpt>
      <trkpt lat="42.8695530" lon="-8.4551050">
        <ele>429.0</ele>
        <time>2021-03-03T12:57:59Z</time>
      </trkpt>
      <trkpt lat="42.8695610" lon="-8.4551160">
        <ele>429.0</ele>
        <time>2021-03-03T12:58:00Z</time>
      </trkpt>
      <trkpt lat="42.8695770" lon="-8.4551300">
        <ele>429.0</ele>
        <time>2021-03-03T12:58:01Z</time>
      </trkpt>
      <trkpt lat="42.8695900" lon="-8.4551360">
        <ele>429.0</ele>
        <time>2021-03-03T12:58:02Z</time>
      </trkpt>
      <trkpt lat="42.8695960" lon="-8.4551360">
        <ele>429.0</ele>
        <time>2021-03-03T12:58:03Z</time>
      </trkpt>
      <trkpt lat="42.8695980" lon="-8.4551360">
        <ele>429.0</ele>
        <time>2021-03-03T12:58:04Z</time>
      </trkpt>
      <trkpt lat="42.8696020" lon="-8.4551350">
        <ele>429.0</ele>
        <time>2021-03-03T12:58:05Z</time>
      </trkpt>
      <trkpt lat="42.8695980" lon="-8.4551310">
        <ele>429.0</ele>
        <time>2021-03-03T12:58:06Z</time>
      </trkpt>
      <trkpt lat="42.8695990" lon="-8.4551280">
        <ele>429.0</ele>
        <time>2021-03-03T12:58:07Z</time>
      </trkpt>
      <trkpt lat="42.8696040" lon="-8.4551290">
        <ele>429.0</ele>
        <time>2021-03-03T12:58:08Z</time>
      </trkpt>
      <trkpt lat="42.8696020" lon="-8.4551310">
        <ele>429.0</ele>
        <time>2021-03-03T12:58:09Z</time>
      </trkpt>
      <trkpt lat="42.8696030" lon="-8.4551240">
        <ele>429.0</ele>
        <time>2021-03-03T12:58:10Z</time>
      </trkpt>
      <trkpt lat="42.8695990" lon="-8.4551230">
        <ele>429.0</ele>
        <time>2021-03-03T12:58:11Z</time>
      </trkpt>
      <trkpt lat="42.8696030" lon="-8.4551230">
        <ele>429.0</ele>
        <time>2021-03-03T12:58:12Z</time>
      </trkpt>
      <trkpt lat="42.8696000" lon="-8.4551230">
        <ele>429.0</ele>
        <time>2021-03-03T12:58:13Z</time>
      </trkpt>
      <trkpt lat="42.8696000" lon="-8.4551240">
        <ele>429.0</ele>
        <time>2021-03-03T12:58:14Z</time>
      </trkpt>
      <trkpt lat="42.8696010" lon="-8.4551190">
        <ele>429.0</ele>
        <time>2021-03-03T12:58:15Z</time>
      </trkpt>
      <trkpt lat="42.8696030" lon="-8.4551150">
        <ele>429.0</ele>
        <time>2021-03-03T12:58:16Z</time>
      </trkpt>
      <trkpt lat="42.8696030" lon="-8.4551150">
        <ele>429.0</ele>
        <time>2021-03-03T12:58:17Z</time>
      </trkpt>
      <trkpt lat="42.8696030" lon="-8.4551150">
        <ele>429.0</ele>
        <time>2021-03-03T12:58:18Z</time>
      </trkpt>
      <trkpt lat="42.8696030" lon="-8.4551150">
        <ele>429.0</ele>
        <time>2021-03-03T12:58:19Z</time>
      </trkpt>
      <trkpt lat="42.8696060" lon="-8.4551190">
        <ele>429.0</ele>
        <time>2021-03-03T12:58:20Z</time>
      </trkpt>
      <trkpt lat="42.8696280" lon="-8.4551440">
        <ele>428.4</ele>
        <time>2021-03-03T12:58:21Z</time>
      </trkpt>
      <trkpt lat="42.8696470" lon="-8.4551740">
        <ele>428.0</ele>
        <time>2021-03-03T12:58:22Z</time>
      </trkpt>
      <trkpt lat="42.8696690" lon="-8.4552050">
        <ele>427.8</ele>
        <time>2021-03-03T12:58:23Z</time>
      </trkpt>
      <trkpt lat="42.8696890" lon="-8.4552340">
        <ele>427.4</ele>
        <time>2021-03-03T12:58:24Z</time>
      </trkpt>
      <trkpt lat="42.8697040" lon="-8.4552700">
        <ele>426.8</ele>
        <time>2021-03-03T12:58:25Z</time>
      </trkpt>
      <trkpt lat="42.8697180" lon="-8.4553080">
        <ele>426.6</ele>
        <time>2021-03-03T12:58:26Z</time>
      </trkpt>
      <trkpt lat="42.8697290" lon="-8.4553480">
        <ele>426.2</ele>
        <time>2021-03-03T12:58:27Z</time>
      </trkpt>
      <trkpt lat="42.8697420" lon="-8.4553860">
        <ele>425.6</ele>
        <time>2021-03-03T12:58:28Z</time>
      </trkpt>
      <trkpt lat="42.8697630" lon="-8.4554180">
        <ele>425.2</ele>
        <time>2021-03-03T12:58:29Z</time>
      </trkpt>
      <trkpt lat="42.8697780" lon="-8.4554520">
        <ele>424.6</ele>
        <time>2021-03-03T12:58:30Z</time>
      </trkpt>
      <trkpt lat="42.8697940" lon="-8.4554830">
        <ele>424.4</ele>
        <time>2021-03-03T12:58:31Z</time>
      </trkpt>
      <trkpt lat="42.8698110" lon="-8.4555160">
        <ele>423.8</ele>
        <time>2021-03-03T12:58:32Z</time>
      </trkpt>
      <trkpt lat="42.8698260" lon="-8.4555510">
        <ele>423.6</ele>
        <time>2021-03-03T12:58:33Z</time>
      </trkpt>
      <trkpt lat="42.8698390" lon="-8.4555860">
        <ele>423.4</ele>
        <time>2021-03-03T12:58:34Z</time>
      </trkpt>
      <trkpt lat="42.8698490" lon="-8.4556270">
        <ele>422.6</ele>
        <time>2021-03-03T12:58:35Z</time>
      </trkpt>
      <trkpt lat="42.8698590" lon="-8.4556720">
        <ele>422.0</ele>
        <time>2021-03-03T12:58:36Z</time>
      </trkpt>
      <trkpt lat="42.8698680" lon="-8.4557100">
        <ele>421.4</ele>
        <time>2021-03-03T12:58:37Z</time>
      </trkpt>
      <trkpt lat="42.8698770" lon="-8.4557450">
        <ele>421.2</ele>
        <time>2021-03-03T12:58:38Z</time>
      </trkpt>
      <trkpt lat="42.8698890" lon="-8.4557830">
        <ele>420.8</ele>
        <time>2021-03-03T12:58:39Z</time>
      </trkpt>
      <trkpt lat="42.8699000" lon="-8.4558190">
        <ele>420.4</ele>
        <time>2021-03-03T12:58:40Z</time>
      </trkpt>
      <trkpt lat="42.8699090" lon="-8.4558550">
        <ele>420.2</ele>
        <time>2021-03-03T12:58:41Z</time>
      </trkpt>
      <trkpt lat="42.8699160" lon="-8.4558930">
        <ele>419.8</ele>
        <time>2021-03-03T12:58:42Z</time>
      </trkpt>
      <trkpt lat="42.8699160" lon="-8.4559320">
        <ele>419.6</ele>
        <time>2021-03-03T12:58:43Z</time>
      </trkpt>
      <trkpt lat="42.8699160" lon="-8.4559690">
        <ele>419.6</ele>
        <time>2021-03-03T12:58:44Z</time>
      </trkpt>
      <trkpt lat="42.8699150" lon="-8.4560110">
        <ele>419.4</ele>
        <time>2021-03-03T12:58:45Z</time>
      </trkpt>
      <trkpt lat="42.8699160" lon="-8.4560510">
        <ele>419.4</ele>
        <time>2021-03-03T12:58:46Z</time>
      </trkpt>
      <trkpt lat="42.8699180" lon="-8.4560860">
        <ele>419.4</ele>
        <time>2021-03-03T12:58:47Z</time>
      </trkpt>
      <trkpt lat="42.8699210" lon="-8.4561120">
        <ele>419.4</ele>
        <time>2021-03-03T12:58:48Z</time>
      </trkpt>
      <trkpt lat="42.8699250" lon="-8.4561340">
        <ele>419.4</ele>
        <time>2021-03-03T12:58:49Z</time>
      </trkpt>
      <trkpt lat="42.8699340" lon="-8.4561490">
        <ele>419.2</ele>
        <time>2021-03-03T12:58:50Z</time>
      </trkpt>
      <trkpt lat="42.8699420" lon="-8.4561540">
        <ele>419.0</ele>
        <time>2021-03-03T12:58:51Z</time>
      </trkpt>
      <trkpt lat="42.8699480" lon="-8.4561580">
        <ele>419.0</ele>
        <time>2021-03-03T12:58:52Z</time>
      </trkpt>
      <trkpt lat="42.8699620" lon="-8.4561570">
        <ele>418.8</ele>
        <time>2021-03-03T12:58:53Z</time>
      </trkpt>
      <trkpt lat="42.8699810" lon="-8.4561470">
        <ele>418.8</ele>
        <time>2021-03-03T12:58:54Z</time>
      </trkpt>
      <trkpt lat="42.8700040" lon="-8.4561310">
        <ele>418.8</ele>
        <time>2021-03-03T12:58:55Z</time>
      </trkpt>
      <trkpt lat="42.8700270" lon="-8.4561140">
        <ele>418.8</ele>
        <time>2021-03-03T12:58:56Z</time>
      </trkpt>
      <trkpt lat="42.8700460" lon="-8.4560980">
        <ele>418.8</ele>
        <time>2021-03-03T12:58:57Z</time>
      </trkpt>
      <trkpt lat="42.8700710" lon="-8.4560780">
        <ele>418.8</ele>
        <time>2021-03-03T12:58:58Z</time>
      </trkpt>
      <trkpt lat="42.8700940" lon="-8.4560570">
        <ele>418.6</ele>
        <time>2021-03-03T12:58:59Z</time>
      </trkpt>
      <trkpt lat="42.8701150" lon="-8.4560400">
        <ele>418.6</ele>
        <time>2021-03-03T12:59:00Z</time>
      </trkpt>
      <trkpt lat="42.8701410" lon="-8.4560210">
        <ele>418.6</ele>
        <time>2021-03-03T12:59:01Z</time>
      </trkpt>
      <trkpt lat="42.8701650" lon="-8.4560010">
        <ele>418.2</ele>
        <time>2021-03-03T12:59:02Z</time>
      </trkpt>
      <trkpt lat="42.8701930" lon="-8.4559830">
        <ele>418.2</ele>
        <time>2021-03-03T12:59:03Z</time>
      </trkpt>
      <trkpt lat="42.8702250" lon="-8.4559630">
        <ele>418.0</ele>
        <time>2021-03-03T12:59:04Z</time>
      </trkpt>
      <trkpt lat="42.8702500" lon="-8.4559410">
        <ele>418.0</ele>
        <time>2021-03-03T12:59:05Z</time>
      </trkpt>
      <trkpt lat="42.8702760" lon="-8.4559200">
        <ele>418.0</ele>
        <time>2021-03-03T12:59:06Z</time>
      </trkpt>
      <trkpt lat="42.8703020" lon="-8.4559040">
        <ele>418.0</ele>
        <time>2021-03-03T12:59:07Z</time>
      </trkpt>
      <trkpt lat="42.8703280" lon="-8.4558870">
        <ele>417.8</ele>
        <time>2021-03-03T12:59:08Z</time>
      </trkpt>
      <trkpt lat="42.8703530" lon="-8.4558700">
        <ele>417.8</ele>
        <time>2021-03-03T12:59:09Z</time>
      </trkpt>
      <trkpt lat="42.8703780" lon="-8.4558530">
        <ele>417.8</ele>
        <time>2021-03-03T12:59:10Z</time>
      </trkpt>
      <trkpt lat="42.8704040" lon="-8.4558320">
        <ele>417.8</ele>
        <time>2021-03-03T12:59:11Z</time>
      </trkpt>
      <trkpt lat="42.8704280" lon="-8.4558100">
        <ele>417.8</ele>
        <time>2021-03-03T12:59:12Z</time>
      </trkpt>
      <trkpt lat="42.8704500" lon="-8.4557870">
        <ele>417.8</ele>
        <time>2021-03-03T12:59:13Z</time>
      </trkpt>
      <trkpt lat="42.8704690" lon="-8.4557650">
        <ele>417.8</ele>
        <time>2021-03-03T12:59:14Z</time>
      </trkpt>
      <trkpt lat="42.8704970" lon="-8.4557420">
        <ele>418.0</ele>
        <time>2021-03-03T12:59:15Z</time>
      </trkpt>
      <trkpt lat="42.8705260" lon="-8.4557220">
        <ele>418.0</ele>
        <time>2021-03-03T12:59:16Z</time>
      </trkpt>
      <trkpt lat="42.8705490" lon="-8.4556980">
        <ele>418.2</ele>
        <time>2021-03-03T12:59:17Z</time>
      </trkpt>
      <trkpt lat="42.8705710" lon="-8.4556720">
        <ele>418.2</ele>
        <time>2021-03-03T12:59:18Z</time>
      </trkpt>
      <trkpt lat="42.8705990" lon="-8.4556470">
        <ele>418.2</ele>
        <time>2021-03-03T12:59:19Z</time>
      </trkpt>
      <trkpt lat="42.8706250" lon="-8.4556260">
        <ele>418.0</ele>
        <time>2021-03-03T12:59:20Z</time>
      </trkpt>
      <trkpt lat="42.8706530" lon="-8.4556060">
        <ele>418.2</ele>
        <time>2021-03-03T12:59:21Z</time>
      </trkpt>
      <trkpt lat="42.8706820" lon="-8.4555850">
        <ele>418.2</ele>
        <time>2021-03-03T12:59:22Z</time>
      </trkpt>
      <trkpt lat="42.8707110" lon="-8.4555640">
        <ele>418.0</ele>
        <time>2021-03-03T12:59:23Z</time>
      </trkpt>
      <trkpt lat="42.8707430" lon="-8.4555410">
        <ele>418.2</ele>
        <time>2021-03-03T12:59:24Z</time>
      </trkpt>
      <trkpt lat="42.8707750" lon="-8.4555170">
        <ele>418.2</ele>
        <time>2021-03-03T12:59:25Z</time>
      </trkpt>
      <trkpt lat="42.8707890" lon="-8.4554800">
        <ele>418.2</ele>
        <time>2021-03-03T12:59:26Z</time>
      </trkpt>
      <trkpt lat="42.8707950" lon="-8.4554370">
        <ele>418.2</ele>
        <time>2021-03-03T12:59:27Z</time>
      </trkpt>
      <trkpt lat="42.8707950" lon="-8.4553990">
        <ele>418.2</ele>
        <time>2021-03-03T12:59:28Z</time>
      </trkpt>
      <trkpt lat="42.8708130" lon="-8.4553750">
        <ele>418.2</ele>
        <time>2021-03-03T12:59:29Z</time>
      </trkpt>
      <trkpt lat="42.8708360" lon="-8.4553540">
        <ele>418.2</ele>
        <time>2021-03-03T12:59:30Z</time>
      </trkpt>
      <trkpt lat="42.8708560" lon="-8.4553340">
        <ele>418.2</ele>
        <time>2021-03-03T12:59:31Z</time>
      </trkpt>
      <trkpt lat="42.8708760" lon="-8.4553120">
        <ele>418.2</ele>
        <time>2021-03-03T12:59:32Z</time>
      </trkpt>
      <trkpt lat="42.8708920" lon="-8.4552910">
        <ele>418.4</ele>
        <time>2021-03-03T12:59:33Z</time>
      </trkpt>
      <trkpt lat="42.8709100" lon="-8.4552720">
        <ele>418.4</ele>
        <time>2021-03-03T12:59:34Z</time>
      </trkpt>
      <trkpt lat="42.8709310" lon="-8.4552500">
        <ele>418.4</ele>
        <time>2021-03-03T12:59:35Z</time>
      </trkpt>
      <trkpt lat="42.8709540" lon="-8.4552290">
        <ele>418.4</ele>
        <time>2021-03-03T12:59:36Z</time>
      </trkpt>
      <trkpt lat="42.8709770" lon="-8.4552060">
        <ele>418.4</ele>
        <time>2021-03-03T12:59:37Z</time>
      </trkpt>
      <trkpt lat="42.8709980" lon="-8.4551780">
        <ele>418.4</ele>
        <time>2021-03-03T12:59:38Z</time>
      </trkpt>
      <trkpt lat="42.8710170" lon="-8.4551540">
        <ele>418.4</ele>
        <time>2021-03-03T12:59:39Z</time>
      </trkpt>
      <trkpt lat="42.8710370" lon="-8.4551340">
        <ele>418.4</ele>
        <time>2021-03-03T12:59:40Z</time>
      </trkpt>
      <trkpt lat="42.8710560" lon="-8.4551150">
        <ele>418.6</ele>
        <time>2021-03-03T12:59:41Z</time>
      </trkpt>
      <trkpt lat="42.8710770" lon="-8.4550980">
        <ele>418.6</ele>
        <time>2021-03-03T12:59:42Z</time>
      </trkpt>
      <trkpt lat="42.8710980" lon="-8.4550790">
        <ele>418.8</ele>
        <time>2021-03-03T12:59:43Z</time>
      </trkpt>
      <trkpt lat="42.8711240" lon="-8.4550600">
        <ele>419.0</ele>
        <time>2021-03-03T12:59:44Z</time>
      </trkpt>
      <trkpt lat="42.8711450" lon="-8.4550420">
        <ele>419.0</ele>
        <time>2021-03-03T12:59:45Z</time>
      </trkpt>
      <trkpt lat="42.8711650" lon="-8.4550230">
        <ele>419.2</ele>
        <time>2021-03-03T12:59:46Z</time>
      </trkpt>
      <trkpt lat="42.8711830" lon="-8.4550100">
        <ele>419.2</ele>
        <time>2021-03-03T12:59:47Z</time>
      </trkpt>
      <trkpt lat="42.8712020" lon="-8.4549970">
        <ele>419.2</ele>
        <time>2021-03-03T12:59:48Z</time>
      </trkpt>
      <trkpt lat="42.8712180" lon="-8.4549790">
        <ele>419.4</ele>
        <time>2021-03-03T12:59:49Z</time>
      </trkpt>
      <trkpt lat="42.8712400" lon="-8.4549650">
        <ele>419.4</ele>
        <time>2021-03-03T12:59:50Z</time>
      </trkpt>
      <trkpt lat="42.8712580" lon="-8.4549540">
        <ele>419.6</ele>
        <time>2021-03-03T12:59:51Z</time>
      </trkpt>
      <trkpt lat="42.8712730" lon="-8.4549470">
        <ele>419.6</ele>
        <time>2021-03-03T12:59:52Z</time>
      </trkpt>
      <trkpt lat="42.8712930" lon="-8.4549390">
        <ele>419.6</ele>
        <time>2021-03-03T12:59:53Z</time>
      </trkpt>
      <trkpt lat="42.8713080" lon="-8.4549340">
        <ele>419.8</ele>
        <time>2021-03-03T12:59:54Z</time>
      </trkpt>
      <trkpt lat="42.8713250" lon="-8.4549310">
        <ele>419.8</ele>
        <time>2021-03-03T12:59:55Z</time>
      </trkpt>
      <trkpt lat="42.8713400" lon="-8.4549250">
        <ele>420.0</ele>
        <time>2021-03-03T12:59:56Z</time>
      </trkpt>
      <trkpt lat="42.8713540" lon="-8.4549150">
        <ele>420.0</ele>
        <time>2021-03-03T12:59:57Z</time>
      </trkpt>
      <trkpt lat="42.8713670" lon="-8.4549070">
        <ele>420.0</ele>
        <time>2021-03-03T12:59:58Z</time>
      </trkpt>
      <trkpt lat="42.8713890" lon="-8.4548970">
        <ele>420.0</ele>
        <time>2021-03-03T12:59:59Z</time>
      </trkpt>
      <trkpt lat="42.8714070" lon="-8.4548870">
        <ele>420.0</ele>
        <time>2021-03-03T13:00:00Z</time>
      </trkpt>
      <trkpt lat="42.8714230" lon="-8.4548750">
        <ele>420.0</ele>
        <time>2021-03-03T13:00:01Z</time>
      </trkpt>
      <trkpt lat="42.8714280" lon="-8.4548610">
        <ele>420.0</ele>
        <time>2021-03-03T13:00:02Z</time>
      </trkpt>
      <trkpt lat="42.8714370" lon="-8.4548510">
        <ele>420.0</ele>
        <time>2021-03-03T13:00:03Z</time>
      </trkpt>
      <trkpt lat="42.8714520" lon="-8.4548420">
        <ele>420.0</ele>
        <time>2021-03-03T13:00:04Z</time>
      </trkpt>
      <trkpt lat="42.8714680" lon="-8.4548270">
        <ele>420.0</ele>
        <time>2021-03-03T13:00:05Z</time>
      </trkpt>
      <trkpt lat="42.8714860" lon="-8.4548130">
        <ele>420.0</ele>
        <time>2021-03-03T13:00:06Z</time>
      </trkpt>
      <trkpt lat="42.8715070" lon="-8.4548010">
        <ele>420.0</ele>
        <time>2021-03-03T13:00:07Z</time>
      </trkpt>
      <trkpt lat="42.8715260" lon="-8.4547840">
        <ele>420.0</ele>
        <time>2021-03-03T13:00:08Z</time>
      </trkpt>
      <trkpt lat="42.8715450" lon="-8.4547670">
        <ele>420.2</ele>
        <time>2021-03-03T13:00:09Z</time>
      </trkpt>
      <trkpt lat="42.8715690" lon="-8.4547550">
        <ele>420.2</ele>
        <time>2021-03-03T13:00:10Z</time>
      </trkpt>
      <trkpt lat="42.8715950" lon="-8.4547450">
        <ele>420.2</ele>
        <time>2021-03-03T13:00:11Z</time>
      </trkpt>
      <trkpt lat="42.8716170" lon="-8.4547310">
        <ele>420.2</ele>
        <time>2021-03-03T13:00:12Z</time>
      </trkpt>
      <trkpt lat="42.8716400" lon="-8.4547170">
        <ele>420.4</ele>
        <time>2021-03-03T13:00:13Z</time>
      </trkpt>
      <trkpt lat="42.8716650" lon="-8.4547070">
        <ele>420.6</ele>
        <time>2021-03-03T13:00:14Z</time>
      </trkpt>
      <trkpt lat="42.8716840" lon="-8.4546950">
        <ele>420.6</ele>
        <time>2021-03-03T13:00:15Z</time>
      </trkpt>
      <trkpt lat="42.8717000" lon="-8.4546810">
        <ele>420.6</ele>
        <time>2021-03-03T13:00:16Z</time>
      </trkpt>
      <trkpt lat="42.8717140" lon="-8.4546700">
        <ele>420.8</ele>
        <time>2021-03-03T13:00:17Z</time>
      </trkpt>
      <trkpt lat="42.8717320" lon="-8.4546640">
        <ele>421.0</ele>
        <time>2021-03-03T13:00:18Z</time>
      </trkpt>
      <trkpt lat="42.8717560" lon="-8.4546580">
        <ele>420.8</ele>
        <time>2021-03-03T13:00:19Z</time>
      </trkpt>
      <trkpt lat="42.8717760" lon="-8.4546440">
        <ele>420.8</ele>
        <time>2021-03-03T13:00:20Z</time>
      </trkpt>
      <trkpt lat="42.8718010" lon="-8.4546260">
        <ele>420.8</ele>
        <time>2021-03-03T13:00:21Z</time>
      </trkpt>
      <trkpt lat="42.8718230" lon="-8.4546070">
        <ele>420.8</ele>
        <time>2021-03-03T13:00:22Z</time>
      </trkpt>
      <trkpt lat="42.8718410" lon="-8.4545870">
        <ele>420.8</ele>
        <time>2021-03-03T13:00:23Z</time>
      </trkpt>
      <trkpt lat="42.8718670" lon="-8.4545710">
        <ele>420.8</ele>
        <time>2021-03-03T13:00:24Z</time>
      </trkpt>
      <trkpt lat="42.8718960" lon="-8.4545560">
        <ele>420.8</ele>
        <time>2021-03-03T13:00:25Z</time>
      </trkpt>
      <trkpt lat="42.8719280" lon="-8.4545430">
        <ele>420.8</ele>
        <time>2021-03-03T13:00:26Z</time>
      </trkpt>
      <trkpt lat="42.8719480" lon="-8.4545280">
        <ele>421.0</ele>
        <time>2021-03-03T13:00:27Z</time>
      </trkpt>
      <trkpt lat="42.8719700" lon="-8.4545160">
        <ele>420.8</ele>
        <time>2021-03-03T13:00:28Z</time>
      </trkpt>
      <trkpt lat="42.8720000" lon="-8.4544960">
        <ele>421.2</ele>
        <time>2021-03-03T13:00:29Z</time>
      </trkpt>
      <trkpt lat="42.8720280" lon="-8.4544710">
        <ele>421.2</ele>
        <time>2021-03-03T13:00:30Z</time>
      </trkpt>
      <trkpt lat="42.8720510" lon="-8.4544470">
        <ele>421.2</ele>
        <time>2021-03-03T13:00:31Z</time>
      </trkpt>
      <trkpt lat="42.8720760" lon="-8.4544310">
        <ele>421.2</ele>
        <time>2021-03-03T13:00:32Z</time>
      </trkpt>
      <trkpt lat="42.8721050" lon="-8.4544150">
        <ele>421.2</ele>
        <time>2021-03-03T13:00:33Z</time>
      </trkpt>
      <trkpt lat="42.8721390" lon="-8.4544020">
        <ele>421.2</ele>
        <time>2021-03-03T13:00:34Z</time>
      </trkpt>
      <trkpt lat="42.8721790" lon="-8.4543830">
        <ele>421.4</ele>
        <time>2021-03-03T13:00:35Z</time>
      </trkpt>
      <trkpt lat="42.8722070" lon="-8.4543690">
        <ele>421.4</ele>
        <time>2021-03-03T13:00:36Z</time>
      </trkpt>
      <trkpt lat="42.8722320" lon="-8.4543540">
        <ele>421.6</ele>
        <time>2021-03-03T13:00:37Z</time>
      </trkpt>
      <trkpt lat="42.8722700" lon="-8.4543280">
        <ele>421.8</ele>
        <time>2021-03-03T13:00:38Z</time>
      </trkpt>
      <trkpt lat="42.8722910" lon="-8.4543080">
        <ele>421.8</ele>
        <time>2021-03-03T13:00:39Z</time>
      </trkpt>
      <trkpt lat="42.8723130" lon="-8.4542900">
        <ele>422.0</ele>
        <time>2021-03-03T13:00:40Z</time>
      </trkpt>
      <trkpt lat="42.8723360" lon="-8.4542690">
        <ele>422.0</ele>
        <time>2021-03-03T13:00:41Z</time>
      </trkpt>
      <trkpt lat="42.8723580" lon="-8.4542500">
        <ele>422.0</ele>
        <time>2021-03-03T13:00:42Z</time>
      </trkpt>
      <trkpt lat="42.8723780" lon="-8.4542300">
        <ele>422.2</ele>
        <time>2021-03-03T13:00:43Z</time>
      </trkpt>
      <trkpt lat="42.8723930" lon="-8.4542130">
        <ele>422.2</ele>
        <time>2021-03-03T13:00:44Z</time>
      </trkpt>
      <trkpt lat="42.8724090" lon="-8.4541960">
        <ele>422.4</ele>
        <time>2021-03-03T13:00:45Z</time>
      </trkpt>
      <trkpt lat="42.8724290" lon="-8.4541770">
        <ele>422.6</ele>
        <time>2021-03-03T13:00:46Z</time>
      </trkpt>
      <trkpt lat="42.8724470" lon="-8.4541570">
        <ele>422.6</ele>
        <time>2021-03-03T13:00:47Z</time>
      </trkpt>
      <trkpt lat="42.8724640" lon="-8.4541350">
        <ele>422.8</ele>
        <time>2021-03-03T13:00:48Z</time>
      </trkpt>
      <trkpt lat="42.8724800" lon="-8.4541150">
        <ele>422.8</ele>
        <time>2021-03-03T13:00:49Z</time>
      </trkpt>
      <trkpt lat="42.8724960" lon="-8.4540990">
        <ele>423.0</ele>
        <time>2021-03-03T13:00:50Z</time>
      </trkpt>
      <trkpt lat="42.8725170" lon="-8.4540780">
        <ele>423.0</ele>
        <time>2021-03-03T13:00:51Z</time>
      </trkpt>
      <trkpt lat="42.8725340" lon="-8.4540580">
        <ele>423.2</ele>
        <time>2021-03-03T13:00:52Z</time>
      </trkpt>
      <trkpt lat="42.8725530" lon="-8.4540390">
        <ele>423.2</ele>
        <time>2021-03-03T13:00:53Z</time>
      </trkpt>
      <trkpt lat="42.8725770" lon="-8.4540200">
        <ele>423.2</ele>
        <time>2021-03-03T13:00:54Z</time>
      </trkpt>
      <trkpt lat="42.8726030" lon="-8.4540040">
        <ele>423.2</ele>
        <time>2021-03-03T13:00:55Z</time>
      </trkpt>
      <trkpt lat="42.8726270" lon="-8.4539870">
        <ele>423.2</ele>
        <time>2021-03-03T13:00:56Z</time>
      </trkpt>
      <trkpt lat="42.8726510" lon="-8.4539680">
        <ele>423.2</ele>
        <time>2021-03-03T13:00:57Z</time>
      </trkpt>
      <trkpt lat="42.8726750" lon="-8.4539540">
        <ele>423.2</ele>
        <time>2021-03-03T13:00:58Z</time>
      </trkpt>
      <trkpt lat="42.8726960" lon="-8.4539460">
        <ele>423.2</ele>
        <time>2021-03-03T13:00:59Z</time>
      </trkpt>
      <trkpt lat="42.8727150" lon="-8.4539470">
        <ele>423.2</ele>
        <time>2021-03-03T13:01:00Z</time>
      </trkpt>
      <trkpt lat="42.8727300" lon="-8.4539420">
        <ele>423.4</ele>
        <time>2021-03-03T13:01:01Z</time>
      </trkpt>
      <trkpt lat="42.8727460" lon="-8.4539320">
        <ele>423.4</ele>
        <time>2021-03-03T13:01:02Z</time>
      </trkpt>
      <trkpt lat="42.8727600" lon="-8.4539190">
        <ele>423.6</ele>
        <time>2021-03-03T13:01:03Z</time>
      </trkpt>
      <trkpt lat="42.8727760" lon="-8.4539020">
        <ele>423.6</ele>
        <time>2021-03-03T13:01:04Z</time>
      </trkpt>
      <trkpt lat="42.8727950" lon="-8.4538850">
        <ele>423.6</ele>
        <time>2021-03-03T13:01:05Z</time>
      </trkpt>
      <trkpt lat="42.8728170" lon="-8.4538650">
        <ele>423.6</ele>
        <time>2021-03-03T13:01:06Z</time>
      </trkpt>
      <trkpt lat="42.8728360" lon="-8.4538470">
        <ele>423.8</ele>
        <time>2021-03-03T13:01:07Z</time>
      </trkpt>
      <trkpt lat="42.8728570" lon="-8.4538320">
        <ele>423.8</ele>
        <time>2021-03-03T13:01:08Z</time>
      </trkpt>
      <trkpt lat="42.8728790" lon="-8.4538160">
        <ele>423.8</ele>
        <time>2021-03-03T13:01:09Z</time>
      </trkpt>
      <trkpt lat="42.8729030" lon="-8.4538020">
        <ele>423.8</ele>
        <time>2021-03-03T13:01:10Z</time>
      </trkpt>
      <trkpt lat="42.8729210" lon="-8.4537870">
        <ele>423.8</ele>
        <time>2021-03-03T13:01:11Z</time>
      </trkpt>
      <trkpt lat="42.8729420" lon="-8.4537720">
        <ele>423.8</ele>
        <time>2021-03-03T13:01:12Z</time>
      </trkpt>
      <trkpt lat="42.8729630" lon="-8.4537570">
        <ele>423.8</ele>
        <time>2021-03-03T13:01:13Z</time>
      </trkpt>
      <trkpt lat="42.8729970" lon="-8.4537390">
        <ele>424.2</ele>
        <time>2021-03-03T13:01:14Z</time>
      </trkpt>
      <trkpt lat="42.8730240" lon="-8.4537310">
        <ele>424.4</ele>
        <time>2021-03-03T13:01:15Z</time>
      </trkpt>
      <trkpt lat="42.8730480" lon="-8.4537210">
        <ele>424.4</ele>
        <time>2021-03-03T13:01:16Z</time>
      </trkpt>
      <trkpt lat="42.8730790" lon="-8.4537100">
        <ele>424.6</ele>
        <time>2021-03-03T13:01:17Z</time>
      </trkpt>
      <trkpt lat="42.8731060" lon="-8.4537020">
        <ele>424.8</ele>
        <time>2021-03-03T13:01:18Z</time>
      </trkpt>
      <trkpt lat="42.8731330" lon="-8.4536900">
        <ele>424.8</ele>
        <time>2021-03-03T13:01:19Z</time>
      </trkpt>
      <trkpt lat="42.8731580" lon="-8.4536700">
        <ele>424.8</ele>
        <time>2021-03-03T13:01:20Z</time>
      </trkpt>
      <trkpt lat="42.8731870" lon="-8.4536510">
        <ele>425.0</ele>
        <time>2021-03-03T13:01:21Z</time>
      </trkpt>
      <trkpt lat="42.8732200" lon="-8.4536290">
        <ele>425.2</ele>
        <time>2021-03-03T13:01:22Z</time>
      </trkpt>
      <trkpt lat="42.8732500" lon="-8.4536050">
        <ele>425.2</ele>
        <time>2021-03-03T13:01:23Z</time>
      </trkpt>
      <trkpt lat="42.8732780" lon="-8.4535820">
        <ele>425.4</ele>
        <time>2021-03-03T13:01:24Z</time>
      </trkpt>
      <trkpt lat="42.8733080" lon="-8.4535580">
        <ele>425.4</ele>
        <time>2021-03-03T13:01:25Z</time>
      </trkpt>
      <trkpt lat="42.8733390" lon="-8.4535320">
        <ele>425.4</ele>
        <time>2021-03-03T13:01:26Z</time>
      </trkpt>
      <trkpt lat="42.8733650" lon="-8.4535110">
        <ele>425.4</ele>
        <time>2021-03-03T13:01:27Z</time>
      </trkpt>
      <trkpt lat="42.8733960" lon="-8.4534880">
        <ele>425.6</ele>
        <time>2021-03-03T13:01:28Z</time>
      </trkpt>
      <trkpt lat="42.8734250" lon="-8.4534680">
        <ele>425.8</ele>
        <time>2021-03-03T13:01:29Z</time>
      </trkpt>
      <trkpt lat="42.8734570" lon="-8.4534510">
        <ele>425.8</ele>
        <time>2021-03-03T13:01:30Z</time>
      </trkpt>
      <trkpt lat="42.8734850" lon="-8.4534280">
        <ele>426.0</ele>
        <time>2021-03-03T13:01:31Z</time>
      </trkpt>
      <trkpt lat="42.8735060" lon="-8.4534050">
        <ele>426.0</ele>
        <time>2021-03-03T13:01:32Z</time>
      </trkpt>
      <trkpt lat="42.8735210" lon="-8.4533840">
        <ele>426.0</ele>
        <time>2021-03-03T13:01:33Z</time>
      </trkpt>
      <trkpt lat="42.8735400" lon="-8.4533670">
        <ele>426.0</ele>
        <time>2021-03-03T13:01:34Z</time>
      </trkpt>
      <trkpt lat="42.8735610" lon="-8.4533500">
        <ele>426.0</ele>
        <time>2021-03-03T13:01:35Z</time>
      </trkpt>
      <trkpt lat="42.8735860" lon="-8.4533300">
        <ele>426.0</ele>
        <time>2021-03-03T13:01:36Z</time>
      </trkpt>
      <trkpt lat="42.8736160" lon="-8.4533080">
        <ele>426.2</ele>
        <time>2021-03-03T13:01:37Z</time>
      </trkpt>
      <trkpt lat="42.8736390" lon="-8.4532890">
        <ele>426.2</ele>
        <time>2021-03-03T13:01:38Z</time>
      </trkpt>
      <trkpt lat="42.8736610" lon="-8.4532740">
        <ele>426.2</ele>
        <time>2021-03-03T13:01:39Z</time>
      </trkpt>
      <trkpt lat="42.8736870" lon="-8.4532570">
        <ele>426.4</ele>
        <time>2021-03-03T13:01:40Z</time>
      </trkpt>
      <trkpt lat="42.8737130" lon="-8.4532450">
        <ele>426.4</ele>
        <time>2021-03-03T13:01:41Z</time>
      </trkpt>
      <trkpt lat="42.8737330" lon="-8.4532290">
        <ele>426.4</ele>
        <time>2021-03-03T13:01:42Z</time>
      </trkpt>
      <trkpt lat="42.8737530" lon="-8.4532170">
        <ele>426.4</ele>
        <time>2021-03-03T13:01:43Z</time>
      </trkpt>
      <trkpt lat="42.8737690" lon="-8.4532130">
        <ele>426.4</ele>
        <time>2021-03-03T13:01:44Z</time>
      </trkpt>
      <trkpt lat="42.8737820" lon="-8.4532150">
        <ele>426.4</ele>
        <time>2021-03-03T13:01:45Z</time>
      </trkpt>
      <trkpt lat="42.8737890" lon="-8.4532190">
        <ele>426.6</ele>
        <time>2021-03-03T13:01:46Z</time>
      </trkpt>
      <trkpt lat="42.8737900" lon="-8.4532210">
        <ele>426.6</ele>
        <time>2021-03-03T13:01:47Z</time>
      </trkpt>
      <trkpt lat="42.8737890" lon="-8.4532180">
        <ele>426.6</ele>
        <time>2021-03-03T13:01:48Z</time>
      </trkpt>
      <trkpt lat="42.8737900" lon="-8.4532150">
        <ele>426.6</ele>
        <time>2021-03-03T13:01:49Z</time>
      </trkpt>
      <trkpt lat="42.8737900" lon="-8.4532100">
        <ele>426.6</ele>
        <time>2021-03-03T13:01:50Z</time>
      </trkpt>
      <trkpt lat="42.8737870" lon="-8.4531870">
        <ele>426.6</ele>
        <time>2021-03-03T13:01:51Z</time>
      </trkpt>
      <trkpt lat="42.8737850" lon="-8.4531750">
        <ele>426.6</ele>
        <time>2021-03-03T13:01:52Z</time>
      </trkpt>
      <trkpt lat="42.8737850" lon="-8.4531770">
        <ele>426.4</ele>
        <time>2021-03-03T13:01:53Z</time>
      </trkpt>
      <trkpt lat="42.8737820" lon="-8.4531710">
        <ele>426.4</ele>
        <time>2021-03-03T13:01:54Z</time>
      </trkpt>
      <trkpt lat="42.8737900" lon="-8.4531610">
        <ele>426.4</ele>
        <time>2021-03-03T13:01:55Z</time>
      </trkpt>
      <trkpt lat="42.8737960" lon="-8.4531680">
        <ele>426.4</ele>
        <time>2021-03-03T13:01:56Z</time>
      </trkpt>
      <trkpt lat="42.8737910" lon="-8.4531710">
        <ele>426.4</ele>
        <time>2021-03-03T13:01:57Z</time>
      </trkpt>
      <trkpt lat="42.8737840" lon="-8.4531650">
        <ele>426.4</ele>
        <time>2021-03-03T13:01:58Z</time>
      </trkpt>
      <trkpt lat="42.8737790" lon="-8.4531630">
        <ele>426.2</ele>
        <time>2021-03-03T13:01:59Z</time>
      </trkpt>
      <trkpt lat="42.8737790" lon="-8.4531630">
        <ele>426.2</ele>
        <time>2021-03-03T13:02:00Z</time>
      </trkpt>
      <trkpt lat="42.8737790" lon="-8.4531630">
        <ele>426.2</ele>
        <time>2021-03-03T13:02:01Z</time>
      </trkpt>
      <trkpt lat="42.8737790" lon="-8.4531630">
        <ele>426.2</ele>
        <time>2021-03-03T13:02:02Z</time>
      </trkpt>
      <trkpt lat="42.8737790" lon="-8.4531630">
        <ele>426.2</ele>
        <time>2021-03-03T13:02:03Z</time>
      </trkpt>
      <trkpt lat="42.8737790" lon="-8.4531630">
        <ele>426.2</ele>
        <time>2021-03-03T13:02:04Z</time>
      </trkpt>
      <trkpt lat="42.8737790" lon="-8.4531630">
        <ele>426.2</ele>
        <time>2021-03-03T13:02:05Z</time>
      </trkpt>
      <trkpt lat="42.8737790" lon="-8.4531630">
        <ele>426.2</ele>
        <time>2021-03-03T13:02:06Z</time>
      </trkpt>
      <trkpt lat="42.8737790" lon="-8.4531630">
        <ele>426.2</ele>
        <time>2021-03-03T13:02:07Z</time>
      </trkpt>
      <trkpt lat="42.8737800" lon="-8.4531630">
        <ele>426.2</ele>
        <time>2021-03-03T13:02:08Z</time>
      </trkpt>
      <trkpt lat="42.8737820" lon="-8.4531630">
        <ele>426.2</ele>
        <time>2021-03-03T13:02:09Z</time>
      </trkpt>
      <trkpt lat="42.8737830" lon="-8.4531640">
        <ele>426.2</ele>
        <time>2021-03-03T13:02:10Z</time>
      </trkpt>
      <trkpt lat="42.8737830" lon="-8.4531650">
        <ele>426.2</ele>
        <time>2021-03-03T13:02:11Z</time>
      </trkpt>
      <trkpt lat="42.8737830" lon="-8.4531660">
        <ele>426.2</ele>
        <time>2021-03-03T13:02:12Z</time>
      </trkpt>
      <trkpt lat="42.8737830" lon="-8.4531680">
        <ele>426.2</ele>
        <time>2021-03-03T13:02:13Z</time>
      </trkpt>
      <trkpt lat="42.8737830" lon="-8.4531700">
        <ele>426.2</ele>
        <time>2021-03-03T13:02:14Z</time>
      </trkpt>
      <trkpt lat="42.8737830" lon="-8.4531700">
        <ele>426.2</ele>
        <time>2021-03-03T13:02:15Z</time>
      </trkpt>
      <trkpt lat="42.8737830" lon="-8.4531710">
        <ele>426.2</ele>
        <time>2021-03-03T13:02:16Z</time>
      </trkpt>
      <trkpt lat="42.8737830" lon="-8.4531740">
        <ele>426.2</ele>
        <time>2021-03-03T13:02:17Z</time>
      </trkpt>
      <trkpt lat="42.8737830" lon="-8.4531750">
        <ele>426.2</ele>
        <time>2021-03-03T13:02:18Z</time>
      </trkpt>
      <trkpt lat="42.8737830" lon="-8.4531770">
        <ele>426.2</ele>
        <time>2021-03-03T13:02:19Z</time>
      </trkpt>
      <trkpt lat="42.8737830" lon="-8.4531780">
        <ele>426.2</ele>
        <time>2021-03-03T13:02:20Z</time>
      </trkpt>
      <trkpt lat="42.8737820" lon="-8.4531780">
        <ele>426.2</ele>
        <time>2021-03-03T13:02:21Z</time>
      </trkpt>
      <trkpt lat="42.8737800" lon="-8.4531810">
        <ele>426.4</ele>
        <time>2021-03-03T13:02:22Z</time>
      </trkpt>
      <trkpt lat="42.8737790" lon="-8.4531820">
        <ele>426.4</ele>
        <time>2021-03-03T13:02:23Z</time>
      </trkpt>
      <trkpt lat="42.8737780" lon="-8.4531820">
        <ele>426.4</ele>
        <time>2021-03-03T13:02:24Z</time>
      </trkpt>
      <trkpt lat="42.8737780" lon="-8.4531820">
        <ele>426.4</ele>
        <time>2021-03-03T13:02:25Z</time>
      </trkpt>
      <trkpt lat="42.8737730" lon="-8.4531820">
        <ele>426.4</ele>
        <time>2021-03-03T13:02:26Z</time>
      </trkpt>
      <trkpt lat="42.8737670" lon="-8.4531820">
        <ele>426.4</ele>
        <time>2021-03-03T13:02:27Z</time>
      </trkpt>
      <trkpt lat="42.8737620" lon="-8.4531820">
        <ele>426.4</ele>
        <time>2021-03-03T13:02:28Z</time>
      </trkpt>
      <trkpt lat="42.8737590" lon="-8.4531820">
        <ele>426.6</ele>
        <time>2021-03-03T13:02:29Z</time>
      </trkpt>
      <trkpt lat="42.8737580" lon="-8.4531820">
        <ele>426.6</ele>
        <time>2021-03-03T13:02:30Z</time>
      </trkpt>
      <trkpt lat="42.8737570" lon="-8.4531820">
        <ele>426.4</ele>
        <time>2021-03-03T13:02:31Z</time>
      </trkpt>
      <trkpt lat="42.8737550" lon="-8.4531820">
        <ele>426.6</ele>
        <time>2021-03-03T13:02:32Z</time>
      </trkpt>
      <trkpt lat="42.8737550" lon="-8.4531820">
        <ele>426.6</ele>
        <time>2021-03-03T13:02:33Z</time>
      </trkpt>
      <trkpt lat="42.8737530" lon="-8.4531820">
        <ele>426.6</ele>
        <time>2021-03-03T13:02:34Z</time>
      </trkpt>
      <trkpt lat="42.8737510" lon="-8.4531820">
        <ele>426.6</ele>
        <time>2021-03-03T13:02:35Z</time>
      </trkpt>
      <trkpt lat="42.8737510" lon="-8.4531820">
        <ele>426.6</ele>
        <time>2021-03-03T13:02:36Z</time>
      </trkpt>
      <trkpt lat="42.8737500" lon="-8.4531810">
        <ele>426.6</ele>
        <time>2021-03-03T13:02:37Z</time>
      </trkpt>
      <trkpt lat="42.8737490" lon="-8.4531800">
        <ele>426.4</ele>
        <time>2021-03-03T13:02:38Z</time>
      </trkpt>
      <trkpt lat="42.8737470" lon="-8.4531790">
        <ele>426.4</ele>
        <time>2021-03-03T13:02:39Z</time>
      </trkpt>
      <trkpt lat="42.8737470" lon="-8.4531780">
        <ele>426.4</ele>
        <time>2021-03-03T13:02:40Z</time>
      </trkpt>
      <trkpt lat="42.8737430" lon="-8.4531780">
        <ele>426.2</ele>
        <time>2021-03-03T13:02:41Z</time>
      </trkpt>
      <trkpt lat="42.8737430" lon="-8.4531780">
        <ele>426.2</ele>
        <time>2021-03-03T13:02:42Z</time>
      </trkpt>
      <trkpt lat="42.8737430" lon="-8.4531780">
        <ele>426.2</ele>
        <time>2021-03-03T13:02:43Z</time>
      </trkpt>
      <trkpt lat="42.8737430" lon="-8.4531780">
        <ele>426.2</ele>
        <time>2021-03-03T13:02:44Z</time>
      </trkpt>
      <trkpt lat="42.8737420" lon="-8.4531780">
        <ele>426.0</ele>
        <time>2021-03-03T13:02:45Z</time>
      </trkpt>
      <trkpt lat="42.8737450" lon="-8.4531840">
        <ele>426.0</ele>
        <time>2021-03-03T13:02:46Z</time>
      </trkpt>
      <trkpt lat="42.8737460" lon="-8.4532010">
        <ele>425.8</ele>
        <time>2021-03-03T13:02:47Z</time>
      </trkpt>
      <trkpt lat="42.8737450" lon="-8.4532120">
        <ele>425.8</ele>
        <time>2021-03-03T13:02:48Z</time>
      </trkpt>
      <trkpt lat="42.8737460" lon="-8.4532190">
        <ele>425.6</ele>
        <time>2021-03-03T13:02:49Z</time>
      </trkpt>
      <trkpt lat="42.8737470" lon="-8.4532260">
        <ele>425.6</ele>
        <time>2021-03-03T13:02:50Z</time>
      </trkpt>
      <trkpt lat="42.8737480" lon="-8.4532330">
        <ele>425.6</ele>
        <time>2021-03-03T13:02:51Z</time>
      </trkpt>
      <trkpt lat="42.8737510" lon="-8.4532400">
        <ele>425.6</ele>
        <time>2021-03-03T13:02:52Z</time>
      </trkpt>
      <trkpt lat="42.8737530" lon="-8.4532480">
        <ele>425.6</ele>
        <time>2021-03-03T13:02:53Z</time>
      </trkpt>
      <trkpt lat="42.8737540" lon="-8.4532560">
        <ele>425.4</ele>
        <time>2021-03-03T13:02:54Z</time>
      </trkpt>
      <trkpt lat="42.8737530" lon="-8.4532600">
        <ele>425.4</ele>
        <time>2021-03-03T13:02:55Z</time>
      </trkpt>
      <trkpt lat="42.8737450" lon="-8.4532590">
        <ele>425.4</ele>
        <time>2021-03-03T13:02:56Z</time>
      </trkpt>
      <trkpt lat="42.8737340" lon="-8.4532590">
        <ele>425.4</ele>
        <time>2021-03-03T13:02:57Z</time>
      </trkpt>
      <trkpt lat="42.8737260" lon="-8.4532590">
        <ele>425.4</ele>
        <time>2021-03-03T13:02:58Z</time>
      </trkpt>
      <trkpt lat="42.8737210" lon="-8.4532610">
        <ele>425.6</ele>
        <time>2021-03-03T13:02:59Z</time>
      </trkpt>
      <trkpt lat="42.8737210" lon="-8.4532610">
        <ele>425.6</ele>
        <time>2021-03-03T13:03:00Z</time>
      </trkpt>
      <trkpt lat="42.8737210" lon="-8.4532610">
        <ele>425.6</ele>
        <time>2021-03-03T13:03:01Z</time>
      </trkpt>
      <trkpt lat="42.8737210" lon="-8.4532610">
        <ele>425.6</ele>
        <time>2021-03-03T13:03:02Z</time>
      </trkpt>
      <trkpt lat="42.8737210" lon="-8.4532610">
        <ele>425.6</ele>
        <time>2021-03-03T13:03:03Z</time>
      </trkpt>
      <trkpt lat="42.8737210" lon="-8.4532610">
        <ele>425.6</ele>
        <time>2021-03-03T13:03:04Z</time>
      </trkpt>
      <trkpt lat="42.8737210" lon="-8.4532610">
        <ele>425.6</ele>
        <time>2021-03-03T13:03:05Z</time>
      </trkpt>
      <trkpt lat="42.8737210" lon="-8.4532610">
        <ele>425.8</ele>
        <time>2021-03-03T13:03:07Z</time>
      </trkpt>
      <trkpt lat="42.8737210" lon="-8.4532610">
        <ele>425.8</ele>
        <time>2021-03-03T13:03:08Z</time>
      </trkpt>
      <trkpt lat="42.8737210" lon="-8.4532600">
        <ele>425.8</ele>
        <time>2021-03-03T13:03:09Z</time>
      </trkpt>
      <trkpt lat="42.8737210" lon="-8.4532600">
        <ele>425.8</ele>
        <time>2021-03-03T13:03:10Z</time>
      </trkpt>
      <trkpt lat="42.8737210" lon="-8.4532600">
        <ele>425.8</ele>
        <time>2021-03-03T13:03:11Z</time>
      </trkpt>
      <trkpt lat="42.8737210" lon="-8.4532600">
        <ele>425.8</ele>
        <time>2021-03-03T13:03:12Z</time>
      </trkpt>
      <trkpt lat="42.8737210" lon="-8.4532600">
        <ele>425.8</ele>
        <time>2021-03-03T13:03:13Z</time>
      </trkpt>
      <trkpt lat="42.8737210" lon="-8.4532600">
        <ele>425.8</ele>
        <time>2021-03-03T13:03:14Z</time>
      </trkpt>
      <trkpt lat="42.8737160" lon="-8.4532600">
        <ele>425.8</ele>
        <time>2021-03-03T13:03:15Z</time>
      </trkpt>
      <trkpt lat="42.8737110" lon="-8.4532600">
        <ele>425.8</ele>
        <time>2021-03-03T13:03:16Z</time>
      </trkpt>
      <trkpt lat="42.8737060" lon="-8.4532600">
        <ele>425.8</ele>
        <time>2021-03-03T13:03:17Z</time>
      </trkpt>
      <trkpt lat="42.8737010" lon="-8.4532600">
        <ele>426.0</ele>
        <time>2021-03-03T13:03:18Z</time>
      </trkpt>
      <trkpt lat="42.8736950" lon="-8.4532600">
        <ele>426.0</ele>
        <time>2021-03-03T13:03:19Z</time>
      </trkpt>
      <trkpt lat="42.8736940" lon="-8.4532600">
        <ele>426.0</ele>
        <time>2021-03-03T13:03:20Z</time>
      </trkpt>
      <trkpt lat="42.8736940" lon="-8.4532600">
        <ele>426.0</ele>
        <time>2021-03-03T13:03:21Z</time>
      </trkpt>
      <trkpt lat="42.8736940" lon="-8.4532610">
        <ele>426.0</ele>
        <time>2021-03-03T13:03:22Z</time>
      </trkpt>
      <trkpt lat="42.8736930" lon="-8.4532610">
        <ele>426.0</ele>
        <time>2021-03-03T13:03:23Z</time>
      </trkpt>
      <trkpt lat="42.8736930" lon="-8.4532610">
        <ele>426.0</ele>
        <time>2021-03-03T13:03:24Z</time>
      </trkpt>
      <trkpt lat="42.8736920" lon="-8.4532630">
        <ele>426.0</ele>
        <time>2021-03-03T13:03:25Z</time>
      </trkpt>
      <trkpt lat="42.8736900" lon="-8.4532680">
        <ele>425.8</ele>
        <time>2021-03-03T13:03:26Z</time>
      </trkpt>
      <trkpt lat="42.8736890" lon="-8.4532690">
        <ele>425.8</ele>
        <time>2021-03-03T13:03:27Z</time>
      </trkpt>
      <trkpt lat="42.8736890" lon="-8.4532690">
        <ele>425.8</ele>
        <time>2021-03-03T13:03:28Z</time>
      </trkpt>
      <trkpt lat="42.8736880" lon="-8.4532690">
        <ele>425.8</ele>
        <time>2021-03-03T13:03:29Z</time>
      </trkpt>
      <trkpt lat="42.8736880" lon="-8.4532690">
        <ele>425.8</ele>
        <time>2021-03-03T13:03:30Z</time>
      </trkpt>
      <trkpt lat="42.8736880" lon="-8.4532690">
        <ele>425.8</ele>
        <time>2021-03-03T13:03:31Z</time>
      </trkpt>
      <trkpt lat="42.8736860" lon="-8.4532690">
        <ele>425.8</ele>
        <time>2021-03-03T13:03:32Z</time>
      </trkpt>
      <trkpt lat="42.8736860" lon="-8.4532690">
        <ele>425.8</ele>
        <time>2021-03-03T13:03:33Z</time>
      </trkpt>
      <trkpt lat="42.8736850" lon="-8.4532690">
        <ele>425.8</ele>
        <time>2021-03-03T13:03:34Z</time>
      </trkpt>
      <trkpt lat="42.8736850" lon="-8.4532690">
        <ele>425.8</ele>
        <time>2021-03-03T13:03:35Z</time>
      </trkpt>
      <trkpt lat="42.8736850" lon="-8.4532690">
        <ele>425.8</ele>
        <time>2021-03-03T13:03:36Z</time>
      </trkpt>
      <trkpt lat="42.8736850" lon="-8.4532690">
        <ele>425.6</ele>
        <time>2021-03-03T13:03:37Z</time>
      </trkpt>
      <trkpt lat="42.8736840" lon="-8.4532690">
        <ele>425.6</ele>
        <time>2021-03-03T13:03:38Z</time>
      </trkpt>
      <trkpt lat="42.8736830" lon="-8.4532690">
        <ele>425.4</ele>
        <time>2021-03-03T13:03:39Z</time>
      </trkpt>
      <trkpt lat="42.8736830" lon="-8.4532690">
        <ele>425.4</ele>
        <time>2021-03-03T13:03:40Z</time>
      </trkpt>
      <trkpt lat="42.8736810" lon="-8.4532690">
        <ele>425.4</ele>
        <time>2021-03-03T13:03:41Z</time>
      </trkpt>
      <trkpt lat="42.8736810" lon="-8.4532680">
        <ele>425.4</ele>
        <time>2021-03-03T13:03:42Z</time>
      </trkpt>
      <trkpt lat="42.8736750" lon="-8.4532630">
        <ele>425.4</ele>
        <time>2021-03-03T13:03:43Z</time>
      </trkpt>
      <trkpt lat="42.8736720" lon="-8.4532580">
        <ele>425.4</ele>
        <time>2021-03-03T13:03:44Z</time>
      </trkpt>
      <trkpt lat="42.8736680" lon="-8.4532560">
        <ele>425.4</ele>
        <time>2021-03-03T13:03:45Z</time>
      </trkpt>
      <trkpt lat="42.8736670" lon="-8.4532540">
        <ele>425.4</ele>
        <time>2021-03-03T13:03:46Z</time>
      </trkpt>
      <trkpt lat="42.8736670" lon="-8.4532540">
        <ele>425.4</ele>
        <time>2021-03-03T13:03:47Z</time>
      </trkpt>
      <trkpt lat="42.8736660" lon="-8.4532540">
        <ele>425.4</ele>
        <time>2021-03-03T13:03:48Z</time>
      </trkpt>
      <trkpt lat="42.8736660" lon="-8.4532530">
        <ele>425.4</ele>
        <time>2021-03-03T13:03:49Z</time>
      </trkpt>
      <trkpt lat="42.8736660" lon="-8.4532530">
        <ele>425.4</ele>
        <time>2021-03-03T13:03:50Z</time>
      </trkpt>
      <trkpt lat="42.8736660" lon="-8.4532520">
        <ele>425.4</ele>
        <time>2021-03-03T13:03:51Z</time>
      </trkpt>
      <trkpt lat="42.8736670" lon="-8.4532560">
        <ele>425.2</ele>
        <time>2021-03-03T13:03:52Z</time>
      </trkpt>
      <trkpt lat="42.8736730" lon="-8.4532880">
        <ele>425.2</ele>
        <time>2021-03-03T13:03:53Z</time>
      </trkpt>
      <trkpt lat="42.8736810" lon="-8.4533200">
        <ele>425.0</ele>
        <time>2021-03-03T13:03:54Z</time>
      </trkpt>
      <trkpt lat="42.8736880" lon="-8.4533460">
        <ele>424.8</ele>
        <time>2021-03-03T13:03:55Z</time>
      </trkpt>
      <trkpt lat="42.8736990" lon="-8.4533790">
        <ele>424.4</ele>
        <time>2021-03-03T13:03:56Z</time>
      </trkpt>
      <trkpt lat="42.8737080" lon="-8.4534130">
        <ele>424.2</ele>
        <time>2021-03-03T13:03:57Z</time>
      </trkpt>
      <trkpt lat="42.8737180" lon="-8.4534530">
        <ele>423.8</ele>
        <time>2021-03-03T13:03:58Z</time>
      </trkpt>
      <trkpt lat="42.8737260" lon="-8.4534890">
        <ele>423.6</ele>
        <time>2021-03-03T13:03:59Z</time>
      </trkpt>
      <trkpt lat="42.8737330" lon="-8.4535390">
        <ele>423.4</ele>
        <time>2021-03-03T13:04:00Z</time>
      </trkpt>
      <trkpt lat="42.8737390" lon="-8.4535860">
        <ele>423.4</ele>
        <time>2021-03-03T13:04:01Z</time>
      </trkpt>
      <trkpt lat="42.8737430" lon="-8.4536310">
        <ele>423.0</ele>
        <time>2021-03-03T13:04:02Z</time>
      </trkpt>
      <trkpt lat="42.8737500" lon="-8.4536710">
        <ele>423.0</ele>
        <time>2021-03-03T13:04:03Z</time>
      </trkpt>
      <trkpt lat="42.8737590" lon="-8.4537120">
        <ele>422.8</ele>
        <time>2021-03-03T13:04:04Z</time>
      </trkpt>
      <trkpt lat="42.8737650" lon="-8.4537560">
        <ele>422.6</ele>
        <time>2021-03-03T13:04:05Z</time>
      </trkpt>
      <trkpt lat="42.8737690" lon="-8.4538000">
        <ele>422.2</ele>
        <time>2021-03-03T13:04:06Z</time>
      </trkpt>
      <trkpt lat="42.8737740" lon="-8.4538450">
        <ele>422.0</ele>
        <time>2021-03-03T13:04:07Z</time>
      </trkpt>
      <trkpt lat="42.8737770" lon="-8.4538920">
        <ele>421.6</ele>
        <time>2021-03-03T13:04:08Z</time>
      </trkpt>
      <trkpt lat="42.8737830" lon="-8.4539360">
        <ele>421.4</ele>
        <time>2021-03-03T13:04:09Z</time>
      </trkpt>
      <trkpt lat="42.8737910" lon="-8.4539830">
        <ele>421.2</ele>
        <time>2021-03-03T13:04:10Z</time>
      </trkpt>
      <trkpt lat="42.8737950" lon="-8.4540300">
        <ele>421.0</ele>
        <time>2021-03-03T13:04:11Z</time>
      </trkpt>
      <trkpt lat="42.8738020" lon="-8.4540770">
        <ele>420.6</ele>
        <time>2021-03-03T13:04:12Z</time>
      </trkpt>
      <trkpt lat="42.8738070" lon="-8.4541280">
        <ele>420.4</ele>
        <time>2021-03-03T13:04:13Z</time>
      </trkpt>
      <trkpt lat="42.8738140" lon="-8.4541680">
        <ele>420.0</ele>
        <time>2021-03-03T13:04:14Z</time>
      </trkpt>
      <trkpt lat="42.8738220" lon="-8.4542240">
        <ele>419.8</ele>
        <time>2021-03-03T13:04:15Z</time>
      </trkpt>
      <trkpt lat="42.8738270" lon="-8.4542710">
        <ele>419.6</ele>
        <time>2021-03-03T13:04:16Z</time>
      </trkpt>
      <trkpt lat="42.8738330" lon="-8.4543170">
        <ele>419.4</ele>
        <time>2021-03-03T13:04:17Z</time>
      </trkpt>
      <trkpt lat="42.8738370" lon="-8.4543630">
        <ele>419.4</ele>
        <time>2021-03-03T13:04:18Z</time>
      </trkpt>
      <trkpt lat="42.8738400" lon="-8.4544090">
        <ele>419.4</ele>
        <time>2021-03-03T13:04:19Z</time>
      </trkpt>
      <trkpt lat="42.8738480" lon="-8.4544550">
        <ele>419.4</ele>
        <time>2021-03-03T13:04:20Z</time>
      </trkpt>
      <trkpt lat="42.8738580" lon="-8.4545010">
        <ele>419.4</ele>
        <time>2021-03-03T13:04:21Z</time>
      </trkpt>
      <trkpt lat="42.8738660" lon="-8.4545480">
        <ele>419.0</ele>
        <time>2021-03-03T13:04:22Z</time>
      </trkpt>
      <trkpt lat="42.8738790" lon="-8.4545930">
        <ele>419.0</ele>
        <time>2021-03-03T13:04:23Z</time>
      </trkpt>
      <trkpt lat="42.8738980" lon="-8.4546320">
        <ele>418.8</ele>
        <time>2021-03-03T13:04:24Z</time>
      </trkpt>
      <trkpt lat="42.8739250" lon="-8.4546620">
        <ele>418.6</ele>
        <time>2021-03-03T13:04:25Z</time>
      </trkpt>
      <trkpt lat="42.8739560" lon="-8.4546830">
        <ele>418.4</ele>
        <time>2021-03-03T13:04:26Z</time>
      </trkpt>
      <trkpt lat="42.8739880" lon="-8.4547010">
        <ele>418.0</ele>
        <time>2021-03-03T13:04:27Z</time>
      </trkpt>
      <trkpt lat="42.8740180" lon="-8.4547190">
        <ele>417.6</ele>
        <time>2021-03-03T13:04:28Z</time>
      </trkpt>
      <trkpt lat="42.8740480" lon="-8.4547310">
        <ele>417.6</ele>
        <time>2021-03-03T13:04:29Z</time>
      </trkpt>
      <trkpt lat="42.8740800" lon="-8.4547370">
        <ele>417.6</ele>
        <time>2021-03-03T13:04:30Z</time>
      </trkpt>
      <trkpt lat="42.8741080" lon="-8.4547360">
        <ele>417.6</ele>
        <time>2021-03-03T13:04:31Z</time>
      </trkpt>
      <trkpt lat="42.8741380" lon="-8.4547250">
        <ele>417.6</ele>
        <time>2021-03-03T13:04:32Z</time>
      </trkpt>
      <trkpt lat="42.8741610" lon="-8.4547100">
        <ele>417.6</ele>
        <time>2021-03-03T13:04:33Z</time>
      </trkpt>
      <trkpt lat="42.8741940" lon="-8.4546860">
        <ele>417.6</ele>
        <time>2021-03-03T13:04:34Z</time>
      </trkpt>
      <trkpt lat="42.8742240" lon="-8.4546680">
        <ele>417.4</ele>
        <time>2021-03-03T13:04:35Z</time>
      </trkpt>
      <trkpt lat="42.8742490" lon="-8.4546490">
        <ele>417.4</ele>
        <time>2021-03-03T13:04:36Z</time>
      </trkpt>
      <trkpt lat="42.8742790" lon="-8.4546290">
        <ele>417.2</ele>
        <time>2021-03-03T13:04:37Z</time>
      </trkpt>
      <trkpt lat="42.8743050" lon="-8.4546040">
        <ele>417.0</ele>
        <time>2021-03-03T13:04:38Z</time>
      </trkpt>
      <trkpt lat="42.8743330" lon="-8.4545780">
        <ele>417.0</ele>
        <time>2021-03-03T13:04:39Z</time>
      </trkpt>
      <trkpt lat="42.8743670" lon="-8.4545500">
        <ele>416.8</ele>
        <time>2021-03-03T13:04:40Z</time>
      </trkpt>
      <trkpt lat="42.8743950" lon="-8.4545110">
        <ele>416.8</ele>
        <time>2021-03-03T13:04:41Z</time>
      </trkpt>
      <trkpt lat="42.8744220" lon="-8.4544740">
        <ele>416.6</ele>
        <time>2021-03-03T13:04:42Z</time>
      </trkpt>
      <trkpt lat="42.8744430" lon="-8.4544430">
        <ele>416.6</ele>
        <time>2021-03-03T13:04:43Z</time>
      </trkpt>
      <trkpt lat="42.8744620" lon="-8.4544070">
        <ele>416.6</ele>
        <time>2021-03-03T13:04:44Z</time>
      </trkpt>
      <trkpt lat="42.8744850" lon="-8.4543740">
        <ele>416.6</ele>
        <time>2021-03-03T13:04:45Z</time>
      </trkpt>
      <trkpt lat="42.8745010" lon="-8.4543460">
        <ele>416.6</ele>
        <time>2021-03-03T13:04:46Z</time>
      </trkpt>
      <trkpt lat="42.8745220" lon="-8.4543050">
        <ele>416.6</ele>
        <time>2021-03-03T13:04:47Z</time>
      </trkpt>
      <trkpt lat="42.8745390" lon="-8.4542690">
        <ele>416.6</ele>
        <time>2021-03-03T13:04:48Z</time>
      </trkpt>
      <trkpt lat="42.8745520" lon="-8.4542330">
        <ele>416.6</ele>
        <time>2021-03-03T13:04:49Z</time>
      </trkpt>
      <trkpt lat="42.8745650" lon="-8.4541970">
        <ele>416.6</ele>
        <time>2021-03-03T13:04:50Z</time>
      </trkpt>
      <trkpt lat="42.8745840" lon="-8.4541630">
        <ele>416.6</ele>
        <time>2021-03-03T13:04:51Z</time>
      </trkpt>
      <trkpt lat="42.8745970" lon="-8.4541270">
        <ele>416.6</ele>
        <time>2021-03-03T13:04:52Z</time>
      </trkpt>
      <trkpt lat="42.8746120" lon="-8.4540880">
        <ele>416.4</ele>
        <time>2021-03-03T13:04:53Z</time>
      </trkpt>
      <trkpt lat="42.8746260" lon="-8.4540490">
        <ele>416.4</ele>
        <time>2021-03-03T13:04:54Z</time>
      </trkpt>
      <trkpt lat="42.8746430" lon="-8.4540100">
        <ele>416.2</ele>
        <time>2021-03-03T13:04:55Z</time>
      </trkpt>
      <trkpt lat="42.8746570" lon="-8.4539690">
        <ele>416.2</ele>
        <time>2021-03-03T13:04:56Z</time>
      </trkpt>
      <trkpt lat="42.8746700" lon="-8.4539280">
        <ele>416.0</ele>
        <time>2021-03-03T13:04:57Z</time>
      </trkpt>
      <trkpt lat="42.8746820" lon="-8.4538850">
        <ele>416.0</ele>
        <time>2021-03-03T13:04:58Z</time>
      </trkpt>
      <trkpt lat="42.8746950" lon="-8.4538470">
        <ele>415.8</ele>
        <time>2021-03-03T13:04:59Z</time>
      </trkpt>
      <trkpt lat="42.8747100" lon="-8.4538050">
        <ele>415.8</ele>
        <time>2021-03-03T13:05:00Z</time>
      </trkpt>
      <trkpt lat="42.8747170" lon="-8.4537620">
        <ele>415.8</ele>
        <time>2021-03-03T13:05:01Z</time>
      </trkpt>
      <trkpt lat="42.8747300" lon="-8.4537260">
        <ele>415.8</ele>
        <time>2021-03-03T13:05:02Z</time>
      </trkpt>
      <trkpt lat="42.8747420" lon="-8.4536820">
        <ele>415.8</ele>
        <time>2021-03-03T13:05:03Z</time>
      </trkpt>
      <trkpt lat="42.8747550" lon="-8.4536410">
        <ele>416.0</ele>
        <time>2021-03-03T13:05:04Z</time>
      </trkpt>
      <trkpt lat="42.8747710" lon="-8.4536000">
        <ele>415.8</ele>
        <time>2021-03-03T13:05:05Z</time>
      </trkpt>
      <trkpt lat="42.8747870" lon="-8.4535590">
        <ele>416.0</ele>
        <time>2021-03-03T13:05:06Z</time>
      </trkpt>
      <trkpt lat="42.8748050" lon="-8.4535210">
        <ele>415.8</ele>
        <time>2021-03-03T13:05:07Z</time>
      </trkpt>
      <trkpt lat="42.8748250" lon="-8.4534840">
        <ele>415.8</ele>
        <time>2021-03-03T13:05:08Z</time>
      </trkpt>
      <trkpt lat="42.8748440" lon="-8.4534470">
        <ele>415.8</ele>
        <time>2021-03-03T13:05:09Z</time>
      </trkpt>
      <trkpt lat="42.8748610" lon="-8.4534200">
        <ele>415.8</ele>
        <time>2021-03-03T13:05:10Z</time>
      </trkpt>
      <trkpt lat="42.8748790" lon="-8.4533860">
        <ele>415.8</ele>
        <time>2021-03-03T13:05:11Z</time>
      </trkpt>
      <trkpt lat="42.8749010" lon="-8.4533470">
        <ele>416.0</ele>
        <time>2021-03-03T13:05:12Z</time>
      </trkpt>
      <trkpt lat="42.8749200" lon="-8.4533170">
        <ele>416.0</ele>
        <time>2021-03-03T13:05:13Z</time>
      </trkpt>
      <trkpt lat="42.8749360" lon="-8.4532920">
        <ele>416.2</ele>
        <time>2021-03-03T13:05:14Z</time>
      </trkpt>
      <trkpt lat="42.8749550" lon="-8.4532560">
        <ele>416.4</ele>
        <time>2021-03-03T13:05:15Z</time>
      </trkpt>
      <trkpt lat="42.8749730" lon="-8.4532230">
        <ele>416.4</ele>
        <time>2021-03-03T13:05:16Z</time>
      </trkpt>
      <trkpt lat="42.8749900" lon="-8.4531880">
        <ele>416.4</ele>
        <time>2021-03-03T13:05:17Z</time>
      </trkpt>
      <trkpt lat="42.8750050" lon="-8.4531510">
        <ele>416.4</ele>
        <time>2021-03-03T13:05:18Z</time>
      </trkpt>
      <trkpt lat="42.8750180" lon="-8.4531200">
        <ele>416.4</ele>
        <time>2021-03-03T13:05:19Z</time>
      </trkpt>
      <trkpt lat="42.8750270" lon="-8.4530930">
        <ele>416.6</ele>
        <time>2021-03-03T13:05:20Z</time>
      </trkpt>
      <trkpt lat="42.8750400" lon="-8.4530640">
        <ele>416.6</ele>
        <time>2021-03-03T13:05:21Z</time>
      </trkpt>
      <trkpt lat="42.8750460" lon="-8.4530500">
        <ele>416.6</ele>
        <time>2021-03-03T13:05:22Z</time>
      </trkpt>
      <trkpt lat="42.8750540" lon="-8.4530350">
        <ele>416.6</ele>
        <time>2021-03-03T13:05:23Z</time>
      </trkpt>
      <trkpt lat="42.8750630" lon="-8.4530290">
        <ele>416.4</ele>
        <time>2021-03-03T13:05:24Z</time>
      </trkpt>
      <trkpt lat="42.8750620" lon="-8.4530270">
        <ele>416.2</ele>
        <time>2021-03-03T13:05:25Z</time>
      </trkpt>
      <trkpt lat="42.8750590" lon="-8.4530290">
        <ele>416.2</ele>
        <time>2021-03-03T13:05:26Z</time>
      </trkpt>
      <trkpt lat="42.8750650" lon="-8.4530430">
        <ele>416.2</ele>
        <time>2021-03-03T13:05:27Z</time>
      </trkpt>
      <trkpt lat="42.8750700" lon="-8.4530390">
        <ele>416.2</ele>
        <time>2021-03-03T13:05:28Z</time>
      </trkpt>
      <trkpt lat="42.8750650" lon="-8.4530280">
        <ele>416.2</ele>
        <time>2021-03-03T13:05:29Z</time>
      </trkpt>
      <trkpt lat="42.8750670" lon="-8.4530110">
        <ele>416.2</ele>
        <time>2021-03-03T13:05:30Z</time>
      </trkpt>
      <trkpt lat="42.8750710" lon="-8.4530000">
        <ele>416.2</ele>
        <time>2021-03-03T13:05:31Z</time>
      </trkpt>
      <trkpt lat="42.8750740" lon="-8.4529900">
        <ele>416.2</ele>
        <time>2021-03-03T13:05:32Z</time>
      </trkpt>
      <trkpt lat="42.8750840" lon="-8.4529820">
        <ele>416.2</ele>
        <time>2021-03-03T13:05:33Z</time>
      </trkpt>
      <trkpt lat="42.8750930" lon="-8.4529720">
        <ele>416.2</ele>
        <time>2021-03-03T13:05:34Z</time>
      </trkpt>
      <trkpt lat="42.8751010" lon="-8.4529620">
        <ele>416.2</ele>
        <time>2021-03-03T13:05:35Z</time>
      </trkpt>
      <trkpt lat="42.8751060" lon="-8.4529480">
        <ele>416.2</ele>
        <time>2021-03-03T13:05:36Z</time>
      </trkpt>
      <trkpt lat="42.8751120" lon="-8.4529400">
        <ele>416.2</ele>
        <time>2021-03-03T13:05:37Z</time>
      </trkpt>
      <trkpt lat="42.8751240" lon="-8.4529290">
        <ele>416.2</ele>
        <time>2021-03-03T13:05:38Z</time>
      </trkpt>
      <trkpt lat="42.8751280" lon="-8.4529240">
        <ele>416.2</ele>
        <time>2021-03-03T13:05:39Z</time>
      </trkpt>
      <trkpt lat="42.8751350" lon="-8.4529170">
        <ele>416.2</ele>
        <time>2021-03-03T13:05:40Z</time>
      </trkpt>
      <trkpt lat="42.8751480" lon="-8.4529110">
        <ele>416.2</ele>
        <time>2021-03-03T13:05:41Z</time>
      </trkpt>
      <trkpt lat="42.8751580" lon="-8.4529050">
        <ele>416.2</ele>
        <time>2021-03-03T13:05:42Z</time>
      </trkpt>
      <trkpt lat="42.8751620" lon="-8.4529010">
        <ele>416.2</ele>
        <time>2021-03-03T13:05:43Z</time>
      </trkpt>
      <trkpt lat="42.8751710" lon="-8.4528930">
        <ele>416.2</ele>
        <time>2021-03-03T13:05:44Z</time>
      </trkpt>
      <trkpt lat="42.8751810" lon="-8.4528830">
        <ele>416.2</ele>
        <time>2021-03-03T13:05:45Z</time>
      </trkpt>
      <trkpt lat="42.8751910" lon="-8.4528770">
        <ele>416.2</ele>
        <time>2021-03-03T13:05:46Z</time>
      </trkpt>
      <trkpt lat="42.8751990" lon="-8.4528670">
        <ele>416.2</ele>
        <time>2021-03-03T13:05:47Z</time>
      </trkpt>
      <trkpt lat="42.8752100" lon="-8.4528590">
        <ele>416.0</ele>
        <time>2021-03-03T13:05:48Z</time>
      </trkpt>
      <trkpt lat="42.8752250" lon="-8.4528530">
        <ele>416.0</ele>
        <time>2021-03-03T13:05:49Z</time>
      </trkpt>
      <trkpt lat="42.8752380" lon="-8.4528520">
        <ele>416.0</ele>
        <time>2021-03-03T13:05:50Z</time>
      </trkpt>
      <trkpt lat="42.8752550" lon="-8.4528580">
        <ele>416.0</ele>
        <time>2021-03-03T13:05:51Z</time>
      </trkpt>
      <trkpt lat="42.8752710" lon="-8.4528640">
        <ele>415.8</ele>
        <time>2021-03-03T13:05:52Z</time>
      </trkpt>
      <trkpt lat="42.8752910" lon="-8.4528660">
        <ele>415.6</ele>
        <time>2021-03-03T13:05:53Z</time>
      </trkpt>
      <trkpt lat="42.8753160" lon="-8.4528670">
        <ele>415.6</ele>
        <time>2021-03-03T13:05:54Z</time>
      </trkpt>
      <trkpt lat="42.8753360" lon="-8.4528660">
        <ele>415.2</ele>
        <time>2021-03-03T13:05:55Z</time>
      </trkpt>
      <trkpt lat="42.8753620" lon="-8.4528590">
        <ele>415.2</ele>
        <time>2021-03-03T13:05:56Z</time>
      </trkpt>
      <trkpt lat="42.8753850" lon="-8.4528530">
        <ele>415.0</ele>
        <time>2021-03-03T13:05:57Z</time>
      </trkpt>
      <trkpt lat="42.8754150" lon="-8.4528350">
        <ele>414.8</ele>
        <time>2021-03-03T13:05:58Z</time>
      </trkpt>
      <trkpt lat="42.8754430" lon="-8.4528200">
        <ele>414.8</ele>
        <time>2021-03-03T13:05:59Z</time>
      </trkpt>
      <trkpt lat="42.8754680" lon="-8.4528100">
        <ele>414.6</ele>
        <time>2021-03-03T13:06:00Z</time>
      </trkpt>
      <trkpt lat="42.8754960" lon="-8.4527890">
        <ele>414.4</ele>
        <time>2021-03-03T13:06:01Z</time>
      </trkpt>
      <trkpt lat="42.8755220" lon="-8.4527640">
        <ele>414.4</ele>
        <time>2021-03-03T13:06:02Z</time>
      </trkpt>
      <trkpt lat="42.8755490" lon="-8.4527380">
        <ele>414.2</ele>
        <time>2021-03-03T13:06:03Z</time>
      </trkpt>
      <trkpt lat="42.8755670" lon="-8.4527210">
        <ele>414.2</ele>
        <time>2021-03-03T13:06:04Z</time>
      </trkpt>
      <trkpt lat="42.8755900" lon="-8.4526980">
        <ele>414.2</ele>
        <time>2021-03-03T13:06:05Z</time>
      </trkpt>
      <trkpt lat="42.8756060" lon="-8.4526860">
        <ele>414.2</ele>
        <time>2021-03-03T13:06:06Z</time>
      </trkpt>
      <trkpt lat="42.8756280" lon="-8.4526700">
        <ele>414.2</ele>
        <time>2021-03-03T13:06:07Z</time>
      </trkpt>
      <trkpt lat="42.8756610" lon="-8.4526500">
        <ele>414.0</ele>
        <time>2021-03-03T13:06:08Z</time>
      </trkpt>
      <trkpt lat="42.8756900" lon="-8.4526280">
        <ele>413.8</ele>
        <time>2021-03-03T13:06:09Z</time>
      </trkpt>
      <trkpt lat="42.8757150" lon="-8.4526110">
        <ele>413.8</ele>
        <time>2021-03-03T13:06:10Z</time>
      </trkpt>
      <trkpt lat="42.8757400" lon="-8.4525960">
        <ele>413.6</ele>
        <time>2021-03-03T13:06:11Z</time>
      </trkpt>
      <trkpt lat="42.8757700" lon="-8.4525810">
        <ele>413.6</ele>
        <time>2021-03-03T13:06:12Z</time>
      </trkpt>
      <trkpt lat="42.8757980" lon="-8.4525650">
        <ele>413.6</ele>
        <time>2021-03-03T13:06:13Z</time>
      </trkpt>
      <trkpt lat="42.8758310" lon="-8.4525440">
        <ele>413.6</ele>
        <time>2021-03-03T13:06:14Z</time>
      </trkpt>
      <trkpt lat="42.8758550" lon="-8.4525270">
        <ele>413.4</ele>
        <time>2021-03-03T13:06:15Z</time>
      </trkpt>
      <trkpt lat="42.8758790" lon="-8.4525100">
        <ele>413.4</ele>
        <time>2021-03-03T13:06:16Z</time>
      </trkpt>
      <trkpt lat="42.8759100" lon="-8.4524940">
        <ele>413.2</ele>
        <time>2021-03-03T13:06:17Z</time>
      </trkpt>
      <trkpt lat="42.8759450" lon="-8.4524790">
        <ele>413.2</ele>
        <time>2021-03-03T13:06:18Z</time>
      </trkpt>
      <trkpt lat="42.8759780" lon="-8.4524650">
        <ele>413.2</ele>
        <time>2021-03-03T13:06:19Z</time>
      </trkpt>
      <trkpt lat="42.8760100" lon="-8.4524500">
        <ele>413.0</ele>
        <time>2021-03-03T13:06:20Z</time>
      </trkpt>
      <trkpt lat="42.8760380" lon="-8.4524330">
        <ele>412.8</ele>
        <time>2021-03-03T13:06:21Z</time>
      </trkpt>
      <trkpt lat="42.8760600" lon="-8.4524080">
        <ele>412.4</ele>
        <time>2021-03-03T13:06:22Z</time>
      </trkpt>
      <trkpt lat="42.8760840" lon="-8.4523800">
        <ele>412.4</ele>
        <time>2021-03-03T13:06:23Z</time>
      </trkpt>
      <trkpt lat="42.8761100" lon="-8.4523490">
        <ele>412.2</ele>
        <time>2021-03-03T13:06:24Z</time>
      </trkpt>
      <trkpt lat="42.8761390" lon="-8.4523190">
        <ele>412.0</ele>
        <time>2021-03-03T13:06:25Z</time>
      </trkpt>
      <trkpt lat="42.8761700" lon="-8.4522870">
        <ele>412.0</ele>
        <time>2021-03-03T13:06:26Z</time>
      </trkpt>
      <trkpt lat="42.8761960" lon="-8.4522570">
        <ele>411.8</ele>
        <time>2021-03-03T13:06:27Z</time>
      </trkpt>
      <trkpt lat="42.8762240" lon="-8.4522320">
        <ele>411.4</ele>
        <time>2021-03-03T13:06:28Z</time>
      </trkpt>
      <trkpt lat="42.8762470" lon="-8.4522130">
        <ele>411.0</ele>
        <time>2021-03-03T13:06:29Z</time>
      </trkpt>
      <trkpt lat="42.8762640" lon="-8.4521970">
        <ele>410.8</ele>
        <time>2021-03-03T13:06:30Z</time>
      </trkpt>
      <trkpt lat="42.8762880" lon="-8.4521760">
        <ele>410.8</ele>
        <time>2021-03-03T13:06:31Z</time>
      </trkpt>
      <trkpt lat="42.8763140" lon="-8.4521520">
        <ele>410.6</ele>
        <time>2021-03-03T13:06:32Z</time>
      </trkpt>
      <trkpt lat="42.8763360" lon="-8.4521240">
        <ele>410.4</ele>
        <time>2021-03-03T13:06:33Z</time>
      </trkpt>
      <trkpt lat="42.8763540" lon="-8.4520940">
        <ele>410.2</ele>
        <time>2021-03-03T13:06:34Z</time>
      </trkpt>
      <trkpt lat="42.8763650" lon="-8.4520720">
        <ele>410.2</ele>
        <time>2021-03-03T13:06:35Z</time>
      </trkpt>
      <trkpt lat="42.8763730" lon="-8.4520560">
        <ele>410.0</ele>
        <time>2021-03-03T13:06:36Z</time>
      </trkpt>
      <trkpt lat="42.8763750" lon="-8.4520420">
        <ele>410.0</ele>
        <time>2021-03-03T13:06:37Z</time>
      </trkpt>
      <trkpt lat="42.8763750" lon="-8.4520260">
        <ele>410.0</ele>
        <time>2021-03-03T13:06:38Z</time>
      </trkpt>
      <trkpt lat="42.8763790" lon="-8.4520100">
        <ele>409.8</ele>
        <time>2021-03-03T13:06:39Z</time>
      </trkpt>
      <trkpt lat="42.8763800" lon="-8.4519960">
        <ele>409.8</ele>
        <time>2021-03-03T13:06:40Z</time>
      </trkpt>
      <trkpt lat="42.8763850" lon="-8.4519800">
        <ele>409.8</ele>
        <time>2021-03-03T13:06:41Z</time>
      </trkpt>
      <trkpt lat="42.8763900" lon="-8.4519660">
        <ele>409.8</ele>
        <time>2021-03-03T13:06:42Z</time>
      </trkpt>
      <trkpt lat="42.8764020" lon="-8.4519540">
        <ele>409.8</ele>
        <time>2021-03-03T13:06:43Z</time>
      </trkpt>
      <trkpt lat="42.8764160" lon="-8.4519380">
        <ele>409.8</ele>
        <time>2021-03-03T13:06:44Z</time>
      </trkpt>
      <trkpt lat="42.8764320" lon="-8.4519220">
        <ele>409.8</ele>
        <time>2021-03-03T13:06:45Z</time>
      </trkpt>
      <trkpt lat="42.8764460" lon="-8.4518990">
        <ele>409.8</ele>
        <time>2021-03-03T13:06:46Z</time>
      </trkpt>
      <trkpt lat="42.8764530" lon="-8.4518800">
        <ele>409.8</ele>
        <time>2021-03-03T13:06:47Z</time>
      </trkpt>
      <trkpt lat="42.8764590" lon="-8.4518640">
        <ele>409.8</ele>
        <time>2021-03-03T13:06:48Z</time>
      </trkpt>
      <trkpt lat="42.8764640" lon="-8.4518520">
        <ele>409.6</ele>
        <time>2021-03-03T13:06:49Z</time>
      </trkpt>
      <trkpt lat="42.8764690" lon="-8.4518360">
        <ele>409.6</ele>
        <time>2021-03-03T13:06:50Z</time>
      </trkpt>
      <trkpt lat="42.8764770" lon="-8.4518230">
        <ele>409.6</ele>
        <time>2021-03-03T13:06:51Z</time>
      </trkpt>
      <trkpt lat="42.8764850" lon="-8.4518170">
        <ele>409.6</ele>
        <time>2021-03-03T13:06:52Z</time>
      </trkpt>
      <trkpt lat="42.8764920" lon="-8.4518130">
        <ele>409.6</ele>
        <time>2021-03-03T13:06:53Z</time>
      </trkpt>
      <trkpt lat="42.8764970" lon="-8.4518140">
        <ele>409.6</ele>
        <time>2021-03-03T13:06:54Z</time>
      </trkpt>
      <trkpt lat="42.8764990" lon="-8.4518100">
        <ele>409.6</ele>
        <time>2021-03-03T13:06:55Z</time>
      </trkpt>
      <trkpt lat="42.8765010" lon="-8.4518050">
        <ele>409.6</ele>
        <time>2021-03-03T13:06:56Z</time>
      </trkpt>
      <trkpt lat="42.8765020" lon="-8.4517950">
        <ele>409.6</ele>
        <time>2021-03-03T13:06:57Z</time>
      </trkpt>
      <trkpt lat="42.8765060" lon="-8.4517820">
        <ele>409.6</ele>
        <time>2021-03-03T13:06:58Z</time>
      </trkpt>
      <trkpt lat="42.8765140" lon="-8.4517720">
        <ele>409.6</ele>
        <time>2021-03-03T13:06:59Z</time>
      </trkpt>
      <trkpt lat="42.8765230" lon="-8.4517610">
        <ele>409.6</ele>
        <time>2021-03-03T13:07:00Z</time>
      </trkpt>
      <trkpt lat="42.8765280" lon="-8.4517510">
        <ele>409.6</ele>
        <time>2021-03-03T13:07:01Z</time>
      </trkpt>
      <trkpt lat="42.8765270" lon="-8.4517450">
        <ele>409.6</ele>
        <time>2021-03-03T13:07:02Z</time>
      </trkpt>
      <trkpt lat="42.8765260" lon="-8.4517360">
        <ele>409.6</ele>
        <time>2021-03-03T13:07:03Z</time>
      </trkpt>
      <trkpt lat="42.8765290" lon="-8.4517230">
        <ele>409.6</ele>
        <time>2021-03-03T13:07:04Z</time>
      </trkpt>
      <trkpt lat="42.8765320" lon="-8.4517100">
        <ele>409.6</ele>
        <time>2021-03-03T13:07:05Z</time>
      </trkpt>
      <trkpt lat="42.8765370" lon="-8.4516980">
        <ele>409.6</ele>
        <time>2021-03-03T13:07:06Z</time>
      </trkpt>
      <trkpt lat="42.8765400" lon="-8.4516920">
        <ele>409.6</ele>
        <time>2021-03-03T13:07:07Z</time>
      </trkpt>
      <trkpt lat="42.8765440" lon="-8.4516850">
        <ele>409.6</ele>
        <time>2021-03-03T13:07:08Z</time>
      </trkpt>
      <trkpt lat="42.8765490" lon="-8.4516720">
        <ele>409.6</ele>
        <time>2021-03-03T13:07:09Z</time>
      </trkpt>
      <trkpt lat="42.8765510" lon="-8.4516610">
        <ele>409.6</ele>
        <time>2021-03-03T13:07:10Z</time>
      </trkpt>
      <trkpt lat="42.8765540" lon="-8.4516500">
        <ele>409.6</ele>
        <time>2021-03-03T13:07:11Z</time>
      </trkpt>
      <trkpt lat="42.8765610" lon="-8.4516290">
        <ele>409.6</ele>
        <time>2021-03-03T13:07:12Z</time>
      </trkpt>
      <trkpt lat="42.8765690" lon="-8.4516010">
        <ele>409.6</ele>
        <time>2021-03-03T13:07:13Z</time>
      </trkpt>
      <trkpt lat="42.8765790" lon="-8.4515740">
        <ele>409.6</ele>
        <time>2021-03-03T13:07:14Z</time>
      </trkpt>
      <trkpt lat="42.8765960" lon="-8.4515470">
        <ele>409.6</ele>
        <time>2021-03-03T13:07:15Z</time>
      </trkpt>
      <trkpt lat="42.8766110" lon="-8.4515270">
        <ele>409.6</ele>
        <time>2021-03-03T13:07:16Z</time>
      </trkpt>
      <trkpt lat="42.8766290" lon="-8.4514970">
        <ele>409.8</ele>
        <time>2021-03-03T13:07:17Z</time>
      </trkpt>
      <trkpt lat="42.8766430" lon="-8.4514740">
        <ele>409.8</ele>
        <time>2021-03-03T13:07:18Z</time>
      </trkpt>
      <trkpt lat="42.8766610" lon="-8.4514460">
        <ele>409.6</ele>
        <time>2021-03-03T13:07:19Z</time>
      </trkpt>
      <trkpt lat="42.8766760" lon="-8.4514200">
        <ele>409.6</ele>
        <time>2021-03-03T13:07:20Z</time>
      </trkpt>
      <trkpt lat="42.8766980" lon="-8.4513910">
        <ele>409.8</ele>
        <time>2021-03-03T13:07:21Z</time>
      </trkpt>
      <trkpt lat="42.8767190" lon="-8.4513510">
        <ele>409.8</ele>
        <time>2021-03-03T13:07:22Z</time>
      </trkpt>
      <trkpt lat="42.8767390" lon="-8.4513160">
        <ele>409.8</ele>
        <time>2021-03-03T13:07:23Z</time>
      </trkpt>
      <trkpt lat="42.8767540" lon="-8.4512770">
        <ele>409.8</ele>
        <time>2021-03-03T13:07:24Z</time>
      </trkpt>
      <trkpt lat="42.8767710" lon="-8.4512370">
        <ele>409.8</ele>
        <time>2021-03-03T13:07:25Z</time>
      </trkpt>
      <trkpt lat="42.8767930" lon="-8.4512010">
        <ele>409.6</ele>
        <time>2021-03-03T13:07:26Z</time>
      </trkpt>
      <trkpt lat="42.8768110" lon="-8.4511640">
        <ele>409.8</ele>
        <time>2021-03-03T13:07:27Z</time>
      </trkpt>
      <trkpt lat="42.8768290" lon="-8.4511250">
        <ele>409.8</ele>
        <time>2021-03-03T13:07:28Z</time>
      </trkpt>
      <trkpt lat="42.8768460" lon="-8.4510880">
        <ele>409.8</ele>
        <time>2021-03-03T13:07:29Z</time>
      </trkpt>
      <trkpt lat="42.8768610" lon="-8.4510520">
        <ele>409.6</ele>
        <time>2021-03-03T13:07:30Z</time>
      </trkpt>
      <trkpt lat="42.8768840" lon="-8.4510160">
        <ele>409.8</ele>
        <time>2021-03-03T13:07:31Z</time>
      </trkpt>
      <trkpt lat="42.8769030" lon="-8.4509790">
        <ele>409.8</ele>
        <time>2021-03-03T13:07:32Z</time>
      </trkpt>
      <trkpt lat="42.8769190" lon="-8.4509380">
        <ele>409.8</ele>
        <time>2021-03-03T13:07:33Z</time>
      </trkpt>
      <trkpt lat="42.8769310" lon="-8.4509050">
        <ele>409.8</ele>
        <time>2021-03-03T13:07:34Z</time>
      </trkpt>
      <trkpt lat="42.8769440" lon="-8.4508610">
        <ele>409.8</ele>
        <time>2021-03-03T13:07:35Z</time>
      </trkpt>
      <trkpt lat="42.8769600" lon="-8.4508080">
        <ele>409.8</ele>
        <time>2021-03-03T13:07:36Z</time>
      </trkpt>
      <trkpt lat="42.8769690" lon="-8.4507600">
        <ele>410.0</ele>
        <time>2021-03-03T13:07:37Z</time>
      </trkpt>
      <trkpt lat="42.8769840" lon="-8.4507200">
        <ele>410.0</ele>
        <time>2021-03-03T13:07:38Z</time>
      </trkpt>
      <trkpt lat="42.8769980" lon="-8.4506810">
        <ele>409.8</ele>
        <time>2021-03-03T13:07:39Z</time>
      </trkpt>
      <trkpt lat="42.8770100" lon="-8.4506390">
        <ele>409.8</ele>
        <time>2021-03-03T13:07:40Z</time>
      </trkpt>
      <trkpt lat="42.8770290" lon="-8.4505980">
        <ele>409.8</ele>
        <time>2021-03-03T13:07:41Z</time>
      </trkpt>
      <trkpt lat="42.8770500" lon="-8.4505580">
        <ele>409.8</ele>
        <time>2021-03-03T13:07:42Z</time>
      </trkpt>
      <trkpt lat="42.8770640" lon="-8.4505150">
        <ele>409.8</ele>
        <time>2021-03-03T13:07:43Z</time>
      </trkpt>
      <trkpt lat="42.8770750" lon="-8.4504710">
        <ele>409.6</ele>
        <time>2021-03-03T13:07:44Z</time>
      </trkpt>
      <trkpt lat="42.8770910" lon="-8.4504310">
        <ele>409.6</ele>
        <time>2021-03-03T13:07:45Z</time>
      </trkpt>
      <trkpt lat="42.8771120" lon="-8.4503920">
        <ele>409.6</ele>
        <time>2021-03-03T13:07:46Z</time>
      </trkpt>
      <trkpt lat="42.8771330" lon="-8.4503550">
        <ele>409.6</ele>
        <time>2021-03-03T13:07:47Z</time>
      </trkpt>
      <trkpt lat="42.8771560" lon="-8.4503210">
        <ele>409.6</ele>
        <time>2021-03-03T13:07:48Z</time>
      </trkpt>
      <trkpt lat="42.8771840" lon="-8.4502830">
        <ele>409.6</ele>
        <time>2021-03-03T13:07:49Z</time>
      </trkpt>
      <trkpt lat="42.8772110" lon="-8.4502450">
        <ele>409.4</ele>
        <time>2021-03-03T13:07:50Z</time>
      </trkpt>
      <trkpt lat="42.8772400" lon="-8.4502020">
        <ele>409.2</ele>
        <time>2021-03-03T13:07:51Z</time>
      </trkpt>
      <trkpt lat="42.8772580" lon="-8.4501630">
        <ele>409.2</ele>
        <time>2021-03-03T13:07:52Z</time>
      </trkpt>
      <trkpt lat="42.8772680" lon="-8.4501390">
        <ele>409.2</ele>
        <time>2021-03-03T13:07:53Z</time>
      </trkpt>
      <trkpt lat="42.8772790" lon="-8.4500910">
        <ele>409.2</ele>
        <time>2021-03-03T13:07:54Z</time>
      </trkpt>
      <trkpt lat="42.8772860" lon="-8.4500620">
        <ele>409.2</ele>
        <time>2021-03-03T13:07:55Z</time>
      </trkpt>
      <trkpt lat="42.8773030" lon="-8.4500100">
        <ele>409.2</ele>
        <time>2021-03-03T13:07:56Z</time>
      </trkpt>
      <trkpt lat="42.8773130" lon="-8.4499750">
        <ele>409.2</ele>
        <time>2021-03-03T13:07:57Z</time>
      </trkpt>
      <trkpt lat="42.8773260" lon="-8.4499270">
        <ele>409.2</ele>
        <time>2021-03-03T13:07:58Z</time>
      </trkpt>
      <trkpt lat="42.8773330" lon="-8.4498880">
        <ele>409.2</ele>
        <time>2021-03-03T13:07:59Z</time>
      </trkpt>
      <trkpt lat="42.8773400" lon="-8.4498470">
        <ele>409.2</ele>
        <time>2021-03-03T13:08:00Z</time>
      </trkpt>
      <trkpt lat="42.8773600" lon="-8.4498080">
        <ele>409.2</ele>
        <time>2021-03-03T13:08:01Z</time>
      </trkpt>
      <trkpt lat="42.8773800" lon="-8.4497700">
        <ele>409.0</ele>
        <time>2021-03-03T13:08:02Z</time>
      </trkpt>
      <trkpt lat="42.8773880" lon="-8.4497230">
        <ele>409.2</ele>
        <time>2021-03-03T13:08:03Z</time>
      </trkpt>
      <trkpt lat="42.8773940" lon="-8.4496750">
        <ele>409.2</ele>
        <time>2021-03-03T13:08:04Z</time>
      </trkpt>
      <trkpt lat="42.8774000" lon="-8.4496210">
        <ele>409.2</ele>
        <time>2021-03-03T13:08:05Z</time>
      </trkpt>
      <trkpt lat="42.8773990" lon="-8.4495780">
        <ele>409.2</ele>
        <time>2021-03-03T13:08:06Z</time>
      </trkpt>
      <trkpt lat="42.8774090" lon="-8.4495300">
        <ele>409.2</ele>
        <time>2021-03-03T13:08:07Z</time>
      </trkpt>
      <trkpt lat="42.8774170" lon="-8.4494960">
        <ele>409.0</ele>
        <time>2021-03-03T13:08:08Z</time>
      </trkpt>
      <trkpt lat="42.8774280" lon="-8.4494560">
        <ele>409.2</ele>
        <time>2021-03-03T13:08:09Z</time>
      </trkpt>
      <trkpt lat="42.8774420" lon="-8.4494120">
        <ele>409.2</ele>
        <time>2021-03-03T13:08:10Z</time>
      </trkpt>
      <trkpt lat="42.8774530" lon="-8.4493690">
        <ele>409.0</ele>
        <time>2021-03-03T13:08:11Z</time>
      </trkpt>
      <trkpt lat="42.8774610" lon="-8.4493240">
        <ele>409.0</ele>
        <time>2021-03-03T13:08:12Z</time>
      </trkpt>
      <trkpt lat="42.8774680" lon="-8.4492740">
        <ele>409.0</ele>
        <time>2021-03-03T13:08:13Z</time>
      </trkpt>
      <trkpt lat="42.8774780" lon="-8.4492290">
        <ele>409.2</ele>
        <time>2021-03-03T13:08:14Z</time>
      </trkpt>
      <trkpt lat="42.8774910" lon="-8.4491840">
        <ele>409.2</ele>
        <time>2021-03-03T13:08:15Z</time>
      </trkpt>
      <trkpt lat="42.8775010" lon="-8.4491470">
        <ele>409.2</ele>
        <time>2021-03-03T13:08:16Z</time>
      </trkpt>
      <trkpt lat="42.8775170" lon="-8.4490940">
        <ele>409.2</ele>
        <time>2021-03-03T13:08:17Z</time>
      </trkpt>
      <trkpt lat="42.8775270" lon="-8.4490500">
        <ele>409.2</ele>
        <time>2021-03-03T13:08:18Z</time>
      </trkpt>
      <trkpt lat="42.8775360" lon="-8.4490080">
        <ele>409.2</ele>
        <time>2021-03-03T13:08:19Z</time>
      </trkpt>
      <trkpt lat="42.8775480" lon="-8.4489750">
        <ele>409.2</ele>
        <time>2021-03-03T13:08:20Z</time>
      </trkpt>
      <trkpt lat="42.8775640" lon="-8.4489210">
        <ele>409.2</ele>
        <time>2021-03-03T13:08:21Z</time>
      </trkpt>
      <trkpt lat="42.8775810" lon="-8.4488760">
        <ele>409.2</ele>
        <time>2021-03-03T13:08:22Z</time>
      </trkpt>
      <trkpt lat="42.8775910" lon="-8.4488300">
        <ele>409.2</ele>
        <time>2021-03-03T13:08:23Z</time>
      </trkpt>
      <trkpt lat="42.8775900" lon="-8.4487910">
        <ele>409.2</ele>
        <time>2021-03-03T13:08:24Z</time>
      </trkpt>
      <trkpt lat="42.8775970" lon="-8.4487460">
        <ele>409.2</ele>
        <time>2021-03-03T13:08:25Z</time>
      </trkpt>
      <trkpt lat="42.8776090" lon="-8.4486900">
        <ele>409.2</ele>
        <time>2021-03-03T13:08:26Z</time>
      </trkpt>
      <trkpt lat="42.8776190" lon="-8.4486460">
        <ele>409.2</ele>
        <time>2021-03-03T13:08:27Z</time>
      </trkpt>
      <trkpt lat="42.8776300" lon="-8.4486030">
        <ele>409.2</ele>
        <time>2021-03-03T13:08:28Z</time>
      </trkpt>
      <trkpt lat="42.8776410" lon="-8.4485700">
        <ele>409.4</ele>
        <time>2021-03-03T13:08:29Z</time>
      </trkpt>
      <trkpt lat="42.8776660" lon="-8.4485240">
        <ele>409.4</ele>
        <time>2021-03-03T13:08:30Z</time>
      </trkpt>
      <trkpt lat="42.8776860" lon="-8.4484840">
        <ele>409.4</ele>
        <time>2021-03-03T13:08:31Z</time>
      </trkpt>
      <trkpt lat="42.8777020" lon="-8.4484450">
        <ele>409.4</ele>
        <time>2021-03-03T13:08:32Z</time>
      </trkpt>
      <trkpt lat="42.8777140" lon="-8.4484170">
        <ele>409.4</ele>
        <time>2021-03-03T13:08:33Z</time>
      </trkpt>
      <trkpt lat="42.8777280" lon="-8.4483800">
        <ele>409.4</ele>
        <time>2021-03-03T13:08:34Z</time>
      </trkpt>
      <trkpt lat="42.8777480" lon="-8.4483360">
        <ele>409.6</ele>
        <time>2021-03-03T13:08:35Z</time>
      </trkpt>
      <trkpt lat="42.8777730" lon="-8.4483010">
        <ele>409.4</ele>
        <time>2021-03-03T13:08:36Z</time>
      </trkpt>
      <trkpt lat="42.8777980" lon="-8.4482700">
        <ele>409.4</ele>
        <time>2021-03-03T13:08:37Z</time>
      </trkpt>
      <trkpt lat="42.8778150" lon="-8.4482440">
        <ele>409.4</ele>
        <time>2021-03-03T13:08:38Z</time>
      </trkpt>
      <trkpt lat="42.8778330" lon="-8.4482070">
        <ele>409.4</ele>
        <time>2021-03-03T13:08:39Z</time>
      </trkpt>
      <trkpt lat="42.8778550" lon="-8.4481620">
        <ele>409.4</ele>
        <time>2021-03-03T13:08:40Z</time>
      </trkpt>
      <trkpt lat="42.8778720" lon="-8.4481220">
        <ele>409.4</ele>
        <time>2021-03-03T13:08:41Z</time>
      </trkpt>
      <trkpt lat="42.8778860" lon="-8.4480820">
        <ele>409.4</ele>
        <time>2021-03-03T13:08:42Z</time>
      </trkpt>
      <trkpt lat="42.8778960" lon="-8.4480490">
        <ele>409.4</ele>
        <time>2021-03-03T13:08:43Z</time>
      </trkpt>
      <trkpt lat="42.8779200" lon="-8.4480020">
        <ele>409.4</ele>
        <time>2021-03-03T13:08:44Z</time>
      </trkpt>
      <trkpt lat="42.8779450" lon="-8.4479670">
        <ele>409.2</ele>
        <time>2021-03-03T13:08:45Z</time>
      </trkpt>
      <trkpt lat="42.8779630" lon="-8.4479440">
        <ele>409.0</ele>
        <time>2021-03-03T13:08:46Z</time>
      </trkpt>
      <trkpt lat="42.8779900" lon="-8.4479090">
        <ele>408.8</ele>
        <time>2021-03-03T13:08:47Z</time>
      </trkpt>
      <trkpt lat="42.8780130" lon="-8.4478720">
        <ele>408.8</ele>
        <time>2021-03-03T13:08:48Z</time>
      </trkpt>
      <trkpt lat="42.8780380" lon="-8.4478270">
        <ele>408.6</ele>
        <time>2021-03-03T13:08:49Z</time>
      </trkpt>
      <trkpt lat="42.8780570" lon="-8.4477970">
        <ele>408.4</ele>
        <time>2021-03-03T13:08:50Z</time>
      </trkpt>
      <trkpt lat="42.8780800" lon="-8.4477620">
        <ele>408.4</ele>
        <time>2021-03-03T13:08:51Z</time>
      </trkpt>
      <trkpt lat="42.8781010" lon="-8.4477280">
        <ele>408.4</ele>
        <time>2021-03-03T13:08:52Z</time>
      </trkpt>
      <trkpt lat="42.8781310" lon="-8.4476900">
        <ele>408.4</ele>
        <time>2021-03-03T13:08:53Z</time>
      </trkpt>
      <trkpt lat="42.8781510" lon="-8.4476530">
        <ele>408.2</ele>
        <time>2021-03-03T13:08:54Z</time>
      </trkpt>
      <trkpt lat="42.8781780" lon="-8.4476180">
        <ele>407.8</ele>
        <time>2021-03-03T13:08:55Z</time>
      </trkpt>
      <trkpt lat="42.8781990" lon="-8.4475830">
        <ele>407.4</ele>
        <time>2021-03-03T13:08:56Z</time>
      </trkpt>
      <trkpt lat="42.8782170" lon="-8.4475560">
        <ele>407.2</ele>
        <time>2021-03-03T13:08:57Z</time>
      </trkpt>
      <trkpt lat="42.8782480" lon="-8.4475170">
        <ele>407.0</ele>
        <time>2021-03-03T13:08:58Z</time>
      </trkpt>
      <trkpt lat="42.8782770" lon="-8.4474890">
        <ele>406.6</ele>
        <time>2021-03-03T13:08:59Z</time>
      </trkpt>
      <trkpt lat="42.8783070" lon="-8.4474600">
        <ele>406.4</ele>
        <time>2021-03-03T13:09:00Z</time>
      </trkpt>
      <trkpt lat="42.8783270" lon="-8.4474340">
        <ele>406.2</ele>
        <time>2021-03-03T13:09:01Z</time>
      </trkpt>
      <trkpt lat="42.8783510" lon="-8.4474020">
        <ele>405.8</ele>
        <time>2021-03-03T13:09:02Z</time>
      </trkpt>
      <trkpt lat="42.8783820" lon="-8.4473640">
        <ele>405.6</ele>
        <time>2021-03-03T13:09:03Z</time>
      </trkpt>
      <trkpt lat="42.8784080" lon="-8.4473300">
        <ele>405.0</ele>
        <time>2021-03-03T13:09:04Z</time>
      </trkpt>
      <trkpt lat="42.8784320" lon="-8.4472930">
        <ele>404.8</ele>
        <time>2021-03-03T13:09:05Z</time>
      </trkpt>
      <trkpt lat="42.8784490" lon="-8.4472630">
        <ele>404.4</ele>
        <time>2021-03-03T13:09:06Z</time>
      </trkpt>
      <trkpt lat="42.8784730" lon="-8.4472310">
        <ele>404.2</ele>
        <time>2021-03-03T13:09:07Z</time>
      </trkpt>
      <trkpt lat="42.8785020" lon="-8.4471880">
        <ele>404.0</ele>
        <time>2021-03-03T13:09:08Z</time>
      </trkpt>
      <trkpt lat="42.8785240" lon="-8.4471540">
        <ele>403.8</ele>
        <time>2021-03-03T13:09:09Z</time>
      </trkpt>
      <trkpt lat="42.8785500" lon="-8.4471230">
        <ele>403.6</ele>
        <time>2021-03-03T13:09:10Z</time>
      </trkpt>
      <trkpt lat="42.8785780" lon="-8.4470910">
        <ele>403.4</ele>
        <time>2021-03-03T13:09:11Z</time>
      </trkpt>
      <trkpt lat="42.8786030" lon="-8.4470580">
        <ele>403.0</ele>
        <time>2021-03-03T13:09:12Z</time>
      </trkpt>
      <trkpt lat="42.8786370" lon="-8.4470250">
        <ele>402.8</ele>
        <time>2021-03-03T13:09:13Z</time>
      </trkpt>
      <trkpt lat="42.8786650" lon="-8.4469940">
        <ele>402.6</ele>
        <time>2021-03-03T13:09:14Z</time>
      </trkpt>
      <trkpt lat="42.8786890" lon="-8.4469630">
        <ele>402.4</ele>
        <time>2021-03-03T13:09:15Z</time>
      </trkpt>
      <trkpt lat="42.8787170" lon="-8.4469300">
        <ele>402.0</ele>
        <time>2021-03-03T13:09:16Z</time>
      </trkpt>
      <trkpt lat="42.8787440" lon="-8.4468920">
        <ele>401.8</ele>
        <time>2021-03-03T13:09:17Z</time>
      </trkpt>
      <trkpt lat="42.8787680" lon="-8.4468520">
        <ele>401.6</ele>
        <time>2021-03-03T13:09:18Z</time>
      </trkpt>
      <trkpt lat="42.8787970" lon="-8.4468160">
        <ele>401.6</ele>
        <time>2021-03-03T13:09:19Z</time>
      </trkpt>
      <trkpt lat="42.8788260" lon="-8.4467860">
        <ele>401.4</ele>
        <time>2021-03-03T13:09:20Z</time>
      </trkpt>
      <trkpt lat="42.8788570" lon="-8.4467540">
        <ele>401.2</ele>
        <time>2021-03-03T13:09:21Z</time>
      </trkpt>
      <trkpt lat="42.8788880" lon="-8.4467200">
        <ele>400.8</ele>
        <time>2021-03-03T13:09:22Z</time>
      </trkpt>
      <trkpt lat="42.8789160" lon="-8.4466880">
        <ele>400.4</ele>
        <time>2021-03-03T13:09:23Z</time>
      </trkpt>
      <trkpt lat="42.8789370" lon="-8.4466610">
        <ele>400.0</ele>
        <time>2021-03-03T13:09:24Z</time>
      </trkpt>
      <trkpt lat="42.8789640" lon="-8.4466270">
        <ele>399.4</ele>
        <time>2021-03-03T13:09:25Z</time>
      </trkpt>
      <trkpt lat="42.8789980" lon="-8.4465900">
        <ele>399.2</ele>
        <time>2021-03-03T13:09:26Z</time>
      </trkpt>
      <trkpt lat="42.8790290" lon="-8.4465630">
        <ele>399.0</ele>
        <time>2021-03-03T13:09:27Z</time>
      </trkpt>
      <trkpt lat="42.8790490" lon="-8.4465390">
        <ele>398.8</ele>
        <time>2021-03-03T13:09:28Z</time>
      </trkpt>
      <trkpt lat="42.8790760" lon="-8.4465080">
        <ele>398.8</ele>
        <time>2021-03-03T13:09:29Z</time>
      </trkpt>
      <trkpt lat="42.8791070" lon="-8.4464780">
        <ele>398.6</ele>
        <time>2021-03-03T13:09:30Z</time>
      </trkpt>
      <trkpt lat="42.8791390" lon="-8.4464390">
        <ele>398.2</ele>
        <time>2021-03-03T13:09:31Z</time>
      </trkpt>
      <trkpt lat="42.8791680" lon="-8.4464090">
        <ele>398.0</ele>
        <time>2021-03-03T13:09:32Z</time>
      </trkpt>
      <trkpt lat="42.8791960" lon="-8.4463800">
        <ele>398.0</ele>
        <time>2021-03-03T13:09:33Z</time>
      </trkpt>
      <trkpt lat="42.8792260" lon="-8.4463490">
        <ele>397.8</ele>
        <time>2021-03-03T13:09:34Z</time>
      </trkpt>
      <trkpt lat="42.8792530" lon="-8.4463160">
        <ele>397.6</ele>
        <time>2021-03-03T13:09:35Z</time>
      </trkpt>
      <trkpt lat="42.8792790" lon="-8.4462820">
        <ele>397.4</ele>
        <time>2021-03-03T13:09:36Z</time>
      </trkpt>
      <trkpt lat="42.8793110" lon="-8.4462530">
        <ele>397.2</ele>
        <time>2021-03-03T13:09:37Z</time>
      </trkpt>
      <trkpt lat="42.8793450" lon="-8.4462220">
        <ele>397.2</ele>
        <time>2021-03-03T13:09:38Z</time>
      </trkpt>
      <trkpt lat="42.8793880" lon="-8.4461920">
        <ele>397.0</ele>
        <time>2021-03-03T13:09:39Z</time>
      </trkpt>
      <trkpt lat="42.8794280" lon="-8.4461640">
        <ele>397.0</ele>
        <time>2021-03-03T13:09:40Z</time>
      </trkpt>
      <trkpt lat="42.8794570" lon="-8.4461360">
        <ele>396.8</ele>
        <time>2021-03-03T13:09:41Z</time>
      </trkpt>
      <trkpt lat="42.8794850" lon="-8.4461100">
        <ele>396.8</ele>
        <time>2021-03-03T13:09:42Z</time>
      </trkpt>
      <trkpt lat="42.8795140" lon="-8.4460860">
        <ele>396.8</ele>
        <time>2021-03-03T13:09:43Z</time>
      </trkpt>
      <trkpt lat="42.8795420" lon="-8.4460700">
        <ele>396.8</ele>
        <time>2021-03-03T13:09:44Z</time>
      </trkpt>
      <trkpt lat="42.8795740" lon="-8.4460680">
        <ele>396.8</ele>
        <time>2021-03-03T13:09:45Z</time>
      </trkpt>
      <trkpt lat="42.8796060" lon="-8.4460740">
        <ele>396.8</ele>
        <time>2021-03-03T13:09:46Z</time>
      </trkpt>
      <trkpt lat="42.8796390" lon="-8.4460820">
        <ele>396.4</ele>
        <time>2021-03-03T13:09:47Z</time>
      </trkpt>
      <trkpt lat="42.8796710" lon="-8.4460910">
        <ele>396.2</ele>
        <time>2021-03-03T13:09:48Z</time>
      </trkpt>
      <trkpt lat="42.8797060" lon="-8.4461000">
        <ele>396.0</ele>
        <time>2021-03-03T13:09:49Z</time>
      </trkpt>
      <trkpt lat="42.8797390" lon="-8.4461070">
        <ele>395.6</ele>
        <time>2021-03-03T13:09:50Z</time>
      </trkpt>
      <trkpt lat="42.8797740" lon="-8.4461140">
        <ele>395.4</ele>
        <time>2021-03-03T13:09:51Z</time>
      </trkpt>
      <trkpt lat="42.8798090" lon="-8.4461190">
        <ele>395.4</ele>
        <time>2021-03-03T13:09:52Z</time>
      </trkpt>
      <trkpt lat="42.8798470" lon="-8.4461250">
        <ele>395.0</ele>
        <time>2021-03-03T13:09:53Z</time>
      </trkpt>
      <trkpt lat="42.8798790" lon="-8.4461270">
        <ele>394.8</ele>
        <time>2021-03-03T13:09:54Z</time>
      </trkpt>
      <trkpt lat="42.8799140" lon="-8.4461300">
        <ele>394.6</ele>
        <time>2021-03-03T13:09:55Z</time>
      </trkpt>
      <trkpt lat="42.8799510" lon="-8.4461300">
        <ele>394.4</ele>
        <time>2021-03-03T13:09:56Z</time>
      </trkpt>
      <trkpt lat="42.8799820" lon="-8.4461270">
        <ele>394.0</ele>
        <time>2021-03-03T13:09:57Z</time>
      </trkpt>
      <trkpt lat="42.8800130" lon="-8.4461250">
        <ele>393.6</ele>
        <time>2021-03-03T13:09:58Z</time>
      </trkpt>
      <trkpt lat="42.8800550" lon="-8.4461250">
        <ele>393.4</ele>
        <time>2021-03-03T13:09:59Z</time>
      </trkpt>
      <trkpt lat="42.8800970" lon="-8.4461280">
        <ele>393.2</ele>
        <time>2021-03-03T13:10:00Z</time>
      </trkpt>
      <trkpt lat="42.8801390" lon="-8.4461330">
        <ele>393.0</ele>
        <time>2021-03-03T13:10:01Z</time>
      </trkpt>
      <trkpt lat="42.8801750" lon="-8.4461380">
        <ele>392.4</ele>
        <time>2021-03-03T13:10:02Z</time>
      </trkpt>
      <trkpt lat="42.8802050" lon="-8.4461390">
        <ele>392.0</ele>
        <time>2021-03-03T13:10:03Z</time>
      </trkpt>
      <trkpt lat="42.8802340" lon="-8.4461440">
        <ele>391.8</ele>
        <time>2021-03-03T13:10:04Z</time>
      </trkpt>
      <trkpt lat="42.8802640" lon="-8.4461440">
        <ele>391.6</ele>
        <time>2021-03-03T13:10:05Z</time>
      </trkpt>
      <trkpt lat="42.8802990" lon="-8.4461500">
        <ele>391.2</ele>
        <time>2021-03-03T13:10:06Z</time>
      </trkpt>
      <trkpt lat="42.8803340" lon="-8.4461590">
        <ele>390.6</ele>
        <time>2021-03-03T13:10:07Z</time>
      </trkpt>
      <trkpt lat="42.8803690" lon="-8.4461640">
        <ele>390.4</ele>
        <time>2021-03-03T13:10:08Z</time>
      </trkpt>
      <trkpt lat="42.8804070" lon="-8.4461700">
        <ele>390.2</ele>
        <time>2021-03-03T13:10:09Z</time>
      </trkpt>
      <trkpt lat="42.8804440" lon="-8.4461720">
        <ele>389.8</ele>
        <time>2021-03-03T13:10:10Z</time>
      </trkpt>
      <trkpt lat="42.8804820" lon="-8.4461710">
        <ele>389.8</ele>
        <time>2021-03-03T13:10:11Z</time>
      </trkpt>
      <trkpt lat="42.8805180" lon="-8.4461710">
        <ele>389.6</ele>
        <time>2021-03-03T13:10:12Z</time>
      </trkpt>
      <trkpt lat="42.8805550" lon="-8.4461720">
        <ele>389.0</ele>
        <time>2021-03-03T13:10:13Z</time>
      </trkpt>
      <trkpt lat="42.8805930" lon="-8.4461750">
        <ele>388.6</ele>
        <time>2021-03-03T13:10:14Z</time>
      </trkpt>
      <trkpt lat="42.8806280" lon="-8.4461750">
        <ele>388.4</ele>
        <time>2021-03-03T13:10:15Z</time>
      </trkpt>
      <trkpt lat="42.8806660" lon="-8.4461710">
        <ele>388.2</ele>
        <time>2021-03-03T13:10:16Z</time>
      </trkpt>
      <trkpt lat="42.8807030" lon="-8.4461680">
        <ele>388.0</ele>
        <time>2021-03-03T13:10:17Z</time>
      </trkpt>
      <trkpt lat="42.8807370" lon="-8.4461640">
        <ele>387.6</ele>
        <time>2021-03-03T13:10:18Z</time>
      </trkpt>
      <trkpt lat="42.8807700" lon="-8.4461600">
        <ele>387.4</ele>
        <time>2021-03-03T13:10:19Z</time>
      </trkpt>
      <trkpt lat="42.8808070" lon="-8.4461530">
        <ele>387.2</ele>
        <time>2021-03-03T13:10:20Z</time>
      </trkpt>
      <trkpt lat="42.8808410" lon="-8.4461450">
        <ele>386.8</ele>
        <time>2021-03-03T13:10:21Z</time>
      </trkpt>
      <trkpt lat="42.8808800" lon="-8.4461390">
        <ele>386.6</ele>
        <time>2021-03-03T13:10:22Z</time>
      </trkpt>
      <trkpt lat="42.8809160" lon="-8.4461320">
        <ele>386.4</ele>
        <time>2021-03-03T13:10:23Z</time>
      </trkpt>
      <trkpt lat="42.8809500" lon="-8.4461200">
        <ele>386.2</ele>
        <time>2021-03-03T13:10:24Z</time>
      </trkpt>
      <trkpt lat="42.8809820" lon="-8.4461070">
        <ele>386.0</ele>
        <time>2021-03-03T13:10:25Z</time>
      </trkpt>
      <trkpt lat="42.8810130" lon="-8.4460950">
        <ele>385.6</ele>
        <time>2021-03-03T13:10:26Z</time>
      </trkpt>
      <trkpt lat="42.8810420" lon="-8.4460830">
        <ele>385.4</ele>
        <time>2021-03-03T13:10:27Z</time>
      </trkpt>
      <trkpt lat="42.8810690" lon="-8.4460680">
        <ele>385.4</ele>
        <time>2021-03-03T13:10:28Z</time>
      </trkpt>
      <trkpt lat="42.8810990" lon="-8.4460490">
        <ele>385.2</ele>
        <time>2021-03-03T13:10:29Z</time>
      </trkpt>
      <trkpt lat="42.8811310" lon="-8.4460340">
        <ele>384.8</ele>
        <time>2021-03-03T13:10:30Z</time>
      </trkpt>
      <trkpt lat="42.8811640" lon="-8.4460180">
        <ele>384.6</ele>
        <time>2021-03-03T13:10:31Z</time>
      </trkpt>
      <trkpt lat="42.8812000" lon="-8.4460020">
        <ele>384.4</ele>
        <time>2021-03-03T13:10:32Z</time>
      </trkpt>
      <trkpt lat="42.8812330" lon="-8.4459880">
        <ele>384.4</ele>
        <time>2021-03-03T13:10:33Z</time>
      </trkpt>
      <trkpt lat="42.8812640" lon="-8.4459780">
        <ele>384.4</ele>
        <time>2021-03-03T13:10:34Z</time>
      </trkpt>
      <trkpt lat="42.8812970" lon="-8.4459780">
        <ele>384.4</ele>
        <time>2021-03-03T13:10:35Z</time>
      </trkpt>
      <trkpt lat="42.8813290" lon="-8.4459810">
        <ele>384.2</ele>
        <time>2021-03-03T13:10:36Z</time>
      </trkpt>
      <trkpt lat="42.8813550" lon="-8.4459930">
        <ele>384.2</ele>
        <time>2021-03-03T13:10:37Z</time>
      </trkpt>
      <trkpt lat="42.8813810" lon="-8.4460080">
        <ele>384.2</ele>
        <time>2021-03-03T13:10:38Z</time>
      </trkpt>
      <trkpt lat="42.8814070" lon="-8.4460220">
        <ele>384.0</ele>
        <time>2021-03-03T13:10:39Z</time>
      </trkpt>
      <trkpt lat="42.8814450" lon="-8.4460250">
        <ele>384.0</ele>
        <time>2021-03-03T13:10:40Z</time>
      </trkpt>
      <trkpt lat="42.8814820" lon="-8.4460200">
        <ele>384.0</ele>
        <time>2021-03-03T13:10:41Z</time>
      </trkpt>
      <trkpt lat="42.8815240" lon="-8.4460220">
        <ele>384.0</ele>
        <time>2021-03-03T13:10:42Z</time>
      </trkpt>
      <trkpt lat="42.8815520" lon="-8.4460150">
        <ele>384.0</ele>
        <time>2021-03-03T13:10:43Z</time>
      </trkpt>
      <trkpt lat="42.8815820" lon="-8.4460030">
        <ele>384.0</ele>
        <time>2021-03-03T13:10:44Z</time>
      </trkpt>
      <trkpt lat="42.8816120" lon="-8.4459870">
        <ele>384.0</ele>
        <time>2021-03-03T13:10:45Z</time>
      </trkpt>
      <trkpt lat="42.8816420" lon="-8.4459700">
        <ele>384.0</ele>
        <time>2021-03-03T13:10:46Z</time>
      </trkpt>
      <trkpt lat="42.8816720" lon="-8.4459500">
        <ele>384.2</ele>
        <time>2021-03-03T13:10:47Z</time>
      </trkpt>
      <trkpt lat="42.8816990" lon="-8.4459360">
        <ele>384.4</ele>
        <time>2021-03-03T13:10:48Z</time>
      </trkpt>
      <trkpt lat="42.8817210" lon="-8.4459220">
        <ele>384.4</ele>
        <time>2021-03-03T13:10:49Z</time>
      </trkpt>
      <trkpt lat="42.8817440" lon="-8.4459050">
        <ele>384.6</ele>
        <time>2021-03-03T13:10:50Z</time>
      </trkpt>
      <trkpt lat="42.8817710" lon="-8.4458900">
        <ele>384.8</ele>
        <time>2021-03-03T13:10:51Z</time>
      </trkpt>
      <trkpt lat="42.8818020" lon="-8.4458770">
        <ele>384.8</ele>
        <time>2021-03-03T13:10:52Z</time>
      </trkpt>
      <trkpt lat="42.8818350" lon="-8.4458610">
        <ele>384.8</ele>
        <time>2021-03-03T13:10:53Z</time>
      </trkpt>
      <trkpt lat="42.8818630" lon="-8.4458440">
        <ele>385.0</ele>
        <time>2021-03-03T13:10:54Z</time>
      </trkpt>
      <trkpt lat="42.8818910" lon="-8.4458250">
        <ele>385.0</ele>
        <time>2021-03-03T13:10:55Z</time>
      </trkpt>
      <trkpt lat="42.8819160" lon="-8.4458110">
        <ele>385.2</ele>
        <time>2021-03-03T13:10:56Z</time>
      </trkpt>
      <trkpt lat="42.8819390" lon="-8.4457940">
        <ele>385.2</ele>
        <time>2021-03-03T13:10:57Z</time>
      </trkpt>
      <trkpt lat="42.8819630" lon="-8.4457720">
        <ele>385.2</ele>
        <time>2021-03-03T13:10:58Z</time>
      </trkpt>
      <trkpt lat="42.8819900" lon="-8.4457510">
        <ele>385.4</ele>
        <time>2021-03-03T13:10:59Z</time>
      </trkpt>
      <trkpt lat="42.8820190" lon="-8.4457320">
        <ele>385.4</ele>
        <time>2021-03-03T13:11:00Z</time>
      </trkpt>
      <trkpt lat="42.8820460" lon="-8.4457060">
        <ele>385.4</ele>
        <time>2021-03-03T13:11:01Z</time>
      </trkpt>
      <trkpt lat="42.8820690" lon="-8.4456750">
        <ele>385.4</ele>
        <time>2021-03-03T13:11:02Z</time>
      </trkpt>
      <trkpt lat="42.8820900" lon="-8.4456460">
        <ele>385.4</ele>
        <time>2021-03-03T13:11:03Z</time>
      </trkpt>
      <trkpt lat="42.8821120" lon="-8.4456160">
        <ele>385.4</ele>
        <time>2021-03-03T13:11:04Z</time>
      </trkpt>
      <trkpt lat="42.8821360" lon="-8.4455900">
        <ele>385.4</ele>
        <time>2021-03-03T13:11:05Z</time>
      </trkpt>
      <trkpt lat="42.8821600" lon="-8.4455630">
        <ele>385.2</ele>
        <time>2021-03-03T13:11:06Z</time>
      </trkpt>
      <trkpt lat="42.8821800" lon="-8.4455320">
        <ele>385.2</ele>
        <time>2021-03-03T13:11:07Z</time>
      </trkpt>
      <trkpt lat="42.8822030" lon="-8.4455040">
        <ele>385.0</ele>
        <time>2021-03-03T13:11:08Z</time>
      </trkpt>
      <trkpt lat="42.8822260" lon="-8.4454790">
        <ele>385.0</ele>
        <time>2021-03-03T13:11:09Z</time>
      </trkpt>
      <trkpt lat="42.8822490" lon="-8.4454500">
        <ele>384.8</ele>
        <time>2021-03-03T13:11:10Z</time>
      </trkpt>
      <trkpt lat="42.8822740" lon="-8.4454220">
        <ele>384.8</ele>
        <time>2021-03-03T13:11:11Z</time>
      </trkpt>
      <trkpt lat="42.8823020" lon="-8.4454000">
        <ele>384.6</ele>
        <time>2021-03-03T13:11:12Z</time>
      </trkpt>
      <trkpt lat="42.8823320" lon="-8.4453760">
        <ele>384.4</ele>
        <time>2021-03-03T13:11:13Z</time>
      </trkpt>
      <trkpt lat="42.8823590" lon="-8.4453510">
        <ele>384.2</ele>
        <time>2021-03-03T13:11:14Z</time>
      </trkpt>
      <trkpt lat="42.8823870" lon="-8.4453300">
        <ele>384.0</ele>
        <time>2021-03-03T13:11:15Z</time>
      </trkpt>
      <trkpt lat="42.8824190" lon="-8.4453120">
        <ele>383.8</ele>
        <time>2021-03-03T13:11:16Z</time>
      </trkpt>
      <trkpt lat="42.8824520" lon="-8.4452950">
        <ele>383.4</ele>
        <time>2021-03-03T13:11:17Z</time>
      </trkpt>
      <trkpt lat="42.8824850" lon="-8.4452790">
        <ele>383.0</ele>
        <time>2021-03-03T13:11:18Z</time>
      </trkpt>
      <trkpt lat="42.8825200" lon="-8.4452660">
        <ele>383.0</ele>
        <time>2021-03-03T13:11:19Z</time>
      </trkpt>
      <trkpt lat="42.8825530" lon="-8.4452540">
        <ele>382.8</ele>
        <time>2021-03-03T13:11:20Z</time>
      </trkpt>
      <trkpt lat="42.8825850" lon="-8.4452430">
        <ele>382.6</ele>
        <time>2021-03-03T13:11:21Z</time>
      </trkpt>
      <trkpt lat="42.8826180" lon="-8.4452330">
        <ele>382.4</ele>
        <time>2021-03-03T13:11:22Z</time>
      </trkpt>
      <trkpt lat="42.8826490" lon="-8.4452220">
        <ele>382.4</ele>
        <time>2021-03-03T13:11:23Z</time>
      </trkpt>
      <trkpt lat="42.8826780" lon="-8.4452150">
        <ele>382.2</ele>
        <time>2021-03-03T13:11:24Z</time>
      </trkpt>
      <trkpt lat="42.8827100" lon="-8.4452140">
        <ele>382.0</ele>
        <time>2021-03-03T13:11:25Z</time>
      </trkpt>
      <trkpt lat="42.8827450" lon="-8.4452120">
        <ele>381.8</ele>
        <time>2021-03-03T13:11:26Z</time>
      </trkpt>
      <trkpt lat="42.8827820" lon="-8.4452120">
        <ele>381.8</ele>
        <time>2021-03-03T13:11:27Z</time>
      </trkpt>
      <trkpt lat="42.8828150" lon="-8.4452180">
        <ele>381.6</ele>
        <time>2021-03-03T13:11:28Z</time>
      </trkpt>
      <trkpt lat="42.8828470" lon="-8.4452270">
        <ele>381.4</ele>
        <time>2021-03-03T13:11:29Z</time>
      </trkpt>
      <trkpt lat="42.8828830" lon="-8.4452380">
        <ele>381.4</ele>
        <time>2021-03-03T13:11:30Z</time>
      </trkpt>
      <trkpt lat="42.8829130" lon="-8.4452500">
        <ele>381.2</ele>
        <time>2021-03-03T13:11:31Z</time>
      </trkpt>
      <trkpt lat="42.8829460" lon="-8.4452620">
        <ele>381.2</ele>
        <time>2021-03-03T13:11:32Z</time>
      </trkpt>
      <trkpt lat="42.8829780" lon="-8.4452760">
        <ele>381.2</ele>
        <time>2021-03-03T13:11:33Z</time>
      </trkpt>
      <trkpt lat="42.8830130" lon="-8.4452910">
        <ele>381.0</ele>
        <time>2021-03-03T13:11:34Z</time>
      </trkpt>
      <trkpt lat="42.8830520" lon="-8.4453070">
        <ele>381.0</ele>
        <time>2021-03-03T13:11:35Z</time>
      </trkpt>
      <trkpt lat="42.8830850" lon="-8.4453180">
        <ele>380.8</ele>
        <time>2021-03-03T13:11:36Z</time>
      </trkpt>
      <trkpt lat="42.8831170" lon="-8.4453240">
        <ele>380.8</ele>
        <time>2021-03-03T13:11:37Z</time>
      </trkpt>
      <trkpt lat="42.8831500" lon="-8.4453280">
        <ele>380.6</ele>
        <time>2021-03-03T13:11:38Z</time>
      </trkpt>
      <trkpt lat="42.8831780" lon="-8.4453340">
        <ele>380.6</ele>
        <time>2021-03-03T13:11:39Z</time>
      </trkpt>
      <trkpt lat="42.8832070" lon="-8.4453420">
        <ele>380.6</ele>
        <time>2021-03-03T13:11:40Z</time>
      </trkpt>
      <trkpt lat="42.8832350" lon="-8.4453500">
        <ele>380.4</ele>
        <time>2021-03-03T13:11:41Z</time>
      </trkpt>
      <trkpt lat="42.8832610" lon="-8.4453630">
        <ele>380.4</ele>
        <time>2021-03-03T13:11:42Z</time>
      </trkpt>
      <trkpt lat="42.8832830" lon="-8.4453820">
        <ele>380.2</ele>
        <time>2021-03-03T13:11:43Z</time>
      </trkpt>
      <trkpt lat="42.8833010" lon="-8.4454040">
        <ele>380.2</ele>
        <time>2021-03-03T13:11:44Z</time>
      </trkpt>
      <trkpt lat="42.8833220" lon="-8.4454280">
        <ele>380.2</ele>
        <time>2021-03-03T13:11:45Z</time>
      </trkpt>
      <trkpt lat="42.8833390" lon="-8.4454540">
        <ele>380.4</ele>
        <time>2021-03-03T13:11:46Z</time>
      </trkpt>
      <trkpt lat="42.8833550" lon="-8.4454780">
        <ele>380.4</ele>
        <time>2021-03-03T13:11:47Z</time>
      </trkpt>
      <trkpt lat="42.8833690" lon="-8.4455030">
        <ele>380.6</ele>
        <time>2021-03-03T13:11:48Z</time>
      </trkpt>
      <trkpt lat="42.8833810" lon="-8.4455280">
        <ele>380.8</ele>
        <time>2021-03-03T13:11:49Z</time>
      </trkpt>
      <trkpt lat="42.8833930" lon="-8.4455540">
        <ele>380.8</ele>
        <time>2021-03-03T13:11:50Z</time>
      </trkpt>
      <trkpt lat="42.8834040" lon="-8.4455870">
        <ele>381.0</ele>
        <time>2021-03-03T13:11:51Z</time>
      </trkpt>
      <trkpt lat="42.8834170" lon="-8.4456180">
        <ele>381.2</ele>
        <time>2021-03-03T13:11:52Z</time>
      </trkpt>
      <trkpt lat="42.8834330" lon="-8.4456450">
        <ele>381.4</ele>
        <time>2021-03-03T13:11:53Z</time>
      </trkpt>
      <trkpt lat="42.8834510" lon="-8.4456700">
        <ele>381.6</ele>
        <time>2021-03-03T13:11:54Z</time>
      </trkpt>
      <trkpt lat="42.8834640" lon="-8.4456990">
        <ele>381.8</ele>
        <time>2021-03-03T13:11:55Z</time>
      </trkpt>
      <trkpt lat="42.8834780" lon="-8.4457300">
        <ele>382.0</ele>
        <time>2021-03-03T13:11:56Z</time>
      </trkpt>
      <trkpt lat="42.8834940" lon="-8.4457570">
        <ele>382.0</ele>
        <time>2021-03-03T13:11:57Z</time>
      </trkpt>
      <trkpt lat="42.8835090" lon="-8.4457870">
        <ele>382.2</ele>
        <time>2021-03-03T13:11:58Z</time>
      </trkpt>
      <trkpt lat="42.8835250" lon="-8.4458170">
        <ele>382.4</ele>
        <time>2021-03-03T13:11:59Z</time>
      </trkpt>
      <trkpt lat="42.8835430" lon="-8.4458440">
        <ele>382.4</ele>
        <time>2021-03-03T13:12:00Z</time>
      </trkpt>
      <trkpt lat="42.8835610" lon="-8.4458720">
        <ele>382.6</ele>
        <time>2021-03-03T13:12:01Z</time>
      </trkpt>
      <trkpt lat="42.8835770" lon="-8.4459070">
        <ele>382.6</ele>
        <time>2021-03-03T13:12:02Z</time>
      </trkpt>
      <trkpt lat="42.8835920" lon="-8.4459390">
        <ele>382.8</ele>
        <time>2021-03-03T13:12:03Z</time>
      </trkpt>
      <trkpt lat="42.8836070" lon="-8.4459730">
        <ele>382.8</ele>
        <time>2021-03-03T13:12:04Z</time>
      </trkpt>
      <trkpt lat="42.8836210" lon="-8.4460060">
        <ele>383.0</ele>
        <time>2021-03-03T13:12:05Z</time>
      </trkpt>
      <trkpt lat="42.8836340" lon="-8.4460380">
        <ele>383.2</ele>
        <time>2021-03-03T13:12:06Z</time>
      </trkpt>
      <trkpt lat="42.8836480" lon="-8.4460690">
        <ele>383.2</ele>
        <time>2021-03-03T13:12:07Z</time>
      </trkpt>
      <trkpt lat="42.8836640" lon="-8.4460990">
        <ele>383.4</ele>
        <time>2021-03-03T13:12:08Z</time>
      </trkpt>
      <trkpt lat="42.8836810" lon="-8.4461280">
        <ele>383.4</ele>
        <time>2021-03-03T13:12:09Z</time>
      </trkpt>
      <trkpt lat="42.8836970" lon="-8.4461590">
        <ele>383.6</ele>
        <time>2021-03-03T13:12:10Z</time>
      </trkpt>
      <trkpt lat="42.8837130" lon="-8.4461880">
        <ele>383.6</ele>
        <time>2021-03-03T13:12:11Z</time>
      </trkpt>
      <trkpt lat="42.8837300" lon="-8.4462180">
        <ele>383.8</ele>
        <time>2021-03-03T13:12:12Z</time>
      </trkpt>
      <trkpt lat="42.8837460" lon="-8.4462510">
        <ele>383.8</ele>
        <time>2021-03-03T13:12:13Z</time>
      </trkpt>
      <trkpt lat="42.8837600" lon="-8.4462840">
        <ele>383.8</ele>
        <time>2021-03-03T13:12:14Z</time>
      </trkpt>
      <trkpt lat="42.8837740" lon="-8.4463130">
        <ele>384.0</ele>
        <time>2021-03-03T13:12:15Z</time>
      </trkpt>
      <trkpt lat="42.8837900" lon="-8.4463410">
        <ele>384.0</ele>
        <time>2021-03-03T13:12:16Z</time>
      </trkpt>
      <trkpt lat="42.8838070" lon="-8.4463710">
        <ele>384.6</ele>
        <time>2021-03-03T13:12:17Z</time>
      </trkpt>
      <trkpt lat="42.8838220" lon="-8.4463950">
        <ele>384.8</ele>
        <time>2021-03-03T13:12:18Z</time>
      </trkpt>
      <trkpt lat="42.8838380" lon="-8.4464240">
        <ele>385.0</ele>
        <time>2021-03-03T13:12:19Z</time>
      </trkpt>
      <trkpt lat="42.8838530" lon="-8.4464550">
        <ele>385.0</ele>
        <time>2021-03-03T13:12:20Z</time>
      </trkpt>
      <trkpt lat="42.8838680" lon="-8.4464850">
        <ele>384.6</ele>
        <time>2021-03-03T13:12:21Z</time>
      </trkpt>
      <trkpt lat="42.8838860" lon="-8.4465200">
        <ele>384.2</ele>
        <time>2021-03-03T13:12:22Z</time>
      </trkpt>
      <trkpt lat="42.8838970" lon="-8.4465440">
        <ele>383.8</ele>
        <time>2021-03-03T13:12:23Z</time>
      </trkpt>
      <trkpt lat="42.8839140" lon="-8.4465760">
        <ele>383.8</ele>
        <time>2021-03-03T13:12:24Z</time>
      </trkpt>
      <trkpt lat="42.8839290" lon="-8.4466070">
        <ele>384.0</ele>
        <time>2021-03-03T13:12:25Z</time>
      </trkpt>
      <trkpt lat="42.8839470" lon="-8.4466340">
        <ele>384.4</ele>
        <time>2021-03-03T13:12:26Z</time>
      </trkpt>
      <trkpt lat="42.8839640" lon="-8.4466700">
        <ele>384.8</ele>
        <time>2021-03-03T13:12:27Z</time>
      </trkpt>
      <trkpt lat="42.8839740" lon="-8.4467010">
        <ele>384.8</ele>
        <time>2021-03-03T13:12:28Z</time>
      </trkpt>
      <trkpt lat="42.8839920" lon="-8.4467290">
        <ele>385.0</ele>
        <time>2021-03-03T13:12:29Z</time>
      </trkpt>
      <trkpt lat="42.8840150" lon="-8.4467640">
        <ele>385.4</ele>
        <time>2021-03-03T13:12:30Z</time>
      </trkpt>
      <trkpt lat="42.8840320" lon="-8.4467990">
        <ele>385.6</ele>
        <time>2021-03-03T13:12:31Z</time>
      </trkpt>
      <trkpt lat="42.8840460" lon="-8.4468370">
        <ele>385.8</ele>
        <time>2021-03-03T13:12:32Z</time>
      </trkpt>
      <trkpt lat="42.8840560" lon="-8.4468690">
        <ele>386.0</ele>
        <time>2021-03-03T13:12:33Z</time>
      </trkpt>
      <trkpt lat="42.8840750" lon="-8.4469110">
        <ele>386.0</ele>
        <time>2021-03-03T13:12:34Z</time>
      </trkpt>
      <trkpt lat="42.8840920" lon="-8.4469440">
        <ele>386.2</ele>
        <time>2021-03-03T13:12:35Z</time>
      </trkpt>
      <trkpt lat="42.8841100" lon="-8.4469800">
        <ele>386.4</ele>
        <time>2021-03-03T13:12:36Z</time>
      </trkpt>
      <trkpt lat="42.8841250" lon="-8.4470100">
        <ele>386.4</ele>
        <time>2021-03-03T13:12:37Z</time>
      </trkpt>
      <trkpt lat="42.8841420" lon="-8.4470450">
        <ele>386.4</ele>
        <time>2021-03-03T13:12:38Z</time>
      </trkpt>
      <trkpt lat="42.8841630" lon="-8.4470860">
        <ele>386.6</ele>
        <time>2021-03-03T13:12:39Z</time>
      </trkpt>
      <trkpt lat="42.8841760" lon="-8.4471210">
        <ele>386.6</ele>
        <time>2021-03-03T13:12:40Z</time>
      </trkpt>
      <trkpt lat="42.8841850" lon="-8.4471560">
        <ele>386.8</ele>
        <time>2021-03-03T13:12:41Z</time>
      </trkpt>
      <trkpt lat="42.8842020" lon="-8.4471890">
        <ele>386.8</ele>
        <time>2021-03-03T13:12:42Z</time>
      </trkpt>
      <trkpt lat="42.8842260" lon="-8.4472220">
        <ele>387.0</ele>
        <time>2021-03-03T13:12:43Z</time>
      </trkpt>
      <trkpt lat="42.8842460" lon="-8.4472530">
        <ele>387.0</ele>
        <time>2021-03-03T13:12:44Z</time>
      </trkpt>
      <trkpt lat="42.8842620" lon="-8.4472880">
        <ele>387.2</ele>
        <time>2021-03-03T13:12:45Z</time>
      </trkpt>
      <trkpt lat="42.8842770" lon="-8.4473130">
        <ele>387.4</ele>
        <time>2021-03-03T13:12:46Z</time>
      </trkpt>
      <trkpt lat="42.8842980" lon="-8.4473420">
        <ele>387.4</ele>
        <time>2021-03-03T13:12:47Z</time>
      </trkpt>
      <trkpt lat="42.8843130" lon="-8.4473780">
        <ele>387.6</ele>
        <time>2021-03-03T13:12:48Z</time>
      </trkpt>
      <trkpt lat="42.8843330" lon="-8.4474210">
        <ele>387.8</ele>
        <time>2021-03-03T13:12:49Z</time>
      </trkpt>
      <trkpt lat="42.8843460" lon="-8.4474610">
        <ele>387.8</ele>
        <time>2021-03-03T13:12:50Z</time>
      </trkpt>
      <trkpt lat="42.8843550" lon="-8.4474910">
        <ele>387.8</ele>
        <time>2021-03-03T13:12:51Z</time>
      </trkpt>
      <trkpt lat="42.8843710" lon="-8.4475300">
        <ele>387.8</ele>
        <time>2021-03-03T13:12:52Z</time>
      </trkpt>
      <trkpt lat="42.8843850" lon="-8.4475630">
        <ele>388.0</ele>
        <time>2021-03-03T13:12:53Z</time>
      </trkpt>
      <trkpt lat="42.8843970" lon="-8.4475890">
        <ele>388.0</ele>
        <time>2021-03-03T13:12:54Z</time>
      </trkpt>
      <trkpt lat="42.8844150" lon="-8.4476200">
        <ele>388.0</ele>
        <time>2021-03-03T13:12:55Z</time>
      </trkpt>
      <trkpt lat="42.8844300" lon="-8.4476530">
        <ele>388.0</ele>
        <time>2021-03-03T13:12:56Z</time>
      </trkpt>
      <trkpt lat="42.8844470" lon="-8.4476860">
        <ele>388.0</ele>
        <time>2021-03-03T13:12:57Z</time>
      </trkpt>
      <trkpt lat="42.8844670" lon="-8.4477200">
        <ele>388.0</ele>
        <time>2021-03-03T13:12:58Z</time>
      </trkpt>
      <trkpt lat="42.8844800" lon="-8.4477700">
        <ele>388.0</ele>
        <time>2021-03-03T13:12:59Z</time>
      </trkpt>
      <trkpt lat="42.8845000" lon="-8.4477980">
        <ele>388.0</ele>
        <time>2021-03-03T13:13:00Z</time>
      </trkpt>
      <trkpt lat="42.8845210" lon="-8.4478360">
        <ele>388.0</ele>
        <time>2021-03-03T13:13:01Z</time>
      </trkpt>
      <trkpt lat="42.8845410" lon="-8.4478750">
        <ele>388.0</ele>
        <time>2021-03-03T13:13:02Z</time>
      </trkpt>
      <trkpt lat="42.8845510" lon="-8.4479050">
        <ele>388.2</ele>
        <time>2021-03-03T13:13:03Z</time>
      </trkpt>
      <trkpt lat="42.8845680" lon="-8.4479410">
        <ele>388.2</ele>
        <time>2021-03-03T13:13:04Z</time>
      </trkpt>
      <trkpt lat="42.8845910" lon="-8.4479740">
        <ele>388.2</ele>
        <time>2021-03-03T13:13:05Z</time>
      </trkpt>
      <trkpt lat="42.8846100" lon="-8.4480100">
        <ele>388.4</ele>
        <time>2021-03-03T13:13:06Z</time>
      </trkpt>
      <trkpt lat="42.8846280" lon="-8.4480400">
        <ele>388.6</ele>
        <time>2021-03-03T13:13:07Z</time>
      </trkpt>
      <trkpt lat="42.8846460" lon="-8.4480700">
        <ele>388.6</ele>
        <time>2021-03-03T13:13:08Z</time>
      </trkpt>
      <trkpt lat="42.8846660" lon="-8.4481030">
        <ele>388.6</ele>
        <time>2021-03-03T13:13:09Z</time>
      </trkpt>
      <trkpt lat="42.8846900" lon="-8.4481330">
        <ele>388.8</ele>
        <time>2021-03-03T13:13:10Z</time>
      </trkpt>
      <trkpt lat="42.8847170" lon="-8.4481700">
        <ele>389.0</ele>
        <time>2021-03-03T13:13:11Z</time>
      </trkpt>
      <trkpt lat="42.8847370" lon="-8.4482070">
        <ele>389.0</ele>
        <time>2021-03-03T13:13:12Z</time>
      </trkpt>
      <trkpt lat="42.8847520" lon="-8.4482350">
        <ele>389.0</ele>
        <time>2021-03-03T13:13:13Z</time>
      </trkpt>
      <trkpt lat="42.8847720" lon="-8.4482650">
        <ele>389.0</ele>
        <time>2021-03-03T13:13:14Z</time>
      </trkpt>
      <trkpt lat="42.8847950" lon="-8.4482990">
        <ele>389.0</ele>
        <time>2021-03-03T13:13:15Z</time>
      </trkpt>
      <trkpt lat="42.8848130" lon="-8.4483240">
        <ele>389.0</ele>
        <time>2021-03-03T13:13:16Z</time>
      </trkpt>
      <trkpt lat="42.8848370" lon="-8.4483620">
        <ele>388.8</ele>
        <time>2021-03-03T13:13:17Z</time>
      </trkpt>
      <trkpt lat="42.8848530" lon="-8.4483760">
        <ele>388.6</ele>
        <time>2021-03-03T13:13:18Z</time>
      </trkpt>
      <trkpt lat="42.8848750" lon="-8.4484020">
        <ele>388.8</ele>
        <time>2021-03-03T13:13:19Z</time>
      </trkpt>
      <trkpt lat="42.8849020" lon="-8.4484380">
        <ele>389.0</ele>
        <time>2021-03-03T13:13:20Z</time>
      </trkpt>
      <trkpt lat="42.8849250" lon="-8.4484700">
        <ele>389.2</ele>
        <time>2021-03-03T13:13:21Z</time>
      </trkpt>
      <trkpt lat="42.8849400" lon="-8.4485000">
        <ele>389.2</ele>
        <time>2021-03-03T13:13:22Z</time>
      </trkpt>
      <trkpt lat="42.8849650" lon="-8.4485350">
        <ele>389.4</ele>
        <time>2021-03-03T13:13:23Z</time>
      </trkpt>
      <trkpt lat="42.8849900" lon="-8.4485760">
        <ele>389.4</ele>
        <time>2021-03-03T13:13:24Z</time>
      </trkpt>
      <trkpt lat="42.8850130" lon="-8.4486120">
        <ele>389.4</ele>
        <time>2021-03-03T13:13:25Z</time>
      </trkpt>
      <trkpt lat="42.8850350" lon="-8.4486470">
        <ele>389.4</ele>
        <time>2021-03-03T13:13:26Z</time>
      </trkpt>
      <trkpt lat="42.8850540" lon="-8.4486770">
        <ele>389.4</ele>
        <time>2021-03-03T13:13:27Z</time>
      </trkpt>
      <trkpt lat="42.8850770" lon="-8.4487090">
        <ele>389.4</ele>
        <time>2021-03-03T13:13:28Z</time>
      </trkpt>
      <trkpt lat="42.8851010" lon="-8.4487400">
        <ele>389.4</ele>
        <time>2021-03-03T13:13:29Z</time>
      </trkpt>
      <trkpt lat="42.8851280" lon="-8.4487730">
        <ele>389.4</ele>
        <time>2021-03-03T13:13:30Z</time>
      </trkpt>
      <trkpt lat="42.8851580" lon="-8.4488050">
        <ele>389.4</ele>
        <time>2021-03-03T13:13:31Z</time>
      </trkpt>
      <trkpt lat="42.8851760" lon="-8.4488260">
        <ele>389.4</ele>
        <time>2021-03-03T13:13:32Z</time>
      </trkpt>
      <trkpt lat="42.8851990" lon="-8.4488610">
        <ele>389.4</ele>
        <time>2021-03-03T13:13:33Z</time>
      </trkpt>
      <trkpt lat="42.8852180" lon="-8.4488930">
        <ele>389.6</ele>
        <time>2021-03-03T13:13:34Z</time>
      </trkpt>
      <trkpt lat="42.8852290" lon="-8.4489220">
        <ele>389.6</ele>
        <time>2021-03-03T13:13:35Z</time>
      </trkpt>
      <trkpt lat="42.8852460" lon="-8.4489510">
        <ele>389.6</ele>
        <time>2021-03-03T13:13:36Z</time>
      </trkpt>
      <trkpt lat="42.8852680" lon="-8.4489780">
        <ele>389.6</ele>
        <time>2021-03-03T13:13:37Z</time>
      </trkpt>
      <trkpt lat="42.8852970" lon="-8.4490030">
        <ele>389.8</ele>
        <time>2021-03-03T13:13:38Z</time>
      </trkpt>
      <trkpt lat="42.8853240" lon="-8.4490270">
        <ele>389.8</ele>
        <time>2021-03-03T13:13:39Z</time>
      </trkpt>
      <trkpt lat="42.8853460" lon="-8.4490680">
        <ele>389.8</ele>
        <time>2021-03-03T13:13:40Z</time>
      </trkpt>
      <trkpt lat="42.8853740" lon="-8.4491100">
        <ele>389.8</ele>
        <time>2021-03-03T13:13:41Z</time>
      </trkpt>
      <trkpt lat="42.8854140" lon="-8.4491400">
        <ele>390.0</ele>
        <time>2021-03-03T13:13:42Z</time>
      </trkpt>
      <trkpt lat="42.8854400" lon="-8.4491500">
        <ele>390.0</ele>
        <time>2021-03-03T13:13:43Z</time>
      </trkpt>
      <trkpt lat="42.8854720" lon="-8.4491690">
        <ele>390.2</ele>
        <time>2021-03-03T13:13:44Z</time>
      </trkpt>
      <trkpt lat="42.8854990" lon="-8.4491870">
        <ele>390.2</ele>
        <time>2021-03-03T13:13:45Z</time>
      </trkpt>
      <trkpt lat="42.8855280" lon="-8.4492180">
        <ele>390.4</ele>
        <time>2021-03-03T13:13:46Z</time>
      </trkpt>
      <trkpt lat="42.8855630" lon="-8.4492440">
        <ele>390.4</ele>
        <time>2021-03-03T13:13:47Z</time>
      </trkpt>
      <trkpt lat="42.8855890" lon="-8.4492650">
        <ele>390.4</ele>
        <time>2021-03-03T13:13:48Z</time>
      </trkpt>
      <trkpt lat="42.8856090" lon="-8.4492800">
        <ele>390.4</ele>
        <time>2021-03-03T13:13:49Z</time>
      </trkpt>
      <trkpt lat="42.8856340" lon="-8.4492940">
        <ele>390.6</ele>
        <time>2021-03-03T13:13:50Z</time>
      </trkpt>
      <trkpt lat="42.8856640" lon="-8.4493110">
        <ele>390.8</ele>
        <time>2021-03-03T13:13:51Z</time>
      </trkpt>
      <trkpt lat="42.8856930" lon="-8.4493330">
        <ele>390.8</ele>
        <time>2021-03-03T13:13:52Z</time>
      </trkpt>
      <trkpt lat="42.8857250" lon="-8.4493600">
        <ele>390.8</ele>
        <time>2021-03-03T13:13:53Z</time>
      </trkpt>
      <trkpt lat="42.8857460" lon="-8.4493820">
        <ele>390.8</ele>
        <time>2021-03-03T13:13:54Z</time>
      </trkpt>
      <trkpt lat="42.8857690" lon="-8.4494070">
        <ele>391.2</ele>
        <time>2021-03-03T13:13:55Z</time>
      </trkpt>
      <trkpt lat="42.8857960" lon="-8.4494390">
        <ele>391.4</ele>
        <time>2021-03-03T13:13:56Z</time>
      </trkpt>
      <trkpt lat="42.8858200" lon="-8.4494650">
        <ele>391.6</ele>
        <time>2021-03-03T13:13:57Z</time>
      </trkpt>
      <trkpt lat="42.8858440" lon="-8.4494890">
        <ele>391.8</ele>
        <time>2021-03-03T13:13:58Z</time>
      </trkpt>
      <trkpt lat="42.8858720" lon="-8.4495110">
        <ele>391.8</ele>
        <time>2021-03-03T13:13:59Z</time>
      </trkpt>
      <trkpt lat="42.8859040" lon="-8.4495320">
        <ele>391.8</ele>
        <time>2021-03-03T13:14:00Z</time>
      </trkpt>
      <trkpt lat="42.8859370" lon="-8.4495570">
        <ele>392.0</ele>
        <time>2021-03-03T13:14:01Z</time>
      </trkpt>
      <trkpt lat="42.8859750" lon="-8.4495820">
        <ele>392.0</ele>
        <time>2021-03-03T13:14:02Z</time>
      </trkpt>
      <trkpt lat="42.8859980" lon="-8.4495980">
        <ele>391.8</ele>
        <time>2021-03-03T13:14:03Z</time>
      </trkpt>
      <trkpt lat="42.8860310" lon="-8.4496170">
        <ele>391.8</ele>
        <time>2021-03-03T13:14:04Z</time>
      </trkpt>
      <trkpt lat="42.8860670" lon="-8.4496370">
        <ele>391.8</ele>
        <time>2021-03-03T13:14:05Z</time>
      </trkpt>
      <trkpt lat="42.8860990" lon="-8.4496510">
        <ele>392.0</ele>
        <time>2021-03-03T13:14:06Z</time>
      </trkpt>
      <trkpt lat="42.8861200" lon="-8.4496660">
        <ele>392.2</ele>
        <time>2021-03-03T13:14:07Z</time>
      </trkpt>
      <trkpt lat="42.8861490" lon="-8.4496840">
        <ele>392.8</ele>
        <time>2021-03-03T13:14:08Z</time>
      </trkpt>
      <trkpt lat="42.8861840" lon="-8.4497060">
        <ele>393.0</ele>
        <time>2021-03-03T13:14:09Z</time>
      </trkpt>
      <trkpt lat="42.8862070" lon="-8.4497150">
        <ele>393.2</ele>
        <time>2021-03-03T13:14:10Z</time>
      </trkpt>
      <trkpt lat="42.8862350" lon="-8.4497240">
        <ele>393.2</ele>
        <time>2021-03-03T13:14:11Z</time>
      </trkpt>
      <trkpt lat="42.8862640" lon="-8.4497350">
        <ele>393.4</ele>
        <time>2021-03-03T13:14:12Z</time>
      </trkpt>
      <trkpt lat="42.8862910" lon="-8.4497490">
        <ele>393.4</ele>
        <time>2021-03-03T13:14:13Z</time>
      </trkpt>
      <trkpt lat="42.8863190" lon="-8.4497700">
        <ele>393.2</ele>
        <time>2021-03-03T13:14:14Z</time>
      </trkpt>
      <trkpt lat="42.8863440" lon="-8.4497850">
        <ele>393.2</ele>
        <time>2021-03-03T13:14:15Z</time>
      </trkpt>
      <trkpt lat="42.8863730" lon="-8.4497980">
        <ele>393.0</ele>
        <time>2021-03-03T13:14:16Z</time>
      </trkpt>
      <trkpt lat="42.8863970" lon="-8.4498100">
        <ele>393.0</ele>
        <time>2021-03-03T13:14:17Z</time>
      </trkpt>
      <trkpt lat="42.8864270" lon="-8.4498240">
        <ele>393.0</ele>
        <time>2021-03-03T13:14:18Z</time>
      </trkpt>
      <trkpt lat="42.8864560" lon="-8.4498400">
        <ele>393.0</ele>
        <time>2021-03-03T13:14:19Z</time>
      </trkpt>
      <trkpt lat="42.8864900" lon="-8.4498570">
        <ele>393.2</ele>
        <time>2021-03-03T13:14:20Z</time>
      </trkpt>
      <trkpt lat="42.8865120" lon="-8.4498720">
        <ele>393.4</ele>
        <time>2021-03-03T13:14:21Z</time>
      </trkpt>
      <trkpt lat="42.8865430" lon="-8.4498850">
        <ele>393.4</ele>
        <time>2021-03-03T13:14:22Z</time>
      </trkpt>
      <trkpt lat="42.8865820" lon="-8.4499020">
        <ele>393.4</ele>
        <time>2021-03-03T13:14:23Z</time>
      </trkpt>
      <trkpt lat="42.8866160" lon="-8.4499100">
        <ele>393.4</ele>
        <time>2021-03-03T13:14:24Z</time>
      </trkpt>
      <trkpt lat="42.8866430" lon="-8.4499130">
        <ele>393.4</ele>
        <time>2021-03-03T13:14:25Z</time>
      </trkpt>
      <trkpt lat="42.8866780" lon="-8.4499120">
        <ele>393.2</ele>
        <time>2021-03-03T13:14:26Z</time>
      </trkpt>
      <trkpt lat="42.8867180" lon="-8.4498970">
        <ele>393.0</ele>
        <time>2021-03-03T13:14:27Z</time>
      </trkpt>
      <trkpt lat="42.8867480" lon="-8.4498750">
        <ele>392.6</ele>
        <time>2021-03-03T13:14:28Z</time>
      </trkpt>
      <trkpt lat="42.8867860" lon="-8.4498360">
        <ele>392.4</ele>
        <time>2021-03-03T13:14:29Z</time>
      </trkpt>
      <trkpt lat="42.8868090" lon="-8.4498030">
        <ele>392.0</ele>
        <time>2021-03-03T13:14:30Z</time>
      </trkpt>
      <trkpt lat="42.8868330" lon="-8.4497590">
        <ele>391.4</ele>
        <time>2021-03-03T13:14:31Z</time>
      </trkpt>
      <trkpt lat="42.8868620" lon="-8.4497080">
        <ele>390.6</ele>
        <time>2021-03-03T13:14:32Z</time>
      </trkpt>
      <trkpt lat="42.8868810" lon="-8.4496740">
        <ele>390.2</ele>
        <time>2021-03-03T13:14:33Z</time>
      </trkpt>
      <trkpt lat="42.8869130" lon="-8.4496400">
        <ele>389.4</ele>
        <time>2021-03-03T13:14:34Z</time>
      </trkpt>
      <trkpt lat="42.8869500" lon="-8.4496210">
        <ele>388.6</ele>
        <time>2021-03-03T13:14:35Z</time>
      </trkpt>
      <trkpt lat="42.8869920" lon="-8.4496160">
        <ele>387.8</ele>
        <time>2021-03-03T13:14:36Z</time>
      </trkpt>
      <trkpt lat="42.8870330" lon="-8.4496150">
        <ele>387.2</ele>
        <time>2021-03-03T13:14:37Z</time>
      </trkpt>
      <trkpt lat="42.8870670" lon="-8.4496250">
        <ele>386.8</ele>
        <time>2021-03-03T13:14:38Z</time>
      </trkpt>
      <trkpt lat="42.8870930" lon="-8.4496410">
        <ele>386.6</ele>
        <time>2021-03-03T13:14:39Z</time>
      </trkpt>
      <trkpt lat="42.8871210" lon="-8.4496670">
        <ele>386.4</ele>
        <time>2021-03-03T13:14:40Z</time>
      </trkpt>
      <trkpt lat="42.8871550" lon="-8.4496920">
        <ele>386.4</ele>
        <time>2021-03-03T13:14:41Z</time>
      </trkpt>
      <trkpt lat="42.8871840" lon="-8.4497020">
        <ele>386.4</ele>
        <time>2021-03-03T13:14:42Z</time>
      </trkpt>
      <trkpt lat="42.8872140" lon="-8.4497150">
        <ele>386.4</ele>
        <time>2021-03-03T13:14:43Z</time>
      </trkpt>
      <trkpt lat="42.8872380" lon="-8.4497270">
        <ele>386.0</ele>
        <time>2021-03-03T13:14:44Z</time>
      </trkpt>
      <trkpt lat="42.8872590" lon="-8.4497440">
        <ele>385.8</ele>
        <time>2021-03-03T13:14:45Z</time>
      </trkpt>
      <trkpt lat="42.8872770" lon="-8.4497630">
        <ele>385.4</ele>
        <time>2021-03-03T13:14:46Z</time>
      </trkpt>
      <trkpt lat="42.8872950" lon="-8.4497790">
        <ele>385.2</ele>
        <time>2021-03-03T13:14:47Z</time>
      </trkpt>
      <trkpt lat="42.8873150" lon="-8.4497920">
        <ele>385.0</ele>
        <time>2021-03-03T13:14:48Z</time>
      </trkpt>
      <trkpt lat="42.8873370" lon="-8.4498030">
        <ele>384.8</ele>
        <time>2021-03-03T13:14:49Z</time>
      </trkpt>
      <trkpt lat="42.8873590" lon="-8.4498150">
        <ele>384.6</ele>
        <time>2021-03-03T13:14:50Z</time>
      </trkpt>
      <trkpt lat="42.8873830" lon="-8.4498310">
        <ele>384.2</ele>
        <time>2021-03-03T13:14:51Z</time>
      </trkpt>
      <trkpt lat="42.8874080" lon="-8.4498530">
        <ele>384.0</ele>
        <time>2021-03-03T13:14:52Z</time>
      </trkpt>
      <trkpt lat="42.8874380" lon="-8.4498730">
        <ele>383.8</ele>
        <time>2021-03-03T13:14:53Z</time>
      </trkpt>
      <trkpt lat="42.8874650" lon="-8.4498970">
        <ele>383.4</ele>
        <time>2021-03-03T13:14:54Z</time>
      </trkpt>
      <trkpt lat="42.8874940" lon="-8.4499180">
        <ele>383.2</ele>
        <time>2021-03-03T13:14:55Z</time>
      </trkpt>
      <trkpt lat="42.8875220" lon="-8.4499370">
        <ele>383.2</ele>
        <time>2021-03-03T13:14:56Z</time>
      </trkpt>
      <trkpt lat="42.8875500" lon="-8.4499570">
        <ele>383.0</ele>
        <time>2021-03-03T13:14:57Z</time>
      </trkpt>
      <trkpt lat="42.8875800" lon="-8.4499840">
        <ele>383.0</ele>
        <time>2021-03-03T13:14:58Z</time>
      </trkpt>
      <trkpt lat="42.8876130" lon="-8.4500130">
        <ele>382.8</ele>
        <time>2021-03-03T13:14:59Z</time>
      </trkpt>
      <trkpt lat="42.8876480" lon="-8.4500340">
        <ele>382.8</ele>
        <time>2021-03-03T13:15:00Z</time>
      </trkpt>
      <trkpt lat="42.8876850" lon="-8.4500610">
        <ele>382.6</ele>
        <time>2021-03-03T13:15:01Z</time>
      </trkpt>
      <trkpt lat="42.8877180" lon="-8.4500870">
        <ele>382.4</ele>
        <time>2021-03-03T13:15:02Z</time>
      </trkpt>
      <trkpt lat="42.8877500" lon="-8.4501110">
        <ele>382.4</ele>
        <time>2021-03-03T13:15:03Z</time>
      </trkpt>
      <trkpt lat="42.8877790" lon="-8.4501350">
        <ele>382.2</ele>
        <time>2021-03-03T13:15:04Z</time>
      </trkpt>
      <trkpt lat="42.8878080" lon="-8.4501580">
        <ele>382.0</ele>
        <time>2021-03-03T13:15:05Z</time>
      </trkpt>
      <trkpt lat="42.8878420" lon="-8.4501780">
        <ele>381.8</ele>
        <time>2021-03-03T13:15:06Z</time>
      </trkpt>
      <trkpt lat="42.8878740" lon="-8.4501930">
        <ele>381.4</ele>
        <time>2021-03-03T13:15:07Z</time>
      </trkpt>
      <trkpt lat="42.8879030" lon="-8.4502070">
        <ele>381.2</ele>
        <time>2021-03-03T13:15:08Z</time>
      </trkpt>
      <trkpt lat="42.8879330" lon="-8.4502250">
        <ele>381.0</ele>
        <time>2021-03-03T13:15:09Z</time>
      </trkpt>
      <trkpt lat="42.8879640" lon="-8.4502490">
        <ele>381.0</ele>
        <time>2021-03-03T13:15:10Z</time>
      </trkpt>
      <trkpt lat="42.8879960" lon="-8.4502770">
        <ele>380.8</ele>
        <time>2021-03-03T13:15:11Z</time>
      </trkpt>
      <trkpt lat="42.8880270" lon="-8.4503070">
        <ele>380.8</ele>
        <time>2021-03-03T13:15:12Z</time>
      </trkpt>
      <trkpt lat="42.8880520" lon="-8.4503320">
        <ele>380.6</ele>
        <time>2021-03-03T13:15:13Z</time>
      </trkpt>
      <trkpt lat="42.8880780" lon="-8.4503550">
        <ele>380.6</ele>
        <time>2021-03-03T13:15:14Z</time>
      </trkpt>
      <trkpt lat="42.8881090" lon="-8.4503780">
        <ele>380.2</ele>
        <time>2021-03-03T13:15:15Z</time>
      </trkpt>
      <trkpt lat="42.8881410" lon="-8.4504020">
        <ele>380.0</ele>
        <time>2021-03-03T13:15:16Z</time>
      </trkpt>
      <trkpt lat="42.8881750" lon="-8.4504260">
        <ele>379.8</ele>
        <time>2021-03-03T13:15:17Z</time>
      </trkpt>
      <trkpt lat="42.8882090" lon="-8.4504470">
        <ele>379.6</ele>
        <time>2021-03-03T13:15:18Z</time>
      </trkpt>
      <trkpt lat="42.8882450" lon="-8.4504710">
        <ele>379.4</ele>
        <time>2021-03-03T13:15:19Z</time>
      </trkpt>
      <trkpt lat="42.8882820" lon="-8.4504970">
        <ele>379.2</ele>
        <time>2021-03-03T13:15:20Z</time>
      </trkpt>
      <trkpt lat="42.8883200" lon="-8.4505240">
        <ele>379.0</ele>
        <time>2021-03-03T13:15:21Z</time>
      </trkpt>
      <trkpt lat="42.8883570" lon="-8.4505540">
        <ele>378.8</ele>
        <time>2021-03-03T13:15:22Z</time>
      </trkpt>
      <trkpt lat="42.8883910" lon="-8.4505800">
        <ele>378.6</ele>
        <time>2021-03-03T13:15:23Z</time>
      </trkpt>
      <trkpt lat="42.8884300" lon="-8.4506070">
        <ele>378.4</ele>
        <time>2021-03-03T13:15:24Z</time>
      </trkpt>
      <trkpt lat="42.8884710" lon="-8.4506350">
        <ele>378.2</ele>
        <time>2021-03-03T13:15:25Z</time>
      </trkpt>
      <trkpt lat="42.8885050" lon="-8.4506580">
        <ele>377.6</ele>
        <time>2021-03-03T13:15:26Z</time>
      </trkpt>
      <trkpt lat="42.8885370" lon="-8.4506790">
        <ele>377.2</ele>
        <time>2021-03-03T13:15:27Z</time>
      </trkpt>
      <trkpt lat="42.8885670" lon="-8.4507040">
        <ele>377.2</ele>
        <time>2021-03-03T13:15:28Z</time>
      </trkpt>
      <trkpt lat="42.8886020" lon="-8.4507270">
        <ele>377.0</ele>
        <time>2021-03-03T13:15:29Z</time>
      </trkpt>
      <trkpt lat="42.8886320" lon="-8.4507530">
        <ele>377.0</ele>
        <time>2021-03-03T13:15:30Z</time>
      </trkpt>
      <trkpt lat="42.8886630" lon="-8.4507790">
        <ele>376.8</ele>
        <time>2021-03-03T13:15:31Z</time>
      </trkpt>
      <trkpt lat="42.8886950" lon="-8.4508010">
        <ele>376.8</ele>
        <time>2021-03-03T13:15:32Z</time>
      </trkpt>
      <trkpt lat="42.8887270" lon="-8.4508190">
        <ele>376.6</ele>
        <time>2021-03-03T13:15:33Z</time>
      </trkpt>
      <trkpt lat="42.8887610" lon="-8.4508390">
        <ele>376.6</ele>
        <time>2021-03-03T13:15:34Z</time>
      </trkpt>
      <trkpt lat="42.8887940" lon="-8.4508570">
        <ele>376.4</ele>
        <time>2021-03-03T13:15:35Z</time>
      </trkpt>
      <trkpt lat="42.8888260" lon="-8.4508790">
        <ele>376.2</ele>
        <time>2021-03-03T13:15:36Z</time>
      </trkpt>
      <trkpt lat="42.8888610" lon="-8.4509000">
        <ele>376.0</ele>
        <time>2021-03-03T13:15:37Z</time>
      </trkpt>
      <trkpt lat="42.8888980" lon="-8.4509190">
        <ele>375.8</ele>
        <time>2021-03-03T13:15:38Z</time>
      </trkpt>
      <trkpt lat="42.8889320" lon="-8.4509380">
        <ele>375.6</ele>
        <time>2021-03-03T13:15:39Z</time>
      </trkpt>
      <trkpt lat="42.8889670" lon="-8.4509560">
        <ele>375.6</ele>
        <time>2021-03-03T13:15:40Z</time>
      </trkpt>
      <trkpt lat="42.8890010" lon="-8.4509750">
        <ele>375.6</ele>
        <time>2021-03-03T13:15:41Z</time>
      </trkpt>
      <trkpt lat="42.8890360" lon="-8.4509930">
        <ele>375.2</ele>
        <time>2021-03-03T13:15:42Z</time>
      </trkpt>
      <trkpt lat="42.8890700" lon="-8.4510120">
        <ele>375.0</ele>
        <time>2021-03-03T13:15:43Z</time>
      </trkpt>
      <trkpt lat="42.8891020" lon="-8.4510320">
        <ele>375.0</ele>
        <time>2021-03-03T13:15:44Z</time>
      </trkpt>
      <trkpt lat="42.8891350" lon="-8.4510530">
        <ele>374.8</ele>
        <time>2021-03-03T13:15:45Z</time>
      </trkpt>
      <trkpt lat="42.8891660" lon="-8.4510730">
        <ele>374.8</ele>
        <time>2021-03-03T13:15:46Z</time>
      </trkpt>
      <trkpt lat="42.8891990" lon="-8.4510930">
        <ele>374.4</ele>
        <time>2021-03-03T13:15:47Z</time>
      </trkpt>
      <trkpt lat="42.8892320" lon="-8.4511110">
        <ele>374.2</ele>
        <time>2021-03-03T13:15:48Z</time>
      </trkpt>
      <trkpt lat="42.8892620" lon="-8.4511300">
        <ele>374.0</ele>
        <time>2021-03-03T13:15:49Z</time>
      </trkpt>
      <trkpt lat="42.8892890" lon="-8.4511530">
        <ele>374.0</ele>
        <time>2021-03-03T13:15:50Z</time>
      </trkpt>
      <trkpt lat="42.8893150" lon="-8.4511780">
        <ele>373.8</ele>
        <time>2021-03-03T13:15:51Z</time>
      </trkpt>
      <trkpt lat="42.8893420" lon="-8.4512050">
        <ele>373.6</ele>
        <time>2021-03-03T13:15:52Z</time>
      </trkpt>
      <trkpt lat="42.8893730" lon="-8.4512360">
        <ele>373.6</ele>
        <time>2021-03-03T13:15:53Z</time>
      </trkpt>
      <trkpt lat="42.8894020" lon="-8.4512650">
        <ele>373.2</ele>
        <time>2021-03-03T13:15:54Z</time>
      </trkpt>
      <trkpt lat="42.8894300" lon="-8.4512940">
        <ele>372.8</ele>
        <time>2021-03-03T13:15:55Z</time>
      </trkpt>
      <trkpt lat="42.8894590" lon="-8.4513270">
        <ele>372.6</ele>
        <time>2021-03-03T13:15:56Z</time>
      </trkpt>
      <trkpt lat="42.8894870" lon="-8.4513550">
        <ele>372.2</ele>
        <time>2021-03-03T13:15:57Z</time>
      </trkpt>
      <trkpt lat="42.8895170" lon="-8.4513790">
        <ele>372.0</ele>
        <time>2021-03-03T13:15:58Z</time>
      </trkpt>
      <trkpt lat="42.8895430" lon="-8.4513980">
        <ele>371.8</ele>
        <time>2021-03-03T13:15:59Z</time>
      </trkpt>
      <trkpt lat="42.8895760" lon="-8.4514340">
        <ele>371.6</ele>
        <time>2021-03-03T13:16:00Z</time>
      </trkpt>
      <trkpt lat="42.8896020" lon="-8.4514660">
        <ele>371.2</ele>
        <time>2021-03-03T13:16:01Z</time>
      </trkpt>
      <trkpt lat="42.8896280" lon="-8.4515030">
        <ele>371.0</ele>
        <time>2021-03-03T13:16:02Z</time>
      </trkpt>
      <trkpt lat="42.8896540" lon="-8.4515390">
        <ele>370.6</ele>
        <time>2021-03-03T13:16:03Z</time>
      </trkpt>
      <trkpt lat="42.8896810" lon="-8.4515650">
        <ele>370.4</ele>
        <time>2021-03-03T13:16:04Z</time>
      </trkpt>
      <trkpt lat="42.8897050" lon="-8.4515950">
        <ele>370.4</ele>
        <time>2021-03-03T13:16:05Z</time>
      </trkpt>
      <trkpt lat="42.8897310" lon="-8.4516300">
        <ele>370.2</ele>
        <time>2021-03-03T13:16:06Z</time>
      </trkpt>
      <trkpt lat="42.8897540" lon="-8.4516620">
        <ele>369.8</ele>
        <time>2021-03-03T13:16:07Z</time>
      </trkpt>
      <trkpt lat="42.8897800" lon="-8.4516920">
        <ele>369.8</ele>
        <time>2021-03-03T13:16:08Z</time>
      </trkpt>
      <trkpt lat="42.8898090" lon="-8.4517200">
        <ele>369.6</ele>
        <time>2021-03-03T13:16:09Z</time>
      </trkpt>
      <trkpt lat="42.8898360" lon="-8.4517480">
        <ele>369.6</ele>
        <time>2021-03-03T13:16:10Z</time>
      </trkpt>
      <trkpt lat="42.8898650" lon="-8.4517790">
        <ele>369.4</ele>
        <time>2021-03-03T13:16:11Z</time>
      </trkpt>
      <trkpt lat="42.8898920" lon="-8.4518060">
        <ele>369.2</ele>
        <time>2021-03-03T13:16:12Z</time>
      </trkpt>
      <trkpt lat="42.8899170" lon="-8.4518350">
        <ele>369.2</ele>
        <time>2021-03-03T13:16:13Z</time>
      </trkpt>
      <trkpt lat="42.8899430" lon="-8.4518670">
        <ele>369.0</ele>
        <time>2021-03-03T13:16:14Z</time>
      </trkpt>
      <trkpt lat="42.8899660" lon="-8.4519000">
        <ele>368.8</ele>
        <time>2021-03-03T13:16:15Z</time>
      </trkpt>
      <trkpt lat="42.8899920" lon="-8.4519300">
        <ele>368.6</ele>
        <time>2021-03-03T13:16:16Z</time>
      </trkpt>
      <trkpt lat="42.8900200" lon="-8.4519600">
        <ele>368.6</ele>
        <time>2021-03-03T13:16:17Z</time>
      </trkpt>
      <trkpt lat="42.8900500" lon="-8.4519870">
        <ele>368.4</ele>
        <time>2021-03-03T13:16:18Z</time>
      </trkpt>
      <trkpt lat="42.8900790" lon="-8.4520110">
        <ele>368.2</ele>
        <time>2021-03-03T13:16:19Z</time>
      </trkpt>
      <trkpt lat="42.8901070" lon="-8.4520410">
        <ele>368.2</ele>
        <time>2021-03-03T13:16:20Z</time>
      </trkpt>
      <trkpt lat="42.8901360" lon="-8.4520680">
        <ele>368.0</ele>
        <time>2021-03-03T13:16:21Z</time>
      </trkpt>
      <trkpt lat="42.8901650" lon="-8.4520920">
        <ele>368.0</ele>
        <time>2021-03-03T13:16:22Z</time>
      </trkpt>
      <trkpt lat="42.8901920" lon="-8.4521160">
        <ele>367.8</ele>
        <time>2021-03-03T13:16:23Z</time>
      </trkpt>
      <trkpt lat="42.8902230" lon="-8.4521370">
        <ele>367.8</ele>
        <time>2021-03-03T13:16:24Z</time>
      </trkpt>
      <trkpt lat="42.8902540" lon="-8.4521580">
        <ele>367.8</ele>
        <time>2021-03-03T13:16:25Z</time>
      </trkpt>
      <trkpt lat="42.8902840" lon="-8.4521760">
        <ele>367.4</ele>
        <time>2021-03-03T13:16:26Z</time>
      </trkpt>
      <trkpt lat="42.8903040" lon="-8.4521990">
        <ele>367.4</ele>
        <time>2021-03-03T13:16:27Z</time>
      </trkpt>
      <trkpt lat="42.8903240" lon="-8.4522250">
        <ele>367.4</ele>
        <time>2021-03-03T13:16:28Z</time>
      </trkpt>
      <trkpt lat="42.8903430" lon="-8.4522460">
        <ele>367.2</ele>
        <time>2021-03-03T13:16:29Z</time>
      </trkpt>
      <trkpt lat="42.8903680" lon="-8.4522660">
        <ele>367.2</ele>
        <time>2021-03-03T13:16:30Z</time>
      </trkpt>
      <trkpt lat="42.8903880" lon="-8.4522810">
        <ele>367.2</ele>
        <time>2021-03-03T13:16:31Z</time>
      </trkpt>
      <trkpt lat="42.8904030" lon="-8.4523010">
        <ele>367.2</ele>
        <time>2021-03-03T13:16:32Z</time>
      </trkpt>
      <trkpt lat="42.8904230" lon="-8.4523290">
        <ele>367.2</ele>
        <time>2021-03-03T13:16:33Z</time>
      </trkpt>
      <trkpt lat="42.8904430" lon="-8.4523530">
        <ele>367.2</ele>
        <time>2021-03-03T13:16:34Z</time>
      </trkpt>
      <trkpt lat="42.8904640" lon="-8.4523740">
        <ele>367.4</ele>
        <time>2021-03-03T13:16:35Z</time>
      </trkpt>
      <trkpt lat="42.8904830" lon="-8.4523940">
        <ele>367.6</ele>
        <time>2021-03-03T13:16:36Z</time>
      </trkpt>
      <trkpt lat="42.8904980" lon="-8.4524120">
        <ele>367.8</ele>
        <time>2021-03-03T13:16:37Z</time>
      </trkpt>
      <trkpt lat="42.8905100" lon="-8.4524320">
        <ele>368.0</ele>
        <time>2021-03-03T13:16:38Z</time>
      </trkpt>
      <trkpt lat="42.8905230" lon="-8.4524510">
        <ele>368.0</ele>
        <time>2021-03-03T13:16:39Z</time>
      </trkpt>
      <trkpt lat="42.8905350" lon="-8.4524680">
        <ele>368.2</ele>
        <time>2021-03-03T13:16:40Z</time>
      </trkpt>
      <trkpt lat="42.8905450" lon="-8.4524850">
        <ele>368.4</ele>
        <time>2021-03-03T13:16:41Z</time>
      </trkpt>
      <trkpt lat="42.8905560" lon="-8.4525060">
        <ele>368.6</ele>
        <time>2021-03-03T13:16:42Z</time>
      </trkpt>
      <trkpt lat="42.8905680" lon="-8.4525220">
        <ele>368.6</ele>
        <time>2021-03-03T13:16:43Z</time>
      </trkpt>
      <trkpt lat="42.8905770" lon="-8.4525360">
        <ele>368.8</ele>
        <time>2021-03-03T13:16:44Z</time>
      </trkpt>
      <trkpt lat="42.8905870" lon="-8.4525500">
        <ele>369.2</ele>
        <time>2021-03-03T13:16:45Z</time>
      </trkpt>
      <trkpt lat="42.8906000" lon="-8.4525680">
        <ele>369.4</ele>
        <time>2021-03-03T13:16:46Z</time>
      </trkpt>
      <trkpt lat="42.8906110" lon="-8.4525800">
        <ele>369.4</ele>
        <time>2021-03-03T13:16:47Z</time>
      </trkpt>
      <trkpt lat="42.8906200" lon="-8.4525930">
        <ele>369.6</ele>
        <time>2021-03-03T13:16:48Z</time>
      </trkpt>
      <trkpt lat="42.8906300" lon="-8.4526080">
        <ele>369.8</ele>
        <time>2021-03-03T13:16:49Z</time>
      </trkpt>
      <trkpt lat="42.8906380" lon="-8.4526280">
        <ele>370.0</ele>
        <time>2021-03-03T13:16:50Z</time>
      </trkpt>
      <trkpt lat="42.8906490" lon="-8.4526420">
        <ele>370.0</ele>
        <time>2021-03-03T13:16:51Z</time>
      </trkpt>
      <trkpt lat="42.8906610" lon="-8.4526550">
        <ele>370.0</ele>
        <time>2021-03-03T13:16:52Z</time>
      </trkpt>
      <trkpt lat="42.8906740" lon="-8.4526670">
        <ele>370.2</ele>
        <time>2021-03-03T13:16:53Z</time>
      </trkpt>
      <trkpt lat="42.8906870" lon="-8.4526800">
        <ele>370.4</ele>
        <time>2021-03-03T13:16:54Z</time>
      </trkpt>
      <trkpt lat="42.8906980" lon="-8.4526930">
        <ele>370.6</ele>
        <time>2021-03-03T13:16:55Z</time>
      </trkpt>
      <trkpt lat="42.8907080" lon="-8.4527060">
        <ele>370.6</ele>
        <time>2021-03-03T13:16:56Z</time>
      </trkpt>
      <trkpt lat="42.8907170" lon="-8.4527160">
        <ele>370.8</ele>
        <time>2021-03-03T13:16:57Z</time>
      </trkpt>
      <trkpt lat="42.8907300" lon="-8.4527280">
        <ele>371.0</ele>
        <time>2021-03-03T13:16:58Z</time>
      </trkpt>
      <trkpt lat="42.8907430" lon="-8.4527430">
        <ele>371.2</ele>
        <time>2021-03-03T13:16:59Z</time>
      </trkpt>
      <trkpt lat="42.8907560" lon="-8.4527580">
        <ele>371.4</ele>
        <time>2021-03-03T13:17:00Z</time>
      </trkpt>
      <trkpt lat="42.8907650" lon="-8.4527730">
        <ele>371.8</ele>
        <time>2021-03-03T13:17:01Z</time>
      </trkpt>
      <trkpt lat="42.8907750" lon="-8.4527840">
        <ele>372.0</ele>
        <time>2021-03-03T13:17:02Z</time>
      </trkpt>
      <trkpt lat="42.8907880" lon="-8.4527970">
        <ele>372.2</ele>
        <time>2021-03-03T13:17:03Z</time>
      </trkpt>
      <trkpt lat="42.8908010" lon="-8.4528090">
        <ele>372.4</ele>
        <time>2021-03-03T13:17:04Z</time>
      </trkpt>
      <trkpt lat="42.8908120" lon="-8.4528250">
        <ele>372.4</ele>
        <time>2021-03-03T13:17:05Z</time>
      </trkpt>
      <trkpt lat="42.8908220" lon="-8.4528400">
        <ele>372.8</ele>
        <time>2021-03-03T13:17:06Z</time>
      </trkpt>
      <trkpt lat="42.8908320" lon="-8.4528540">
        <ele>373.0</ele>
        <time>2021-03-03T13:17:07Z</time>
      </trkpt>
      <trkpt lat="42.8908410" lon="-8.4528660">
        <ele>373.2</ele>
        <time>2021-03-03T13:17:08Z</time>
      </trkpt>
      <trkpt lat="42.8908520" lon="-8.4528780">
        <ele>373.6</ele>
        <time>2021-03-03T13:17:09Z</time>
      </trkpt>
      <trkpt lat="42.8908630" lon="-8.4528910">
        <ele>373.8</ele>
        <time>2021-03-03T13:17:10Z</time>
      </trkpt>
      <trkpt lat="42.8908750" lon="-8.4529040">
        <ele>374.0</ele>
        <time>2021-03-03T13:17:11Z</time>
      </trkpt>
      <trkpt lat="42.8908870" lon="-8.4529180">
        <ele>374.2</ele>
        <time>2021-03-03T13:17:12Z</time>
      </trkpt>
      <trkpt lat="42.8909000" lon="-8.4529280">
        <ele>374.6</ele>
        <time>2021-03-03T13:17:13Z</time>
      </trkpt>
      <trkpt lat="42.8909130" lon="-8.4529400">
        <ele>374.8</ele>
        <time>2021-03-03T13:17:14Z</time>
      </trkpt>
      <trkpt lat="42.8909280" lon="-8.4529530">
        <ele>375.0</ele>
        <time>2021-03-03T13:17:15Z</time>
      </trkpt>
      <trkpt lat="42.8909410" lon="-8.4529620">
        <ele>375.2</ele>
        <time>2021-03-03T13:17:16Z</time>
      </trkpt>
      <trkpt lat="42.8909540" lon="-8.4529690">
        <ele>375.4</ele>
        <time>2021-03-03T13:17:17Z</time>
      </trkpt>
      <trkpt lat="42.8909680" lon="-8.4529750">
        <ele>375.6</ele>
        <time>2021-03-03T13:17:18Z</time>
      </trkpt>
      <trkpt lat="42.8909840" lon="-8.4529750">
        <ele>375.8</ele>
        <time>2021-03-03T13:17:19Z</time>
      </trkpt>
      <trkpt lat="42.8909970" lon="-8.4529690">
        <ele>376.0</ele>
        <time>2021-03-03T13:17:20Z</time>
      </trkpt>
      <trkpt lat="42.8910120" lon="-8.4529590">
        <ele>376.0</ele>
        <time>2021-03-03T13:17:21Z</time>
      </trkpt>
      <trkpt lat="42.8910260" lon="-8.4529440">
        <ele>376.2</ele>
        <time>2021-03-03T13:17:22Z</time>
      </trkpt>
      <trkpt lat="42.8910420" lon="-8.4529320">
        <ele>376.2</ele>
        <time>2021-03-03T13:17:23Z</time>
      </trkpt>
      <trkpt lat="42.8910590" lon="-8.4529140">
        <ele>376.2</ele>
        <time>2021-03-03T13:17:24Z</time>
      </trkpt>
      <trkpt lat="42.8910820" lon="-8.4528950">
        <ele>376.0</ele>
        <time>2021-03-03T13:17:25Z</time>
      </trkpt>
      <trkpt lat="42.8911090" lon="-8.4528760">
        <ele>375.8</ele>
        <time>2021-03-03T13:17:26Z</time>
      </trkpt>
      <trkpt lat="42.8911340" lon="-8.4528540">
        <ele>375.6</ele>
        <time>2021-03-03T13:17:27Z</time>
      </trkpt>
      <trkpt lat="42.8911610" lon="-8.4528320">
        <ele>375.4</ele>
        <time>2021-03-03T13:17:28Z</time>
      </trkpt>
      <trkpt lat="42.8911850" lon="-8.4528060">
        <ele>375.2</ele>
        <time>2021-03-03T13:17:29Z</time>
      </trkpt>
      <trkpt lat="42.8912050" lon="-8.4527820">
        <ele>375.0</ele>
        <time>2021-03-03T13:17:30Z</time>
      </trkpt>
      <trkpt lat="42.8912250" lon="-8.4527540">
        <ele>375.0</ele>
        <time>2021-03-03T13:17:31Z</time>
      </trkpt>
      <trkpt lat="42.8912420" lon="-8.4527250">
        <ele>374.6</ele>
        <time>2021-03-03T13:17:32Z</time>
      </trkpt>
      <trkpt lat="42.8912600" lon="-8.4526950">
        <ele>374.4</ele>
        <time>2021-03-03T13:17:33Z</time>
      </trkpt>
      <trkpt lat="42.8912800" lon="-8.4526620">
        <ele>374.2</ele>
        <time>2021-03-03T13:17:34Z</time>
      </trkpt>
      <trkpt lat="42.8912990" lon="-8.4526310">
        <ele>374.0</ele>
        <time>2021-03-03T13:17:35Z</time>
      </trkpt>
      <trkpt lat="42.8913200" lon="-8.4526000">
        <ele>373.8</ele>
        <time>2021-03-03T13:17:36Z</time>
      </trkpt>
      <trkpt lat="42.8913410" lon="-8.4525670">
        <ele>373.8</ele>
        <time>2021-03-03T13:17:37Z</time>
      </trkpt>
      <trkpt lat="42.8913580" lon="-8.4525300">
        <ele>373.6</ele>
        <time>2021-03-03T13:17:38Z</time>
      </trkpt>
      <trkpt lat="42.8913670" lon="-8.4524910">
        <ele>373.2</ele>
        <time>2021-03-03T13:17:39Z</time>
      </trkpt>
      <trkpt lat="42.8913730" lon="-8.4524490">
        <ele>372.8</ele>
        <time>2021-03-03T13:17:40Z</time>
      </trkpt>
      <trkpt lat="42.8913740" lon="-8.4524040">
        <ele>372.6</ele>
        <time>2021-03-03T13:17:41Z</time>
      </trkpt>
      <trkpt lat="42.8913720" lon="-8.4523530">
        <ele>372.2</ele>
        <time>2021-03-03T13:17:42Z</time>
      </trkpt>
      <trkpt lat="42.8913680" lon="-8.4523040">
        <ele>372.0</ele>
        <time>2021-03-03T13:17:43Z</time>
      </trkpt>
      <trkpt lat="42.8913660" lon="-8.4522590">
        <ele>371.8</ele>
        <time>2021-03-03T13:17:44Z</time>
      </trkpt>
      <trkpt lat="42.8913670" lon="-8.4522160">
        <ele>371.6</ele>
        <time>2021-03-03T13:17:45Z</time>
      </trkpt>
      <trkpt lat="42.8913720" lon="-8.4521720">
        <ele>371.2</ele>
        <time>2021-03-03T13:17:46Z</time>
      </trkpt>
      <trkpt lat="42.8913790" lon="-8.4521300">
        <ele>370.8</ele>
        <time>2021-03-03T13:17:47Z</time>
      </trkpt>
      <trkpt lat="42.8913900" lon="-8.4520920">
        <ele>370.4</ele>
        <time>2021-03-03T13:17:48Z</time>
      </trkpt>
      <trkpt lat="42.8914020" lon="-8.4520490">
        <ele>370.2</ele>
        <time>2021-03-03T13:17:49Z</time>
      </trkpt>
      <trkpt lat="42.8914080" lon="-8.4520050">
        <ele>370.0</ele>
        <time>2021-03-03T13:17:50Z</time>
      </trkpt>
      <trkpt lat="42.8914130" lon="-8.4519640">
        <ele>369.4</ele>
        <time>2021-03-03T13:17:51Z</time>
      </trkpt>
      <trkpt lat="42.8914170" lon="-8.4519230">
        <ele>369.2</ele>
        <time>2021-03-03T13:17:52Z</time>
      </trkpt>
      <trkpt lat="42.8914180" lon="-8.4518790">
        <ele>368.6</ele>
        <time>2021-03-03T13:17:53Z</time>
      </trkpt>
      <trkpt lat="42.8914190" lon="-8.4518340">
        <ele>368.2</ele>
        <time>2021-03-03T13:17:54Z</time>
      </trkpt>
      <trkpt lat="42.8914250" lon="-8.4517880">
        <ele>368.0</ele>
        <time>2021-03-03T13:17:55Z</time>
      </trkpt>
      <trkpt lat="42.8914200" lon="-8.4517430">
        <ele>367.4</ele>
        <time>2021-03-03T13:17:56Z</time>
      </trkpt>
      <trkpt lat="42.8914200" lon="-8.4516990">
        <ele>367.2</ele>
        <time>2021-03-03T13:17:57Z</time>
      </trkpt>
      <trkpt lat="42.8914200" lon="-8.4516540">
        <ele>366.8</ele>
        <time>2021-03-03T13:17:58Z</time>
      </trkpt>
      <trkpt lat="42.8914220" lon="-8.4516130">
        <ele>366.4</ele>
        <time>2021-03-03T13:17:59Z</time>
      </trkpt>
      <trkpt lat="42.8914220" lon="-8.4515710">
        <ele>366.0</ele>
        <time>2021-03-03T13:18:00Z</time>
      </trkpt>
      <trkpt lat="42.8914220" lon="-8.4515280">
        <ele>366.0</ele>
        <time>2021-03-03T13:18:01Z</time>
      </trkpt>
      <trkpt lat="42.8914240" lon="-8.4514910">
        <ele>365.8</ele>
        <time>2021-03-03T13:18:02Z</time>
      </trkpt>
      <trkpt lat="42.8914260" lon="-8.4514530">
        <ele>365.4</ele>
        <time>2021-03-03T13:18:03Z</time>
      </trkpt>
      <trkpt lat="42.8914250" lon="-8.4514160">
        <ele>365.2</ele>
        <time>2021-03-03T13:18:04Z</time>
      </trkpt>
      <trkpt lat="42.8914270" lon="-8.4513770">
        <ele>365.2</ele>
        <time>2021-03-03T13:18:05Z</time>
      </trkpt>
      <trkpt lat="42.8914280" lon="-8.4513400">
        <ele>365.0</ele>
        <time>2021-03-03T13:18:06Z</time>
      </trkpt>
      <trkpt lat="42.8914290" lon="-8.4513050">
        <ele>365.0</ele>
        <time>2021-03-03T13:18:07Z</time>
      </trkpt>
      <trkpt lat="42.8914320" lon="-8.4512730">
        <ele>364.8</ele>
        <time>2021-03-03T13:18:08Z</time>
      </trkpt>
      <trkpt lat="42.8914360" lon="-8.4512410">
        <ele>365.0</ele>
        <time>2021-03-03T13:18:09Z</time>
      </trkpt>
      <trkpt lat="42.8914410" lon="-8.4512090">
        <ele>365.2</ele>
        <time>2021-03-03T13:18:10Z</time>
      </trkpt>
      <trkpt lat="42.8914450" lon="-8.4511760">
        <ele>365.2</ele>
        <time>2021-03-03T13:18:11Z</time>
      </trkpt>
      <trkpt lat="42.8914470" lon="-8.4511440">
        <ele>365.2</ele>
        <time>2021-03-03T13:18:12Z</time>
      </trkpt>
      <trkpt lat="42.8914460" lon="-8.4511120">
        <ele>365.4</ele>
        <time>2021-03-03T13:18:13Z</time>
      </trkpt>
      <trkpt lat="42.8914400" lon="-8.4510830">
        <ele>365.6</ele>
        <time>2021-03-03T13:18:14Z</time>
      </trkpt>
      <trkpt lat="42.8914370" lon="-8.4510540">
        <ele>366.2</ele>
        <time>2021-03-03T13:18:15Z</time>
      </trkpt>
      <trkpt lat="42.8914350" lon="-8.4510230">
        <ele>366.6</ele>
        <time>2021-03-03T13:18:16Z</time>
      </trkpt>
      <trkpt lat="42.8914300" lon="-8.4509920">
        <ele>366.8</ele>
        <time>2021-03-03T13:18:17Z</time>
      </trkpt>
      <trkpt lat="42.8914260" lon="-8.4509610">
        <ele>367.0</ele>
        <time>2021-03-03T13:18:18Z</time>
      </trkpt>
      <trkpt lat="42.8914250" lon="-8.4509290">
        <ele>367.6</ele>
        <time>2021-03-03T13:18:19Z</time>
      </trkpt>
      <trkpt lat="42.8914250" lon="-8.4508940">
        <ele>367.8</ele>
        <time>2021-03-03T13:18:20Z</time>
      </trkpt>
      <trkpt lat="42.8914230" lon="-8.4508580">
        <ele>368.0</ele>
        <time>2021-03-03T13:18:21Z</time>
      </trkpt>
      <trkpt lat="42.8914190" lon="-8.4508200">
        <ele>368.0</ele>
        <time>2021-03-03T13:18:22Z</time>
      </trkpt>
      <trkpt lat="42.8914160" lon="-8.4507820">
        <ele>368.2</ele>
        <time>2021-03-03T13:18:23Z</time>
      </trkpt>
      <trkpt lat="42.8914110" lon="-8.4507430">
        <ele>368.4</ele>
        <time>2021-03-03T13:18:24Z</time>
      </trkpt>
      <trkpt lat="42.8914120" lon="-8.4507070">
        <ele>368.6</ele>
        <time>2021-03-03T13:18:25Z</time>
      </trkpt>
      <trkpt lat="42.8914140" lon="-8.4506710">
        <ele>368.8</ele>
        <time>2021-03-03T13:18:26Z</time>
      </trkpt>
      <trkpt lat="42.8914190" lon="-8.4506340">
        <ele>369.0</ele>
        <time>2021-03-03T13:18:27Z</time>
      </trkpt>
      <trkpt lat="42.8914230" lon="-8.4505980">
        <ele>369.0</ele>
        <time>2021-03-03T13:18:28Z</time>
      </trkpt>
      <trkpt lat="42.8914260" lon="-8.4505630">
        <ele>369.0</ele>
        <time>2021-03-03T13:18:29Z</time>
      </trkpt>
      <trkpt lat="42.8914310" lon="-8.4505240">
        <ele>369.2</ele>
        <time>2021-03-03T13:18:30Z</time>
      </trkpt>
      <trkpt lat="42.8914350" lon="-8.4504860">
        <ele>369.2</ele>
        <time>2021-03-03T13:18:31Z</time>
      </trkpt>
      <trkpt lat="42.8914440" lon="-8.4504480">
        <ele>369.2</ele>
        <time>2021-03-03T13:18:32Z</time>
      </trkpt>
      <trkpt lat="42.8914530" lon="-8.4504100">
        <ele>369.4</ele>
        <time>2021-03-03T13:18:33Z</time>
      </trkpt>
      <trkpt lat="42.8914600" lon="-8.4503700">
        <ele>369.2</ele>
        <time>2021-03-03T13:18:34Z</time>
      </trkpt>
      <trkpt lat="42.8914690" lon="-8.4503320">
        <ele>369.2</ele>
        <time>2021-03-03T13:18:35Z</time>
      </trkpt>
      <trkpt lat="42.8914790" lon="-8.4502980">
        <ele>369.2</ele>
        <time>2021-03-03T13:18:36Z</time>
      </trkpt>
      <trkpt lat="42.8914890" lon="-8.4502610">
        <ele>369.2</ele>
        <time>2021-03-03T13:18:37Z</time>
      </trkpt>
      <trkpt lat="42.8914960" lon="-8.4502230">
        <ele>369.2</ele>
        <time>2021-03-03T13:18:38Z</time>
      </trkpt>
      <trkpt lat="42.8915030" lon="-8.4501850">
        <ele>369.2</ele>
        <time>2021-03-03T13:18:39Z</time>
      </trkpt>
      <trkpt lat="42.8915120" lon="-8.4501470">
        <ele>369.2</ele>
        <time>2021-03-03T13:18:40Z</time>
      </trkpt>
      <trkpt lat="42.8915220" lon="-8.4501100">
        <ele>369.2</ele>
        <time>2021-03-03T13:18:41Z</time>
      </trkpt>
      <trkpt lat="42.8915280" lon="-8.4500720">
        <ele>369.2</ele>
        <time>2021-03-03T13:18:42Z</time>
      </trkpt>
      <trkpt lat="42.8915340" lon="-8.4500330">
        <ele>369.2</ele>
        <time>2021-03-03T13:18:43Z</time>
      </trkpt>
      <trkpt lat="42.8915400" lon="-8.4499900">
        <ele>369.0</ele>
        <time>2021-03-03T13:18:44Z</time>
      </trkpt>
      <trkpt lat="42.8915430" lon="-8.4499480">
        <ele>369.2</ele>
        <time>2021-03-03T13:18:45Z</time>
      </trkpt>
      <trkpt lat="42.8915480" lon="-8.4499090">
        <ele>369.2</ele>
        <time>2021-03-03T13:18:46Z</time>
      </trkpt>
      <trkpt lat="42.8915510" lon="-8.4498680">
        <ele>369.4</ele>
        <time>2021-03-03T13:18:47Z</time>
      </trkpt>
      <trkpt lat="42.8915550" lon="-8.4498370">
        <ele>369.4</ele>
        <time>2021-03-03T13:18:48Z</time>
      </trkpt>
      <trkpt lat="42.8915610" lon="-8.4497920">
        <ele>369.4</ele>
        <time>2021-03-03T13:18:49Z</time>
      </trkpt>
      <trkpt lat="42.8915660" lon="-8.4497570">
        <ele>369.4</ele>
        <time>2021-03-03T13:18:50Z</time>
      </trkpt>
      <trkpt lat="42.8915720" lon="-8.4497250">
        <ele>369.4</ele>
        <time>2021-03-03T13:18:51Z</time>
      </trkpt>
      <trkpt lat="42.8915790" lon="-8.4496990">
        <ele>369.6</ele>
        <time>2021-03-03T13:18:52Z</time>
      </trkpt>
      <trkpt lat="42.8915910" lon="-8.4496760">
        <ele>369.6</ele>
        <time>2021-03-03T13:18:53Z</time>
      </trkpt>
      <trkpt lat="42.8916050" lon="-8.4496600">
        <ele>369.6</ele>
        <time>2021-03-03T13:18:54Z</time>
      </trkpt>
      <trkpt lat="42.8916250" lon="-8.4496560">
        <ele>369.6</ele>
        <time>2021-03-03T13:18:55Z</time>
      </trkpt>
      <trkpt lat="42.8916470" lon="-8.4496650">
        <ele>369.6</ele>
        <time>2021-03-03T13:18:56Z</time>
      </trkpt>
      <trkpt lat="42.8916720" lon="-8.4496820">
        <ele>369.6</ele>
        <time>2021-03-03T13:18:57Z</time>
      </trkpt>
      <trkpt lat="42.8916970" lon="-8.4497000">
        <ele>369.2</ele>
        <time>2021-03-03T13:18:58Z</time>
      </trkpt>
      <trkpt lat="42.8917240" lon="-8.4497190">
        <ele>369.2</ele>
        <time>2021-03-03T13:18:59Z</time>
      </trkpt>
      <trkpt lat="42.8917520" lon="-8.4497370">
        <ele>369.0</ele>
        <time>2021-03-03T13:19:00Z</time>
      </trkpt>
      <trkpt lat="42.8917790" lon="-8.4497490">
        <ele>368.8</ele>
        <time>2021-03-03T13:19:01Z</time>
      </trkpt>
      <trkpt lat="42.8918070" lon="-8.4497590">
        <ele>368.8</ele>
        <time>2021-03-03T13:19:02Z</time>
      </trkpt>
      <trkpt lat="42.8918340" lon="-8.4497670">
        <ele>368.6</ele>
        <time>2021-03-03T13:19:03Z</time>
      </trkpt>
      <trkpt lat="42.8918620" lon="-8.4497770">
        <ele>368.6</ele>
        <time>2021-03-03T13:19:04Z</time>
      </trkpt>
      <trkpt lat="42.8918870" lon="-8.4497880">
        <ele>368.0</ele>
        <time>2021-03-03T13:19:05Z</time>
      </trkpt>
      <trkpt lat="42.8919110" lon="-8.4498000">
        <ele>367.8</ele>
        <time>2021-03-03T13:19:06Z</time>
      </trkpt>
      <trkpt lat="42.8919420" lon="-8.4498130">
        <ele>367.6</ele>
        <time>2021-03-03T13:19:07Z</time>
      </trkpt>
      <trkpt lat="42.8919740" lon="-8.4498230">
        <ele>366.8</ele>
        <time>2021-03-03T13:19:08Z</time>
      </trkpt>
      <trkpt lat="42.8920030" lon="-8.4498290">
        <ele>366.4</ele>
        <time>2021-03-03T13:19:09Z</time>
      </trkpt>
      <trkpt lat="42.8920330" lon="-8.4498320">
        <ele>366.2</ele>
        <time>2021-03-03T13:19:10Z</time>
      </trkpt>
      <trkpt lat="42.8920620" lon="-8.4498300">
        <ele>365.8</ele>
        <time>2021-03-03T13:19:11Z</time>
      </trkpt>
      <trkpt lat="42.8920940" lon="-8.4498230">
        <ele>365.4</ele>
        <time>2021-03-03T13:19:12Z</time>
      </trkpt>
      <trkpt lat="42.8921260" lon="-8.4498120">
        <ele>365.2</ele>
        <time>2021-03-03T13:19:13Z</time>
      </trkpt>
      <trkpt lat="42.8921580" lon="-8.4497940">
        <ele>364.8</ele>
        <time>2021-03-03T13:19:14Z</time>
      </trkpt>
      <trkpt lat="42.8921810" lon="-8.4497690">
        <ele>364.6</ele>
        <time>2021-03-03T13:19:15Z</time>
      </trkpt>
      <trkpt lat="42.8922040" lon="-8.4497430">
        <ele>364.4</ele>
        <time>2021-03-03T13:19:16Z</time>
      </trkpt>
      <trkpt lat="42.8922240" lon="-8.4497120">
        <ele>364.4</ele>
        <time>2021-03-03T13:19:17Z</time>
      </trkpt>
      <trkpt lat="42.8922410" lon="-8.4496810">
        <ele>364.4</ele>
        <time>2021-03-03T13:19:18Z</time>
      </trkpt>
      <trkpt lat="42.8922540" lon="-8.4496470">
        <ele>364.6</ele>
        <time>2021-03-03T13:19:19Z</time>
      </trkpt>
      <trkpt lat="42.8922690" lon="-8.4496170">
        <ele>364.6</ele>
        <time>2021-03-03T13:19:20Z</time>
      </trkpt>
      <trkpt lat="42.8922850" lon="-8.4495890">
        <ele>364.6</ele>
        <time>2021-03-03T13:19:21Z</time>
      </trkpt>
      <trkpt lat="42.8922990" lon="-8.4495590">
        <ele>364.6</ele>
        <time>2021-03-03T13:19:22Z</time>
      </trkpt>
      <trkpt lat="42.8923110" lon="-8.4495280">
        <ele>364.6</ele>
        <time>2021-03-03T13:19:23Z</time>
      </trkpt>
      <trkpt lat="42.8923250" lon="-8.4494950">
        <ele>364.8</ele>
        <time>2021-03-03T13:19:24Z</time>
      </trkpt>
      <trkpt lat="42.8923400" lon="-8.4494700">
        <ele>364.8</ele>
        <time>2021-03-03T13:19:25Z</time>
      </trkpt>
      <trkpt lat="42.8923630" lon="-8.4494500">
        <ele>364.8</ele>
        <time>2021-03-03T13:19:26Z</time>
      </trkpt>
      <trkpt lat="42.8923850" lon="-8.4494280">
        <ele>364.8</ele>
        <time>2021-03-03T13:19:27Z</time>
      </trkpt>
      <trkpt lat="42.8924050" lon="-8.4494050">
        <ele>365.0</ele>
        <time>2021-03-03T13:19:28Z</time>
      </trkpt>
      <trkpt lat="42.8924270" lon="-8.4493820">
        <ele>365.2</ele>
        <time>2021-03-03T13:19:29Z</time>
      </trkpt>
      <trkpt lat="42.8924460" lon="-8.4493560">
        <ele>365.2</ele>
        <time>2021-03-03T13:19:30Z</time>
      </trkpt>
      <trkpt lat="42.8924650" lon="-8.4493290">
        <ele>365.2</ele>
        <time>2021-03-03T13:19:31Z</time>
      </trkpt>
      <trkpt lat="42.8924830" lon="-8.4493020">
        <ele>365.2</ele>
        <time>2021-03-03T13:19:32Z</time>
      </trkpt>
      <trkpt lat="42.8925000" lon="-8.4492740">
        <ele>365.2</ele>
        <time>2021-03-03T13:19:33Z</time>
      </trkpt>
      <trkpt lat="42.8925150" lon="-8.4492490">
        <ele>365.2</ele>
        <time>2021-03-03T13:19:34Z</time>
      </trkpt>
      <trkpt lat="42.8925320" lon="-8.4492110">
        <ele>365.2</ele>
        <time>2021-03-03T13:19:35Z</time>
      </trkpt>
      <trkpt lat="42.8925450" lon="-8.4491720">
        <ele>365.2</ele>
        <time>2021-03-03T13:19:36Z</time>
      </trkpt>
      <trkpt lat="42.8925600" lon="-8.4491390">
        <ele>365.2</ele>
        <time>2021-03-03T13:19:37Z</time>
      </trkpt>
      <trkpt lat="42.8925770" lon="-8.4491110">
        <ele>365.2</ele>
        <time>2021-03-03T13:19:38Z</time>
      </trkpt>
      <trkpt lat="42.8925940" lon="-8.4490820">
        <ele>365.2</ele>
        <time>2021-03-03T13:19:39Z</time>
      </trkpt>
      <trkpt lat="42.8926160" lon="-8.4490490">
        <ele>365.2</ele>
        <time>2021-03-03T13:19:40Z</time>
      </trkpt>
      <trkpt lat="42.8926370" lon="-8.4490240">
        <ele>365.2</ele>
        <time>2021-03-03T13:19:41Z</time>
      </trkpt>
      <trkpt lat="42.8926560" lon="-8.4490070">
        <ele>365.2</ele>
        <time>2021-03-03T13:19:42Z</time>
      </trkpt>
      <trkpt lat="42.8926720" lon="-8.4489870">
        <ele>365.2</ele>
        <time>2021-03-03T13:19:43Z</time>
      </trkpt>
      <trkpt lat="42.8926880" lon="-8.4489710">
        <ele>365.2</ele>
        <time>2021-03-03T13:19:44Z</time>
      </trkpt>
      <trkpt lat="42.8927040" lon="-8.4489560">
        <ele>365.4</ele>
        <time>2021-03-03T13:19:45Z</time>
      </trkpt>
      <trkpt lat="42.8927180" lon="-8.4489420">
        <ele>365.4</ele>
        <time>2021-03-03T13:19:46Z</time>
      </trkpt>
      <trkpt lat="42.8927320" lon="-8.4489300">
        <ele>365.4</ele>
        <time>2021-03-03T13:19:47Z</time>
      </trkpt>
      <trkpt lat="42.8927460" lon="-8.4489170">
        <ele>365.4</ele>
        <time>2021-03-03T13:19:48Z</time>
      </trkpt>
      <trkpt lat="42.8927580" lon="-8.4489050">
        <ele>365.4</ele>
        <time>2021-03-03T13:19:49Z</time>
      </trkpt>
      <trkpt lat="42.8927690" lon="-8.4488920">
        <ele>365.2</ele>
        <time>2021-03-03T13:19:50Z</time>
      </trkpt>
      <trkpt lat="42.8927800" lon="-8.4488780">
        <ele>365.2</ele>
        <time>2021-03-03T13:19:51Z</time>
      </trkpt>
      <trkpt lat="42.8927920" lon="-8.4488640">
        <ele>365.2</ele>
        <time>2021-03-03T13:19:52Z</time>
      </trkpt>
      <trkpt lat="42.8928030" lon="-8.4488510">
        <ele>365.2</ele>
        <time>2021-03-03T13:19:53Z</time>
      </trkpt>
      <trkpt lat="42.8928160" lon="-8.4488360">
        <ele>365.0</ele>
        <time>2021-03-03T13:19:54Z</time>
      </trkpt>
      <trkpt lat="42.8928280" lon="-8.4488210">
        <ele>365.0</ele>
        <time>2021-03-03T13:19:55Z</time>
      </trkpt>
      <trkpt lat="42.8928400" lon="-8.4488090">
        <ele>365.0</ele>
        <time>2021-03-03T13:19:56Z</time>
      </trkpt>
      <trkpt lat="42.8928580" lon="-8.4487950">
        <ele>365.0</ele>
        <time>2021-03-03T13:19:57Z</time>
      </trkpt>
      <trkpt lat="42.8928780" lon="-8.4487800">
        <ele>365.0</ele>
        <time>2021-03-03T13:19:58Z</time>
      </trkpt>
      <trkpt lat="42.8928970" lon="-8.4487580">
        <ele>365.0</ele>
        <time>2021-03-03T13:19:59Z</time>
      </trkpt>
      <trkpt lat="42.8929160" lon="-8.4487350">
        <ele>365.0</ele>
        <time>2021-03-03T13:20:00Z</time>
      </trkpt>
      <trkpt lat="42.8929360" lon="-8.4487110">
        <ele>365.0</ele>
        <time>2021-03-03T13:20:01Z</time>
      </trkpt>
      <trkpt lat="42.8929530" lon="-8.4486840">
        <ele>365.0</ele>
        <time>2021-03-03T13:20:02Z</time>
      </trkpt>
      <trkpt lat="42.8929750" lon="-8.4486590">
        <ele>364.8</ele>
        <time>2021-03-03T13:20:03Z</time>
      </trkpt>
      <trkpt lat="42.8929940" lon="-8.4486320">
        <ele>364.8</ele>
        <time>2021-03-03T13:20:04Z</time>
      </trkpt>
      <trkpt lat="42.8930160" lon="-8.4486040">
        <ele>364.8</ele>
        <time>2021-03-03T13:20:05Z</time>
      </trkpt>
      <trkpt lat="42.8930340" lon="-8.4485760">
        <ele>364.8</ele>
        <time>2021-03-03T13:20:06Z</time>
      </trkpt>
      <trkpt lat="42.8930530" lon="-8.4485480">
        <ele>364.8</ele>
        <time>2021-03-03T13:20:07Z</time>
      </trkpt>
      <trkpt lat="42.8930740" lon="-8.4485210">
        <ele>365.0</ele>
        <time>2021-03-03T13:20:08Z</time>
      </trkpt>
      <trkpt lat="42.8930930" lon="-8.4484960">
        <ele>365.0</ele>
        <time>2021-03-03T13:20:09Z</time>
      </trkpt>
      <trkpt lat="42.8931130" lon="-8.4484710">
        <ele>365.2</ele>
        <time>2021-03-03T13:20:10Z</time>
      </trkpt>
      <trkpt lat="42.8931340" lon="-8.4484470">
        <ele>365.2</ele>
        <time>2021-03-03T13:20:11Z</time>
      </trkpt>
      <trkpt lat="42.8931580" lon="-8.4484240">
        <ele>365.2</ele>
        <time>2021-03-03T13:20:12Z</time>
      </trkpt>
      <trkpt lat="42.8931840" lon="-8.4483980">
        <ele>365.2</ele>
        <time>2021-03-03T13:20:13Z</time>
      </trkpt>
      <trkpt lat="42.8932110" lon="-8.4483710">
        <ele>365.2</ele>
        <time>2021-03-03T13:20:14Z</time>
      </trkpt>
      <trkpt lat="42.8932370" lon="-8.4483480">
        <ele>365.0</ele>
        <time>2021-03-03T13:20:15Z</time>
      </trkpt>
      <trkpt lat="42.8932630" lon="-8.4483230">
        <ele>364.8</ele>
        <time>2021-03-03T13:20:16Z</time>
      </trkpt>
      <trkpt lat="42.8932850" lon="-8.4482960">
        <ele>365.0</ele>
        <time>2021-03-03T13:20:17Z</time>
      </trkpt>
      <trkpt lat="42.8933070" lon="-8.4482690">
        <ele>364.8</ele>
        <time>2021-03-03T13:20:18Z</time>
      </trkpt>
      <trkpt lat="42.8933300" lon="-8.4482410">
        <ele>364.8</ele>
        <time>2021-03-03T13:20:19Z</time>
      </trkpt>
      <trkpt lat="42.8933540" lon="-8.4482140">
        <ele>364.8</ele>
        <time>2021-03-03T13:20:20Z</time>
      </trkpt>
      <trkpt lat="42.8933730" lon="-8.4481900">
        <ele>364.8</ele>
        <time>2021-03-03T13:20:21Z</time>
      </trkpt>
      <trkpt lat="42.8933990" lon="-8.4481660">
        <ele>364.8</ele>
        <time>2021-03-03T13:20:22Z</time>
      </trkpt>
      <trkpt lat="42.8934240" lon="-8.4481430">
        <ele>364.8</ele>
        <time>2021-03-03T13:20:23Z</time>
      </trkpt>
      <trkpt lat="42.8934500" lon="-8.4481200">
        <ele>364.8</ele>
        <time>2021-03-03T13:20:24Z</time>
      </trkpt>
      <trkpt lat="42.8934780" lon="-8.4480980">
        <ele>364.8</ele>
        <time>2021-03-03T13:20:25Z</time>
      </trkpt>
      <trkpt lat="42.8935030" lon="-8.4480780">
        <ele>364.6</ele>
        <time>2021-03-03T13:20:26Z</time>
      </trkpt>
      <trkpt lat="42.8935260" lon="-8.4480590">
        <ele>364.6</ele>
        <time>2021-03-03T13:20:27Z</time>
      </trkpt>
      <trkpt lat="42.8935530" lon="-8.4480390">
        <ele>364.2</ele>
        <time>2021-03-03T13:20:28Z</time>
      </trkpt>
      <trkpt lat="42.8935830" lon="-8.4480230">
        <ele>364.0</ele>
        <time>2021-03-03T13:20:29Z</time>
      </trkpt>
      <trkpt lat="42.8936140" lon="-8.4480070">
        <ele>363.8</ele>
        <time>2021-03-03T13:20:30Z</time>
      </trkpt>
      <trkpt lat="42.8936430" lon="-8.4479930">
        <ele>363.6</ele>
        <time>2021-03-03T13:20:31Z</time>
      </trkpt>
      <trkpt lat="42.8936730" lon="-8.4479790">
        <ele>363.4</ele>
        <time>2021-03-03T13:20:32Z</time>
      </trkpt>
      <trkpt lat="42.8937000" lon="-8.4479670">
        <ele>363.2</ele>
        <time>2021-03-03T13:20:33Z</time>
      </trkpt>
      <trkpt lat="42.8937260" lon="-8.4479520">
        <ele>362.8</ele>
        <time>2021-03-03T13:20:34Z</time>
      </trkpt>
      <trkpt lat="42.8937530" lon="-8.4479360">
        <ele>362.4</ele>
        <time>2021-03-03T13:20:35Z</time>
      </trkpt>
      <trkpt lat="42.8937770" lon="-8.4479240">
        <ele>362.2</ele>
        <time>2021-03-03T13:20:36Z</time>
      </trkpt>
      <trkpt lat="42.8938070" lon="-8.4479090">
        <ele>362.0</ele>
        <time>2021-03-03T13:20:37Z</time>
      </trkpt>
      <trkpt lat="42.8938340" lon="-8.4478980">
        <ele>361.4</ele>
        <time>2021-03-03T13:20:38Z</time>
      </trkpt>
      <trkpt lat="42.8938600" lon="-8.4478820">
        <ele>361.0</ele>
        <time>2021-03-03T13:20:39Z</time>
      </trkpt>
      <trkpt lat="42.8938880" lon="-8.4478690">
        <ele>360.8</ele>
        <time>2021-03-03T13:20:40Z</time>
      </trkpt>
      <trkpt lat="42.8939130" lon="-8.4478530">
        <ele>360.2</ele>
        <time>2021-03-03T13:20:41Z</time>
      </trkpt>
      <trkpt lat="42.8939420" lon="-8.4478360">
        <ele>360.0</ele>
        <time>2021-03-03T13:20:42Z</time>
      </trkpt>
      <trkpt lat="42.8939690" lon="-8.4478170">
        <ele>359.4</ele>
        <time>2021-03-03T13:20:43Z</time>
      </trkpt>
      <trkpt lat="42.8939960" lon="-8.4477940">
        <ele>359.0</ele>
        <time>2021-03-03T13:20:44Z</time>
      </trkpt>
      <trkpt lat="42.8940230" lon="-8.4477670">
        <ele>358.6</ele>
        <time>2021-03-03T13:20:45Z</time>
      </trkpt>
      <trkpt lat="42.8940490" lon="-8.4477400">
        <ele>358.4</ele>
        <time>2021-03-03T13:20:46Z</time>
      </trkpt>
      <trkpt lat="42.8940780" lon="-8.4477090">
        <ele>358.0</ele>
        <time>2021-03-03T13:20:47Z</time>
      </trkpt>
      <trkpt lat="42.8941060" lon="-8.4476740">
        <ele>357.6</ele>
        <time>2021-03-03T13:20:48Z</time>
      </trkpt>
      <trkpt lat="42.8941330" lon="-8.4476370">
        <ele>357.0</ele>
        <time>2021-03-03T13:20:49Z</time>
      </trkpt>
      <trkpt lat="42.8941560" lon="-8.4475980">
        <ele>356.6</ele>
        <time>2021-03-03T13:20:50Z</time>
      </trkpt>
      <trkpt lat="42.8941760" lon="-8.4475560">
        <ele>355.8</ele>
        <time>2021-03-03T13:20:51Z</time>
      </trkpt>
      <trkpt lat="42.8941950" lon="-8.4475170">
        <ele>355.2</ele>
        <time>2021-03-03T13:20:52Z</time>
      </trkpt>
      <trkpt lat="42.8942120" lon="-8.4474780">
        <ele>354.8</ele>
        <time>2021-03-03T13:20:53Z</time>
      </trkpt>
      <trkpt lat="42.8942230" lon="-8.4474400">
        <ele>354.4</ele>
        <time>2021-03-03T13:20:54Z</time>
      </trkpt>
      <trkpt lat="42.8942350" lon="-8.4474020">
        <ele>354.0</ele>
        <time>2021-03-03T13:20:55Z</time>
      </trkpt>
      <trkpt lat="42.8942470" lon="-8.4473680">
        <ele>353.6</ele>
        <time>2021-03-03T13:20:56Z</time>
      </trkpt>
      <trkpt lat="42.8942630" lon="-8.4473340">
        <ele>353.2</ele>
        <time>2021-03-03T13:20:57Z</time>
      </trkpt>
      <trkpt lat="42.8942870" lon="-8.4473070">
        <ele>352.2</ele>
        <time>2021-03-03T13:20:58Z</time>
      </trkpt>
      <trkpt lat="42.8943180" lon="-8.4472830">
        <ele>351.8</ele>
        <time>2021-03-03T13:20:59Z</time>
      </trkpt>
      <trkpt lat="42.8943610" lon="-8.4472660">
        <ele>351.4</ele>
        <time>2021-03-03T13:21:00Z</time>
      </trkpt>
      <trkpt lat="42.8944020" lon="-8.4472540">
        <ele>350.8</ele>
        <time>2021-03-03T13:21:01Z</time>
      </trkpt>
      <trkpt lat="42.8944470" lon="-8.4472380">
        <ele>350.2</ele>
        <time>2021-03-03T13:21:02Z</time>
      </trkpt>
      <trkpt lat="42.8944900" lon="-8.4472210">
        <ele>349.8</ele>
        <time>2021-03-03T13:21:03Z</time>
      </trkpt>
      <trkpt lat="42.8945280" lon="-8.4472110">
        <ele>349.8</ele>
        <time>2021-03-03T13:21:04Z</time>
      </trkpt>
      <trkpt lat="42.8945630" lon="-8.4472010">
        <ele>349.6</ele>
        <time>2021-03-03T13:21:05Z</time>
      </trkpt>
      <trkpt lat="42.8945920" lon="-8.4471960">
        <ele>349.4</ele>
        <time>2021-03-03T13:21:06Z</time>
      </trkpt>
      <trkpt lat="42.8946240" lon="-8.4471960">
        <ele>349.0</ele>
        <time>2021-03-03T13:21:07Z</time>
      </trkpt>
      <trkpt lat="42.8946590" lon="-8.4472030">
        <ele>348.8</ele>
        <time>2021-03-03T13:21:08Z</time>
      </trkpt>
      <trkpt lat="42.8946900" lon="-8.4472170">
        <ele>348.6</ele>
        <time>2021-03-03T13:21:09Z</time>
      </trkpt>
      <trkpt lat="42.8947200" lon="-8.4472420">
        <ele>348.6</ele>
        <time>2021-03-03T13:21:10Z</time>
      </trkpt>
      <trkpt lat="42.8947470" lon="-8.4472640">
        <ele>348.4</ele>
        <time>2021-03-03T13:21:11Z</time>
      </trkpt>
      <trkpt lat="42.8947740" lon="-8.4472910">
        <ele>348.4</ele>
        <time>2021-03-03T13:21:12Z</time>
      </trkpt>
      <trkpt lat="42.8947990" lon="-8.4473210">
        <ele>348.4</ele>
        <time>2021-03-03T13:21:13Z</time>
      </trkpt>
      <trkpt lat="42.8948230" lon="-8.4473550">
        <ele>348.4</ele>
        <time>2021-03-03T13:21:14Z</time>
      </trkpt>
      <trkpt lat="42.8948430" lon="-8.4473930">
        <ele>348.4</ele>
        <time>2021-03-03T13:21:15Z</time>
      </trkpt>
      <trkpt lat="42.8948560" lon="-8.4474310">
        <ele>348.2</ele>
        <time>2021-03-03T13:21:16Z</time>
      </trkpt>
      <trkpt lat="42.8948760" lon="-8.4474650">
        <ele>347.4</ele>
        <time>2021-03-03T13:21:17Z</time>
      </trkpt>
      <trkpt lat="42.8948950" lon="-8.4475010">
        <ele>347.0</ele>
        <time>2021-03-03T13:21:18Z</time>
      </trkpt>
      <trkpt lat="42.8949160" lon="-8.4475370">
        <ele>346.6</ele>
        <time>2021-03-03T13:21:19Z</time>
      </trkpt>
      <trkpt lat="42.8949360" lon="-8.4475750">
        <ele>345.8</ele>
        <time>2021-03-03T13:21:20Z</time>
      </trkpt>
      <trkpt lat="42.8949490" lon="-8.4476060">
        <ele>345.2</ele>
        <time>2021-03-03T13:21:21Z</time>
      </trkpt>
      <trkpt lat="42.8949670" lon="-8.4476470">
        <ele>344.8</ele>
        <time>2021-03-03T13:21:22Z</time>
      </trkpt>
      <trkpt lat="42.8949870" lon="-8.4476950">
        <ele>344.4</ele>
        <time>2021-03-03T13:21:23Z</time>
      </trkpt>
      <trkpt lat="42.8950080" lon="-8.4477330">
        <ele>344.0</ele>
        <time>2021-03-03T13:21:24Z</time>
      </trkpt>
      <trkpt lat="42.8950320" lon="-8.4477680">
        <ele>343.4</ele>
        <time>2021-03-03T13:21:25Z</time>
      </trkpt>
      <trkpt lat="42.8950590" lon="-8.4477970">
        <ele>342.8</ele>
        <time>2021-03-03T13:21:26Z</time>
      </trkpt>
      <trkpt lat="42.8950850" lon="-8.4478250">
        <ele>342.4</ele>
        <time>2021-03-03T13:21:27Z</time>
      </trkpt>
      <trkpt lat="42.8951110" lon="-8.4478450">
        <ele>341.8</ele>
        <time>2021-03-03T13:21:28Z</time>
      </trkpt>
      <trkpt lat="42.8951430" lon="-8.4478570">
        <ele>341.4</ele>
        <time>2021-03-03T13:21:29Z</time>
      </trkpt>
      <trkpt lat="42.8951770" lon="-8.4478660">
        <ele>341.2</ele>
        <time>2021-03-03T13:21:30Z</time>
      </trkpt>
      <trkpt lat="42.8952140" lon="-8.4478690">
        <ele>340.8</ele>
        <time>2021-03-03T13:21:31Z</time>
      </trkpt>
      <trkpt lat="42.8952470" lon="-8.4478680">
        <ele>340.6</ele>
        <time>2021-03-03T13:21:32Z</time>
      </trkpt>
      <trkpt lat="42.8952790" lon="-8.4478650">
        <ele>340.4</ele>
        <time>2021-03-03T13:21:33Z</time>
      </trkpt>
      <trkpt lat="42.8953090" lon="-8.4478660">
        <ele>340.2</ele>
        <time>2021-03-03T13:21:34Z</time>
      </trkpt>
      <trkpt lat="42.8953360" lon="-8.4478640">
        <ele>339.8</ele>
        <time>2021-03-03T13:21:35Z</time>
      </trkpt>
      <trkpt lat="42.8953600" lon="-8.4478670">
        <ele>339.6</ele>
        <time>2021-03-03T13:21:36Z</time>
      </trkpt>
      <trkpt lat="42.8953880" lon="-8.4478730">
        <ele>339.6</ele>
        <time>2021-03-03T13:21:37Z</time>
      </trkpt>
      <trkpt lat="42.8954120" lon="-8.4478770">
        <ele>339.6</ele>
        <time>2021-03-03T13:21:38Z</time>
      </trkpt>
      <trkpt lat="42.8954390" lon="-8.4478770">
        <ele>339.6</ele>
        <time>2021-03-03T13:21:39Z</time>
      </trkpt>
      <trkpt lat="42.8954670" lon="-8.4478750">
        <ele>339.4</ele>
        <time>2021-03-03T13:21:40Z</time>
      </trkpt>
      <trkpt lat="42.8954980" lon="-8.4478690">
        <ele>339.4</ele>
        <time>2021-03-03T13:21:41Z</time>
      </trkpt>
      <trkpt lat="42.8955240" lon="-8.4478480">
        <ele>339.4</ele>
        <time>2021-03-03T13:21:42Z</time>
      </trkpt>
      <trkpt lat="42.8955430" lon="-8.4478390">
        <ele>339.2</ele>
        <time>2021-03-03T13:21:43Z</time>
      </trkpt>
      <trkpt lat="42.8955740" lon="-8.4478390">
        <ele>339.0</ele>
        <time>2021-03-03T13:21:44Z</time>
      </trkpt>
      <trkpt lat="42.8955970" lon="-8.4478340">
        <ele>338.8</ele>
        <time>2021-03-03T13:21:45Z</time>
      </trkpt>
      <trkpt lat="42.8956180" lon="-8.4478200">
        <ele>338.8</ele>
        <time>2021-03-03T13:21:46Z</time>
      </trkpt>
      <trkpt lat="42.8956400" lon="-8.4477980">
        <ele>338.8</ele>
        <time>2021-03-03T13:21:47Z</time>
      </trkpt>
      <trkpt lat="42.8956660" lon="-8.4477800">
        <ele>338.6</ele>
        <time>2021-03-03T13:21:48Z</time>
      </trkpt>
      <trkpt lat="42.8956920" lon="-8.4477660">
        <ele>338.4</ele>
        <time>2021-03-03T13:21:49Z</time>
      </trkpt>
      <trkpt lat="42.8957170" lon="-8.4477430">
        <ele>338.4</ele>
        <time>2021-03-03T13:21:50Z</time>
      </trkpt>
      <trkpt lat="42.8957450" lon="-8.4477210">
        <ele>338.2</ele>
        <time>2021-03-03T13:21:51Z</time>
      </trkpt>
      <trkpt lat="42.8957660" lon="-8.4476960">
        <ele>338.4</ele>
        <time>2021-03-03T13:21:52Z</time>
      </trkpt>
      <trkpt lat="42.8957880" lon="-8.4476710">
        <ele>338.4</ele>
        <time>2021-03-03T13:21:53Z</time>
      </trkpt>
      <trkpt lat="42.8958020" lon="-8.4476490">
        <ele>338.8</ele>
        <time>2021-03-03T13:21:54Z</time>
      </trkpt>
      <trkpt lat="42.8958130" lon="-8.4476270">
        <ele>339.0</ele>
        <time>2021-03-03T13:21:55Z</time>
      </trkpt>
      <trkpt lat="42.8958250" lon="-8.4476120">
        <ele>339.2</ele>
        <time>2021-03-03T13:21:56Z</time>
      </trkpt>
      <trkpt lat="42.8958380" lon="-8.4475970">
        <ele>339.4</ele>
        <time>2021-03-03T13:21:57Z</time>
      </trkpt>
      <trkpt lat="42.8958520" lon="-8.4475830">
        <ele>339.4</ele>
        <time>2021-03-03T13:21:58Z</time>
      </trkpt>
      <trkpt lat="42.8958670" lon="-8.4475740">
        <ele>339.4</ele>
        <time>2021-03-03T13:21:59Z</time>
      </trkpt>
      <trkpt lat="42.8958880" lon="-8.4475700">
        <ele>339.6</ele>
        <time>2021-03-03T13:22:00Z</time>
      </trkpt>
      <trkpt lat="42.8959090" lon="-8.4475700">
        <ele>339.6</ele>
        <time>2021-03-03T13:22:01Z</time>
      </trkpt>
      <trkpt lat="42.8959330" lon="-8.4475670">
        <ele>339.6</ele>
        <time>2021-03-03T13:22:02Z</time>
      </trkpt>
      <trkpt lat="42.8959530" lon="-8.4475660">
        <ele>339.8</ele>
        <time>2021-03-03T13:22:03Z</time>
      </trkpt>
      <trkpt lat="42.8959800" lon="-8.4475670">
        <ele>339.8</ele>
        <time>2021-03-03T13:22:04Z</time>
      </trkpt>
      <trkpt lat="42.8960070" lon="-8.4475670">
        <ele>339.8</ele>
        <time>2021-03-03T13:22:05Z</time>
      </trkpt>
      <trkpt lat="42.8960340" lon="-8.4475700">
        <ele>340.0</ele>
        <time>2021-03-03T13:22:06Z</time>
      </trkpt>
      <trkpt lat="42.8960620" lon="-8.4475710">
        <ele>340.0</ele>
        <time>2021-03-03T13:22:07Z</time>
      </trkpt>
      <trkpt lat="42.8960850" lon="-8.4475720">
        <ele>340.0</ele>
        <time>2021-03-03T13:22:08Z</time>
      </trkpt>
      <trkpt lat="42.8961080" lon="-8.4475750">
        <ele>340.0</ele>
        <time>2021-03-03T13:22:09Z</time>
      </trkpt>
      <trkpt lat="42.8961320" lon="-8.4475800">
        <ele>340.2</ele>
        <time>2021-03-03T13:22:10Z</time>
      </trkpt>
      <trkpt lat="42.8961590" lon="-8.4475870">
        <ele>340.2</ele>
        <time>2021-03-03T13:22:11Z</time>
      </trkpt>
      <trkpt lat="42.8961890" lon="-8.4475930">
        <ele>340.4</ele>
        <time>2021-03-03T13:22:12Z</time>
      </trkpt>
      <trkpt lat="42.8962170" lon="-8.4476010">
        <ele>340.4</ele>
        <time>2021-03-03T13:22:13Z</time>
      </trkpt>
      <trkpt lat="42.8962450" lon="-8.4476060">
        <ele>340.6</ele>
        <time>2021-03-03T13:22:14Z</time>
      </trkpt>
      <trkpt lat="42.8962760" lon="-8.4476120">
        <ele>340.6</ele>
        <time>2021-03-03T13:22:15Z</time>
      </trkpt>
      <trkpt lat="42.8963050" lon="-8.4476170">
        <ele>340.8</ele>
        <time>2021-03-03T13:22:16Z</time>
      </trkpt>
      <trkpt lat="42.8963340" lon="-8.4476240">
        <ele>340.6</ele>
        <time>2021-03-03T13:22:17Z</time>
      </trkpt>
      <trkpt lat="42.8963650" lon="-8.4476240">
        <ele>340.6</ele>
        <time>2021-03-03T13:22:18Z</time>
      </trkpt>
      <trkpt lat="42.8963970" lon="-8.4476220">
        <ele>340.6</ele>
        <time>2021-03-03T13:22:19Z</time>
      </trkpt>
      <trkpt lat="42.8964350" lon="-8.4476180">
        <ele>340.6</ele>
        <time>2021-03-03T13:22:20Z</time>
      </trkpt>
      <trkpt lat="42.8964660" lon="-8.4476150">
        <ele>340.4</ele>
        <time>2021-03-03T13:22:21Z</time>
      </trkpt>
      <trkpt lat="42.8964910" lon="-8.4476120">
        <ele>340.2</ele>
        <time>2021-03-03T13:22:22Z</time>
      </trkpt>
      <trkpt lat="42.8965210" lon="-8.4476120">
        <ele>340.0</ele>
        <time>2021-03-03T13:22:23Z</time>
      </trkpt>
      <trkpt lat="42.8965540" lon="-8.4476110">
        <ele>339.8</ele>
        <time>2021-03-03T13:22:24Z</time>
      </trkpt>
      <trkpt lat="42.8965890" lon="-8.4476110">
        <ele>339.6</ele>
        <time>2021-03-03T13:22:25Z</time>
      </trkpt>
      <trkpt lat="42.8966420" lon="-8.4476230">
        <ele>339.4</ele>
        <time>2021-03-03T13:22:26Z</time>
      </trkpt>
      <trkpt lat="42.8966910" lon="-8.4476250">
        <ele>339.0</ele>
        <time>2021-03-03T13:22:27Z</time>
      </trkpt>
      <trkpt lat="42.8967360" lon="-8.4476320">
        <ele>338.2</ele>
        <time>2021-03-03T13:22:28Z</time>
      </trkpt>
      <trkpt lat="42.8967880" lon="-8.4476330">
        <ele>337.8</ele>
        <time>2021-03-03T13:22:29Z</time>
      </trkpt>
      <trkpt lat="42.8968340" lon="-8.4476370">
        <ele>337.6</ele>
        <time>2021-03-03T13:22:30Z</time>
      </trkpt>
      <trkpt lat="42.8968800" lon="-8.4476340">
        <ele>337.0</ele>
        <time>2021-03-03T13:22:31Z</time>
      </trkpt>
      <trkpt lat="42.8969240" lon="-8.4476350">
        <ele>336.6</ele>
        <time>2021-03-03T13:22:32Z</time>
      </trkpt>
      <trkpt lat="42.8969670" lon="-8.4476290">
        <ele>335.8</ele>
        <time>2021-03-03T13:22:33Z</time>
      </trkpt>
      <trkpt lat="42.8970110" lon="-8.4476120">
        <ele>335.4</ele>
        <time>2021-03-03T13:22:34Z</time>
      </trkpt>
      <trkpt lat="42.8970510" lon="-8.4475860">
        <ele>335.2</ele>
        <time>2021-03-03T13:22:35Z</time>
      </trkpt>
      <trkpt lat="42.8970850" lon="-8.4475540">
        <ele>335.0</ele>
        <time>2021-03-03T13:22:36Z</time>
      </trkpt>
      <trkpt lat="42.8971160" lon="-8.4475170">
        <ele>334.4</ele>
        <time>2021-03-03T13:22:37Z</time>
      </trkpt>
      <trkpt lat="42.8971400" lon="-8.4474750">
        <ele>333.8</ele>
        <time>2021-03-03T13:22:38Z</time>
      </trkpt>
      <trkpt lat="42.8971630" lon="-8.4474250">
        <ele>333.4</ele>
        <time>2021-03-03T13:22:39Z</time>
      </trkpt>
      <trkpt lat="42.8971770" lon="-8.4473760">
        <ele>333.2</ele>
        <time>2021-03-03T13:22:40Z</time>
      </trkpt>
      <trkpt lat="42.8971860" lon="-8.4473270">
        <ele>332.6</ele>
        <time>2021-03-03T13:22:41Z</time>
      </trkpt>
      <trkpt lat="42.8971980" lon="-8.4472740">
        <ele>332.4</ele>
        <time>2021-03-03T13:22:42Z</time>
      </trkpt>
      <trkpt lat="42.8972080" lon="-8.4472220">
        <ele>332.0</ele>
        <time>2021-03-03T13:22:43Z</time>
      </trkpt>
      <trkpt lat="42.8972170" lon="-8.4471710">
        <ele>331.8</ele>
        <time>2021-03-03T13:22:44Z</time>
      </trkpt>
      <trkpt lat="42.8972330" lon="-8.4471200">
        <ele>330.4</ele>
        <time>2021-03-03T13:22:45Z</time>
      </trkpt>
      <trkpt lat="42.8972470" lon="-8.4470710">
        <ele>329.4</ele>
        <time>2021-03-03T13:22:46Z</time>
      </trkpt>
      <trkpt lat="42.8972650" lon="-8.4470090">
        <ele>328.2</ele>
        <time>2021-03-03T13:22:47Z</time>
      </trkpt>
      <trkpt lat="42.8972800" lon="-8.4469490">
        <ele>327.4</ele>
        <time>2021-03-03T13:22:48Z</time>
      </trkpt>
      <trkpt lat="42.8973000" lon="-8.4468910">
        <ele>326.6</ele>
        <time>2021-03-03T13:22:49Z</time>
      </trkpt>
      <trkpt lat="42.8973170" lon="-8.4468450">
        <ele>326.2</ele>
        <time>2021-03-03T13:22:50Z</time>
      </trkpt>
      <trkpt lat="42.8973330" lon="-8.4467990">
        <ele>325.8</ele>
        <time>2021-03-03T13:22:51Z</time>
      </trkpt>
      <trkpt lat="42.8973560" lon="-8.4467430">
        <ele>325.4</ele>
        <time>2021-03-03T13:22:52Z</time>
      </trkpt>
      <trkpt lat="42.8973730" lon="-8.4467000">
        <ele>325.0</ele>
        <time>2021-03-03T13:22:53Z</time>
      </trkpt>
      <trkpt lat="42.8973870" lon="-8.4466530">
        <ele>324.6</ele>
        <time>2021-03-03T13:22:54Z</time>
      </trkpt>
      <trkpt lat="42.8974100" lon="-8.4466090">
        <ele>324.4</ele>
        <time>2021-03-03T13:22:55Z</time>
      </trkpt>
      <trkpt lat="42.8974290" lon="-8.4465590">
        <ele>324.2</ele>
        <time>2021-03-03T13:22:56Z</time>
      </trkpt>
      <trkpt lat="42.8974470" lon="-8.4465110">
        <ele>323.8</ele>
        <time>2021-03-03T13:22:57Z</time>
      </trkpt>
      <trkpt lat="42.8974620" lon="-8.4464630">
        <ele>322.8</ele>
        <time>2021-03-03T13:22:58Z</time>
      </trkpt>
      <trkpt lat="42.8974690" lon="-8.4464080">
        <ele>322.4</ele>
        <time>2021-03-03T13:22:59Z</time>
      </trkpt>
      <trkpt lat="42.8974800" lon="-8.4463540">
        <ele>322.2</ele>
        <time>2021-03-03T13:23:00Z</time>
      </trkpt>
      <trkpt lat="42.8974930" lon="-8.4462990">
        <ele>322.0</ele>
        <time>2021-03-03T13:23:01Z</time>
      </trkpt>
      <trkpt lat="42.8975060" lon="-8.4462500">
        <ele>321.6</ele>
        <time>2021-03-03T13:23:02Z</time>
      </trkpt>
      <trkpt lat="42.8975240" lon="-8.4462000">
        <ele>321.0</ele>
        <time>2021-03-03T13:23:03Z</time>
      </trkpt>
      <trkpt lat="42.8975390" lon="-8.4461510">
        <ele>320.4</ele>
        <time>2021-03-03T13:23:04Z</time>
      </trkpt>
      <trkpt lat="42.8975560" lon="-8.4461050">
        <ele>320.0</ele>
        <time>2021-03-03T13:23:05Z</time>
      </trkpt>
      <trkpt lat="42.8975740" lon="-8.4460550">
        <ele>319.4</ele>
        <time>2021-03-03T13:23:06Z</time>
      </trkpt>
      <trkpt lat="42.8975950" lon="-8.4460090">
        <ele>319.0</ele>
        <time>2021-03-03T13:23:07Z</time>
      </trkpt>
      <trkpt lat="42.8976180" lon="-8.4459660">
        <ele>318.6</ele>
        <time>2021-03-03T13:23:08Z</time>
      </trkpt>
      <trkpt lat="42.8976390" lon="-8.4459220">
        <ele>318.2</ele>
        <time>2021-03-03T13:23:09Z</time>
      </trkpt>
      <trkpt lat="42.8976640" lon="-8.4458780">
        <ele>317.8</ele>
        <time>2021-03-03T13:23:10Z</time>
      </trkpt>
      <trkpt lat="42.8976880" lon="-8.4458340">
        <ele>317.4</ele>
        <time>2021-03-03T13:23:11Z</time>
      </trkpt>
      <trkpt lat="42.8977110" lon="-8.4457930">
        <ele>317.0</ele>
        <time>2021-03-03T13:23:12Z</time>
      </trkpt>
      <trkpt lat="42.8977350" lon="-8.4457500">
        <ele>316.6</ele>
        <time>2021-03-03T13:23:13Z</time>
      </trkpt>
      <trkpt lat="42.8977620" lon="-8.4457090">
        <ele>316.2</ele>
        <time>2021-03-03T13:23:14Z</time>
      </trkpt>
      <trkpt lat="42.8977890" lon="-8.4456690">
        <ele>315.8</ele>
        <time>2021-03-03T13:23:15Z</time>
      </trkpt>
      <trkpt lat="42.8978140" lon="-8.4456300">
        <ele>315.6</ele>
        <time>2021-03-03T13:23:16Z</time>
      </trkpt>
      <trkpt lat="42.8978340" lon="-8.4455900">
        <ele>315.2</ele>
        <time>2021-03-03T13:23:17Z</time>
      </trkpt>
      <trkpt lat="42.8978560" lon="-8.4455480">
        <ele>314.4</ele>
        <time>2021-03-03T13:23:18Z</time>
      </trkpt>
      <trkpt lat="42.8978760" lon="-8.4455080">
        <ele>313.8</ele>
        <time>2021-03-03T13:23:19Z</time>
      </trkpt>
      <trkpt lat="42.8979020" lon="-8.4454670">
        <ele>313.6</ele>
        <time>2021-03-03T13:23:20Z</time>
      </trkpt>
      <trkpt lat="42.8979300" lon="-8.4454270">
        <ele>313.4</ele>
        <time>2021-03-03T13:23:21Z</time>
      </trkpt>
      <trkpt lat="42.8979570" lon="-8.4453880">
        <ele>313.0</ele>
        <time>2021-03-03T13:23:22Z</time>
      </trkpt>
      <trkpt lat="42.8979800" lon="-8.4453510">
        <ele>312.6</ele>
        <time>2021-03-03T13:23:23Z</time>
      </trkpt>
      <trkpt lat="42.8980040" lon="-8.4453140">
        <ele>312.2</ele>
        <time>2021-03-03T13:23:24Z</time>
      </trkpt>
      <trkpt lat="42.8980290" lon="-8.4452780">
        <ele>312.0</ele>
        <time>2021-03-03T13:23:25Z</time>
      </trkpt>
      <trkpt lat="42.8980540" lon="-8.4452450">
        <ele>311.8</ele>
        <time>2021-03-03T13:23:26Z</time>
      </trkpt>
      <trkpt lat="42.8980780" lon="-8.4452130">
        <ele>311.6</ele>
        <time>2021-03-03T13:23:27Z</time>
      </trkpt>
      <trkpt lat="42.8981030" lon="-8.4451780">
        <ele>311.4</ele>
        <time>2021-03-03T13:23:28Z</time>
      </trkpt>
      <trkpt lat="42.8981280" lon="-8.4451500">
        <ele>311.2</ele>
        <time>2021-03-03T13:23:29Z</time>
      </trkpt>
      <trkpt lat="42.8981440" lon="-8.4451260">
        <ele>311.0</ele>
        <time>2021-03-03T13:23:30Z</time>
      </trkpt>
      <trkpt lat="42.8981690" lon="-8.4450870">
        <ele>310.8</ele>
        <time>2021-03-03T13:23:31Z</time>
      </trkpt>
      <trkpt lat="42.8981920" lon="-8.4450570">
        <ele>310.6</ele>
        <time>2021-03-03T13:23:32Z</time>
      </trkpt>
      <trkpt lat="42.8982070" lon="-8.4450310">
        <ele>310.2</ele>
        <time>2021-03-03T13:23:33Z</time>
      </trkpt>
      <trkpt lat="42.8982050" lon="-8.4450030">
        <ele>310.2</ele>
        <time>2021-03-03T13:23:34Z</time>
      </trkpt>
      <trkpt lat="42.8982030" lon="-8.4449720">
        <ele>310.0</ele>
        <time>2021-03-03T13:23:35Z</time>
      </trkpt>
      <trkpt lat="42.8982040" lon="-8.4449330">
        <ele>310.0</ele>
        <time>2021-03-03T13:23:36Z</time>
      </trkpt>
      <trkpt lat="42.8982060" lon="-8.4448910">
        <ele>310.0</ele>
        <time>2021-03-03T13:23:37Z</time>
      </trkpt>
      <trkpt lat="42.8982080" lon="-8.4448470">
        <ele>310.0</ele>
        <time>2021-03-03T13:23:38Z</time>
      </trkpt>
      <trkpt lat="42.8982120" lon="-8.4447980">
        <ele>310.0</ele>
        <time>2021-03-03T13:23:39Z</time>
      </trkpt>
      <trkpt lat="42.8982090" lon="-8.4447530">
        <ele>310.0</ele>
        <time>2021-03-03T13:23:40Z</time>
      </trkpt>
      <trkpt lat="42.8982050" lon="-8.4447090">
        <ele>310.0</ele>
        <time>2021-03-03T13:23:41Z</time>
      </trkpt>
      <trkpt lat="42.8981990" lon="-8.4446660">
        <ele>309.8</ele>
        <time>2021-03-03T13:23:42Z</time>
      </trkpt>
      <trkpt lat="42.8981950" lon="-8.4446260">
        <ele>309.8</ele>
        <time>2021-03-03T13:23:43Z</time>
      </trkpt>
      <trkpt lat="42.8982020" lon="-8.4445880">
        <ele>309.8</ele>
        <time>2021-03-03T13:23:44Z</time>
      </trkpt>
      <trkpt lat="42.8982110" lon="-8.4445570">
        <ele>309.8</ele>
        <time>2021-03-03T13:23:45Z</time>
      </trkpt>
      <trkpt lat="42.8982270" lon="-8.4445300">
        <ele>309.6</ele>
        <time>2021-03-03T13:23:46Z</time>
      </trkpt>
      <trkpt lat="42.8982430" lon="-8.4445120">
        <ele>309.4</ele>
        <time>2021-03-03T13:23:47Z</time>
      </trkpt>
      <trkpt lat="42.8982610" lon="-8.4444930">
        <ele>309.4</ele>
        <time>2021-03-03T13:23:48Z</time>
      </trkpt>
      <trkpt lat="42.8982830" lon="-8.4444750">
        <ele>309.2</ele>
        <time>2021-03-03T13:23:49Z</time>
      </trkpt>
      <trkpt lat="42.8983090" lon="-8.4444590">
        <ele>309.2</ele>
        <time>2021-03-03T13:23:50Z</time>
      </trkpt>
      <trkpt lat="42.8983370" lon="-8.4444390">
        <ele>309.0</ele>
        <time>2021-03-03T13:23:51Z</time>
      </trkpt>
      <trkpt lat="42.8983560" lon="-8.4444180">
        <ele>309.2</ele>
        <time>2021-03-03T13:23:52Z</time>
      </trkpt>
      <trkpt lat="42.8983700" lon="-8.4443820">
        <ele>309.4</ele>
        <time>2021-03-03T13:23:53Z</time>
      </trkpt>
      <trkpt lat="42.8983750" lon="-8.4443490">
        <ele>309.6</ele>
        <time>2021-03-03T13:23:54Z</time>
      </trkpt>
      <trkpt lat="42.8983770" lon="-8.4443070">
        <ele>309.8</ele>
        <time>2021-03-03T13:23:55Z</time>
      </trkpt>
      <trkpt lat="42.8983840" lon="-8.4442730">
        <ele>309.8</ele>
        <time>2021-03-03T13:23:56Z</time>
      </trkpt>
      <trkpt lat="42.8983930" lon="-8.4442520">
        <ele>309.8</ele>
        <time>2021-03-03T13:23:57Z</time>
      </trkpt>
      <trkpt lat="42.8984090" lon="-8.4442510">
        <ele>310.0</ele>
        <time>2021-03-03T13:23:58Z</time>
      </trkpt>
      <trkpt lat="42.8984230" lon="-8.4442610">
        <ele>310.0</ele>
        <time>2021-03-03T13:23:59Z</time>
      </trkpt>
      <trkpt lat="42.8984360" lon="-8.4442800">
        <ele>310.0</ele>
        <time>2021-03-03T13:24:00Z</time>
      </trkpt>
      <trkpt lat="42.8984490" lon="-8.4443040">
        <ele>310.2</ele>
        <time>2021-03-03T13:24:01Z</time>
      </trkpt>
      <trkpt lat="42.8984570" lon="-8.4443280">
        <ele>310.2</ele>
        <time>2021-03-03T13:24:02Z</time>
      </trkpt>
      <trkpt lat="42.8984740" lon="-8.4443590">
        <ele>310.2</ele>
        <time>2021-03-03T13:24:03Z</time>
      </trkpt>
      <trkpt lat="42.8984900" lon="-8.4443880">
        <ele>310.4</ele>
        <time>2021-03-03T13:24:04Z</time>
      </trkpt>
      <trkpt lat="42.8985060" lon="-8.4444190">
        <ele>310.6</ele>
        <time>2021-03-03T13:24:05Z</time>
      </trkpt>
      <trkpt lat="42.8985280" lon="-8.4444550">
        <ele>310.8</ele>
        <time>2021-03-03T13:24:06Z</time>
      </trkpt>
      <trkpt lat="42.8985520" lon="-8.4444880">
        <ele>310.8</ele>
        <time>2021-03-03T13:24:07Z</time>
      </trkpt>
      <trkpt lat="42.8985790" lon="-8.4445130">
        <ele>311.0</ele>
        <time>2021-03-03T13:24:08Z</time>
      </trkpt>
      <trkpt lat="42.8986020" lon="-8.4445340">
        <ele>311.0</ele>
        <time>2021-03-03T13:24:09Z</time>
      </trkpt>
      <trkpt lat="42.8986250" lon="-8.4445550">
        <ele>311.2</ele>
        <time>2021-03-03T13:24:10Z</time>
      </trkpt>
      <trkpt lat="42.8986500" lon="-8.4445760">
        <ele>311.4</ele>
        <time>2021-03-03T13:24:11Z</time>
      </trkpt>
      <trkpt lat="42.8986750" lon="-8.4445920">
        <ele>311.6</ele>
        <time>2021-03-03T13:24:12Z</time>
      </trkpt>
      <trkpt lat="42.8987000" lon="-8.4446100">
        <ele>311.8</ele>
        <time>2021-03-03T13:24:13Z</time>
      </trkpt>
      <trkpt lat="42.8987260" lon="-8.4446260">
        <ele>311.8</ele>
        <time>2021-03-03T13:24:14Z</time>
      </trkpt>
      <trkpt lat="42.8987550" lon="-8.4446380">
        <ele>312.0</ele>
        <time>2021-03-03T13:24:15Z</time>
      </trkpt>
      <trkpt lat="42.8987830" lon="-8.4446520">
        <ele>312.2</ele>
        <time>2021-03-03T13:24:16Z</time>
      </trkpt>
      <trkpt lat="42.8988110" lon="-8.4446640">
        <ele>312.6</ele>
        <time>2021-03-03T13:24:17Z</time>
      </trkpt>
      <trkpt lat="42.8988390" lon="-8.4446760">
        <ele>312.8</ele>
        <time>2021-03-03T13:24:18Z</time>
      </trkpt>
      <trkpt lat="42.8988650" lon="-8.4446900">
        <ele>313.0</ele>
        <time>2021-03-03T13:24:19Z</time>
      </trkpt>
      <trkpt lat="42.8988910" lon="-8.4446970">
        <ele>313.4</ele>
        <time>2021-03-03T13:24:20Z</time>
      </trkpt>
      <trkpt lat="42.8989160" lon="-8.4447000">
        <ele>313.8</ele>
        <time>2021-03-03T13:24:21Z</time>
      </trkpt>
      <trkpt lat="42.8989410" lon="-8.4447030">
        <ele>314.0</ele>
        <time>2021-03-03T13:24:22Z</time>
      </trkpt>
      <trkpt lat="42.8989630" lon="-8.4447010">
        <ele>314.2</ele>
        <time>2021-03-03T13:24:23Z</time>
      </trkpt>
      <trkpt lat="42.8989810" lon="-8.4447000">
        <ele>314.6</ele>
        <time>2021-03-03T13:24:24Z</time>
      </trkpt>
      <trkpt lat="42.8990010" lon="-8.4447010">
        <ele>314.8</ele>
        <time>2021-03-03T13:24:25Z</time>
      </trkpt>
      <trkpt lat="42.8990190" lon="-8.4446980">
        <ele>315.0</ele>
        <time>2021-03-03T13:24:26Z</time>
      </trkpt>
      <trkpt lat="42.8990410" lon="-8.4446930">
        <ele>315.2</ele>
        <time>2021-03-03T13:24:27Z</time>
      </trkpt>
      <trkpt lat="42.8990620" lon="-8.4446830">
        <ele>315.4</ele>
        <time>2021-03-03T13:24:28Z</time>
      </trkpt>
      <trkpt lat="42.8990820" lon="-8.4446660">
        <ele>315.6</ele>
        <time>2021-03-03T13:24:29Z</time>
      </trkpt>
      <trkpt lat="42.8990970" lon="-8.4446480">
        <ele>316.0</ele>
        <time>2021-03-03T13:24:30Z</time>
      </trkpt>
      <trkpt lat="42.8991120" lon="-8.4446310">
        <ele>316.2</ele>
        <time>2021-03-03T13:24:31Z</time>
      </trkpt>
      <trkpt lat="42.8991340" lon="-8.4446130">
        <ele>316.4</ele>
        <time>2021-03-03T13:24:32Z</time>
      </trkpt>
      <trkpt lat="42.8991580" lon="-8.4445970">
        <ele>316.4</ele>
        <time>2021-03-03T13:24:33Z</time>
      </trkpt>
      <trkpt lat="42.8991840" lon="-8.4445780">
        <ele>316.6</ele>
        <time>2021-03-03T13:24:34Z</time>
      </trkpt>
      <trkpt lat="42.8992100" lon="-8.4445560">
        <ele>316.6</ele>
        <time>2021-03-03T13:24:35Z</time>
      </trkpt>
      <trkpt lat="42.8992340" lon="-8.4445400">
        <ele>316.6</ele>
        <time>2021-03-03T13:24:36Z</time>
      </trkpt>
      <trkpt lat="42.8992550" lon="-8.4445300">
        <ele>316.6</ele>
        <time>2021-03-03T13:24:37Z</time>
      </trkpt>
      <trkpt lat="42.8992770" lon="-8.4445300">
        <ele>316.8</ele>
        <time>2021-03-03T13:24:38Z</time>
      </trkpt>
      <trkpt lat="42.8993010" lon="-8.4445370">
        <ele>317.0</ele>
        <time>2021-03-03T13:24:39Z</time>
      </trkpt>
      <trkpt lat="42.8993280" lon="-8.4445410">
        <ele>317.0</ele>
        <time>2021-03-03T13:24:40Z</time>
      </trkpt>
      <trkpt lat="42.8993560" lon="-8.4445440">
        <ele>317.2</ele>
        <time>2021-03-03T13:24:41Z</time>
      </trkpt>
      <trkpt lat="42.8993830" lon="-8.4445490">
        <ele>317.4</ele>
        <time>2021-03-03T13:24:42Z</time>
      </trkpt>
      <trkpt lat="42.8994100" lon="-8.4445510">
        <ele>317.6</ele>
        <time>2021-03-03T13:24:43Z</time>
      </trkpt>
      <trkpt lat="42.8994390" lon="-8.4445530">
        <ele>317.6</ele>
        <time>2021-03-03T13:24:44Z</time>
      </trkpt>
      <trkpt lat="42.8994680" lon="-8.4445570">
        <ele>317.8</ele>
        <time>2021-03-03T13:24:45Z</time>
      </trkpt>
      <trkpt lat="42.8994980" lon="-8.4445620">
        <ele>318.2</ele>
        <time>2021-03-03T13:24:46Z</time>
      </trkpt>
      <trkpt lat="42.8995220" lon="-8.4445630">
        <ele>318.6</ele>
        <time>2021-03-03T13:24:47Z</time>
      </trkpt>
      <trkpt lat="42.8995560" lon="-8.4445690">
        <ele>318.8</ele>
        <time>2021-03-03T13:24:48Z</time>
      </trkpt>
      <trkpt lat="42.8995860" lon="-8.4445740">
        <ele>318.8</ele>
        <time>2021-03-03T13:24:49Z</time>
      </trkpt>
      <trkpt lat="42.8996170" lon="-8.4445770">
        <ele>319.0</ele>
        <time>2021-03-03T13:24:50Z</time>
      </trkpt>
      <trkpt lat="42.8996480" lon="-8.4445790">
        <ele>319.0</ele>
        <time>2021-03-03T13:24:51Z</time>
      </trkpt>
      <trkpt lat="42.8996780" lon="-8.4445830">
        <ele>319.2</ele>
        <time>2021-03-03T13:24:52Z</time>
      </trkpt>
      <trkpt lat="42.8997120" lon="-8.4445870">
        <ele>319.4</ele>
        <time>2021-03-03T13:24:53Z</time>
      </trkpt>
      <trkpt lat="42.8997460" lon="-8.4445910">
        <ele>319.4</ele>
        <time>2021-03-03T13:24:54Z</time>
      </trkpt>
      <trkpt lat="42.8997770" lon="-8.4445950">
        <ele>319.4</ele>
        <time>2021-03-03T13:24:55Z</time>
      </trkpt>
      <trkpt lat="42.8998020" lon="-8.4446030">
        <ele>319.6</ele>
        <time>2021-03-03T13:24:56Z</time>
      </trkpt>
      <trkpt lat="42.8998370" lon="-8.4446160">
        <ele>319.8</ele>
        <time>2021-03-03T13:24:57Z</time>
      </trkpt>
      <trkpt lat="42.8998670" lon="-8.4446300">
        <ele>319.6</ele>
        <time>2021-03-03T13:24:58Z</time>
      </trkpt>
      <trkpt lat="42.8998960" lon="-8.4446380">
        <ele>319.8</ele>
        <time>2021-03-03T13:24:59Z</time>
      </trkpt>
      <trkpt lat="42.8999240" lon="-8.4446440">
        <ele>320.0</ele>
        <time>2021-03-03T13:25:00Z</time>
      </trkpt>
      <trkpt lat="42.8999520" lon="-8.4446410">
        <ele>319.8</ele>
        <time>2021-03-03T13:25:01Z</time>
      </trkpt>
      <trkpt lat="42.8999810" lon="-8.4446400">
        <ele>320.0</ele>
        <time>2021-03-03T13:25:02Z</time>
      </trkpt>
      <trkpt lat="42.9000100" lon="-8.4446440">
        <ele>319.8</ele>
        <time>2021-03-03T13:25:03Z</time>
      </trkpt>
      <trkpt lat="42.9000420" lon="-8.4446470">
        <ele>319.8</ele>
        <time>2021-03-03T13:25:04Z</time>
      </trkpt>
      <trkpt lat="42.9000710" lon="-8.4446490">
        <ele>319.8</ele>
        <time>2021-03-03T13:25:05Z</time>
      </trkpt>
      <trkpt lat="42.9001000" lon="-8.4446550">
        <ele>319.8</ele>
        <time>2021-03-03T13:25:06Z</time>
      </trkpt>
      <trkpt lat="42.9001300" lon="-8.4446610">
        <ele>319.8</ele>
        <time>2021-03-03T13:25:07Z</time>
      </trkpt>
      <trkpt lat="42.9001610" lon="-8.4446690">
        <ele>319.8</ele>
        <time>2021-03-03T13:25:08Z</time>
      </trkpt>
      <trkpt lat="42.9001930" lon="-8.4446800">
        <ele>319.8</ele>
        <time>2021-03-03T13:25:09Z</time>
      </trkpt>
      <trkpt lat="42.9002230" lon="-8.4446890">
        <ele>319.6</ele>
        <time>2021-03-03T13:25:10Z</time>
      </trkpt>
      <trkpt lat="42.9002540" lon="-8.4446990">
        <ele>319.6</ele>
        <time>2021-03-03T13:25:11Z</time>
      </trkpt>
      <trkpt lat="42.9002870" lon="-8.4447050">
        <ele>319.4</ele>
        <time>2021-03-03T13:25:12Z</time>
      </trkpt>
      <trkpt lat="42.9003180" lon="-8.4447090">
        <ele>319.4</ele>
        <time>2021-03-03T13:25:13Z</time>
      </trkpt>
      <trkpt lat="42.9003490" lon="-8.4447150">
        <ele>319.4</ele>
        <time>2021-03-03T13:25:14Z</time>
      </trkpt>
      <trkpt lat="42.9003810" lon="-8.4447220">
        <ele>319.4</ele>
        <time>2021-03-03T13:25:15Z</time>
      </trkpt>
      <trkpt lat="42.9004110" lon="-8.4447320">
        <ele>319.4</ele>
        <time>2021-03-03T13:25:16Z</time>
      </trkpt>
      <trkpt lat="42.9004420" lon="-8.4447420">
        <ele>319.4</ele>
        <time>2021-03-03T13:25:17Z</time>
      </trkpt>
      <trkpt lat="42.9004730" lon="-8.4447520">
        <ele>319.2</ele>
        <time>2021-03-03T13:25:18Z</time>
      </trkpt>
      <trkpt lat="42.9005050" lon="-8.4447610">
        <ele>319.0</ele>
        <time>2021-03-03T13:25:19Z</time>
      </trkpt>
      <trkpt lat="42.9005350" lon="-8.4447700">
        <ele>319.0</ele>
        <time>2021-03-03T13:25:20Z</time>
      </trkpt>
      <trkpt lat="42.9005670" lon="-8.4447790">
        <ele>319.0</ele>
        <time>2021-03-03T13:25:21Z</time>
      </trkpt>
      <trkpt lat="42.9005950" lon="-8.4447840">
        <ele>318.8</ele>
        <time>2021-03-03T13:25:22Z</time>
      </trkpt>
      <trkpt lat="42.9006250" lon="-8.4447790">
        <ele>318.6</ele>
        <time>2021-03-03T13:25:23Z</time>
      </trkpt>
      <trkpt lat="42.9006540" lon="-8.4447650">
        <ele>318.6</ele>
        <time>2021-03-03T13:25:24Z</time>
      </trkpt>
      <trkpt lat="42.9006800" lon="-8.4447400">
        <ele>318.6</ele>
        <time>2021-03-03T13:25:25Z</time>
      </trkpt>
      <trkpt lat="42.9007050" lon="-8.4447140">
        <ele>318.6</ele>
        <time>2021-03-03T13:25:26Z</time>
      </trkpt>
      <trkpt lat="42.9007320" lon="-8.4446850">
        <ele>318.4</ele>
        <time>2021-03-03T13:25:27Z</time>
      </trkpt>
      <trkpt lat="42.9007560" lon="-8.4446550">
        <ele>318.4</ele>
        <time>2021-03-03T13:25:28Z</time>
      </trkpt>
      <trkpt lat="42.9007760" lon="-8.4446220">
        <ele>318.6</ele>
        <time>2021-03-03T13:25:29Z</time>
      </trkpt>
      <trkpt lat="42.9007950" lon="-8.4445860">
        <ele>318.6</ele>
        <time>2021-03-03T13:25:30Z</time>
      </trkpt>
      <trkpt lat="42.9008120" lon="-8.4445500">
        <ele>318.6</ele>
        <time>2021-03-03T13:25:31Z</time>
      </trkpt>
      <trkpt lat="42.9008280" lon="-8.4445090">
        <ele>318.8</ele>
        <time>2021-03-03T13:25:32Z</time>
      </trkpt>
      <trkpt lat="42.9008420" lon="-8.4444700">
        <ele>318.8</ele>
        <time>2021-03-03T13:25:33Z</time>
      </trkpt>
      <trkpt lat="42.9008540" lon="-8.4444300">
        <ele>319.0</ele>
        <time>2021-03-03T13:25:34Z</time>
      </trkpt>
      <trkpt lat="42.9008640" lon="-8.4443860">
        <ele>319.0</ele>
        <time>2021-03-03T13:25:35Z</time>
      </trkpt>
      <trkpt lat="42.9008790" lon="-8.4443450">
        <ele>319.0</ele>
        <time>2021-03-03T13:25:36Z</time>
      </trkpt>
      <trkpt lat="42.9008930" lon="-8.4443010">
        <ele>318.8</ele>
        <time>2021-03-03T13:25:37Z</time>
      </trkpt>
      <trkpt lat="42.9009070" lon="-8.4442610">
        <ele>318.8</ele>
        <time>2021-03-03T13:25:38Z</time>
      </trkpt>
      <trkpt lat="42.9009180" lon="-8.4442300">
        <ele>318.8</ele>
        <time>2021-03-03T13:25:39Z</time>
      </trkpt>
      <trkpt lat="42.9009310" lon="-8.4441880">
        <ele>318.8</ele>
        <time>2021-03-03T13:25:40Z</time>
      </trkpt>
      <trkpt lat="42.9009460" lon="-8.4441390">
        <ele>318.8</ele>
        <time>2021-03-03T13:25:41Z</time>
      </trkpt>
      <trkpt lat="42.9009590" lon="-8.4440950">
        <ele>318.8</ele>
        <time>2021-03-03T13:25:42Z</time>
      </trkpt>
      <trkpt lat="42.9009730" lon="-8.4440520">
        <ele>318.8</ele>
        <time>2021-03-03T13:25:43Z</time>
      </trkpt>
      <trkpt lat="42.9009860" lon="-8.4440070">
        <ele>318.8</ele>
        <time>2021-03-03T13:25:44Z</time>
      </trkpt>
      <trkpt lat="42.9009990" lon="-8.4439650">
        <ele>318.8</ele>
        <time>2021-03-03T13:25:45Z</time>
      </trkpt>
      <trkpt lat="42.9010130" lon="-8.4439230">
        <ele>318.8</ele>
        <time>2021-03-03T13:25:46Z</time>
      </trkpt>
      <trkpt lat="42.9010260" lon="-8.4438800">
        <ele>318.8</ele>
        <time>2021-03-03T13:25:47Z</time>
      </trkpt>
      <trkpt lat="42.9010360" lon="-8.4438380">
        <ele>318.8</ele>
        <time>2021-03-03T13:25:48Z</time>
      </trkpt>
      <trkpt lat="42.9010470" lon="-8.4437940">
        <ele>318.8</ele>
        <time>2021-03-03T13:25:49Z</time>
      </trkpt>
      <trkpt lat="42.9010580" lon="-8.4437510">
        <ele>318.8</ele>
        <time>2021-03-03T13:25:50Z</time>
      </trkpt>
      <trkpt lat="42.9010690" lon="-8.4437070">
        <ele>318.8</ele>
        <time>2021-03-03T13:25:51Z</time>
      </trkpt>
      <trkpt lat="42.9010820" lon="-8.4436630">
        <ele>318.8</ele>
        <time>2021-03-03T13:25:52Z</time>
      </trkpt>
      <trkpt lat="42.9010930" lon="-8.4436210">
        <ele>318.8</ele>
        <time>2021-03-03T13:25:53Z</time>
      </trkpt>
      <trkpt lat="42.9011090" lon="-8.4435790">
        <ele>318.8</ele>
        <time>2021-03-03T13:25:54Z</time>
      </trkpt>
      <trkpt lat="42.9011210" lon="-8.4435410">
        <ele>318.8</ele>
        <time>2021-03-03T13:25:55Z</time>
      </trkpt>
      <trkpt lat="42.9011320" lon="-8.4434990">
        <ele>318.8</ele>
        <time>2021-03-03T13:25:56Z</time>
      </trkpt>
      <trkpt lat="42.9011440" lon="-8.4434610">
        <ele>318.8</ele>
        <time>2021-03-03T13:25:57Z</time>
      </trkpt>
      <trkpt lat="42.9011590" lon="-8.4434210">
        <ele>318.8</ele>
        <time>2021-03-03T13:25:58Z</time>
      </trkpt>
      <trkpt lat="42.9011780" lon="-8.4433820">
        <ele>319.0</ele>
        <time>2021-03-03T13:25:59Z</time>
      </trkpt>
      <trkpt lat="42.9011960" lon="-8.4433450">
        <ele>319.2</ele>
        <time>2021-03-03T13:26:00Z</time>
      </trkpt>
      <trkpt lat="42.9012100" lon="-8.4433150">
        <ele>319.2</ele>
        <time>2021-03-03T13:26:01Z</time>
      </trkpt>
      <trkpt lat="42.9012260" lon="-8.4432770">
        <ele>319.4</ele>
        <time>2021-03-03T13:26:02Z</time>
      </trkpt>
      <trkpt lat="42.9012470" lon="-8.4432300">
        <ele>319.4</ele>
        <time>2021-03-03T13:26:03Z</time>
      </trkpt>
      <trkpt lat="42.9012630" lon="-8.4431930">
        <ele>319.4</ele>
        <time>2021-03-03T13:26:04Z</time>
      </trkpt>
      <trkpt lat="42.9012800" lon="-8.4431590">
        <ele>319.4</ele>
        <time>2021-03-03T13:26:05Z</time>
      </trkpt>
      <trkpt lat="42.9012980" lon="-8.4431240">
        <ele>319.4</ele>
        <time>2021-03-03T13:26:06Z</time>
      </trkpt>
      <trkpt lat="42.9013180" lon="-8.4430900">
        <ele>319.2</ele>
        <time>2021-03-03T13:26:07Z</time>
      </trkpt>
      <trkpt lat="42.9013380" lon="-8.4430550">
        <ele>319.2</ele>
        <time>2021-03-03T13:26:08Z</time>
      </trkpt>
      <trkpt lat="42.9013590" lon="-8.4430200">
        <ele>319.4</ele>
        <time>2021-03-03T13:26:09Z</time>
      </trkpt>
      <trkpt lat="42.9013770" lon="-8.4429880">
        <ele>319.2</ele>
        <time>2021-03-03T13:26:10Z</time>
      </trkpt>
      <trkpt lat="42.9013970" lon="-8.4429530">
        <ele>319.2</ele>
        <time>2021-03-03T13:26:11Z</time>
      </trkpt>
      <trkpt lat="42.9014160" lon="-8.4429180">
        <ele>319.2</ele>
        <time>2021-03-03T13:26:12Z</time>
      </trkpt>
      <trkpt lat="42.9014370" lon="-8.4428830">
        <ele>319.2</ele>
        <time>2021-03-03T13:26:13Z</time>
      </trkpt>
      <trkpt lat="42.9014550" lon="-8.4428470">
        <ele>319.4</ele>
        <time>2021-03-03T13:26:14Z</time>
      </trkpt>
      <trkpt lat="42.9014700" lon="-8.4428130">
        <ele>319.2</ele>
        <time>2021-03-03T13:26:15Z</time>
      </trkpt>
      <trkpt lat="42.9014830" lon="-8.4427770">
        <ele>319.2</ele>
        <time>2021-03-03T13:26:16Z</time>
      </trkpt>
      <trkpt lat="42.9014930" lon="-8.4427430">
        <ele>319.2</ele>
        <time>2021-03-03T13:26:17Z</time>
      </trkpt>
      <trkpt lat="42.9015060" lon="-8.4427070">
        <ele>319.2</ele>
        <time>2021-03-03T13:26:18Z</time>
      </trkpt>
      <trkpt lat="42.9015210" lon="-8.4426700">
        <ele>319.2</ele>
        <time>2021-03-03T13:26:19Z</time>
      </trkpt>
      <trkpt lat="42.9015350" lon="-8.4426320">
        <ele>319.2</ele>
        <time>2021-03-03T13:26:20Z</time>
      </trkpt>
      <trkpt lat="42.9015500" lon="-8.4425950">
        <ele>319.6</ele>
        <time>2021-03-03T13:26:21Z</time>
      </trkpt>
      <trkpt lat="42.9015610" lon="-8.4425620">
        <ele>319.6</ele>
        <time>2021-03-03T13:26:22Z</time>
      </trkpt>
      <trkpt lat="42.9015690" lon="-8.4425260">
        <ele>319.6</ele>
        <time>2021-03-03T13:26:23Z</time>
      </trkpt>
      <trkpt lat="42.9015770" lon="-8.4424880">
        <ele>319.8</ele>
        <time>2021-03-03T13:26:24Z</time>
      </trkpt>
      <trkpt lat="42.9015840" lon="-8.4424520">
        <ele>319.8</ele>
        <time>2021-03-03T13:26:25Z</time>
      </trkpt>
      <trkpt lat="42.9015900" lon="-8.4424150">
        <ele>319.8</ele>
        <time>2021-03-03T13:26:26Z</time>
      </trkpt>
      <trkpt lat="42.9015980" lon="-8.4423790">
        <ele>320.0</ele>
        <time>2021-03-03T13:26:27Z</time>
      </trkpt>
      <trkpt lat="42.9016060" lon="-8.4423410">
        <ele>320.0</ele>
        <time>2021-03-03T13:26:28Z</time>
      </trkpt>
      <trkpt lat="42.9016120" lon="-8.4423060">
        <ele>320.2</ele>
        <time>2021-03-03T13:26:29Z</time>
      </trkpt>
      <trkpt lat="42.9016180" lon="-8.4422690">
        <ele>320.6</ele>
        <time>2021-03-03T13:26:30Z</time>
      </trkpt>
      <trkpt lat="42.9016220" lon="-8.4422320">
        <ele>320.6</ele>
        <time>2021-03-03T13:26:31Z</time>
      </trkpt>
      <trkpt lat="42.9016240" lon="-8.4421960">
        <ele>320.8</ele>
        <time>2021-03-03T13:26:32Z</time>
      </trkpt>
      <trkpt lat="42.9016260" lon="-8.4421640">
        <ele>321.0</ele>
        <time>2021-03-03T13:26:33Z</time>
      </trkpt>
      <trkpt lat="42.9016280" lon="-8.4421290">
        <ele>321.6</ele>
        <time>2021-03-03T13:26:34Z</time>
      </trkpt>
      <trkpt lat="42.9016300" lon="-8.4421000">
        <ele>321.8</ele>
        <time>2021-03-03T13:26:35Z</time>
      </trkpt>
      <trkpt lat="42.9016310" lon="-8.4420760">
        <ele>322.0</ele>
        <time>2021-03-03T13:26:36Z</time>
      </trkpt>
      <trkpt lat="42.9016320" lon="-8.4420500">
        <ele>322.2</ele>
        <time>2021-03-03T13:26:37Z</time>
      </trkpt>
      <trkpt lat="42.9016330" lon="-8.4420280">
        <ele>322.4</ele>
        <time>2021-03-03T13:26:38Z</time>
      </trkpt>
      <trkpt lat="42.9016340" lon="-8.4420080">
        <ele>322.6</ele>
        <time>2021-03-03T13:26:39Z</time>
      </trkpt>
      <trkpt lat="42.9016350" lon="-8.4419860">
        <ele>322.8</ele>
        <time>2021-03-03T13:26:40Z</time>
      </trkpt>
      <trkpt lat="42.9016370" lon="-8.4419650">
        <ele>323.2</ele>
        <time>2021-03-03T13:26:41Z</time>
      </trkpt>
      <trkpt lat="42.9016390" lon="-8.4419430">
        <ele>323.2</ele>
        <time>2021-03-03T13:26:42Z</time>
      </trkpt>
      <trkpt lat="42.9016430" lon="-8.4419210">
        <ele>323.4</ele>
        <time>2021-03-03T13:26:43Z</time>
      </trkpt>
      <trkpt lat="42.9016460" lon="-8.4418980">
        <ele>323.6</ele>
        <time>2021-03-03T13:26:44Z</time>
      </trkpt>
      <trkpt lat="42.9016480" lon="-8.4418740">
        <ele>324.0</ele>
        <time>2021-03-03T13:26:45Z</time>
      </trkpt>
      <trkpt lat="42.9016510" lon="-8.4418480">
        <ele>324.2</ele>
        <time>2021-03-03T13:26:46Z</time>
      </trkpt>
      <trkpt lat="42.9016530" lon="-8.4418220">
        <ele>324.2</ele>
        <time>2021-03-03T13:26:47Z</time>
      </trkpt>
      <trkpt lat="42.9016540" lon="-8.4417970">
        <ele>324.4</ele>
        <time>2021-03-03T13:26:48Z</time>
      </trkpt>
      <trkpt lat="42.9016540" lon="-8.4417700">
        <ele>324.6</ele>
        <time>2021-03-03T13:26:49Z</time>
      </trkpt>
      <trkpt lat="42.9016540" lon="-8.4417400">
        <ele>324.8</ele>
        <time>2021-03-03T13:26:50Z</time>
      </trkpt>
      <trkpt lat="42.9016610" lon="-8.4417150">
        <ele>324.8</ele>
        <time>2021-03-03T13:26:51Z</time>
      </trkpt>
      <trkpt lat="42.9016640" lon="-8.4416870">
        <ele>325.0</ele>
        <time>2021-03-03T13:26:52Z</time>
      </trkpt>
      <trkpt lat="42.9016640" lon="-8.4416630">
        <ele>325.2</ele>
        <time>2021-03-03T13:26:53Z</time>
      </trkpt>
      <trkpt lat="42.9016660" lon="-8.4416420">
        <ele>325.4</ele>
        <time>2021-03-03T13:26:54Z</time>
      </trkpt>
      <trkpt lat="42.9016690" lon="-8.4416220">
        <ele>325.6</ele>
        <time>2021-03-03T13:26:55Z</time>
      </trkpt>
      <trkpt lat="42.9016720" lon="-8.4416010">
        <ele>325.8</ele>
        <time>2021-03-03T13:26:56Z</time>
      </trkpt>
      <trkpt lat="42.9016740" lon="-8.4415770">
        <ele>326.0</ele>
        <time>2021-03-03T13:26:57Z</time>
      </trkpt>
      <trkpt lat="42.9016780" lon="-8.4415530">
        <ele>326.4</ele>
        <time>2021-03-03T13:26:58Z</time>
      </trkpt>
      <trkpt lat="42.9016860" lon="-8.4415300">
        <ele>326.6</ele>
        <time>2021-03-03T13:26:59Z</time>
      </trkpt>
      <trkpt lat="42.9016920" lon="-8.4415050">
        <ele>326.8</ele>
        <time>2021-03-03T13:27:00Z</time>
      </trkpt>
      <trkpt lat="42.9016950" lon="-8.4414790">
        <ele>327.0</ele>
        <time>2021-03-03T13:27:01Z</time>
      </trkpt>
      <trkpt lat="42.9016970" lon="-8.4414530">
        <ele>327.2</ele>
        <time>2021-03-03T13:27:02Z</time>
      </trkpt>
      <trkpt lat="42.9016970" lon="-8.4414290">
        <ele>327.2</ele>
        <time>2021-03-03T13:27:03Z</time>
      </trkpt>
      <trkpt lat="42.9016980" lon="-8.4414060">
        <ele>327.4</ele>
        <time>2021-03-03T13:27:04Z</time>
      </trkpt>
      <trkpt lat="42.9016990" lon="-8.4413830">
        <ele>327.6</ele>
        <time>2021-03-03T13:27:05Z</time>
      </trkpt>
      <trkpt lat="42.9016970" lon="-8.4413610">
        <ele>327.8</ele>
        <time>2021-03-03T13:27:06Z</time>
      </trkpt>
      <trkpt lat="42.9017010" lon="-8.4413390">
        <ele>328.2</ele>
        <time>2021-03-03T13:27:07Z</time>
      </trkpt>
      <trkpt lat="42.9017040" lon="-8.4413160">
        <ele>328.4</ele>
        <time>2021-03-03T13:27:08Z</time>
      </trkpt>
      <trkpt lat="42.9017060" lon="-8.4412890">
        <ele>328.6</ele>
        <time>2021-03-03T13:27:09Z</time>
      </trkpt>
      <trkpt lat="42.9017090" lon="-8.4412640">
        <ele>328.6</ele>
        <time>2021-03-03T13:27:10Z</time>
      </trkpt>
      <trkpt lat="42.9017150" lon="-8.4412390">
        <ele>328.8</ele>
        <time>2021-03-03T13:27:11Z</time>
      </trkpt>
      <trkpt lat="42.9017190" lon="-8.4412160">
        <ele>329.0</ele>
        <time>2021-03-03T13:27:12Z</time>
      </trkpt>
      <trkpt lat="42.9017200" lon="-8.4411910">
        <ele>329.0</ele>
        <time>2021-03-03T13:27:13Z</time>
      </trkpt>
      <trkpt lat="42.9017230" lon="-8.4411670">
        <ele>329.2</ele>
        <time>2021-03-03T13:27:14Z</time>
      </trkpt>
      <trkpt lat="42.9017250" lon="-8.4411470">
        <ele>329.2</ele>
        <time>2021-03-03T13:27:15Z</time>
      </trkpt>
      <trkpt lat="42.9017240" lon="-8.4411200">
        <ele>329.4</ele>
        <time>2021-03-03T13:27:16Z</time>
      </trkpt>
      <trkpt lat="42.9017270" lon="-8.4410940">
        <ele>329.4</ele>
        <time>2021-03-03T13:27:17Z</time>
      </trkpt>
      <trkpt lat="42.9017290" lon="-8.4410650">
        <ele>329.4</ele>
        <time>2021-03-03T13:27:18Z</time>
      </trkpt>
      <trkpt lat="42.9017340" lon="-8.4410350">
        <ele>329.6</ele>
        <time>2021-03-03T13:27:19Z</time>
      </trkpt>
      <trkpt lat="42.9017380" lon="-8.4410030">
        <ele>329.6</ele>
        <time>2021-03-03T13:27:20Z</time>
      </trkpt>
      <trkpt lat="42.9017420" lon="-8.4409700">
        <ele>329.6</ele>
        <time>2021-03-03T13:27:21Z</time>
      </trkpt>
      <trkpt lat="42.9017490" lon="-8.4409360">
        <ele>329.8</ele>
        <time>2021-03-03T13:27:22Z</time>
      </trkpt>
      <trkpt lat="42.9017590" lon="-8.4409000">
        <ele>329.8</ele>
        <time>2021-03-03T13:27:23Z</time>
      </trkpt>
      <trkpt lat="42.9017680" lon="-8.4408630">
        <ele>329.8</ele>
        <time>2021-03-03T13:27:24Z</time>
      </trkpt>
      <trkpt lat="42.9017730" lon="-8.4408230">
        <ele>329.8</ele>
        <time>2021-03-03T13:27:25Z</time>
      </trkpt>
      <trkpt lat="42.9017750" lon="-8.4407820">
        <ele>330.0</ele>
        <time>2021-03-03T13:27:26Z</time>
      </trkpt>
      <trkpt lat="42.9017790" lon="-8.4407420">
        <ele>330.0</ele>
        <time>2021-03-03T13:27:27Z</time>
      </trkpt>
      <trkpt lat="42.9017820" lon="-8.4407020">
        <ele>330.0</ele>
        <time>2021-03-03T13:27:28Z</time>
      </trkpt>
      <trkpt lat="42.9017880" lon="-8.4406640">
        <ele>330.2</ele>
        <time>2021-03-03T13:27:29Z</time>
      </trkpt>
      <trkpt lat="42.9017960" lon="-8.4406270">
        <ele>330.4</ele>
        <time>2021-03-03T13:27:30Z</time>
      </trkpt>
      <trkpt lat="42.9017970" lon="-8.4405880">
        <ele>330.4</ele>
        <time>2021-03-03T13:27:31Z</time>
      </trkpt>
      <trkpt lat="42.9017970" lon="-8.4405490">
        <ele>330.6</ele>
        <time>2021-03-03T13:27:32Z</time>
      </trkpt>
      <trkpt lat="42.9017990" lon="-8.4405110">
        <ele>330.6</ele>
        <time>2021-03-03T13:27:33Z</time>
      </trkpt>
      <trkpt lat="42.9018020" lon="-8.4404720">
        <ele>330.6</ele>
        <time>2021-03-03T13:27:34Z</time>
      </trkpt>
      <trkpt lat="42.9018070" lon="-8.4404340">
        <ele>330.8</ele>
        <time>2021-03-03T13:27:35Z</time>
      </trkpt>
      <trkpt lat="42.9018140" lon="-8.4403950">
        <ele>330.8</ele>
        <time>2021-03-03T13:27:36Z</time>
      </trkpt>
      <trkpt lat="42.9018170" lon="-8.4403570">
        <ele>330.8</ele>
        <time>2021-03-03T13:27:37Z</time>
      </trkpt>
      <trkpt lat="42.9018190" lon="-8.4403170">
        <ele>330.8</ele>
        <time>2021-03-03T13:27:38Z</time>
      </trkpt>
      <trkpt lat="42.9018220" lon="-8.4402750">
        <ele>330.6</ele>
        <time>2021-03-03T13:27:39Z</time>
      </trkpt>
      <trkpt lat="42.9018260" lon="-8.4402360">
        <ele>330.8</ele>
        <time>2021-03-03T13:27:40Z</time>
      </trkpt>
      <trkpt lat="42.9018350" lon="-8.4401940">
        <ele>330.8</ele>
        <time>2021-03-03T13:27:41Z</time>
      </trkpt>
      <trkpt lat="42.9018440" lon="-8.4401540">
        <ele>330.8</ele>
        <time>2021-03-03T13:27:42Z</time>
      </trkpt>
      <trkpt lat="42.9018570" lon="-8.4401150">
        <ele>330.8</ele>
        <time>2021-03-03T13:27:43Z</time>
      </trkpt>
      <trkpt lat="42.9018710" lon="-8.4400710">
        <ele>330.8</ele>
        <time>2021-03-03T13:27:44Z</time>
      </trkpt>
      <trkpt lat="42.9018760" lon="-8.4400200">
        <ele>331.0</ele>
        <time>2021-03-03T13:27:45Z</time>
      </trkpt>
      <trkpt lat="42.9018870" lon="-8.4399720">
        <ele>330.8</ele>
        <time>2021-03-03T13:27:46Z</time>
      </trkpt>
      <trkpt lat="42.9018960" lon="-8.4399260">
        <ele>330.8</ele>
        <time>2021-03-03T13:27:47Z</time>
      </trkpt>
      <trkpt lat="42.9019030" lon="-8.4398790">
        <ele>330.8</ele>
        <time>2021-03-03T13:27:48Z</time>
      </trkpt>
      <trkpt lat="42.9019130" lon="-8.4398330">
        <ele>330.8</ele>
        <time>2021-03-03T13:27:49Z</time>
      </trkpt>
      <trkpt lat="42.9019160" lon="-8.4397850">
        <ele>330.8</ele>
        <time>2021-03-03T13:27:50Z</time>
      </trkpt>
      <trkpt lat="42.9019210" lon="-8.4397390">
        <ele>330.8</ele>
        <time>2021-03-03T13:27:51Z</time>
      </trkpt>
      <trkpt lat="42.9019260" lon="-8.4396980">
        <ele>330.8</ele>
        <time>2021-03-03T13:27:52Z</time>
      </trkpt>
      <trkpt lat="42.9019330" lon="-8.4396550">
        <ele>330.8</ele>
        <time>2021-03-03T13:27:53Z</time>
      </trkpt>
      <trkpt lat="42.9019370" lon="-8.4396100">
        <ele>331.0</ele>
        <time>2021-03-03T13:27:54Z</time>
      </trkpt>
      <trkpt lat="42.9019410" lon="-8.4395650">
        <ele>331.0</ele>
        <time>2021-03-03T13:27:55Z</time>
      </trkpt>
      <trkpt lat="42.9019470" lon="-8.4395180">
        <ele>331.0</ele>
        <time>2021-03-03T13:27:56Z</time>
      </trkpt>
      <trkpt lat="42.9019520" lon="-8.4394740">
        <ele>331.0</ele>
        <time>2021-03-03T13:27:57Z</time>
      </trkpt>
      <trkpt lat="42.9019550" lon="-8.4394280">
        <ele>330.8</ele>
        <time>2021-03-03T13:27:58Z</time>
      </trkpt>
      <trkpt lat="42.9019530" lon="-8.4393850">
        <ele>330.8</ele>
        <time>2021-03-03T13:27:59Z</time>
      </trkpt>
      <trkpt lat="42.9019530" lon="-8.4393410">
        <ele>330.8</ele>
        <time>2021-03-03T13:28:00Z</time>
      </trkpt>
      <trkpt lat="42.9019540" lon="-8.4392970">
        <ele>330.8</ele>
        <time>2021-03-03T13:28:01Z</time>
      </trkpt>
      <trkpt lat="42.9019520" lon="-8.4392530">
        <ele>330.8</ele>
        <time>2021-03-03T13:28:02Z</time>
      </trkpt>
      <trkpt lat="42.9019520" lon="-8.4392050">
        <ele>330.8</ele>
        <time>2021-03-03T13:28:03Z</time>
      </trkpt>
      <trkpt lat="42.9019540" lon="-8.4391590">
        <ele>330.8</ele>
        <time>2021-03-03T13:28:04Z</time>
      </trkpt>
      <trkpt lat="42.9019630" lon="-8.4391160">
        <ele>331.0</ele>
        <time>2021-03-03T13:28:05Z</time>
      </trkpt>
      <trkpt lat="42.9019690" lon="-8.4390710">
        <ele>331.0</ele>
        <time>2021-03-03T13:28:06Z</time>
      </trkpt>
      <trkpt lat="42.9019750" lon="-8.4390270">
        <ele>331.4</ele>
        <time>2021-03-03T13:28:07Z</time>
      </trkpt>
      <trkpt lat="42.9019770" lon="-8.4389820">
        <ele>331.4</ele>
        <time>2021-03-03T13:28:08Z</time>
      </trkpt>
      <trkpt lat="42.9019810" lon="-8.4389400">
        <ele>331.6</ele>
        <time>2021-03-03T13:28:09Z</time>
      </trkpt>
      <trkpt lat="42.9019830" lon="-8.4388920">
        <ele>331.6</ele>
        <time>2021-03-03T13:28:10Z</time>
      </trkpt>
      <trkpt lat="42.9019870" lon="-8.4388460">
        <ele>331.6</ele>
        <time>2021-03-03T13:28:11Z</time>
      </trkpt>
      <trkpt lat="42.9019880" lon="-8.4388060">
        <ele>331.6</ele>
        <time>2021-03-03T13:28:12Z</time>
      </trkpt>
      <trkpt lat="42.9019890" lon="-8.4387630">
        <ele>331.6</ele>
        <time>2021-03-03T13:28:13Z</time>
      </trkpt>
      <trkpt lat="42.9019890" lon="-8.4387070">
        <ele>331.6</ele>
        <time>2021-03-03T13:28:14Z</time>
      </trkpt>
      <trkpt lat="42.9019870" lon="-8.4386630">
        <ele>331.6</ele>
        <time>2021-03-03T13:28:15Z</time>
      </trkpt>
      <trkpt lat="42.9019880" lon="-8.4386200">
        <ele>331.6</ele>
        <time>2021-03-03T13:28:16Z</time>
      </trkpt>
      <trkpt lat="42.9019940" lon="-8.4385740">
        <ele>331.6</ele>
        <time>2021-03-03T13:28:17Z</time>
      </trkpt>
      <trkpt lat="42.9020010" lon="-8.4385340">
        <ele>331.6</ele>
        <time>2021-03-03T13:28:18Z</time>
      </trkpt>
      <trkpt lat="42.9020100" lon="-8.4384920">
        <ele>331.6</ele>
        <time>2021-03-03T13:28:19Z</time>
      </trkpt>
      <trkpt lat="42.9020210" lon="-8.4384510">
        <ele>332.2</ele>
        <time>2021-03-03T13:28:20Z</time>
      </trkpt>
      <trkpt lat="42.9020350" lon="-8.4384110">
        <ele>332.4</ele>
        <time>2021-03-03T13:28:21Z</time>
      </trkpt>
      <trkpt lat="42.9020510" lon="-8.4383710">
        <ele>332.4</ele>
        <time>2021-03-03T13:28:22Z</time>
      </trkpt>
      <trkpt lat="42.9020670" lon="-8.4383330">
        <ele>332.4</ele>
        <time>2021-03-03T13:28:23Z</time>
      </trkpt>
      <trkpt lat="42.9020800" lon="-8.4382960">
        <ele>332.4</ele>
        <time>2021-03-03T13:28:24Z</time>
      </trkpt>
      <trkpt lat="42.9020960" lon="-8.4382620">
        <ele>332.6</ele>
        <time>2021-03-03T13:28:25Z</time>
      </trkpt>
      <trkpt lat="42.9021160" lon="-8.4382280">
        <ele>332.6</ele>
        <time>2021-03-03T13:28:26Z</time>
      </trkpt>
      <trkpt lat="42.9021350" lon="-8.4381900">
        <ele>332.6</ele>
        <time>2021-03-03T13:28:27Z</time>
      </trkpt>
      <trkpt lat="42.9021560" lon="-8.4381550">
        <ele>332.8</ele>
        <time>2021-03-03T13:28:28Z</time>
      </trkpt>
      <trkpt lat="42.9021810" lon="-8.4381200">
        <ele>332.8</ele>
        <time>2021-03-03T13:28:29Z</time>
      </trkpt>
      <trkpt lat="42.9022010" lon="-8.4380850">
        <ele>332.8</ele>
        <time>2021-03-03T13:28:30Z</time>
      </trkpt>
      <trkpt lat="42.9022180" lon="-8.4380500">
        <ele>332.8</ele>
        <time>2021-03-03T13:28:31Z</time>
      </trkpt>
      <trkpt lat="42.9022350" lon="-8.4380170">
        <ele>333.0</ele>
        <time>2021-03-03T13:28:32Z</time>
      </trkpt>
      <trkpt lat="42.9022460" lon="-8.4379820">
        <ele>333.2</ele>
        <time>2021-03-03T13:28:33Z</time>
      </trkpt>
      <trkpt lat="42.9022550" lon="-8.4379470">
        <ele>333.4</ele>
        <time>2021-03-03T13:28:34Z</time>
      </trkpt>
      <trkpt lat="42.9022660" lon="-8.4379110">
        <ele>333.4</ele>
        <time>2021-03-03T13:28:35Z</time>
      </trkpt>
      <trkpt lat="42.9022790" lon="-8.4378740">
        <ele>333.4</ele>
        <time>2021-03-03T13:28:36Z</time>
      </trkpt>
      <trkpt lat="42.9022940" lon="-8.4378400">
        <ele>333.4</ele>
        <time>2021-03-03T13:28:37Z</time>
      </trkpt>
      <trkpt lat="42.9023180" lon="-8.4378050">
        <ele>333.4</ele>
        <time>2021-03-03T13:28:38Z</time>
      </trkpt>
      <trkpt lat="42.9023390" lon="-8.4377740">
        <ele>333.6</ele>
        <time>2021-03-03T13:28:39Z</time>
      </trkpt>
      <trkpt lat="42.9023600" lon="-8.4377460">
        <ele>333.8</ele>
        <time>2021-03-03T13:28:40Z</time>
      </trkpt>
      <trkpt lat="42.9023830" lon="-8.4377190">
        <ele>333.8</ele>
        <time>2021-03-03T13:28:41Z</time>
      </trkpt>
      <trkpt lat="42.9024060" lon="-8.4376980">
        <ele>333.8</ele>
        <time>2021-03-03T13:28:42Z</time>
      </trkpt>
      <trkpt lat="42.9024350" lon="-8.4376760">
        <ele>334.0</ele>
        <time>2021-03-03T13:28:43Z</time>
      </trkpt>
      <trkpt lat="42.9024590" lon="-8.4376520">
        <ele>334.0</ele>
        <time>2021-03-03T13:28:44Z</time>
      </trkpt>
      <trkpt lat="42.9024840" lon="-8.4376260">
        <ele>334.0</ele>
        <time>2021-03-03T13:28:45Z</time>
      </trkpt>
      <trkpt lat="42.9025020" lon="-8.4376020">
        <ele>334.0</ele>
        <time>2021-03-03T13:28:46Z</time>
      </trkpt>
      <trkpt lat="42.9025200" lon="-8.4375750">
        <ele>334.0</ele>
        <time>2021-03-03T13:28:47Z</time>
      </trkpt>
      <trkpt lat="42.9025380" lon="-8.4375470">
        <ele>334.0</ele>
        <time>2021-03-03T13:28:48Z</time>
      </trkpt>
      <trkpt lat="42.9025540" lon="-8.4375190">
        <ele>334.0</ele>
        <time>2021-03-03T13:28:49Z</time>
      </trkpt>
      <trkpt lat="42.9025710" lon="-8.4374890">
        <ele>334.0</ele>
        <time>2021-03-03T13:28:50Z</time>
      </trkpt>
      <trkpt lat="42.9025930" lon="-8.4374660">
        <ele>334.0</ele>
        <time>2021-03-03T13:28:51Z</time>
      </trkpt>
      <trkpt lat="42.9026110" lon="-8.4374400">
        <ele>334.0</ele>
        <time>2021-03-03T13:28:52Z</time>
      </trkpt>
      <trkpt lat="42.9026290" lon="-8.4374110">
        <ele>334.0</ele>
        <time>2021-03-03T13:28:53Z</time>
      </trkpt>
      <trkpt lat="42.9026490" lon="-8.4373860">
        <ele>334.2</ele>
        <time>2021-03-03T13:28:54Z</time>
      </trkpt>
      <trkpt lat="42.9026670" lon="-8.4373640">
        <ele>334.4</ele>
        <time>2021-03-03T13:28:55Z</time>
      </trkpt>
      <trkpt lat="42.9026830" lon="-8.4373430">
        <ele>334.4</ele>
        <time>2021-03-03T13:28:56Z</time>
      </trkpt>
      <trkpt lat="42.9026960" lon="-8.4373220">
        <ele>334.4</ele>
        <time>2021-03-03T13:28:57Z</time>
      </trkpt>
      <trkpt lat="42.9027120" lon="-8.4373020">
        <ele>334.6</ele>
        <time>2021-03-03T13:28:58Z</time>
      </trkpt>
      <trkpt lat="42.9027300" lon="-8.4372810">
        <ele>334.6</ele>
        <time>2021-03-03T13:28:59Z</time>
      </trkpt>
      <trkpt lat="42.9027470" lon="-8.4372560">
        <ele>334.8</ele>
        <time>2021-03-03T13:29:00Z</time>
      </trkpt>
      <trkpt lat="42.9027660" lon="-8.4372300">
        <ele>335.0</ele>
        <time>2021-03-03T13:29:01Z</time>
      </trkpt>
      <trkpt lat="42.9027850" lon="-8.4372010">
        <ele>335.0</ele>
        <time>2021-03-03T13:29:02Z</time>
      </trkpt>
      <trkpt lat="42.9028010" lon="-8.4371740">
        <ele>335.2</ele>
        <time>2021-03-03T13:29:03Z</time>
      </trkpt>
      <trkpt lat="42.9028150" lon="-8.4371480">
        <ele>335.2</ele>
        <time>2021-03-03T13:29:04Z</time>
      </trkpt>
      <trkpt lat="42.9028290" lon="-8.4371220">
        <ele>335.6</ele>
        <time>2021-03-03T13:29:05Z</time>
      </trkpt>
      <trkpt lat="42.9028400" lon="-8.4370980">
        <ele>335.8</ele>
        <time>2021-03-03T13:29:06Z</time>
      </trkpt>
      <trkpt lat="42.9028480" lon="-8.4370770">
        <ele>335.8</ele>
        <time>2021-03-03T13:29:07Z</time>
      </trkpt>
      <trkpt lat="42.9028570" lon="-8.4370530">
        <ele>336.2</ele>
        <time>2021-03-03T13:29:08Z</time>
      </trkpt>
      <trkpt lat="42.9028670" lon="-8.4370290">
        <ele>336.4</ele>
        <time>2021-03-03T13:29:09Z</time>
      </trkpt>
      <trkpt lat="42.9028820" lon="-8.4370030">
        <ele>336.6</ele>
        <time>2021-03-03T13:29:10Z</time>
      </trkpt>
      <trkpt lat="42.9028970" lon="-8.4369780">
        <ele>336.8</ele>
        <time>2021-03-03T13:29:11Z</time>
      </trkpt>
      <trkpt lat="42.9029130" lon="-8.4369500">
        <ele>337.0</ele>
        <time>2021-03-03T13:29:12Z</time>
      </trkpt>
      <trkpt lat="42.9029330" lon="-8.4369230">
        <ele>337.0</ele>
        <time>2021-03-03T13:29:13Z</time>
      </trkpt>
      <trkpt lat="42.9029510" lon="-8.4368940">
        <ele>337.2</ele>
        <time>2021-03-03T13:29:14Z</time>
      </trkpt>
      <trkpt lat="42.9029760" lon="-8.4368640">
        <ele>337.2</ele>
        <time>2021-03-03T13:29:15Z</time>
      </trkpt>
      <trkpt lat="42.9030020" lon="-8.4368340">
        <ele>337.2</ele>
        <time>2021-03-03T13:29:16Z</time>
      </trkpt>
      <trkpt lat="42.9030280" lon="-8.4368030">
        <ele>337.4</ele>
        <time>2021-03-03T13:29:17Z</time>
      </trkpt>
      <trkpt lat="42.9030500" lon="-8.4367740">
        <ele>337.4</ele>
        <time>2021-03-03T13:29:18Z</time>
      </trkpt>
      <trkpt lat="42.9030740" lon="-8.4367460">
        <ele>337.6</ele>
        <time>2021-03-03T13:29:19Z</time>
      </trkpt>
      <trkpt lat="42.9030960" lon="-8.4367200">
        <ele>337.6</ele>
        <time>2021-03-03T13:29:20Z</time>
      </trkpt>
      <trkpt lat="42.9031150" lon="-8.4366960">
        <ele>337.8</ele>
        <time>2021-03-03T13:29:21Z</time>
      </trkpt>
      <trkpt lat="42.9031350" lon="-8.4366690">
        <ele>337.8</ele>
        <time>2021-03-03T13:29:22Z</time>
      </trkpt>
      <trkpt lat="42.9031540" lon="-8.4366410">
        <ele>338.0</ele>
        <time>2021-03-03T13:29:23Z</time>
      </trkpt>
      <trkpt lat="42.9031710" lon="-8.4366110">
        <ele>338.0</ele>
        <time>2021-03-03T13:29:24Z</time>
      </trkpt>
      <trkpt lat="42.9031870" lon="-8.4365810">
        <ele>338.0</ele>
        <time>2021-03-03T13:29:25Z</time>
      </trkpt>
      <trkpt lat="42.9032030" lon="-8.4365500">
        <ele>338.2</ele>
        <time>2021-03-03T13:29:26Z</time>
      </trkpt>
      <trkpt lat="42.9032230" lon="-8.4365200">
        <ele>338.2</ele>
        <time>2021-03-03T13:29:27Z</time>
      </trkpt>
      <trkpt lat="42.9032450" lon="-8.4364900">
        <ele>338.4</ele>
        <time>2021-03-03T13:29:28Z</time>
      </trkpt>
      <trkpt lat="42.9032660" lon="-8.4364620">
        <ele>338.6</ele>
        <time>2021-03-03T13:29:29Z</time>
      </trkpt>
      <trkpt lat="42.9032860" lon="-8.4364340">
        <ele>338.8</ele>
        <time>2021-03-03T13:29:30Z</time>
      </trkpt>
      <trkpt lat="42.9033060" lon="-8.4364030">
        <ele>338.6</ele>
        <time>2021-03-03T13:29:31Z</time>
      </trkpt>
      <trkpt lat="42.9033240" lon="-8.4363730">
        <ele>338.8</ele>
        <time>2021-03-03T13:29:32Z</time>
      </trkpt>
      <trkpt lat="42.9033480" lon="-8.4363450">
        <ele>338.8</ele>
        <time>2021-03-03T13:29:33Z</time>
      </trkpt>
      <trkpt lat="42.9033730" lon="-8.4363160">
        <ele>338.8</ele>
        <time>2021-03-03T13:29:34Z</time>
      </trkpt>
      <trkpt lat="42.9033910" lon="-8.4362850">
        <ele>338.8</ele>
        <time>2021-03-03T13:29:35Z</time>
      </trkpt>
      <trkpt lat="42.9034130" lon="-8.4362540">
        <ele>338.8</ele>
        <time>2021-03-03T13:29:36Z</time>
      </trkpt>
      <trkpt lat="42.9034340" lon="-8.4362240">
        <ele>339.0</ele>
        <time>2021-03-03T13:29:37Z</time>
      </trkpt>
      <trkpt lat="42.9034550" lon="-8.4361920">
        <ele>339.0</ele>
        <time>2021-03-03T13:29:38Z</time>
      </trkpt>
      <trkpt lat="42.9034750" lon="-8.4361600">
        <ele>339.2</ele>
        <time>2021-03-03T13:29:39Z</time>
      </trkpt>
      <trkpt lat="42.9034950" lon="-8.4361310">
        <ele>339.2</ele>
        <time>2021-03-03T13:29:40Z</time>
      </trkpt>
      <trkpt lat="42.9035190" lon="-8.4361010">
        <ele>339.2</ele>
        <time>2021-03-03T13:29:41Z</time>
      </trkpt>
      <trkpt lat="42.9035430" lon="-8.4360720">
        <ele>339.4</ele>
        <time>2021-03-03T13:29:42Z</time>
      </trkpt>
      <trkpt lat="42.9035640" lon="-8.4360420">
        <ele>339.4</ele>
        <time>2021-03-03T13:29:43Z</time>
      </trkpt>
      <trkpt lat="42.9035850" lon="-8.4360150">
        <ele>339.4</ele>
        <time>2021-03-03T13:29:44Z</time>
      </trkpt>
      <trkpt lat="42.9036010" lon="-8.4359890">
        <ele>339.4</ele>
        <time>2021-03-03T13:29:45Z</time>
      </trkpt>
      <trkpt lat="42.9036190" lon="-8.4359610">
        <ele>339.8</ele>
        <time>2021-03-03T13:29:46Z</time>
      </trkpt>
      <trkpt lat="42.9036340" lon="-8.4359330">
        <ele>340.0</ele>
        <time>2021-03-03T13:29:47Z</time>
      </trkpt>
      <trkpt lat="42.9036530" lon="-8.4359020">
        <ele>340.2</ele>
        <time>2021-03-03T13:29:48Z</time>
      </trkpt>
      <trkpt lat="42.9036700" lon="-8.4358730">
        <ele>340.2</ele>
        <time>2021-03-03T13:29:49Z</time>
      </trkpt>
      <trkpt lat="42.9036880" lon="-8.4358430">
        <ele>340.4</ele>
        <time>2021-03-03T13:29:50Z</time>
      </trkpt>
      <trkpt lat="42.9037110" lon="-8.4358170">
        <ele>340.4</ele>
        <time>2021-03-03T13:29:51Z</time>
      </trkpt>
      <trkpt lat="42.9037370" lon="-8.4357920">
        <ele>340.6</ele>
        <time>2021-03-03T13:29:52Z</time>
      </trkpt>
      <trkpt lat="42.9037660" lon="-8.4357660">
        <ele>340.6</ele>
        <time>2021-03-03T13:29:53Z</time>
      </trkpt>
      <trkpt lat="42.9037910" lon="-8.4357390">
        <ele>340.6</ele>
        <time>2021-03-03T13:29:54Z</time>
      </trkpt>
      <trkpt lat="42.9038130" lon="-8.4357080">
        <ele>340.6</ele>
        <time>2021-03-03T13:29:55Z</time>
      </trkpt>
      <trkpt lat="42.9038330" lon="-8.4356810">
        <ele>340.8</ele>
        <time>2021-03-03T13:29:56Z</time>
      </trkpt>
      <trkpt lat="42.9038440" lon="-8.4356460">
        <ele>341.0</ele>
        <time>2021-03-03T13:29:57Z</time>
      </trkpt>
      <trkpt lat="42.9038640" lon="-8.4356230">
        <ele>341.2</ele>
        <time>2021-03-03T13:29:58Z</time>
      </trkpt>
      <trkpt lat="42.9038840" lon="-8.4355980">
        <ele>341.2</ele>
        <time>2021-03-03T13:29:59Z</time>
      </trkpt>
      <trkpt lat="42.9039060" lon="-8.4355690">
        <ele>341.4</ele>
        <time>2021-03-03T13:30:00Z</time>
      </trkpt>
      <trkpt lat="42.9039240" lon="-8.4355430">
        <ele>341.6</ele>
        <time>2021-03-03T13:30:01Z</time>
      </trkpt>
      <trkpt lat="42.9039420" lon="-8.4355160">
        <ele>341.8</ele>
        <time>2021-03-03T13:30:02Z</time>
      </trkpt>
      <trkpt lat="42.9039500" lon="-8.4354900">
        <ele>342.0</ele>
        <time>2021-03-03T13:30:03Z</time>
      </trkpt>
      <trkpt lat="42.9039630" lon="-8.4354630">
        <ele>342.0</ele>
        <time>2021-03-03T13:30:04Z</time>
      </trkpt>
      <trkpt lat="42.9039800" lon="-8.4354390">
        <ele>342.2</ele>
        <time>2021-03-03T13:30:05Z</time>
      </trkpt>
      <trkpt lat="42.9039970" lon="-8.4354130">
        <ele>342.2</ele>
        <time>2021-03-03T13:30:06Z</time>
      </trkpt>
      <trkpt lat="42.9040230" lon="-8.4353860">
        <ele>342.2</ele>
        <time>2021-03-03T13:30:07Z</time>
      </trkpt>
      <trkpt lat="42.9040440" lon="-8.4353560">
        <ele>342.4</ele>
        <time>2021-03-03T13:30:08Z</time>
      </trkpt>
      <trkpt lat="42.9040660" lon="-8.4353240">
        <ele>342.6</ele>
        <time>2021-03-03T13:30:09Z</time>
      </trkpt>
      <trkpt lat="42.9040910" lon="-8.4352910">
        <ele>342.8</ele>
        <time>2021-03-03T13:30:10Z</time>
      </trkpt>
      <trkpt lat="42.9041160" lon="-8.4352580">
        <ele>342.8</ele>
        <time>2021-03-03T13:30:11Z</time>
      </trkpt>
      <trkpt lat="42.9041340" lon="-8.4352280">
        <ele>342.8</ele>
        <time>2021-03-03T13:30:12Z</time>
      </trkpt>
      <trkpt lat="42.9041520" lon="-8.4352050">
        <ele>342.8</ele>
        <time>2021-03-03T13:30:13Z</time>
      </trkpt>
      <trkpt lat="42.9041700" lon="-8.4351820">
        <ele>343.0</ele>
        <time>2021-03-03T13:30:14Z</time>
      </trkpt>
      <trkpt lat="42.9041870" lon="-8.4351540">
        <ele>343.2</ele>
        <time>2021-03-03T13:30:15Z</time>
      </trkpt>
      <trkpt lat="42.9041920" lon="-8.4351270">
        <ele>343.2</ele>
        <time>2021-03-03T13:30:16Z</time>
      </trkpt>
      <trkpt lat="42.9041860" lon="-8.4350940">
        <ele>343.4</ele>
        <time>2021-03-03T13:30:17Z</time>
      </trkpt>
      <trkpt lat="42.9041750" lon="-8.4350560">
        <ele>343.4</ele>
        <time>2021-03-03T13:30:18Z</time>
      </trkpt>
      <trkpt lat="42.9041660" lon="-8.4350200">
        <ele>343.4</ele>
        <time>2021-03-03T13:30:19Z</time>
      </trkpt>
      <trkpt lat="42.9041610" lon="-8.4349700">
        <ele>343.4</ele>
        <time>2021-03-03T13:30:20Z</time>
      </trkpt>
      <trkpt lat="42.9041580" lon="-8.4349240">
        <ele>343.4</ele>
        <time>2021-03-03T13:30:21Z</time>
      </trkpt>
      <trkpt lat="42.9041570" lon="-8.4348730">
        <ele>343.4</ele>
        <time>2021-03-03T13:30:22Z</time>
      </trkpt>
      <trkpt lat="42.9041520" lon="-8.4348270">
        <ele>343.6</ele>
        <time>2021-03-03T13:30:23Z</time>
      </trkpt>
      <trkpt lat="42.9041490" lon="-8.4347840">
        <ele>343.6</ele>
        <time>2021-03-03T13:30:24Z</time>
      </trkpt>
      <trkpt lat="42.9041450" lon="-8.4347450">
        <ele>343.6</ele>
        <time>2021-03-03T13:30:25Z</time>
      </trkpt>
      <trkpt lat="42.9041440" lon="-8.4347040">
        <ele>343.6</ele>
        <time>2021-03-03T13:30:26Z</time>
      </trkpt>
      <trkpt lat="42.9041460" lon="-8.4346620">
        <ele>343.8</ele>
        <time>2021-03-03T13:30:27Z</time>
      </trkpt>
      <trkpt lat="42.9041530" lon="-8.4346200">
        <ele>343.8</ele>
        <time>2021-03-03T13:30:28Z</time>
      </trkpt>
      <trkpt lat="42.9041610" lon="-8.4345770">
        <ele>343.8</ele>
        <time>2021-03-03T13:30:29Z</time>
      </trkpt>
      <trkpt lat="42.9041690" lon="-8.4345310">
        <ele>343.8</ele>
        <time>2021-03-03T13:30:30Z</time>
      </trkpt>
      <trkpt lat="42.9041750" lon="-8.4344910">
        <ele>343.8</ele>
        <time>2021-03-03T13:30:31Z</time>
      </trkpt>
      <trkpt lat="42.9041820" lon="-8.4344530">
        <ele>343.8</ele>
        <time>2021-03-03T13:30:32Z</time>
      </trkpt>
      <trkpt lat="42.9041910" lon="-8.4344150">
        <ele>344.0</ele>
        <time>2021-03-03T13:30:33Z</time>
      </trkpt>
      <trkpt lat="42.9042000" lon="-8.4343770">
        <ele>344.0</ele>
        <time>2021-03-03T13:30:34Z</time>
      </trkpt>
      <trkpt lat="42.9042080" lon="-8.4343370">
        <ele>344.0</ele>
        <time>2021-03-03T13:30:35Z</time>
      </trkpt>
      <trkpt lat="42.9042080" lon="-8.4342970">
        <ele>344.0</ele>
        <time>2021-03-03T13:30:36Z</time>
      </trkpt>
      <trkpt lat="42.9042070" lon="-8.4342560">
        <ele>344.0</ele>
        <time>2021-03-03T13:30:37Z</time>
      </trkpt>
      <trkpt lat="42.9042110" lon="-8.4342140">
        <ele>344.0</ele>
        <time>2021-03-03T13:30:38Z</time>
      </trkpt>
      <trkpt lat="42.9042240" lon="-8.4341680">
        <ele>344.0</ele>
        <time>2021-03-03T13:30:39Z</time>
      </trkpt>
      <trkpt lat="42.9042370" lon="-8.4341210">
        <ele>344.0</ele>
        <time>2021-03-03T13:30:40Z</time>
      </trkpt>
      <trkpt lat="42.9042440" lon="-8.4340830">
        <ele>344.2</ele>
        <time>2021-03-03T13:30:41Z</time>
      </trkpt>
      <trkpt lat="42.9042500" lon="-8.4340400">
        <ele>344.2</ele>
        <time>2021-03-03T13:30:42Z</time>
      </trkpt>
      <trkpt lat="42.9042590" lon="-8.4339960">
        <ele>344.2</ele>
        <time>2021-03-03T13:30:43Z</time>
      </trkpt>
      <trkpt lat="42.9042710" lon="-8.4339510">
        <ele>344.2</ele>
        <time>2021-03-03T13:30:44Z</time>
      </trkpt>
      <trkpt lat="42.9042820" lon="-8.4339040">
        <ele>344.4</ele>
        <time>2021-03-03T13:30:45Z</time>
      </trkpt>
      <trkpt lat="42.9042890" lon="-8.4338620">
        <ele>344.4</ele>
        <time>2021-03-03T13:30:46Z</time>
      </trkpt>
      <trkpt lat="42.9042960" lon="-8.4338240">
        <ele>344.2</ele>
        <time>2021-03-03T13:30:47Z</time>
      </trkpt>
      <trkpt lat="42.9043010" lon="-8.4337880">
        <ele>344.4</ele>
        <time>2021-03-03T13:30:48Z</time>
      </trkpt>
      <trkpt lat="42.9043010" lon="-8.4337510">
        <ele>344.4</ele>
        <time>2021-03-03T13:30:49Z</time>
      </trkpt>
      <trkpt lat="42.9043040" lon="-8.4337110">
        <ele>344.6</ele>
        <time>2021-03-03T13:30:50Z</time>
      </trkpt>
      <trkpt lat="42.9043060" lon="-8.4336730">
        <ele>344.8</ele>
        <time>2021-03-03T13:30:51Z</time>
      </trkpt>
      <trkpt lat="42.9043160" lon="-8.4336350">
        <ele>344.8</ele>
        <time>2021-03-03T13:30:52Z</time>
      </trkpt>
      <trkpt lat="42.9043240" lon="-8.4335980">
        <ele>344.8</ele>
        <time>2021-03-03T13:30:53Z</time>
      </trkpt>
      <trkpt lat="42.9043330" lon="-8.4335570">
        <ele>344.8</ele>
        <time>2021-03-03T13:30:54Z</time>
      </trkpt>
      <trkpt lat="42.9043440" lon="-8.4335200">
        <ele>344.8</ele>
        <time>2021-03-03T13:30:55Z</time>
      </trkpt>
      <trkpt lat="42.9043720" lon="-8.4334800">
        <ele>344.8</ele>
        <time>2021-03-03T13:30:56Z</time>
      </trkpt>
      <trkpt lat="42.9043850" lon="-8.4334500">
        <ele>344.8</ele>
        <time>2021-03-03T13:30:57Z</time>
      </trkpt>
      <trkpt lat="42.9043950" lon="-8.4334170">
        <ele>344.8</ele>
        <time>2021-03-03T13:30:58Z</time>
      </trkpt>
      <trkpt lat="42.9044130" lon="-8.4333780">
        <ele>344.8</ele>
        <time>2021-03-03T13:30:59Z</time>
      </trkpt>
      <trkpt lat="42.9044380" lon="-8.4333400">
        <ele>344.8</ele>
        <time>2021-03-03T13:31:00Z</time>
      </trkpt>
      <trkpt lat="42.9044470" lon="-8.4333050">
        <ele>344.8</ele>
        <time>2021-03-03T13:31:01Z</time>
      </trkpt>
      <trkpt lat="42.9044570" lon="-8.4332760">
        <ele>344.8</ele>
        <time>2021-03-03T13:31:02Z</time>
      </trkpt>
      <trkpt lat="42.9044740" lon="-8.4332380">
        <ele>344.8</ele>
        <time>2021-03-03T13:31:03Z</time>
      </trkpt>
      <trkpt lat="42.9044890" lon="-8.4332020">
        <ele>344.8</ele>
        <time>2021-03-03T13:31:04Z</time>
      </trkpt>
      <trkpt lat="42.9045010" lon="-8.4331650">
        <ele>344.8</ele>
        <time>2021-03-03T13:31:05Z</time>
      </trkpt>
      <trkpt lat="42.9045180" lon="-8.4331230">
        <ele>344.8</ele>
        <time>2021-03-03T13:31:06Z</time>
      </trkpt>
      <trkpt lat="42.9045300" lon="-8.4330800">
        <ele>345.2</ele>
        <time>2021-03-03T13:31:07Z</time>
      </trkpt>
      <trkpt lat="42.9045440" lon="-8.4330470">
        <ele>345.4</ele>
        <time>2021-03-03T13:31:08Z</time>
      </trkpt>
      <trkpt lat="42.9045600" lon="-8.4330150">
        <ele>345.6</ele>
        <time>2021-03-03T13:31:09Z</time>
      </trkpt>
      <trkpt lat="42.9045800" lon="-8.4329820">
        <ele>345.6</ele>
        <time>2021-03-03T13:31:10Z</time>
      </trkpt>
      <trkpt lat="42.9046060" lon="-8.4329520">
        <ele>345.8</ele>
        <time>2021-03-03T13:31:11Z</time>
      </trkpt>
      <trkpt lat="42.9046240" lon="-8.4329230">
        <ele>346.0</ele>
        <time>2021-03-03T13:31:12Z</time>
      </trkpt>
      <trkpt lat="42.9046450" lon="-8.4328950">
        <ele>346.0</ele>
        <time>2021-03-03T13:31:13Z</time>
      </trkpt>
      <trkpt lat="42.9046690" lon="-8.4328650">
        <ele>346.2</ele>
        <time>2021-03-03T13:31:14Z</time>
      </trkpt>
      <trkpt lat="42.9046920" lon="-8.4328370">
        <ele>346.4</ele>
        <time>2021-03-03T13:31:15Z</time>
      </trkpt>
      <trkpt lat="42.9047140" lon="-8.4328080">
        <ele>346.4</ele>
        <time>2021-03-03T13:31:16Z</time>
      </trkpt>
      <trkpt lat="42.9047400" lon="-8.4327800">
        <ele>346.4</ele>
        <time>2021-03-03T13:31:17Z</time>
      </trkpt>
      <trkpt lat="42.9047660" lon="-8.4327510">
        <ele>346.4</ele>
        <time>2021-03-03T13:31:18Z</time>
      </trkpt>
      <trkpt lat="42.9047950" lon="-8.4327210">
        <ele>346.6</ele>
        <time>2021-03-03T13:31:19Z</time>
      </trkpt>
      <trkpt lat="42.9048210" lon="-8.4326840">
        <ele>346.6</ele>
        <time>2021-03-03T13:31:20Z</time>
      </trkpt>
      <trkpt lat="42.9048400" lon="-8.4326620">
        <ele>346.6</ele>
        <time>2021-03-03T13:31:21Z</time>
      </trkpt>
      <trkpt lat="42.9048590" lon="-8.4326360">
        <ele>346.8</ele>
        <time>2021-03-03T13:31:22Z</time>
      </trkpt>
      <trkpt lat="42.9048730" lon="-8.4326070">
        <ele>347.0</ele>
        <time>2021-03-03T13:31:23Z</time>
      </trkpt>
      <trkpt lat="42.9048900" lon="-8.4325800">
        <ele>347.2</ele>
        <time>2021-03-03T13:31:24Z</time>
      </trkpt>
      <trkpt lat="42.9049090" lon="-8.4325510">
        <ele>347.4</ele>
        <time>2021-03-03T13:31:25Z</time>
      </trkpt>
      <trkpt lat="42.9049290" lon="-8.4325240">
        <ele>347.4</ele>
        <time>2021-03-03T13:31:26Z</time>
      </trkpt>
      <trkpt lat="42.9049440" lon="-8.4324990">
        <ele>347.6</ele>
        <time>2021-03-03T13:31:27Z</time>
      </trkpt>
      <trkpt lat="42.9049590" lon="-8.4324750">
        <ele>347.6</ele>
        <time>2021-03-03T13:31:28Z</time>
      </trkpt>
      <trkpt lat="42.9049740" lon="-8.4324470">
        <ele>347.6</ele>
        <time>2021-03-03T13:31:29Z</time>
      </trkpt>
      <trkpt lat="42.9049870" lon="-8.4324170">
        <ele>347.8</ele>
        <time>2021-03-03T13:31:30Z</time>
      </trkpt>
      <trkpt lat="42.9050070" lon="-8.4323770">
        <ele>348.0</ele>
        <time>2021-03-03T13:31:31Z</time>
      </trkpt>
      <trkpt lat="42.9050360" lon="-8.4323410">
        <ele>348.2</ele>
        <time>2021-03-03T13:31:32Z</time>
      </trkpt>
      <trkpt lat="42.9050550" lon="-8.4323090">
        <ele>348.4</ele>
        <time>2021-03-03T13:31:33Z</time>
      </trkpt>
      <trkpt lat="42.9050790" lon="-8.4322800">
        <ele>348.4</ele>
        <time>2021-03-03T13:31:34Z</time>
      </trkpt>
      <trkpt lat="42.9051010" lon="-8.4322440">
        <ele>348.6</ele>
        <time>2021-03-03T13:31:35Z</time>
      </trkpt>
      <trkpt lat="42.9051200" lon="-8.4322120">
        <ele>348.8</ele>
        <time>2021-03-03T13:31:36Z</time>
      </trkpt>
      <trkpt lat="42.9051320" lon="-8.4321860">
        <ele>349.0</ele>
        <time>2021-03-03T13:31:37Z</time>
      </trkpt>
      <trkpt lat="42.9051470" lon="-8.4321610">
        <ele>349.2</ele>
        <time>2021-03-03T13:31:38Z</time>
      </trkpt>
      <trkpt lat="42.9051570" lon="-8.4321370">
        <ele>349.2</ele>
        <time>2021-03-03T13:31:39Z</time>
      </trkpt>
      <trkpt lat="42.9051640" lon="-8.4321160">
        <ele>349.4</ele>
        <time>2021-03-03T13:31:40Z</time>
      </trkpt>
      <trkpt lat="42.9051740" lon="-8.4320940">
        <ele>349.4</ele>
        <time>2021-03-03T13:31:41Z</time>
      </trkpt>
      <trkpt lat="42.9051830" lon="-8.4320750">
        <ele>349.6</ele>
        <time>2021-03-03T13:31:42Z</time>
      </trkpt>
      <trkpt lat="42.9051900" lon="-8.4320570">
        <ele>349.8</ele>
        <time>2021-03-03T13:31:43Z</time>
      </trkpt>
      <trkpt lat="42.9051950" lon="-8.4320360">
        <ele>350.0</ele>
        <time>2021-03-03T13:31:44Z</time>
      </trkpt>
      <trkpt lat="42.9051960" lon="-8.4320150">
        <ele>350.0</ele>
        <time>2021-03-03T13:31:45Z</time>
      </trkpt>
      <trkpt lat="42.9052010" lon="-8.4319980">
        <ele>350.2</ele>
        <time>2021-03-03T13:31:46Z</time>
      </trkpt>
      <trkpt lat="42.9052130" lon="-8.4319810">
        <ele>350.6</ele>
        <time>2021-03-03T13:31:47Z</time>
      </trkpt>
      <trkpt lat="42.9052230" lon="-8.4319670">
        <ele>350.8</ele>
        <time>2021-03-03T13:31:48Z</time>
      </trkpt>
      <trkpt lat="42.9052370" lon="-8.4319420">
        <ele>351.0</ele>
        <time>2021-03-03T13:31:49Z</time>
      </trkpt>
      <trkpt lat="42.9052430" lon="-8.4319270">
        <ele>351.2</ele>
        <time>2021-03-03T13:31:50Z</time>
      </trkpt>
      <trkpt lat="42.9052460" lon="-8.4319110">
        <ele>351.2</ele>
        <time>2021-03-03T13:31:51Z</time>
      </trkpt>
      <trkpt lat="42.9052520" lon="-8.4318950">
        <ele>351.4</ele>
        <time>2021-03-03T13:31:52Z</time>
      </trkpt>
      <trkpt lat="42.9052570" lon="-8.4318800">
        <ele>351.8</ele>
        <time>2021-03-03T13:31:53Z</time>
      </trkpt>
      <trkpt lat="42.9052640" lon="-8.4318640">
        <ele>352.0</ele>
        <time>2021-03-03T13:31:54Z</time>
      </trkpt>
      <trkpt lat="42.9052700" lon="-8.4318480">
        <ele>352.2</ele>
        <time>2021-03-03T13:31:55Z</time>
      </trkpt>
      <trkpt lat="42.9052770" lon="-8.4318310">
        <ele>352.4</ele>
        <time>2021-03-03T13:31:56Z</time>
      </trkpt>
      <trkpt lat="42.9052830" lon="-8.4318140">
        <ele>352.8</ele>
        <time>2021-03-03T13:31:57Z</time>
      </trkpt>
      <trkpt lat="42.9052890" lon="-8.4317960">
        <ele>353.2</ele>
        <time>2021-03-03T13:31:58Z</time>
      </trkpt>
      <trkpt lat="42.9052950" lon="-8.4317750">
        <ele>353.4</ele>
        <time>2021-03-03T13:31:59Z</time>
      </trkpt>
      <trkpt lat="42.9052970" lon="-8.4317570">
        <ele>353.6</ele>
        <time>2021-03-03T13:32:00Z</time>
      </trkpt>
      <trkpt lat="42.9053010" lon="-8.4317340">
        <ele>353.8</ele>
        <time>2021-03-03T13:32:01Z</time>
      </trkpt>
      <trkpt lat="42.9053190" lon="-8.4317070">
        <ele>354.0</ele>
        <time>2021-03-03T13:32:02Z</time>
      </trkpt>
      <trkpt lat="42.9053280" lon="-8.4316880">
        <ele>354.4</ele>
        <time>2021-03-03T13:32:03Z</time>
      </trkpt>
      <trkpt lat="42.9053370" lon="-8.4316690">
        <ele>354.6</ele>
        <time>2021-03-03T13:32:04Z</time>
      </trkpt>
      <trkpt lat="42.9053480" lon="-8.4316500">
        <ele>354.6</ele>
        <time>2021-03-03T13:32:05Z</time>
      </trkpt>
      <trkpt lat="42.9053610" lon="-8.4316320">
        <ele>354.8</ele>
        <time>2021-03-03T13:32:06Z</time>
      </trkpt>
      <trkpt lat="42.9053700" lon="-8.4316110">
        <ele>354.8</ele>
        <time>2021-03-03T13:32:07Z</time>
      </trkpt>
      <trkpt lat="42.9053750" lon="-8.4315790">
        <ele>355.0</ele>
        <time>2021-03-03T13:32:08Z</time>
      </trkpt>
      <trkpt lat="42.9053780" lon="-8.4315490">
        <ele>355.2</ele>
        <time>2021-03-03T13:32:09Z</time>
      </trkpt>
      <trkpt lat="42.9053820" lon="-8.4315190">
        <ele>355.2</ele>
        <time>2021-03-03T13:32:10Z</time>
      </trkpt>
      <trkpt lat="42.9053900" lon="-8.4314920">
        <ele>355.4</ele>
        <time>2021-03-03T13:32:11Z</time>
      </trkpt>
      <trkpt lat="42.9054000" lon="-8.4314670">
        <ele>355.4</ele>
        <time>2021-03-03T13:32:12Z</time>
      </trkpt>
      <trkpt lat="42.9054080" lon="-8.4314450">
        <ele>355.4</ele>
        <time>2021-03-03T13:32:13Z</time>
      </trkpt>
      <trkpt lat="42.9054110" lon="-8.4314230">
        <ele>355.6</ele>
        <time>2021-03-03T13:32:14Z</time>
      </trkpt>
      <trkpt lat="42.9054150" lon="-8.4314030">
        <ele>355.8</ele>
        <time>2021-03-03T13:32:15Z</time>
      </trkpt>
      <trkpt lat="42.9054190" lon="-8.4313730">
        <ele>356.0</ele>
        <time>2021-03-03T13:32:16Z</time>
      </trkpt>
      <trkpt lat="42.9054190" lon="-8.4313480">
        <ele>356.0</ele>
        <time>2021-03-03T13:32:17Z</time>
      </trkpt>
      <trkpt lat="42.9054150" lon="-8.4313200">
        <ele>356.2</ele>
        <time>2021-03-03T13:32:18Z</time>
      </trkpt>
      <trkpt lat="42.9054120" lon="-8.4312960">
        <ele>356.2</ele>
        <time>2021-03-03T13:32:19Z</time>
      </trkpt>
      <trkpt lat="42.9054090" lon="-8.4312730">
        <ele>356.4</ele>
        <time>2021-03-03T13:32:20Z</time>
      </trkpt>
      <trkpt lat="42.9054080" lon="-8.4312520">
        <ele>356.4</ele>
        <time>2021-03-03T13:32:21Z</time>
      </trkpt>
      <trkpt lat="42.9054100" lon="-8.4312320">
        <ele>356.4</ele>
        <time>2021-03-03T13:32:22Z</time>
      </trkpt>
      <trkpt lat="42.9054120" lon="-8.4312060">
        <ele>356.4</ele>
        <time>2021-03-03T13:32:23Z</time>
      </trkpt>
      <trkpt lat="42.9054110" lon="-8.4311780">
        <ele>356.4</ele>
        <time>2021-03-03T13:32:24Z</time>
      </trkpt>
      <trkpt lat="42.9054130" lon="-8.4311500">
        <ele>356.4</ele>
        <time>2021-03-03T13:32:25Z</time>
      </trkpt>
      <trkpt lat="42.9054170" lon="-8.4311200">
        <ele>356.4</ele>
        <time>2021-03-03T13:32:26Z</time>
      </trkpt>
      <trkpt lat="42.9054230" lon="-8.4310920">
        <ele>356.6</ele>
        <time>2021-03-03T13:32:27Z</time>
      </trkpt>
      <trkpt lat="42.9054300" lon="-8.4310620">
        <ele>356.6</ele>
        <time>2021-03-03T13:32:28Z</time>
      </trkpt>
      <trkpt lat="42.9054360" lon="-8.4310290">
        <ele>356.8</ele>
        <time>2021-03-03T13:32:29Z</time>
      </trkpt>
      <trkpt lat="42.9054430" lon="-8.4309940">
        <ele>356.8</ele>
        <time>2021-03-03T13:32:30Z</time>
      </trkpt>
      <trkpt lat="42.9054530" lon="-8.4309590">
        <ele>356.8</ele>
        <time>2021-03-03T13:32:31Z</time>
      </trkpt>
      <trkpt lat="42.9054640" lon="-8.4309250">
        <ele>356.6</ele>
        <time>2021-03-03T13:32:32Z</time>
      </trkpt>
      <trkpt lat="42.9054790" lon="-8.4308890">
        <ele>356.4</ele>
        <time>2021-03-03T13:32:33Z</time>
      </trkpt>
      <trkpt lat="42.9054900" lon="-8.4308530">
        <ele>356.4</ele>
        <time>2021-03-03T13:32:34Z</time>
      </trkpt>
      <trkpt lat="42.9055040" lon="-8.4308190">
        <ele>356.4</ele>
        <time>2021-03-03T13:32:35Z</time>
      </trkpt>
      <trkpt lat="42.9055170" lon="-8.4307850">
        <ele>356.2</ele>
        <time>2021-03-03T13:32:36Z</time>
      </trkpt>
      <trkpt lat="42.9055350" lon="-8.4307530">
        <ele>356.2</ele>
        <time>2021-03-03T13:32:37Z</time>
      </trkpt>
      <trkpt lat="42.9055520" lon="-8.4307230">
        <ele>356.0</ele>
        <time>2021-03-03T13:32:38Z</time>
      </trkpt>
      <trkpt lat="42.9055640" lon="-8.4306870">
        <ele>356.0</ele>
        <time>2021-03-03T13:32:39Z</time>
      </trkpt>
      <trkpt lat="42.9055800" lon="-8.4306490">
        <ele>355.8</ele>
        <time>2021-03-03T13:32:40Z</time>
      </trkpt>
      <trkpt lat="42.9055940" lon="-8.4306180">
        <ele>355.8</ele>
        <time>2021-03-03T13:32:41Z</time>
      </trkpt>
      <trkpt lat="42.9056180" lon="-8.4305750">
        <ele>355.6</ele>
        <time>2021-03-03T13:32:42Z</time>
      </trkpt>
      <trkpt lat="42.9056400" lon="-8.4305380">
        <ele>355.4</ele>
        <time>2021-03-03T13:32:43Z</time>
      </trkpt>
      <trkpt lat="42.9056640" lon="-8.4304990">
        <ele>355.2</ele>
        <time>2021-03-03T13:32:44Z</time>
      </trkpt>
      <trkpt lat="42.9056890" lon="-8.4304590">
        <ele>355.0</ele>
        <time>2021-03-03T13:32:45Z</time>
      </trkpt>
      <trkpt lat="42.9057080" lon="-8.4304170">
        <ele>355.0</ele>
        <time>2021-03-03T13:32:46Z</time>
      </trkpt>
      <trkpt lat="42.9057310" lon="-8.4303790">
        <ele>354.8</ele>
        <time>2021-03-03T13:32:47Z</time>
      </trkpt>
      <trkpt lat="42.9057560" lon="-8.4303420">
        <ele>354.6</ele>
        <time>2021-03-03T13:32:48Z</time>
      </trkpt>
      <trkpt lat="42.9057810" lon="-8.4303080">
        <ele>354.4</ele>
        <time>2021-03-03T13:32:49Z</time>
      </trkpt>
      <trkpt lat="42.9058050" lon="-8.4302740">
        <ele>354.4</ele>
        <time>2021-03-03T13:32:50Z</time>
      </trkpt>
      <trkpt lat="42.9058310" lon="-8.4302410">
        <ele>354.4</ele>
        <time>2021-03-03T13:32:51Z</time>
      </trkpt>
      <trkpt lat="42.9058560" lon="-8.4302100">
        <ele>354.4</ele>
        <time>2021-03-03T13:32:52Z</time>
      </trkpt>
      <trkpt lat="42.9058800" lon="-8.4301830">
        <ele>354.4</ele>
        <time>2021-03-03T13:32:53Z</time>
      </trkpt>
      <trkpt lat="42.9059060" lon="-8.4301560">
        <ele>354.2</ele>
        <time>2021-03-03T13:32:54Z</time>
      </trkpt>
      <trkpt lat="42.9059300" lon="-8.4301330">
        <ele>354.2</ele>
        <time>2021-03-03T13:32:55Z</time>
      </trkpt>
      <trkpt lat="42.9059570" lon="-8.4301120">
        <ele>354.2</ele>
        <time>2021-03-03T13:32:56Z</time>
      </trkpt>
      <trkpt lat="42.9059830" lon="-8.4300930">
        <ele>354.2</ele>
        <time>2021-03-03T13:32:57Z</time>
      </trkpt>
      <trkpt lat="42.9060110" lon="-8.4300730">
        <ele>354.2</ele>
        <time>2021-03-03T13:32:58Z</time>
      </trkpt>
      <trkpt lat="42.9060400" lon="-8.4300540">
        <ele>354.0</ele>
        <time>2021-03-03T13:32:59Z</time>
      </trkpt>
      <trkpt lat="42.9060660" lon="-8.4300340">
        <ele>354.0</ele>
        <time>2021-03-03T13:33:00Z</time>
      </trkpt>
      <trkpt lat="42.9060870" lon="-8.4300130">
        <ele>353.8</ele>
        <time>2021-03-03T13:33:01Z</time>
      </trkpt>
      <trkpt lat="42.9061020" lon="-8.4299940">
        <ele>353.8</ele>
        <time>2021-03-03T13:33:02Z</time>
      </trkpt>
      <trkpt lat="42.9061140" lon="-8.4299700">
        <ele>353.6</ele>
        <time>2021-03-03T13:33:03Z</time>
      </trkpt>
      <trkpt lat="42.9061400" lon="-8.4299620">
        <ele>353.6</ele>
        <time>2021-03-03T13:33:04Z</time>
      </trkpt>
      <trkpt lat="42.9061780" lon="-8.4299660">
        <ele>353.8</ele>
        <time>2021-03-03T13:33:05Z</time>
      </trkpt>
      <trkpt lat="42.9062180" lon="-8.4299660">
        <ele>353.8</ele>
        <time>2021-03-03T13:33:06Z</time>
      </trkpt>
      <trkpt lat="42.9062390" lon="-8.4299510">
        <ele>354.0</ele>
        <time>2021-03-03T13:33:07Z</time>
      </trkpt>
      <trkpt lat="42.9062470" lon="-8.4299320">
        <ele>354.0</ele>
        <time>2021-03-03T13:33:08Z</time>
      </trkpt>
      <trkpt lat="42.9062570" lon="-8.4299150">
        <ele>354.0</ele>
        <time>2021-03-03T13:33:09Z</time>
      </trkpt>
      <trkpt lat="42.9062660" lon="-8.4298880">
        <ele>354.0</ele>
        <time>2021-03-03T13:33:10Z</time>
      </trkpt>
      <trkpt lat="42.9062760" lon="-8.4298610">
        <ele>353.8</ele>
        <time>2021-03-03T13:33:11Z</time>
      </trkpt>
      <trkpt lat="42.9062870" lon="-8.4298320">
        <ele>353.8</ele>
        <time>2021-03-03T13:33:12Z</time>
      </trkpt>
      <trkpt lat="42.9063060" lon="-8.4298000">
        <ele>353.8</ele>
        <time>2021-03-03T13:33:13Z</time>
      </trkpt>
      <trkpt lat="42.9063210" lon="-8.4297650">
        <ele>353.8</ele>
        <time>2021-03-03T13:33:14Z</time>
      </trkpt>
      <trkpt lat="42.9063360" lon="-8.4297290">
        <ele>353.8</ele>
        <time>2021-03-03T13:33:15Z</time>
      </trkpt>
      <trkpt lat="42.9063460" lon="-8.4296970">
        <ele>354.0</ele>
        <time>2021-03-03T13:33:16Z</time>
      </trkpt>
      <trkpt lat="42.9063540" lon="-8.4296670">
        <ele>354.0</ele>
        <time>2021-03-03T13:33:17Z</time>
      </trkpt>
      <trkpt lat="42.9063640" lon="-8.4296390">
        <ele>354.2</ele>
        <time>2021-03-03T13:33:18Z</time>
      </trkpt>
      <trkpt lat="42.9063740" lon="-8.4296130">
        <ele>354.4</ele>
        <time>2021-03-03T13:33:19Z</time>
      </trkpt>
      <trkpt lat="42.9063850" lon="-8.4295840">
        <ele>354.8</ele>
        <time>2021-03-03T13:33:20Z</time>
      </trkpt>
      <trkpt lat="42.9063980" lon="-8.4295550">
        <ele>355.0</ele>
        <time>2021-03-03T13:33:21Z</time>
      </trkpt>
      <trkpt lat="42.9064060" lon="-8.4295210">
        <ele>355.4</ele>
        <time>2021-03-03T13:33:22Z</time>
      </trkpt>
      <trkpt lat="42.9064190" lon="-8.4294890">
        <ele>355.6</ele>
        <time>2021-03-03T13:33:23Z</time>
      </trkpt>
      <trkpt lat="42.9064330" lon="-8.4294590">
        <ele>355.8</ele>
        <time>2021-03-03T13:33:24Z</time>
      </trkpt>
      <trkpt lat="42.9064470" lon="-8.4294270">
        <ele>356.2</ele>
        <time>2021-03-03T13:33:25Z</time>
      </trkpt>
      <trkpt lat="42.9064640" lon="-8.4293970">
        <ele>356.4</ele>
        <time>2021-03-03T13:33:26Z</time>
      </trkpt>
      <trkpt lat="42.9064740" lon="-8.4293570">
        <ele>356.6</ele>
        <time>2021-03-03T13:33:27Z</time>
      </trkpt>
      <trkpt lat="42.9064860" lon="-8.4293350">
        <ele>356.8</ele>
        <time>2021-03-03T13:33:28Z</time>
      </trkpt>
      <trkpt lat="42.9064950" lon="-8.4293110">
        <ele>357.0</ele>
        <time>2021-03-03T13:33:29Z</time>
      </trkpt>
      <trkpt lat="42.9065060" lon="-8.4292870">
        <ele>357.2</ele>
        <time>2021-03-03T13:33:30Z</time>
      </trkpt>
      <trkpt lat="42.9065220" lon="-8.4292610">
        <ele>357.6</ele>
        <time>2021-03-03T13:33:31Z</time>
      </trkpt>
      <trkpt lat="42.9065370" lon="-8.4292360">
        <ele>357.6</ele>
        <time>2021-03-03T13:33:32Z</time>
      </trkpt>
      <trkpt lat="42.9065470" lon="-8.4292100">
        <ele>358.0</ele>
        <time>2021-03-03T13:33:33Z</time>
      </trkpt>
      <trkpt lat="42.9065570" lon="-8.4291840">
        <ele>358.2</ele>
        <time>2021-03-03T13:33:34Z</time>
      </trkpt>
      <trkpt lat="42.9065730" lon="-8.4291620">
        <ele>358.4</ele>
        <time>2021-03-03T13:33:35Z</time>
      </trkpt>
      <trkpt lat="42.9065880" lon="-8.4291430">
        <ele>358.6</ele>
        <time>2021-03-03T13:33:36Z</time>
      </trkpt>
      <trkpt lat="42.9066140" lon="-8.4291250">
        <ele>359.0</ele>
        <time>2021-03-03T13:33:37Z</time>
      </trkpt>
      <trkpt lat="42.9066290" lon="-8.4291010">
        <ele>359.2</ele>
        <time>2021-03-03T13:33:38Z</time>
      </trkpt>
      <trkpt lat="42.9066410" lon="-8.4290730">
        <ele>359.4</ele>
        <time>2021-03-03T13:33:39Z</time>
      </trkpt>
      <trkpt lat="42.9066500" lon="-8.4290530">
        <ele>359.4</ele>
        <time>2021-03-03T13:33:40Z</time>
      </trkpt>
      <trkpt lat="42.9066590" lon="-8.4290320">
        <ele>359.6</ele>
        <time>2021-03-03T13:33:41Z</time>
      </trkpt>
      <trkpt lat="42.9066670" lon="-8.4290100">
        <ele>359.8</ele>
        <time>2021-03-03T13:33:42Z</time>
      </trkpt>
      <trkpt lat="42.9066770" lon="-8.4289880">
        <ele>360.0</ele>
        <time>2021-03-03T13:33:43Z</time>
      </trkpt>
      <trkpt lat="42.9066910" lon="-8.4289670">
        <ele>360.2</ele>
        <time>2021-03-03T13:33:44Z</time>
      </trkpt>
      <trkpt lat="42.9067040" lon="-8.4289450">
        <ele>360.2</ele>
        <time>2021-03-03T13:33:45Z</time>
      </trkpt>
      <trkpt lat="42.9067130" lon="-8.4289180">
        <ele>360.4</ele>
        <time>2021-03-03T13:33:46Z</time>
      </trkpt>
      <trkpt lat="42.9067220" lon="-8.4288910">
        <ele>360.6</ele>
        <time>2021-03-03T13:33:47Z</time>
      </trkpt>
      <trkpt lat="42.9067370" lon="-8.4288680">
        <ele>360.8</ele>
        <time>2021-03-03T13:33:48Z</time>
      </trkpt>
      <trkpt lat="42.9067560" lon="-8.4288490">
        <ele>361.0</ele>
        <time>2021-03-03T13:33:49Z</time>
      </trkpt>
      <trkpt lat="42.9067670" lon="-8.4288270">
        <ele>361.2</ele>
        <time>2021-03-03T13:33:50Z</time>
      </trkpt>
      <trkpt lat="42.9067740" lon="-8.4288050">
        <ele>361.4</ele>
        <time>2021-03-03T13:33:51Z</time>
      </trkpt>
      <trkpt lat="42.9067810" lon="-8.4287850">
        <ele>361.4</ele>
        <time>2021-03-03T13:33:52Z</time>
      </trkpt>
      <trkpt lat="42.9067930" lon="-8.4287660">
        <ele>361.6</ele>
        <time>2021-03-03T13:33:53Z</time>
      </trkpt>
      <trkpt lat="42.9068010" lon="-8.4287490">
        <ele>361.8</ele>
        <time>2021-03-03T13:33:54Z</time>
      </trkpt>
      <trkpt lat="42.9068040" lon="-8.4287260">
        <ele>361.8</ele>
        <time>2021-03-03T13:33:55Z</time>
      </trkpt>
      <trkpt lat="42.9068080" lon="-8.4287030">
        <ele>362.0</ele>
        <time>2021-03-03T13:33:56Z</time>
      </trkpt>
      <trkpt lat="42.9068080" lon="-8.4286760">
        <ele>362.2</ele>
        <time>2021-03-03T13:33:57Z</time>
      </trkpt>
      <trkpt lat="42.9068130" lon="-8.4286530">
        <ele>362.4</ele>
        <time>2021-03-03T13:33:58Z</time>
      </trkpt>
      <trkpt lat="42.9068220" lon="-8.4286300">
        <ele>362.4</ele>
        <time>2021-03-03T13:33:59Z</time>
      </trkpt>
      <trkpt lat="42.9068310" lon="-8.4286060">
        <ele>362.6</ele>
        <time>2021-03-03T13:34:00Z</time>
      </trkpt>
      <trkpt lat="42.9068410" lon="-8.4285810">
        <ele>362.8</ele>
        <time>2021-03-03T13:34:01Z</time>
      </trkpt>
      <trkpt lat="42.9068460" lon="-8.4285510">
        <ele>362.8</ele>
        <time>2021-03-03T13:34:02Z</time>
      </trkpt>
      <trkpt lat="42.9068490" lon="-8.4285230">
        <ele>362.8</ele>
        <time>2021-03-03T13:34:03Z</time>
      </trkpt>
      <trkpt lat="42.9068550" lon="-8.4284970">
        <ele>363.0</ele>
        <time>2021-03-03T13:34:04Z</time>
      </trkpt>
      <trkpt lat="42.9068550" lon="-8.4284710">
        <ele>363.2</ele>
        <time>2021-03-03T13:34:05Z</time>
      </trkpt>
      <trkpt lat="42.9068570" lon="-8.4284470">
        <ele>363.4</ele>
        <time>2021-03-03T13:34:06Z</time>
      </trkpt>
      <trkpt lat="42.9068620" lon="-8.4284270">
        <ele>363.6</ele>
        <time>2021-03-03T13:34:07Z</time>
      </trkpt>
      <trkpt lat="42.9068690" lon="-8.4284080">
        <ele>363.8</ele>
        <time>2021-03-03T13:34:08Z</time>
      </trkpt>
      <trkpt lat="42.9068760" lon="-8.4283900">
        <ele>364.0</ele>
        <time>2021-03-03T13:34:09Z</time>
      </trkpt>
      <trkpt lat="42.9068860" lon="-8.4283720">
        <ele>364.0</ele>
        <time>2021-03-03T13:34:10Z</time>
      </trkpt>
      <trkpt lat="42.9068960" lon="-8.4283550">
        <ele>364.2</ele>
        <time>2021-03-03T13:34:11Z</time>
      </trkpt>
      <trkpt lat="42.9069060" lon="-8.4283390">
        <ele>364.2</ele>
        <time>2021-03-03T13:34:12Z</time>
      </trkpt>
      <trkpt lat="42.9069130" lon="-8.4283210">
        <ele>364.6</ele>
        <time>2021-03-03T13:34:13Z</time>
      </trkpt>
      <trkpt lat="42.9069190" lon="-8.4283040">
        <ele>364.6</ele>
        <time>2021-03-03T13:34:14Z</time>
      </trkpt>
      <trkpt lat="42.9069250" lon="-8.4282840">
        <ele>364.8</ele>
        <time>2021-03-03T13:34:15Z</time>
      </trkpt>
      <trkpt lat="42.9069330" lon="-8.4282620">
        <ele>365.0</ele>
        <time>2021-03-03T13:34:16Z</time>
      </trkpt>
      <trkpt lat="42.9069430" lon="-8.4282420">
        <ele>365.2</ele>
        <time>2021-03-03T13:34:17Z</time>
      </trkpt>
      <trkpt lat="42.9069570" lon="-8.4282250">
        <ele>365.4</ele>
        <time>2021-03-03T13:34:18Z</time>
      </trkpt>
      <trkpt lat="42.9069760" lon="-8.4282130">
        <ele>365.6</ele>
        <time>2021-03-03T13:34:19Z</time>
      </trkpt>
      <trkpt lat="42.9069920" lon="-8.4281980">
        <ele>365.6</ele>
        <time>2021-03-03T13:34:20Z</time>
      </trkpt>
      <trkpt lat="42.9070080" lon="-8.4281820">
        <ele>365.6</ele>
        <time>2021-03-03T13:34:21Z</time>
      </trkpt>
      <trkpt lat="42.9070250" lon="-8.4281670">
        <ele>365.8</ele>
        <time>2021-03-03T13:34:22Z</time>
      </trkpt>
      <trkpt lat="42.9070410" lon="-8.4281530">
        <ele>366.0</ele>
        <time>2021-03-03T13:34:23Z</time>
      </trkpt>
      <trkpt lat="42.9070610" lon="-8.4281390">
        <ele>366.2</ele>
        <time>2021-03-03T13:34:24Z</time>
      </trkpt>
      <trkpt lat="42.9070800" lon="-8.4281220">
        <ele>366.2</ele>
        <time>2021-03-03T13:34:25Z</time>
      </trkpt>
      <trkpt lat="42.9070970" lon="-8.4281080">
        <ele>366.4</ele>
        <time>2021-03-03T13:34:26Z</time>
      </trkpt>
      <trkpt lat="42.9071080" lon="-8.4280930">
        <ele>366.6</ele>
        <time>2021-03-03T13:34:27Z</time>
      </trkpt>
      <trkpt lat="42.9071120" lon="-8.4280800">
        <ele>366.8</ele>
        <time>2021-03-03T13:34:28Z</time>
      </trkpt>
      <trkpt lat="42.9071180" lon="-8.4280660">
        <ele>367.0</ele>
        <time>2021-03-03T13:34:29Z</time>
      </trkpt>
      <trkpt lat="42.9071190" lon="-8.4280480">
        <ele>367.2</ele>
        <time>2021-03-03T13:34:30Z</time>
      </trkpt>
      <trkpt lat="42.9071290" lon="-8.4280300">
        <ele>367.2</ele>
        <time>2021-03-03T13:34:31Z</time>
      </trkpt>
      <trkpt lat="42.9071420" lon="-8.4280130">
        <ele>367.4</ele>
        <time>2021-03-03T13:34:32Z</time>
      </trkpt>
      <trkpt lat="42.9071490" lon="-8.4279960">
        <ele>367.4</ele>
        <time>2021-03-03T13:34:33Z</time>
      </trkpt>
      <trkpt lat="42.9071540" lon="-8.4279810">
        <ele>367.6</ele>
        <time>2021-03-03T13:34:34Z</time>
      </trkpt>
      <trkpt lat="42.9071630" lon="-8.4279680">
        <ele>367.6</ele>
        <time>2021-03-03T13:34:35Z</time>
      </trkpt>
      <trkpt lat="42.9071710" lon="-8.4279560">
        <ele>367.6</ele>
        <time>2021-03-03T13:34:36Z</time>
      </trkpt>
      <trkpt lat="42.9071840" lon="-8.4279420">
        <ele>367.8</ele>
        <time>2021-03-03T13:34:37Z</time>
      </trkpt>
      <trkpt lat="42.9071950" lon="-8.4279250">
        <ele>367.8</ele>
        <time>2021-03-03T13:34:38Z</time>
      </trkpt>
      <trkpt lat="42.9072080" lon="-8.4279090">
        <ele>368.0</ele>
        <time>2021-03-03T13:34:39Z</time>
      </trkpt>
      <trkpt lat="42.9072270" lon="-8.4279000">
        <ele>368.0</ele>
        <time>2021-03-03T13:34:40Z</time>
      </trkpt>
      <trkpt lat="42.9072460" lon="-8.4278830">
        <ele>368.0</ele>
        <time>2021-03-03T13:34:41Z</time>
      </trkpt>
      <trkpt lat="42.9072610" lon="-8.4278660">
        <ele>367.8</ele>
        <time>2021-03-03T13:34:42Z</time>
      </trkpt>
      <trkpt lat="42.9072790" lon="-8.4278460">
        <ele>367.8</ele>
        <time>2021-03-03T13:34:43Z</time>
      </trkpt>
      <trkpt lat="42.9072970" lon="-8.4278290">
        <ele>367.6</ele>
        <time>2021-03-03T13:34:44Z</time>
      </trkpt>
      <trkpt lat="42.9073170" lon="-8.4278140">
        <ele>367.4</ele>
        <time>2021-03-03T13:34:45Z</time>
      </trkpt>
      <trkpt lat="42.9073380" lon="-8.4278000">
        <ele>367.4</ele>
        <time>2021-03-03T13:34:46Z</time>
      </trkpt>
      <trkpt lat="42.9073570" lon="-8.4277820">
        <ele>367.2</ele>
        <time>2021-03-03T13:34:47Z</time>
      </trkpt>
      <trkpt lat="42.9073750" lon="-8.4277610">
        <ele>367.2</ele>
        <time>2021-03-03T13:34:48Z</time>
      </trkpt>
      <trkpt lat="42.9073960" lon="-8.4277400">
        <ele>367.0</ele>
        <time>2021-03-03T13:34:49Z</time>
      </trkpt>
      <trkpt lat="42.9074150" lon="-8.4277150">
        <ele>367.0</ele>
        <time>2021-03-03T13:34:50Z</time>
      </trkpt>
      <trkpt lat="42.9074320" lon="-8.4276830">
        <ele>366.8</ele>
        <time>2021-03-03T13:34:51Z</time>
      </trkpt>
      <trkpt lat="42.9074470" lon="-8.4276600">
        <ele>366.8</ele>
        <time>2021-03-03T13:34:52Z</time>
      </trkpt>
      <trkpt lat="42.9074660" lon="-8.4276470">
        <ele>366.8</ele>
        <time>2021-03-03T13:34:53Z</time>
      </trkpt>
      <trkpt lat="42.9074840" lon="-8.4276320">
        <ele>366.6</ele>
        <time>2021-03-03T13:34:54Z</time>
      </trkpt>
      <trkpt lat="42.9075080" lon="-8.4276110">
        <ele>366.6</ele>
        <time>2021-03-03T13:34:55Z</time>
      </trkpt>
      <trkpt lat="42.9075320" lon="-8.4275880">
        <ele>366.4</ele>
        <time>2021-03-03T13:34:56Z</time>
      </trkpt>
      <trkpt lat="42.9075590" lon="-8.4275660">
        <ele>366.2</ele>
        <time>2021-03-03T13:34:57Z</time>
      </trkpt>
      <trkpt lat="42.9075840" lon="-8.4275430">
        <ele>365.8</ele>
        <time>2021-03-03T13:34:58Z</time>
      </trkpt>
      <trkpt lat="42.9076110" lon="-8.4275260">
        <ele>365.6</ele>
        <time>2021-03-03T13:34:59Z</time>
      </trkpt>
      <trkpt lat="42.9076320" lon="-8.4275080">
        <ele>365.4</ele>
        <time>2021-03-03T13:35:00Z</time>
      </trkpt>
      <trkpt lat="42.9076520" lon="-8.4274880">
        <ele>365.2</ele>
        <time>2021-03-03T13:35:01Z</time>
      </trkpt>
      <trkpt lat="42.9076680" lon="-8.4274730">
        <ele>365.0</ele>
        <time>2021-03-03T13:35:02Z</time>
      </trkpt>
      <trkpt lat="42.9076830" lon="-8.4274550">
        <ele>364.6</ele>
        <time>2021-03-03T13:35:03Z</time>
      </trkpt>
      <trkpt lat="42.9077020" lon="-8.4274350">
        <ele>364.2</ele>
        <time>2021-03-03T13:35:04Z</time>
      </trkpt>
      <trkpt lat="42.9077210" lon="-8.4274150">
        <ele>363.8</ele>
        <time>2021-03-03T13:35:05Z</time>
      </trkpt>
      <trkpt lat="42.9077470" lon="-8.4273970">
        <ele>363.6</ele>
        <time>2021-03-03T13:35:06Z</time>
      </trkpt>
      <trkpt lat="42.9077720" lon="-8.4273810">
        <ele>363.0</ele>
        <time>2021-03-03T13:35:07Z</time>
      </trkpt>
      <trkpt lat="42.9077990" lon="-8.4273660">
        <ele>362.8</ele>
        <time>2021-03-03T13:35:08Z</time>
      </trkpt>
      <trkpt lat="42.9078300" lon="-8.4273430">
        <ele>362.4</ele>
        <time>2021-03-03T13:35:09Z</time>
      </trkpt>
      <trkpt lat="42.9078630" lon="-8.4273240">
        <ele>362.0</ele>
        <time>2021-03-03T13:35:10Z</time>
      </trkpt>
      <trkpt lat="42.9078910" lon="-8.4273020">
        <ele>361.8</ele>
        <time>2021-03-03T13:35:11Z</time>
      </trkpt>
      <trkpt lat="42.9079230" lon="-8.4272800">
        <ele>361.4</ele>
        <time>2021-03-03T13:35:12Z</time>
      </trkpt>
      <trkpt lat="42.9079500" lon="-8.4272550">
        <ele>361.2</ele>
        <time>2021-03-03T13:35:13Z</time>
      </trkpt>
      <trkpt lat="42.9079760" lon="-8.4272260">
        <ele>360.6</ele>
        <time>2021-03-03T13:35:14Z</time>
      </trkpt>
      <trkpt lat="42.9079990" lon="-8.4271950">
        <ele>360.0</ele>
        <time>2021-03-03T13:35:15Z</time>
      </trkpt>
      <trkpt lat="42.9080210" lon="-8.4271610">
        <ele>359.4</ele>
        <time>2021-03-03T13:35:16Z</time>
      </trkpt>
      <trkpt lat="42.9080460" lon="-8.4271240">
        <ele>359.0</ele>
        <time>2021-03-03T13:35:17Z</time>
      </trkpt>
      <trkpt lat="42.9080700" lon="-8.4270880">
        <ele>358.6</ele>
        <time>2021-03-03T13:35:18Z</time>
      </trkpt>
      <trkpt lat="42.9081000" lon="-8.4270490">
        <ele>358.0</ele>
        <time>2021-03-03T13:35:19Z</time>
      </trkpt>
      <trkpt lat="42.9081310" lon="-8.4270100">
        <ele>357.4</ele>
        <time>2021-03-03T13:35:20Z</time>
      </trkpt>
      <trkpt lat="42.9081560" lon="-8.4269720">
        <ele>356.4</ele>
        <time>2021-03-03T13:35:21Z</time>
      </trkpt>
      <trkpt lat="42.9081790" lon="-8.4269400">
        <ele>355.6</ele>
        <time>2021-03-03T13:35:22Z</time>
      </trkpt>
      <trkpt lat="42.9082020" lon="-8.4269060">
        <ele>354.8</ele>
        <time>2021-03-03T13:35:23Z</time>
      </trkpt>
      <trkpt lat="42.9082220" lon="-8.4268750">
        <ele>354.2</ele>
        <time>2021-03-03T13:35:24Z</time>
      </trkpt>
      <trkpt lat="42.9082410" lon="-8.4268430">
        <ele>353.6</ele>
        <time>2021-03-03T13:35:25Z</time>
      </trkpt>
      <trkpt lat="42.9082590" lon="-8.4268110">
        <ele>352.8</ele>
        <time>2021-03-03T13:35:26Z</time>
      </trkpt>
      <trkpt lat="42.9082740" lon="-8.4267770">
        <ele>352.2</ele>
        <time>2021-03-03T13:35:27Z</time>
      </trkpt>
      <trkpt lat="42.9082910" lon="-8.4267460">
        <ele>351.6</ele>
        <time>2021-03-03T13:35:28Z</time>
      </trkpt>
      <trkpt lat="42.9083150" lon="-8.4267100">
        <ele>351.0</ele>
        <time>2021-03-03T13:35:29Z</time>
      </trkpt>
      <trkpt lat="42.9083360" lon="-8.4266690">
        <ele>350.6</ele>
        <time>2021-03-03T13:35:30Z</time>
      </trkpt>
      <trkpt lat="42.9083610" lon="-8.4266300">
        <ele>349.8</ele>
        <time>2021-03-03T13:35:31Z</time>
      </trkpt>
      <trkpt lat="42.9083810" lon="-8.4265910">
        <ele>349.4</ele>
        <time>2021-03-03T13:35:32Z</time>
      </trkpt>
      <trkpt lat="42.9083980" lon="-8.4265510">
        <ele>349.2</ele>
        <time>2021-03-03T13:35:33Z</time>
      </trkpt>
      <trkpt lat="42.9084110" lon="-8.4265150">
        <ele>349.0</ele>
        <time>2021-03-03T13:35:34Z</time>
      </trkpt>
      <trkpt lat="42.9084190" lon="-8.4264740">
        <ele>348.6</ele>
        <time>2021-03-03T13:35:35Z</time>
      </trkpt>
      <trkpt lat="42.9084210" lon="-8.4264360">
        <ele>348.2</ele>
        <time>2021-03-03T13:35:36Z</time>
      </trkpt>
      <trkpt lat="42.9084230" lon="-8.4263970">
        <ele>347.8</ele>
        <time>2021-03-03T13:35:37Z</time>
      </trkpt>
      <trkpt lat="42.9084340" lon="-8.4263630">
        <ele>347.8</ele>
        <time>2021-03-03T13:35:38Z</time>
      </trkpt>
      <trkpt lat="42.9084520" lon="-8.4263390">
        <ele>347.6</ele>
        <time>2021-03-03T13:35:39Z</time>
      </trkpt>
      <trkpt lat="42.9084800" lon="-8.4263110">
        <ele>347.6</ele>
        <time>2021-03-03T13:35:40Z</time>
      </trkpt>
      <trkpt lat="42.9085040" lon="-8.4262910">
        <ele>347.6</ele>
        <time>2021-03-03T13:35:41Z</time>
      </trkpt>
      <trkpt lat="42.9085260" lon="-8.4262700">
        <ele>347.4</ele>
        <time>2021-03-03T13:35:42Z</time>
      </trkpt>
      <trkpt lat="42.9085530" lon="-8.4262460">
        <ele>347.4</ele>
        <time>2021-03-03T13:35:43Z</time>
      </trkpt>
      <trkpt lat="42.9085720" lon="-8.4262160">
        <ele>347.2</ele>
        <time>2021-03-03T13:35:44Z</time>
      </trkpt>
      <trkpt lat="42.9085790" lon="-8.4261910">
        <ele>347.0</ele>
        <time>2021-03-03T13:35:45Z</time>
      </trkpt>
      <trkpt lat="42.9085850" lon="-8.4261670">
        <ele>347.0</ele>
        <time>2021-03-03T13:35:46Z</time>
      </trkpt>
      <trkpt lat="42.9085920" lon="-8.4261490">
        <ele>347.0</ele>
        <time>2021-03-03T13:35:47Z</time>
      </trkpt>
      <trkpt lat="42.9085950" lon="-8.4261420">
        <ele>347.0</ele>
        <time>2021-03-03T13:35:48Z</time>
      </trkpt>
      <trkpt lat="42.9086030" lon="-8.4261410">
        <ele>347.2</ele>
        <time>2021-03-03T13:35:49Z</time>
      </trkpt>
      <trkpt lat="42.9086120" lon="-8.4261380">
        <ele>347.2</ele>
        <time>2021-03-03T13:35:50Z</time>
      </trkpt>
      <trkpt lat="42.9086100" lon="-8.4261330">
        <ele>347.4</ele>
        <time>2021-03-03T13:35:51Z</time>
      </trkpt>
      <trkpt lat="42.9086020" lon="-8.4261340">
        <ele>347.4</ele>
        <time>2021-03-03T13:35:52Z</time>
      </trkpt>
      <trkpt lat="42.9085990" lon="-8.4261300">
        <ele>347.4</ele>
        <time>2021-03-03T13:35:53Z</time>
      </trkpt>
      <trkpt lat="42.9086040" lon="-8.4261290">
        <ele>347.4</ele>
        <time>2021-03-03T13:35:54Z</time>
      </trkpt>
      <trkpt lat="42.9086120" lon="-8.4261440">
        <ele>347.4</ele>
        <time>2021-03-03T13:35:55Z</time>
      </trkpt>
      <trkpt lat="42.9086260" lon="-8.4261630">
        <ele>347.0</ele>
        <time>2021-03-03T13:35:56Z</time>
      </trkpt>
      <trkpt lat="42.9086420" lon="-8.4261770">
        <ele>347.0</ele>
        <time>2021-03-03T13:35:57Z</time>
      </trkpt>
      <trkpt lat="42.9086640" lon="-8.4261750">
        <ele>346.8</ele>
        <time>2021-03-03T13:35:58Z</time>
      </trkpt>
      <trkpt lat="42.9086880" lon="-8.4261710">
        <ele>346.6</ele>
        <time>2021-03-03T13:35:59Z</time>
      </trkpt>
      <trkpt lat="42.9087180" lon="-8.4261640">
        <ele>346.6</ele>
        <time>2021-03-03T13:36:00Z</time>
      </trkpt>
      <trkpt lat="42.9087460" lon="-8.4261560">
        <ele>346.6</ele>
        <time>2021-03-03T13:36:01Z</time>
      </trkpt>
      <trkpt lat="42.9087730" lon="-8.4261440">
        <ele>346.6</ele>
        <time>2021-03-03T13:36:02Z</time>
      </trkpt>
      <trkpt lat="42.9087990" lon="-8.4261310">
        <ele>346.8</ele>
        <time>2021-03-03T13:36:03Z</time>
      </trkpt>
      <trkpt lat="42.9088210" lon="-8.4261130">
        <ele>346.8</ele>
        <time>2021-03-03T13:36:04Z</time>
      </trkpt>
      <trkpt lat="42.9088480" lon="-8.4260920">
        <ele>346.8</ele>
        <time>2021-03-03T13:36:05Z</time>
      </trkpt>
      <trkpt lat="42.9088670" lon="-8.4260740">
        <ele>346.8</ele>
        <time>2021-03-03T13:36:06Z</time>
      </trkpt>
      <trkpt lat="42.9088950" lon="-8.4260430">
        <ele>346.8</ele>
        <time>2021-03-03T13:36:07Z</time>
      </trkpt>
      <trkpt lat="42.9089130" lon="-8.4260150">
        <ele>346.8</ele>
        <time>2021-03-03T13:36:08Z</time>
      </trkpt>
      <trkpt lat="42.9089290" lon="-8.4259860">
        <ele>346.8</ele>
        <time>2021-03-03T13:36:09Z</time>
      </trkpt>
      <trkpt lat="42.9089430" lon="-8.4259510">
        <ele>346.6</ele>
        <time>2021-03-03T13:36:10Z</time>
      </trkpt>
      <trkpt lat="42.9089580" lon="-8.4259160">
        <ele>346.8</ele>
        <time>2021-03-03T13:36:11Z</time>
      </trkpt>
      <trkpt lat="42.9089690" lon="-8.4258820">
        <ele>346.8</ele>
        <time>2021-03-03T13:36:12Z</time>
      </trkpt>
      <trkpt lat="42.9089780" lon="-8.4258460">
        <ele>346.8</ele>
        <time>2021-03-03T13:36:13Z</time>
      </trkpt>
      <trkpt lat="42.9089870" lon="-8.4258110">
        <ele>347.0</ele>
        <time>2021-03-03T13:36:14Z</time>
      </trkpt>
      <trkpt lat="42.9089940" lon="-8.4257740">
        <ele>347.0</ele>
        <time>2021-03-03T13:36:15Z</time>
      </trkpt>
      <trkpt lat="42.9089960" lon="-8.4257340">
        <ele>347.2</ele>
        <time>2021-03-03T13:36:16Z</time>
      </trkpt>
      <trkpt lat="42.9089950" lon="-8.4256940">
        <ele>347.2</ele>
        <time>2021-03-03T13:36:17Z</time>
      </trkpt>
      <trkpt lat="42.9089970" lon="-8.4256550">
        <ele>347.4</ele>
        <time>2021-03-03T13:36:18Z</time>
      </trkpt>
      <trkpt lat="42.9089990" lon="-8.4256210">
        <ele>347.4</ele>
        <time>2021-03-03T13:36:19Z</time>
      </trkpt>
      <trkpt lat="42.9089990" lon="-8.4255940">
        <ele>347.6</ele>
        <time>2021-03-03T13:36:20Z</time>
      </trkpt>
      <trkpt lat="42.9089990" lon="-8.4255540">
        <ele>347.6</ele>
        <time>2021-03-03T13:36:21Z</time>
      </trkpt>
      <trkpt lat="42.9089980" lon="-8.4255200">
        <ele>347.6</ele>
        <time>2021-03-03T13:36:22Z</time>
      </trkpt>
      <trkpt lat="42.9090010" lon="-8.4254830">
        <ele>347.6</ele>
        <time>2021-03-03T13:36:23Z</time>
      </trkpt>
      <trkpt lat="42.9090000" lon="-8.4254510">
        <ele>347.6</ele>
        <time>2021-03-03T13:36:24Z</time>
      </trkpt>
      <trkpt lat="42.9089960" lon="-8.4254180">
        <ele>347.6</ele>
        <time>2021-03-03T13:36:25Z</time>
      </trkpt>
      <trkpt lat="42.9089890" lon="-8.4253830">
        <ele>347.8</ele>
        <time>2021-03-03T13:36:26Z</time>
      </trkpt>
      <trkpt lat="42.9089830" lon="-8.4253480">
        <ele>347.8</ele>
        <time>2021-03-03T13:36:27Z</time>
      </trkpt>
      <trkpt lat="42.9089760" lon="-8.4253140">
        <ele>348.0</ele>
        <time>2021-03-03T13:36:28Z</time>
      </trkpt>
      <trkpt lat="42.9089670" lon="-8.4252780">
        <ele>348.2</ele>
        <time>2021-03-03T13:36:29Z</time>
      </trkpt>
      <trkpt lat="42.9089570" lon="-8.4252430">
        <ele>348.4</ele>
        <time>2021-03-03T13:36:30Z</time>
      </trkpt>
      <trkpt lat="42.9089480" lon="-8.4252090">
        <ele>348.4</ele>
        <time>2021-03-03T13:36:31Z</time>
      </trkpt>
      <trkpt lat="42.9089390" lon="-8.4251770">
        <ele>348.6</ele>
        <time>2021-03-03T13:36:32Z</time>
      </trkpt>
      <trkpt lat="42.9089300" lon="-8.4251480">
        <ele>348.6</ele>
        <time>2021-03-03T13:36:33Z</time>
      </trkpt>
      <trkpt lat="42.9089260" lon="-8.4251230">
        <ele>349.2</ele>
        <time>2021-03-03T13:36:34Z</time>
      </trkpt>
      <trkpt lat="42.9089260" lon="-8.4250870">
        <ele>349.6</ele>
        <time>2021-03-03T13:36:35Z</time>
      </trkpt>
      <trkpt lat="42.9089240" lon="-8.4250580">
        <ele>349.6</ele>
        <time>2021-03-03T13:36:36Z</time>
      </trkpt>
      <trkpt lat="42.9089230" lon="-8.4250220">
        <ele>349.8</ele>
        <time>2021-03-03T13:36:37Z</time>
      </trkpt>
      <trkpt lat="42.9089150" lon="-8.4249890">
        <ele>349.8</ele>
        <time>2021-03-03T13:36:38Z</time>
      </trkpt>
      <trkpt lat="42.9089050" lon="-8.4249570">
        <ele>349.8</ele>
        <time>2021-03-03T13:36:39Z</time>
      </trkpt>
      <trkpt lat="42.9088960" lon="-8.4249260">
        <ele>350.0</ele>
        <time>2021-03-03T13:36:40Z</time>
      </trkpt>
      <trkpt lat="42.9088900" lon="-8.4248980">
        <ele>350.0</ele>
        <time>2021-03-03T13:36:41Z</time>
      </trkpt>
      <trkpt lat="42.9088790" lon="-8.4248640">
        <ele>350.2</ele>
        <time>2021-03-03T13:36:42Z</time>
      </trkpt>
      <trkpt lat="42.9088660" lon="-8.4248240">
        <ele>350.2</ele>
        <time>2021-03-03T13:36:43Z</time>
      </trkpt>
      <trkpt lat="42.9088570" lon="-8.4247860">
        <ele>350.4</ele>
        <time>2021-03-03T13:36:44Z</time>
      </trkpt>
      <trkpt lat="42.9088480" lon="-8.4247520">
        <ele>350.4</ele>
        <time>2021-03-03T13:36:45Z</time>
      </trkpt>
      <trkpt lat="42.9088430" lon="-8.4247210">
        <ele>350.6</ele>
        <time>2021-03-03T13:36:46Z</time>
      </trkpt>
      <trkpt lat="42.9088380" lon="-8.4246900">
        <ele>350.8</ele>
        <time>2021-03-03T13:36:47Z</time>
      </trkpt>
      <trkpt lat="42.9088310" lon="-8.4246610">
        <ele>350.8</ele>
        <time>2021-03-03T13:36:48Z</time>
      </trkpt>
      <trkpt lat="42.9088290" lon="-8.4246200">
        <ele>351.0</ele>
        <time>2021-03-03T13:36:49Z</time>
      </trkpt>
      <trkpt lat="42.9088260" lon="-8.4245810">
        <ele>351.2</ele>
        <time>2021-03-03T13:36:50Z</time>
      </trkpt>
      <trkpt lat="42.9088200" lon="-8.4245400">
        <ele>351.2</ele>
        <time>2021-03-03T13:36:51Z</time>
      </trkpt>
      <trkpt lat="42.9088160" lon="-8.4245030">
        <ele>351.4</ele>
        <time>2021-03-03T13:36:52Z</time>
      </trkpt>
      <trkpt lat="42.9088120" lon="-8.4244670">
        <ele>351.4</ele>
        <time>2021-03-03T13:36:53Z</time>
      </trkpt>
      <trkpt lat="42.9088090" lon="-8.4244310">
        <ele>351.6</ele>
        <time>2021-03-03T13:36:54Z</time>
      </trkpt>
      <trkpt lat="42.9088060" lon="-8.4243950">
        <ele>351.8</ele>
        <time>2021-03-03T13:36:55Z</time>
      </trkpt>
      <trkpt lat="42.9088030" lon="-8.4243620">
        <ele>352.2</ele>
        <time>2021-03-03T13:36:56Z</time>
      </trkpt>
      <trkpt lat="42.9087980" lon="-8.4243330">
        <ele>352.4</ele>
        <time>2021-03-03T13:36:57Z</time>
      </trkpt>
      <trkpt lat="42.9087910" lon="-8.4243080">
        <ele>352.4</ele>
        <time>2021-03-03T13:36:58Z</time>
      </trkpt>
      <trkpt lat="42.9087880" lon="-8.4242750">
        <ele>352.6</ele>
        <time>2021-03-03T13:36:59Z</time>
      </trkpt>
      <trkpt lat="42.9087880" lon="-8.4242440">
        <ele>352.8</ele>
        <time>2021-03-03T13:37:00Z</time>
      </trkpt>
      <trkpt lat="42.9087870" lon="-8.4242120">
        <ele>352.8</ele>
        <time>2021-03-03T13:37:01Z</time>
      </trkpt>
      <trkpt lat="42.9087840" lon="-8.4241800">
        <ele>353.0</ele>
        <time>2021-03-03T13:37:02Z</time>
      </trkpt>
      <trkpt lat="42.9087840" lon="-8.4241440">
        <ele>353.0</ele>
        <time>2021-03-03T13:37:03Z</time>
      </trkpt>
      <trkpt lat="42.9087840" lon="-8.4241100">
        <ele>353.4</ele>
        <time>2021-03-03T13:37:04Z</time>
      </trkpt>
      <trkpt lat="42.9087860" lon="-8.4240750">
        <ele>353.6</ele>
        <time>2021-03-03T13:37:05Z</time>
      </trkpt>
      <trkpt lat="42.9087850" lon="-8.4240420">
        <ele>353.6</ele>
        <time>2021-03-03T13:37:06Z</time>
      </trkpt>
      <trkpt lat="42.9087850" lon="-8.4240170">
        <ele>353.8</ele>
        <time>2021-03-03T13:37:07Z</time>
      </trkpt>
      <trkpt lat="42.9087810" lon="-8.4239770">
        <ele>354.0</ele>
        <time>2021-03-03T13:37:08Z</time>
      </trkpt>
      <trkpt lat="42.9087800" lon="-8.4239450">
        <ele>354.2</ele>
        <time>2021-03-03T13:37:09Z</time>
      </trkpt>
      <trkpt lat="42.9087840" lon="-8.4239120">
        <ele>354.4</ele>
        <time>2021-03-03T13:37:10Z</time>
      </trkpt>
      <trkpt lat="42.9087890" lon="-8.4238840">
        <ele>354.6</ele>
        <time>2021-03-03T13:37:11Z</time>
      </trkpt>
      <trkpt lat="42.9087930" lon="-8.4238600">
        <ele>354.6</ele>
        <time>2021-03-03T13:37:12Z</time>
      </trkpt>
      <trkpt lat="42.9087980" lon="-8.4238390">
        <ele>354.6</ele>
        <time>2021-03-03T13:37:13Z</time>
      </trkpt>
      <trkpt lat="42.9088070" lon="-8.4238190">
        <ele>354.8</ele>
        <time>2021-03-03T13:37:14Z</time>
      </trkpt>
      <trkpt lat="42.9088160" lon="-8.4238020">
        <ele>355.2</ele>
        <time>2021-03-03T13:37:15Z</time>
      </trkpt>
      <trkpt lat="42.9088280" lon="-8.4237840">
        <ele>355.6</ele>
        <time>2021-03-03T13:37:16Z</time>
      </trkpt>
      <trkpt lat="42.9088440" lon="-8.4237700">
        <ele>355.6</ele>
        <time>2021-03-03T13:37:17Z</time>
      </trkpt>
      <trkpt lat="42.9088590" lon="-8.4237480">
        <ele>355.8</ele>
        <time>2021-03-03T13:37:18Z</time>
      </trkpt>
      <trkpt lat="42.9088780" lon="-8.4237140">
        <ele>356.0</ele>
        <time>2021-03-03T13:37:19Z</time>
      </trkpt>
      <trkpt lat="42.9089000" lon="-8.4236840">
        <ele>356.2</ele>
        <time>2021-03-03T13:37:20Z</time>
      </trkpt>
      <trkpt lat="42.9089200" lon="-8.4236650">
        <ele>356.2</ele>
        <time>2021-03-03T13:37:21Z</time>
      </trkpt>
      <trkpt lat="42.9089390" lon="-8.4236570">
        <ele>356.2</ele>
        <time>2021-03-03T13:37:22Z</time>
      </trkpt>
      <trkpt lat="42.9089630" lon="-8.4236640">
        <ele>356.2</ele>
        <time>2021-03-03T13:37:23Z</time>
      </trkpt>
      <trkpt lat="42.9089890" lon="-8.4236760">
        <ele>356.2</ele>
        <time>2021-03-03T13:37:24Z</time>
      </trkpt>
      <trkpt lat="42.9090200" lon="-8.4236910">
        <ele>356.2</ele>
        <time>2021-03-03T13:37:25Z</time>
      </trkpt>
      <trkpt lat="42.9090490" lon="-8.4237060">
        <ele>356.2</ele>
        <time>2021-03-03T13:37:26Z</time>
      </trkpt>
      <trkpt lat="42.9090760" lon="-8.4237180">
        <ele>355.8</ele>
        <time>2021-03-03T13:37:27Z</time>
      </trkpt>
      <trkpt lat="42.9091020" lon="-8.4237280">
        <ele>355.6</ele>
        <time>2021-03-03T13:37:28Z</time>
      </trkpt>
      <trkpt lat="42.9091270" lon="-8.4237400">
        <ele>355.8</ele>
        <time>2021-03-03T13:37:29Z</time>
      </trkpt>
      <trkpt lat="42.9091520" lon="-8.4237530">
        <ele>355.6</ele>
        <time>2021-03-03T13:37:30Z</time>
      </trkpt>
      <trkpt lat="42.9091940" lon="-8.4237700">
        <ele>355.8</ele>
        <time>2021-03-03T13:37:31Z</time>
      </trkpt>
      <trkpt lat="42.9092260" lon="-8.4237890">
        <ele>355.8</ele>
        <time>2021-03-03T13:37:32Z</time>
      </trkpt>
      <trkpt lat="42.9092580" lon="-8.4237990">
        <ele>355.8</ele>
        <time>2021-03-03T13:37:33Z</time>
      </trkpt>
      <trkpt lat="42.9092900" lon="-8.4238110">
        <ele>355.8</ele>
        <time>2021-03-03T13:37:34Z</time>
      </trkpt>
      <trkpt lat="42.9093200" lon="-8.4238190">
        <ele>355.8</ele>
        <time>2021-03-03T13:37:35Z</time>
      </trkpt>
      <trkpt lat="42.9093450" lon="-8.4238250">
        <ele>355.8</ele>
        <time>2021-03-03T13:37:36Z</time>
      </trkpt>
      <trkpt lat="42.9093700" lon="-8.4238330">
        <ele>355.8</ele>
        <time>2021-03-03T13:37:37Z</time>
      </trkpt>
      <trkpt lat="42.9093980" lon="-8.4238460">
        <ele>355.8</ele>
        <time>2021-03-03T13:37:38Z</time>
      </trkpt>
      <trkpt lat="42.9094250" lon="-8.4238580">
        <ele>355.8</ele>
        <time>2021-03-03T13:37:39Z</time>
      </trkpt>
      <trkpt lat="42.9094530" lon="-8.4238710">
        <ele>355.8</ele>
        <time>2021-03-03T13:37:40Z</time>
      </trkpt>
      <trkpt lat="42.9094830" lon="-8.4238800">
        <ele>355.6</ele>
        <time>2021-03-03T13:37:41Z</time>
      </trkpt>
      <trkpt lat="42.9095150" lon="-8.4238900">
        <ele>355.6</ele>
        <time>2021-03-03T13:37:42Z</time>
      </trkpt>
      <trkpt lat="42.9095460" lon="-8.4239010">
        <ele>355.8</ele>
        <time>2021-03-03T13:37:43Z</time>
      </trkpt>
      <trkpt lat="42.9095800" lon="-8.4239040">
        <ele>355.8</ele>
        <time>2021-03-03T13:37:44Z</time>
      </trkpt>
      <trkpt lat="42.9096110" lon="-8.4239070">
        <ele>355.8</ele>
        <time>2021-03-03T13:37:45Z</time>
      </trkpt>
      <trkpt lat="42.9096440" lon="-8.4239140">
        <ele>356.0</ele>
        <time>2021-03-03T13:37:46Z</time>
      </trkpt>
      <trkpt lat="42.9096770" lon="-8.4239230">
        <ele>356.0</ele>
        <time>2021-03-03T13:37:47Z</time>
      </trkpt>
      <trkpt lat="42.9097130" lon="-8.4239310">
        <ele>356.0</ele>
        <time>2021-03-03T13:37:48Z</time>
      </trkpt>
      <trkpt lat="42.9097470" lon="-8.4239360">
        <ele>356.0</ele>
        <time>2021-03-03T13:37:49Z</time>
      </trkpt>
      <trkpt lat="42.9097780" lon="-8.4239410">
        <ele>356.0</ele>
        <time>2021-03-03T13:37:50Z</time>
      </trkpt>
      <trkpt lat="42.9098090" lon="-8.4239510">
        <ele>356.2</ele>
        <time>2021-03-03T13:37:51Z</time>
      </trkpt>
      <trkpt lat="42.9098340" lon="-8.4239640">
        <ele>356.4</ele>
        <time>2021-03-03T13:37:52Z</time>
      </trkpt>
      <trkpt lat="42.9098600" lon="-8.4239790">
        <ele>356.4</ele>
        <time>2021-03-03T13:37:53Z</time>
      </trkpt>
      <trkpt lat="42.9098910" lon="-8.4239920">
        <ele>356.4</ele>
        <time>2021-03-03T13:37:54Z</time>
      </trkpt>
      <trkpt lat="42.9099200" lon="-8.4240060">
        <ele>356.6</ele>
        <time>2021-03-03T13:37:55Z</time>
      </trkpt>
      <trkpt lat="42.9099500" lon="-8.4240210">
        <ele>356.6</ele>
        <time>2021-03-03T13:37:56Z</time>
      </trkpt>
      <trkpt lat="42.9099790" lon="-8.4240350">
        <ele>356.6</ele>
        <time>2021-03-03T13:37:57Z</time>
      </trkpt>
      <trkpt lat="42.9100130" lon="-8.4240480">
        <ele>356.6</ele>
        <time>2021-03-03T13:37:58Z</time>
      </trkpt>
      <trkpt lat="42.9100510" lon="-8.4240650">
        <ele>356.6</ele>
        <time>2021-03-03T13:37:59Z</time>
      </trkpt>
      <trkpt lat="42.9100810" lon="-8.4240810">
        <ele>356.6</ele>
        <time>2021-03-03T13:38:00Z</time>
      </trkpt>
      <trkpt lat="42.9101100" lon="-8.4240930">
        <ele>356.6</ele>
        <time>2021-03-03T13:38:01Z</time>
      </trkpt>
      <trkpt lat="42.9101370" lon="-8.4241090">
        <ele>356.6</ele>
        <time>2021-03-03T13:38:02Z</time>
      </trkpt>
      <trkpt lat="42.9101650" lon="-8.4241260">
        <ele>356.6</ele>
        <time>2021-03-03T13:38:03Z</time>
      </trkpt>
      <trkpt lat="42.9101950" lon="-8.4241400">
        <ele>356.6</ele>
        <time>2021-03-03T13:38:04Z</time>
      </trkpt>
      <trkpt lat="42.9102230" lon="-8.4241510">
        <ele>356.6</ele>
        <time>2021-03-03T13:38:05Z</time>
      </trkpt>
      <trkpt lat="42.9102510" lon="-8.4241580">
        <ele>356.6</ele>
        <time>2021-03-03T13:38:06Z</time>
      </trkpt>
      <trkpt lat="42.9102800" lon="-8.4241670">
        <ele>356.6</ele>
        <time>2021-03-03T13:38:07Z</time>
      </trkpt>
      <trkpt lat="42.9103070" lon="-8.4241750">
        <ele>356.8</ele>
        <time>2021-03-03T13:38:08Z</time>
      </trkpt>
      <trkpt lat="42.9103350" lon="-8.4241830">
        <ele>356.8</ele>
        <time>2021-03-03T13:38:09Z</time>
      </trkpt>
      <trkpt lat="42.9103630" lon="-8.4241880">
        <ele>356.8</ele>
        <time>2021-03-03T13:38:10Z</time>
      </trkpt>
      <trkpt lat="42.9103930" lon="-8.4241970">
        <ele>356.8</ele>
        <time>2021-03-03T13:38:11Z</time>
      </trkpt>
      <trkpt lat="42.9104260" lon="-8.4242070">
        <ele>356.8</ele>
        <time>2021-03-03T13:38:12Z</time>
      </trkpt>
      <trkpt lat="42.9104570" lon="-8.4242190">
        <ele>357.0</ele>
        <time>2021-03-03T13:38:13Z</time>
      </trkpt>
      <trkpt lat="42.9104840" lon="-8.4242290">
        <ele>357.2</ele>
        <time>2021-03-03T13:38:14Z</time>
      </trkpt>
      <trkpt lat="42.9105190" lon="-8.4242450">
        <ele>357.2</ele>
        <time>2021-03-03T13:38:15Z</time>
      </trkpt>
      <trkpt lat="42.9105470" lon="-8.4242560">
        <ele>357.2</ele>
        <time>2021-03-03T13:38:16Z</time>
      </trkpt>
      <trkpt lat="42.9105740" lon="-8.4242670">
        <ele>357.2</ele>
        <time>2021-03-03T13:38:17Z</time>
      </trkpt>
      <trkpt lat="42.9106050" lon="-8.4242810">
        <ele>357.0</ele>
        <time>2021-03-03T13:38:18Z</time>
      </trkpt>
      <trkpt lat="42.9106390" lon="-8.4242950">
        <ele>357.0</ele>
        <time>2021-03-03T13:38:19Z</time>
      </trkpt>
      <trkpt lat="42.9106740" lon="-8.4243050">
        <ele>357.0</ele>
        <time>2021-03-03T13:38:20Z</time>
      </trkpt>
      <trkpt lat="42.9107090" lon="-8.4243170">
        <ele>357.0</ele>
        <time>2021-03-03T13:38:21Z</time>
      </trkpt>
      <trkpt lat="42.9107400" lon="-8.4243300">
        <ele>357.0</ele>
        <time>2021-03-03T13:38:22Z</time>
      </trkpt>
      <trkpt lat="42.9107720" lon="-8.4243440">
        <ele>357.0</ele>
        <time>2021-03-03T13:38:23Z</time>
      </trkpt>
      <trkpt lat="42.9108040" lon="-8.4243560">
        <ele>357.2</ele>
        <time>2021-03-03T13:38:24Z</time>
      </trkpt>
      <trkpt lat="42.9108340" lon="-8.4243670">
        <ele>357.4</ele>
        <time>2021-03-03T13:38:25Z</time>
      </trkpt>
      <trkpt lat="42.9108700" lon="-8.4243730">
        <ele>357.6</ele>
        <time>2021-03-03T13:38:26Z</time>
      </trkpt>
      <trkpt lat="42.9109100" lon="-8.4243800">
        <ele>357.6</ele>
        <time>2021-03-03T13:38:27Z</time>
      </trkpt>
      <trkpt lat="42.9109450" lon="-8.4243840">
        <ele>357.8</ele>
        <time>2021-03-03T13:38:28Z</time>
      </trkpt>
      <trkpt lat="42.9109780" lon="-8.4243860">
        <ele>357.8</ele>
        <time>2021-03-03T13:38:29Z</time>
      </trkpt>
      <trkpt lat="42.9110080" lon="-8.4243820">
        <ele>357.8</ele>
        <time>2021-03-03T13:38:30Z</time>
      </trkpt>
      <trkpt lat="42.9110350" lon="-8.4243660">
        <ele>357.8</ele>
        <time>2021-03-03T13:38:31Z</time>
      </trkpt>
      <trkpt lat="42.9110560" lon="-8.4243410">
        <ele>357.8</ele>
        <time>2021-03-03T13:38:32Z</time>
      </trkpt>
      <trkpt lat="42.9110780" lon="-8.4243080">
        <ele>358.0</ele>
        <time>2021-03-03T13:38:33Z</time>
      </trkpt>
      <trkpt lat="42.9110980" lon="-8.4242740">
        <ele>358.2</ele>
        <time>2021-03-03T13:38:34Z</time>
      </trkpt>
      <trkpt lat="42.9111170" lon="-8.4242370">
        <ele>358.0</ele>
        <time>2021-03-03T13:38:35Z</time>
      </trkpt>
      <trkpt lat="42.9111390" lon="-8.4242040">
        <ele>357.8</ele>
        <time>2021-03-03T13:38:36Z</time>
      </trkpt>
      <trkpt lat="42.9111640" lon="-8.4241810">
        <ele>357.8</ele>
        <time>2021-03-03T13:38:37Z</time>
      </trkpt>
      <trkpt lat="42.9111930" lon="-8.4241710">
        <ele>357.8</ele>
        <time>2021-03-03T13:38:38Z</time>
      </trkpt>
      <trkpt lat="42.9112260" lon="-8.4241690">
        <ele>357.6</ele>
        <time>2021-03-03T13:38:39Z</time>
      </trkpt>
      <trkpt lat="42.9112590" lon="-8.4241690">
        <ele>357.6</ele>
        <time>2021-03-03T13:38:40Z</time>
      </trkpt>
      <trkpt lat="42.9112890" lon="-8.4241690">
        <ele>357.6</ele>
        <time>2021-03-03T13:38:41Z</time>
      </trkpt>
      <trkpt lat="42.9113190" lon="-8.4241720">
        <ele>357.4</ele>
        <time>2021-03-03T13:38:42Z</time>
      </trkpt>
      <trkpt lat="42.9113520" lon="-8.4241790">
        <ele>357.4</ele>
        <time>2021-03-03T13:38:43Z</time>
      </trkpt>
      <trkpt lat="42.9113850" lon="-8.4241840">
        <ele>357.4</ele>
        <time>2021-03-03T13:38:44Z</time>
      </trkpt>
      <trkpt lat="42.9114180" lon="-8.4241880">
        <ele>357.4</ele>
        <time>2021-03-03T13:38:45Z</time>
      </trkpt>
      <trkpt lat="42.9114500" lon="-8.4241950">
        <ele>357.2</ele>
        <time>2021-03-03T13:38:46Z</time>
      </trkpt>
      <trkpt lat="42.9114810" lon="-8.4241990">
        <ele>357.0</ele>
        <time>2021-03-03T13:38:47Z</time>
      </trkpt>
      <trkpt lat="42.9115130" lon="-8.4242020">
        <ele>356.6</ele>
        <time>2021-03-03T13:38:48Z</time>
      </trkpt>
      <trkpt lat="42.9115480" lon="-8.4242060">
        <ele>356.4</ele>
        <time>2021-03-03T13:38:49Z</time>
      </trkpt>
      <trkpt lat="42.9115810" lon="-8.4242040">
        <ele>356.4</ele>
        <time>2021-03-03T13:38:50Z</time>
      </trkpt>
      <trkpt lat="42.9116160" lon="-8.4242020">
        <ele>356.2</ele>
        <time>2021-03-03T13:38:51Z</time>
      </trkpt>
      <trkpt lat="42.9116510" lon="-8.4242010">
        <ele>356.0</ele>
        <time>2021-03-03T13:38:52Z</time>
      </trkpt>
      <trkpt lat="42.9116850" lon="-8.4241940">
        <ele>355.6</ele>
        <time>2021-03-03T13:38:53Z</time>
      </trkpt>
      <trkpt lat="42.9117190" lon="-8.4241790">
        <ele>355.4</ele>
        <time>2021-03-03T13:38:54Z</time>
      </trkpt>
      <trkpt lat="42.9117560" lon="-8.4241640">
        <ele>355.2</ele>
        <time>2021-03-03T13:38:55Z</time>
      </trkpt>
      <trkpt lat="42.9117920" lon="-8.4241490">
        <ele>355.2</ele>
        <time>2021-03-03T13:38:56Z</time>
      </trkpt>
      <trkpt lat="42.9118240" lon="-8.4241380">
        <ele>354.4</ele>
        <time>2021-03-03T13:38:57Z</time>
      </trkpt>
      <trkpt lat="42.9118540" lon="-8.4241200">
        <ele>353.6</ele>
        <time>2021-03-03T13:38:58Z</time>
      </trkpt>
      <trkpt lat="42.9118870" lon="-8.4241010">
        <ele>353.0</ele>
        <time>2021-03-03T13:38:59Z</time>
      </trkpt>
      <trkpt lat="42.9119180" lon="-8.4240850">
        <ele>352.4</ele>
        <time>2021-03-03T13:39:00Z</time>
      </trkpt>
      <trkpt lat="42.9119480" lon="-8.4240720">
        <ele>351.2</ele>
        <time>2021-03-03T13:39:01Z</time>
      </trkpt>
      <trkpt lat="42.9119780" lon="-8.4240520">
        <ele>350.2</ele>
        <time>2021-03-03T13:39:02Z</time>
      </trkpt>
      <trkpt lat="42.9120070" lon="-8.4240290">
        <ele>349.8</ele>
        <time>2021-03-03T13:39:03Z</time>
      </trkpt>
      <trkpt lat="42.9120420" lon="-8.4240080">
        <ele>349.4</ele>
        <time>2021-03-03T13:39:04Z</time>
      </trkpt>
      <trkpt lat="42.9120800" lon="-8.4239930">
        <ele>348.8</ele>
        <time>2021-03-03T13:39:05Z</time>
      </trkpt>
      <trkpt lat="42.9121160" lon="-8.4239750">
        <ele>348.2</ele>
        <time>2021-03-03T13:39:06Z</time>
      </trkpt>
      <trkpt lat="42.9121510" lon="-8.4239550">
        <ele>347.6</ele>
        <time>2021-03-03T13:39:07Z</time>
      </trkpt>
      <trkpt lat="42.9121900" lon="-8.4239340">
        <ele>346.6</ele>
        <time>2021-03-03T13:39:08Z</time>
      </trkpt>
      <trkpt lat="42.9122260" lon="-8.4239150">
        <ele>346.0</ele>
        <time>2021-03-03T13:39:09Z</time>
      </trkpt>
      <trkpt lat="42.9122580" lon="-8.4238950">
        <ele>345.2</ele>
        <time>2021-03-03T13:39:10Z</time>
      </trkpt>
      <trkpt lat="42.9122940" lon="-8.4238690">
        <ele>344.8</ele>
        <time>2021-03-03T13:39:11Z</time>
      </trkpt>
      <trkpt lat="42.9123270" lon="-8.4238450">
        <ele>344.6</ele>
        <time>2021-03-03T13:39:12Z</time>
      </trkpt>
      <trkpt lat="42.9123630" lon="-8.4238240">
        <ele>344.4</ele>
        <time>2021-03-03T13:39:13Z</time>
      </trkpt>
      <trkpt lat="42.9124020" lon="-8.4238020">
        <ele>343.6</ele>
        <time>2021-03-03T13:39:14Z</time>
      </trkpt>
      <trkpt lat="42.9124340" lon="-8.4237790">
        <ele>343.2</ele>
        <time>2021-03-03T13:39:15Z</time>
      </trkpt>
      <trkpt lat="42.9124630" lon="-8.4237540">
        <ele>343.0</ele>
        <time>2021-03-03T13:39:16Z</time>
      </trkpt>
      <trkpt lat="42.9124870" lon="-8.4237310">
        <ele>342.8</ele>
        <time>2021-03-03T13:39:17Z</time>
      </trkpt>
      <trkpt lat="42.9125090" lon="-8.4237080">
        <ele>342.8</ele>
        <time>2021-03-03T13:39:18Z</time>
      </trkpt>
      <trkpt lat="42.9125300" lon="-8.4236850">
        <ele>342.8</ele>
        <time>2021-03-03T13:39:19Z</time>
      </trkpt>
      <trkpt lat="42.9125500" lon="-8.4236630">
        <ele>342.8</ele>
        <time>2021-03-03T13:39:20Z</time>
      </trkpt>
      <trkpt lat="42.9125660" lon="-8.4236410">
        <ele>343.0</ele>
        <time>2021-03-03T13:39:21Z</time>
      </trkpt>
      <trkpt lat="42.9125890" lon="-8.4236190">
        <ele>343.0</ele>
        <time>2021-03-03T13:39:22Z</time>
      </trkpt>
      <trkpt lat="42.9126140" lon="-8.4235950">
        <ele>343.0</ele>
        <time>2021-03-03T13:39:23Z</time>
      </trkpt>
      <trkpt lat="42.9126300" lon="-8.4235710">
        <ele>343.0</ele>
        <time>2021-03-03T13:39:24Z</time>
      </trkpt>
      <trkpt lat="42.9126470" lon="-8.4235430">
        <ele>343.2</ele>
        <time>2021-03-03T13:39:25Z</time>
      </trkpt>
      <trkpt lat="42.9126630" lon="-8.4235150">
        <ele>343.2</ele>
        <time>2021-03-03T13:39:26Z</time>
      </trkpt>
      <trkpt lat="42.9126840" lon="-8.4234870">
        <ele>343.2</ele>
        <time>2021-03-03T13:39:27Z</time>
      </trkpt>
      <trkpt lat="42.9127080" lon="-8.4234600">
        <ele>343.4</ele>
        <time>2021-03-03T13:39:28Z</time>
      </trkpt>
      <trkpt lat="42.9127350" lon="-8.4234330">
        <ele>343.4</ele>
        <time>2021-03-03T13:39:29Z</time>
      </trkpt>
      <trkpt lat="42.9127590" lon="-8.4234080">
        <ele>343.4</ele>
        <time>2021-03-03T13:39:30Z</time>
      </trkpt>
      <trkpt lat="42.9127840" lon="-8.4233840">
        <ele>343.4</ele>
        <time>2021-03-03T13:39:31Z</time>
      </trkpt>
      <trkpt lat="42.9128050" lon="-8.4233580">
        <ele>343.6</ele>
        <time>2021-03-03T13:39:32Z</time>
      </trkpt>
      <trkpt lat="42.9128220" lon="-8.4233330">
        <ele>343.6</ele>
        <time>2021-03-03T13:39:33Z</time>
      </trkpt>
      <trkpt lat="42.9128340" lon="-8.4233110">
        <ele>343.8</ele>
        <time>2021-03-03T13:39:34Z</time>
      </trkpt>
      <trkpt lat="42.9128480" lon="-8.4232840">
        <ele>344.0</ele>
        <time>2021-03-03T13:39:35Z</time>
      </trkpt>
      <trkpt lat="42.9128630" lon="-8.4232530">
        <ele>344.2</ele>
        <time>2021-03-03T13:39:36Z</time>
      </trkpt>
      <trkpt lat="42.9128800" lon="-8.4232220">
        <ele>344.4</ele>
        <time>2021-03-03T13:39:37Z</time>
      </trkpt>
      <trkpt lat="42.9128980" lon="-8.4231900">
        <ele>344.6</ele>
        <time>2021-03-03T13:39:38Z</time>
      </trkpt>
      <trkpt lat="42.9129150" lon="-8.4231570">
        <ele>344.6</ele>
        <time>2021-03-03T13:39:39Z</time>
      </trkpt>
      <trkpt lat="42.9129340" lon="-8.4231220">
        <ele>344.8</ele>
        <time>2021-03-03T13:39:40Z</time>
      </trkpt>
      <trkpt lat="42.9129540" lon="-8.4230880">
        <ele>345.0</ele>
        <time>2021-03-03T13:39:41Z</time>
      </trkpt>
      <trkpt lat="42.9129700" lon="-8.4230550">
        <ele>345.0</ele>
        <time>2021-03-03T13:39:42Z</time>
      </trkpt>
      <trkpt lat="42.9129850" lon="-8.4230220">
        <ele>345.0</ele>
        <time>2021-03-03T13:39:43Z</time>
      </trkpt>
      <trkpt lat="42.9130050" lon="-8.4229870">
        <ele>345.2</ele>
        <time>2021-03-03T13:39:44Z</time>
      </trkpt>
      <trkpt lat="42.9130330" lon="-8.4229530">
        <ele>345.2</ele>
        <time>2021-03-03T13:39:45Z</time>
      </trkpt>
      <trkpt lat="42.9130610" lon="-8.4229200">
        <ele>345.2</ele>
        <time>2021-03-03T13:39:46Z</time>
      </trkpt>
      <trkpt lat="42.9130840" lon="-8.4228880">
        <ele>345.2</ele>
        <time>2021-03-03T13:39:47Z</time>
      </trkpt>
      <trkpt lat="42.9131010" lon="-8.4228590">
        <ele>345.4</ele>
        <time>2021-03-03T13:39:48Z</time>
      </trkpt>
      <trkpt lat="42.9131190" lon="-8.4228290">
        <ele>345.6</ele>
        <time>2021-03-03T13:39:49Z</time>
      </trkpt>
      <trkpt lat="42.9131430" lon="-8.4227980">
        <ele>345.6</ele>
        <time>2021-03-03T13:39:50Z</time>
      </trkpt>
      <trkpt lat="42.9131640" lon="-8.4227670">
        <ele>345.8</ele>
        <time>2021-03-03T13:39:51Z</time>
      </trkpt>
      <trkpt lat="42.9131850" lon="-8.4227340">
        <ele>346.0</ele>
        <time>2021-03-03T13:39:52Z</time>
      </trkpt>
      <trkpt lat="42.9132020" lon="-8.4226990">
        <ele>346.2</ele>
        <time>2021-03-03T13:39:53Z</time>
      </trkpt>
      <trkpt lat="42.9132140" lon="-8.4226680">
        <ele>346.4</ele>
        <time>2021-03-03T13:39:54Z</time>
      </trkpt>
      <trkpt lat="42.9132290" lon="-8.4226360">
        <ele>346.4</ele>
        <time>2021-03-03T13:39:55Z</time>
      </trkpt>
      <trkpt lat="42.9132430" lon="-8.4226070">
        <ele>346.6</ele>
        <time>2021-03-03T13:39:56Z</time>
      </trkpt>
      <trkpt lat="42.9132570" lon="-8.4225780">
        <ele>347.0</ele>
        <time>2021-03-03T13:39:57Z</time>
      </trkpt>
      <trkpt lat="42.9132650" lon="-8.4225480">
        <ele>347.0</ele>
        <time>2021-03-03T13:39:58Z</time>
      </trkpt>
      <trkpt lat="42.9132730" lon="-8.4225140">
        <ele>347.2</ele>
        <time>2021-03-03T13:39:59Z</time>
      </trkpt>
      <trkpt lat="42.9132850" lon="-8.4224820">
        <ele>347.2</ele>
        <time>2021-03-03T13:40:00Z</time>
      </trkpt>
      <trkpt lat="42.9132970" lon="-8.4224480">
        <ele>347.4</ele>
        <time>2021-03-03T13:40:01Z</time>
      </trkpt>
      <trkpt lat="42.9133070" lon="-8.4224120">
        <ele>347.6</ele>
        <time>2021-03-03T13:40:02Z</time>
      </trkpt>
      <trkpt lat="42.9133190" lon="-8.4223750">
        <ele>347.8</ele>
        <time>2021-03-03T13:40:03Z</time>
      </trkpt>
      <trkpt lat="42.9133270" lon="-8.4223330">
        <ele>347.8</ele>
        <time>2021-03-03T13:40:04Z</time>
      </trkpt>
      <trkpt lat="42.9133330" lon="-8.4222920">
        <ele>348.0</ele>
        <time>2021-03-03T13:40:05Z</time>
      </trkpt>
      <trkpt lat="42.9133410" lon="-8.4222540">
        <ele>347.8</ele>
        <time>2021-03-03T13:40:06Z</time>
      </trkpt>
      <trkpt lat="42.9133500" lon="-8.4222170">
        <ele>347.8</ele>
        <time>2021-03-03T13:40:07Z</time>
      </trkpt>
      <trkpt lat="42.9133560" lon="-8.4221810">
        <ele>347.6</ele>
        <time>2021-03-03T13:40:08Z</time>
      </trkpt>
      <trkpt lat="42.9133670" lon="-8.4221470">
        <ele>347.6</ele>
        <time>2021-03-03T13:40:09Z</time>
      </trkpt>
      <trkpt lat="42.9133820" lon="-8.4221120">
        <ele>347.6</ele>
        <time>2021-03-03T13:40:10Z</time>
      </trkpt>
      <trkpt lat="42.9133890" lon="-8.4220750">
        <ele>347.4</ele>
        <time>2021-03-03T13:40:11Z</time>
      </trkpt>
      <trkpt lat="42.9133960" lon="-8.4220380">
        <ele>347.4</ele>
        <time>2021-03-03T13:40:12Z</time>
      </trkpt>
      <trkpt lat="42.9133960" lon="-8.4220000">
        <ele>347.6</ele>
        <time>2021-03-03T13:40:13Z</time>
      </trkpt>
      <trkpt lat="42.9133960" lon="-8.4219660">
        <ele>347.6</ele>
        <time>2021-03-03T13:40:14Z</time>
      </trkpt>
      <trkpt lat="42.9134010" lon="-8.4219340">
        <ele>347.8</ele>
        <time>2021-03-03T13:40:15Z</time>
      </trkpt>
      <trkpt lat="42.9133990" lon="-8.4219010">
        <ele>348.0</ele>
        <time>2021-03-03T13:40:16Z</time>
      </trkpt>
      <trkpt lat="42.9133970" lon="-8.4218670">
        <ele>348.2</ele>
        <time>2021-03-03T13:40:17Z</time>
      </trkpt>
      <trkpt lat="42.9134020" lon="-8.4218140">
        <ele>348.2</ele>
        <time>2021-03-03T13:40:18Z</time>
      </trkpt>
      <trkpt lat="42.9134040" lon="-8.4217670">
        <ele>348.4</ele>
        <time>2021-03-03T13:40:19Z</time>
      </trkpt>
      <trkpt lat="42.9134030" lon="-8.4217240">
        <ele>348.4</ele>
        <time>2021-03-03T13:40:20Z</time>
      </trkpt>
      <trkpt lat="42.9134070" lon="-8.4216830">
        <ele>348.8</ele>
        <time>2021-03-03T13:40:21Z</time>
      </trkpt>
      <trkpt lat="42.9134110" lon="-8.4216420">
        <ele>349.0</ele>
        <time>2021-03-03T13:40:22Z</time>
      </trkpt>
      <trkpt lat="42.9134200" lon="-8.4216040">
        <ele>349.2</ele>
        <time>2021-03-03T13:40:23Z</time>
      </trkpt>
      <trkpt lat="42.9134250" lon="-8.4215670">
        <ele>349.2</ele>
        <time>2021-03-03T13:40:24Z</time>
      </trkpt>
      <trkpt lat="42.9134340" lon="-8.4215300">
        <ele>349.4</ele>
        <time>2021-03-03T13:40:25Z</time>
      </trkpt>
      <trkpt lat="42.9134430" lon="-8.4214970">
        <ele>349.6</ele>
        <time>2021-03-03T13:40:26Z</time>
      </trkpt>
      <trkpt lat="42.9134530" lon="-8.4214660">
        <ele>349.8</ele>
        <time>2021-03-03T13:40:27Z</time>
      </trkpt>
      <trkpt lat="42.9134560" lon="-8.4214300">
        <ele>350.0</ele>
        <time>2021-03-03T13:40:28Z</time>
      </trkpt>
      <trkpt lat="42.9134550" lon="-8.4213970">
        <ele>350.0</ele>
        <time>2021-03-03T13:40:29Z</time>
      </trkpt>
      <trkpt lat="42.9134510" lon="-8.4213630">
        <ele>350.4</ele>
        <time>2021-03-03T13:40:30Z</time>
      </trkpt>
      <trkpt lat="42.9134460" lon="-8.4213300">
        <ele>350.6</ele>
        <time>2021-03-03T13:40:31Z</time>
      </trkpt>
      <trkpt lat="42.9134450" lon="-8.4212970">
        <ele>350.8</ele>
        <time>2021-03-03T13:40:32Z</time>
      </trkpt>
      <trkpt lat="42.9134450" lon="-8.4212570">
        <ele>351.0</ele>
        <time>2021-03-03T13:40:33Z</time>
      </trkpt>
      <trkpt lat="42.9134440" lon="-8.4212290">
        <ele>351.0</ele>
        <time>2021-03-03T13:40:34Z</time>
      </trkpt>
      <trkpt lat="42.9134450" lon="-8.4212010">
        <ele>351.4</ele>
        <time>2021-03-03T13:40:35Z</time>
      </trkpt>
      <trkpt lat="42.9134460" lon="-8.4211690">
        <ele>351.6</ele>
        <time>2021-03-03T13:40:36Z</time>
      </trkpt>
      <trkpt lat="42.9134460" lon="-8.4211350">
        <ele>351.8</ele>
        <time>2021-03-03T13:40:37Z</time>
      </trkpt>
      <trkpt lat="42.9134420" lon="-8.4211010">
        <ele>351.8</ele>
        <time>2021-03-03T13:40:38Z</time>
      </trkpt>
      <trkpt lat="42.9134370" lon="-8.4210660">
        <ele>352.2</ele>
        <time>2021-03-03T13:40:39Z</time>
      </trkpt>
      <trkpt lat="42.9134390" lon="-8.4210320">
        <ele>352.4</ele>
        <time>2021-03-03T13:40:40Z</time>
      </trkpt>
      <trkpt lat="42.9134340" lon="-8.4210000">
        <ele>352.6</ele>
        <time>2021-03-03T13:40:41Z</time>
      </trkpt>
      <trkpt lat="42.9134340" lon="-8.4209680">
        <ele>352.6</ele>
        <time>2021-03-03T13:40:42Z</time>
      </trkpt>
      <trkpt lat="42.9134310" lon="-8.4209380">
        <ele>352.8</ele>
        <time>2021-03-03T13:40:43Z</time>
      </trkpt>
      <trkpt lat="42.9134370" lon="-8.4209080">
        <ele>353.0</ele>
        <time>2021-03-03T13:40:44Z</time>
      </trkpt>
      <trkpt lat="42.9134420" lon="-8.4208770">
        <ele>353.0</ele>
        <time>2021-03-03T13:40:45Z</time>
      </trkpt>
      <trkpt lat="42.9134480" lon="-8.4208480">
        <ele>353.2</ele>
        <time>2021-03-03T13:40:46Z</time>
      </trkpt>
      <trkpt lat="42.9134510" lon="-8.4208260">
        <ele>353.4</ele>
        <time>2021-03-03T13:40:47Z</time>
      </trkpt>
      <trkpt lat="42.9134530" lon="-8.4208010">
        <ele>353.6</ele>
        <time>2021-03-03T13:40:48Z</time>
      </trkpt>
      <trkpt lat="42.9134590" lon="-8.4207720">
        <ele>353.6</ele>
        <time>2021-03-03T13:40:49Z</time>
      </trkpt>
      <trkpt lat="42.9134710" lon="-8.4207560">
        <ele>353.8</ele>
        <time>2021-03-03T13:40:50Z</time>
      </trkpt>
      <trkpt lat="42.9134760" lon="-8.4207440">
        <ele>354.0</ele>
        <time>2021-03-03T13:40:51Z</time>
      </trkpt>
      <trkpt lat="42.9134760" lon="-8.4207280">
        <ele>354.0</ele>
        <time>2021-03-03T13:40:52Z</time>
      </trkpt>
      <trkpt lat="42.9134770" lon="-8.4207070">
        <ele>354.2</ele>
        <time>2021-03-03T13:40:53Z</time>
      </trkpt>
      <trkpt lat="42.9134770" lon="-8.4206920">
        <ele>354.4</ele>
        <time>2021-03-03T13:40:54Z</time>
      </trkpt>
      <trkpt lat="42.9134780" lon="-8.4206810">
        <ele>354.6</ele>
        <time>2021-03-03T13:40:55Z</time>
      </trkpt>
      <trkpt lat="42.9134770" lon="-8.4206600">
        <ele>354.8</ele>
        <time>2021-03-03T13:40:56Z</time>
      </trkpt>
      <trkpt lat="42.9134740" lon="-8.4206330">
        <ele>355.0</ele>
        <time>2021-03-03T13:40:57Z</time>
      </trkpt>
      <trkpt lat="42.9134730" lon="-8.4206140">
        <ele>355.2</ele>
        <time>2021-03-03T13:40:58Z</time>
      </trkpt>
      <trkpt lat="42.9134730" lon="-8.4205960">
        <ele>355.4</ele>
        <time>2021-03-03T13:40:59Z</time>
      </trkpt>
      <trkpt lat="42.9134720" lon="-8.4205740">
        <ele>355.6</ele>
        <time>2021-03-03T13:41:00Z</time>
      </trkpt>
      <trkpt lat="42.9134700" lon="-8.4205530">
        <ele>355.8</ele>
        <time>2021-03-03T13:41:01Z</time>
      </trkpt>
      <trkpt lat="42.9134690" lon="-8.4205350">
        <ele>356.0</ele>
        <time>2021-03-03T13:41:02Z</time>
      </trkpt>
      <trkpt lat="42.9134690" lon="-8.4205170">
        <ele>356.2</ele>
        <time>2021-03-03T13:41:03Z</time>
      </trkpt>
      <trkpt lat="42.9134650" lon="-8.4204980">
        <ele>356.4</ele>
        <time>2021-03-03T13:41:04Z</time>
      </trkpt>
      <trkpt lat="42.9134610" lon="-8.4204760">
        <ele>356.6</ele>
        <time>2021-03-03T13:41:05Z</time>
      </trkpt>
      <trkpt lat="42.9134570" lon="-8.4204560">
        <ele>357.0</ele>
        <time>2021-03-03T13:41:06Z</time>
      </trkpt>
      <trkpt lat="42.9134540" lon="-8.4204330">
        <ele>357.2</ele>
        <time>2021-03-03T13:41:07Z</time>
      </trkpt>
      <trkpt lat="42.9134530" lon="-8.4204070">
        <ele>357.4</ele>
        <time>2021-03-03T13:41:08Z</time>
      </trkpt>
      <trkpt lat="42.9134520" lon="-8.4203810">
        <ele>357.8</ele>
        <time>2021-03-03T13:41:09Z</time>
      </trkpt>
      <trkpt lat="42.9134550" lon="-8.4203560">
        <ele>358.2</ele>
        <time>2021-03-03T13:41:10Z</time>
      </trkpt>
      <trkpt lat="42.9134570" lon="-8.4203310">
        <ele>358.4</ele>
        <time>2021-03-03T13:41:11Z</time>
      </trkpt>
      <trkpt lat="42.9134620" lon="-8.4203050">
        <ele>358.6</ele>
        <time>2021-03-03T13:41:12Z</time>
      </trkpt>
      <trkpt lat="42.9134700" lon="-8.4202790">
        <ele>358.6</ele>
        <time>2021-03-03T13:41:13Z</time>
      </trkpt>
      <trkpt lat="42.9134770" lon="-8.4202550">
        <ele>358.8</ele>
        <time>2021-03-03T13:41:14Z</time>
      </trkpt>
      <trkpt lat="42.9134840" lon="-8.4202340">
        <ele>359.2</ele>
        <time>2021-03-03T13:41:15Z</time>
      </trkpt>
      <trkpt lat="42.9134920" lon="-8.4202160">
        <ele>359.6</ele>
        <time>2021-03-03T13:41:16Z</time>
      </trkpt>
      <trkpt lat="42.9135010" lon="-8.4201960">
        <ele>360.0</ele>
        <time>2021-03-03T13:41:17Z</time>
      </trkpt>
      <trkpt lat="42.9135140" lon="-8.4201790">
        <ele>360.4</ele>
        <time>2021-03-03T13:41:18Z</time>
      </trkpt>
      <trkpt lat="42.9135220" lon="-8.4201600">
        <ele>360.6</ele>
        <time>2021-03-03T13:41:19Z</time>
      </trkpt>
      <trkpt lat="42.9135280" lon="-8.4201380">
        <ele>360.8</ele>
        <time>2021-03-03T13:41:20Z</time>
      </trkpt>
      <trkpt lat="42.9135390" lon="-8.4201180">
        <ele>360.8</ele>
        <time>2021-03-03T13:41:21Z</time>
      </trkpt>
      <trkpt lat="42.9135530" lon="-8.4200960">
        <ele>361.0</ele>
        <time>2021-03-03T13:41:22Z</time>
      </trkpt>
      <trkpt lat="42.9135710" lon="-8.4200760">
        <ele>360.6</ele>
        <time>2021-03-03T13:41:23Z</time>
      </trkpt>
      <trkpt lat="42.9135920" lon="-8.4200580">
        <ele>360.6</ele>
        <time>2021-03-03T13:41:24Z</time>
      </trkpt>
      <trkpt lat="42.9136120" lon="-8.4200390">
        <ele>360.2</ele>
        <time>2021-03-03T13:41:25Z</time>
      </trkpt>
      <trkpt lat="42.9136300" lon="-8.4200110">
        <ele>360.2</ele>
        <time>2021-03-03T13:41:26Z</time>
      </trkpt>
      <trkpt lat="42.9136440" lon="-8.4199790">
        <ele>360.0</ele>
        <time>2021-03-03T13:41:27Z</time>
      </trkpt>
      <trkpt lat="42.9136560" lon="-8.4199450">
        <ele>360.0</ele>
        <time>2021-03-03T13:41:28Z</time>
      </trkpt>
      <trkpt lat="42.9136640" lon="-8.4199080">
        <ele>360.0</ele>
        <time>2021-03-03T13:41:29Z</time>
      </trkpt>
      <trkpt lat="42.9136680" lon="-8.4198710">
        <ele>360.0</ele>
        <time>2021-03-03T13:41:30Z</time>
      </trkpt>
      <trkpt lat="42.9136700" lon="-8.4198330">
        <ele>360.0</ele>
        <time>2021-03-03T13:41:31Z</time>
      </trkpt>
      <trkpt lat="42.9136690" lon="-8.4197940">
        <ele>360.0</ele>
        <time>2021-03-03T13:41:32Z</time>
      </trkpt>
      <trkpt lat="42.9136690" lon="-8.4197540">
        <ele>360.2</ele>
        <time>2021-03-03T13:41:33Z</time>
      </trkpt>
      <trkpt lat="42.9136680" lon="-8.4197110">
        <ele>360.2</ele>
        <time>2021-03-03T13:41:34Z</time>
      </trkpt>
      <trkpt lat="42.9136690" lon="-8.4196660">
        <ele>360.4</ele>
        <time>2021-03-03T13:41:35Z</time>
      </trkpt>
      <trkpt lat="42.9136690" lon="-8.4196230">
        <ele>360.4</ele>
        <time>2021-03-03T13:41:36Z</time>
      </trkpt>
      <trkpt lat="42.9136630" lon="-8.4195810">
        <ele>360.4</ele>
        <time>2021-03-03T13:41:37Z</time>
      </trkpt>
      <trkpt lat="42.9136570" lon="-8.4195390">
        <ele>360.6</ele>
        <time>2021-03-03T13:41:38Z</time>
      </trkpt>
      <trkpt lat="42.9136510" lon="-8.4194990">
        <ele>360.6</ele>
        <time>2021-03-03T13:41:39Z</time>
      </trkpt>
      <trkpt lat="42.9136470" lon="-8.4194620">
        <ele>360.6</ele>
        <time>2021-03-03T13:41:40Z</time>
      </trkpt>
      <trkpt lat="42.9136430" lon="-8.4194250">
        <ele>360.8</ele>
        <time>2021-03-03T13:41:41Z</time>
      </trkpt>
      <trkpt lat="42.9136380" lon="-8.4193880">
        <ele>360.8</ele>
        <time>2021-03-03T13:41:42Z</time>
      </trkpt>
      <trkpt lat="42.9136340" lon="-8.4193530">
        <ele>361.0</ele>
        <time>2021-03-03T13:41:43Z</time>
      </trkpt>
      <trkpt lat="42.9136280" lon="-8.4193170">
        <ele>361.2</ele>
        <time>2021-03-03T13:41:44Z</time>
      </trkpt>
      <trkpt lat="42.9136230" lon="-8.4192810">
        <ele>361.2</ele>
        <time>2021-03-03T13:41:45Z</time>
      </trkpt>
      <trkpt lat="42.9136190" lon="-8.4192480">
        <ele>361.4</ele>
        <time>2021-03-03T13:41:46Z</time>
      </trkpt>
      <trkpt lat="42.9136190" lon="-8.4192140">
        <ele>361.4</ele>
        <time>2021-03-03T13:41:47Z</time>
      </trkpt>
      <trkpt lat="42.9136120" lon="-8.4191770">
        <ele>361.4</ele>
        <time>2021-03-03T13:41:48Z</time>
      </trkpt>
      <trkpt lat="42.9136030" lon="-8.4191360">
        <ele>361.6</ele>
        <time>2021-03-03T13:41:49Z</time>
      </trkpt>
      <trkpt lat="42.9135960" lon="-8.4190930">
        <ele>361.6</ele>
        <time>2021-03-03T13:41:50Z</time>
      </trkpt>
      <trkpt lat="42.9135910" lon="-8.4190540">
        <ele>361.8</ele>
        <time>2021-03-03T13:41:51Z</time>
      </trkpt>
      <trkpt lat="42.9135910" lon="-8.4190120">
        <ele>361.8</ele>
        <time>2021-03-03T13:41:52Z</time>
      </trkpt>
      <trkpt lat="42.9135900" lon="-8.4189730">
        <ele>361.8</ele>
        <time>2021-03-03T13:41:53Z</time>
      </trkpt>
      <trkpt lat="42.9135850" lon="-8.4189330">
        <ele>361.8</ele>
        <time>2021-03-03T13:41:54Z</time>
      </trkpt>
      <trkpt lat="42.9135840" lon="-8.4188920">
        <ele>361.8</ele>
        <time>2021-03-03T13:41:55Z</time>
      </trkpt>
      <trkpt lat="42.9135810" lon="-8.4188530">
        <ele>362.0</ele>
        <time>2021-03-03T13:41:56Z</time>
      </trkpt>
      <trkpt lat="42.9135760" lon="-8.4188150">
        <ele>362.2</ele>
        <time>2021-03-03T13:41:57Z</time>
      </trkpt>
      <trkpt lat="42.9135710" lon="-8.4187770">
        <ele>362.4</ele>
        <time>2021-03-03T13:41:58Z</time>
      </trkpt>
      <trkpt lat="42.9135660" lon="-8.4187390">
        <ele>362.4</ele>
        <time>2021-03-03T13:41:59Z</time>
      </trkpt>
      <trkpt lat="42.9135630" lon="-8.4187070">
        <ele>362.6</ele>
        <time>2021-03-03T13:42:00Z</time>
      </trkpt>
      <trkpt lat="42.9135580" lon="-8.4186720">
        <ele>362.8</ele>
        <time>2021-03-03T13:42:01Z</time>
      </trkpt>
      <trkpt lat="42.9135520" lon="-8.4186370">
        <ele>363.0</ele>
        <time>2021-03-03T13:42:02Z</time>
      </trkpt>
      <trkpt lat="42.9135450" lon="-8.4186060">
        <ele>363.4</ele>
        <time>2021-03-03T13:42:03Z</time>
      </trkpt>
      <trkpt lat="42.9135400" lon="-8.4185730">
        <ele>363.6</ele>
        <time>2021-03-03T13:42:04Z</time>
      </trkpt>
      <trkpt lat="42.9135360" lon="-8.4185340">
        <ele>363.8</ele>
        <time>2021-03-03T13:42:05Z</time>
      </trkpt>
      <trkpt lat="42.9135340" lon="-8.4184900">
        <ele>364.0</ele>
        <time>2021-03-03T13:42:06Z</time>
      </trkpt>
      <trkpt lat="42.9135350" lon="-8.4184490">
        <ele>364.2</ele>
        <time>2021-03-03T13:42:07Z</time>
      </trkpt>
      <trkpt lat="42.9135440" lon="-8.4184070">
        <ele>364.2</ele>
        <time>2021-03-03T13:42:08Z</time>
      </trkpt>
      <trkpt lat="42.9135550" lon="-8.4183640">
        <ele>364.4</ele>
        <time>2021-03-03T13:42:09Z</time>
      </trkpt>
      <trkpt lat="42.9135690" lon="-8.4183250">
        <ele>364.4</ele>
        <time>2021-03-03T13:42:10Z</time>
      </trkpt>
      <trkpt lat="42.9135880" lon="-8.4182720">
        <ele>364.6</ele>
        <time>2021-03-03T13:42:11Z</time>
      </trkpt>
      <trkpt lat="42.9136030" lon="-8.4182230">
        <ele>364.6</ele>
        <time>2021-03-03T13:42:12Z</time>
      </trkpt>
      <trkpt lat="42.9136150" lon="-8.4181750">
        <ele>364.6</ele>
        <time>2021-03-03T13:42:13Z</time>
      </trkpt>
      <trkpt lat="42.9136300" lon="-8.4181250">
        <ele>364.6</ele>
        <time>2021-03-03T13:42:14Z</time>
      </trkpt>
      <trkpt lat="42.9136450" lon="-8.4180740">
        <ele>364.6</ele>
        <time>2021-03-03T13:42:15Z</time>
      </trkpt>
      <trkpt lat="42.9136580" lon="-8.4180220">
        <ele>364.6</ele>
        <time>2021-03-03T13:42:16Z</time>
      </trkpt>
      <trkpt lat="42.9136690" lon="-8.4179660">
        <ele>364.8</ele>
        <time>2021-03-03T13:42:17Z</time>
      </trkpt>
      <trkpt lat="42.9136740" lon="-8.4179180">
        <ele>364.8</ele>
        <time>2021-03-03T13:42:18Z</time>
      </trkpt>
      <trkpt lat="42.9136750" lon="-8.4178720">
        <ele>365.0</ele>
        <time>2021-03-03T13:42:19Z</time>
      </trkpt>
      <trkpt lat="42.9136770" lon="-8.4178270">
        <ele>365.0</ele>
        <time>2021-03-03T13:42:20Z</time>
      </trkpt>
      <trkpt lat="42.9136800" lon="-8.4177800">
        <ele>365.2</ele>
        <time>2021-03-03T13:42:21Z</time>
      </trkpt>
      <trkpt lat="42.9136820" lon="-8.4177370">
        <ele>365.4</ele>
        <time>2021-03-03T13:42:22Z</time>
      </trkpt>
      <trkpt lat="42.9136880" lon="-8.4176880">
        <ele>365.4</ele>
        <time>2021-03-03T13:42:23Z</time>
      </trkpt>
      <trkpt lat="42.9136850" lon="-8.4176390">
        <ele>365.6</ele>
        <time>2021-03-03T13:42:24Z</time>
      </trkpt>
      <trkpt lat="42.9136810" lon="-8.4175930">
        <ele>365.6</ele>
        <time>2021-03-03T13:42:25Z</time>
      </trkpt>
      <trkpt lat="42.9136840" lon="-8.4175440">
        <ele>366.0</ele>
        <time>2021-03-03T13:42:26Z</time>
      </trkpt>
      <trkpt lat="42.9136850" lon="-8.4175010">
        <ele>366.2</ele>
        <time>2021-03-03T13:42:27Z</time>
      </trkpt>
      <trkpt lat="42.9136840" lon="-8.4174540">
        <ele>366.4</ele>
        <time>2021-03-03T13:42:28Z</time>
      </trkpt>
      <trkpt lat="42.9136850" lon="-8.4174090">
        <ele>366.6</ele>
        <time>2021-03-03T13:42:29Z</time>
      </trkpt>
      <trkpt lat="42.9136850" lon="-8.4173600">
        <ele>367.0</ele>
        <time>2021-03-03T13:42:30Z</time>
      </trkpt>
      <trkpt lat="42.9136860" lon="-8.4173160">
        <ele>367.2</ele>
        <time>2021-03-03T13:42:31Z</time>
      </trkpt>
      <trkpt lat="42.9136860" lon="-8.4172730">
        <ele>367.6</ele>
        <time>2021-03-03T13:42:32Z</time>
      </trkpt>
      <trkpt lat="42.9136870" lon="-8.4172300">
        <ele>367.6</ele>
        <time>2021-03-03T13:42:33Z</time>
      </trkpt>
      <trkpt lat="42.9136880" lon="-8.4171880">
        <ele>367.8</ele>
        <time>2021-03-03T13:42:34Z</time>
      </trkpt>
      <trkpt lat="42.9136880" lon="-8.4171450">
        <ele>367.8</ele>
        <time>2021-03-03T13:42:35Z</time>
      </trkpt>
      <trkpt lat="42.9136870" lon="-8.4171020">
        <ele>367.8</ele>
        <time>2021-03-03T13:42:36Z</time>
      </trkpt>
      <trkpt lat="42.9136860" lon="-8.4170600">
        <ele>368.0</ele>
        <time>2021-03-03T13:42:37Z</time>
      </trkpt>
      <trkpt lat="42.9136860" lon="-8.4170180">
        <ele>368.2</ele>
        <time>2021-03-03T13:42:38Z</time>
      </trkpt>
      <trkpt lat="42.9136860" lon="-8.4169790">
        <ele>368.6</ele>
        <time>2021-03-03T13:42:39Z</time>
      </trkpt>
      <trkpt lat="42.9136870" lon="-8.4169370">
        <ele>368.8</ele>
        <time>2021-03-03T13:42:40Z</time>
      </trkpt>
      <trkpt lat="42.9136870" lon="-8.4168960">
        <ele>369.0</ele>
        <time>2021-03-03T13:42:41Z</time>
      </trkpt>
      <trkpt lat="42.9136890" lon="-8.4168530">
        <ele>369.0</ele>
        <time>2021-03-03T13:42:42Z</time>
      </trkpt>
      <trkpt lat="42.9136890" lon="-8.4168110">
        <ele>369.2</ele>
        <time>2021-03-03T13:42:43Z</time>
      </trkpt>
      <trkpt lat="42.9136890" lon="-8.4167700">
        <ele>369.6</ele>
        <time>2021-03-03T13:42:44Z</time>
      </trkpt>
      <trkpt lat="42.9136890" lon="-8.4167280">
        <ele>369.8</ele>
        <time>2021-03-03T13:42:45Z</time>
      </trkpt>
      <trkpt lat="42.9136880" lon="-8.4166870">
        <ele>370.0</ele>
        <time>2021-03-03T13:42:46Z</time>
      </trkpt>
      <trkpt lat="42.9136870" lon="-8.4166440">
        <ele>370.2</ele>
        <time>2021-03-03T13:42:47Z</time>
      </trkpt>
      <trkpt lat="42.9136870" lon="-8.4166040">
        <ele>370.4</ele>
        <time>2021-03-03T13:42:48Z</time>
      </trkpt>
      <trkpt lat="42.9136870" lon="-8.4165590">
        <ele>370.8</ele>
        <time>2021-03-03T13:42:49Z</time>
      </trkpt>
      <trkpt lat="42.9136880" lon="-8.4165180">
        <ele>371.0</ele>
        <time>2021-03-03T13:42:50Z</time>
      </trkpt>
      <trkpt lat="42.9136880" lon="-8.4164750">
        <ele>371.4</ele>
        <time>2021-03-03T13:42:51Z</time>
      </trkpt>
      <trkpt lat="42.9136880" lon="-8.4164340">
        <ele>371.6</ele>
        <time>2021-03-03T13:42:52Z</time>
      </trkpt>
      <trkpt lat="42.9136860" lon="-8.4163950">
        <ele>371.8</ele>
        <time>2021-03-03T13:42:53Z</time>
      </trkpt>
      <trkpt lat="42.9136830" lon="-8.4163560">
        <ele>371.8</ele>
        <time>2021-03-03T13:42:54Z</time>
      </trkpt>
      <trkpt lat="42.9136830" lon="-8.4163140">
        <ele>372.2</ele>
        <time>2021-03-03T13:42:55Z</time>
      </trkpt>
      <trkpt lat="42.9136830" lon="-8.4162700">
        <ele>372.2</ele>
        <time>2021-03-03T13:42:56Z</time>
      </trkpt>
      <trkpt lat="42.9136830" lon="-8.4162290">
        <ele>372.4</ele>
        <time>2021-03-03T13:42:57Z</time>
      </trkpt>
      <trkpt lat="42.9136840" lon="-8.4161840">
        <ele>372.4</ele>
        <time>2021-03-03T13:42:58Z</time>
      </trkpt>
      <trkpt lat="42.9136850" lon="-8.4161410">
        <ele>372.6</ele>
        <time>2021-03-03T13:42:59Z</time>
      </trkpt>
      <trkpt lat="42.9136860" lon="-8.4160980">
        <ele>372.8</ele>
        <time>2021-03-03T13:43:00Z</time>
      </trkpt>
      <trkpt lat="42.9136870" lon="-8.4160550">
        <ele>373.0</ele>
        <time>2021-03-03T13:43:01Z</time>
      </trkpt>
      <trkpt lat="42.9136890" lon="-8.4160130">
        <ele>373.4</ele>
        <time>2021-03-03T13:43:02Z</time>
      </trkpt>
      <trkpt lat="42.9136850" lon="-8.4159700">
        <ele>373.6</ele>
        <time>2021-03-03T13:43:03Z</time>
      </trkpt>
      <trkpt lat="42.9136830" lon="-8.4159260">
        <ele>373.6</ele>
        <time>2021-03-03T13:43:04Z</time>
      </trkpt>
      <trkpt lat="42.9136830" lon="-8.4158790">
        <ele>374.0</ele>
        <time>2021-03-03T13:43:05Z</time>
      </trkpt>
      <trkpt lat="42.9136850" lon="-8.4158340">
        <ele>374.2</ele>
        <time>2021-03-03T13:43:06Z</time>
      </trkpt>
      <trkpt lat="42.9136860" lon="-8.4157920">
        <ele>374.2</ele>
        <time>2021-03-03T13:43:07Z</time>
      </trkpt>
      <trkpt lat="42.9136850" lon="-8.4157460">
        <ele>374.4</ele>
        <time>2021-03-03T13:43:08Z</time>
      </trkpt>
      <trkpt lat="42.9136840" lon="-8.4157020">
        <ele>374.6</ele>
        <time>2021-03-03T13:43:09Z</time>
      </trkpt>
      <trkpt lat="42.9136840" lon="-8.4156580">
        <ele>374.8</ele>
        <time>2021-03-03T13:43:10Z</time>
      </trkpt>
      <trkpt lat="42.9136830" lon="-8.4156170">
        <ele>374.8</ele>
        <time>2021-03-03T13:43:11Z</time>
      </trkpt>
      <trkpt lat="42.9136850" lon="-8.4155750">
        <ele>375.0</ele>
        <time>2021-03-03T13:43:12Z</time>
      </trkpt>
      <trkpt lat="42.9136840" lon="-8.4155340">
        <ele>375.0</ele>
        <time>2021-03-03T13:43:13Z</time>
      </trkpt>
      <trkpt lat="42.9136810" lon="-8.4154940">
        <ele>375.2</ele>
        <time>2021-03-03T13:43:14Z</time>
      </trkpt>
      <trkpt lat="42.9136780" lon="-8.4154530">
        <ele>375.2</ele>
        <time>2021-03-03T13:43:15Z</time>
      </trkpt>
      <trkpt lat="42.9136760" lon="-8.4154150">
        <ele>375.2</ele>
        <time>2021-03-03T13:43:16Z</time>
      </trkpt>
      <trkpt lat="42.9136740" lon="-8.4153740">
        <ele>375.4</ele>
        <time>2021-03-03T13:43:17Z</time>
      </trkpt>
      <trkpt lat="42.9136740" lon="-8.4153360">
        <ele>375.8</ele>
        <time>2021-03-03T13:43:18Z</time>
      </trkpt>
      <trkpt lat="42.9136770" lon="-8.4152970">
        <ele>376.2</ele>
        <time>2021-03-03T13:43:19Z</time>
      </trkpt>
      <trkpt lat="42.9136790" lon="-8.4152590">
        <ele>376.4</ele>
        <time>2021-03-03T13:43:20Z</time>
      </trkpt>
      <trkpt lat="42.9136780" lon="-8.4152220">
        <ele>376.8</ele>
        <time>2021-03-03T13:43:21Z</time>
      </trkpt>
      <trkpt lat="42.9136750" lon="-8.4151820">
        <ele>377.0</ele>
        <time>2021-03-03T13:43:22Z</time>
      </trkpt>
      <trkpt lat="42.9136770" lon="-8.4151400">
        <ele>377.2</ele>
        <time>2021-03-03T13:43:23Z</time>
      </trkpt>
      <trkpt lat="42.9136790" lon="-8.4150980">
        <ele>377.2</ele>
        <time>2021-03-03T13:43:24Z</time>
      </trkpt>
      <trkpt lat="42.9136780" lon="-8.4150610">
        <ele>377.4</ele>
        <time>2021-03-03T13:43:25Z</time>
      </trkpt>
      <trkpt lat="42.9136810" lon="-8.4150240">
        <ele>377.8</ele>
        <time>2021-03-03T13:43:26Z</time>
      </trkpt>
      <trkpt lat="42.9136840" lon="-8.4149880">
        <ele>378.0</ele>
        <time>2021-03-03T13:43:27Z</time>
      </trkpt>
      <trkpt lat="42.9136860" lon="-8.4149550">
        <ele>378.2</ele>
        <time>2021-03-03T13:43:28Z</time>
      </trkpt>
      <trkpt lat="42.9136850" lon="-8.4149260">
        <ele>378.4</ele>
        <time>2021-03-03T13:43:29Z</time>
      </trkpt>
      <trkpt lat="42.9136860" lon="-8.4149050">
        <ele>378.6</ele>
        <time>2021-03-03T13:43:30Z</time>
      </trkpt>
      <trkpt lat="42.9136870" lon="-8.4148910">
        <ele>378.8</ele>
        <time>2021-03-03T13:43:31Z</time>
      </trkpt>
      <trkpt lat="42.9136860" lon="-8.4148680">
        <ele>379.0</ele>
        <time>2021-03-03T13:43:32Z</time>
      </trkpt>
      <trkpt lat="42.9136850" lon="-8.4148430">
        <ele>379.0</ele>
        <time>2021-03-03T13:43:33Z</time>
      </trkpt>
      <trkpt lat="42.9136850" lon="-8.4148120">
        <ele>379.0</ele>
        <time>2021-03-03T13:43:34Z</time>
      </trkpt>
      <trkpt lat="42.9136850" lon="-8.4147830">
        <ele>379.0</ele>
        <time>2021-03-03T13:43:35Z</time>
      </trkpt>
      <trkpt lat="42.9136830" lon="-8.4147440">
        <ele>379.2</ele>
        <time>2021-03-03T13:43:36Z</time>
      </trkpt>
      <trkpt lat="42.9136820" lon="-8.4146970">
        <ele>379.0</ele>
        <time>2021-03-03T13:43:37Z</time>
      </trkpt>
      <trkpt lat="42.9136770" lon="-8.4146550">
        <ele>379.0</ele>
        <time>2021-03-03T13:43:38Z</time>
      </trkpt>
      <trkpt lat="42.9136740" lon="-8.4146180">
        <ele>379.2</ele>
        <time>2021-03-03T13:43:39Z</time>
      </trkpt>
      <trkpt lat="42.9136730" lon="-8.4145750">
        <ele>379.2</ele>
        <time>2021-03-03T13:43:40Z</time>
      </trkpt>
      <trkpt lat="42.9136730" lon="-8.4145220">
        <ele>379.4</ele>
        <time>2021-03-03T13:43:41Z</time>
      </trkpt>
      <trkpt lat="42.9136720" lon="-8.4144830">
        <ele>379.4</ele>
        <time>2021-03-03T13:43:42Z</time>
      </trkpt>
      <trkpt lat="42.9136710" lon="-8.4144440">
        <ele>379.4</ele>
        <time>2021-03-03T13:43:43Z</time>
      </trkpt>
      <trkpt lat="42.9136720" lon="-8.4144120">
        <ele>379.6</ele>
        <time>2021-03-03T13:43:44Z</time>
      </trkpt>
      <trkpt lat="42.9136710" lon="-8.4143700">
        <ele>379.6</ele>
        <time>2021-03-03T13:43:45Z</time>
      </trkpt>
      <trkpt lat="42.9136730" lon="-8.4143190">
        <ele>379.6</ele>
        <time>2021-03-03T13:43:46Z</time>
      </trkpt>
      <trkpt lat="42.9136720" lon="-8.4142770">
        <ele>379.6</ele>
        <time>2021-03-03T13:43:47Z</time>
      </trkpt>
      <trkpt lat="42.9136760" lon="-8.4142370">
        <ele>379.6</ele>
        <time>2021-03-03T13:43:48Z</time>
      </trkpt>
      <trkpt lat="42.9136830" lon="-8.4142080">
        <ele>379.6</ele>
        <time>2021-03-03T13:43:49Z</time>
      </trkpt>
      <trkpt lat="42.9136960" lon="-8.4141680">
        <ele>379.6</ele>
        <time>2021-03-03T13:43:50Z</time>
      </trkpt>
      <trkpt lat="42.9137080" lon="-8.4141410">
        <ele>379.6</ele>
        <time>2021-03-03T13:43:51Z</time>
      </trkpt>
      <trkpt lat="42.9137250" lon="-8.4141240">
        <ele>379.6</ele>
        <time>2021-03-03T13:43:52Z</time>
      </trkpt>
      <trkpt lat="42.9137390" lon="-8.4141170">
        <ele>379.4</ele>
        <time>2021-03-03T13:43:53Z</time>
      </trkpt>
      <trkpt lat="42.9137550" lon="-8.4141100">
        <ele>379.4</ele>
        <time>2021-03-03T13:43:54Z</time>
      </trkpt>
    </trkseg>
  </trk>
</gpx>
